<?xml version="1.0" encoding="UTF-8" standalone="no" ?>
<gpx xmlns="http://www.topografix.com/GPX/1/1" xmlns:xsi="http://www.w3.org/2001/XMLSchema-instance" xsi:schemaLocation="http://www.topografix.com/GPX/1/1 http://www.topografix.com/GPX/1/1/gpx.xsd" version="1.1" creator="VisuGPX - https://www.visugpx.com">
  <metadata>
    <name>Balade hivernale</name>
    <desc><![CDATA[Balade effectuée du 9 décembre 2022 au 7 janvier 2023.]]></desc>
  </metadata>
  <trk>
    <name><![CDATA[Colomiers - Pezens]]></name>
    <extensions>
      <line xmlns="http://www.topografix.com/GPX/gpx_style/0/2">
        <color>0000ff</color>
        <width>4</width>
      </line>
    </extensions>
    <trkseg>
      <trkpt lat="43.62084" lon="1.32901">
        <ele>230.505201</ele>
        <time>2023-01-04T08:20:32.194Z</time>
      </trkpt>
      <trkpt lat="43.62088" lon="1.32888">
        <ele>230.505201</ele>
        <time>2023-01-04T08:21:33.265Z</time>
      </trkpt>
      <trkpt lat="43.62089" lon="1.32874">
        <ele>230.505201</ele>
        <time>2023-01-04T08:21:39.255Z</time>
      </trkpt>
      <trkpt lat="43.62085" lon="1.32862">
        <ele>230.505201</ele>
        <time>2023-01-04T08:21:45.253Z</time>
      </trkpt>
      <trkpt lat="43.62077" lon="1.32852">
        <ele>230.505201</ele>
        <time>2023-01-04T08:21:51.236Z</time>
      </trkpt>
      <trkpt lat="43.6207" lon="1.32844">
        <ele>230.505201</ele>
        <time>2023-01-04T08:21:58.248Z</time>
      </trkpt>
      <trkpt lat="43.6207" lon="1.32831">
        <ele>230.505201</ele>
        <time>2023-01-04T08:23:12.240Z</time>
      </trkpt>
      <trkpt lat="43.62063" lon="1.32821">
        <ele>230.505201</ele>
        <time>2023-01-04T08:23:18.248Z</time>
      </trkpt>
      <trkpt lat="43.62054" lon="1.32822">
        <ele>230.505201</ele>
        <time>2023-01-04T08:23:24.233Z</time>
      </trkpt>
      <trkpt lat="43.62049" lon="1.32832">
        <ele>230.505201</ele>
        <time>2023-01-04T08:23:29.246Z</time>
      </trkpt>
      <trkpt lat="43.62045" lon="1.32847">
        <ele>230.44352</ele>
        <time>2023-01-04T08:23:33.253Z</time>
      </trkpt>
      <trkpt lat="43.62041" lon="1.32858">
        <ele>230.383699</ele>
        <time>2023-01-04T08:23:36.254Z</time>
      </trkpt>
      <trkpt lat="43.62035" lon="1.32868">
        <ele>230.323737</ele>
        <time>2023-01-04T08:23:39.258Z</time>
      </trkpt>
      <trkpt lat="43.62027" lon="1.32875">
        <ele>230.264984</ele>
        <time>2023-01-04T08:23:42.259Z</time>
      </trkpt>
      <trkpt lat="43.62018" lon="1.32875">
        <ele>230.204673</ele>
        <time>2023-01-04T08:23:45.235Z</time>
      </trkpt>
      <trkpt lat="43.62008" lon="1.32874">
        <ele>230.13964</ele>
        <time>2023-01-04T08:23:48.247Z</time>
      </trkpt>
      <trkpt lat="43.61997" lon="1.32873">
        <ele>230.071624</ele>
        <time>2023-01-04T08:23:51.244Z</time>
      </trkpt>
      <trkpt lat="43.61986" lon="1.32872">
        <ele>229.998343</ele>
        <time>2023-01-04T08:23:54.263Z</time>
      </trkpt>
      <trkpt lat="43.61974" lon="1.32871">
        <ele>229.923781</ele>
        <time>2023-01-04T08:23:57.266Z</time>
      </trkpt>
      <trkpt lat="43.61962" lon="1.32869">
        <ele>229.843691</ele>
        <time>2023-01-04T08:24:00.238Z</time>
      </trkpt>
      <trkpt lat="43.6195" lon="1.32867">
        <ele>229.769147</ele>
        <time>2023-01-04T08:24:03.241Z</time>
      </trkpt>
      <trkpt lat="43.61939" lon="1.32866">
        <ele>229.699066</ele>
        <time>2023-01-04T08:24:06.248Z</time>
      </trkpt>
      <trkpt lat="43.61929" lon="1.32865">
        <ele>229.632714</ele>
        <time>2023-01-04T08:24:09.254Z</time>
      </trkpt>
      <trkpt lat="43.61919" lon="1.32864">
        <ele>229.567263</ele>
        <time>2023-01-04T08:24:13.241Z</time>
      </trkpt>
      <trkpt lat="43.6191" lon="1.32873">
        <ele>229.498889</ele>
        <time>2023-01-04T08:24:17.250Z</time>
      </trkpt>
      <trkpt lat="43.6191" lon="1.32887">
        <ele>229.430591</ele>
        <time>2023-01-04T08:24:21.240Z</time>
      </trkpt>
      <trkpt lat="43.61914" lon="1.32899">
        <ele>229.370937</ele>
        <time>2023-01-04T08:24:24.233Z</time>
      </trkpt>
      <trkpt lat="43.61918" lon="1.32912">
        <ele>229.391218</ele>
        <time>2023-01-04T08:24:27.250Z</time>
      </trkpt>
      <trkpt lat="43.6192" lon="1.32927">
        <ele>229.450378</ele>
        <time>2023-01-04T08:24:30.244Z</time>
      </trkpt>
      <trkpt lat="43.61919" lon="1.32942">
        <ele>229.50966</ele>
        <time>2023-01-04T08:24:33.245Z</time>
      </trkpt>
      <trkpt lat="43.61917" lon="1.32957">
        <ele>229.571198</ele>
        <time>2023-01-04T08:24:36.239Z</time>
      </trkpt>
      <trkpt lat="43.61913" lon="1.3297">
        <ele>229.625955</ele>
        <time>2023-01-04T08:24:39.238Z</time>
      </trkpt>
      <trkpt lat="43.61909" lon="1.32983">
        <ele>229.681796</ele>
        <time>2023-01-04T08:24:42.242Z</time>
      </trkpt>
      <trkpt lat="43.61905" lon="1.32997">
        <ele>229.740282</ele>
        <time>2023-01-04T08:24:45.245Z</time>
      </trkpt>
      <trkpt lat="43.61902" lon="1.33011">
        <ele>229.800455</ele>
        <time>2023-01-04T08:24:48.247Z</time>
      </trkpt>
      <trkpt lat="43.61897" lon="1.33025">
        <ele>229.859711</ele>
        <time>2023-01-04T08:24:51.254Z</time>
      </trkpt>
      <trkpt lat="43.61894" lon="1.3304">
        <ele>229.920963</ele>
        <time>2023-01-04T08:24:54.239Z</time>
      </trkpt>
      <trkpt lat="43.61889" lon="1.33055">
        <ele>229.985442</ele>
        <time>2023-01-04T08:24:57.237Z</time>
      </trkpt>
      <trkpt lat="43.61881" lon="1.33068">
        <ele>230.053361</ele>
        <time>2023-01-04T08:25:00.257Z</time>
      </trkpt>
      <trkpt lat="43.61871" lon="1.33078">
        <ele>230.117824</ele>
        <time>2023-01-04T08:25:03.251Z</time>
      </trkpt>
      <trkpt lat="43.61861" lon="1.33082">
        <ele>230.176216</ele>
        <time>2023-01-04T08:25:06.240Z</time>
      </trkpt>
      <trkpt lat="43.6185" lon="1.33084">
        <ele>230.23618</ele>
        <time>2023-01-04T08:25:09.253Z</time>
      </trkpt>
      <trkpt lat="43.61839" lon="1.33082">
        <ele>230.29919</ele>
        <time>2023-01-04T08:25:12.248Z</time>
      </trkpt>
      <trkpt lat="43.61828" lon="1.33079">
        <ele>230.348701</ele>
        <time>2023-01-04T08:25:15.247Z</time>
      </trkpt>
      <trkpt lat="43.61816" lon="1.33076">
        <ele>230.384913</ele>
        <time>2023-01-04T08:25:18.255Z</time>
      </trkpt>
      <trkpt lat="43.61804" lon="1.33073">
        <ele>230.423013</ele>
        <time>2023-01-04T08:25:21.239Z</time>
      </trkpt>
      <trkpt lat="43.61792" lon="1.3307">
        <ele>230.46027</ele>
        <time>2023-01-04T08:25:24.245Z</time>
      </trkpt>
      <trkpt lat="43.6178" lon="1.33066">
        <ele>230.496332</ele>
        <time>2023-01-04T08:25:27.246Z</time>
      </trkpt>
      <trkpt lat="43.6177" lon="1.33062">
        <ele>230.528803</ele>
        <time>2023-01-04T08:25:30.240Z</time>
      </trkpt>
      <trkpt lat="43.6176" lon="1.33057">
        <ele>230.561073</ele>
        <time>2023-01-04T08:25:33.240Z</time>
      </trkpt>
      <trkpt lat="43.6175" lon="1.33049">
        <ele>230.59705</ele>
        <time>2023-01-04T08:25:36.256Z</time>
      </trkpt>
      <trkpt lat="43.61739" lon="1.3304">
        <ele>230.635374</ele>
        <time>2023-01-04T08:25:39.257Z</time>
      </trkpt>
      <trkpt lat="43.61729" lon="1.33031">
        <ele>230.673321</ele>
        <time>2023-01-04T08:25:42.239Z</time>
      </trkpt>
      <trkpt lat="43.61719" lon="1.33021">
        <ele>230.709603</ele>
        <time>2023-01-04T08:25:45.240Z</time>
      </trkpt>
      <trkpt lat="43.61711" lon="1.3301">
        <ele>230.745343</ele>
        <time>2023-01-04T08:25:49.252Z</time>
      </trkpt>
      <trkpt lat="43.6171" lon="1.32996">
        <ele>230.777089</ele>
        <time>2023-01-04T08:25:53.241Z</time>
      </trkpt>
      <trkpt lat="43.61703" lon="1.32988">
        <ele>230.805829</ele>
        <time>2023-01-04T08:25:58.251Z</time>
      </trkpt>
      <trkpt lat="43.61694" lon="1.32994">
        <ele>230.834985</ele>
        <time>2023-01-04T08:26:03.244Z</time>
      </trkpt>
      <trkpt lat="43.61684" lon="1.32991">
        <ele>230.866821</ele>
        <time>2023-01-04T08:26:07.245Z</time>
      </trkpt>
      <trkpt lat="43.61674" lon="1.32998">
        <ele>230.924412</ele>
        <time>2023-01-04T08:26:11.248Z</time>
      </trkpt>
      <trkpt lat="43.61664" lon="1.33008">
        <ele>231.003843</ele>
        <time>2023-01-04T08:26:14.258Z</time>
      </trkpt>
      <trkpt lat="43.61654" lon="1.33016">
        <ele>231.081423</ele>
        <time>2023-01-04T08:26:17.256Z</time>
      </trkpt>
      <trkpt lat="43.61643" lon="1.33019">
        <ele>231.148847</ele>
        <time>2023-01-04T08:26:20.237Z</time>
      </trkpt>
      <trkpt lat="43.61633" lon="1.33015">
        <ele>231.219191</ele>
        <time>2023-01-04T08:26:23.253Z</time>
      </trkpt>
      <trkpt lat="43.61625" lon="1.33007">
        <ele>231.285183</ele>
        <time>2023-01-04T08:26:26.248Z</time>
      </trkpt>
      <trkpt lat="43.61615" lon="1.33001">
        <ele>231.355559</ele>
        <time>2023-01-04T08:26:30.239Z</time>
      </trkpt>
      <trkpt lat="43.61606" lon="1.33">
        <ele>231.414306</ele>
        <time>2023-01-04T08:26:35.240Z</time>
      </trkpt>
      <trkpt lat="43.61599" lon="1.33008">
        <ele>231.474198</ele>
        <time>2023-01-04T08:26:42.240Z</time>
      </trkpt>
      <trkpt lat="43.61593" lon="1.33022">
        <ele>231.548058</ele>
        <time>2023-01-04T08:26:57.252Z</time>
      </trkpt>
      <trkpt lat="43.61587" lon="1.33032">
        <ele>231.609102</ele>
        <time>2023-01-04T08:27:24.247Z</time>
      </trkpt>
      <trkpt lat="43.61582" lon="1.33044">
        <ele>231.675137</ele>
        <time>2023-01-04T08:27:29.253Z</time>
      </trkpt>
      <trkpt lat="43.61577" lon="1.33058">
        <ele>231.748766</ele>
        <time>2023-01-04T08:27:33.233Z</time>
      </trkpt>
      <trkpt lat="43.61572" lon="1.33069">
        <ele>231.808586</ele>
        <time>2023-01-04T08:27:37.239Z</time>
      </trkpt>
      <trkpt lat="43.61567" lon="1.33079">
        <ele>231.868406</ele>
        <time>2023-01-04T08:27:51.249Z</time>
      </trkpt>
      <trkpt lat="43.61561" lon="1.3309">
        <ele>231.932014</ele>
        <time>2023-01-04T08:27:56.238Z</time>
      </trkpt>
      <trkpt lat="43.61557" lon="1.33102">
        <ele>231.994381</ele>
        <time>2023-01-04T08:28:01.248Z</time>
      </trkpt>
      <trkpt lat="43.61551" lon="1.33114">
        <ele>232.070595</ele>
        <time>2023-01-04T08:28:10.239Z</time>
      </trkpt>
      <trkpt lat="43.61545" lon="1.33128">
        <ele>232.186819</ele>
        <time>2023-01-04T08:28:15.250Z</time>
      </trkpt>
      <trkpt lat="43.6154" lon="1.33141">
        <ele>232.302233</ele>
        <time>2023-01-04T08:28:19.242Z</time>
      </trkpt>
      <trkpt lat="43.61535" lon="1.33154">
        <ele>232.408761</ele>
        <time>2023-01-04T08:28:23.241Z</time>
      </trkpt>
      <trkpt lat="43.61531" lon="1.33166">
        <ele>232.505755</ele>
        <time>2023-01-04T08:28:27.234Z</time>
      </trkpt>
      <trkpt lat="43.61526" lon="1.33177">
        <ele>232.601027</ele>
        <time>2023-01-04T08:28:32.240Z</time>
      </trkpt>
      <trkpt lat="43.61518" lon="1.33186">
        <ele>232.705689</ele>
        <time>2023-01-04T08:28:48.249Z</time>
      </trkpt>
      <trkpt lat="43.61508" lon="1.33182">
        <ele>232.813818</ele>
        <time>2023-01-04T08:28:59.247Z</time>
      </trkpt>
      <trkpt lat="43.61499" lon="1.33176">
        <ele>232.912246</ele>
        <time>2023-01-04T08:29:03.265Z</time>
      </trkpt>
      <trkpt lat="43.61488" lon="1.33174">
        <ele>233.022072</ele>
        <time>2023-01-04T08:29:09.253Z</time>
      </trkpt>
      <trkpt lat="43.61478" lon="1.33167">
        <ele>233.139948</ele>
        <time>2023-01-04T08:29:14.248Z</time>
      </trkpt>
      <trkpt lat="43.61467" lon="1.33163">
        <ele>233.257018</ele>
        <time>2023-01-04T08:29:18.242Z</time>
      </trkpt>
      <trkpt lat="43.61458" lon="1.33157">
        <ele>233.357593</ele>
        <time>2023-01-04T08:29:21.254Z</time>
      </trkpt>
      <trkpt lat="43.61448" lon="1.33152">
        <ele>233.463125</ele>
        <time>2023-01-04T08:29:24.257Z</time>
      </trkpt>
      <trkpt lat="43.61439" lon="1.33144">
        <ele>233.573181</ele>
        <time>2023-01-04T08:29:27.242Z</time>
      </trkpt>
      <trkpt lat="43.61428" lon="1.33138">
        <ele>233.692263</ele>
        <time>2023-01-04T08:29:30.237Z</time>
      </trkpt>
      <trkpt lat="43.61417" lon="1.33132">
        <ele>233.811711</ele>
        <time>2023-01-04T08:29:33.233Z</time>
      </trkpt>
      <trkpt lat="43.61405" lon="1.33127">
        <ele>233.825261</ele>
        <time>2023-01-04T08:29:36.235Z</time>
      </trkpt>
      <trkpt lat="43.61393" lon="1.33123">
        <ele>233.700327</ele>
        <time>2023-01-04T08:29:39.257Z</time>
      </trkpt>
      <trkpt lat="43.6138" lon="1.33122">
        <ele>233.572567</ele>
        <time>2023-01-04T08:29:42.256Z</time>
      </trkpt>
      <trkpt lat="43.61368" lon="1.33121">
        <ele>233.458989</ele>
        <time>2023-01-04T08:29:45.256Z</time>
      </trkpt>
      <trkpt lat="43.61357" lon="1.3312">
        <ele>233.349301</ele>
        <time>2023-01-04T08:29:48.243Z</time>
      </trkpt>
      <trkpt lat="43.61347" lon="1.33115">
        <ele>233.236413</ele>
        <time>2023-01-04T08:29:51.247Z</time>
      </trkpt>
      <trkpt lat="43.61337" lon="1.33104">
        <ele>233.112134</ele>
        <time>2023-01-04T08:29:54.237Z</time>
      </trkpt>
      <trkpt lat="43.61331" lon="1.33089">
        <ele>232.987704</ele>
        <time>2023-01-04T08:29:57.247Z</time>
      </trkpt>
      <trkpt lat="43.61322" lon="1.33076">
        <ele>232.862273</ele>
        <time>2023-01-04T08:30:00.244Z</time>
      </trkpt>
      <trkpt lat="43.61311" lon="1.33068">
        <ele>232.733709</ele>
        <time>2023-01-04T08:30:03.248Z</time>
      </trkpt>
      <trkpt lat="43.61298" lon="1.33064">
        <ele>232.602899</ele>
        <time>2023-01-04T08:30:06.245Z</time>
      </trkpt>
      <trkpt lat="43.61285" lon="1.33066">
        <ele>232.470988</ele>
        <time>2023-01-04T08:30:09.247Z</time>
      </trkpt>
      <trkpt lat="43.61277" lon="1.33072">
        <ele>232.379967</ele>
        <time>2023-01-04T08:30:11.246Z</time>
      </trkpt>
      <trkpt lat="43.6127" lon="1.3308">
        <ele>232.289864</ele>
        <time>2023-01-04T08:30:13.241Z</time>
      </trkpt>
      <trkpt lat="43.61262" lon="1.33094">
        <ele>232.164974</ele>
        <time>2023-01-04T08:30:16.256Z</time>
      </trkpt>
      <trkpt lat="43.61259" lon="1.3311">
        <ele>232.073128</ele>
        <time>2023-01-04T08:30:19.253Z</time>
      </trkpt>
      <trkpt lat="43.61258" lon="1.33125">
        <ele>232.02401</ele>
        <time>2023-01-04T08:30:22.249Z</time>
      </trkpt>
      <trkpt lat="43.61259" lon="1.33142">
        <ele>231.972043</ele>
        <time>2023-01-04T08:30:25.241Z</time>
      </trkpt>
      <trkpt lat="43.61263" lon="1.33158">
        <ele>231.917798</ele>
        <time>2023-01-04T08:30:28.253Z</time>
      </trkpt>
      <trkpt lat="43.61267" lon="1.33175">
        <ele>231.8618</ele>
        <time>2023-01-04T08:30:31.258Z</time>
      </trkpt>
      <trkpt lat="43.61269" lon="1.33193">
        <ele>231.806413</ele>
        <time>2023-01-04T08:30:34.240Z</time>
      </trkpt>
      <trkpt lat="43.61267" lon="1.33205">
        <ele>231.767218</ele>
        <time>2023-01-04T08:30:36.243Z</time>
      </trkpt>
      <trkpt lat="43.61264" lon="1.33217">
        <ele>231.728075</ele>
        <time>2023-01-04T08:30:38.239Z</time>
      </trkpt>
      <trkpt lat="43.61261" lon="1.33229">
        <ele>231.687321</ele>
        <time>2023-01-04T08:30:40.239Z</time>
      </trkpt>
      <trkpt lat="43.61258" lon="1.33242">
        <ele>231.64613</ele>
        <time>2023-01-04T08:30:42.237Z</time>
      </trkpt>
      <trkpt lat="43.61253" lon="1.3326">
        <ele>231.586037</ele>
        <time>2023-01-04T08:30:45.238Z</time>
      </trkpt>
      <trkpt lat="43.6125" lon="1.33272">
        <ele>231.543382</ele>
        <time>2023-01-04T08:30:47.239Z</time>
      </trkpt>
      <trkpt lat="43.61246" lon="1.33285">
        <ele>231.502311</ele>
        <time>2023-01-04T08:30:49.236Z</time>
      </trkpt>
      <trkpt lat="43.61241" lon="1.33302">
        <ele>231.443972</ele>
        <time>2023-01-04T08:30:52.236Z</time>
      </trkpt>
      <trkpt lat="43.61238" lon="1.33315">
        <ele>231.400142</ele>
        <time>2023-01-04T08:30:54.247Z</time>
      </trkpt>
      <trkpt lat="43.61235" lon="1.33331">
        <ele>231.351138</ele>
        <time>2023-01-04T08:30:56.246Z</time>
      </trkpt>
      <trkpt lat="43.61231" lon="1.33346">
        <ele>231.355268</ele>
        <time>2023-01-04T08:30:58.255Z</time>
      </trkpt>
      <trkpt lat="43.61228" lon="1.33361">
        <ele>231.450183</ele>
        <time>2023-01-04T08:31:00.259Z</time>
      </trkpt>
      <trkpt lat="43.61224" lon="1.33375">
        <ele>231.544626</ele>
        <time>2023-01-04T08:31:02.248Z</time>
      </trkpt>
      <trkpt lat="43.6122" lon="1.33389">
        <ele>231.636687</ele>
        <time>2023-01-04T08:31:04.244Z</time>
      </trkpt>
      <trkpt lat="43.61216" lon="1.33403">
        <ele>231.727303</ele>
        <time>2023-01-04T08:31:06.251Z</time>
      </trkpt>
      <trkpt lat="43.61213" lon="1.33417">
        <ele>231.813331</ele>
        <time>2023-01-04T08:31:08.241Z</time>
      </trkpt>
      <trkpt lat="43.61208" lon="1.3343">
        <ele>231.902881</ele>
        <time>2023-01-04T08:31:10.239Z</time>
      </trkpt>
      <trkpt lat="43.61204" lon="1.33441">
        <ele>231.979812</ele>
        <time>2023-01-04T08:31:12.242Z</time>
      </trkpt>
      <trkpt lat="43.612" lon="1.33452">
        <ele>232.057267</ele>
        <time>2023-01-04T08:31:14.259Z</time>
      </trkpt>
      <trkpt lat="43.61197" lon="1.33464">
        <ele>232.13499</ele>
        <time>2023-01-04T08:31:16.247Z</time>
      </trkpt>
      <trkpt lat="43.61192" lon="1.33476">
        <ele>232.216474</ele>
        <time>2023-01-04T08:31:18.237Z</time>
      </trkpt>
      <trkpt lat="43.61189" lon="1.33488">
        <ele>232.296145</ele>
        <time>2023-01-04T08:31:20.255Z</time>
      </trkpt>
      <trkpt lat="43.61184" lon="1.33501">
        <ele>232.384032</ele>
        <time>2023-01-04T08:31:22.240Z</time>
      </trkpt>
      <trkpt lat="43.61178" lon="1.33519">
        <ele>232.499059</ele>
        <time>2023-01-04T08:31:25.251Z</time>
      </trkpt>
      <trkpt lat="43.61174" lon="1.33536">
        <ele>232.610619</ele>
        <time>2023-01-04T08:31:28.250Z</time>
      </trkpt>
      <trkpt lat="43.61169" lon="1.33551">
        <ele>232.711665</ele>
        <time>2023-01-04T08:31:31.252Z</time>
      </trkpt>
      <trkpt lat="43.61164" lon="1.33567">
        <ele>232.816278</ele>
        <time>2023-01-04T08:31:34.254Z</time>
      </trkpt>
      <trkpt lat="43.61159" lon="1.33582">
        <ele>232.994431</ele>
        <time>2023-01-04T08:31:37.243Z</time>
      </trkpt>
      <trkpt lat="43.61154" lon="1.33598">
        <ele>233.19433</ele>
        <time>2023-01-04T08:31:40.242Z</time>
      </trkpt>
      <trkpt lat="43.61148" lon="1.33612">
        <ele>233.378137</ele>
        <time>2023-01-04T08:31:43.261Z</time>
      </trkpt>
      <trkpt lat="43.61139" lon="1.33621">
        <ele>233.559779</ele>
        <time>2023-01-04T08:31:46.244Z</time>
      </trkpt>
      <trkpt lat="43.61128" lon="1.33627">
        <ele>233.74637</ele>
        <time>2023-01-04T08:31:49.249Z</time>
      </trkpt>
      <trkpt lat="43.61116" lon="1.33635">
        <ele>233.962377</ele>
        <time>2023-01-04T08:31:52.249Z</time>
      </trkpt>
      <trkpt lat="43.61109" lon="1.33644">
        <ele>234.108213</ele>
        <time>2023-01-04T08:31:54.262Z</time>
      </trkpt>
      <trkpt lat="43.61099" lon="1.33654">
        <ele>234.308424</ele>
        <time>2023-01-04T08:31:57.250Z</time>
      </trkpt>
      <trkpt lat="43.61087" lon="1.33658">
        <ele>234.512671</ele>
        <time>2023-01-04T08:32:00.246Z</time>
      </trkpt>
      <trkpt lat="43.61078" lon="1.33657">
        <ele>234.65967</ele>
        <time>2023-01-04T08:32:02.238Z</time>
      </trkpt>
      <trkpt lat="43.61067" lon="1.33655">
        <ele>234.824391</ele>
        <time>2023-01-04T08:32:04.249Z</time>
      </trkpt>
      <trkpt lat="43.61057" lon="1.33652">
        <ele>234.989113</ele>
        <time>2023-01-04T08:32:06.245Z</time>
      </trkpt>
      <trkpt lat="43.61048" lon="1.33651">
        <ele>235.132647</ele>
        <time>2023-01-04T08:32:08.246Z</time>
      </trkpt>
      <trkpt lat="43.61039" lon="1.33649">
        <ele>235.283463</ele>
        <time>2023-01-04T08:32:10.238Z</time>
      </trkpt>
      <trkpt lat="43.61028" lon="1.33647">
        <ele>235.457996</ele>
        <time>2023-01-04T08:32:12.239Z</time>
      </trkpt>
      <trkpt lat="43.61018" lon="1.33644">
        <ele>235.617267</ele>
        <time>2023-01-04T08:32:14.253Z</time>
      </trkpt>
      <trkpt lat="43.6101" lon="1.3364">
        <ele>235.716488</ele>
        <time>2023-01-04T08:32:16.250Z</time>
      </trkpt>
      <trkpt lat="43.60997" lon="1.33635">
        <ele>235.767634</ele>
        <time>2023-01-04T08:32:19.241Z</time>
      </trkpt>
      <trkpt lat="43.60985" lon="1.33632">
        <ele>235.816638</ele>
        <time>2023-01-04T08:32:22.237Z</time>
      </trkpt>
      <trkpt lat="43.60972" lon="1.33629">
        <ele>235.86626</ele>
        <time>2023-01-04T08:32:25.259Z</time>
      </trkpt>
      <trkpt lat="43.60962" lon="1.33626">
        <ele>235.906018</ele>
        <time>2023-01-04T08:32:28.259Z</time>
      </trkpt>
      <trkpt lat="43.60953" lon="1.33625">
        <ele>235.942125</ele>
        <time>2023-01-04T08:32:31.240Z</time>
      </trkpt>
      <trkpt lat="43.60943" lon="1.33623">
        <ele>235.979762</ele>
        <time>2023-01-04T08:32:34.241Z</time>
      </trkpt>
      <trkpt lat="43.60933" lon="1.33619">
        <ele>236.021965</ele>
        <time>2023-01-04T08:32:37.245Z</time>
      </trkpt>
      <trkpt lat="43.60923" lon="1.33614">
        <ele>236.061893</ele>
        <time>2023-01-04T08:32:40.240Z</time>
      </trkpt>
      <trkpt lat="43.60913" lon="1.33611">
        <ele>236.102445</ele>
        <time>2023-01-04T08:32:43.246Z</time>
      </trkpt>
      <trkpt lat="43.60904" lon="1.33609">
        <ele>236.138207</ele>
        <time>2023-01-04T08:32:46.238Z</time>
      </trkpt>
      <trkpt lat="43.60892" lon="1.33609">
        <ele>236.185149</ele>
        <time>2023-01-04T08:32:50.250Z</time>
      </trkpt>
      <trkpt lat="43.60883" lon="1.33606">
        <ele>236.223339</ele>
        <time>2023-01-04T08:32:53.247Z</time>
      </trkpt>
      <trkpt lat="43.60876" lon="1.33597">
        <ele>236.261199</ele>
        <time>2023-01-04T08:32:56.247Z</time>
      </trkpt>
      <trkpt lat="43.60867" lon="1.3359">
        <ele>236.301454</ele>
        <time>2023-01-04T08:32:59.258Z</time>
      </trkpt>
      <trkpt lat="43.60857" lon="1.33589">
        <ele>236.340563</ele>
        <time>2023-01-04T08:33:02.254Z</time>
      </trkpt>
      <trkpt lat="43.60846" lon="1.33594">
        <ele>236.383408</ele>
        <time>2023-01-04T08:33:05.259Z</time>
      </trkpt>
      <trkpt lat="43.60835" lon="1.33591">
        <ele>236.351863</ele>
        <time>2023-01-04T08:33:08.254Z</time>
      </trkpt>
      <trkpt lat="43.60823" lon="1.33587">
        <ele>236.2529</ele>
        <time>2023-01-04T08:33:11.255Z</time>
      </trkpt>
      <trkpt lat="43.60812" lon="1.33583">
        <ele>236.160302</ele>
        <time>2023-01-04T08:33:14.250Z</time>
      </trkpt>
      <trkpt lat="43.60801" lon="1.3358">
        <ele>236.069027</ele>
        <time>2023-01-04T08:33:17.237Z</time>
      </trkpt>
      <trkpt lat="43.6079" lon="1.33576">
        <ele>235.978532</ele>
        <time>2023-01-04T08:33:20.256Z</time>
      </trkpt>
      <trkpt lat="43.60777" lon="1.33573">
        <ele>235.879181</ele>
        <time>2023-01-04T08:33:23.254Z</time>
      </trkpt>
      <trkpt lat="43.60765" lon="1.33569">
        <ele>235.774754</ele>
        <time>2023-01-04T08:33:26.253Z</time>
      </trkpt>
      <trkpt lat="43.60753" lon="1.33564">
        <ele>235.675843</ele>
        <time>2023-01-04T08:33:29.255Z</time>
      </trkpt>
      <trkpt lat="43.60743" lon="1.33562">
        <ele>235.598203</ele>
        <time>2023-01-04T08:33:32.255Z</time>
      </trkpt>
      <trkpt lat="43.60734" lon="1.33559">
        <ele>235.521113</ele>
        <time>2023-01-04T08:33:35.248Z</time>
      </trkpt>
      <trkpt lat="43.60726" lon="1.33552">
        <ele>235.448218</ele>
        <time>2023-01-04T08:33:38.254Z</time>
      </trkpt>
      <trkpt lat="43.6072" lon="1.33541">
        <ele>235.365221</ele>
        <time>2023-01-04T08:33:41.253Z</time>
      </trkpt>
      <trkpt lat="43.60712" lon="1.3353">
        <ele>235.274782</ele>
        <time>2023-01-04T08:33:44.252Z</time>
      </trkpt>
      <trkpt lat="43.60701" lon="1.33523">
        <ele>235.176945</ele>
        <time>2023-01-04T08:33:47.245Z</time>
      </trkpt>
      <trkpt lat="43.60688" lon="1.33517">
        <ele>235.070098</ele>
        <time>2023-01-04T08:33:50.266Z</time>
      </trkpt>
      <trkpt lat="43.60677" lon="1.33513">
        <ele>234.979604</ele>
        <time>2023-01-04T08:33:54.240Z</time>
      </trkpt>
      <trkpt lat="43.60667" lon="1.3351">
        <ele>235.130684</ele>
        <time>2023-01-04T08:33:56.249Z</time>
      </trkpt>
      <trkpt lat="43.60657" lon="1.33506">
        <ele>235.341067</ele>
        <time>2023-01-04T08:33:57.252Z</time>
      </trkpt>
      <trkpt lat="43.60644" lon="1.33502">
        <ele>235.626377</ele>
        <time>2023-01-04T08:33:59.245Z</time>
      </trkpt>
      <trkpt lat="43.60634" lon="1.33497">
        <ele>235.851542</ele>
        <time>2023-01-04T08:34:01.248Z</time>
      </trkpt>
      <trkpt lat="43.60624" lon="1.33493">
        <ele>236.067997</ele>
        <time>2023-01-04T08:34:03.257Z</time>
      </trkpt>
      <trkpt lat="43.60615" lon="1.3349">
        <ele>236.268246</ele>
        <time>2023-01-04T08:34:05.257Z</time>
      </trkpt>
      <trkpt lat="43.60603" lon="1.33487">
        <ele>236.516777</ele>
        <time>2023-01-04T08:34:08.255Z</time>
      </trkpt>
      <trkpt lat="43.60593" lon="1.33484">
        <ele>236.722813</ele>
        <time>2023-01-04T08:34:11.253Z</time>
      </trkpt>
      <trkpt lat="43.60583" lon="1.3348">
        <ele>236.960432</ele>
        <time>2023-01-04T08:34:15.245Z</time>
      </trkpt>
      <trkpt lat="43.60573" lon="1.33476">
        <ele>237.171296</ele>
        <time>2023-01-04T08:34:19.246Z</time>
      </trkpt>
      <trkpt lat="43.60564" lon="1.33472">
        <ele>237.368786</ele>
        <time>2023-01-04T08:34:23.262Z</time>
      </trkpt>
      <trkpt lat="43.60553" lon="1.33469">
        <ele>237.614663</ele>
        <time>2023-01-04T08:34:27.238Z</time>
      </trkpt>
      <trkpt lat="43.60543" lon="1.33466">
        <ele>237.816453</ele>
        <time>2023-01-04T08:34:30.261Z</time>
      </trkpt>
      <trkpt lat="43.60532" lon="1.3347">
        <ele>238.056352</ele>
        <time>2023-01-04T08:34:34.251Z</time>
      </trkpt>
      <trkpt lat="43.60522" lon="1.33476">
        <ele>238.283224</ele>
        <time>2023-01-04T08:34:38.258Z</time>
      </trkpt>
      <trkpt lat="43.60513" lon="1.33474">
        <ele>238.477087</ele>
        <time>2023-01-04T08:34:41.250Z</time>
      </trkpt>
      <trkpt lat="43.60505" lon="1.33462">
        <ele>238.720987</ele>
        <time>2023-01-04T08:34:45.256Z</time>
      </trkpt>
      <trkpt lat="43.60496" lon="1.33457">
        <ele>238.559949</ele>
        <time>2023-01-04T08:34:50.252Z</time>
      </trkpt>
      <trkpt lat="43.60486" lon="1.33457">
        <ele>238.366306</ele>
        <time>2023-01-04T08:34:55.254Z</time>
      </trkpt>
      <trkpt lat="43.60477" lon="1.33458">
        <ele>238.197364</ele>
        <time>2023-01-04T08:35:01.241Z</time>
      </trkpt>
      <trkpt lat="43.60466" lon="1.33454">
        <ele>237.986259</ele>
        <time>2023-01-04T08:35:06.251Z</time>
      </trkpt>
      <trkpt lat="43.6046" lon="1.33464">
        <ele>237.816508</ele>
        <time>2023-01-04T08:35:10.248Z</time>
      </trkpt>
      <trkpt lat="43.60456" lon="1.33476">
        <ele>237.644599</ele>
        <time>2023-01-04T08:35:13.250Z</time>
      </trkpt>
      <trkpt lat="43.60451" lon="1.33487">
        <ele>237.465091</ele>
        <time>2023-01-04T08:35:16.247Z</time>
      </trkpt>
      <trkpt lat="43.60445" lon="1.335">
        <ele>237.256513</ele>
        <time>2023-01-04T08:35:19.260Z</time>
      </trkpt>
      <trkpt lat="43.60441" lon="1.33514">
        <ele>237.050119</ele>
        <time>2023-01-04T08:35:22.248Z</time>
      </trkpt>
      <trkpt lat="43.60436" lon="1.33526">
        <ele>236.866194</ele>
        <time>2023-01-04T08:35:25.239Z</time>
      </trkpt>
      <trkpt lat="43.6043" lon="1.33541">
        <ele>236.642216</ele>
        <time>2023-01-04T08:35:29.240Z</time>
      </trkpt>
      <trkpt lat="43.60425" lon="1.33553">
        <ele>236.448736</ele>
        <time>2023-01-04T08:35:32.252Z</time>
      </trkpt>
      <trkpt lat="43.60421" lon="1.33565">
        <ele>236.265688</ele>
        <time>2023-01-04T08:35:35.236Z</time>
      </trkpt>
      <trkpt lat="43.60416" lon="1.33577">
        <ele>236.084399</ele>
        <time>2023-01-04T08:35:39.242Z</time>
      </trkpt>
      <trkpt lat="43.60418" lon="1.3359">
        <ele>235.910057</ele>
        <time>2023-01-04T08:35:43.242Z</time>
      </trkpt>
      <trkpt lat="43.60411" lon="1.336">
        <ele>235.718983</ele>
        <time>2023-01-04T08:35:51.254Z</time>
      </trkpt>
      <trkpt lat="43.60401" lon="1.33601">
        <ele>235.524306</ele>
        <time>2023-01-04T08:35:55.254Z</time>
      </trkpt>
      <trkpt lat="43.60391" lon="1.33606">
        <ele>235.32831</ele>
        <time>2023-01-04T08:35:59.250Z</time>
      </trkpt>
      <trkpt lat="43.60383" lon="1.33615">
        <ele>235.076908</ele>
        <time>2023-01-04T08:36:03.251Z</time>
      </trkpt>
      <trkpt lat="43.60376" lon="1.33622">
        <ele>234.8519</ele>
        <time>2023-01-04T08:36:06.259Z</time>
      </trkpt>
      <trkpt lat="43.60369" lon="1.33631">
        <ele>234.632237</ele>
        <time>2023-01-04T08:36:09.250Z</time>
      </trkpt>
      <trkpt lat="43.60361" lon="1.3364">
        <ele>234.37193</ele>
        <time>2023-01-04T08:36:13.254Z</time>
      </trkpt>
      <trkpt lat="43.60347" lon="1.33654">
        <ele>233.963746</ele>
        <time>2023-01-04T08:36:42.271Z</time>
      </trkpt>
      <trkpt lat="43.60337" lon="1.33663">
        <ele>233.680407</ele>
        <time>2023-01-04T08:36:46.251Z</time>
      </trkpt>
      <trkpt lat="43.60331" lon="1.33674">
        <ele>233.434393</ele>
        <time>2023-01-04T08:36:49.255Z</time>
      </trkpt>
      <trkpt lat="43.60325" lon="1.33687">
        <ele>233.174253</ele>
        <time>2023-01-04T08:36:52.254Z</time>
      </trkpt>
      <trkpt lat="43.6032" lon="1.33701">
        <ele>232.899933</ele>
        <time>2023-01-04T08:36:55.241Z</time>
      </trkpt>
      <trkpt lat="43.60316" lon="1.33714">
        <ele>232.645784</ele>
        <time>2023-01-04T08:36:58.255Z</time>
      </trkpt>
      <trkpt lat="43.60313" lon="1.33728">
        <ele>232.398242</ele>
        <time>2023-01-04T08:37:01.255Z</time>
      </trkpt>
      <trkpt lat="43.60311" lon="1.33741">
        <ele>232.167104</ele>
        <time>2023-01-04T08:37:04.251Z</time>
      </trkpt>
      <trkpt lat="43.60309" lon="1.33754">
        <ele>231.941757</ele>
        <time>2023-01-04T08:37:07.254Z</time>
      </trkpt>
      <trkpt lat="43.60307" lon="1.33768">
        <ele>231.688667</ele>
        <time>2023-01-04T08:37:10.245Z</time>
      </trkpt>
      <trkpt lat="43.60304" lon="1.33783">
        <ele>231.409339</ele>
        <time>2023-01-04T08:37:13.251Z</time>
      </trkpt>
      <trkpt lat="43.60301" lon="1.33798">
        <ele>231.135342</ele>
        <time>2023-01-04T08:37:16.247Z</time>
      </trkpt>
      <trkpt lat="43.60298" lon="1.33814">
        <ele>230.924269</ele>
        <time>2023-01-04T08:37:19.250Z</time>
      </trkpt>
      <trkpt lat="43.60295" lon="1.3383">
        <ele>230.734404</ele>
        <time>2023-01-04T08:37:22.249Z</time>
      </trkpt>
      <trkpt lat="43.60292" lon="1.33846">
        <ele>230.541459</ele>
        <time>2023-01-04T08:37:25.248Z</time>
      </trkpt>
      <trkpt lat="43.60289" lon="1.33863">
        <ele>230.33616</ele>
        <time>2023-01-04T08:37:28.250Z</time>
      </trkpt>
      <trkpt lat="43.60286" lon="1.3388">
        <ele>230.125959</ele>
        <time>2023-01-04T08:37:31.250Z</time>
      </trkpt>
      <trkpt lat="43.60283" lon="1.33898">
        <ele>229.912023</ele>
        <time>2023-01-04T08:37:34.246Z</time>
      </trkpt>
      <trkpt lat="43.60281" lon="1.33911">
        <ele>229.761599</ele>
        <time>2023-01-04T08:37:36.248Z</time>
      </trkpt>
      <trkpt lat="43.60278" lon="1.33924">
        <ele>229.608618</ele>
        <time>2023-01-04T08:37:38.254Z</time>
      </trkpt>
      <trkpt lat="43.60276" lon="1.33936">
        <ele>229.455699</ele>
        <time>2023-01-04T08:37:40.254Z</time>
      </trkpt>
      <trkpt lat="43.60274" lon="1.3395">
        <ele>229.299856</ele>
        <time>2023-01-04T08:37:42.243Z</time>
      </trkpt>
      <trkpt lat="43.60272" lon="1.33962">
        <ele>229.149536</ele>
        <time>2023-01-04T08:37:44.255Z</time>
      </trkpt>
      <trkpt lat="43.60269" lon="1.33975">
        <ele>228.994566</ele>
        <time>2023-01-04T08:37:46.265Z</time>
      </trkpt>
      <trkpt lat="43.60267" lon="1.33988">
        <ele>228.840876</ele>
        <time>2023-01-04T08:37:48.249Z</time>
      </trkpt>
      <trkpt lat="43.60265" lon="1.34001">
        <ele>228.683403</ele>
        <time>2023-01-04T08:37:50.261Z</time>
      </trkpt>
      <trkpt lat="43.60262" lon="1.34014">
        <ele>228.522845</ele>
        <time>2023-01-04T08:37:52.251Z</time>
      </trkpt>
      <trkpt lat="43.60259" lon="1.34028">
        <ele>228.355969</ele>
        <time>2023-01-04T08:37:54.254Z</time>
      </trkpt>
      <trkpt lat="43.60257" lon="1.34042">
        <ele>228.189446</ele>
        <time>2023-01-04T08:37:56.241Z</time>
      </trkpt>
      <trkpt lat="43.60255" lon="1.34057">
        <ele>228.133273</ele>
        <time>2023-01-04T08:37:58.241Z</time>
      </trkpt>
      <trkpt lat="43.60253" lon="1.34071">
        <ele>228.093223</ele>
        <time>2023-01-04T08:38:00.258Z</time>
      </trkpt>
      <trkpt lat="43.6025" lon="1.34085">
        <ele>228.052093</ele>
        <time>2023-01-04T08:38:02.253Z</time>
      </trkpt>
      <trkpt lat="43.60247" lon="1.34099">
        <ele>228.012253</ele>
        <time>2023-01-04T08:38:04.235Z</time>
      </trkpt>
      <trkpt lat="43.60244" lon="1.34113">
        <ele>227.972993</ele>
        <time>2023-01-04T08:38:06.253Z</time>
      </trkpt>
      <trkpt lat="43.60242" lon="1.34127">
        <ele>227.931596</ele>
        <time>2023-01-04T08:38:08.269Z</time>
      </trkpt>
      <trkpt lat="43.60239" lon="1.34142">
        <ele>227.890466</ele>
        <time>2023-01-04T08:38:10.249Z</time>
      </trkpt>
      <trkpt lat="43.60236" lon="1.34155">
        <ele>227.852168</ele>
        <time>2023-01-04T08:38:12.250Z</time>
      </trkpt>
      <trkpt lat="43.60234" lon="1.34168">
        <ele>227.815196</ele>
        <time>2023-01-04T08:38:14.256Z</time>
      </trkpt>
      <trkpt lat="43.60231" lon="1.3418">
        <ele>227.778258</ele>
        <time>2023-01-04T08:38:16.258Z</time>
      </trkpt>
      <trkpt lat="43.6023" lon="1.34193">
        <ele>227.743835</ele>
        <time>2023-01-04T08:38:18.248Z</time>
      </trkpt>
      <trkpt lat="43.60227" lon="1.34209">
        <ele>227.698366</ele>
        <time>2023-01-04T08:38:21.251Z</time>
      </trkpt>
      <trkpt lat="43.60225" lon="1.34225">
        <ele>227.651562</ele>
        <time>2023-01-04T08:38:24.259Z</time>
      </trkpt>
      <trkpt lat="43.60223" lon="1.34242">
        <ele>227.606175</ele>
        <time>2023-01-04T08:38:27.262Z</time>
      </trkpt>
      <trkpt lat="43.60223" lon="1.34258">
        <ele>227.562209</ele>
        <time>2023-01-04T08:38:30.255Z</time>
      </trkpt>
      <trkpt lat="43.60224" lon="1.34274">
        <ele>227.517908</ele>
        <time>2023-01-04T08:38:33.245Z</time>
      </trkpt>
      <trkpt lat="43.60224" lon="1.3429">
        <ele>227.397263</ele>
        <time>2023-01-04T08:38:36.242Z</time>
      </trkpt>
      <trkpt lat="43.60226" lon="1.34308">
        <ele>227.017186</ele>
        <time>2023-01-04T08:38:39.252Z</time>
      </trkpt>
      <trkpt lat="43.60226" lon="1.34321">
        <ele>226.740812</ele>
        <time>2023-01-04T08:38:41.241Z</time>
      </trkpt>
      <trkpt lat="43.60226" lon="1.34334">
        <ele>226.468469</ele>
        <time>2023-01-04T08:38:43.253Z</time>
      </trkpt>
      <trkpt lat="43.60228" lon="1.34351">
        <ele>226.115244</ele>
        <time>2023-01-04T08:38:46.251Z</time>
      </trkpt>
      <trkpt lat="43.6023" lon="1.34367">
        <ele>225.773485</ele>
        <time>2023-01-04T08:38:49.258Z</time>
      </trkpt>
      <trkpt lat="43.60233" lon="1.34383">
        <ele>225.414625</ele>
        <time>2023-01-04T08:38:52.255Z</time>
      </trkpt>
      <trkpt lat="43.60236" lon="1.34401">
        <ele>225.031851</ele>
        <time>2023-01-04T08:38:55.252Z</time>
      </trkpt>
      <trkpt lat="43.60238" lon="1.34413">
        <ele>224.762567</ele>
        <time>2023-01-04T08:38:57.250Z</time>
      </trkpt>
      <trkpt lat="43.60241" lon="1.34425">
        <ele>224.498702</ele>
        <time>2023-01-04T08:38:59.245Z</time>
      </trkpt>
      <trkpt lat="43.60242" lon="1.34439">
        <ele>224.21731</ele>
        <time>2023-01-04T08:39:01.248Z</time>
      </trkpt>
      <trkpt lat="43.60246" lon="1.34455">
        <ele>223.861029</ele>
        <time>2023-01-04T08:39:04.250Z</time>
      </trkpt>
      <trkpt lat="43.60249" lon="1.34469">
        <ele>223.539282</ele>
        <time>2023-01-04T08:39:07.255Z</time>
      </trkpt>
      <trkpt lat="43.60251" lon="1.34483">
        <ele>223.248812</ele>
        <time>2023-01-04T08:39:10.247Z</time>
      </trkpt>
      <trkpt lat="43.60245" lon="1.34492">
        <ele>222.981736</ele>
        <time>2023-01-04T08:39:16.245Z</time>
      </trkpt>
      <trkpt lat="43.60236" lon="1.34481">
        <ele>222.635428</ele>
        <time>2023-01-04T08:39:20.252Z</time>
      </trkpt>
      <trkpt lat="43.60227" lon="1.34473">
        <ele>222.334574</ele>
        <time>2023-01-04T08:39:23.269Z</time>
      </trkpt>
      <trkpt lat="43.60218" lon="1.34465">
        <ele>222.079788</ele>
        <time>2023-01-04T08:39:27.248Z</time>
      </trkpt>
      <trkpt lat="43.60207" lon="1.34456">
        <ele>221.823331</ele>
        <time>2023-01-04T08:39:30.243Z</time>
      </trkpt>
      <trkpt lat="43.60197" lon="1.34448">
        <ele>221.590799</ele>
        <time>2023-01-04T08:39:32.258Z</time>
      </trkpt>
      <trkpt lat="43.60188" lon="1.34438">
        <ele>221.345675</ele>
        <time>2023-01-04T08:39:34.258Z</time>
      </trkpt>
      <trkpt lat="43.60176" lon="1.3443">
        <ele>221.084216</ele>
        <time>2023-01-04T08:39:36.245Z</time>
      </trkpt>
      <trkpt lat="43.60164" lon="1.34424">
        <ele>220.816329</ele>
        <time>2023-01-04T08:39:38.242Z</time>
      </trkpt>
      <trkpt lat="43.60151" lon="1.34424">
        <ele>220.553132</ele>
        <time>2023-01-04T08:39:40.253Z</time>
      </trkpt>
      <trkpt lat="43.60139" lon="1.34429">
        <ele>220.303759</ele>
        <time>2023-01-04T08:39:42.250Z</time>
      </trkpt>
      <trkpt lat="43.60129" lon="1.34436">
        <ele>220.065735</ele>
        <time>2023-01-04T08:39:44.256Z</time>
      </trkpt>
      <trkpt lat="43.60121" lon="1.34444">
        <ele>219.865726</ele>
        <time>2023-01-04T08:39:46.257Z</time>
      </trkpt>
      <trkpt lat="43.60112" lon="1.34458">
        <ele>219.589361</ele>
        <time>2023-01-04T08:39:49.253Z</time>
      </trkpt>
      <trkpt lat="43.60103" lon="1.34471">
        <ele>219.319336</ele>
        <time>2023-01-04T08:39:52.254Z</time>
      </trkpt>
      <trkpt lat="43.60094" lon="1.34485">
        <ele>219.056732</ele>
        <time>2023-01-04T08:39:55.244Z</time>
      </trkpt>
      <trkpt lat="43.60087" lon="1.34499">
        <ele>218.804236</ele>
        <time>2023-01-04T08:39:58.260Z</time>
      </trkpt>
      <trkpt lat="43.60081" lon="1.34508">
        <ele>218.617871</ele>
        <time>2023-01-04T08:40:00.240Z</time>
      </trkpt>
      <trkpt lat="43.60072" lon="1.34518">
        <ele>218.626826</ele>
        <time>2023-01-04T08:40:02.256Z</time>
      </trkpt>
      <trkpt lat="43.60065" lon="1.34528">
        <ele>218.690446</ele>
        <time>2023-01-04T08:40:04.259Z</time>
      </trkpt>
      <trkpt lat="43.60057" lon="1.34539">
        <ele>218.757034</ele>
        <time>2023-01-04T08:40:06.246Z</time>
      </trkpt>
      <trkpt lat="43.6005" lon="1.3455">
        <ele>218.824269</ele>
        <time>2023-01-04T08:40:08.251Z</time>
      </trkpt>
      <trkpt lat="43.60042" lon="1.34561">
        <ele>218.891033</ele>
        <time>2023-01-04T08:40:10.263Z</time>
      </trkpt>
      <trkpt lat="43.60034" lon="1.34573">
        <ele>218.963427</ele>
        <time>2023-01-04T08:40:12.243Z</time>
      </trkpt>
      <trkpt lat="43.60024" lon="1.34584">
        <ele>219.036869</ele>
        <time>2023-01-04T08:40:14.262Z</time>
      </trkpt>
      <trkpt lat="43.60014" lon="1.34591">
        <ele>219.10385</ele>
        <time>2023-01-04T08:40:16.256Z</time>
      </trkpt>
      <trkpt lat="43.60003" lon="1.34595">
        <ele>219.170659</ele>
        <time>2023-01-04T08:40:18.261Z</time>
      </trkpt>
      <trkpt lat="43.59994" lon="1.34597">
        <ele>219.229979</ele>
        <time>2023-01-04T08:40:20.256Z</time>
      </trkpt>
      <trkpt lat="43.59984" lon="1.34598">
        <ele>219.288996</ele>
        <time>2023-01-04T08:40:22.250Z</time>
      </trkpt>
      <trkpt lat="43.59974" lon="1.34598">
        <ele>219.349057</ele>
        <time>2023-01-04T08:40:24.255Z</time>
      </trkpt>
      <trkpt lat="43.59964" lon="1.34598">
        <ele>219.409722</ele>
        <time>2023-01-04T08:40:26.251Z</time>
      </trkpt>
      <trkpt lat="43.59954" lon="1.34598">
        <ele>219.465583</ele>
        <time>2023-01-04T08:40:28.261Z</time>
      </trkpt>
      <trkpt lat="43.59945" lon="1.34599">
        <ele>219.523899</ele>
        <time>2023-01-04T08:40:30.262Z</time>
      </trkpt>
      <trkpt lat="43.59932" lon="1.346">
        <ele>219.597898</ele>
        <time>2023-01-04T08:40:33.251Z</time>
      </trkpt>
      <trkpt lat="43.59923" lon="1.34599">
        <ele>219.652614</ele>
        <time>2023-01-04T08:40:35.246Z</time>
      </trkpt>
      <trkpt lat="43.59911" lon="1.34599">
        <ele>219.555303</ele>
        <time>2023-01-04T08:40:38.256Z</time>
      </trkpt>
      <trkpt lat="43.59899" lon="1.34598">
        <ele>219.459817</ele>
        <time>2023-01-04T08:40:41.254Z</time>
      </trkpt>
      <trkpt lat="43.59888" lon="1.34596">
        <ele>219.377535</ele>
        <time>2023-01-04T08:40:44.252Z</time>
      </trkpt>
      <trkpt lat="43.59879" lon="1.34593">
        <ele>219.297929</ele>
        <time>2023-01-04T08:40:47.259Z</time>
      </trkpt>
      <trkpt lat="43.59868" lon="1.34591">
        <ele>219.214527</ele>
        <time>2023-01-04T08:40:50.246Z</time>
      </trkpt>
      <trkpt lat="43.59857" lon="1.34587">
        <ele>219.123554</ele>
        <time>2023-01-04T08:40:53.263Z</time>
      </trkpt>
      <trkpt lat="43.59846" lon="1.34579">
        <ele>219.023661</ele>
        <time>2023-01-04T08:40:56.258Z</time>
      </trkpt>
      <trkpt lat="43.59834" lon="1.34572">
        <ele>218.922323</ele>
        <time>2023-01-04T08:40:59.247Z</time>
      </trkpt>
      <trkpt lat="43.59825" lon="1.34574">
        <ele>218.847164</ele>
        <time>2023-01-04T08:41:01.251Z</time>
      </trkpt>
      <trkpt lat="43.59815" lon="1.34576">
        <ele>218.771237</ele>
        <time>2023-01-04T08:41:03.241Z</time>
      </trkpt>
      <trkpt lat="43.59805" lon="1.34577">
        <ele>218.693364</ele>
        <time>2023-01-04T08:41:05.248Z</time>
      </trkpt>
      <trkpt lat="43.59795" lon="1.34575">
        <ele>218.609631</ele>
        <time>2023-01-04T08:41:07.252Z</time>
      </trkpt>
      <trkpt lat="43.59784" lon="1.34572">
        <ele>218.520196</ele>
        <time>2023-01-04T08:41:09.249Z</time>
      </trkpt>
      <trkpt lat="43.59772" lon="1.34569">
        <ele>218.426247</ele>
        <time>2023-01-04T08:41:11.254Z</time>
      </trkpt>
      <trkpt lat="43.59762" lon="1.34567">
        <ele>218.342922</ele>
        <time>2023-01-04T08:41:13.242Z</time>
      </trkpt>
      <trkpt lat="43.59751" lon="1.34565">
        <ele>218.252282</ele>
        <time>2023-01-04T08:41:16.246Z</time>
      </trkpt>
      <trkpt lat="43.59741" lon="1.34568">
        <ele>217.983753</ele>
        <time>2023-01-04T08:41:20.245Z</time>
      </trkpt>
      <trkpt lat="43.59729" lon="1.34563">
        <ele>217.548978</ele>
        <time>2023-01-04T08:41:24.251Z</time>
      </trkpt>
      <trkpt lat="43.59718" lon="1.34558">
        <ele>217.143964</ele>
        <time>2023-01-04T08:41:27.250Z</time>
      </trkpt>
      <trkpt lat="43.59708" lon="1.34552">
        <ele>216.732447</ele>
        <time>2023-01-04T08:41:30.239Z</time>
      </trkpt>
      <trkpt lat="43.59698" lon="1.34546">
        <ele>216.335084</ele>
        <time>2023-01-04T08:41:33.250Z</time>
      </trkpt>
      <trkpt lat="43.59688" lon="1.34539">
        <ele>215.942056</ele>
        <time>2023-01-04T08:41:36.256Z</time>
      </trkpt>
      <trkpt lat="43.59679" lon="1.34532">
        <ele>215.565433</ele>
        <time>2023-01-04T08:41:39.258Z</time>
      </trkpt>
      <trkpt lat="43.59669" lon="1.34526">
        <ele>215.196077</ele>
        <time>2023-01-04T08:41:42.255Z</time>
      </trkpt>
      <trkpt lat="43.5966" lon="1.34518">
        <ele>214.818125</ele>
        <time>2023-01-04T08:41:45.254Z</time>
      </trkpt>
      <trkpt lat="43.59653" lon="1.3451">
        <ele>214.462206</ele>
        <time>2023-01-04T08:41:48.269Z</time>
      </trkpt>
      <trkpt lat="43.59645" lon="1.34502">
        <ele>214.121131</ele>
        <time>2023-01-04T08:41:51.246Z</time>
      </trkpt>
      <trkpt lat="43.59636" lon="1.34505">
        <ele>213.799619</ele>
        <time>2023-01-04T08:41:56.247Z</time>
      </trkpt>
      <trkpt lat="43.59639" lon="1.34518">
        <ele>213.458423</ele>
        <time>2023-01-04T08:41:59.252Z</time>
      </trkpt>
      <trkpt lat="43.59642" lon="1.34534">
        <ele>213.011645</ele>
        <time>2023-01-04T08:42:02.262Z</time>
      </trkpt>
      <trkpt lat="43.59644" lon="1.34547">
        <ele>212.67118</ele>
        <time>2023-01-04T08:42:04.250Z</time>
      </trkpt>
      <trkpt lat="43.59645" lon="1.34561">
        <ele>212.317935</ele>
        <time>2023-01-04T08:42:06.246Z</time>
      </trkpt>
      <trkpt lat="43.59646" lon="1.34574">
        <ele>211.970728</ele>
        <time>2023-01-04T08:42:08.263Z</time>
      </trkpt>
      <trkpt lat="43.59646" lon="1.34588">
        <ele>211.694938</ele>
        <time>2023-01-04T08:42:10.253Z</time>
      </trkpt>
      <trkpt lat="43.59644" lon="1.34602">
        <ele>211.525045</ele>
        <time>2023-01-04T08:42:12.250Z</time>
      </trkpt>
      <trkpt lat="43.59639" lon="1.34616">
        <ele>211.340412</ele>
        <time>2023-01-04T08:42:14.253Z</time>
      </trkpt>
      <trkpt lat="43.59635" lon="1.3463">
        <ele>211.153376</ele>
        <time>2023-01-04T08:42:16.249Z</time>
      </trkpt>
      <trkpt lat="43.5963" lon="1.34645">
        <ele>210.96143</ele>
        <time>2023-01-04T08:42:18.255Z</time>
      </trkpt>
      <trkpt lat="43.59626" lon="1.34658">
        <ele>210.784934</ele>
        <time>2023-01-04T08:42:20.268Z</time>
      </trkpt>
      <trkpt lat="43.59621" lon="1.34672">
        <ele>210.609115</ele>
        <time>2023-01-04T08:42:22.250Z</time>
      </trkpt>
      <trkpt lat="43.59617" lon="1.34685">
        <ele>210.436819</ele>
        <time>2023-01-04T08:42:24.260Z</time>
      </trkpt>
      <trkpt lat="43.59614" lon="1.34697">
        <ele>210.280594</ele>
        <time>2023-01-04T08:42:26.262Z</time>
      </trkpt>
      <trkpt lat="43.5961" lon="1.3471">
        <ele>210.11387</ele>
        <time>2023-01-04T08:42:28.256Z</time>
      </trkpt>
      <trkpt lat="43.59606" lon="1.34722">
        <ele>209.954726</ele>
        <time>2023-01-04T08:42:30.259Z</time>
      </trkpt>
      <trkpt lat="43.59602" lon="1.34734">
        <ele>209.793653</ele>
        <time>2023-01-04T08:42:32.248Z</time>
      </trkpt>
      <trkpt lat="43.59597" lon="1.34747">
        <ele>209.624987</ele>
        <time>2023-01-04T08:42:34.240Z</time>
      </trkpt>
      <trkpt lat="43.59593" lon="1.34759">
        <ele>209.462114</ele>
        <time>2023-01-04T08:42:36.262Z</time>
      </trkpt>
      <trkpt lat="43.59588" lon="1.3477">
        <ele>209.311879</ele>
        <time>2023-01-04T08:42:38.246Z</time>
      </trkpt>
      <trkpt lat="43.59582" lon="1.34785">
        <ele>209.098928</ele>
        <time>2023-01-04T08:42:41.248Z</time>
      </trkpt>
      <trkpt lat="43.59577" lon="1.34799">
        <ele>208.906019</ele>
        <time>2023-01-04T08:42:44.262Z</time>
      </trkpt>
      <trkpt lat="43.59573" lon="1.34815">
        <ele>208.78858</ele>
        <time>2023-01-04T08:42:47.259Z</time>
      </trkpt>
      <trkpt lat="43.59568" lon="1.34831">
        <ele>208.766508</ele>
        <time>2023-01-04T08:42:50.252Z</time>
      </trkpt>
      <trkpt lat="43.59562" lon="1.34847">
        <ele>208.744114</ele>
        <time>2023-01-04T08:42:53.247Z</time>
      </trkpt>
      <trkpt lat="43.59557" lon="1.3486">
        <ele>208.724523</ele>
        <time>2023-01-04T08:42:56.255Z</time>
      </trkpt>
      <trkpt lat="43.59552" lon="1.34872">
        <ele>208.707074</ele>
        <time>2023-01-04T08:42:59.245Z</time>
      </trkpt>
      <trkpt lat="43.59545" lon="1.34883">
        <ele>208.687818</ele>
        <time>2023-01-04T08:43:02.248Z</time>
      </trkpt>
      <trkpt lat="43.59537" lon="1.34895">
        <ele>208.668137</ele>
        <time>2023-01-04T08:43:05.247Z</time>
      </trkpt>
      <trkpt lat="43.5953" lon="1.34909">
        <ele>208.646979</ele>
        <time>2023-01-04T08:43:08.251Z</time>
      </trkpt>
      <trkpt lat="43.59524" lon="1.34924">
        <ele>208.624621</ele>
        <time>2023-01-04T08:43:11.253Z</time>
      </trkpt>
      <trkpt lat="43.59517" lon="1.34938">
        <ele>208.602913</ele>
        <time>2023-01-04T08:43:14.254Z</time>
      </trkpt>
      <trkpt lat="43.59512" lon="1.34952">
        <ele>208.582901</ele>
        <time>2023-01-04T08:43:17.245Z</time>
      </trkpt>
      <trkpt lat="43.59506" lon="1.34967">
        <ele>208.561333</ele>
        <time>2023-01-04T08:43:20.261Z</time>
      </trkpt>
      <trkpt lat="43.59503" lon="1.34982">
        <ele>208.541913</ele>
        <time>2023-01-04T08:43:23.257Z</time>
      </trkpt>
      <trkpt lat="43.59501" lon="1.34996">
        <ele>208.524211</ele>
        <time>2023-01-04T08:43:26.247Z</time>
      </trkpt>
      <trkpt lat="43.59496" lon="1.35008">
        <ele>208.506873</ele>
        <time>2023-01-04T08:43:29.253Z</time>
      </trkpt>
      <trkpt lat="43.5949" lon="1.35018">
        <ele>208.490754</ele>
        <time>2023-01-04T08:43:32.256Z</time>
      </trkpt>
      <trkpt lat="43.59487" lon="1.35033">
        <ele>208.594613</ele>
        <time>2023-01-04T08:43:36.257Z</time>
      </trkpt>
      <trkpt lat="43.59488" lon="1.35046">
        <ele>208.730826</ele>
        <time>2023-01-04T08:43:39.251Z</time>
      </trkpt>
      <trkpt lat="43.59489" lon="1.35032">
        <ele>208.880741</ele>
        <time>2023-01-04T08:43:58.251Z</time>
      </trkpt>
      <trkpt lat="43.59486" lon="1.35018">
        <ele>209.034452</ele>
        <time>2023-01-04T08:44:02.249Z</time>
      </trkpt>
      <trkpt lat="43.59478" lon="1.35013">
        <ele>209.177076</ele>
        <time>2023-01-04T08:44:05.251Z</time>
      </trkpt>
      <trkpt lat="43.59467" lon="1.35009">
        <ele>209.343609</ele>
        <time>2023-01-04T08:44:08.252Z</time>
      </trkpt>
      <trkpt lat="43.59456" lon="1.35004">
        <ele>209.517307</ele>
        <time>2023-01-04T08:44:11.243Z</time>
      </trkpt>
      <trkpt lat="43.59445" lon="1.35">
        <ele>209.684332</ele>
        <time>2023-01-04T08:44:14.251Z</time>
      </trkpt>
      <trkpt lat="43.59435" lon="1.35006">
        <ele>209.845931</ele>
        <time>2023-01-04T08:44:18.244Z</time>
      </trkpt>
      <trkpt lat="43.59435" lon="1.3502">
        <ele>209.995848</ele>
        <time>2023-01-04T08:44:21.239Z</time>
      </trkpt>
      <trkpt lat="43.59436" lon="1.35033">
        <ele>210.137604</ele>
        <time>2023-01-04T08:44:24.242Z</time>
      </trkpt>
      <trkpt lat="43.59437" lon="1.35046">
        <ele>210.284166</ele>
        <time>2023-01-04T08:44:27.239Z</time>
      </trkpt>
      <trkpt lat="43.59439" lon="1.35062">
        <ele>210.456975</ele>
        <time>2023-01-04T08:44:30.244Z</time>
      </trkpt>
      <trkpt lat="43.59443" lon="1.35079">
        <ele>210.648319</ele>
        <time>2023-01-04T08:44:33.243Z</time>
      </trkpt>
      <trkpt lat="43.59445" lon="1.35096">
        <ele>210.832065</ele>
        <time>2023-01-04T08:44:36.243Z</time>
      </trkpt>
      <trkpt lat="43.59447" lon="1.35111">
        <ele>211.000201</ele>
        <time>2023-01-04T08:44:39.252Z</time>
      </trkpt>
      <trkpt lat="43.59449" lon="1.35124">
        <ele>211.142273</ele>
        <time>2023-01-04T08:44:42.259Z</time>
      </trkpt>
      <trkpt lat="43.59447" lon="1.35138">
        <ele>211.322043</ele>
        <time>2023-01-04T08:44:46.240Z</time>
      </trkpt>
      <trkpt lat="43.59442" lon="1.35149">
        <ele>211.49445</ele>
        <time>2023-01-04T08:44:50.253Z</time>
      </trkpt>
      <trkpt lat="43.59435" lon="1.3516">
        <ele>211.679613</ele>
        <time>2023-01-04T08:44:54.269Z</time>
      </trkpt>
      <trkpt lat="43.5943" lon="1.3517">
        <ele>211.842109</ele>
        <time>2023-01-04T08:44:57.250Z</time>
      </trkpt>
      <trkpt lat="43.59426" lon="1.35183">
        <ele>212.030804</ele>
        <time>2023-01-04T08:45:00.242Z</time>
      </trkpt>
      <trkpt lat="43.59421" lon="1.35196">
        <ele>212.210887</ele>
        <time>2023-01-04T08:45:03.243Z</time>
      </trkpt>
      <trkpt lat="43.59417" lon="1.35209">
        <ele>212.396297</ele>
        <time>2023-01-04T08:45:06.243Z</time>
      </trkpt>
      <trkpt lat="43.59413" lon="1.35223">
        <ele>212.596337</ele>
        <time>2023-01-04T08:45:09.237Z</time>
      </trkpt>
      <trkpt lat="43.5941" lon="1.35235">
        <ele>212.759727</ele>
        <time>2023-01-04T08:45:11.248Z</time>
      </trkpt>
      <trkpt lat="43.59406" lon="1.35246">
        <ele>212.92414</ele>
        <time>2023-01-04T08:45:13.249Z</time>
      </trkpt>
      <trkpt lat="43.59401" lon="1.35261">
        <ele>213.137499</ele>
        <time>2023-01-04T08:45:16.246Z</time>
      </trkpt>
      <trkpt lat="43.59397" lon="1.35273">
        <ele>213.316028</ele>
        <time>2023-01-04T08:45:19.261Z</time>
      </trkpt>
      <trkpt lat="43.59392" lon="1.35287">
        <ele>213.508659</ele>
        <time>2023-01-04T08:45:22.255Z</time>
      </trkpt>
      <trkpt lat="43.59387" lon="1.35299">
        <ele>213.696326</ele>
        <time>2023-01-04T08:45:25.244Z</time>
      </trkpt>
      <trkpt lat="43.59381" lon="1.35312">
        <ele>213.895175</ele>
        <time>2023-01-04T08:45:28.252Z</time>
      </trkpt>
      <trkpt lat="43.59376" lon="1.35324">
        <ele>214.074598</ele>
        <time>2023-01-04T08:45:31.253Z</time>
      </trkpt>
      <trkpt lat="43.59371" lon="1.35337">
        <ele>214.268045</ele>
        <time>2023-01-04T08:45:34.262Z</time>
      </trkpt>
      <trkpt lat="43.59366" lon="1.35349">
        <ele>214.371041</ele>
        <time>2023-01-04T08:45:37.246Z</time>
      </trkpt>
      <trkpt lat="43.5936" lon="1.35362">
        <ele>214.056785</ele>
        <time>2023-01-04T08:45:40.245Z</time>
      </trkpt>
      <trkpt lat="43.59354" lon="1.35377">
        <ele>213.725901</ele>
        <time>2023-01-04T08:45:43.244Z</time>
      </trkpt>
      <trkpt lat="43.59348" lon="1.35388">
        <ele>213.449507</ele>
        <time>2023-01-04T08:45:46.244Z</time>
      </trkpt>
      <trkpt lat="43.59343" lon="1.354">
        <ele>213.173222</ele>
        <time>2023-01-04T08:45:49.245Z</time>
      </trkpt>
      <trkpt lat="43.59337" lon="1.35414">
        <ele>212.84663</ele>
        <time>2023-01-04T08:45:52.244Z</time>
      </trkpt>
      <trkpt lat="43.59335" lon="1.35427">
        <ele>212.580649</ele>
        <time>2023-01-04T08:45:56.254Z</time>
      </trkpt>
      <trkpt lat="43.59335" lon="1.35442">
        <ele>212.267778</ele>
        <time>2023-01-04T08:46:00.244Z</time>
      </trkpt>
      <trkpt lat="43.5933" lon="1.35455">
        <ele>211.971684</ele>
        <time>2023-01-04T08:46:03.258Z</time>
      </trkpt>
      <trkpt lat="43.59326" lon="1.35469">
        <ele>211.670386</ele>
        <time>2023-01-04T08:46:06.245Z</time>
      </trkpt>
      <trkpt lat="43.59322" lon="1.35483">
        <ele>211.359042</ele>
        <time>2023-01-04T08:46:09.243Z</time>
      </trkpt>
      <trkpt lat="43.59318" lon="1.35499">
        <ele>211.034491</ele>
        <time>2023-01-04T08:46:12.242Z</time>
      </trkpt>
      <trkpt lat="43.59316" lon="1.35515">
        <ele>210.696523</ele>
        <time>2023-01-04T08:46:15.241Z</time>
      </trkpt>
      <trkpt lat="43.59314" lon="1.35531">
        <ele>210.367401</ele>
        <time>2023-01-04T08:46:18.246Z</time>
      </trkpt>
      <trkpt lat="43.59312" lon="1.35548">
        <ele>210.02792</ele>
        <time>2023-01-04T08:46:21.254Z</time>
      </trkpt>
      <trkpt lat="43.5931" lon="1.35564">
        <ele>209.708676</ele>
        <time>2023-01-04T08:46:24.245Z</time>
      </trkpt>
      <trkpt lat="43.59308" lon="1.35579">
        <ele>209.428071</ele>
        <time>2023-01-04T08:46:27.250Z</time>
      </trkpt>
      <trkpt lat="43.59307" lon="1.35596">
        <ele>209.348333</ele>
        <time>2023-01-04T08:46:30.249Z</time>
      </trkpt>
      <trkpt lat="43.59305" lon="1.35613">
        <ele>209.262482</ele>
        <time>2023-01-04T08:46:33.250Z</time>
      </trkpt>
      <trkpt lat="43.59303" lon="1.3563">
        <ele>209.178265</ele>
        <time>2023-01-04T08:46:36.239Z</time>
      </trkpt>
      <trkpt lat="43.59301" lon="1.35646">
        <ele>209.100826</ele>
        <time>2023-01-04T08:46:39.243Z</time>
      </trkpt>
      <trkpt lat="43.59299" lon="1.35662">
        <ele>209.023564</ele>
        <time>2023-01-04T08:46:42.243Z</time>
      </trkpt>
      <trkpt lat="43.59296" lon="1.35678">
        <ele>208.944172</ele>
        <time>2023-01-04T08:46:45.250Z</time>
      </trkpt>
      <trkpt lat="43.59294" lon="1.35696">
        <ele>208.857443</ele>
        <time>2023-01-04T08:46:48.253Z</time>
      </trkpt>
      <trkpt lat="43.59292" lon="1.35709">
        <ele>208.795035</ele>
        <time>2023-01-04T08:46:50.247Z</time>
      </trkpt>
      <trkpt lat="43.59291" lon="1.35721">
        <ele>208.732627</ele>
        <time>2023-01-04T08:46:52.255Z</time>
      </trkpt>
      <trkpt lat="43.59289" lon="1.35734">
        <ele>208.672022</ele>
        <time>2023-01-04T08:46:54.256Z</time>
      </trkpt>
      <trkpt lat="43.59288" lon="1.35752">
        <ele>208.586394</ele>
        <time>2023-01-04T08:46:57.249Z</time>
      </trkpt>
      <trkpt lat="43.59286" lon="1.35767">
        <ele>208.511417</ele>
        <time>2023-01-04T08:47:00.245Z</time>
      </trkpt>
      <trkpt lat="43.59285" lon="1.35782">
        <ele>208.437652</ele>
        <time>2023-01-04T08:47:03.249Z</time>
      </trkpt>
      <trkpt lat="43.59283" lon="1.35797">
        <ele>208.366955</ele>
        <time>2023-01-04T08:47:06.253Z</time>
      </trkpt>
      <trkpt lat="43.59281" lon="1.35809">
        <ele>208.305497</ele>
        <time>2023-01-04T08:47:09.256Z</time>
      </trkpt>
      <trkpt lat="43.5928" lon="1.35824">
        <ele>208.238979</ele>
        <time>2023-01-04T08:47:12.251Z</time>
      </trkpt>
      <trkpt lat="43.59279" lon="1.3584">
        <ele>208.203864</ele>
        <time>2023-01-04T08:47:15.244Z</time>
      </trkpt>
      <trkpt lat="43.59278" lon="1.35858">
        <ele>208.167202</ele>
        <time>2023-01-04T08:47:18.265Z</time>
      </trkpt>
      <trkpt lat="43.59278" lon="1.35873">
        <ele>208.134646</ele>
        <time>2023-01-04T08:47:21.254Z</time>
      </trkpt>
      <trkpt lat="43.59277" lon="1.35887">
        <ele>208.10494</ele>
        <time>2023-01-04T08:47:24.269Z</time>
      </trkpt>
      <trkpt lat="43.59273" lon="1.35899">
        <ele>208.076613</ele>
        <time>2023-01-04T08:47:27.248Z</time>
      </trkpt>
      <trkpt lat="43.59269" lon="1.35914">
        <ele>208.042405</ele>
        <time>2023-01-04T08:47:30.255Z</time>
      </trkpt>
      <trkpt lat="43.59268" lon="1.35931">
        <ele>208.006539</ele>
        <time>2023-01-04T08:47:33.243Z</time>
      </trkpt>
      <trkpt lat="43.59265" lon="1.35947">
        <ele>207.972085</ele>
        <time>2023-01-04T08:47:36.256Z</time>
      </trkpt>
      <trkpt lat="43.59261" lon="1.35959">
        <ele>207.943848</ele>
        <time>2023-01-04T08:47:38.253Z</time>
      </trkpt>
      <trkpt lat="43.59256" lon="1.35976">
        <ele>207.904565</ele>
        <time>2023-01-04T08:47:41.244Z</time>
      </trkpt>
      <trkpt lat="43.5925" lon="1.35993">
        <ele>207.865669</ele>
        <time>2023-01-04T08:47:44.256Z</time>
      </trkpt>
      <trkpt lat="43.59244" lon="1.36008">
        <ele>207.829945</ele>
        <time>2023-01-04T08:47:47.248Z</time>
      </trkpt>
      <trkpt lat="43.5924" lon="1.36022">
        <ele>207.797458</ele>
        <time>2023-01-04T08:47:50.263Z</time>
      </trkpt>
      <trkpt lat="43.59233" lon="1.36033">
        <ele>207.766624</ele>
        <time>2023-01-04T08:47:53.245Z</time>
      </trkpt>
      <trkpt lat="43.59223" lon="1.36036">
        <ele>207.736713</ele>
        <time>2023-01-04T08:47:56.249Z</time>
      </trkpt>
      <trkpt lat="43.59212" lon="1.36038">
        <ele>207.698183</ele>
        <time>2023-01-04T08:47:59.245Z</time>
      </trkpt>
      <trkpt lat="43.59205" lon="1.36048">
        <ele>207.65049</ele>
        <time>2023-01-04T08:48:02.258Z</time>
      </trkpt>
      <trkpt lat="43.59205" lon="1.36063">
        <ele>207.600858</ele>
        <time>2023-01-04T08:48:05.252Z</time>
      </trkpt>
      <trkpt lat="43.59208" lon="1.36077">
        <ele>207.551727</ele>
        <time>2023-01-04T08:48:08.250Z</time>
      </trkpt>
      <trkpt lat="43.59205" lon="1.36092">
        <ele>207.499736</ele>
        <time>2023-01-04T08:48:11.255Z</time>
      </trkpt>
      <trkpt lat="43.59201" lon="1.36108">
        <ele>207.438846</ele>
        <time>2023-01-04T08:48:14.252Z</time>
      </trkpt>
      <trkpt lat="43.59198" lon="1.3612">
        <ele>207.396177</ele>
        <time>2023-01-04T08:48:16.248Z</time>
      </trkpt>
      <trkpt lat="43.59195" lon="1.36132">
        <ele>207.353023</ele>
        <time>2023-01-04T08:48:18.244Z</time>
      </trkpt>
      <trkpt lat="43.59191" lon="1.36144">
        <ele>207.309434</ele>
        <time>2023-01-04T08:48:20.276Z</time>
      </trkpt>
      <trkpt lat="43.59187" lon="1.36155">
        <ele>207.266984</ele>
        <time>2023-01-04T08:48:22.248Z</time>
      </trkpt>
      <trkpt lat="43.59181" lon="1.3617">
        <ele>207.210216</ele>
        <time>2023-01-04T08:48:25.249Z</time>
      </trkpt>
      <trkpt lat="43.59175" lon="1.36182">
        <ele>207.161175</ele>
        <time>2023-01-04T08:48:28.245Z</time>
      </trkpt>
      <trkpt lat="43.59165" lon="1.36188">
        <ele>207.112143</ele>
        <time>2023-01-04T08:48:31.241Z</time>
      </trkpt>
      <trkpt lat="43.59157" lon="1.36194">
        <ele>207.067181</ele>
        <time>2023-01-04T08:48:34.247Z</time>
      </trkpt>
      <trkpt lat="43.59153" lon="1.36207">
        <ele>207.019699</ele>
        <time>2023-01-04T08:48:38.243Z</time>
      </trkpt>
      <trkpt lat="43.59157" lon="1.36219">
        <ele>206.975111</ele>
        <time>2023-01-04T08:48:53.252Z</time>
      </trkpt>
      <trkpt lat="43.59167" lon="1.3622">
        <ele>206.926623</ele>
        <time>2023-01-04T08:48:57.246Z</time>
      </trkpt>
      <trkpt lat="43.59176" lon="1.36211">
        <ele>206.873687</ele>
        <time>2023-01-04T08:49:01.255Z</time>
      </trkpt>
      <trkpt lat="43.59177" lon="1.36197">
        <ele>206.765584</ele>
        <time>2023-01-04T08:49:05.269Z</time>
      </trkpt>
      <trkpt lat="43.59169" lon="1.36186">
        <ele>206.641948</ele>
        <time>2023-01-04T08:49:09.256Z</time>
      </trkpt>
      <trkpt lat="43.59161" lon="1.36178">
        <ele>206.535142</ele>
        <time>2023-01-04T08:49:12.254Z</time>
      </trkpt>
      <trkpt lat="43.59152" lon="1.36167">
        <ele>206.40881</ele>
        <time>2023-01-04T08:49:16.243Z</time>
      </trkpt>
      <trkpt lat="43.59145" lon="1.36159">
        <ele>206.310571</ele>
        <time>2023-01-04T08:49:19.244Z</time>
      </trkpt>
      <trkpt lat="43.59139" lon="1.36148">
        <ele>206.205787</ele>
        <time>2023-01-04T08:49:22.253Z</time>
      </trkpt>
      <trkpt lat="43.59133" lon="1.36138">
        <ele>206.107967</ele>
        <time>2023-01-04T08:49:25.253Z</time>
      </trkpt>
      <trkpt lat="43.59124" lon="1.36128">
        <ele>205.98223</ele>
        <time>2023-01-04T08:49:29.248Z</time>
      </trkpt>
      <trkpt lat="43.59115" lon="1.36122">
        <ele>205.872277</ele>
        <time>2023-01-04T08:49:33.250Z</time>
      </trkpt>
      <trkpt lat="43.59107" lon="1.3613">
        <ele>205.763237</ele>
        <time>2023-01-04T08:49:37.251Z</time>
      </trkpt>
      <trkpt lat="43.59101" lon="1.36145">
        <ele>205.634205</ele>
        <time>2023-01-04T08:49:40.246Z</time>
      </trkpt>
      <trkpt lat="43.59097" lon="1.36162">
        <ele>205.497048</ele>
        <time>2023-01-04T08:49:43.252Z</time>
      </trkpt>
      <trkpt lat="43.59103" lon="1.36177">
        <ele>205.362791</ele>
        <time>2023-01-04T08:49:46.254Z</time>
      </trkpt>
      <trkpt lat="43.59112" lon="1.3619">
        <ele>205.226301</ele>
        <time>2023-01-04T08:49:49.246Z</time>
      </trkpt>
      <trkpt lat="43.59118" lon="1.36202">
        <ele>205.116031</ele>
        <time>2023-01-04T08:49:52.260Z</time>
      </trkpt>
      <trkpt lat="43.59121" lon="1.36219">
        <ele>204.980921</ele>
        <time>2023-01-04T08:49:55.258Z</time>
      </trkpt>
      <trkpt lat="43.59121" lon="1.36233">
        <ele>204.799321</ele>
        <time>2023-01-04T08:49:57.266Z</time>
      </trkpt>
      <trkpt lat="43.59121" lon="1.36247">
        <ele>204.581599</ele>
        <time>2023-01-04T08:49:59.264Z</time>
      </trkpt>
      <trkpt lat="43.59122" lon="1.3626">
        <ele>204.389047</ele>
        <time>2023-01-04T08:50:01.251Z</time>
      </trkpt>
      <trkpt lat="43.59126" lon="1.36276">
        <ele>204.132719</ele>
        <time>2023-01-04T08:50:04.252Z</time>
      </trkpt>
      <trkpt lat="43.59138" lon="1.36284">
        <ele>203.868663</ele>
        <time>2023-01-04T08:50:07.256Z</time>
      </trkpt>
      <trkpt lat="43.59146" lon="1.36291">
        <ele>203.673158</ele>
        <time>2023-01-04T08:50:10.253Z</time>
      </trkpt>
      <trkpt lat="43.59145" lon="1.36308">
        <ele>203.424855</ele>
        <time>2023-01-04T08:50:14.255Z</time>
      </trkpt>
      <trkpt lat="43.59141" lon="1.36322">
        <ele>203.188079</ele>
        <time>2023-01-04T08:50:17.250Z</time>
      </trkpt>
      <trkpt lat="43.59137" lon="1.3634">
        <ele>202.921388</ele>
        <time>2023-01-04T08:50:20.243Z</time>
      </trkpt>
      <trkpt lat="43.59133" lon="1.36356">
        <ele>202.664901</ele>
        <time>2023-01-04T08:50:23.241Z</time>
      </trkpt>
      <trkpt lat="43.59128" lon="1.36373">
        <ele>202.388827</ele>
        <time>2023-01-04T08:50:26.255Z</time>
      </trkpt>
      <trkpt lat="43.59125" lon="1.3639">
        <ele>202.123248</ele>
        <time>2023-01-04T08:50:29.256Z</time>
      </trkpt>
      <trkpt lat="43.5912" lon="1.36407">
        <ele>201.863406</ele>
        <time>2023-01-04T08:50:32.257Z</time>
      </trkpt>
      <trkpt lat="43.59118" lon="1.36422">
        <ele>201.625447</ele>
        <time>2023-01-04T08:50:35.248Z</time>
      </trkpt>
      <trkpt lat="43.59115" lon="1.36434">
        <ele>201.439068</ele>
        <time>2023-01-04T08:50:37.250Z</time>
      </trkpt>
      <trkpt lat="43.59112" lon="1.36447">
        <ele>201.250912</ele>
        <time>2023-01-04T08:50:39.255Z</time>
      </trkpt>
      <trkpt lat="43.59108" lon="1.36465">
        <ele>201.22004</ele>
        <time>2023-01-04T08:50:42.259Z</time>
      </trkpt>
      <trkpt lat="43.59104" lon="1.36481">
        <ele>201.191564</ele>
        <time>2023-01-04T08:50:45.259Z</time>
      </trkpt>
      <trkpt lat="43.59099" lon="1.36497">
        <ele>201.163299</ele>
        <time>2023-01-04T08:50:48.256Z</time>
      </trkpt>
      <trkpt lat="43.59096" lon="1.3651">
        <ele>201.141262</ele>
        <time>2023-01-04T08:50:50.254Z</time>
      </trkpt>
      <trkpt lat="43.59093" lon="1.36523">
        <ele>201.11911</ele>
        <time>2023-01-04T08:50:52.260Z</time>
      </trkpt>
      <trkpt lat="43.59089" lon="1.36535">
        <ele>201.096263</ele>
        <time>2023-01-04T08:50:54.254Z</time>
      </trkpt>
      <trkpt lat="43.59085" lon="1.36548">
        <ele>201.073174</ele>
        <time>2023-01-04T08:50:56.248Z</time>
      </trkpt>
      <trkpt lat="43.5908" lon="1.3656">
        <ele>201.050788</ele>
        <time>2023-01-04T08:50:58.249Z</time>
      </trkpt>
      <trkpt lat="43.59075" lon="1.36571">
        <ele>201.029084</ele>
        <time>2023-01-04T08:51:00.240Z</time>
      </trkpt>
      <trkpt lat="43.59069" lon="1.36581">
        <ele>201.007969</ele>
        <time>2023-01-04T08:51:02.250Z</time>
      </trkpt>
      <trkpt lat="43.59064" lon="1.36592">
        <ele>200.986848</ele>
        <time>2023-01-04T08:51:04.258Z</time>
      </trkpt>
      <trkpt lat="43.59056" lon="1.36604">
        <ele>200.958628</ele>
        <time>2023-01-04T08:51:07.246Z</time>
      </trkpt>
      <trkpt lat="43.59047" lon="1.36616">
        <ele>200.930302</ele>
        <time>2023-01-04T08:51:10.255Z</time>
      </trkpt>
      <trkpt lat="43.59038" lon="1.36621">
        <ele>200.909814</ele>
        <time>2023-01-04T08:51:13.252Z</time>
      </trkpt>
      <trkpt lat="43.59029" lon="1.36621">
        <ele>200.888175</ele>
        <time>2023-01-04T08:51:16.249Z</time>
      </trkpt>
      <trkpt lat="43.59019" lon="1.36618">
        <ele>200.864535</ele>
        <time>2023-01-04T08:51:20.254Z</time>
      </trkpt>
      <trkpt lat="43.5901" lon="1.36617">
        <ele>200.843288</ele>
        <time>2023-01-04T08:51:25.253Z</time>
      </trkpt>
      <trkpt lat="43.59" lon="1.36625">
        <ele>200.97914</ele>
        <time>2023-01-04T08:51:32.253Z</time>
      </trkpt>
      <trkpt lat="43.58997" lon="1.3664">
        <ele>201.120641</ele>
        <time>2023-01-04T08:51:36.246Z</time>
      </trkpt>
      <trkpt lat="43.58999" lon="1.36654">
        <ele>201.244983</ele>
        <time>2023-01-04T08:51:39.260Z</time>
      </trkpt>
      <trkpt lat="43.59001" lon="1.36667">
        <ele>201.361616</ele>
        <time>2023-01-04T08:51:42.261Z</time>
      </trkpt>
      <trkpt lat="43.59002" lon="1.3668">
        <ele>201.478438</ele>
        <time>2023-01-04T08:51:45.253Z</time>
      </trkpt>
      <trkpt lat="43.59005" lon="1.36695">
        <ele>201.616084</ele>
        <time>2023-01-04T08:51:48.254Z</time>
      </trkpt>
      <trkpt lat="43.59007" lon="1.36709">
        <ele>201.748445</ele>
        <time>2023-01-04T08:51:51.255Z</time>
      </trkpt>
      <trkpt lat="43.59009" lon="1.36723">
        <ele>201.879046</ele>
        <time>2023-01-04T08:51:54.244Z</time>
      </trkpt>
      <trkpt lat="43.59011" lon="1.36738">
        <ele>202.010917</ele>
        <time>2023-01-04T08:51:57.258Z</time>
      </trkpt>
      <trkpt lat="43.59013" lon="1.36752">
        <ele>202.140383</ele>
        <time>2023-01-04T08:52:00.250Z</time>
      </trkpt>
      <trkpt lat="43.59015" lon="1.36764">
        <ele>202.252365</ele>
        <time>2023-01-04T08:52:03.251Z</time>
      </trkpt>
      <trkpt lat="43.59015" lon="1.36781">
        <ele>202.40208</ele>
        <time>2023-01-04T08:52:07.258Z</time>
      </trkpt>
      <trkpt lat="43.59016" lon="1.36794">
        <ele>202.520824</ele>
        <time>2023-01-04T08:52:10.254Z</time>
      </trkpt>
      <trkpt lat="43.59016" lon="1.36807">
        <ele>202.642247</ele>
        <time>2023-01-04T08:52:13.254Z</time>
      </trkpt>
      <trkpt lat="43.59015" lon="1.36821">
        <ele>202.763822</ele>
        <time>2023-01-04T08:52:16.267Z</time>
      </trkpt>
      <trkpt lat="43.59014" lon="1.36834">
        <ele>202.883672</ele>
        <time>2023-01-04T08:52:19.254Z</time>
      </trkpt>
      <trkpt lat="43.59014" lon="1.3685">
        <ele>203.028903</ele>
        <time>2023-01-04T08:52:23.266Z</time>
      </trkpt>
      <trkpt lat="43.5901" lon="1.36866">
        <ele>203.249663</ele>
        <time>2023-01-04T08:52:27.264Z</time>
      </trkpt>
      <trkpt lat="43.59006" lon="1.36878">
        <ele>203.448493</ele>
        <time>2023-01-04T08:52:30.270Z</time>
      </trkpt>
      <trkpt lat="43.59004" lon="1.36891">
        <ele>203.65397</ele>
        <time>2023-01-04T08:52:33.265Z</time>
      </trkpt>
      <trkpt lat="43.59001" lon="1.36904">
        <ele>203.86947</ele>
        <time>2023-01-04T08:52:36.255Z</time>
      </trkpt>
      <trkpt lat="43.58999" lon="1.3692">
        <ele>204.113193</ele>
        <time>2023-01-04T08:52:40.256Z</time>
      </trkpt>
      <trkpt lat="43.58996" lon="1.36932">
        <ele>204.319939</ele>
        <time>2023-01-04T08:52:44.253Z</time>
      </trkpt>
      <trkpt lat="43.58993" lon="1.36946">
        <ele>204.541455</ele>
        <time>2023-01-04T08:52:49.261Z</time>
      </trkpt>
      <trkpt lat="43.58991" lon="1.36958">
        <ele>204.735994</ele>
        <time>2023-01-04T08:52:54.253Z</time>
      </trkpt>
      <trkpt lat="43.58988" lon="1.36973">
        <ele>204.974066</ele>
        <time>2023-01-04T08:52:58.256Z</time>
      </trkpt>
      <trkpt lat="43.58987" lon="1.36987">
        <ele>205.18676</ele>
        <time>2023-01-04T08:53:01.259Z</time>
      </trkpt>
      <trkpt lat="43.58984" lon="1.37001">
        <ele>205.407256</ele>
        <time>2023-01-04T08:53:04.259Z</time>
      </trkpt>
      <trkpt lat="43.58982" lon="1.37015">
        <ele>205.628961</ele>
        <time>2023-01-04T08:53:07.248Z</time>
      </trkpt>
      <trkpt lat="43.58981" lon="1.37028">
        <ele>205.838879</ele>
        <time>2023-01-04T08:53:10.245Z</time>
      </trkpt>
      <trkpt lat="43.58979" lon="1.37043">
        <ele>206.073155</ele>
        <time>2023-01-04T08:53:13.251Z</time>
      </trkpt>
      <trkpt lat="43.58978" lon="1.37058">
        <ele>206.303702</ele>
        <time>2023-01-04T08:53:16.258Z</time>
      </trkpt>
      <trkpt lat="43.58977" lon="1.37074">
        <ele>206.548101</ele>
        <time>2023-01-04T08:53:19.246Z</time>
      </trkpt>
      <trkpt lat="43.58977" lon="1.37091">
        <ele>206.807555</ele>
        <time>2023-01-04T08:53:22.247Z</time>
      </trkpt>
      <trkpt lat="43.58977" lon="1.37108">
        <ele>206.886602</ele>
        <time>2023-01-04T08:53:25.246Z</time>
      </trkpt>
      <trkpt lat="43.58977" lon="1.37125">
        <ele>206.852962</ele>
        <time>2023-01-04T08:53:28.245Z</time>
      </trkpt>
      <trkpt lat="43.58977" lon="1.37143">
        <ele>206.818549</ele>
        <time>2023-01-04T08:53:31.247Z</time>
      </trkpt>
      <trkpt lat="43.58977" lon="1.37159">
        <ele>206.785916</ele>
        <time>2023-01-04T08:53:34.256Z</time>
      </trkpt>
      <trkpt lat="43.58977" lon="1.37176">
        <ele>206.752086</ele>
        <time>2023-01-04T08:53:37.271Z</time>
      </trkpt>
      <trkpt lat="43.58978" lon="1.37193">
        <ele>206.718607</ele>
        <time>2023-01-04T08:53:40.253Z</time>
      </trkpt>
      <trkpt lat="43.58979" lon="1.37211">
        <ele>206.683494</ele>
        <time>2023-01-04T08:53:43.258Z</time>
      </trkpt>
      <trkpt lat="43.5898" lon="1.37229">
        <ele>206.647001</ele>
        <time>2023-01-04T08:53:46.268Z</time>
      </trkpt>
      <trkpt lat="43.58981" lon="1.37243">
        <ele>206.619571</ele>
        <time>2023-01-04T08:53:48.270Z</time>
      </trkpt>
      <trkpt lat="43.58981" lon="1.37256">
        <ele>206.593639</ele>
        <time>2023-01-04T08:53:50.271Z</time>
      </trkpt>
      <trkpt lat="43.58982" lon="1.37269">
        <ele>206.567708</ele>
        <time>2023-01-04T08:53:52.264Z</time>
      </trkpt>
      <trkpt lat="43.58981" lon="1.37282">
        <ele>206.542369</ele>
        <time>2023-01-04T08:53:54.256Z</time>
      </trkpt>
      <trkpt lat="43.58982" lon="1.37297">
        <ele>206.513364</ele>
        <time>2023-01-04T08:53:56.259Z</time>
      </trkpt>
      <trkpt lat="43.58983" lon="1.37309">
        <ele>206.488233</ele>
        <time>2023-01-04T08:53:58.259Z</time>
      </trkpt>
      <trkpt lat="43.58983" lon="1.37324">
        <ele>206.459275</ele>
        <time>2023-01-04T08:54:00.270Z</time>
      </trkpt>
      <trkpt lat="43.58984" lon="1.37337">
        <ele>206.434152</ele>
        <time>2023-01-04T08:54:02.259Z</time>
      </trkpt>
      <trkpt lat="43.58983" lon="1.3735">
        <ele>206.438196</ele>
        <time>2023-01-04T08:54:04.244Z</time>
      </trkpt>
      <trkpt lat="43.58984" lon="1.37368">
        <ele>206.528121</ele>
        <time>2023-01-04T08:54:07.251Z</time>
      </trkpt>
      <trkpt lat="43.58985" lon="1.37385">
        <ele>206.613008</ele>
        <time>2023-01-04T08:54:10.258Z</time>
      </trkpt>
      <trkpt lat="43.58986" lon="1.37399">
        <ele>206.677597</ele>
        <time>2023-01-04T08:54:12.246Z</time>
      </trkpt>
      <trkpt lat="43.58986" lon="1.37411">
        <ele>206.740629</ele>
        <time>2023-01-04T08:54:14.244Z</time>
      </trkpt>
      <trkpt lat="43.58986" lon="1.37425">
        <ele>206.80647</ele>
        <time>2023-01-04T08:54:16.253Z</time>
      </trkpt>
      <trkpt lat="43.58987" lon="1.37438">
        <ele>206.869949</ele>
        <time>2023-01-04T08:54:18.246Z</time>
      </trkpt>
      <trkpt lat="43.58987" lon="1.37451">
        <ele>206.934857</ele>
        <time>2023-01-04T08:54:20.248Z</time>
      </trkpt>
      <trkpt lat="43.58988" lon="1.37464">
        <ele>206.997791</ele>
        <time>2023-01-04T08:54:22.247Z</time>
      </trkpt>
      <trkpt lat="43.58988" lon="1.37477">
        <ele>207.06118</ele>
        <time>2023-01-04T08:54:24.253Z</time>
      </trkpt>
      <trkpt lat="43.58988" lon="1.37491">
        <ele>207.127509</ele>
        <time>2023-01-04T08:54:26.250Z</time>
      </trkpt>
      <trkpt lat="43.58989" lon="1.37509">
        <ele>207.215444</ele>
        <time>2023-01-04T08:54:29.249Z</time>
      </trkpt>
      <trkpt lat="43.58989" lon="1.37526">
        <ele>207.301761</ele>
        <time>2023-01-04T08:54:32.253Z</time>
      </trkpt>
      <trkpt lat="43.5899" lon="1.37539">
        <ele>207.364613</ele>
        <time>2023-01-04T08:54:34.251Z</time>
      </trkpt>
      <trkpt lat="43.5899" lon="1.37553">
        <ele>207.430959</ele>
        <time>2023-01-04T08:54:36.258Z</time>
      </trkpt>
      <trkpt lat="43.58991" lon="1.37566">
        <ele>207.495748</ele>
        <time>2023-01-04T08:54:38.253Z</time>
      </trkpt>
      <trkpt lat="43.58992" lon="1.37579">
        <ele>207.558394</ele>
        <time>2023-01-04T08:54:40.245Z</time>
      </trkpt>
      <trkpt lat="43.58992" lon="1.37592">
        <ele>207.622762</ele>
        <time>2023-01-04T08:54:42.255Z</time>
      </trkpt>
      <trkpt lat="43.58992" lon="1.37606">
        <ele>207.648703</ele>
        <time>2023-01-04T08:54:44.259Z</time>
      </trkpt>
      <trkpt lat="43.58993" lon="1.37624">
        <ele>207.678081</ele>
        <time>2023-01-04T08:54:47.244Z</time>
      </trkpt>
      <trkpt lat="43.58995" lon="1.37641">
        <ele>207.706054</ele>
        <time>2023-01-04T08:54:50.252Z</time>
      </trkpt>
      <trkpt lat="43.58996" lon="1.37656">
        <ele>207.732074</ele>
        <time>2023-01-04T08:54:53.259Z</time>
      </trkpt>
      <trkpt lat="43.58998" lon="1.37671">
        <ele>207.756871</ele>
        <time>2023-01-04T08:54:56.247Z</time>
      </trkpt>
      <trkpt lat="43.58997" lon="1.37686">
        <ele>207.781429</ele>
        <time>2023-01-04T08:55:00.248Z</time>
      </trkpt>
      <trkpt lat="43.58996" lon="1.37701">
        <ele>207.805837</ele>
        <time>2023-01-04T08:55:03.254Z</time>
      </trkpt>
      <trkpt lat="43.58998" lon="1.37718">
        <ele>207.833109</ele>
        <time>2023-01-04T08:55:06.257Z</time>
      </trkpt>
      <trkpt lat="43.58999" lon="1.37733">
        <ele>207.858228</ele>
        <time>2023-01-04T08:55:09.252Z</time>
      </trkpt>
      <trkpt lat="43.58999" lon="1.37748">
        <ele>207.883492</ele>
        <time>2023-01-04T08:55:12.270Z</time>
      </trkpt>
      <trkpt lat="43.59001" lon="1.37765">
        <ele>207.910677</ele>
        <time>2023-01-04T08:55:15.250Z</time>
      </trkpt>
      <trkpt lat="43.59002" lon="1.37781">
        <ele>207.937239</ele>
        <time>2023-01-04T08:55:18.250Z</time>
      </trkpt>
      <trkpt lat="43.59005" lon="1.37798">
        <ele>207.965464</ele>
        <time>2023-01-04T08:55:21.257Z</time>
      </trkpt>
      <trkpt lat="43.59007" lon="1.37813">
        <ele>207.991268</ele>
        <time>2023-01-04T08:55:24.259Z</time>
      </trkpt>
      <trkpt lat="43.59009" lon="1.37828">
        <ele>208.016151</ele>
        <time>2023-01-04T08:55:27.266Z</time>
      </trkpt>
      <trkpt lat="43.59011" lon="1.37843">
        <ele>208.011068</ele>
        <time>2023-01-04T08:55:30.253Z</time>
      </trkpt>
      <trkpt lat="43.59014" lon="1.37859">
        <ele>207.908137</ele>
        <time>2023-01-04T08:55:33.261Z</time>
      </trkpt>
      <trkpt lat="43.59017" lon="1.37875">
        <ele>207.804756</ele>
        <time>2023-01-04T08:55:36.240Z</time>
      </trkpt>
      <trkpt lat="43.59019" lon="1.37891">
        <ele>207.705226</ele>
        <time>2023-01-04T08:55:39.245Z</time>
      </trkpt>
      <trkpt lat="43.59021" lon="1.37909">
        <ele>207.592803</ele>
        <time>2023-01-04T08:55:42.257Z</time>
      </trkpt>
      <trkpt lat="43.59023" lon="1.37927">
        <ele>207.476301</ele>
        <time>2023-01-04T08:55:45.262Z</time>
      </trkpt>
      <trkpt lat="43.59025" lon="1.3794">
        <ele>207.396322</ele>
        <time>2023-01-04T08:55:47.267Z</time>
      </trkpt>
      <trkpt lat="43.59028" lon="1.37952">
        <ele>207.316258</ele>
        <time>2023-01-04T08:55:49.251Z</time>
      </trkpt>
      <trkpt lat="43.5903" lon="1.37964">
        <ele>207.237097</ele>
        <time>2023-01-04T08:55:51.257Z</time>
      </trkpt>
      <trkpt lat="43.59033" lon="1.37981">
        <ele>207.128926</ele>
        <time>2023-01-04T08:55:54.260Z</time>
      </trkpt>
      <trkpt lat="43.59036" lon="1.37999">
        <ele>207.016412</ele>
        <time>2023-01-04T08:55:57.248Z</time>
      </trkpt>
      <trkpt lat="43.59039" lon="1.38012">
        <ele>206.933662</ele>
        <time>2023-01-04T08:55:59.264Z</time>
      </trkpt>
      <trkpt lat="43.5904" lon="1.38024">
        <ele>206.854312</ele>
        <time>2023-01-04T08:56:01.266Z</time>
      </trkpt>
      <trkpt lat="43.59042" lon="1.38038">
        <ele>206.765288</ele>
        <time>2023-01-04T08:56:03.257Z</time>
      </trkpt>
      <trkpt lat="43.59045" lon="1.38052">
        <ele>206.678302</ele>
        <time>2023-01-04T08:56:05.245Z</time>
      </trkpt>
      <trkpt lat="43.59047" lon="1.38066">
        <ele>206.589093</ele>
        <time>2023-01-04T08:56:07.256Z</time>
      </trkpt>
      <trkpt lat="43.59049" lon="1.38079">
        <ele>206.503103</ele>
        <time>2023-01-04T08:56:09.245Z</time>
      </trkpt>
      <trkpt lat="43.5905" lon="1.38092">
        <ele>206.501264</ele>
        <time>2023-01-04T08:56:11.248Z</time>
      </trkpt>
      <trkpt lat="43.59054" lon="1.3811">
        <ele>206.518982</ele>
        <time>2023-01-04T08:56:14.257Z</time>
      </trkpt>
      <trkpt lat="43.59057" lon="1.38127">
        <ele>206.53544</ele>
        <time>2023-01-04T08:56:17.251Z</time>
      </trkpt>
      <trkpt lat="43.59058" lon="1.38139">
        <ele>206.547332</ele>
        <time>2023-01-04T08:56:19.248Z</time>
      </trkpt>
      <trkpt lat="43.5906" lon="1.38152">
        <ele>206.55957</ele>
        <time>2023-01-04T08:56:21.258Z</time>
      </trkpt>
      <trkpt lat="43.59061" lon="1.38166">
        <ele>206.572719</ele>
        <time>2023-01-04T08:56:23.250Z</time>
      </trkpt>
      <trkpt lat="43.59063" lon="1.38178">
        <ele>206.584856</ele>
        <time>2023-01-04T08:56:25.250Z</time>
      </trkpt>
      <trkpt lat="43.59065" lon="1.38193">
        <ele>206.598616</ele>
        <time>2023-01-04T08:56:27.249Z</time>
      </trkpt>
      <trkpt lat="43.59067" lon="1.38206">
        <ele>206.611578</ele>
        <time>2023-01-04T08:56:29.263Z</time>
      </trkpt>
      <trkpt lat="43.5907" lon="1.38219">
        <ele>206.624505</ele>
        <time>2023-01-04T08:56:31.262Z</time>
      </trkpt>
      <trkpt lat="43.59071" lon="1.38233">
        <ele>206.637447</ele>
        <time>2023-01-04T08:56:33.251Z</time>
      </trkpt>
      <trkpt lat="43.59074" lon="1.3825">
        <ele>206.654519</ele>
        <time>2023-01-04T08:56:36.249Z</time>
      </trkpt>
      <trkpt lat="43.59078" lon="1.38266">
        <ele>206.670191</ele>
        <time>2023-01-04T08:56:39.246Z</time>
      </trkpt>
      <trkpt lat="43.59079" lon="1.38281">
        <ele>206.684225</ele>
        <time>2023-01-04T08:56:42.260Z</time>
      </trkpt>
      <trkpt lat="43.59082" lon="1.38296">
        <ele>206.699638</ele>
        <time>2023-01-04T08:56:45.255Z</time>
      </trkpt>
      <trkpt lat="43.59084" lon="1.38312">
        <ele>206.71486</ele>
        <time>2023-01-04T08:56:48.249Z</time>
      </trkpt>
      <trkpt lat="43.59087" lon="1.38327">
        <ele>206.723122</ele>
        <time>2023-01-04T08:56:51.260Z</time>
      </trkpt>
      <trkpt lat="43.5909" lon="1.38342">
        <ele>206.706041</ele>
        <time>2023-01-04T08:56:54.250Z</time>
      </trkpt>
      <trkpt lat="43.59092" lon="1.38355">
        <ele>206.690967</ele>
        <time>2023-01-04T08:56:57.248Z</time>
      </trkpt>
      <trkpt lat="43.59094" lon="1.38371">
        <ele>206.673395</ele>
        <time>2023-01-04T08:57:01.247Z</time>
      </trkpt>
      <trkpt lat="43.59097" lon="1.38385">
        <ele>206.658007</ele>
        <time>2023-01-04T08:57:04.256Z</time>
      </trkpt>
      <trkpt lat="43.59101" lon="1.38399">
        <ele>206.641107</ele>
        <time>2023-01-04T08:57:07.256Z</time>
      </trkpt>
      <trkpt lat="43.59103" lon="1.38411">
        <ele>206.626934</ele>
        <time>2023-01-04T08:57:10.256Z</time>
      </trkpt>
      <trkpt lat="43.59106" lon="1.38426">
        <ele>206.610636</ele>
        <time>2023-01-04T08:57:13.264Z</time>
      </trkpt>
      <trkpt lat="43.59109" lon="1.3844">
        <ele>206.594208</ele>
        <time>2023-01-04T08:57:16.263Z</time>
      </trkpt>
      <trkpt lat="43.59113" lon="1.38455">
        <ele>206.576843</ele>
        <time>2023-01-04T08:57:19.260Z</time>
      </trkpt>
      <trkpt lat="43.59117" lon="1.3847">
        <ele>206.5585</ele>
        <time>2023-01-04T08:57:22.267Z</time>
      </trkpt>
      <trkpt lat="43.59122" lon="1.38487">
        <ele>206.538557</ele>
        <time>2023-01-04T08:57:25.261Z</time>
      </trkpt>
      <trkpt lat="43.59127" lon="1.38503">
        <ele>206.519476</ele>
        <time>2023-01-04T08:57:28.257Z</time>
      </trkpt>
      <trkpt lat="43.59131" lon="1.38519">
        <ele>206.500758</ele>
        <time>2023-01-04T08:57:31.247Z</time>
      </trkpt>
      <trkpt lat="43.59137" lon="1.38535">
        <ele>206.480608</ele>
        <time>2023-01-04T08:57:34.257Z</time>
      </trkpt>
      <trkpt lat="43.59141" lon="1.38547">
        <ele>206.466849</ele>
        <time>2023-01-04T08:57:36.262Z</time>
      </trkpt>
      <trkpt lat="43.59145" lon="1.38558">
        <ele>206.453685</ele>
        <time>2023-01-04T08:57:38.258Z</time>
      </trkpt>
      <trkpt lat="43.5915" lon="1.38569">
        <ele>206.527491</ele>
        <time>2023-01-04T08:57:40.254Z</time>
      </trkpt>
      <trkpt lat="43.59156" lon="1.38583">
        <ele>206.625356</ele>
        <time>2023-01-04T08:57:43.262Z</time>
      </trkpt>
      <trkpt lat="43.59161" lon="1.38599">
        <ele>206.726712</ele>
        <time>2023-01-04T08:57:46.273Z</time>
      </trkpt>
      <trkpt lat="43.59165" lon="1.3861">
        <ele>206.80071</ele>
        <time>2023-01-04T08:57:48.253Z</time>
      </trkpt>
      <trkpt lat="43.5917" lon="1.38626">
        <ele>206.901746</ele>
        <time>2023-01-04T08:57:51.259Z</time>
      </trkpt>
      <trkpt lat="43.59175" lon="1.38641">
        <ele>206.999176</ele>
        <time>2023-01-04T08:57:54.248Z</time>
      </trkpt>
      <trkpt lat="43.59182" lon="1.38658">
        <ele>207.112003</ele>
        <time>2023-01-04T08:57:57.258Z</time>
      </trkpt>
      <trkpt lat="43.59187" lon="1.38669">
        <ele>207.191147</ele>
        <time>2023-01-04T08:57:59.250Z</time>
      </trkpt>
      <trkpt lat="43.59191" lon="1.38681">
        <ele>207.26593</ele>
        <time>2023-01-04T08:58:01.252Z</time>
      </trkpt>
      <trkpt lat="43.59196" lon="1.38692">
        <ele>207.344507</ele>
        <time>2023-01-04T08:58:03.254Z</time>
      </trkpt>
      <trkpt lat="43.59203" lon="1.38708">
        <ele>207.450112</ele>
        <time>2023-01-04T08:58:06.247Z</time>
      </trkpt>
      <trkpt lat="43.59206" lon="1.3872">
        <ele>207.52574</ele>
        <time>2023-01-04T08:58:08.263Z</time>
      </trkpt>
      <trkpt lat="43.59211" lon="1.38737">
        <ele>207.633414</ele>
        <time>2023-01-04T08:58:11.263Z</time>
      </trkpt>
      <trkpt lat="43.59216" lon="1.38748">
        <ele>207.707167</ele>
        <time>2023-01-04T08:58:13.251Z</time>
      </trkpt>
      <trkpt lat="43.59221" lon="1.38763">
        <ele>207.809229</ele>
        <time>2023-01-04T08:58:16.251Z</time>
      </trkpt>
      <trkpt lat="43.59225" lon="1.38775">
        <ele>207.88429</ele>
        <time>2023-01-04T08:58:18.251Z</time>
      </trkpt>
      <trkpt lat="43.59229" lon="1.38786">
        <ele>207.87209</ele>
        <time>2023-01-04T08:58:20.260Z</time>
      </trkpt>
      <trkpt lat="43.59234" lon="1.38799">
        <ele>207.807693</ele>
        <time>2023-01-04T08:58:22.255Z</time>
      </trkpt>
      <trkpt lat="43.5924" lon="1.38816">
        <ele>207.721822</ele>
        <time>2023-01-04T08:58:25.256Z</time>
      </trkpt>
      <trkpt lat="43.59244" lon="1.38827">
        <ele>207.662768</ele>
        <time>2023-01-04T08:58:27.254Z</time>
      </trkpt>
      <trkpt lat="43.59249" lon="1.38839">
        <ele>207.600499</ele>
        <time>2023-01-04T08:58:29.263Z</time>
      </trkpt>
      <trkpt lat="43.59253" lon="1.38851">
        <ele>207.540524</ele>
        <time>2023-01-04T08:58:31.253Z</time>
      </trkpt>
      <trkpt lat="43.59257" lon="1.38863">
        <ele>207.479036</ele>
        <time>2023-01-04T08:58:33.249Z</time>
      </trkpt>
      <trkpt lat="43.59262" lon="1.38875">
        <ele>207.416855</ele>
        <time>2023-01-04T08:58:35.263Z</time>
      </trkpt>
      <trkpt lat="43.59268" lon="1.38891">
        <ele>207.334893</ele>
        <time>2023-01-04T08:58:38.267Z</time>
      </trkpt>
      <trkpt lat="43.59273" lon="1.38902">
        <ele>207.277064</ele>
        <time>2023-01-04T08:58:40.265Z</time>
      </trkpt>
      <trkpt lat="43.59278" lon="1.38917">
        <ele>207.201305</ele>
        <time>2023-01-04T08:58:43.264Z</time>
      </trkpt>
      <trkpt lat="43.59284" lon="1.38931">
        <ele>207.125042</ele>
        <time>2023-01-04T08:58:46.261Z</time>
      </trkpt>
      <trkpt lat="43.5929" lon="1.38946">
        <ele>207.045905</ele>
        <time>2023-01-04T08:58:49.254Z</time>
      </trkpt>
      <trkpt lat="43.59295" lon="1.38961">
        <ele>206.970264</ele>
        <time>2023-01-04T08:58:52.268Z</time>
      </trkpt>
      <trkpt lat="43.59301" lon="1.38978">
        <ele>206.886676</ele>
        <time>2023-01-04T08:58:55.259Z</time>
      </trkpt>
      <trkpt lat="43.59306" lon="1.3899">
        <ele>206.824901</ele>
        <time>2023-01-04T08:58:57.257Z</time>
      </trkpt>
      <trkpt lat="43.59311" lon="1.39007">
        <ele>206.810741</ele>
        <time>2023-01-04T08:59:00.241Z</time>
      </trkpt>
      <trkpt lat="43.59315" lon="1.39019">
        <ele>206.868709</ele>
        <time>2023-01-04T08:59:02.250Z</time>
      </trkpt>
      <trkpt lat="43.59319" lon="1.3903">
        <ele>206.923876</ele>
        <time>2023-01-04T08:59:04.253Z</time>
      </trkpt>
      <trkpt lat="43.59325" lon="1.39047">
        <ele>207.008769</ele>
        <time>2023-01-04T08:59:07.255Z</time>
      </trkpt>
      <trkpt lat="43.5933" lon="1.39059">
        <ele>207.067234</ele>
        <time>2023-01-04T08:59:09.248Z</time>
      </trkpt>
      <trkpt lat="43.59335" lon="1.39071">
        <ele>207.129458</ele>
        <time>2023-01-04T08:59:11.253Z</time>
      </trkpt>
      <trkpt lat="43.5934" lon="1.39082">
        <ele>207.186907</ele>
        <time>2023-01-04T08:59:13.254Z</time>
      </trkpt>
      <trkpt lat="43.59347" lon="1.39097">
        <ele>207.26593</ele>
        <time>2023-01-04T08:59:16.256Z</time>
      </trkpt>
      <trkpt lat="43.59351" lon="1.39108">
        <ele>207.321097</ele>
        <time>2023-01-04T08:59:18.250Z</time>
      </trkpt>
      <trkpt lat="43.59356" lon="1.3912">
        <ele>207.379064</ele>
        <time>2023-01-04T08:59:20.249Z</time>
      </trkpt>
      <trkpt lat="43.59361" lon="1.39136">
        <ele>207.458934</ele>
        <time>2023-01-04T08:59:23.251Z</time>
      </trkpt>
      <trkpt lat="43.59366" lon="1.39151">
        <ele>207.530454</ele>
        <time>2023-01-04T08:59:26.251Z</time>
      </trkpt>
      <trkpt lat="43.59369" lon="1.39166">
        <ele>207.595708</ele>
        <time>2023-01-04T08:59:29.256Z</time>
      </trkpt>
      <trkpt lat="43.59368" lon="1.39181">
        <ele>207.662709</ele>
        <time>2023-01-04T08:59:32.259Z</time>
      </trkpt>
      <trkpt lat="43.59365" lon="1.39198">
        <ele>207.73955</ele>
        <time>2023-01-04T08:59:35.255Z</time>
      </trkpt>
      <trkpt lat="43.59362" lon="1.3921">
        <ele>207.794667</ele>
        <time>2023-01-04T08:59:37.260Z</time>
      </trkpt>
      <trkpt lat="43.59359" lon="1.39222">
        <ele>207.850172</ele>
        <time>2023-01-04T08:59:39.247Z</time>
      </trkpt>
      <trkpt lat="43.59355" lon="1.39234">
        <ele>207.840765</ele>
        <time>2023-01-04T08:59:41.252Z</time>
      </trkpt>
      <trkpt lat="43.59352" lon="1.39245">
        <ele>207.799105</ele>
        <time>2023-01-04T08:59:43.257Z</time>
      </trkpt>
      <trkpt lat="43.59349" lon="1.39257">
        <ele>207.758555</ele>
        <time>2023-01-04T08:59:45.247Z</time>
      </trkpt>
      <trkpt lat="43.59344" lon="1.39273">
        <ele>207.703708</ele>
        <time>2023-01-04T08:59:48.248Z</time>
      </trkpt>
      <trkpt lat="43.5934" lon="1.39288">
        <ele>207.652569</ele>
        <time>2023-01-04T08:59:51.246Z</time>
      </trkpt>
      <trkpt lat="43.59337" lon="1.39303">
        <ele>207.601012</ele>
        <time>2023-01-04T08:59:54.245Z</time>
      </trkpt>
      <trkpt lat="43.59333" lon="1.39318">
        <ele>207.547316</ele>
        <time>2023-01-04T08:59:57.253Z</time>
      </trkpt>
      <trkpt lat="43.59329" lon="1.39335">
        <ele>207.489296</ele>
        <time>2023-01-04T09:00:00.249Z</time>
      </trkpt>
      <trkpt lat="43.59325" lon="1.39353">
        <ele>207.430293</ele>
        <time>2023-01-04T09:00:03.248Z</time>
      </trkpt>
      <trkpt lat="43.59321" lon="1.39369">
        <ele>207.372612</ele>
        <time>2023-01-04T09:00:06.249Z</time>
      </trkpt>
      <trkpt lat="43.59317" lon="1.39387">
        <ele>207.312937</ele>
        <time>2023-01-04T09:00:09.268Z</time>
      </trkpt>
      <trkpt lat="43.59314" lon="1.39399">
        <ele>207.271178</ele>
        <time>2023-01-04T09:00:11.265Z</time>
      </trkpt>
      <trkpt lat="43.5931" lon="1.39411">
        <ele>207.227669</ele>
        <time>2023-01-04T09:00:13.256Z</time>
      </trkpt>
      <trkpt lat="43.59307" lon="1.39424">
        <ele>207.183586</ele>
        <time>2023-01-04T09:00:15.248Z</time>
      </trkpt>
      <trkpt lat="43.59304" lon="1.39437">
        <ele>207.140137</ele>
        <time>2023-01-04T09:00:17.250Z</time>
      </trkpt>
      <trkpt lat="43.59301" lon="1.39449">
        <ele>207.097745</ele>
        <time>2023-01-04T09:00:19.265Z</time>
      </trkpt>
      <trkpt lat="43.59298" lon="1.39461">
        <ele>207.070296</ele>
        <time>2023-01-04T09:00:21.248Z</time>
      </trkpt>
      <trkpt lat="43.59295" lon="1.39474">
        <ele>207.154052</ele>
        <time>2023-01-04T09:00:23.259Z</time>
      </trkpt>
      <trkpt lat="43.59292" lon="1.39487">
        <ele>207.235045</ele>
        <time>2023-01-04T09:00:25.249Z</time>
      </trkpt>
      <trkpt lat="43.59289" lon="1.395">
        <ele>207.317192</ele>
        <time>2023-01-04T09:00:27.251Z</time>
      </trkpt>
      <trkpt lat="43.59285" lon="1.39517">
        <ele>207.424824</ele>
        <time>2023-01-04T09:00:30.251Z</time>
      </trkpt>
      <trkpt lat="43.59282" lon="1.39534">
        <ele>207.529146</ele>
        <time>2023-01-04T09:00:33.270Z</time>
      </trkpt>
      <trkpt lat="43.59278" lon="1.39551">
        <ele>207.637413</ele>
        <time>2023-01-04T09:00:36.248Z</time>
      </trkpt>
      <trkpt lat="43.59275" lon="1.39563">
        <ele>207.718614</ele>
        <time>2023-01-04T09:00:38.253Z</time>
      </trkpt>
      <trkpt lat="43.59271" lon="1.39575">
        <ele>207.795383</ele>
        <time>2023-01-04T09:00:40.258Z</time>
      </trkpt>
      <trkpt lat="43.59268" lon="1.39588">
        <ele>207.87942</ele>
        <time>2023-01-04T09:00:42.254Z</time>
      </trkpt>
      <trkpt lat="43.59264" lon="1.39601">
        <ele>207.961767</ele>
        <time>2023-01-04T09:00:44.253Z</time>
      </trkpt>
      <trkpt lat="43.59261" lon="1.39614">
        <ele>208.041291</ele>
        <time>2023-01-04T09:00:46.258Z</time>
      </trkpt>
      <trkpt lat="43.59259" lon="1.39626">
        <ele>208.121462</ele>
        <time>2023-01-04T09:00:48.253Z</time>
      </trkpt>
      <trkpt lat="43.59256" lon="1.39639">
        <ele>208.200414</ele>
        <time>2023-01-04T09:00:50.249Z</time>
      </trkpt>
      <trkpt lat="43.59253" lon="1.39651">
        <ele>208.277078</ele>
        <time>2023-01-04T09:00:52.261Z</time>
      </trkpt>
      <trkpt lat="43.59248" lon="1.39668">
        <ele>208.389225</ele>
        <time>2023-01-04T09:00:55.257Z</time>
      </trkpt>
      <trkpt lat="43.59244" lon="1.39684">
        <ele>208.489164</ele>
        <time>2023-01-04T09:00:58.247Z</time>
      </trkpt>
      <trkpt lat="43.59241" lon="1.39699">
        <ele>208.53624</ele>
        <time>2023-01-04T09:01:01.261Z</time>
      </trkpt>
      <trkpt lat="43.59237" lon="1.39713">
        <ele>208.432334</ele>
        <time>2023-01-04T09:01:04.254Z</time>
      </trkpt>
      <trkpt lat="43.59234" lon="1.39727">
        <ele>208.32864</ele>
        <time>2023-01-04T09:01:07.247Z</time>
      </trkpt>
      <trkpt lat="43.5923" lon="1.39741">
        <ele>208.22913</ele>
        <time>2023-01-04T09:01:10.248Z</time>
      </trkpt>
      <trkpt lat="43.59226" lon="1.39754">
        <ele>208.132873</ele>
        <time>2023-01-04T09:01:13.258Z</time>
      </trkpt>
      <trkpt lat="43.59223" lon="1.39766">
        <ele>208.045704</ele>
        <time>2023-01-04T09:01:16.251Z</time>
      </trkpt>
      <trkpt lat="43.59219" lon="1.39778">
        <ele>207.955967</ele>
        <time>2023-01-04T09:01:19.256Z</time>
      </trkpt>
      <trkpt lat="43.59217" lon="1.3979">
        <ele>207.869486</ele>
        <time>2023-01-04T09:01:22.260Z</time>
      </trkpt>
      <trkpt lat="43.59214" lon="1.39806">
        <ele>207.758042</ele>
        <time>2023-01-04T09:01:26.251Z</time>
      </trkpt>
      <trkpt lat="43.5921" lon="1.3982">
        <ele>207.658627</ele>
        <time>2023-01-04T09:01:30.255Z</time>
      </trkpt>
      <trkpt lat="43.59205" lon="1.3983">
        <ele>207.573298</ele>
        <time>2023-01-04T09:01:33.258Z</time>
      </trkpt>
      <trkpt lat="43.59203" lon="1.39843">
        <ele>207.483603</ele>
        <time>2023-01-04T09:01:36.261Z</time>
      </trkpt>
      <trkpt lat="43.59203" lon="1.39856">
        <ele>207.392616</ele>
        <time>2023-01-04T09:01:39.247Z</time>
      </trkpt>
      <trkpt lat="43.59203" lon="1.39871">
        <ele>207.291332</ele>
        <time>2023-01-04T09:01:42.256Z</time>
      </trkpt>
      <trkpt lat="43.59203" lon="1.39887">
        <ele>207.179079</ele>
        <time>2023-01-04T09:01:45.252Z</time>
      </trkpt>
      <trkpt lat="43.59204" lon="1.39904">
        <ele>207.064775</ele>
        <time>2023-01-04T09:01:48.257Z</time>
      </trkpt>
      <trkpt lat="43.59204" lon="1.39919">
        <ele>206.964739</ele>
        <time>2023-01-04T09:01:51.259Z</time>
      </trkpt>
      <trkpt lat="43.59205" lon="1.39932">
        <ele>206.870716</ele>
        <time>2023-01-04T09:01:54.249Z</time>
      </trkpt>
      <trkpt lat="43.59206" lon="1.39947">
        <ele>206.687786</ele>
        <time>2023-01-04T09:01:57.255Z</time>
      </trkpt>
      <trkpt lat="43.59209" lon="1.39961">
        <ele>206.502357</ele>
        <time>2023-01-04T09:02:00.250Z</time>
      </trkpt>
      <trkpt lat="43.59212" lon="1.39974">
        <ele>206.327342</ele>
        <time>2023-01-04T09:02:04.254Z</time>
      </trkpt>
      <trkpt lat="43.59215" lon="1.39989">
        <ele>206.122635</ele>
        <time>2023-01-04T09:02:08.253Z</time>
      </trkpt>
      <trkpt lat="43.59218" lon="1.40005">
        <ele>205.91658</ele>
        <time>2023-01-04T09:02:11.249Z</time>
      </trkpt>
      <trkpt lat="43.59221" lon="1.40021">
        <ele>205.698621</ele>
        <time>2023-01-04T09:02:14.266Z</time>
      </trkpt>
      <trkpt lat="43.59224" lon="1.40038">
        <ele>205.478984</ele>
        <time>2023-01-04T09:02:17.259Z</time>
      </trkpt>
      <trkpt lat="43.59227" lon="1.40055">
        <ele>205.25421</ele>
        <time>2023-01-04T09:02:20.250Z</time>
      </trkpt>
      <trkpt lat="43.59229" lon="1.40072">
        <ele>205.029963</ele>
        <time>2023-01-04T09:02:23.262Z</time>
      </trkpt>
      <trkpt lat="43.59232" lon="1.40089">
        <ele>204.796139</ele>
        <time>2023-01-04T09:02:26.247Z</time>
      </trkpt>
      <trkpt lat="43.59235" lon="1.40107">
        <ele>204.562172</ele>
        <time>2023-01-04T09:02:29.256Z</time>
      </trkpt>
      <trkpt lat="43.59237" lon="1.40124">
        <ele>204.335212</ele>
        <time>2023-01-04T09:02:32.245Z</time>
      </trkpt>
      <trkpt lat="43.59241" lon="1.40142">
        <ele>204.095365</ele>
        <time>2023-01-04T09:02:35.256Z</time>
      </trkpt>
      <trkpt lat="43.59244" lon="1.40155">
        <ele>203.924469</ele>
        <time>2023-01-04T09:02:37.251Z</time>
      </trkpt>
      <trkpt lat="43.59246" lon="1.40167">
        <ele>203.759091</ele>
        <time>2023-01-04T09:02:39.252Z</time>
      </trkpt>
      <trkpt lat="43.5925" lon="1.4018">
        <ele>203.590504</ele>
        <time>2023-01-04T09:02:41.262Z</time>
      </trkpt>
      <trkpt lat="43.59252" lon="1.40194">
        <ele>203.427403</ele>
        <time>2023-01-04T09:02:43.259Z</time>
      </trkpt>
      <trkpt lat="43.59254" lon="1.40207">
        <ele>203.269763</ele>
        <time>2023-01-04T09:02:45.259Z</time>
      </trkpt>
      <trkpt lat="43.59257" lon="1.40221">
        <ele>203.095282</ele>
        <time>2023-01-04T09:02:47.263Z</time>
      </trkpt>
      <trkpt lat="43.5926" lon="1.40236">
        <ele>202.906946</ele>
        <time>2023-01-04T09:02:49.260Z</time>
      </trkpt>
      <trkpt lat="43.59264" lon="1.40252">
        <ele>202.71164</ele>
        <time>2023-01-04T09:02:51.252Z</time>
      </trkpt>
      <trkpt lat="43.59266" lon="1.40269">
        <ele>202.512658</ele>
        <time>2023-01-04T09:02:53.261Z</time>
      </trkpt>
      <trkpt lat="43.59268" lon="1.40286">
        <ele>202.302034</ele>
        <time>2023-01-04T09:02:55.256Z</time>
      </trkpt>
      <trkpt lat="43.59271" lon="1.40304">
        <ele>202.087218</ele>
        <time>2023-01-04T09:02:57.255Z</time>
      </trkpt>
      <trkpt lat="43.59274" lon="1.40319">
        <ele>201.89777</ele>
        <time>2023-01-04T09:02:59.262Z</time>
      </trkpt>
      <trkpt lat="43.59278" lon="1.40334">
        <ele>201.714257</ele>
        <time>2023-01-04T09:03:01.261Z</time>
      </trkpt>
      <trkpt lat="43.59281" lon="1.40349">
        <ele>201.532075</ele>
        <time>2023-01-04T09:03:03.268Z</time>
      </trkpt>
      <trkpt lat="43.59283" lon="1.40364">
        <ele>201.350324</ele>
        <time>2023-01-04T09:03:05.266Z</time>
      </trkpt>
      <trkpt lat="43.59285" lon="1.40378">
        <ele>201.178145</ele>
        <time>2023-01-04T09:03:07.262Z</time>
      </trkpt>
      <trkpt lat="43.59288" lon="1.40392">
        <ele>201.010913</ele>
        <time>2023-01-04T09:03:09.246Z</time>
      </trkpt>
      <trkpt lat="43.5929" lon="1.40405">
        <ele>200.855471</ele>
        <time>2023-01-04T09:03:11.250Z</time>
      </trkpt>
      <trkpt lat="43.59292" lon="1.40417">
        <ele>200.717779</ele>
        <time>2023-01-04T09:03:13.260Z</time>
      </trkpt>
      <trkpt lat="43.59295" lon="1.4043">
        <ele>200.637724</ele>
        <time>2023-01-04T09:03:15.258Z</time>
      </trkpt>
      <trkpt lat="43.59297" lon="1.40442">
        <ele>200.564147</ele>
        <time>2023-01-04T09:03:17.254Z</time>
      </trkpt>
      <trkpt lat="43.59301" lon="1.40459">
        <ele>200.460949</ele>
        <time>2023-01-04T09:03:20.263Z</time>
      </trkpt>
      <trkpt lat="43.59305" lon="1.40476">
        <ele>200.355446</ele>
        <time>2023-01-04T09:03:23.268Z</time>
      </trkpt>
      <trkpt lat="43.59307" lon="1.4049">
        <ele>200.270666</ele>
        <time>2023-01-04T09:03:25.254Z</time>
      </trkpt>
      <trkpt lat="43.59312" lon="1.40509">
        <ele>200.152114</ele>
        <time>2023-01-04T09:03:28.257Z</time>
      </trkpt>
      <trkpt lat="43.59314" lon="1.40522">
        <ele>200.071706</ele>
        <time>2023-01-04T09:03:30.271Z</time>
      </trkpt>
      <trkpt lat="43.59317" lon="1.40536">
        <ele>199.982875</ele>
        <time>2023-01-04T09:03:32.271Z</time>
      </trkpt>
      <trkpt lat="43.5932" lon="1.4055">
        <ele>199.901329</ele>
        <time>2023-01-04T09:03:34.255Z</time>
      </trkpt>
      <trkpt lat="43.59321" lon="1.40563">
        <ele>199.8186</ele>
        <time>2023-01-04T09:03:36.251Z</time>
      </trkpt>
      <trkpt lat="43.59323" lon="1.40578">
        <ele>199.728164</ele>
        <time>2023-01-04T09:03:38.251Z</time>
      </trkpt>
      <trkpt lat="43.59325" lon="1.40592">
        <ele>199.645676</ele>
        <time>2023-01-04T09:03:40.247Z</time>
      </trkpt>
      <trkpt lat="43.59327" lon="1.40605">
        <ele>199.566748</ele>
        <time>2023-01-04T09:03:42.249Z</time>
      </trkpt>
      <trkpt lat="43.5933" lon="1.40618">
        <ele>199.486464</ele>
        <time>2023-01-04T09:03:44.254Z</time>
      </trkpt>
      <trkpt lat="43.59333" lon="1.40636">
        <ele>199.377519</ele>
        <time>2023-01-04T09:03:47.279Z</time>
      </trkpt>
      <trkpt lat="43.59335" lon="1.40648">
        <ele>199.302895</ele>
        <time>2023-01-04T09:03:49.256Z</time>
      </trkpt>
      <trkpt lat="43.59338" lon="1.40662">
        <ele>199.231032</ele>
        <time>2023-01-04T09:03:52.251Z</time>
      </trkpt>
      <trkpt lat="43.59341" lon="1.40677">
        <ele>199.168101</ele>
        <time>2023-01-04T09:03:55.260Z</time>
      </trkpt>
      <trkpt lat="43.59344" lon="1.40691">
        <ele>199.108369</ele>
        <time>2023-01-04T09:03:58.258Z</time>
      </trkpt>
      <trkpt lat="43.59346" lon="1.40705">
        <ele>199.051224</ele>
        <time>2023-01-04T09:04:01.251Z</time>
      </trkpt>
      <trkpt lat="43.59348" lon="1.40717">
        <ele>198.998471</ele>
        <time>2023-01-04T09:04:04.250Z</time>
      </trkpt>
      <trkpt lat="43.59352" lon="1.40731">
        <ele>198.940339</ele>
        <time>2023-01-04T09:04:07.269Z</time>
      </trkpt>
      <trkpt lat="43.59355" lon="1.40743">
        <ele>198.88718</ele>
        <time>2023-01-04T09:04:10.255Z</time>
      </trkpt>
      <trkpt lat="43.59358" lon="1.40759">
        <ele>198.82181</ele>
        <time>2023-01-04T09:04:14.259Z</time>
      </trkpt>
      <trkpt lat="43.5936" lon="1.40773">
        <ele>198.761763</ele>
        <time>2023-01-04T09:04:18.247Z</time>
      </trkpt>
      <trkpt lat="43.59361" lon="1.40787">
        <ele>198.702077</ele>
        <time>2023-01-04T09:04:22.250Z</time>
      </trkpt>
      <trkpt lat="43.59363" lon="1.40802">
        <ele>198.64004</ele>
        <time>2023-01-04T09:04:26.256Z</time>
      </trkpt>
      <trkpt lat="43.59365" lon="1.40817">
        <ele>198.579917</ele>
        <time>2023-01-04T09:04:30.250Z</time>
      </trkpt>
      <trkpt lat="43.59366" lon="1.40832">
        <ele>198.518683</ele>
        <time>2023-01-04T09:04:34.250Z</time>
      </trkpt>
      <trkpt lat="43.59367" lon="1.40845">
        <ele>198.465629</ele>
        <time>2023-01-04T09:04:38.250Z</time>
      </trkpt>
      <trkpt lat="43.59368" lon="1.40877">
        <ele>198.333569</ele>
        <time>2023-01-04T09:05:15.250Z</time>
      </trkpt>
      <trkpt lat="43.5937" lon="1.40892">
        <ele>198.272999</ele>
        <time>2023-01-04T09:05:20.249Z</time>
      </trkpt>
      <trkpt lat="43.59368" lon="1.40906">
        <ele>198.140196</ele>
        <time>2023-01-04T09:05:26.257Z</time>
      </trkpt>
      <trkpt lat="43.5937" lon="1.40919">
        <ele>197.963015</ele>
        <time>2023-01-04T09:05:32.249Z</time>
      </trkpt>
      <trkpt lat="43.59378" lon="1.40928">
        <ele>197.769785</ele>
        <time>2023-01-04T09:05:36.253Z</time>
      </trkpt>
      <trkpt lat="43.59386" lon="1.40936">
        <ele>197.591233</ele>
        <time>2023-01-04T09:05:39.249Z</time>
      </trkpt>
      <trkpt lat="43.59391" lon="1.40949">
        <ele>197.400714</ele>
        <time>2023-01-04T09:05:42.258Z</time>
      </trkpt>
      <trkpt lat="43.59395" lon="1.40964">
        <ele>197.17748</ele>
        <time>2023-01-04T09:05:45.262Z</time>
      </trkpt>
      <trkpt lat="43.59398" lon="1.40977">
        <ele>197.006899</ele>
        <time>2023-01-04T09:05:47.264Z</time>
      </trkpt>
      <trkpt lat="43.59401" lon="1.40991">
        <ele>196.815838</ele>
        <time>2023-01-04T09:05:49.259Z</time>
      </trkpt>
      <trkpt lat="43.59404" lon="1.41006">
        <ele>196.599275</ele>
        <time>2023-01-04T09:05:51.248Z</time>
      </trkpt>
      <trkpt lat="43.59406" lon="1.41022">
        <ele>196.386891</ele>
        <time>2023-01-04T09:05:53.242Z</time>
      </trkpt>
      <trkpt lat="43.59408" lon="1.41039">
        <ele>196.165719</ele>
        <time>2023-01-04T09:05:55.250Z</time>
      </trkpt>
      <trkpt lat="43.59411" lon="1.41055">
        <ele>195.937349</ele>
        <time>2023-01-04T09:05:57.252Z</time>
      </trkpt>
      <trkpt lat="43.59413" lon="1.41071">
        <ele>195.730657</ele>
        <time>2023-01-04T09:05:59.251Z</time>
      </trkpt>
      <trkpt lat="43.59418" lon="1.41085">
        <ele>195.52234</ele>
        <time>2023-01-04T09:06:01.247Z</time>
      </trkpt>
      <trkpt lat="43.5942" lon="1.411">
        <ele>195.326801</ele>
        <time>2023-01-04T09:06:03.244Z</time>
      </trkpt>
      <trkpt lat="43.59422" lon="1.41114">
        <ele>195.125686</ele>
        <time>2023-01-04T09:06:05.246Z</time>
      </trkpt>
      <trkpt lat="43.59424" lon="1.41132">
        <ele>194.99189</ele>
        <time>2023-01-04T09:06:08.256Z</time>
      </trkpt>
      <trkpt lat="43.59427" lon="1.41148">
        <ele>195.11709</ele>
        <time>2023-01-04T09:06:11.248Z</time>
      </trkpt>
      <trkpt lat="43.5943" lon="1.41162">
        <ele>195.229165</ele>
        <time>2023-01-04T09:06:14.252Z</time>
      </trkpt>
      <trkpt lat="43.59432" lon="1.41176">
        <ele>195.339259</ele>
        <time>2023-01-04T09:06:17.251Z</time>
      </trkpt>
      <trkpt lat="43.59436" lon="1.41192">
        <ele>195.467787</ele>
        <time>2023-01-04T09:06:20.256Z</time>
      </trkpt>
      <trkpt lat="43.5944" lon="1.41207">
        <ele>195.595662</ele>
        <time>2023-01-04T09:06:23.246Z</time>
      </trkpt>
      <trkpt lat="43.59444" lon="1.41223">
        <ele>195.720123</ele>
        <time>2023-01-04T09:06:26.250Z</time>
      </trkpt>
      <trkpt lat="43.59446" lon="1.41238">
        <ele>195.837774</ele>
        <time>2023-01-04T09:06:29.247Z</time>
      </trkpt>
      <trkpt lat="43.59448" lon="1.41251">
        <ele>195.937309</ele>
        <time>2023-01-04T09:06:32.254Z</time>
      </trkpt>
      <trkpt lat="43.59446" lon="1.41263">
        <ele>196.033057</ele>
        <time>2023-01-04T09:06:36.252Z</time>
      </trkpt>
      <trkpt lat="43.59451" lon="1.41274">
        <ele>196.12912</ele>
        <time>2023-01-04T09:06:39.248Z</time>
      </trkpt>
      <trkpt lat="43.59457" lon="1.41286">
        <ele>196.245461</ele>
        <time>2023-01-04T09:06:42.253Z</time>
      </trkpt>
      <trkpt lat="43.59459" lon="1.41303">
        <ele>196.376909</ele>
        <time>2023-01-04T09:06:45.249Z</time>
      </trkpt>
      <trkpt lat="43.59462" lon="1.4132">
        <ele>196.507746</ele>
        <time>2023-01-04T09:06:48.268Z</time>
      </trkpt>
      <trkpt lat="43.59465" lon="1.41337">
        <ele>196.64532</ele>
        <time>2023-01-04T09:06:51.248Z</time>
      </trkpt>
      <trkpt lat="43.59468" lon="1.41354">
        <ele>196.779223</ele>
        <time>2023-01-04T09:06:54.247Z</time>
      </trkpt>
      <trkpt lat="43.59472" lon="1.41366">
        <ele>196.919131</ele>
        <time>2023-01-04T09:06:56.260Z</time>
      </trkpt>
      <trkpt lat="43.59477" lon="1.41383">
        <ele>197.400995</ele>
        <time>2023-01-04T09:06:59.255Z</time>
      </trkpt>
      <trkpt lat="43.59481" lon="1.41399">
        <ele>197.819972</ele>
        <time>2023-01-04T09:07:02.250Z</time>
      </trkpt>
      <trkpt lat="43.59483" lon="1.41414">
        <ele>198.210274</ele>
        <time>2023-01-04T09:07:05.263Z</time>
      </trkpt>
      <trkpt lat="43.59487" lon="1.41431">
        <ele>198.673128</ele>
        <time>2023-01-04T09:07:08.259Z</time>
      </trkpt>
      <trkpt lat="43.5949" lon="1.41448">
        <ele>199.124558</ele>
        <time>2023-01-04T09:07:11.257Z</time>
      </trkpt>
      <trkpt lat="43.59492" lon="1.41465">
        <ele>199.571404</ele>
        <time>2023-01-04T09:07:14.259Z</time>
      </trkpt>
      <trkpt lat="43.59494" lon="1.41481">
        <ele>199.976047</ele>
        <time>2023-01-04T09:07:17.264Z</time>
      </trkpt>
      <trkpt lat="43.59497" lon="1.41495">
        <ele>200.373457</ele>
        <time>2023-01-04T09:07:20.247Z</time>
      </trkpt>
      <trkpt lat="43.595" lon="1.4151">
        <ele>200.748768</ele>
        <time>2023-01-04T09:07:23.259Z</time>
      </trkpt>
      <trkpt lat="43.595" lon="1.41524">
        <ele>201.116641</ele>
        <time>2023-01-04T09:07:26.264Z</time>
      </trkpt>
      <trkpt lat="43.59502" lon="1.41536">
        <ele>201.436982</ele>
        <time>2023-01-04T09:07:29.262Z</time>
      </trkpt>
      <trkpt lat="43.59501" lon="1.41549">
        <ele>201.759964</ele>
        <time>2023-01-04T09:07:32.257Z</time>
      </trkpt>
      <trkpt lat="43.59501" lon="1.41562">
        <ele>202.106694</ele>
        <time>2023-01-04T09:07:35.272Z</time>
      </trkpt>
      <trkpt lat="43.59505" lon="1.41577">
        <ele>202.528796</ele>
        <time>2023-01-04T09:07:38.253Z</time>
      </trkpt>
      <trkpt lat="43.5951" lon="1.41589">
        <ele>202.866758</ele>
        <time>2023-01-04T09:07:40.272Z</time>
      </trkpt>
      <trkpt lat="43.59512" lon="1.41601">
        <ele>203.195528</ele>
        <time>2023-01-04T09:07:42.251Z</time>
      </trkpt>
      <trkpt lat="43.59515" lon="1.41619">
        <ele>203.590181</ele>
        <time>2023-01-04T09:07:45.253Z</time>
      </trkpt>
      <trkpt lat="43.59518" lon="1.41634">
        <ele>203.932711</ele>
        <time>2023-01-04T09:07:48.250Z</time>
      </trkpt>
      <trkpt lat="43.59521" lon="1.41649">
        <ele>204.263566</ele>
        <time>2023-01-04T09:07:51.256Z</time>
      </trkpt>
      <trkpt lat="43.59525" lon="1.41662">
        <ele>204.575642</ele>
        <time>2023-01-04T09:07:55.254Z</time>
      </trkpt>
      <trkpt lat="43.59529" lon="1.41676">
        <ele>204.894826</ele>
        <time>2023-01-04T09:08:01.253Z</time>
      </trkpt>
      <trkpt lat="43.59533" lon="1.41688">
        <ele>205.186962</ele>
        <time>2023-01-04T09:08:07.255Z</time>
      </trkpt>
      <trkpt lat="43.59535" lon="1.41703">
        <ele>205.521922</ele>
        <time>2023-01-04T09:08:11.249Z</time>
      </trkpt>
      <trkpt lat="43.59537" lon="1.41721">
        <ele>205.908392</ele>
        <time>2023-01-04T09:08:14.254Z</time>
      </trkpt>
      <trkpt lat="43.59543" lon="1.41738">
        <ele>206.300422</ele>
        <time>2023-01-04T09:08:17.265Z</time>
      </trkpt>
      <trkpt lat="43.59549" lon="1.41754">
        <ele>206.702522</ele>
        <time>2023-01-04T09:08:20.262Z</time>
      </trkpt>
      <trkpt lat="43.59554" lon="1.41764">
        <ele>206.97556</ele>
        <time>2023-01-04T09:08:22.261Z</time>
      </trkpt>
      <trkpt lat="43.59561" lon="1.41779">
        <ele>207.351772</ele>
        <time>2023-01-04T09:08:25.256Z</time>
      </trkpt>
      <trkpt lat="43.59564" lon="1.41792">
        <ele>207.644473</ele>
        <time>2023-01-04T09:08:29.261Z</time>
      </trkpt>
      <trkpt lat="43.59566" lon="1.41805">
        <ele>207.946477</ele>
        <time>2023-01-04T09:08:33.253Z</time>
      </trkpt>
      <trkpt lat="43.59564" lon="1.4182">
        <ele>208.271817</ele>
        <time>2023-01-04T09:08:36.257Z</time>
      </trkpt>
      <trkpt lat="43.5956" lon="1.41834">
        <ele>208.585016</ele>
        <time>2023-01-04T09:08:39.250Z</time>
      </trkpt>
      <trkpt lat="43.59562" lon="1.41848">
        <ele>208.319888</ele>
        <time>2023-01-04T09:08:42.251Z</time>
      </trkpt>
      <trkpt lat="43.59565" lon="1.41864">
        <ele>207.971185</ele>
        <time>2023-01-04T09:08:45.259Z</time>
      </trkpt>
      <trkpt lat="43.59567" lon="1.41882">
        <ele>207.591869</ele>
        <time>2023-01-04T09:08:48.253Z</time>
      </trkpt>
      <trkpt lat="43.5957" lon="1.41898">
        <ele>207.248596</ele>
        <time>2023-01-04T09:08:51.251Z</time>
      </trkpt>
      <trkpt lat="43.59572" lon="1.41912">
        <ele>206.94637</ele>
        <time>2023-01-04T09:08:54.261Z</time>
      </trkpt>
      <trkpt lat="43.59573" lon="1.41925">
        <ele>206.679773</ele>
        <time>2023-01-04T09:08:57.271Z</time>
      </trkpt>
      <trkpt lat="43.5957" lon="1.41936">
        <ele>206.422198</ele>
        <time>2023-01-04T09:09:01.257Z</time>
      </trkpt>
      <trkpt lat="43.59572" lon="1.41949">
        <ele>206.141887</ele>
        <time>2023-01-04T09:09:06.256Z</time>
      </trkpt>
      <trkpt lat="43.59576" lon="1.41962">
        <ele>205.850204</ele>
        <time>2023-01-04T09:09:10.279Z</time>
      </trkpt>
      <trkpt lat="43.59582" lon="1.41974">
        <ele>205.542244</ele>
        <time>2023-01-04T09:09:13.253Z</time>
      </trkpt>
      <trkpt lat="43.59585" lon="1.41989">
        <ele>205.219147</ele>
        <time>2023-01-04T09:09:16.249Z</time>
      </trkpt>
      <trkpt lat="43.59588" lon="1.42004">
        <ele>204.890817</ele>
        <time>2023-01-04T09:09:19.263Z</time>
      </trkpt>
      <trkpt lat="43.59591" lon="1.42021">
        <ele>204.53203</ele>
        <time>2023-01-04T09:09:22.256Z</time>
      </trkpt>
      <trkpt lat="43.59594" lon="1.42038">
        <ele>204.164802</ele>
        <time>2023-01-04T09:09:25.275Z</time>
      </trkpt>
      <trkpt lat="43.59597" lon="1.42055">
        <ele>203.787706</ele>
        <time>2023-01-04T09:09:28.250Z</time>
      </trkpt>
      <trkpt lat="43.59599" lon="1.4207">
        <ele>203.472576</ele>
        <time>2023-01-04T09:09:31.267Z</time>
      </trkpt>
      <trkpt lat="43.59601" lon="1.42084">
        <ele>203.265829</ele>
        <time>2023-01-04T09:09:34.268Z</time>
      </trkpt>
      <trkpt lat="43.59604" lon="1.421">
        <ele>203.056336</ele>
        <time>2023-01-04T09:09:37.255Z</time>
      </trkpt>
      <trkpt lat="43.59608" lon="1.42118">
        <ele>202.818773</ele>
        <time>2023-01-04T09:09:40.248Z</time>
      </trkpt>
      <trkpt lat="43.5961" lon="1.4213">
        <ele>202.654271</ele>
        <time>2023-01-04T09:09:42.249Z</time>
      </trkpt>
      <trkpt lat="43.59614" lon="1.42144">
        <ele>202.465056</ele>
        <time>2023-01-04T09:09:44.249Z</time>
      </trkpt>
      <trkpt lat="43.59615" lon="1.42157">
        <ele>202.296054</ele>
        <time>2023-01-04T09:09:46.249Z</time>
      </trkpt>
      <trkpt lat="43.59619" lon="1.42173">
        <ele>202.066618</ele>
        <time>2023-01-04T09:09:49.264Z</time>
      </trkpt>
      <trkpt lat="43.59622" lon="1.42188">
        <ele>201.866086</ele>
        <time>2023-01-04T09:09:52.263Z</time>
      </trkpt>
      <trkpt lat="43.59625" lon="1.42203">
        <ele>201.666968</ele>
        <time>2023-01-04T09:09:55.252Z</time>
      </trkpt>
      <trkpt lat="43.59629" lon="1.42219">
        <ele>201.449242</ele>
        <time>2023-01-04T09:09:58.272Z</time>
      </trkpt>
      <trkpt lat="43.59632" lon="1.42234">
        <ele>201.252095</ele>
        <time>2023-01-04T09:10:01.251Z</time>
      </trkpt>
      <trkpt lat="43.59635" lon="1.42246">
        <ele>201.08652</ele>
        <time>2023-01-04T09:10:04.257Z</time>
      </trkpt>
      <trkpt lat="43.59637" lon="1.42259">
        <ele>200.915875</ele>
        <time>2023-01-04T09:10:08.264Z</time>
      </trkpt>
      <trkpt lat="43.59636" lon="1.42274">
        <ele>200.720479</ele>
        <time>2023-01-04T09:10:13.261Z</time>
      </trkpt>
      <trkpt lat="43.59628" lon="1.42284">
        <ele>200.528461</ele>
        <time>2023-01-04T09:10:17.253Z</time>
      </trkpt>
      <trkpt lat="43.59618" lon="1.42281">
        <ele>200.345412</ele>
        <time>2023-01-04T09:10:20.259Z</time>
      </trkpt>
      <trkpt lat="43.5961" lon="1.42275">
        <ele>200.208404</ele>
        <time>2023-01-04T09:10:23.255Z</time>
      </trkpt>
      <trkpt lat="43.596" lon="1.42269">
        <ele>200.242553</ele>
        <time>2023-01-04T09:10:26.270Z</time>
      </trkpt>
      <trkpt lat="43.5959" lon="1.42261">
        <ele>200.27759</ele>
        <time>2023-01-04T09:10:29.247Z</time>
      </trkpt>
      <trkpt lat="43.5958" lon="1.42254">
        <ele>200.314545</ele>
        <time>2023-01-04T09:10:32.262Z</time>
      </trkpt>
      <trkpt lat="43.5957" lon="1.42246">
        <ele>200.350523</ele>
        <time>2023-01-04T09:10:35.260Z</time>
      </trkpt>
      <trkpt lat="43.59559" lon="1.42239">
        <ele>200.389391</ele>
        <time>2023-01-04T09:10:38.267Z</time>
      </trkpt>
      <trkpt lat="43.59549" lon="1.42231">
        <ele>200.427688</ele>
        <time>2023-01-04T09:10:41.257Z</time>
      </trkpt>
      <trkpt lat="43.59539" lon="1.42223">
        <ele>200.463734</ele>
        <time>2023-01-04T09:10:44.251Z</time>
      </trkpt>
      <trkpt lat="43.5953" lon="1.42215">
        <ele>200.498762</ele>
        <time>2023-01-04T09:10:47.253Z</time>
      </trkpt>
      <trkpt lat="43.59518" lon="1.42206">
        <ele>200.539248</ele>
        <time>2023-01-04T09:10:50.259Z</time>
      </trkpt>
      <trkpt lat="43.59508" lon="1.42197">
        <ele>200.579828</ele>
        <time>2023-01-04T09:10:53.262Z</time>
      </trkpt>
      <trkpt lat="43.59498" lon="1.4219">
        <ele>200.614421</ele>
        <time>2023-01-04T09:10:56.261Z</time>
      </trkpt>
      <trkpt lat="43.59488" lon="1.42183">
        <ele>200.650034</ele>
        <time>2023-01-04T09:10:59.259Z</time>
      </trkpt>
      <trkpt lat="43.59476" lon="1.42175">
        <ele>200.690433</ele>
        <time>2023-01-04T09:11:02.249Z</time>
      </trkpt>
      <trkpt lat="43.59466" lon="1.42166">
        <ele>200.730231</ele>
        <time>2023-01-04T09:11:05.246Z</time>
      </trkpt>
      <trkpt lat="43.59458" lon="1.4216">
        <ele>200.75921</ele>
        <time>2023-01-04T09:11:07.250Z</time>
      </trkpt>
      <trkpt lat="43.59447" lon="1.42151">
        <ele>200.660216</ele>
        <time>2023-01-04T09:11:10.255Z</time>
      </trkpt>
      <trkpt lat="43.59436" lon="1.42143">
        <ele>200.465646</ele>
        <time>2023-01-04T09:11:13.253Z</time>
      </trkpt>
      <trkpt lat="43.59426" lon="1.42135">
        <ele>200.270569</ele>
        <time>2023-01-04T09:11:16.256Z</time>
      </trkpt>
      <trkpt lat="43.59416" lon="1.42128">
        <ele>200.10265</ele>
        <time>2023-01-04T09:11:19.251Z</time>
      </trkpt>
      <trkpt lat="43.59407" lon="1.42121">
        <ele>199.936923</ele>
        <time>2023-01-04T09:11:22.249Z</time>
      </trkpt>
      <trkpt lat="43.59398" lon="1.42115">
        <ele>199.780492</ele>
        <time>2023-01-04T09:11:26.256Z</time>
      </trkpt>
      <trkpt lat="43.59388" lon="1.42106">
        <ele>199.598741</ele>
        <time>2023-01-04T09:11:30.257Z</time>
      </trkpt>
      <trkpt lat="43.59381" lon="1.42098">
        <ele>199.456147</ele>
        <time>2023-01-04T09:11:33.249Z</time>
      </trkpt>
      <trkpt lat="43.59372" lon="1.4209">
        <ele>199.286135</ele>
        <time>2023-01-04T09:11:36.254Z</time>
      </trkpt>
      <trkpt lat="43.59362" lon="1.42082">
        <ele>199.102846</ele>
        <time>2023-01-04T09:11:39.253Z</time>
      </trkpt>
      <trkpt lat="43.59352" lon="1.42073">
        <ele>198.911034</ele>
        <time>2023-01-04T09:11:42.278Z</time>
      </trkpt>
      <trkpt lat="43.59344" lon="1.42067">
        <ele>198.766789</ele>
        <time>2023-01-04T09:11:44.261Z</time>
      </trkpt>
      <trkpt lat="43.59332" lon="1.42059">
        <ele>198.565598</ele>
        <time>2023-01-04T09:11:47.257Z</time>
      </trkpt>
      <trkpt lat="43.59322" lon="1.4205">
        <ele>198.376858</ele>
        <time>2023-01-04T09:11:50.259Z</time>
      </trkpt>
      <trkpt lat="43.59311" lon="1.42041">
        <ele>198.173699</ele>
        <time>2023-01-04T09:11:53.260Z</time>
      </trkpt>
      <trkpt lat="43.59302" lon="1.42035">
        <ele>198.018666</ele>
        <time>2023-01-04T09:11:55.264Z</time>
      </trkpt>
      <trkpt lat="43.59291" lon="1.42025">
        <ele>197.935323</ele>
        <time>2023-01-04T09:11:58.271Z</time>
      </trkpt>
      <trkpt lat="43.5928" lon="1.42015">
        <ele>197.910765</ele>
        <time>2023-01-04T09:12:01.260Z</time>
      </trkpt>
      <trkpt lat="43.5927" lon="1.42006">
        <ele>197.888969</ele>
        <time>2023-01-04T09:12:04.259Z</time>
      </trkpt>
      <trkpt lat="43.59262" lon="1.41998">
        <ele>197.870825</ele>
        <time>2023-01-04T09:12:07.266Z</time>
      </trkpt>
      <trkpt lat="43.59253" lon="1.4199">
        <ele>197.851996</ele>
        <time>2023-01-04T09:12:10.264Z</time>
      </trkpt>
      <trkpt lat="43.59244" lon="1.41982">
        <ele>197.832253</ele>
        <time>2023-01-04T09:12:13.259Z</time>
      </trkpt>
      <trkpt lat="43.59236" lon="1.41974">
        <ele>197.813047</ele>
        <time>2023-01-04T09:12:16.269Z</time>
      </trkpt>
      <trkpt lat="43.59226" lon="1.41967">
        <ele>197.792521</ele>
        <time>2023-01-04T09:12:19.260Z</time>
      </trkpt>
      <trkpt lat="43.59216" lon="1.41959">
        <ele>197.770764</ele>
        <time>2023-01-04T09:12:22.251Z</time>
      </trkpt>
      <trkpt lat="43.59207" lon="1.41952">
        <ele>197.75159</ele>
        <time>2023-01-04T09:12:25.271Z</time>
      </trkpt>
      <trkpt lat="43.59199" lon="1.41945">
        <ele>197.73417</ele>
        <time>2023-01-04T09:12:28.262Z</time>
      </trkpt>
      <trkpt lat="43.59191" lon="1.41939">
        <ele>197.717309</ele>
        <time>2023-01-04T09:12:37.268Z</time>
      </trkpt>
      <trkpt lat="43.59182" lon="1.41935">
        <ele>197.699756</ele>
        <time>2023-01-04T09:12:41.261Z</time>
      </trkpt>
      <trkpt lat="43.59172" lon="1.4193">
        <ele>197.679578</ele>
        <time>2023-01-04T09:12:45.249Z</time>
      </trkpt>
      <trkpt lat="43.59159" lon="1.41918">
        <ele>197.652141</ele>
        <time>2023-01-04T09:13:29.250Z</time>
      </trkpt>
      <trkpt lat="43.5915" lon="1.41913">
        <ele>197.633779</ele>
        <time>2023-01-04T09:13:33.247Z</time>
      </trkpt>
      <trkpt lat="43.59139" lon="1.41917">
        <ele>197.544174</ele>
        <time>2023-01-04T09:13:38.261Z</time>
      </trkpt>
      <trkpt lat="43.5913" lon="1.41926">
        <ele>197.296363</ele>
        <time>2023-01-04T09:13:46.253Z</time>
      </trkpt>
      <trkpt lat="43.59122" lon="1.41934">
        <ele>197.055913</ele>
        <time>2023-01-04T09:13:50.267Z</time>
      </trkpt>
      <trkpt lat="43.59114" lon="1.41943">
        <ele>196.831562</ele>
        <time>2023-01-04T09:13:53.261Z</time>
      </trkpt>
      <trkpt lat="43.59107" lon="1.41954">
        <ele>196.574637</ele>
        <time>2023-01-04T09:13:56.257Z</time>
      </trkpt>
      <trkpt lat="43.59099" lon="1.41966">
        <ele>196.319616</ele>
        <time>2023-01-04T09:13:59.262Z</time>
      </trkpt>
      <trkpt lat="43.59091" lon="1.41978">
        <ele>196.039286</ele>
        <time>2023-01-04T09:14:02.267Z</time>
      </trkpt>
      <trkpt lat="43.59082" lon="1.41991">
        <ele>195.755877</ele>
        <time>2023-01-04T09:14:05.268Z</time>
      </trkpt>
      <trkpt lat="43.59074" lon="1.42004">
        <ele>195.478847</ele>
        <time>2023-01-04T09:14:08.246Z</time>
      </trkpt>
      <trkpt lat="43.59068" lon="1.42015">
        <ele>195.248131</ele>
        <time>2023-01-04T09:14:11.253Z</time>
      </trkpt>
      <trkpt lat="43.59061" lon="1.42024">
        <ele>195.035703</ele>
        <time>2023-01-04T09:14:14.250Z</time>
      </trkpt>
      <trkpt lat="43.59054" lon="1.42035">
        <ele>194.781277</ele>
        <time>2023-01-04T09:14:18.266Z</time>
      </trkpt>
      <trkpt lat="43.59048" lon="1.42047">
        <ele>194.551537</ele>
        <time>2023-01-04T09:14:21.252Z</time>
      </trkpt>
      <trkpt lat="43.59041" lon="1.42058">
        <ele>194.305976</ele>
        <time>2023-01-04T09:14:24.258Z</time>
      </trkpt>
      <trkpt lat="43.59033" lon="1.42071">
        <ele>194.020739</ele>
        <time>2023-01-04T09:14:27.261Z</time>
      </trkpt>
      <trkpt lat="43.59025" lon="1.42084">
        <ele>193.735756</ele>
        <time>2023-01-04T09:14:30.261Z</time>
      </trkpt>
      <trkpt lat="43.59015" lon="1.42096">
        <ele>193.44429</ele>
        <time>2023-01-04T09:14:33.265Z</time>
      </trkpt>
      <trkpt lat="43.59007" lon="1.42108">
        <ele>193.141014</ele>
        <time>2023-01-04T09:14:36.269Z</time>
      </trkpt>
      <trkpt lat="43.58999" lon="1.42119">
        <ele>192.846933</ele>
        <time>2023-01-04T09:14:39.275Z</time>
      </trkpt>
      <trkpt lat="43.58992" lon="1.42129">
        <ele>192.602043</ele>
        <time>2023-01-04T09:14:42.261Z</time>
      </trkpt>
      <trkpt lat="43.58988" lon="1.42142">
        <ele>192.34464</ele>
        <time>2023-01-04T09:14:45.270Z</time>
      </trkpt>
      <trkpt lat="43.58981" lon="1.42152">
        <ele>192.102136</ele>
        <time>2023-01-04T09:14:48.267Z</time>
      </trkpt>
      <trkpt lat="43.58976" lon="1.42163">
        <ele>191.857542</ele>
        <time>2023-01-04T09:14:52.269Z</time>
      </trkpt>
      <trkpt lat="43.5897" lon="1.42174">
        <ele>191.608194</ele>
        <time>2023-01-04T09:14:58.272Z</time>
      </trkpt>
      <trkpt lat="43.58963" lon="1.42185">
        <ele>191.348179</ele>
        <time>2023-01-04T09:15:04.267Z</time>
      </trkpt>
      <trkpt lat="43.58956" lon="1.42193">
        <ele>191.11122</ele>
        <time>2023-01-04T09:15:08.264Z</time>
      </trkpt>
      <trkpt lat="43.58949" lon="1.42201">
        <ele>190.88508</ele>
        <time>2023-01-04T09:15:11.264Z</time>
      </trkpt>
      <trkpt lat="43.58943" lon="1.42212">
        <ele>190.641419</ele>
        <time>2023-01-04T09:15:14.266Z</time>
      </trkpt>
      <trkpt lat="43.58936" lon="1.42222">
        <ele>190.377032</ele>
        <time>2023-01-04T09:15:17.263Z</time>
      </trkpt>
      <trkpt lat="43.58928" lon="1.42234">
        <ele>190.092773</ele>
        <time>2023-01-04T09:15:20.255Z</time>
      </trkpt>
      <trkpt lat="43.5892" lon="1.42247">
        <ele>189.791212</ele>
        <time>2023-01-04T09:15:23.261Z</time>
      </trkpt>
      <trkpt lat="43.58912" lon="1.4226">
        <ele>189.463252</ele>
        <time>2023-01-04T09:15:26.271Z</time>
      </trkpt>
      <trkpt lat="43.58905" lon="1.4227">
        <ele>189.218954</ele>
        <time>2023-01-04T09:15:28.270Z</time>
      </trkpt>
      <trkpt lat="43.58899" lon="1.4228">
        <ele>189.039665</ele>
        <time>2023-01-04T09:15:30.271Z</time>
      </trkpt>
      <trkpt lat="43.58892" lon="1.42292">
        <ele>189.189407</ele>
        <time>2023-01-04T09:15:32.254Z</time>
      </trkpt>
      <trkpt lat="43.58884" lon="1.42302">
        <ele>189.345538</ele>
        <time>2023-01-04T09:15:34.263Z</time>
      </trkpt>
      <trkpt lat="43.58876" lon="1.42315">
        <ele>189.51477</ele>
        <time>2023-01-04T09:15:36.267Z</time>
      </trkpt>
      <trkpt lat="43.58868" lon="1.42326">
        <ele>189.675093</ele>
        <time>2023-01-04T09:15:38.249Z</time>
      </trkpt>
      <trkpt lat="43.5886" lon="1.42338">
        <ele>189.838324</ele>
        <time>2023-01-04T09:15:40.256Z</time>
      </trkpt>
      <trkpt lat="43.58853" lon="1.42349">
        <ele>189.996936</ele>
        <time>2023-01-04T09:15:42.261Z</time>
      </trkpt>
      <trkpt lat="43.58844" lon="1.4236">
        <ele>190.169563</ele>
        <time>2023-01-04T09:15:44.264Z</time>
      </trkpt>
      <trkpt lat="43.58837" lon="1.42372">
        <ele>190.319306</ele>
        <time>2023-01-04T09:15:46.265Z</time>
      </trkpt>
      <trkpt lat="43.5883" lon="1.42381">
        <ele>190.460938</ele>
        <time>2023-01-04T09:15:48.253Z</time>
      </trkpt>
      <trkpt lat="43.58824" lon="1.42392">
        <ele>190.596088</ele>
        <time>2023-01-04T09:15:50.262Z</time>
      </trkpt>
      <trkpt lat="43.58818" lon="1.42402">
        <ele>190.731622</ele>
        <time>2023-01-04T09:15:52.269Z</time>
      </trkpt>
      <trkpt lat="43.58809" lon="1.42414">
        <ele>190.903909</ele>
        <time>2023-01-04T09:15:55.261Z</time>
      </trkpt>
      <trkpt lat="43.58802" lon="1.42424">
        <ele>191.047339</ele>
        <time>2023-01-04T09:15:58.265Z</time>
      </trkpt>
      <trkpt lat="43.58795" lon="1.42435">
        <ele>191.202533</ele>
        <time>2023-01-04T09:16:01.252Z</time>
      </trkpt>
      <trkpt lat="43.58788" lon="1.42447">
        <ele>191.355407</ele>
        <time>2023-01-04T09:16:04.264Z</time>
      </trkpt>
      <trkpt lat="43.58782" lon="1.42457">
        <ele>191.492786</ele>
        <time>2023-01-04T09:16:07.260Z</time>
      </trkpt>
      <trkpt lat="43.58775" lon="1.42467">
        <ele>191.629036</ele>
        <time>2023-01-04T09:16:10.268Z</time>
      </trkpt>
      <trkpt lat="43.58768" lon="1.42476">
        <ele>191.7657</ele>
        <time>2023-01-04T09:16:13.269Z</time>
      </trkpt>
      <trkpt lat="43.58761" lon="1.42486">
        <ele>191.906906</ele>
        <time>2023-01-04T09:16:16.270Z</time>
      </trkpt>
      <trkpt lat="43.58753" lon="1.42497">
        <ele>192.06063</ele>
        <time>2023-01-04T09:16:19.267Z</time>
      </trkpt>
      <trkpt lat="43.58746" lon="1.42508">
        <ele>192.200652</ele>
        <time>2023-01-04T09:16:22.268Z</time>
      </trkpt>
      <trkpt lat="43.58738" lon="1.42518">
        <ele>192.354376</ele>
        <time>2023-01-04T09:16:25.262Z</time>
      </trkpt>
      <trkpt lat="43.5873" lon="1.42528">
        <ele>192.503978</ele>
        <time>2023-01-04T09:16:28.267Z</time>
      </trkpt>
      <trkpt lat="43.58723" lon="1.42537">
        <ele>192.635459</ele>
        <time>2023-01-04T09:16:31.259Z</time>
      </trkpt>
      <trkpt lat="43.58716" lon="1.42547">
        <ele>192.776769</ele>
        <time>2023-01-04T09:16:34.269Z</time>
      </trkpt>
      <trkpt lat="43.58709" lon="1.42558">
        <ele>192.927602</ele>
        <time>2023-01-04T09:16:37.256Z</time>
      </trkpt>
      <trkpt lat="43.58702" lon="1.42569">
        <ele>193.074353</ele>
        <time>2023-01-04T09:16:40.249Z</time>
      </trkpt>
      <trkpt lat="43.58695" lon="1.42581">
        <ele>193.227488</ele>
        <time>2023-01-04T09:16:43.259Z</time>
      </trkpt>
      <trkpt lat="43.58688" lon="1.42592">
        <ele>193.368967</ele>
        <time>2023-01-04T09:16:46.273Z</time>
      </trkpt>
      <trkpt lat="43.58681" lon="1.42606">
        <ele>193.538792</ele>
        <time>2023-01-04T09:16:50.271Z</time>
      </trkpt>
      <trkpt lat="43.58674" lon="1.42617">
        <ele>193.685543</ele>
        <time>2023-01-04T09:16:53.262Z</time>
      </trkpt>
      <trkpt lat="43.58667" lon="1.42628">
        <ele>193.833058</ele>
        <time>2023-01-04T09:16:56.263Z</time>
      </trkpt>
      <trkpt lat="43.58661" lon="1.42638">
        <ele>193.966651</ele>
        <time>2023-01-04T09:16:59.294Z</time>
      </trkpt>
      <trkpt lat="43.58654" lon="1.42649">
        <ele>194.118985</ele>
        <time>2023-01-04T09:17:02.262Z</time>
      </trkpt>
      <trkpt lat="43.58647" lon="1.4266">
        <ele>194.285355</ele>
        <time>2023-01-04T09:17:05.259Z</time>
      </trkpt>
      <trkpt lat="43.5864" lon="1.42671">
        <ele>194.441117</ele>
        <time>2023-01-04T09:17:08.275Z</time>
      </trkpt>
      <trkpt lat="43.58632" lon="1.42682">
        <ele>194.616165</ele>
        <time>2023-01-04T09:17:11.275Z</time>
      </trkpt>
      <trkpt lat="43.58625" lon="1.42692">
        <ele>194.769046</ele>
        <time>2023-01-04T09:17:14.262Z</time>
      </trkpt>
      <trkpt lat="43.58619" lon="1.42702">
        <ele>194.913226</ele>
        <time>2023-01-04T09:17:17.257Z</time>
      </trkpt>
      <trkpt lat="43.58612" lon="1.42711">
        <ele>195.05665</ele>
        <time>2023-01-04T09:17:20.260Z</time>
      </trkpt>
      <trkpt lat="43.58606" lon="1.42722">
        <ele>195.209969</ele>
        <time>2023-01-04T09:17:23.256Z</time>
      </trkpt>
      <trkpt lat="43.58599" lon="1.42732">
        <ele>195.358354</ele>
        <time>2023-01-04T09:17:26.270Z</time>
      </trkpt>
      <trkpt lat="43.58591" lon="1.42743">
        <ele>195.525478</ele>
        <time>2023-01-04T09:17:30.263Z</time>
      </trkpt>
      <trkpt lat="43.58586" lon="1.42754">
        <ele>195.669633</ele>
        <time>2023-01-04T09:17:37.253Z</time>
      </trkpt>
      <trkpt lat="43.58578" lon="1.42767">
        <ele>195.86029</ele>
        <time>2023-01-04T09:17:41.261Z</time>
      </trkpt>
      <trkpt lat="43.58572" lon="1.42779">
        <ele>196.022966</ele>
        <time>2023-01-04T09:17:44.264Z</time>
      </trkpt>
      <trkpt lat="43.58565" lon="1.42792">
        <ele>196.200705</ele>
        <time>2023-01-04T09:17:47.272Z</time>
      </trkpt>
      <trkpt lat="43.58558" lon="1.42804">
        <ele>196.370539</ele>
        <time>2023-01-04T09:17:50.269Z</time>
      </trkpt>
      <trkpt lat="43.58552" lon="1.42817">
        <ele>196.542068</ele>
        <time>2023-01-04T09:17:54.264Z</time>
      </trkpt>
      <trkpt lat="43.58544" lon="1.42823">
        <ele>196.6834</ele>
        <time>2023-01-04T09:18:01.254Z</time>
      </trkpt>
      <trkpt lat="43.58534" lon="1.42816">
        <ele>196.825436</ele>
        <time>2023-01-04T09:18:11.268Z</time>
      </trkpt>
      <trkpt lat="43.58525" lon="1.42809">
        <ele>196.929908</ele>
        <time>2023-01-04T09:18:16.263Z</time>
      </trkpt>
      <trkpt lat="43.58516" lon="1.42802">
        <ele>197.030923</ele>
        <time>2023-01-04T09:18:20.264Z</time>
      </trkpt>
      <trkpt lat="43.58507" lon="1.42801">
        <ele>197.120997</ele>
        <time>2023-01-04T09:18:24.267Z</time>
      </trkpt>
      <trkpt lat="43.58494" lon="1.42816">
        <ele>197.291664</ele>
        <time>2023-01-04T09:20:10.256Z</time>
      </trkpt>
      <trkpt lat="43.58492" lon="1.42828">
        <ele>197.38156</ele>
        <time>2023-01-04T09:20:13.270Z</time>
      </trkpt>
      <trkpt lat="43.5849" lon="1.42843">
        <ele>197.490643</ele>
        <time>2023-01-04T09:20:17.258Z</time>
      </trkpt>
      <trkpt lat="43.58489" lon="1.42858">
        <ele>197.601225</ele>
        <time>2023-01-04T09:20:21.263Z</time>
      </trkpt>
      <trkpt lat="43.58487" lon="1.42871">
        <ele>197.695771</ele>
        <time>2023-01-04T09:20:24.249Z</time>
      </trkpt>
      <trkpt lat="43.58485" lon="1.42885">
        <ele>197.794751</ele>
        <time>2023-01-04T09:20:27.261Z</time>
      </trkpt>
      <trkpt lat="43.58483" lon="1.42898">
        <ele>197.891155</ele>
        <time>2023-01-04T09:20:30.249Z</time>
      </trkpt>
      <trkpt lat="43.58481" lon="1.42911">
        <ele>197.988959</ele>
        <time>2023-01-04T09:20:33.262Z</time>
      </trkpt>
      <trkpt lat="43.58477" lon="1.42923">
        <ele>198.080739</ele>
        <time>2023-01-04T09:20:36.264Z</time>
      </trkpt>
      <trkpt lat="43.58475" lon="1.42935">
        <ele>198.173897</ele>
        <time>2023-01-04T09:20:39.248Z</time>
      </trkpt>
      <trkpt lat="43.58473" lon="1.42949">
        <ele>198.276891</ele>
        <time>2023-01-04T09:20:42.255Z</time>
      </trkpt>
      <trkpt lat="43.58471" lon="1.42964">
        <ele>198.383416</ele>
        <time>2023-01-04T09:20:45.257Z</time>
      </trkpt>
      <trkpt lat="43.58468" lon="1.42978">
        <ele>198.492424</ele>
        <time>2023-01-04T09:20:48.260Z</time>
      </trkpt>
      <trkpt lat="43.58466" lon="1.42993">
        <ele>198.539266</ele>
        <time>2023-01-04T09:20:51.251Z</time>
      </trkpt>
      <trkpt lat="43.58464" lon="1.43008">
        <ele>198.390004</ele>
        <time>2023-01-04T09:20:54.259Z</time>
      </trkpt>
      <trkpt lat="43.58462" lon="1.43023">
        <ele>198.243791</ele>
        <time>2023-01-04T09:20:57.258Z</time>
      </trkpt>
      <trkpt lat="43.58459" lon="1.43038">
        <ele>198.09825</ele>
        <time>2023-01-04T09:21:00.249Z</time>
      </trkpt>
      <trkpt lat="43.58457" lon="1.4305">
        <ele>197.976253</ele>
        <time>2023-01-04T09:21:03.252Z</time>
      </trkpt>
      <trkpt lat="43.58455" lon="1.43063">
        <ele>197.848857</ele>
        <time>2023-01-04T09:21:06.257Z</time>
      </trkpt>
      <trkpt lat="43.58453" lon="1.43076">
        <ele>197.716832</ele>
        <time>2023-01-04T09:21:09.253Z</time>
      </trkpt>
      <trkpt lat="43.58451" lon="1.43089">
        <ele>197.59202</ele>
        <time>2023-01-04T09:21:12.271Z</time>
      </trkpt>
      <trkpt lat="43.58449" lon="1.43102">
        <ele>197.459691</ele>
        <time>2023-01-04T09:21:16.248Z</time>
      </trkpt>
      <trkpt lat="43.58446" lon="1.43115">
        <ele>197.331393</ele>
        <time>2023-01-04T09:21:21.264Z</time>
      </trkpt>
      <trkpt lat="43.58444" lon="1.43128">
        <ele>197.201405</ele>
        <time>2023-01-04T09:21:25.255Z</time>
      </trkpt>
      <trkpt lat="43.58437" lon="1.43149">
        <ele>196.975403</ele>
        <time>2023-01-04T09:22:38.260Z</time>
      </trkpt>
      <trkpt lat="43.58427" lon="1.43151">
        <ele>196.847291</ele>
        <time>2023-01-04T09:22:42.263Z</time>
      </trkpt>
      <trkpt lat="43.58418" lon="1.43147">
        <ele>196.720671</ele>
        <time>2023-01-04T09:22:45.268Z</time>
      </trkpt>
      <trkpt lat="43.58408" lon="1.43142">
        <ele>196.570499</ele>
        <time>2023-01-04T09:22:48.251Z</time>
      </trkpt>
      <trkpt lat="43.58397" lon="1.43135">
        <ele>196.408982</ele>
        <time>2023-01-04T09:22:51.254Z</time>
      </trkpt>
      <trkpt lat="43.58388" lon="1.43125">
        <ele>196.258879</ele>
        <time>2023-01-04T09:22:54.255Z</time>
      </trkpt>
      <trkpt lat="43.58382" lon="1.43112">
        <ele>196.135933</ele>
        <time>2023-01-04T09:22:58.254Z</time>
      </trkpt>
      <trkpt lat="43.58391" lon="1.43108">
        <ele>196.065852</ele>
        <time>2023-01-04T09:23:16.262Z</time>
      </trkpt>
      <trkpt lat="43.58399" lon="1.43114">
        <ele>195.999285</ele>
        <time>2023-01-04T09:23:19.254Z</time>
      </trkpt>
      <trkpt lat="43.58406" lon="1.43122">
        <ele>195.932945</ele>
        <time>2023-01-04T09:23:22.256Z</time>
      </trkpt>
      <trkpt lat="43.58413" lon="1.43131">
        <ele>195.866149</ele>
        <time>2023-01-04T09:23:53.079Z</time>
      </trkpt>
      <trkpt lat="43.58414" lon="1.43131">
        <ele>195.859534</ele>
        <time>2023-01-04T09:40:40.944Z</time>
      </trkpt>
      <trkpt lat="43.58403" lon="1.43121">
        <ele>195.762199</ele>
        <time>2023-01-04T09:42:09.032Z</time>
      </trkpt>
      <trkpt lat="43.58393" lon="1.43115">
        <ele>195.686399</ele>
        <time>2023-01-04T09:42:12.027Z</time>
      </trkpt>
      <trkpt lat="43.58385" lon="1.43108">
        <ele>195.61967</ele>
        <time>2023-01-04T09:42:15.024Z</time>
      </trkpt>
      <trkpt lat="43.58384" lon="1.43094">
        <ele>195.541542</ele>
        <time>2023-01-04T09:42:19.030Z</time>
      </trkpt>
      <trkpt lat="43.58388" lon="1.43082">
        <ele>195.470186</ele>
        <time>2023-01-04T09:42:22.026Z</time>
      </trkpt>
      <trkpt lat="43.58392" lon="1.43071">
        <ele>195.404832</ele>
        <time>2023-01-04T09:42:25.035Z</time>
      </trkpt>
      <trkpt lat="43.58391" lon="1.43057">
        <ele>195.330033</ele>
        <time>2023-01-04T09:42:30.033Z</time>
      </trkpt>
      <trkpt lat="43.58381" lon="1.43053">
        <ele>195.254137</ele>
        <time>2023-01-04T09:42:34.027Z</time>
      </trkpt>
      <trkpt lat="43.58371" lon="1.43063">
        <ele>195.170506</ele>
        <time>2023-01-04T09:42:38.029Z</time>
      </trkpt>
      <trkpt lat="43.58368" lon="1.43078">
        <ele>195.086228</ele>
        <time>2023-01-04T09:42:42.023Z</time>
      </trkpt>
      <trkpt lat="43.58367" lon="1.43091">
        <ele>195.016231</ele>
        <time>2023-01-04T09:42:45.053Z</time>
      </trkpt>
      <trkpt lat="43.58371" lon="1.43104">
        <ele>194.944064</ele>
        <time>2023-01-04T09:42:48.031Z</time>
      </trkpt>
      <trkpt lat="43.58376" lon="1.43119">
        <ele>194.891158</ele>
        <time>2023-01-04T09:42:52.028Z</time>
      </trkpt>
      <trkpt lat="43.58382" lon="1.43132">
        <ele>195.117273</ele>
        <time>2023-01-04T09:42:56.031Z</time>
      </trkpt>
      <trkpt lat="43.58389" lon="1.43143">
        <ele>195.328259</ele>
        <time>2023-01-04T09:43:00.041Z</time>
      </trkpt>
      <trkpt lat="43.58398" lon="1.43149">
        <ele>195.530523</ele>
        <time>2023-01-04T09:43:04.026Z</time>
      </trkpt>
      <trkpt lat="43.58407" lon="1.43154">
        <ele>195.730342</ele>
        <time>2023-01-04T09:43:08.028Z</time>
      </trkpt>
      <trkpt lat="43.58417" lon="1.43159">
        <ele>195.932261</ele>
        <time>2023-01-04T09:43:12.026Z</time>
      </trkpt>
      <trkpt lat="43.58427" lon="1.43163">
        <ele>196.139778</ele>
        <time>2023-01-04T09:43:17.048Z</time>
      </trkpt>
      <trkpt lat="43.58435" lon="1.43167">
        <ele>196.320739</ele>
        <time>2023-01-04T09:43:21.036Z</time>
      </trkpt>
      <trkpt lat="43.5844" lon="1.43179">
        <ele>196.515969</ele>
        <time>2023-01-04T09:43:25.027Z</time>
      </trkpt>
      <trkpt lat="43.58439" lon="1.43194">
        <ele>196.732947</ele>
        <time>2023-01-04T09:43:29.027Z</time>
      </trkpt>
      <trkpt lat="43.58437" lon="1.4321">
        <ele>196.966021</ele>
        <time>2023-01-04T09:43:33.026Z</time>
      </trkpt>
      <trkpt lat="43.58436" lon="1.43222">
        <ele>197.152741</ele>
        <time>2023-01-04T09:43:36.032Z</time>
      </trkpt>
      <trkpt lat="43.58436" lon="1.43239">
        <ele>197.389482</ele>
        <time>2023-01-04T09:43:40.033Z</time>
      </trkpt>
      <trkpt lat="43.58435" lon="1.43252">
        <ele>197.578499</ele>
        <time>2023-01-04T09:43:43.025Z</time>
      </trkpt>
      <trkpt lat="43.58435" lon="1.43266">
        <ele>197.782016</ele>
        <time>2023-01-04T09:43:46.035Z</time>
      </trkpt>
      <trkpt lat="43.58434" lon="1.43281">
        <ele>198.000726</ele>
        <time>2023-01-04T09:43:49.038Z</time>
      </trkpt>
      <trkpt lat="43.58433" lon="1.43296">
        <ele>198.227056</ele>
        <time>2023-01-04T09:43:52.031Z</time>
      </trkpt>
      <trkpt lat="43.58432" lon="1.43312">
        <ele>198.460065</ele>
        <time>2023-01-04T09:43:55.032Z</time>
      </trkpt>
      <trkpt lat="43.58431" lon="1.43329">
        <ele>198.477594</ele>
        <time>2023-01-04T09:43:58.039Z</time>
      </trkpt>
      <trkpt lat="43.5843" lon="1.43345">
        <ele>198.483562</ele>
        <time>2023-01-04T09:44:01.034Z</time>
      </trkpt>
      <trkpt lat="43.5843" lon="1.43358">
        <ele>198.488742</ele>
        <time>2023-01-04T09:44:04.028Z</time>
      </trkpt>
      <trkpt lat="43.58429" lon="1.43372">
        <ele>198.493814</ele>
        <time>2023-01-04T09:44:07.029Z</time>
      </trkpt>
      <trkpt lat="43.58428" lon="1.43387">
        <ele>198.499524</ele>
        <time>2023-01-04T09:44:10.023Z</time>
      </trkpt>
      <trkpt lat="43.58427" lon="1.43404">
        <ele>198.505802</ele>
        <time>2023-01-04T09:44:13.051Z</time>
      </trkpt>
      <trkpt lat="43.58427" lon="1.43421">
        <ele>198.512182</ele>
        <time>2023-01-04T09:44:16.037Z</time>
      </trkpt>
      <trkpt lat="43.58425" lon="1.43438">
        <ele>198.518577</ele>
        <time>2023-01-04T09:44:19.039Z</time>
      </trkpt>
      <trkpt lat="43.58425" lon="1.43455">
        <ele>198.525032</ele>
        <time>2023-01-04T09:44:22.039Z</time>
      </trkpt>
      <trkpt lat="43.58424" lon="1.43472">
        <ele>198.531418</ele>
        <time>2023-01-04T09:44:25.023Z</time>
      </trkpt>
      <trkpt lat="43.58423" lon="1.4349">
        <ele>198.53802</ele>
        <time>2023-01-04T09:44:28.042Z</time>
      </trkpt>
      <trkpt lat="43.58422" lon="1.43507">
        <ele>198.544523</ele>
        <time>2023-01-04T09:44:31.050Z</time>
      </trkpt>
      <trkpt lat="43.58422" lon="1.43522">
        <ele>198.550264</ele>
        <time>2023-01-04T09:44:34.051Z</time>
      </trkpt>
      <trkpt lat="43.58421" lon="1.43537">
        <ele>198.555698</ele>
        <time>2023-01-04T09:44:37.033Z</time>
      </trkpt>
      <trkpt lat="43.58421" lon="1.43552">
        <ele>198.561514</ele>
        <time>2023-01-04T09:44:40.057Z</time>
      </trkpt>
      <trkpt lat="43.5842" lon="1.43569">
        <ele>198.555067</ele>
        <time>2023-01-04T09:44:43.024Z</time>
      </trkpt>
      <trkpt lat="43.58419" lon="1.43586">
        <ele>198.535401</ele>
        <time>2023-01-04T09:44:46.025Z</time>
      </trkpt>
      <trkpt lat="43.58419" lon="1.43603">
        <ele>198.516222</ele>
        <time>2023-01-04T09:44:49.047Z</time>
      </trkpt>
      <trkpt lat="43.58418" lon="1.43618">
        <ele>198.498707</ele>
        <time>2023-01-04T09:44:52.040Z</time>
      </trkpt>
      <trkpt lat="43.58417" lon="1.43632">
        <ele>198.482949</ele>
        <time>2023-01-04T09:44:55.042Z</time>
      </trkpt>
      <trkpt lat="43.58417" lon="1.43646">
        <ele>198.466936</ele>
        <time>2023-01-04T09:44:58.047Z</time>
      </trkpt>
      <trkpt lat="43.58416" lon="1.4366">
        <ele>198.451225</ele>
        <time>2023-01-04T09:45:01.067Z</time>
      </trkpt>
      <trkpt lat="43.58415" lon="1.43672">
        <ele>198.437021</ele>
        <time>2023-01-04T09:45:04.044Z</time>
      </trkpt>
      <trkpt lat="43.58413" lon="1.43688">
        <ele>198.418931</ele>
        <time>2023-01-04T09:45:08.046Z</time>
      </trkpt>
      <trkpt lat="43.58412" lon="1.43704">
        <ele>198.401144</ele>
        <time>2023-01-04T09:45:12.041Z</time>
      </trkpt>
      <trkpt lat="43.58412" lon="1.43716">
        <ele>198.386988</ele>
        <time>2023-01-04T09:45:15.047Z</time>
      </trkpt>
      <trkpt lat="43.58412" lon="1.43729">
        <ele>198.372269</ele>
        <time>2023-01-04T09:45:18.043Z</time>
      </trkpt>
      <trkpt lat="43.58412" lon="1.43744">
        <ele>198.355256</ele>
        <time>2023-01-04T09:45:22.045Z</time>
      </trkpt>
      <trkpt lat="43.58412" lon="1.43757">
        <ele>198.339738</ele>
        <time>2023-01-04T09:45:25.040Z</time>
      </trkpt>
      <trkpt lat="43.58411" lon="1.43773">
        <ele>198.321562</ele>
        <time>2023-01-04T09:45:28.037Z</time>
      </trkpt>
      <trkpt lat="43.58411" lon="1.4379">
        <ele>198.302569</ele>
        <time>2023-01-04T09:45:31.050Z</time>
      </trkpt>
      <trkpt lat="43.5841" lon="1.43807">
        <ele>198.28312</ele>
        <time>2023-01-04T09:45:34.056Z</time>
      </trkpt>
      <trkpt lat="43.58409" lon="1.43823">
        <ele>198.376707</ele>
        <time>2023-01-04T09:45:37.027Z</time>
      </trkpt>
      <trkpt lat="43.58409" lon="1.43839">
        <ele>198.473348</ele>
        <time>2023-01-04T09:45:40.048Z</time>
      </trkpt>
      <trkpt lat="43.58408" lon="1.43852">
        <ele>198.560021</ele>
        <time>2023-01-04T09:45:43.045Z</time>
      </trkpt>
      <trkpt lat="43.58408" lon="1.43865">
        <ele>198.643371</ele>
        <time>2023-01-04T09:45:46.029Z</time>
      </trkpt>
      <trkpt lat="43.58407" lon="1.43879">
        <ele>198.729637</ele>
        <time>2023-01-04T09:45:49.044Z</time>
      </trkpt>
      <trkpt lat="43.58406" lon="1.43895">
        <ele>198.832438</ele>
        <time>2023-01-04T09:45:53.044Z</time>
      </trkpt>
      <trkpt lat="43.58405" lon="1.43909">
        <ele>198.923411</ele>
        <time>2023-01-04T09:45:57.049Z</time>
      </trkpt>
      <trkpt lat="43.58404" lon="1.43942">
        <ele>199.134819</ele>
        <time>2023-01-04T09:47:12.055Z</time>
      </trkpt>
      <trkpt lat="43.58403" lon="1.43959">
        <ele>199.239519</ele>
        <time>2023-01-04T09:47:16.036Z</time>
      </trkpt>
      <trkpt lat="43.58403" lon="1.43971">
        <ele>199.318981</ele>
        <time>2023-01-04T09:47:20.030Z</time>
      </trkpt>
      <trkpt lat="43.58402" lon="1.43985">
        <ele>199.407337</ele>
        <time>2023-01-04T09:47:24.052Z</time>
      </trkpt>
      <trkpt lat="43.58402" lon="1.44">
        <ele>199.499517</ele>
        <time>2023-01-04T09:47:28.033Z</time>
      </trkpt>
      <trkpt lat="43.58402" lon="1.44013">
        <ele>199.582232</ele>
        <time>2023-01-04T09:47:31.031Z</time>
      </trkpt>
      <trkpt lat="43.58401" lon="1.44027">
        <ele>199.673978</ele>
        <time>2023-01-04T09:47:34.037Z</time>
      </trkpt>
      <trkpt lat="43.584" lon="1.44043">
        <ele>199.776327</ele>
        <time>2023-01-04T09:47:37.023Z</time>
      </trkpt>
      <trkpt lat="43.58399" lon="1.44056">
        <ele>199.857541</ele>
        <time>2023-01-04T09:47:40.030Z</time>
      </trkpt>
      <trkpt lat="43.58398" lon="1.44069">
        <ele>199.79142</ele>
        <time>2023-01-04T09:47:43.036Z</time>
      </trkpt>
      <trkpt lat="43.58398" lon="1.44085">
        <ele>199.706863</ele>
        <time>2023-01-04T09:47:47.036Z</time>
      </trkpt>
      <trkpt lat="43.58398" lon="1.44101">
        <ele>199.626352</ele>
        <time>2023-01-04T09:47:51.035Z</time>
      </trkpt>
      <trkpt lat="43.58397" lon="1.44117">
        <ele>199.541698</ele>
        <time>2023-01-04T09:47:55.029Z</time>
      </trkpt>
      <trkpt lat="43.58397" lon="1.44132">
        <ele>199.464813</ele>
        <time>2023-01-04T09:47:59.024Z</time>
      </trkpt>
      <trkpt lat="43.58396" lon="1.44148">
        <ele>199.383066</ele>
        <time>2023-01-04T09:48:03.027Z</time>
      </trkpt>
      <trkpt lat="43.58395" lon="1.44162">
        <ele>199.310615</ele>
        <time>2023-01-04T09:48:08.058Z</time>
      </trkpt>
      <trkpt lat="43.58394" lon="1.44177">
        <ele>199.229131</ele>
        <time>2023-01-04T09:48:12.050Z</time>
      </trkpt>
      <trkpt lat="43.58393" lon="1.44191">
        <ele>199.155714</ele>
        <time>2023-01-04T09:48:15.052Z</time>
      </trkpt>
      <trkpt lat="43.58392" lon="1.44206">
        <ele>199.081322</ele>
        <time>2023-01-04T09:48:18.047Z</time>
      </trkpt>
      <trkpt lat="43.58392" lon="1.44218">
        <ele>199.016234</ele>
        <time>2023-01-04T09:48:21.032Z</time>
      </trkpt>
      <trkpt lat="43.58391" lon="1.44234">
        <ele>198.936795</ele>
        <time>2023-01-04T09:48:25.055Z</time>
      </trkpt>
      <trkpt lat="43.58391" lon="1.44248">
        <ele>198.864123</ele>
        <time>2023-01-04T09:48:30.026Z</time>
      </trkpt>
      <trkpt lat="43.58389" lon="1.44262">
        <ele>198.788249</ele>
        <time>2023-01-04T09:48:35.027Z</time>
      </trkpt>
      <trkpt lat="43.58389" lon="1.44278">
        <ele>198.70785</ele>
        <time>2023-01-04T09:48:39.037Z</time>
      </trkpt>
      <trkpt lat="43.58389" lon="1.44292">
        <ele>198.631957</ele>
        <time>2023-01-04T09:48:42.031Z</time>
      </trkpt>
      <trkpt lat="43.58388" lon="1.44307">
        <ele>198.557623</ele>
        <time>2023-01-04T09:48:45.034Z</time>
      </trkpt>
      <trkpt lat="43.58388" lon="1.44322">
        <ele>198.492994</ele>
        <time>2023-01-04T09:48:48.028Z</time>
      </trkpt>
      <trkpt lat="43.58386" lon="1.44336">
        <ele>198.426802</ele>
        <time>2023-01-04T09:48:51.036Z</time>
      </trkpt>
      <trkpt lat="43.58385" lon="1.44352">
        <ele>198.356964</ele>
        <time>2023-01-04T09:48:54.039Z</time>
      </trkpt>
      <trkpt lat="43.58385" lon="1.44365">
        <ele>198.299871</ele>
        <time>2023-01-04T09:48:57.038Z</time>
      </trkpt>
      <trkpt lat="43.58387" lon="1.4438">
        <ele>198.232351</ele>
        <time>2023-01-04T09:49:02.029Z</time>
      </trkpt>
      <trkpt lat="43.58388" lon="1.44393">
        <ele>198.174574</ele>
        <time>2023-01-04T09:49:06.038Z</time>
      </trkpt>
      <trkpt lat="43.58387" lon="1.44406">
        <ele>198.117886</ele>
        <time>2023-01-04T09:49:09.038Z</time>
      </trkpt>
      <trkpt lat="43.58389" lon="1.4442">
        <ele>198.052651</ele>
        <time>2023-01-04T09:49:12.035Z</time>
      </trkpt>
      <trkpt lat="43.58392" lon="1.44436">
        <ele>197.981159</ele>
        <time>2023-01-04T09:49:15.025Z</time>
      </trkpt>
      <trkpt lat="43.58394" lon="1.44451">
        <ele>197.913753</ele>
        <time>2023-01-04T09:49:18.046Z</time>
      </trkpt>
      <trkpt lat="43.58396" lon="1.44466">
        <ele>197.847101</ele>
        <time>2023-01-04T09:49:21.039Z</time>
      </trkpt>
      <trkpt lat="43.58398" lon="1.44481">
        <ele>197.779802</ele>
        <time>2023-01-04T09:49:24.033Z</time>
      </trkpt>
      <trkpt lat="43.584" lon="1.44496">
        <ele>197.709732</ele>
        <time>2023-01-04T09:49:27.040Z</time>
      </trkpt>
      <trkpt lat="43.58402" lon="1.44511">
        <ele>197.643826</ele>
        <time>2023-01-04T09:49:31.049Z</time>
      </trkpt>
      <trkpt lat="43.58404" lon="1.44524">
        <ele>197.585971</ele>
        <time>2023-01-04T09:49:34.034Z</time>
      </trkpt>
      <trkpt lat="43.58405" lon="1.44537">
        <ele>197.527554</ele>
        <time>2023-01-04T09:49:37.048Z</time>
      </trkpt>
      <trkpt lat="43.58406" lon="1.44553">
        <ele>197.461095</ele>
        <time>2023-01-04T09:49:41.025Z</time>
      </trkpt>
      <trkpt lat="43.58409" lon="1.44567">
        <ele>197.409141</ele>
        <time>2023-01-04T09:49:44.029Z</time>
      </trkpt>
      <trkpt lat="43.58411" lon="1.44579">
        <ele>197.362776</ele>
        <time>2023-01-04T09:49:47.029Z</time>
      </trkpt>
      <trkpt lat="43.58414" lon="1.44595">
        <ele>197.30318</ele>
        <time>2023-01-04T09:49:51.039Z</time>
      </trkpt>
      <trkpt lat="43.58416" lon="1.44608">
        <ele>197.255465</ele>
        <time>2023-01-04T09:49:54.040Z</time>
      </trkpt>
      <trkpt lat="43.58418" lon="1.44621">
        <ele>197.206604</ele>
        <time>2023-01-04T09:49:57.043Z</time>
      </trkpt>
      <trkpt lat="43.5842" lon="1.44636">
        <ele>197.153746</ele>
        <time>2023-01-04T09:50:00.027Z</time>
      </trkpt>
      <trkpt lat="43.58421" lon="1.44653">
        <ele>197.093063</ele>
        <time>2023-01-04T09:50:03.026Z</time>
      </trkpt>
      <trkpt lat="43.58423" lon="1.44668">
        <ele>197.037745</ele>
        <time>2023-01-04T09:50:06.054Z</time>
      </trkpt>
      <trkpt lat="43.58425" lon="1.44683">
        <ele>196.982677</ele>
        <time>2023-01-04T09:50:09.038Z</time>
      </trkpt>
      <trkpt lat="43.58427" lon="1.44698">
        <ele>196.929358</ele>
        <time>2023-01-04T09:50:12.038Z</time>
      </trkpt>
      <trkpt lat="43.58428" lon="1.44712">
        <ele>196.875684</ele>
        <time>2023-01-04T09:50:15.053Z</time>
      </trkpt>
      <trkpt lat="43.5843" lon="1.44726">
        <ele>196.825406</ele>
        <time>2023-01-04T09:50:18.037Z</time>
      </trkpt>
      <trkpt lat="43.58431" lon="1.44739">
        <ele>196.778202</ele>
        <time>2023-01-04T09:50:21.035Z</time>
      </trkpt>
      <trkpt lat="43.58433" lon="1.44752">
        <ele>196.732964</ele>
        <time>2023-01-04T09:50:24.054Z</time>
      </trkpt>
      <trkpt lat="43.58434" lon="1.44765">
        <ele>196.683922</ele>
        <time>2023-01-04T09:50:27.039Z</time>
      </trkpt>
      <trkpt lat="43.58434" lon="1.4478">
        <ele>196.630386</ele>
        <time>2023-01-04T09:50:30.057Z</time>
      </trkpt>
      <trkpt lat="43.58431" lon="1.44795">
        <ele>196.570126</ele>
        <time>2023-01-04T09:50:33.051Z</time>
      </trkpt>
      <trkpt lat="43.58428" lon="1.4481">
        <ele>196.472895</ele>
        <time>2023-01-04T09:50:36.033Z</time>
      </trkpt>
      <trkpt lat="43.58426" lon="1.44826">
        <ele>196.372754</ele>
        <time>2023-01-04T09:50:39.034Z</time>
      </trkpt>
      <trkpt lat="43.58424" lon="1.44842">
        <ele>196.271697</ele>
        <time>2023-01-04T09:50:42.036Z</time>
      </trkpt>
      <trkpt lat="43.58421" lon="1.44855">
        <ele>196.182695</ele>
        <time>2023-01-04T09:50:44.028Z</time>
      </trkpt>
      <trkpt lat="43.58418" lon="1.44873">
        <ele>196.068749</ele>
        <time>2023-01-04T09:50:47.038Z</time>
      </trkpt>
      <trkpt lat="43.58414" lon="1.4489">
        <ele>195.960986</ele>
        <time>2023-01-04T09:50:50.028Z</time>
      </trkpt>
      <trkpt lat="43.5841" lon="1.44907">
        <ele>195.847748</ele>
        <time>2023-01-04T09:50:53.035Z</time>
      </trkpt>
      <trkpt lat="43.58405" lon="1.44924">
        <ele>195.732647</ele>
        <time>2023-01-04T09:50:56.032Z</time>
      </trkpt>
      <trkpt lat="43.58402" lon="1.44936">
        <ele>195.652534</ele>
        <time>2023-01-04T09:50:58.027Z</time>
      </trkpt>
      <trkpt lat="43.58398" lon="1.44948">
        <ele>195.57136</ele>
        <time>2023-01-04T09:51:00.038Z</time>
      </trkpt>
      <trkpt lat="43.58395" lon="1.44961">
        <ele>195.488529</ele>
        <time>2023-01-04T09:51:02.026Z</time>
      </trkpt>
      <trkpt lat="43.58391" lon="1.44973">
        <ele>195.403955</ele>
        <time>2023-01-04T09:51:04.036Z</time>
      </trkpt>
      <trkpt lat="43.58387" lon="1.44986">
        <ele>195.318098</ele>
        <time>2023-01-04T09:51:06.026Z</time>
      </trkpt>
      <trkpt lat="43.58383" lon="1.44998">
        <ele>195.237572</ele>
        <time>2023-01-04T09:51:08.047Z</time>
      </trkpt>
      <trkpt lat="43.5838" lon="1.4501">
        <ele>195.155055</ele>
        <time>2023-01-04T09:51:10.033Z</time>
      </trkpt>
      <trkpt lat="43.58375" lon="1.45026">
        <ele>195.044417</ele>
        <time>2023-01-04T09:51:13.037Z</time>
      </trkpt>
      <trkpt lat="43.58371" lon="1.45037">
        <ele>194.993058</ele>
        <time>2023-01-04T09:51:15.032Z</time>
      </trkpt>
      <trkpt lat="43.58367" lon="1.45053">
        <ele>194.9284</ele>
        <time>2023-01-04T09:51:18.030Z</time>
      </trkpt>
      <trkpt lat="43.58365" lon="1.45069">
        <ele>194.866726</ele>
        <time>2023-01-04T09:51:21.033Z</time>
      </trkpt>
      <trkpt lat="43.58366" lon="1.45085">
        <ele>194.803676</ele>
        <time>2023-01-04T09:51:24.023Z</time>
      </trkpt>
      <trkpt lat="43.58371" lon="1.45099">
        <ele>194.740943</ele>
        <time>2023-01-04T09:51:27.037Z</time>
      </trkpt>
      <trkpt lat="43.58379" lon="1.45114">
        <ele>194.6692</ele>
        <time>2023-01-04T09:51:30.037Z</time>
      </trkpt>
      <trkpt lat="43.58386" lon="1.45129">
        <ele>194.600404</ele>
        <time>2023-01-04T09:51:33.057Z</time>
      </trkpt>
      <trkpt lat="43.58391" lon="1.4514">
        <ele>194.551838</ele>
        <time>2023-01-04T09:51:35.039Z</time>
      </trkpt>
      <trkpt lat="43.58395" lon="1.45151">
        <ele>194.50284</ele>
        <time>2023-01-04T09:51:37.056Z</time>
      </trkpt>
      <trkpt lat="43.584" lon="1.45161">
        <ele>194.453744</ele>
        <time>2023-01-04T09:51:39.059Z</time>
      </trkpt>
      <trkpt lat="43.58404" lon="1.45174">
        <ele>194.401317</ele>
        <time>2023-01-04T09:51:42.041Z</time>
      </trkpt>
      <trkpt lat="43.5841" lon="1.45187">
        <ele>194.340114</ele>
        <time>2023-01-04T09:51:45.057Z</time>
      </trkpt>
      <trkpt lat="43.58416" lon="1.45201">
        <ele>194.278341</ele>
        <time>2023-01-04T09:51:48.025Z</time>
      </trkpt>
      <trkpt lat="43.58423" lon="1.45215">
        <ele>194.212465</ele>
        <time>2023-01-04T09:51:51.037Z</time>
      </trkpt>
      <trkpt lat="43.58428" lon="1.45229">
        <ele>194.150072</ele>
        <time>2023-01-04T09:51:54.046Z</time>
      </trkpt>
      <trkpt lat="43.58433" lon="1.45241">
        <ele>194.096293</ele>
        <time>2023-01-04T09:51:56.051Z</time>
      </trkpt>
      <trkpt lat="43.5844" lon="1.45257">
        <ele>194.015693</ele>
        <time>2023-01-04T09:51:59.052Z</time>
      </trkpt>
      <trkpt lat="43.58444" lon="1.45268">
        <ele>193.95571</ele>
        <time>2023-01-04T09:52:01.050Z</time>
      </trkpt>
      <trkpt lat="43.5845" lon="1.45284">
        <ele>193.873368</ele>
        <time>2023-01-04T09:52:04.040Z</time>
      </trkpt>
      <trkpt lat="43.58456" lon="1.45299">
        <ele>193.796247</ele>
        <time>2023-01-04T09:52:07.030Z</time>
      </trkpt>
      <trkpt lat="43.58461" lon="1.4531">
        <ele>193.734934</ele>
        <time>2023-01-04T09:52:09.036Z</time>
      </trkpt>
      <trkpt lat="43.58465" lon="1.45322">
        <ele>193.67161</ele>
        <time>2023-01-04T09:52:11.035Z</time>
      </trkpt>
      <trkpt lat="43.58471" lon="1.45334">
        <ele>193.610119</ele>
        <time>2023-01-04T09:52:13.030Z</time>
      </trkpt>
      <trkpt lat="43.58476" lon="1.45345">
        <ele>193.548657</ele>
        <time>2023-01-04T09:52:15.035Z</time>
      </trkpt>
      <trkpt lat="43.58481" lon="1.45356">
        <ele>193.489105</ele>
        <time>2023-01-04T09:52:17.037Z</time>
      </trkpt>
      <trkpt lat="43.58485" lon="1.45367">
        <ele>193.431477</ele>
        <time>2023-01-04T09:52:19.040Z</time>
      </trkpt>
      <trkpt lat="43.58489" lon="1.45378">
        <ele>193.373255</ele>
        <time>2023-01-04T09:52:21.050Z</time>
      </trkpt>
      <trkpt lat="43.58496" lon="1.45392">
        <ele>193.294577</ele>
        <time>2023-01-04T09:52:24.052Z</time>
      </trkpt>
      <trkpt lat="43.58502" lon="1.45407">
        <ele>193.216767</ele>
        <time>2023-01-04T09:52:27.047Z</time>
      </trkpt>
      <trkpt lat="43.58508" lon="1.4542">
        <ele>193.143444</ele>
        <time>2023-01-04T09:52:30.045Z</time>
      </trkpt>
      <trkpt lat="43.58513" lon="1.45435">
        <ele>193.069018</ele>
        <time>2023-01-04T09:52:33.054Z</time>
      </trkpt>
      <trkpt lat="43.58519" lon="1.45451">
        <ele>192.984736</ele>
        <time>2023-01-04T09:52:36.056Z</time>
      </trkpt>
      <trkpt lat="43.58524" lon="1.45466">
        <ele>192.9419</ele>
        <time>2023-01-04T09:52:39.037Z</time>
      </trkpt>
      <trkpt lat="43.5853" lon="1.45481">
        <ele>193.041668</ele>
        <time>2023-01-04T09:52:42.057Z</time>
      </trkpt>
      <trkpt lat="43.58537" lon="1.45493">
        <ele>193.129038</ele>
        <time>2023-01-04T09:52:44.042Z</time>
      </trkpt>
      <trkpt lat="43.58542" lon="1.45504">
        <ele>193.205938</ele>
        <time>2023-01-04T09:52:46.034Z</time>
      </trkpt>
      <trkpt lat="43.58548" lon="1.45521">
        <ele>193.317817</ele>
        <time>2023-01-04T09:52:49.044Z</time>
      </trkpt>
      <trkpt lat="43.58553" lon="1.45533">
        <ele>193.395252</ele>
        <time>2023-01-04T09:52:51.040Z</time>
      </trkpt>
      <trkpt lat="43.58559" lon="1.45545">
        <ele>193.474994</ele>
        <time>2023-01-04T09:52:53.037Z</time>
      </trkpt>
      <trkpt lat="43.58564" lon="1.45556">
        <ele>193.552397</ele>
        <time>2023-01-04T09:52:55.029Z</time>
      </trkpt>
      <trkpt lat="43.58569" lon="1.45568">
        <ele>193.633182</ele>
        <time>2023-01-04T09:52:57.041Z</time>
      </trkpt>
      <trkpt lat="43.58576" lon="1.45585">
        <ele>193.746612</ele>
        <time>2023-01-04T09:53:00.037Z</time>
      </trkpt>
      <trkpt lat="43.58581" lon="1.45602">
        <ele>193.850478</ele>
        <time>2023-01-04T09:53:03.032Z</time>
      </trkpt>
      <trkpt lat="43.58588" lon="1.45617">
        <ele>193.952251</ele>
        <time>2023-01-04T09:53:06.032Z</time>
      </trkpt>
      <trkpt lat="43.58594" lon="1.45633">
        <ele>194.057308</ele>
        <time>2023-01-04T09:53:09.024Z</time>
      </trkpt>
      <trkpt lat="43.58601" lon="1.4565">
        <ele>194.16632</ele>
        <time>2023-01-04T09:53:12.030Z</time>
      </trkpt>
      <trkpt lat="43.58607" lon="1.45666">
        <ele>194.274547</ele>
        <time>2023-01-04T09:53:15.032Z</time>
      </trkpt>
      <trkpt lat="43.58612" lon="1.45682">
        <ele>194.370593</ele>
        <time>2023-01-04T09:53:18.036Z</time>
      </trkpt>
      <trkpt lat="43.58619" lon="1.45696">
        <ele>194.461362</ele>
        <time>2023-01-04T09:53:21.037Z</time>
      </trkpt>
      <trkpt lat="43.58624" lon="1.45707">
        <ele>194.528912</ele>
        <time>2023-01-04T09:53:23.033Z</time>
      </trkpt>
      <trkpt lat="43.5863" lon="1.45721">
        <ele>194.616792</ele>
        <time>2023-01-04T09:53:26.039Z</time>
      </trkpt>
      <trkpt lat="43.58637" lon="1.45736">
        <ele>194.710411</ele>
        <time>2023-01-04T09:53:30.030Z</time>
      </trkpt>
      <trkpt lat="43.58642" lon="1.4575">
        <ele>194.794737</ele>
        <time>2023-01-04T09:53:33.047Z</time>
      </trkpt>
      <trkpt lat="43.58648" lon="1.45764">
        <ele>194.879431</ele>
        <time>2023-01-04T09:53:36.031Z</time>
      </trkpt>
      <trkpt lat="43.58653" lon="1.45778">
        <ele>194.963756</ele>
        <time>2023-01-04T09:53:39.029Z</time>
      </trkpt>
      <trkpt lat="43.58659" lon="1.45792">
        <ele>195.051022</ele>
        <time>2023-01-04T09:53:42.031Z</time>
      </trkpt>
      <trkpt lat="43.58665" lon="1.45806">
        <ele>195.135936</ele>
        <time>2023-01-04T09:53:45.050Z</time>
      </trkpt>
      <trkpt lat="43.5867" lon="1.45818">
        <ele>195.208963</ele>
        <time>2023-01-04T09:53:48.049Z</time>
      </trkpt>
      <trkpt lat="43.58676" lon="1.45833">
        <ele>195.298288</ele>
        <time>2023-01-04T09:53:52.032Z</time>
      </trkpt>
      <trkpt lat="43.58682" lon="1.45845">
        <ele>195.37676</ele>
        <time>2023-01-04T09:53:55.030Z</time>
      </trkpt>
      <trkpt lat="43.58687" lon="1.45858">
        <ele>195.457135</ele>
        <time>2023-01-04T09:53:58.047Z</time>
      </trkpt>
      <trkpt lat="43.58693" lon="1.45873">
        <ele>195.548094</ele>
        <time>2023-01-04T09:54:01.058Z</time>
      </trkpt>
      <trkpt lat="43.587" lon="1.45888">
        <ele>195.641641</ele>
        <time>2023-01-04T09:54:04.027Z</time>
      </trkpt>
      <trkpt lat="43.58705" lon="1.45903">
        <ele>195.874556</ele>
        <time>2023-01-04T09:54:07.034Z</time>
      </trkpt>
      <trkpt lat="43.5871" lon="1.45917">
        <ele>196.160936</ele>
        <time>2023-01-04T09:54:10.036Z</time>
      </trkpt>
      <trkpt lat="43.58715" lon="1.4593">
        <ele>196.434711</ele>
        <time>2023-01-04T09:54:13.032Z</time>
      </trkpt>
      <trkpt lat="43.5872" lon="1.45941">
        <ele>196.668285</ele>
        <time>2023-01-04T09:54:16.048Z</time>
      </trkpt>
      <trkpt lat="43.58725" lon="1.45956">
        <ele>196.974939</ele>
        <time>2023-01-04T09:54:20.048Z</time>
      </trkpt>
      <trkpt lat="43.58731" lon="1.4597">
        <ele>197.281331</ele>
        <time>2023-01-04T09:54:24.049Z</time>
      </trkpt>
      <trkpt lat="43.58737" lon="1.45985">
        <ele>197.587884</ele>
        <time>2023-01-04T09:54:28.041Z</time>
      </trkpt>
      <trkpt lat="43.58743" lon="1.45998">
        <ele>197.889701</ele>
        <time>2023-01-04T09:54:32.056Z</time>
      </trkpt>
      <trkpt lat="43.58749" lon="1.46011">
        <ele>198.165217</ele>
        <time>2023-01-04T09:54:36.054Z</time>
      </trkpt>
      <trkpt lat="43.58753" lon="1.46022">
        <ele>198.400014</ele>
        <time>2023-01-04T09:54:40.030Z</time>
      </trkpt>
      <trkpt lat="43.58745" lon="1.46033">
        <ele>198.672404</ele>
        <time>2023-01-04T09:54:45.030Z</time>
      </trkpt>
      <trkpt lat="43.58733" lon="1.46035">
        <ele>198.983932</ele>
        <time>2023-01-04T09:54:49.038Z</time>
      </trkpt>
      <trkpt lat="43.58724" lon="1.46036">
        <ele>199.212798</ele>
        <time>2023-01-04T09:54:52.029Z</time>
      </trkpt>
      <trkpt lat="43.58713" lon="1.46041">
        <ele>199.515966</ele>
        <time>2023-01-04T09:54:56.035Z</time>
      </trkpt>
      <trkpt lat="43.58704" lon="1.46046">
        <ele>199.760303</ele>
        <time>2023-01-04T09:55:00.059Z</time>
      </trkpt>
      <trkpt lat="43.58694" lon="1.46049">
        <ele>200.021131</ele>
        <time>2023-01-04T09:55:03.050Z</time>
      </trkpt>
      <trkpt lat="43.58683" lon="1.46052">
        <ele>200.247472</ele>
        <time>2023-01-04T09:55:06.030Z</time>
      </trkpt>
      <trkpt lat="43.58671" lon="1.46057">
        <ele>200.121404</ele>
        <time>2023-01-04T09:55:09.066Z</time>
      </trkpt>
      <trkpt lat="43.5866" lon="1.46062">
        <ele>200.002419</ele>
        <time>2023-01-04T09:55:12.024Z</time>
      </trkpt>
      <trkpt lat="43.58649" lon="1.46066">
        <ele>199.886697</ele>
        <time>2023-01-04T09:55:15.037Z</time>
      </trkpt>
      <trkpt lat="43.58637" lon="1.46071">
        <ele>199.767826</ele>
        <time>2023-01-04T09:55:18.057Z</time>
      </trkpt>
      <trkpt lat="43.58625" lon="1.46077">
        <ele>199.644998</ele>
        <time>2023-01-04T09:55:21.059Z</time>
      </trkpt>
      <trkpt lat="43.58613" lon="1.46081">
        <ele>199.520082</ele>
        <time>2023-01-04T09:55:24.051Z</time>
      </trkpt>
      <trkpt lat="43.58601" lon="1.46086">
        <ele>199.393441</ele>
        <time>2023-01-04T09:55:27.051Z</time>
      </trkpt>
      <trkpt lat="43.58589" lon="1.46091">
        <ele>199.270776</ele>
        <time>2023-01-04T09:55:30.034Z</time>
      </trkpt>
      <trkpt lat="43.58577" lon="1.46096">
        <ele>199.142029</ele>
        <time>2023-01-04T09:55:33.028Z</time>
      </trkpt>
      <trkpt lat="43.58565" lon="1.46099">
        <ele>199.022904</ele>
        <time>2023-01-04T09:55:36.041Z</time>
      </trkpt>
      <trkpt lat="43.58553" lon="1.46105">
        <ele>198.900755</ele>
        <time>2023-01-04T09:55:39.036Z</time>
      </trkpt>
      <trkpt lat="43.58542" lon="1.46109">
        <ele>198.781567</ele>
        <time>2023-01-04T09:55:42.038Z</time>
      </trkpt>
      <trkpt lat="43.5853" lon="1.46113">
        <ele>198.663533</ele>
        <time>2023-01-04T09:55:45.044Z</time>
      </trkpt>
      <trkpt lat="43.58519" lon="1.46118">
        <ele>198.540868</ele>
        <time>2023-01-04T09:55:48.059Z</time>
      </trkpt>
      <trkpt lat="43.58506" lon="1.46123">
        <ele>198.470009</ele>
        <time>2023-01-04T09:55:51.033Z</time>
      </trkpt>
      <trkpt lat="43.58493" lon="1.46128">
        <ele>198.463377</ele>
        <time>2023-01-04T09:55:54.036Z</time>
      </trkpt>
      <trkpt lat="43.58482" lon="1.46133">
        <ele>198.457455</ele>
        <time>2023-01-04T09:55:57.033Z</time>
      </trkpt>
      <trkpt lat="43.58472" lon="1.46137">
        <ele>198.45262</ele>
        <time>2023-01-04T09:56:00.044Z</time>
      </trkpt>
      <trkpt lat="43.58463" lon="1.46141">
        <ele>198.447624</ele>
        <time>2023-01-04T09:56:03.036Z</time>
      </trkpt>
      <trkpt lat="43.58452" lon="1.46146">
        <ele>198.442025</ele>
        <time>2023-01-04T09:56:06.056Z</time>
      </trkpt>
      <trkpt lat="43.58442" lon="1.4615">
        <ele>198.436803</ele>
        <time>2023-01-04T09:56:09.056Z</time>
      </trkpt>
      <trkpt lat="43.58433" lon="1.46154">
        <ele>198.431796</ele>
        <time>2023-01-04T09:56:12.031Z</time>
      </trkpt>
      <trkpt lat="43.58422" lon="1.46159">
        <ele>198.426022</ele>
        <time>2023-01-04T09:56:15.058Z</time>
      </trkpt>
      <trkpt lat="43.5841" lon="1.46164">
        <ele>198.42013</ele>
        <time>2023-01-04T09:56:18.044Z</time>
      </trkpt>
      <trkpt lat="43.58398" lon="1.46171">
        <ele>198.413717</ele>
        <time>2023-01-04T09:56:21.034Z</time>
      </trkpt>
      <trkpt lat="43.5839" lon="1.46175">
        <ele>198.409109</ele>
        <time>2023-01-04T09:56:23.049Z</time>
      </trkpt>
      <trkpt lat="43.58377" lon="1.46181">
        <ele>198.402522</ele>
        <time>2023-01-04T09:56:26.053Z</time>
      </trkpt>
      <trkpt lat="43.58365" lon="1.46186">
        <ele>198.396235</ele>
        <time>2023-01-04T09:56:29.050Z</time>
      </trkpt>
      <trkpt lat="43.58353" lon="1.46191">
        <ele>198.389767</ele>
        <time>2023-01-04T09:56:32.056Z</time>
      </trkpt>
      <trkpt lat="43.58342" lon="1.46197">
        <ele>198.38384</ele>
        <time>2023-01-04T09:56:35.035Z</time>
      </trkpt>
      <trkpt lat="43.58331" lon="1.462">
        <ele>198.476733</ele>
        <time>2023-01-04T09:56:38.038Z</time>
      </trkpt>
      <trkpt lat="43.58321" lon="1.46205">
        <ele>198.579629</ele>
        <time>2023-01-04T09:56:41.045Z</time>
      </trkpt>
      <trkpt lat="43.5831" lon="1.46212">
        <ele>198.693444</ele>
        <time>2023-01-04T09:56:44.044Z</time>
      </trkpt>
      <trkpt lat="43.58298" lon="1.46219">
        <ele>198.814464</ele>
        <time>2023-01-04T09:56:47.055Z</time>
      </trkpt>
      <trkpt lat="43.58289" lon="1.46224">
        <ele>198.900885</ele>
        <time>2023-01-04T09:56:49.061Z</time>
      </trkpt>
      <trkpt lat="43.58278" lon="1.4623">
        <ele>199.018174</ele>
        <time>2023-01-04T09:56:52.035Z</time>
      </trkpt>
      <trkpt lat="43.58266" lon="1.46236">
        <ele>199.134336</ele>
        <time>2023-01-04T09:56:55.033Z</time>
      </trkpt>
      <trkpt lat="43.58255" lon="1.46243">
        <ele>199.247901</ele>
        <time>2023-01-04T09:56:58.038Z</time>
      </trkpt>
      <trkpt lat="43.58246" lon="1.46248">
        <ele>199.341683</ele>
        <time>2023-01-04T09:57:00.034Z</time>
      </trkpt>
      <trkpt lat="43.58234" lon="1.46255">
        <ele>199.464631</ele>
        <time>2023-01-04T09:57:03.047Z</time>
      </trkpt>
      <trkpt lat="43.58222" lon="1.46263">
        <ele>199.592393</ele>
        <time>2023-01-04T09:57:06.039Z</time>
      </trkpt>
      <trkpt lat="43.58213" lon="1.46268">
        <ele>199.679463</ele>
        <time>2023-01-04T09:57:08.033Z</time>
      </trkpt>
      <trkpt lat="43.58201" lon="1.46275">
        <ele>199.801875</ele>
        <time>2023-01-04T09:57:11.046Z</time>
      </trkpt>
      <trkpt lat="43.58189" lon="1.46282">
        <ele>199.925001</ele>
        <time>2023-01-04T09:57:14.053Z</time>
      </trkpt>
      <trkpt lat="43.58177" lon="1.46288">
        <ele>200.04252</ele>
        <time>2023-01-04T09:57:17.057Z</time>
      </trkpt>
      <trkpt lat="43.58168" lon="1.46293">
        <ele>200.099102</ele>
        <time>2023-01-04T09:57:20.031Z</time>
      </trkpt>
      <trkpt lat="43.58159" lon="1.463">
        <ele>200.138491</ele>
        <time>2023-01-04T09:57:24.033Z</time>
      </trkpt>
      <trkpt lat="43.58148" lon="1.46303">
        <ele>200.180143</ele>
        <time>2023-01-04T09:57:29.039Z</time>
      </trkpt>
      <trkpt lat="43.58141" lon="1.4631">
        <ele>200.214528</ele>
        <time>2023-01-04T09:57:45.050Z</time>
      </trkpt>
      <trkpt lat="43.5813" lon="1.4632">
        <ele>200.262451</ele>
        <time>2023-01-04T09:58:14.030Z</time>
      </trkpt>
      <trkpt lat="43.5812" lon="1.46328">
        <ele>200.307122</ele>
        <time>2023-01-04T09:58:18.031Z</time>
      </trkpt>
      <trkpt lat="43.58112" lon="1.46338">
        <ele>200.347793</ele>
        <time>2023-01-04T09:58:21.050Z</time>
      </trkpt>
      <trkpt lat="43.58103" lon="1.46347">
        <ele>200.39028</ele>
        <time>2023-01-04T09:58:24.024Z</time>
      </trkpt>
      <trkpt lat="43.58093" lon="1.46356">
        <ele>200.433885</ele>
        <time>2023-01-04T09:58:27.025Z</time>
      </trkpt>
      <trkpt lat="43.58084" lon="1.46366">
        <ele>200.476696</ele>
        <time>2023-01-04T09:58:30.038Z</time>
      </trkpt>
      <trkpt lat="43.58075" lon="1.46376">
        <ele>200.52195</ele>
        <time>2023-01-04T09:58:33.027Z</time>
      </trkpt>
      <trkpt lat="43.58066" lon="1.46385">
        <ele>200.562621</ele>
        <time>2023-01-04T09:58:36.052Z</time>
      </trkpt>
      <trkpt lat="43.58057" lon="1.46394">
        <ele>200.605109</ele>
        <time>2023-01-04T09:58:39.055Z</time>
      </trkpt>
      <trkpt lat="43.58047" lon="1.46402">
        <ele>200.649275</ele>
        <time>2023-01-04T09:58:42.044Z</time>
      </trkpt>
      <trkpt lat="43.58038" lon="1.46411">
        <ele>200.693486</ele>
        <time>2023-01-04T09:58:45.029Z</time>
      </trkpt>
      <trkpt lat="43.58028" lon="1.46423">
        <ele>200.743482</ele>
        <time>2023-01-04T09:58:48.027Z</time>
      </trkpt>
      <trkpt lat="43.58018" lon="1.46434">
        <ele>200.605969</ele>
        <time>2023-01-04T09:58:51.041Z</time>
      </trkpt>
      <trkpt lat="43.58008" lon="1.46446">
        <ele>200.400126</ele>
        <time>2023-01-04T09:58:54.049Z</time>
      </trkpt>
      <trkpt lat="43.57999" lon="1.46458">
        <ele>200.217841</ele>
        <time>2023-01-04T09:58:57.027Z</time>
      </trkpt>
      <trkpt lat="43.57991" lon="1.46468">
        <ele>200.05219</ele>
        <time>2023-01-04T09:59:00.032Z</time>
      </trkpt>
      <trkpt lat="43.57983" lon="1.46477">
        <ele>199.89888</ele>
        <time>2023-01-04T09:59:03.049Z</time>
      </trkpt>
      <trkpt lat="43.57974" lon="1.46486">
        <ele>199.722187</ele>
        <time>2023-01-04T09:59:06.050Z</time>
      </trkpt>
      <trkpt lat="43.57967" lon="1.46494">
        <ele>199.584356</ele>
        <time>2023-01-04T09:59:22.025Z</time>
      </trkpt>
      <trkpt lat="43.57957" lon="1.46501">
        <ele>199.411951</ele>
        <time>2023-01-04T09:59:27.052Z</time>
      </trkpt>
      <trkpt lat="43.57946" lon="1.4651">
        <ele>199.225074</ele>
        <time>2023-01-04T09:59:30.053Z</time>
      </trkpt>
      <trkpt lat="43.57932" lon="1.4652">
        <ele>198.988471</ele>
        <time>2023-01-04T09:59:33.056Z</time>
      </trkpt>
      <trkpt lat="43.57923" lon="1.46526">
        <ele>198.829095</ele>
        <time>2023-01-04T09:59:35.035Z</time>
      </trkpt>
      <trkpt lat="43.57913" lon="1.46532">
        <ele>198.663756</ele>
        <time>2023-01-04T09:59:37.025Z</time>
      </trkpt>
      <trkpt lat="43.57903" lon="1.46538">
        <ele>198.508349</ele>
        <time>2023-01-04T09:59:39.048Z</time>
      </trkpt>
      <trkpt lat="43.57893" lon="1.46542">
        <ele>198.348984</ele>
        <time>2023-01-04T09:59:41.051Z</time>
      </trkpt>
      <trkpt lat="43.5788" lon="1.46545">
        <ele>198.151893</ele>
        <time>2023-01-04T09:59:44.043Z</time>
      </trkpt>
      <trkpt lat="43.57871" lon="1.4655">
        <ele>198.025927</ele>
        <time>2023-01-04T09:59:46.030Z</time>
      </trkpt>
      <trkpt lat="43.57861" lon="1.46555">
        <ele>198.027642</ele>
        <time>2023-01-04T09:59:48.051Z</time>
      </trkpt>
      <trkpt lat="43.57848" lon="1.4656">
        <ele>198.029949</ele>
        <time>2023-01-04T09:59:51.047Z</time>
      </trkpt>
      <trkpt lat="43.57837" lon="1.46563">
        <ele>198.031698</ele>
        <time>2023-01-04T09:59:53.051Z</time>
      </trkpt>
      <trkpt lat="43.57826" lon="1.46567">
        <ele>198.03365</ele>
        <time>2023-01-04T09:59:55.033Z</time>
      </trkpt>
      <trkpt lat="43.57815" lon="1.4657">
        <ele>198.035328</ele>
        <time>2023-01-04T09:59:57.026Z</time>
      </trkpt>
      <trkpt lat="43.57805" lon="1.46573">
        <ele>198.037018</ele>
        <time>2023-01-04T09:59:59.050Z</time>
      </trkpt>
      <trkpt lat="43.57795" lon="1.46576">
        <ele>198.038673</ele>
        <time>2023-01-04T10:00:01.028Z</time>
      </trkpt>
      <trkpt lat="43.57786" lon="1.46577">
        <ele>198.040174</ele>
        <time>2023-01-04T10:00:03.049Z</time>
      </trkpt>
      <trkpt lat="43.57773" lon="1.46576">
        <ele>198.042277</ele>
        <time>2023-01-04T10:00:06.061Z</time>
      </trkpt>
      <trkpt lat="43.57763" lon="1.46576">
        <ele>198.043988</ele>
        <time>2023-01-04T10:00:08.052Z</time>
      </trkpt>
      <trkpt lat="43.57752" lon="1.46577">
        <ele>198.045782</ele>
        <time>2023-01-04T10:00:10.050Z</time>
      </trkpt>
      <trkpt lat="43.57742" lon="1.46577">
        <ele>198.04733</ele>
        <time>2023-01-04T10:00:12.053Z</time>
      </trkpt>
      <trkpt lat="43.57732" lon="1.46577">
        <ele>198.048961</ele>
        <time>2023-01-04T10:00:14.038Z</time>
      </trkpt>
      <trkpt lat="43.57722" lon="1.4658">
        <ele>198.050612</ele>
        <time>2023-01-04T10:00:16.049Z</time>
      </trkpt>
      <trkpt lat="43.57712" lon="1.4658">
        <ele>198.052293</ele>
        <time>2023-01-04T10:00:18.052Z</time>
      </trkpt>
      <trkpt lat="43.57702" lon="1.46581">
        <ele>198.053878</ele>
        <time>2023-01-04T10:00:20.050Z</time>
      </trkpt>
      <trkpt lat="43.57693" lon="1.46582">
        <ele>198.061877</ele>
        <time>2023-01-04T10:00:22.047Z</time>
      </trkpt>
      <trkpt lat="43.57679" lon="1.46585">
        <ele>198.102231</ele>
        <time>2023-01-04T10:00:25.050Z</time>
      </trkpt>
      <trkpt lat="43.57669" lon="1.46588">
        <ele>198.131637</ele>
        <time>2023-01-04T10:00:27.053Z</time>
      </trkpt>
      <trkpt lat="43.57658" lon="1.46591">
        <ele>198.162705</ele>
        <time>2023-01-04T10:00:29.030Z</time>
      </trkpt>
      <trkpt lat="43.57649" lon="1.46595">
        <ele>198.190899</ele>
        <time>2023-01-04T10:00:31.044Z</time>
      </trkpt>
      <trkpt lat="43.5764" lon="1.466">
        <ele>198.216735</ele>
        <time>2023-01-04T10:00:33.049Z</time>
      </trkpt>
      <trkpt lat="43.57629" lon="1.46606">
        <ele>198.251368</ele>
        <time>2023-01-04T10:00:35.050Z</time>
      </trkpt>
      <trkpt lat="43.5762" lon="1.46613">
        <ele>198.281064</ele>
        <time>2023-01-04T10:00:37.047Z</time>
      </trkpt>
      <trkpt lat="43.5761" lon="1.4662">
        <ele>198.311453</ele>
        <time>2023-01-04T10:00:39.039Z</time>
      </trkpt>
      <trkpt lat="43.57603" lon="1.46629">
        <ele>198.339216</ele>
        <time>2023-01-04T10:00:41.046Z</time>
      </trkpt>
      <trkpt lat="43.57595" lon="1.46638">
        <ele>198.368517</ele>
        <time>2023-01-04T10:00:43.050Z</time>
      </trkpt>
      <trkpt lat="43.57587" lon="1.46648">
        <ele>198.400138</ele>
        <time>2023-01-04T10:00:45.033Z</time>
      </trkpt>
      <trkpt lat="43.57578" lon="1.46659">
        <ele>198.433778</ele>
        <time>2023-01-04T10:00:47.052Z</time>
      </trkpt>
      <trkpt lat="43.5757" lon="1.4667">
        <ele>198.465472</ele>
        <time>2023-01-04T10:00:49.045Z</time>
      </trkpt>
      <trkpt lat="43.57563" lon="1.4668">
        <ele>198.496269</ele>
        <time>2023-01-04T10:00:51.040Z</time>
      </trkpt>
      <trkpt lat="43.57557" lon="1.4669">
        <ele>198.523294</ele>
        <time>2023-01-04T10:00:53.051Z</time>
      </trkpt>
      <trkpt lat="43.57549" lon="1.467">
        <ele>198.552117</ele>
        <time>2023-01-04T10:00:55.028Z</time>
      </trkpt>
      <trkpt lat="43.57543" lon="1.4671">
        <ele>198.563295</ele>
        <time>2023-01-04T10:00:57.049Z</time>
      </trkpt>
      <trkpt lat="43.57539" lon="1.46722">
        <ele>198.552986</ele>
        <time>2023-01-04T10:00:59.031Z</time>
      </trkpt>
      <trkpt lat="43.57531" lon="1.46736">
        <ele>198.539901</ele>
        <time>2023-01-04T10:01:02.046Z</time>
      </trkpt>
      <trkpt lat="43.57523" lon="1.46752">
        <ele>198.525173</ele>
        <time>2023-01-04T10:01:05.031Z</time>
      </trkpt>
      <trkpt lat="43.57518" lon="1.46763">
        <ele>198.515246</ele>
        <time>2023-01-04T10:01:07.051Z</time>
      </trkpt>
      <trkpt lat="43.57512" lon="1.46775">
        <ele>198.50524</ele>
        <time>2023-01-04T10:01:09.044Z</time>
      </trkpt>
      <trkpt lat="43.57506" lon="1.46789">
        <ele>198.492688</ele>
        <time>2023-01-04T10:01:12.053Z</time>
      </trkpt>
      <trkpt lat="43.57498" lon="1.46803">
        <ele>198.479288</ele>
        <time>2023-01-04T10:01:15.047Z</time>
      </trkpt>
      <trkpt lat="43.57492" lon="1.46814">
        <ele>198.468942</ele>
        <time>2023-01-04T10:01:17.036Z</time>
      </trkpt>
      <trkpt lat="43.57487" lon="1.46825">
        <ele>198.459316</ele>
        <time>2023-01-04T10:01:19.030Z</time>
      </trkpt>
      <trkpt lat="43.57481" lon="1.46835">
        <ele>198.449271</ele>
        <time>2023-01-04T10:01:21.035Z</time>
      </trkpt>
      <trkpt lat="43.57472" lon="1.4685">
        <ele>198.434864</ele>
        <time>2023-01-04T10:01:24.054Z</time>
      </trkpt>
      <trkpt lat="43.57465" lon="1.46863">
        <ele>198.422629</ele>
        <time>2023-01-04T10:01:27.049Z</time>
      </trkpt>
      <trkpt lat="43.57459" lon="1.46876">
        <ele>198.410624</ele>
        <time>2023-01-04T10:01:30.049Z</time>
      </trkpt>
      <trkpt lat="43.5745" lon="1.46891">
        <ele>198.396301</ele>
        <time>2023-01-04T10:01:33.050Z</time>
      </trkpt>
      <trkpt lat="43.5744" lon="1.46901">
        <ele>198.383063</ele>
        <time>2023-01-04T10:01:36.048Z</time>
      </trkpt>
      <trkpt lat="43.57429" lon="1.4691">
        <ele>198.55557</ele>
        <time>2023-01-04T10:01:39.052Z</time>
      </trkpt>
      <trkpt lat="43.5742" lon="1.46918">
        <ele>198.742995</ele>
        <time>2023-01-04T10:01:42.053Z</time>
      </trkpt>
      <trkpt lat="43.57409" lon="1.46925">
        <ele>198.935578</ele>
        <time>2023-01-04T10:01:45.025Z</time>
      </trkpt>
      <trkpt lat="43.57399" lon="1.4693">
        <ele>199.121865</ele>
        <time>2023-01-04T10:01:48.049Z</time>
      </trkpt>
      <trkpt lat="43.57389" lon="1.4693">
        <ele>199.290289</ele>
        <time>2023-01-04T10:01:52.031Z</time>
      </trkpt>
      <trkpt lat="43.5738" lon="1.46934">
        <ele>199.44473</ele>
        <time>2023-01-04T10:01:56.043Z</time>
      </trkpt>
      <trkpt lat="43.57372" lon="1.46938">
        <ele>199.597623</ele>
        <time>2023-01-04T10:01:59.046Z</time>
      </trkpt>
      <trkpt lat="43.57362" lon="1.46943">
        <ele>199.770006</ele>
        <time>2023-01-04T10:02:02.051Z</time>
      </trkpt>
      <trkpt lat="43.57353" lon="1.46946">
        <ele>199.927867</ele>
        <time>2023-01-04T10:02:05.048Z</time>
      </trkpt>
      <trkpt lat="43.57343" lon="1.4695">
        <ele>200.107118</ele>
        <time>2023-01-04T10:02:08.054Z</time>
      </trkpt>
      <trkpt lat="43.57333" lon="1.46955">
        <ele>200.277224</ele>
        <time>2023-01-04T10:02:11.049Z</time>
      </trkpt>
      <trkpt lat="43.57323" lon="1.4696">
        <ele>200.462759</ele>
        <time>2023-01-04T10:02:14.050Z</time>
      </trkpt>
      <trkpt lat="43.57311" lon="1.46964">
        <ele>200.660864</ele>
        <time>2023-01-04T10:02:17.037Z</time>
      </trkpt>
      <trkpt lat="43.573" lon="1.46966">
        <ele>200.858414</ele>
        <time>2023-01-04T10:02:20.054Z</time>
      </trkpt>
      <trkpt lat="43.5729" lon="1.4697">
        <ele>201.024333</ele>
        <time>2023-01-04T10:02:22.054Z</time>
      </trkpt>
      <trkpt lat="43.57282" lon="1.46972">
        <ele>201.175176</ele>
        <time>2023-01-04T10:02:24.046Z</time>
      </trkpt>
      <trkpt lat="43.57267" lon="1.46975">
        <ele>201.407432</ele>
        <time>2023-01-04T10:02:27.051Z</time>
      </trkpt>
      <trkpt lat="43.57258" lon="1.46977">
        <ele>201.326162</ele>
        <time>2023-01-04T10:02:29.033Z</time>
      </trkpt>
      <trkpt lat="43.57248" lon="1.46979">
        <ele>201.237612</ele>
        <time>2023-01-04T10:02:31.048Z</time>
      </trkpt>
      <trkpt lat="43.57235" lon="1.46979">
        <ele>201.122329</ele>
        <time>2023-01-04T10:02:34.050Z</time>
      </trkpt>
      <trkpt lat="43.57222" lon="1.46978">
        <ele>200.999911</ele>
        <time>2023-01-04T10:02:37.031Z</time>
      </trkpt>
      <trkpt lat="43.57211" lon="1.46978">
        <ele>200.909403</ele>
        <time>2023-01-04T10:02:39.050Z</time>
      </trkpt>
      <trkpt lat="43.57198" lon="1.46979">
        <ele>200.7893</ele>
        <time>2023-01-04T10:02:42.049Z</time>
      </trkpt>
      <trkpt lat="43.57185" lon="1.46981">
        <ele>200.676086</ele>
        <time>2023-01-04T10:02:45.048Z</time>
      </trkpt>
      <trkpt lat="43.57176" lon="1.46982">
        <ele>200.595264</ele>
        <time>2023-01-04T10:02:47.052Z</time>
      </trkpt>
      <trkpt lat="43.57167" lon="1.46982">
        <ele>200.510131</ele>
        <time>2023-01-04T10:02:49.029Z</time>
      </trkpt>
      <trkpt lat="43.57157" lon="1.46982">
        <ele>200.424998</ele>
        <time>2023-01-04T10:02:51.056Z</time>
      </trkpt>
      <trkpt lat="43.57146" lon="1.46982">
        <ele>200.330979</ele>
        <time>2023-01-04T10:02:53.052Z</time>
      </trkpt>
      <trkpt lat="43.57134" lon="1.46982">
        <ele>200.218351</ele>
        <time>2023-01-04T10:02:56.054Z</time>
      </trkpt>
      <trkpt lat="43.57123" lon="1.46982">
        <ele>200.127012</ele>
        <time>2023-01-04T10:02:58.052Z</time>
      </trkpt>
      <trkpt lat="43.57113" lon="1.46982">
        <ele>200.036449</ele>
        <time>2023-01-04T10:03:00.057Z</time>
      </trkpt>
      <trkpt lat="43.57103" lon="1.46982">
        <ele>199.945995</ele>
        <time>2023-01-04T10:03:02.059Z</time>
      </trkpt>
      <trkpt lat="43.57094" lon="1.46983">
        <ele>199.865134</ele>
        <time>2023-01-04T10:03:04.054Z</time>
      </trkpt>
      <trkpt lat="43.57084" lon="1.46985">
        <ele>199.78369</ele>
        <time>2023-01-04T10:03:06.048Z</time>
      </trkpt>
      <trkpt lat="43.57073" lon="1.46986">
        <ele>199.695532</ele>
        <time>2023-01-04T10:03:08.050Z</time>
      </trkpt>
      <trkpt lat="43.57062" lon="1.46989">
        <ele>199.603626</ele>
        <time>2023-01-04T10:03:10.049Z</time>
      </trkpt>
      <trkpt lat="43.57048" lon="1.46992">
        <ele>199.488281</ele>
        <time>2023-01-04T10:03:13.054Z</time>
      </trkpt>
      <trkpt lat="43.57036" lon="1.46996">
        <ele>199.386868</ele>
        <time>2023-01-04T10:03:15.050Z</time>
      </trkpt>
      <trkpt lat="43.57025" lon="1.46999">
        <ele>199.302736</ele>
        <time>2023-01-04T10:03:17.051Z</time>
      </trkpt>
      <trkpt lat="43.57016" lon="1.47001">
        <ele>199.223866</ele>
        <time>2023-01-04T10:03:20.028Z</time>
      </trkpt>
      <trkpt lat="43.57013" lon="1.47014">
        <ele>199.148881</ele>
        <time>2023-01-04T10:03:34.029Z</time>
      </trkpt>
      <trkpt lat="43.57017" lon="1.47029">
        <ele>199.058298</ele>
        <time>2023-01-04T10:03:39.033Z</time>
      </trkpt>
      <trkpt lat="43.57021" lon="1.4704">
        <ele>198.985652</ele>
        <time>2023-01-04T10:03:42.045Z</time>
      </trkpt>
      <trkpt lat="43.57013" lon="1.47051">
        <ele>198.88819</ele>
        <time>2023-01-04T10:03:47.055Z</time>
      </trkpt>
      <trkpt lat="43.57004" lon="1.47057">
        <ele>198.810382</ele>
        <time>2023-01-04T10:03:49.051Z</time>
      </trkpt>
      <trkpt lat="43.56994" lon="1.47063">
        <ele>198.726525</ele>
        <time>2023-01-04T10:03:51.026Z</time>
      </trkpt>
      <trkpt lat="43.56985" lon="1.4707">
        <ele>198.640689</ele>
        <time>2023-01-04T10:03:53.031Z</time>
      </trkpt>
      <trkpt lat="43.56972" lon="1.47077">
        <ele>198.535232</ele>
        <time>2023-01-04T10:03:56.045Z</time>
      </trkpt>
      <trkpt lat="43.56961" lon="1.47085">
        <ele>198.432878</ele>
        <time>2023-01-04T10:03:59.050Z</time>
      </trkpt>
      <trkpt lat="43.56951" lon="1.47092">
        <ele>198.381448</ele>
        <time>2023-01-04T10:04:02.050Z</time>
      </trkpt>
      <trkpt lat="43.56941" lon="1.471">
        <ele>198.395053</ele>
        <time>2023-01-04T10:04:05.052Z</time>
      </trkpt>
      <trkpt lat="43.56933" lon="1.47105">
        <ele>198.405766</ele>
        <time>2023-01-04T10:04:07.052Z</time>
      </trkpt>
      <trkpt lat="43.56924" lon="1.47112">
        <ele>198.417591</ele>
        <time>2023-01-04T10:04:09.052Z</time>
      </trkpt>
      <trkpt lat="43.56912" lon="1.4712">
        <ele>198.433365</ele>
        <time>2023-01-04T10:04:12.041Z</time>
      </trkpt>
      <trkpt lat="43.56903" lon="1.47127">
        <ele>198.44567</ele>
        <time>2023-01-04T10:04:14.033Z</time>
      </trkpt>
      <trkpt lat="43.56891" lon="1.47136">
        <ele>198.461874</ele>
        <time>2023-01-04T10:04:17.051Z</time>
      </trkpt>
      <trkpt lat="43.56883" lon="1.47143">
        <ele>198.473345</ele>
        <time>2023-01-04T10:04:19.046Z</time>
      </trkpt>
      <trkpt lat="43.56874" lon="1.4715">
        <ele>198.485472</ele>
        <time>2023-01-04T10:04:21.030Z</time>
      </trkpt>
      <trkpt lat="43.56862" lon="1.47158">
        <ele>198.501631</ele>
        <time>2023-01-04T10:04:24.051Z</time>
      </trkpt>
      <trkpt lat="43.56853" lon="1.47161">
        <ele>198.512775</ele>
        <time>2023-01-04T10:04:26.025Z</time>
      </trkpt>
      <trkpt lat="43.56841" lon="1.47164">
        <ele>198.5273</ele>
        <time>2023-01-04T10:04:29.042Z</time>
      </trkpt>
      <trkpt lat="43.56828" lon="1.47166">
        <ele>198.541905</ele>
        <time>2023-01-04T10:04:32.031Z</time>
      </trkpt>
      <trkpt lat="43.56817" lon="1.47168">
        <ele>198.555523</ele>
        <time>2023-01-04T10:04:35.031Z</time>
      </trkpt>
      <trkpt lat="43.56806" lon="1.47171">
        <ele>198.569549</ele>
        <time>2023-01-04T10:04:38.028Z</time>
      </trkpt>
      <trkpt lat="43.56793" lon="1.47173">
        <ele>198.584216</ele>
        <time>2023-01-04T10:04:41.050Z</time>
      </trkpt>
      <trkpt lat="43.56783" lon="1.47173">
        <ele>198.636478</ele>
        <time>2023-01-04T10:04:43.047Z</time>
      </trkpt>
      <trkpt lat="43.5677" lon="1.47173">
        <ele>198.761422</ele>
        <time>2023-01-04T10:04:46.057Z</time>
      </trkpt>
      <trkpt lat="43.56761" lon="1.47175">
        <ele>198.846444</ele>
        <time>2023-01-04T10:04:48.049Z</time>
      </trkpt>
      <trkpt lat="43.5675" lon="1.47175">
        <ele>198.939224</ele>
        <time>2023-01-04T10:04:50.048Z</time>
      </trkpt>
      <trkpt lat="43.56741" lon="1.47176">
        <ele>199.028627</ele>
        <time>2023-01-04T10:04:52.056Z</time>
      </trkpt>
      <trkpt lat="43.56731" lon="1.47177">
        <ele>199.120681</ele>
        <time>2023-01-04T10:04:54.043Z</time>
      </trkpt>
      <trkpt lat="43.56721" lon="1.47177">
        <ele>199.210705</ele>
        <time>2023-01-04T10:04:56.033Z</time>
      </trkpt>
      <trkpt lat="43.56711" lon="1.47177">
        <ele>199.304423</ele>
        <time>2023-01-04T10:04:58.046Z</time>
      </trkpt>
      <trkpt lat="43.567" lon="1.47176">
        <ele>199.400932</ele>
        <time>2023-01-04T10:05:00.050Z</time>
      </trkpt>
      <trkpt lat="43.56691" lon="1.47177">
        <ele>199.490045</ele>
        <time>2023-01-04T10:05:02.052Z</time>
      </trkpt>
      <trkpt lat="43.5668" lon="1.47178">
        <ele>199.586774</ele>
        <time>2023-01-04T10:05:04.045Z</time>
      </trkpt>
      <trkpt lat="43.5667" lon="1.47177">
        <ele>199.683263</ele>
        <time>2023-01-04T10:05:06.035Z</time>
      </trkpt>
      <trkpt lat="43.56656" lon="1.47178">
        <ele>199.804562</ele>
        <time>2023-01-04T10:05:09.048Z</time>
      </trkpt>
      <trkpt lat="43.56646" lon="1.47178">
        <ele>199.895622</ele>
        <time>2023-01-04T10:05:11.056Z</time>
      </trkpt>
      <trkpt lat="43.56636" lon="1.4718">
        <ele>199.991488</ele>
        <time>2023-01-04T10:05:13.031Z</time>
      </trkpt>
      <trkpt lat="43.56625" lon="1.4718">
        <ele>200.088861</ele>
        <time>2023-01-04T10:05:15.033Z</time>
      </trkpt>
      <trkpt lat="43.56615" lon="1.47179">
        <ele>200.180722</ele>
        <time>2023-01-04T10:05:17.051Z</time>
      </trkpt>
      <trkpt lat="43.56605" lon="1.47179">
        <ele>200.295513</ele>
        <time>2023-01-04T10:05:19.051Z</time>
      </trkpt>
      <trkpt lat="43.56596" lon="1.4718">
        <ele>200.441294</ele>
        <time>2023-01-04T10:05:21.055Z</time>
      </trkpt>
      <trkpt lat="43.56587" lon="1.4718">
        <ele>200.583851</ele>
        <time>2023-01-04T10:05:23.034Z</time>
      </trkpt>
      <trkpt lat="43.56578" lon="1.47178">
        <ele>200.730385</ele>
        <time>2023-01-04T10:05:25.038Z</time>
      </trkpt>
      <trkpt lat="43.56568" lon="1.47179">
        <ele>200.880794</ele>
        <time>2023-01-04T10:05:27.043Z</time>
      </trkpt>
      <trkpt lat="43.56559" lon="1.47179">
        <ele>201.021766</ele>
        <time>2023-01-04T10:05:29.056Z</time>
      </trkpt>
      <trkpt lat="43.56555" lon="1.47193">
        <ele>201.194102</ele>
        <time>2023-01-04T10:05:34.055Z</time>
      </trkpt>
      <trkpt lat="43.56555" lon="1.47208">
        <ele>201.364525</ele>
        <time>2023-01-04T10:05:38.055Z</time>
      </trkpt>
      <trkpt lat="43.56547" lon="1.47214">
        <ele>201.505319</ele>
        <time>2023-01-04T10:05:44.056Z</time>
      </trkpt>
      <trkpt lat="43.56542" lon="1.47204">
        <ele>201.649116</ele>
        <time>2023-01-04T10:05:57.033Z</time>
      </trkpt>
      <trkpt lat="43.56534" lon="1.47197">
        <ele>201.797235</ele>
        <time>2023-01-04T10:06:07.030Z</time>
      </trkpt>
      <trkpt lat="43.5653" lon="1.47185">
        <ele>201.949436</ele>
        <time>2023-01-04T10:06:19.033Z</time>
      </trkpt>
      <trkpt lat="43.56525" lon="1.47175">
        <ele>202.092831</ele>
        <time>2023-01-04T10:06:23.034Z</time>
      </trkpt>
      <trkpt lat="43.56513" lon="1.47171">
        <ele>202.291079</ele>
        <time>2023-01-04T10:06:26.054Z</time>
      </trkpt>
      <trkpt lat="43.56501" lon="1.47171">
        <ele>202.468092</ele>
        <time>2023-01-04T10:06:29.058Z</time>
      </trkpt>
      <trkpt lat="43.5649" lon="1.4717">
        <ele>202.649135</ele>
        <time>2023-01-04T10:06:32.054Z</time>
      </trkpt>
      <trkpt lat="43.56477" lon="1.47169">
        <ele>202.845012</ele>
        <time>2023-01-04T10:06:35.052Z</time>
      </trkpt>
      <trkpt lat="43.56465" lon="1.47167">
        <ele>203.041301</ele>
        <time>2023-01-04T10:06:38.047Z</time>
      </trkpt>
      <trkpt lat="43.56453" lon="1.47167">
        <ele>202.852122</ele>
        <time>2023-01-04T10:06:41.051Z</time>
      </trkpt>
      <trkpt lat="43.5644" lon="1.47166">
        <ele>202.616734</ele>
        <time>2023-01-04T10:06:44.039Z</time>
      </trkpt>
      <trkpt lat="43.56427" lon="1.47168">
        <ele>202.369163</ele>
        <time>2023-01-04T10:06:47.053Z</time>
      </trkpt>
      <trkpt lat="43.56417" lon="1.47168">
        <ele>202.182764</ele>
        <time>2023-01-04T10:06:49.054Z</time>
      </trkpt>
      <trkpt lat="43.56404" lon="1.47172">
        <ele>201.9248</ele>
        <time>2023-01-04T10:06:52.056Z</time>
      </trkpt>
      <trkpt lat="43.56395" lon="1.47175">
        <ele>201.747712</ele>
        <time>2023-01-04T10:06:54.048Z</time>
      </trkpt>
      <trkpt lat="43.56385" lon="1.47179">
        <ele>201.561889</ele>
        <time>2023-01-04T10:06:56.053Z</time>
      </trkpt>
      <trkpt lat="43.56375" lon="1.47182">
        <ele>201.368544</ele>
        <time>2023-01-04T10:06:58.055Z</time>
      </trkpt>
      <trkpt lat="43.56366" lon="1.47186">
        <ele>201.184624</ele>
        <time>2023-01-04T10:07:00.029Z</time>
      </trkpt>
      <trkpt lat="43.56354" lon="1.4719">
        <ele>200.94804</ele>
        <time>2023-01-04T10:07:03.040Z</time>
      </trkpt>
      <trkpt lat="43.56344" lon="1.47197">
        <ele>200.754613</ele>
        <time>2023-01-04T10:07:05.056Z</time>
      </trkpt>
      <trkpt lat="43.56335" lon="1.47204">
        <ele>200.559249</ele>
        <time>2023-01-04T10:07:07.026Z</time>
      </trkpt>
      <trkpt lat="43.56324" lon="1.47214">
        <ele>200.307513</ele>
        <time>2023-01-04T10:07:10.056Z</time>
      </trkpt>
      <trkpt lat="43.56315" lon="1.47222">
        <ele>200.103842</ele>
        <time>2023-01-04T10:07:12.031Z</time>
      </trkpt>
      <trkpt lat="43.56306" lon="1.47233">
        <ele>199.879436</ele>
        <time>2023-01-04T10:07:14.051Z</time>
      </trkpt>
      <trkpt lat="43.56298" lon="1.47243">
        <ele>199.677257</ele>
        <time>2023-01-04T10:07:16.062Z</time>
      </trkpt>
      <trkpt lat="43.5629" lon="1.47252">
        <ele>199.587161</ele>
        <time>2023-01-04T10:07:18.054Z</time>
      </trkpt>
      <trkpt lat="43.56284" lon="1.47263">
        <ele>199.49395</ele>
        <time>2023-01-04T10:07:20.047Z</time>
      </trkpt>
      <trkpt lat="43.56277" lon="1.47272">
        <ele>199.414812</ele>
        <time>2023-01-04T10:07:22.030Z</time>
      </trkpt>
      <trkpt lat="43.56269" lon="1.47281">
        <ele>199.323658</ele>
        <time>2023-01-04T10:07:24.032Z</time>
      </trkpt>
      <trkpt lat="43.56263" lon="1.47292">
        <ele>199.23682</ele>
        <time>2023-01-04T10:07:26.045Z</time>
      </trkpt>
      <trkpt lat="43.56252" lon="1.47303">
        <ele>199.11707</ele>
        <time>2023-01-04T10:07:29.053Z</time>
      </trkpt>
      <trkpt lat="43.56245" lon="1.47313">
        <ele>199.027549</ele>
        <time>2023-01-04T10:07:31.051Z</time>
      </trkpt>
      <trkpt lat="43.56238" lon="1.47323">
        <ele>198.941231</ele>
        <time>2023-01-04T10:07:33.047Z</time>
      </trkpt>
      <trkpt lat="43.5623" lon="1.47335">
        <ele>198.842507</ele>
        <time>2023-01-04T10:07:35.049Z</time>
      </trkpt>
      <trkpt lat="43.56222" lon="1.47346">
        <ele>198.740502</ele>
        <time>2023-01-04T10:07:37.052Z</time>
      </trkpt>
      <trkpt lat="43.56214" lon="1.47355">
        <ele>198.645441</ele>
        <time>2023-01-04T10:07:39.056Z</time>
      </trkpt>
      <trkpt lat="43.56206" lon="1.47365">
        <ele>198.557508</ele>
        <time>2023-01-04T10:07:41.053Z</time>
      </trkpt>
      <trkpt lat="43.562" lon="1.47374">
        <ele>198.473608</ele>
        <time>2023-01-04T10:07:43.051Z</time>
      </trkpt>
      <trkpt lat="43.56189" lon="1.47387">
        <ele>198.350636</ele>
        <time>2023-01-04T10:07:46.046Z</time>
      </trkpt>
      <trkpt lat="43.56181" lon="1.47396">
        <ele>198.257049</ele>
        <time>2023-01-04T10:07:48.055Z</time>
      </trkpt>
      <trkpt lat="43.56174" lon="1.47405">
        <ele>198.17791</ele>
        <time>2023-01-04T10:07:50.028Z</time>
      </trkpt>
      <trkpt lat="43.56165" lon="1.47414">
        <ele>198.105721</ele>
        <time>2023-01-04T10:07:52.049Z</time>
      </trkpt>
      <trkpt lat="43.56158" lon="1.47424">
        <ele>198.138753</ele>
        <time>2023-01-04T10:07:54.053Z</time>
      </trkpt>
      <trkpt lat="43.5615" lon="1.47437">
        <ele>198.179763</ele>
        <time>2023-01-04T10:07:57.054Z</time>
      </trkpt>
      <trkpt lat="43.56142" lon="1.47445">
        <ele>198.209496</ele>
        <time>2023-01-04T10:07:59.053Z</time>
      </trkpt>
      <trkpt lat="43.56136" lon="1.47455">
        <ele>198.240895</ele>
        <time>2023-01-04T10:08:01.052Z</time>
      </trkpt>
      <trkpt lat="43.56126" lon="1.47467">
        <ele>198.282946</ele>
        <time>2023-01-04T10:08:04.053Z</time>
      </trkpt>
      <trkpt lat="43.56118" lon="1.47477">
        <ele>198.318178</ele>
        <time>2023-01-04T10:08:06.053Z</time>
      </trkpt>
      <trkpt lat="43.56109" lon="1.47488">
        <ele>198.355758</ele>
        <time>2023-01-04T10:08:09.054Z</time>
      </trkpt>
      <trkpt lat="43.56102" lon="1.47497">
        <ele>198.388303</ele>
        <time>2023-01-04T10:08:11.054Z</time>
      </trkpt>
      <trkpt lat="43.56094" lon="1.47507">
        <ele>198.421336</ele>
        <time>2023-01-04T10:08:13.042Z</time>
      </trkpt>
      <trkpt lat="43.56085" lon="1.47518">
        <ele>198.458489</ele>
        <time>2023-01-04T10:08:16.057Z</time>
      </trkpt>
      <trkpt lat="43.56078" lon="1.47526">
        <ele>198.489409</ele>
        <time>2023-01-04T10:08:18.056Z</time>
      </trkpt>
      <trkpt lat="43.5607" lon="1.47536">
        <ele>198.524231</ele>
        <time>2023-01-04T10:08:20.055Z</time>
      </trkpt>
      <trkpt lat="43.56062" lon="1.47544">
        <ele>198.555212</ele>
        <time>2023-01-04T10:08:22.042Z</time>
      </trkpt>
      <trkpt lat="43.56055" lon="1.47553">
        <ele>198.586194</ele>
        <time>2023-01-04T10:08:24.035Z</time>
      </trkpt>
      <trkpt lat="43.56045" lon="1.47565">
        <ele>198.628582</ele>
        <time>2023-01-04T10:08:27.053Z</time>
      </trkpt>
      <trkpt lat="43.56034" lon="1.47577">
        <ele>198.673553</ele>
        <time>2023-01-04T10:08:30.053Z</time>
      </trkpt>
      <trkpt lat="43.56025" lon="1.47585">
        <ele>198.755109</ele>
        <time>2023-01-04T10:08:32.040Z</time>
      </trkpt>
      <trkpt lat="43.56018" lon="1.47594">
        <ele>198.842451</ele>
        <time>2023-01-04T10:08:34.049Z</time>
      </trkpt>
      <trkpt lat="43.5601" lon="1.47604">
        <ele>198.929793</ele>
        <time>2023-01-04T10:08:37.054Z</time>
      </trkpt>
      <trkpt lat="43.56001" lon="1.47612">
        <ele>199.0179</ele>
        <time>2023-01-04T10:08:39.054Z</time>
      </trkpt>
      <trkpt lat="43.55992" lon="1.47623">
        <ele>199.12193</ele>
        <time>2023-01-04T10:08:41.054Z</time>
      </trkpt>
      <trkpt lat="43.55983" lon="1.47632">
        <ele>199.214887</ele>
        <time>2023-01-04T10:08:43.053Z</time>
      </trkpt>
      <trkpt lat="43.55974" lon="1.47642">
        <ele>199.312758</ele>
        <time>2023-01-04T10:08:45.051Z</time>
      </trkpt>
      <trkpt lat="43.55967" lon="1.47651">
        <ele>199.393915</ele>
        <time>2023-01-04T10:08:47.052Z</time>
      </trkpt>
      <trkpt lat="43.55956" lon="1.47662">
        <ele>199.504386</ele>
        <time>2023-01-04T10:08:50.050Z</time>
      </trkpt>
      <trkpt lat="43.55949" lon="1.47671">
        <ele>199.586153</ele>
        <time>2023-01-04T10:08:52.035Z</time>
      </trkpt>
      <trkpt lat="43.5594" lon="1.47683">
        <ele>199.687687</ele>
        <time>2023-01-04T10:08:54.056Z</time>
      </trkpt>
      <trkpt lat="43.55934" lon="1.47693">
        <ele>199.769656</ele>
        <time>2023-01-04T10:08:56.052Z</time>
      </trkpt>
      <trkpt lat="43.55925" lon="1.47703">
        <ele>199.865849</ele>
        <time>2023-01-04T10:08:58.054Z</time>
      </trkpt>
      <trkpt lat="43.55918" lon="1.47715">
        <ele>199.956292</ele>
        <time>2023-01-04T10:09:00.065Z</time>
      </trkpt>
      <trkpt lat="43.55911" lon="1.47724">
        <ele>200.036844</ele>
        <time>2023-01-04T10:09:02.041Z</time>
      </trkpt>
      <trkpt lat="43.55903" lon="1.47735">
        <ele>200.130983</ele>
        <time>2023-01-04T10:09:05.052Z</time>
      </trkpt>
      <trkpt lat="43.55897" lon="1.47744">
        <ele>200.225976</ele>
        <time>2023-01-04T10:09:07.053Z</time>
      </trkpt>
      <trkpt lat="43.55888" lon="1.47757">
        <ele>200.442609</ele>
        <time>2023-01-04T10:09:10.052Z</time>
      </trkpt>
      <trkpt lat="43.55881" lon="1.47766">
        <ele>200.594245</ele>
        <time>2023-01-04T10:09:12.051Z</time>
      </trkpt>
      <trkpt lat="43.55874" lon="1.47776">
        <ele>200.762328</ele>
        <time>2023-01-04T10:09:14.050Z</time>
      </trkpt>
      <trkpt lat="43.55868" lon="1.47786">
        <ele>200.913665</ele>
        <time>2023-01-04T10:09:16.052Z</time>
      </trkpt>
      <trkpt lat="43.5586" lon="1.47798">
        <ele>201.103305</ele>
        <time>2023-01-04T10:09:18.055Z</time>
      </trkpt>
      <trkpt lat="43.55853" lon="1.47808">
        <ele>201.265633</ele>
        <time>2023-01-04T10:09:20.050Z</time>
      </trkpt>
      <trkpt lat="43.55843" lon="1.47821">
        <ele>201.494884</ele>
        <time>2023-01-04T10:09:23.055Z</time>
      </trkpt>
      <trkpt lat="43.55835" lon="1.47833">
        <ele>201.673423</ele>
        <time>2023-01-04T10:09:25.037Z</time>
      </trkpt>
      <trkpt lat="43.55828" lon="1.47843">
        <ele>201.838861</ele>
        <time>2023-01-04T10:09:27.032Z</time>
      </trkpt>
      <trkpt lat="43.5582" lon="1.47856">
        <ele>202.048053</ele>
        <time>2023-01-04T10:09:30.054Z</time>
      </trkpt>
      <trkpt lat="43.55812" lon="1.47865">
        <ele>202.203041</ele>
        <time>2023-01-04T10:09:32.057Z</time>
      </trkpt>
      <trkpt lat="43.55806" lon="1.47875">
        <ele>202.36116</ele>
        <time>2023-01-04T10:09:34.059Z</time>
      </trkpt>
      <trkpt lat="43.558" lon="1.47884">
        <ele>202.506642</ele>
        <time>2023-01-04T10:09:36.053Z</time>
      </trkpt>
      <trkpt lat="43.55792" lon="1.47896">
        <ele>202.695826</ele>
        <time>2023-01-04T10:09:39.054Z</time>
      </trkpt>
      <trkpt lat="43.55783" lon="1.47908">
        <ele>202.900077</ele>
        <time>2023-01-04T10:09:42.035Z</time>
      </trkpt>
      <trkpt lat="43.55775" lon="1.47917">
        <ele>203.06877</ele>
        <time>2023-01-04T10:09:44.054Z</time>
      </trkpt>
      <trkpt lat="43.55767" lon="1.47927">
        <ele>202.861888</ele>
        <time>2023-01-04T10:09:47.050Z</time>
      </trkpt>
      <trkpt lat="43.55759" lon="1.47937">
        <ele>202.581069</ele>
        <time>2023-01-04T10:09:50.043Z</time>
      </trkpt>
      <trkpt lat="43.55748" lon="1.47949">
        <ele>202.194142</ele>
        <time>2023-01-04T10:09:53.048Z</time>
      </trkpt>
      <trkpt lat="43.55736" lon="1.47959">
        <ele>201.831623</ele>
        <time>2023-01-04T10:09:56.042Z</time>
      </trkpt>
      <trkpt lat="43.55728" lon="1.47966">
        <ele>201.577082</ele>
        <time>2023-01-04T10:09:58.052Z</time>
      </trkpt>
      <trkpt lat="43.55715" lon="1.47975">
        <ele>201.207171</ele>
        <time>2023-01-04T10:10:01.047Z</time>
      </trkpt>
      <trkpt lat="43.55707" lon="1.47983">
        <ele>200.931227</ele>
        <time>2023-01-04T10:10:03.058Z</time>
      </trkpt>
      <trkpt lat="43.55697" lon="1.47991">
        <ele>200.624213</ele>
        <time>2023-01-04T10:10:05.053Z</time>
      </trkpt>
      <trkpt lat="43.55688" lon="1.47998">
        <ele>200.347947</ele>
        <time>2023-01-04T10:10:07.052Z</time>
      </trkpt>
      <trkpt lat="43.5568" lon="1.48005">
        <ele>200.08948</ele>
        <time>2023-01-04T10:10:09.054Z</time>
      </trkpt>
      <trkpt lat="43.55671" lon="1.48011">
        <ele>199.843427</ele>
        <time>2023-01-04T10:10:11.057Z</time>
      </trkpt>
      <trkpt lat="43.55661" lon="1.48021">
        <ele>199.517087</ele>
        <time>2023-01-04T10:10:13.034Z</time>
      </trkpt>
      <trkpt lat="43.55653" lon="1.48027">
        <ele>199.24734</ele>
        <time>2023-01-04T10:10:15.048Z</time>
      </trkpt>
      <trkpt lat="43.5564" lon="1.48037">
        <ele>198.871833</ele>
        <time>2023-01-04T10:10:18.060Z</time>
      </trkpt>
      <trkpt lat="43.55631" lon="1.48044">
        <ele>198.590081</ele>
        <time>2023-01-04T10:10:20.054Z</time>
      </trkpt>
      <trkpt lat="43.55623" lon="1.4805">
        <ele>198.341867</ele>
        <time>2023-01-04T10:10:22.054Z</time>
      </trkpt>
      <trkpt lat="43.55614" lon="1.48055">
        <ele>198.354672</ele>
        <time>2023-01-04T10:10:24.056Z</time>
      </trkpt>
      <trkpt lat="43.55603" lon="1.48063">
        <ele>198.423033</ele>
        <time>2023-01-04T10:10:27.046Z</time>
      </trkpt>
      <trkpt lat="43.55591" lon="1.48071">
        <ele>198.487625</ele>
        <time>2023-01-04T10:10:30.053Z</time>
      </trkpt>
      <trkpt lat="43.5558" lon="1.48078">
        <ele>198.549434</ele>
        <time>2023-01-04T10:10:33.028Z</time>
      </trkpt>
      <trkpt lat="43.55567" lon="1.4808">
        <ele>198.614781</ele>
        <time>2023-01-04T10:10:36.054Z</time>
      </trkpt>
      <trkpt lat="43.55555" lon="1.48083">
        <ele>198.679951</ele>
        <time>2023-01-04T10:10:39.029Z</time>
      </trkpt>
      <trkpt lat="43.55542" lon="1.48088">
        <ele>198.745914</ele>
        <time>2023-01-04T10:10:42.059Z</time>
      </trkpt>
      <trkpt lat="43.5553" lon="1.48095">
        <ele>198.815019</ele>
        <time>2023-01-04T10:10:45.053Z</time>
      </trkpt>
      <trkpt lat="43.55519" lon="1.48099">
        <ele>198.873246</ele>
        <time>2023-01-04T10:10:47.054Z</time>
      </trkpt>
      <trkpt lat="43.55508" lon="1.48101">
        <ele>198.931014</ele>
        <time>2023-01-04T10:10:50.044Z</time>
      </trkpt>
      <trkpt lat="43.55499" lon="1.48106">
        <ele>198.977218</ele>
        <time>2023-01-04T10:10:52.053Z</time>
      </trkpt>
      <trkpt lat="43.5549" lon="1.48111">
        <ele>199.025704</ele>
        <time>2023-01-04T10:10:54.041Z</time>
      </trkpt>
      <trkpt lat="43.55478" lon="1.48117">
        <ele>199.093117</ele>
        <time>2023-01-04T10:10:57.052Z</time>
      </trkpt>
      <trkpt lat="43.55468" lon="1.48121">
        <ele>199.147234</ele>
        <time>2023-01-04T10:11:00.055Z</time>
      </trkpt>
      <trkpt lat="43.55458" lon="1.48123">
        <ele>199.198647</ele>
        <time>2023-01-04T10:11:03.031Z</time>
      </trkpt>
      <trkpt lat="43.55446" lon="1.48121">
        <ele>199.217048</ele>
        <time>2023-01-04T10:11:07.051Z</time>
      </trkpt>
      <trkpt lat="43.55434" lon="1.4812">
        <ele>199.179946</ele>
        <time>2023-01-04T10:11:11.054Z</time>
      </trkpt>
      <trkpt lat="43.55419" lon="1.48121">
        <ele>199.137029</ele>
        <time>2023-01-04T10:11:14.050Z</time>
      </trkpt>
      <trkpt lat="43.55409" lon="1.48122">
        <ele>199.109223</ele>
        <time>2023-01-04T10:11:16.054Z</time>
      </trkpt>
      <trkpt lat="43.55396" lon="1.48122">
        <ele>199.071014</ele>
        <time>2023-01-04T10:11:19.055Z</time>
      </trkpt>
      <trkpt lat="43.55384" lon="1.48123">
        <ele>199.035368</ele>
        <time>2023-01-04T10:11:22.042Z</time>
      </trkpt>
      <trkpt lat="43.55372" lon="1.48125">
        <ele>198.998753</ele>
        <time>2023-01-04T10:11:25.038Z</time>
      </trkpt>
      <trkpt lat="43.55362" lon="1.48127">
        <ele>198.968929</ele>
        <time>2023-01-04T10:11:27.051Z</time>
      </trkpt>
      <trkpt lat="43.55349" lon="1.48129">
        <ele>198.931281</ele>
        <time>2023-01-04T10:11:30.054Z</time>
      </trkpt>
      <trkpt lat="43.55339" lon="1.48133">
        <ele>198.90322</ele>
        <time>2023-01-04T10:11:32.056Z</time>
      </trkpt>
      <trkpt lat="43.55327" lon="1.48135">
        <ele>198.865803</ele>
        <time>2023-01-04T10:11:35.046Z</time>
      </trkpt>
      <trkpt lat="43.55316" lon="1.48138">
        <ele>198.833671</ele>
        <time>2023-01-04T10:11:38.042Z</time>
      </trkpt>
      <trkpt lat="43.55294" lon="1.48142">
        <ele>198.770133</ele>
        <time>2023-01-04T10:12:34.033Z</time>
      </trkpt>
      <trkpt lat="43.55284" lon="1.48143">
        <ele>198.738822</ele>
        <time>2023-01-04T10:12:38.035Z</time>
      </trkpt>
      <trkpt lat="43.55274" lon="1.48145">
        <ele>198.709796</ele>
        <time>2023-01-04T10:12:41.034Z</time>
      </trkpt>
      <trkpt lat="43.55263" lon="1.48149">
        <ele>198.776327</ele>
        <time>2023-01-04T10:12:44.039Z</time>
      </trkpt>
      <trkpt lat="43.55251" lon="1.48154">
        <ele>198.860255</ele>
        <time>2023-01-04T10:12:47.049Z</time>
      </trkpt>
      <trkpt lat="43.55239" lon="1.48161">
        <ele>198.944851</ele>
        <time>2023-01-04T10:12:50.053Z</time>
      </trkpt>
      <trkpt lat="43.55227" lon="1.48166">
        <ele>199.028976</ele>
        <time>2023-01-04T10:12:53.052Z</time>
      </trkpt>
      <trkpt lat="43.55214" lon="1.4817">
        <ele>199.12019</ele>
        <time>2023-01-04T10:12:56.051Z</time>
      </trkpt>
      <trkpt lat="43.55205" lon="1.48174">
        <ele>199.181968</ele>
        <time>2023-01-04T10:12:58.054Z</time>
      </trkpt>
      <trkpt lat="43.55194" lon="1.48178">
        <ele>199.261083</ele>
        <time>2023-01-04T10:13:01.043Z</time>
      </trkpt>
      <trkpt lat="43.55182" lon="1.48184">
        <ele>199.348022</ele>
        <time>2023-01-04T10:13:04.050Z</time>
      </trkpt>
      <trkpt lat="43.55173" lon="1.48188">
        <ele>199.410734</ele>
        <time>2023-01-04T10:13:06.053Z</time>
      </trkpt>
      <trkpt lat="43.55164" lon="1.4819">
        <ele>199.472242</ele>
        <time>2023-01-04T10:13:08.055Z</time>
      </trkpt>
      <trkpt lat="43.55149" lon="1.48196">
        <ele>199.571323</ele>
        <time>2023-01-04T10:13:11.055Z</time>
      </trkpt>
      <trkpt lat="43.55139" lon="1.48199">
        <ele>199.641405</ele>
        <time>2023-01-04T10:13:13.055Z</time>
      </trkpt>
      <trkpt lat="43.5513" lon="1.48204">
        <ele>199.7087</ele>
        <time>2023-01-04T10:13:15.052Z</time>
      </trkpt>
      <trkpt lat="43.55117" lon="1.48207">
        <ele>199.793596</ele>
        <time>2023-01-04T10:13:18.052Z</time>
      </trkpt>
      <trkpt lat="43.55105" lon="1.48213">
        <ele>199.880568</ele>
        <time>2023-01-04T10:13:21.058Z</time>
      </trkpt>
      <trkpt lat="43.55095" lon="1.48213">
        <ele>199.858267</ele>
        <time>2023-01-04T10:13:24.040Z</time>
      </trkpt>
      <trkpt lat="43.55087" lon="1.4822">
        <ele>199.744643</ele>
        <time>2023-01-04T10:13:26.054Z</time>
      </trkpt>
      <trkpt lat="43.55074" lon="1.48228">
        <ele>199.58771</ele>
        <time>2023-01-04T10:13:29.056Z</time>
      </trkpt>
      <trkpt lat="43.55065" lon="1.48237">
        <ele>199.469273</ele>
        <time>2023-01-04T10:13:31.030Z</time>
      </trkpt>
      <trkpt lat="43.55056" lon="1.48245">
        <ele>199.354891</ele>
        <time>2023-01-04T10:13:33.056Z</time>
      </trkpt>
      <trkpt lat="43.55049" lon="1.48253">
        <ele>199.249613</ele>
        <time>2023-01-04T10:13:35.053Z</time>
      </trkpt>
      <trkpt lat="43.55041" lon="1.48261">
        <ele>199.14157</ele>
        <time>2023-01-04T10:13:37.053Z</time>
      </trkpt>
      <trkpt lat="43.55033" lon="1.48269">
        <ele>199.033565</ele>
        <time>2023-01-04T10:13:39.054Z</time>
      </trkpt>
      <trkpt lat="43.55026" lon="1.48277">
        <ele>198.932497</ele>
        <time>2023-01-04T10:13:41.052Z</time>
      </trkpt>
      <trkpt lat="43.55018" lon="1.48285">
        <ele>198.828204</ele>
        <time>2023-01-04T10:13:43.052Z</time>
      </trkpt>
      <trkpt lat="43.55009" lon="1.48292">
        <ele>198.712545</ele>
        <time>2023-01-04T10:13:46.034Z</time>
      </trkpt>
      <trkpt lat="43.55001" lon="1.48302">
        <ele>198.589997</ele>
        <time>2023-01-04T10:13:48.034Z</time>
      </trkpt>
      <trkpt lat="43.54991" lon="1.48312">
        <ele>198.457495</ele>
        <time>2023-01-04T10:13:51.036Z</time>
      </trkpt>
      <trkpt lat="43.54982" lon="1.4832">
        <ele>198.334941</ele>
        <time>2023-01-04T10:13:54.053Z</time>
      </trkpt>
      <trkpt lat="43.54973" lon="1.48328">
        <ele>198.219682</ele>
        <time>2023-01-04T10:13:57.056Z</time>
      </trkpt>
      <trkpt lat="43.54966" lon="1.48337">
        <ele>198.114159</ele>
        <time>2023-01-04T10:14:00.053Z</time>
      </trkpt>
      <trkpt lat="43.54958" lon="1.48347">
        <ele>198.00162</ele>
        <time>2023-01-04T10:14:03.055Z</time>
      </trkpt>
      <trkpt lat="43.5495" lon="1.48354">
        <ele>197.882158</ele>
        <time>2023-01-04T10:14:06.054Z</time>
      </trkpt>
      <trkpt lat="43.54942" lon="1.48364">
        <ele>197.717344</ele>
        <time>2023-01-04T10:14:09.056Z</time>
      </trkpt>
      <trkpt lat="43.54934" lon="1.48372">
        <ele>197.578877</ele>
        <time>2023-01-04T10:14:12.050Z</time>
      </trkpt>
      <trkpt lat="43.54926" lon="1.48381">
        <ele>197.425994</ele>
        <time>2023-01-04T10:14:15.054Z</time>
      </trkpt>
      <trkpt lat="43.54917" lon="1.4839">
        <ele>197.259602</ele>
        <time>2023-01-04T10:14:18.052Z</time>
      </trkpt>
      <trkpt lat="43.54908" lon="1.48398">
        <ele>197.099996</ele>
        <time>2023-01-04T10:14:21.046Z</time>
      </trkpt>
      <trkpt lat="43.54898" lon="1.48405">
        <ele>196.934061</ele>
        <time>2023-01-04T10:14:24.054Z</time>
      </trkpt>
      <trkpt lat="43.54887" lon="1.48413">
        <ele>196.756876</ele>
        <time>2023-01-04T10:14:27.053Z</time>
      </trkpt>
      <trkpt lat="43.54878" lon="1.48419">
        <ele>196.600755</ele>
        <time>2023-01-04T10:14:30.037Z</time>
      </trkpt>
      <trkpt lat="43.5487" lon="1.48426">
        <ele>196.462529</ele>
        <time>2023-01-04T10:14:33.054Z</time>
      </trkpt>
      <trkpt lat="43.54861" lon="1.48433">
        <ele>196.320151</ele>
        <time>2023-01-04T10:14:37.045Z</time>
      </trkpt>
      <trkpt lat="43.54852" lon="1.4844">
        <ele>196.153284</ele>
        <time>2023-01-04T10:14:41.039Z</time>
      </trkpt>
      <trkpt lat="43.54842" lon="1.48448">
        <ele>195.993349</ele>
        <time>2023-01-04T10:14:45.041Z</time>
      </trkpt>
      <trkpt lat="43.54834" lon="1.48454">
        <ele>195.856605</ele>
        <time>2023-01-04T10:14:48.050Z</time>
      </trkpt>
      <trkpt lat="43.54826" lon="1.48461">
        <ele>195.712945</ele>
        <time>2023-01-04T10:14:52.060Z</time>
      </trkpt>
      <trkpt lat="43.5482" lon="1.48471">
        <ele>195.579818</ele>
        <time>2023-01-04T10:14:56.055Z</time>
      </trkpt>
      <trkpt lat="43.54825" lon="1.48483">
        <ele>195.438149</ele>
        <time>2023-01-04T10:15:02.036Z</time>
      </trkpt>
      <trkpt lat="43.54832" lon="1.48473">
        <ele>195.291729</ele>
        <time>2023-01-04T10:15:08.029Z</time>
      </trkpt>
      <trkpt lat="43.54823" lon="1.48468">
        <ele>195.520982</ele>
        <time>2023-01-04T10:15:14.050Z</time>
      </trkpt>
      <trkpt lat="43.54811" lon="1.48467">
        <ele>195.819644</ele>
        <time>2023-01-04T10:15:18.062Z</time>
      </trkpt>
      <trkpt lat="43.54801" lon="1.48473">
        <ele>196.08884</ele>
        <time>2023-01-04T10:15:22.055Z</time>
      </trkpt>
      <trkpt lat="43.54791" lon="1.48479">
        <ele>196.364221</ele>
        <time>2023-01-04T10:15:26.048Z</time>
      </trkpt>
      <trkpt lat="43.54783" lon="1.48487">
        <ele>196.636926</ele>
        <time>2023-01-04T10:15:29.054Z</time>
      </trkpt>
      <trkpt lat="43.54775" lon="1.48494">
        <ele>196.871379</ele>
        <time>2023-01-04T10:15:32.049Z</time>
      </trkpt>
      <trkpt lat="43.54766" lon="1.48499">
        <ele>197.114405</ele>
        <time>2023-01-04T10:15:35.052Z</time>
      </trkpt>
      <trkpt lat="43.54756" lon="1.48507">
        <ele>197.405127</ele>
        <time>2023-01-04T10:15:38.053Z</time>
      </trkpt>
      <trkpt lat="43.54745" lon="1.48516">
        <ele>197.736358</ele>
        <time>2023-01-04T10:15:41.061Z</time>
      </trkpt>
      <trkpt lat="43.54733" lon="1.48525">
        <ele>198.068514</ele>
        <time>2023-01-04T10:15:44.057Z</time>
      </trkpt>
      <trkpt lat="43.54722" lon="1.48534">
        <ele>198.39819</ele>
        <time>2023-01-04T10:15:47.054Z</time>
      </trkpt>
      <trkpt lat="43.54714" lon="1.4854">
        <ele>198.640575</ele>
        <time>2023-01-04T10:15:49.059Z</time>
      </trkpt>
      <trkpt lat="43.54705" lon="1.48547">
        <ele>198.888184</ele>
        <time>2023-01-04T10:15:51.041Z</time>
      </trkpt>
      <trkpt lat="43.54697" lon="1.48554">
        <ele>199.132976</ele>
        <time>2023-01-04T10:15:53.040Z</time>
      </trkpt>
      <trkpt lat="43.54686" lon="1.48563">
        <ele>199.468616</ele>
        <time>2023-01-04T10:15:56.033Z</time>
      </trkpt>
      <trkpt lat="43.54674" lon="1.48572">
        <ele>199.805167</ele>
        <time>2023-01-04T10:15:59.055Z</time>
      </trkpt>
      <trkpt lat="43.54666" lon="1.48578">
        <ele>199.939159</ele>
        <time>2023-01-04T10:16:01.042Z</time>
      </trkpt>
      <trkpt lat="43.54656" lon="1.48588">
        <ele>200.1013</ele>
        <time>2023-01-04T10:16:04.051Z</time>
      </trkpt>
      <trkpt lat="43.54648" lon="1.48596">
        <ele>200.217195</ele>
        <time>2023-01-04T10:16:06.052Z</time>
      </trkpt>
      <trkpt lat="43.54641" lon="1.48605">
        <ele>200.337389</ele>
        <time>2023-01-04T10:16:08.056Z</time>
      </trkpt>
      <trkpt lat="43.54634" lon="1.48614">
        <ele>200.462553</ele>
        <time>2023-01-04T10:16:10.054Z</time>
      </trkpt>
      <trkpt lat="43.54627" lon="1.48623">
        <ele>200.579726</ele>
        <time>2023-01-04T10:16:12.055Z</time>
      </trkpt>
      <trkpt lat="43.54618" lon="1.48635">
        <ele>200.740976</ele>
        <time>2023-01-04T10:16:15.054Z</time>
      </trkpt>
      <trkpt lat="43.5461" lon="1.48648">
        <ele>200.902437</ele>
        <time>2023-01-04T10:16:18.055Z</time>
      </trkpt>
      <trkpt lat="43.54603" lon="1.48658">
        <ele>201.020115</ele>
        <time>2023-01-04T10:16:20.055Z</time>
      </trkpt>
      <trkpt lat="43.54598" lon="1.48669">
        <ele>201.138017</ele>
        <time>2023-01-04T10:16:22.052Z</time>
      </trkpt>
      <trkpt lat="43.54593" lon="1.4868">
        <ele>201.258296</ele>
        <time>2023-01-04T10:16:24.057Z</time>
      </trkpt>
      <trkpt lat="43.54588" lon="1.4869">
        <ele>201.375399</ele>
        <time>2023-01-04T10:16:26.055Z</time>
      </trkpt>
      <trkpt lat="43.54582" lon="1.48701">
        <ele>201.503615</ele>
        <time>2023-01-04T10:16:28.037Z</time>
      </trkpt>
      <trkpt lat="43.54577" lon="1.48713">
        <ele>201.627133</ele>
        <time>2023-01-04T10:16:30.055Z</time>
      </trkpt>
      <trkpt lat="43.54573" lon="1.48726">
        <ele>201.755725</ele>
        <time>2023-01-04T10:16:32.056Z</time>
      </trkpt>
      <trkpt lat="43.54568" lon="1.48737">
        <ele>201.874398</ele>
        <time>2023-01-04T10:16:34.027Z</time>
      </trkpt>
      <trkpt lat="43.54563" lon="1.48749">
        <ele>202.002501</ele>
        <time>2023-01-04T10:16:36.053Z</time>
      </trkpt>
      <trkpt lat="43.54559" lon="1.48761">
        <ele>202.107064</ele>
        <time>2023-01-04T10:16:38.058Z</time>
      </trkpt>
      <trkpt lat="43.54555" lon="1.48774">
        <ele>201.828152</ele>
        <time>2023-01-04T10:16:40.052Z</time>
      </trkpt>
      <trkpt lat="43.54551" lon="1.48787">
        <ele>201.529197</ele>
        <time>2023-01-04T10:16:42.055Z</time>
      </trkpt>
      <trkpt lat="43.54546" lon="1.48798">
        <ele>201.262522</ele>
        <time>2023-01-04T10:16:44.035Z</time>
      </trkpt>
      <trkpt lat="43.54543" lon="1.4881">
        <ele>200.997974</ele>
        <time>2023-01-04T10:16:46.056Z</time>
      </trkpt>
      <trkpt lat="43.54538" lon="1.48822">
        <ele>200.712342</ele>
        <time>2023-01-04T10:16:48.052Z</time>
      </trkpt>
      <trkpt lat="43.54533" lon="1.48834">
        <ele>200.434836</ele>
        <time>2023-01-04T10:16:50.055Z</time>
      </trkpt>
      <trkpt lat="43.54529" lon="1.48846">
        <ele>200.162489</ele>
        <time>2023-01-04T10:16:52.050Z</time>
      </trkpt>
      <trkpt lat="43.54524" lon="1.48858">
        <ele>199.881345</ele>
        <time>2023-01-04T10:16:54.051Z</time>
      </trkpt>
      <trkpt lat="43.54517" lon="1.48874">
        <ele>199.500313</ele>
        <time>2023-01-04T10:16:57.052Z</time>
      </trkpt>
      <trkpt lat="43.54513" lon="1.48886">
        <ele>199.222806</ele>
        <time>2023-01-04T10:16:59.034Z</time>
      </trkpt>
      <trkpt lat="43.54509" lon="1.48897">
        <ele>198.960195</ele>
        <time>2023-01-04T10:17:01.075Z</time>
      </trkpt>
      <trkpt lat="43.54503" lon="1.48914">
        <ele>198.577298</ele>
        <time>2023-01-04T10:17:04.033Z</time>
      </trkpt>
      <trkpt lat="43.54497" lon="1.48924">
        <ele>198.318899</ele>
        <time>2023-01-04T10:17:06.034Z</time>
      </trkpt>
      <trkpt lat="43.54492" lon="1.48936">
        <ele>198.04185</ele>
        <time>2023-01-04T10:17:08.056Z</time>
      </trkpt>
      <trkpt lat="43.54486" lon="1.48951">
        <ele>197.671949</ele>
        <time>2023-01-04T10:17:11.054Z</time>
      </trkpt>
      <trkpt lat="43.54481" lon="1.48963">
        <ele>197.396701</ele>
        <time>2023-01-04T10:17:13.053Z</time>
      </trkpt>
      <trkpt lat="43.54476" lon="1.48973">
        <ele>197.134741</ele>
        <time>2023-01-04T10:17:15.051Z</time>
      </trkpt>
      <trkpt lat="43.54469" lon="1.48988">
        <ele>196.759817</ele>
        <time>2023-01-04T10:17:18.058Z</time>
      </trkpt>
      <trkpt lat="43.54463" lon="1.48998">
        <ele>196.454697</ele>
        <time>2023-01-04T10:17:21.053Z</time>
      </trkpt>
      <trkpt lat="43.54455" lon="1.49006">
        <ele>196.162053</ele>
        <time>2023-01-04T10:17:26.033Z</time>
      </trkpt>
      <trkpt lat="43.54445" lon="1.49006">
        <ele>195.859304</ele>
        <time>2023-01-04T10:17:30.054Z</time>
      </trkpt>
      <trkpt lat="43.54434" lon="1.49012">
        <ele>195.484097</ele>
        <time>2023-01-04T10:17:33.052Z</time>
      </trkpt>
      <trkpt lat="43.54424" lon="1.49015">
        <ele>195.176319</ele>
        <time>2023-01-04T10:17:36.053Z</time>
      </trkpt>
      <trkpt lat="43.54411" lon="1.4902">
        <ele>194.771502</ele>
        <time>2023-01-04T10:17:39.055Z</time>
      </trkpt>
      <trkpt lat="43.54401" lon="1.49028">
        <ele>194.426555</ele>
        <time>2023-01-04T10:17:41.041Z</time>
      </trkpt>
      <trkpt lat="43.54391" lon="1.49033">
        <ele>194.089597</ele>
        <time>2023-01-04T10:17:43.035Z</time>
      </trkpt>
      <trkpt lat="43.54378" lon="1.49034">
        <ele>193.700314</ele>
        <time>2023-01-04T10:17:46.058Z</time>
      </trkpt>
      <trkpt lat="43.54367" lon="1.4904">
        <ele>193.341732</ele>
        <time>2023-01-04T10:17:48.056Z</time>
      </trkpt>
      <trkpt lat="43.54356" lon="1.49047">
        <ele>192.976815</ele>
        <time>2023-01-04T10:17:50.055Z</time>
      </trkpt>
      <trkpt lat="43.54343" lon="1.4905">
        <ele>192.571763</ele>
        <time>2023-01-04T10:17:53.031Z</time>
      </trkpt>
      <trkpt lat="43.54334" lon="1.49054">
        <ele>192.265312</ele>
        <time>2023-01-04T10:17:55.053Z</time>
      </trkpt>
      <trkpt lat="43.54325" lon="1.49059">
        <ele>191.959267</ele>
        <time>2023-01-04T10:17:57.053Z</time>
      </trkpt>
      <trkpt lat="43.54313" lon="1.49066">
        <ele>191.580053</ele>
        <time>2023-01-04T10:17:59.054Z</time>
      </trkpt>
      <trkpt lat="43.54302" lon="1.49073">
        <ele>191.556001</ele>
        <time>2023-01-04T10:18:01.037Z</time>
      </trkpt>
      <trkpt lat="43.54292" lon="1.49078">
        <ele>191.602908</ele>
        <time>2023-01-04T10:18:03.057Z</time>
      </trkpt>
      <trkpt lat="43.54283" lon="1.49081">
        <ele>191.644582</ele>
        <time>2023-01-04T10:18:05.055Z</time>
      </trkpt>
      <trkpt lat="43.54273" lon="1.49086">
        <ele>191.69304</ele>
        <time>2023-01-04T10:18:07.055Z</time>
      </trkpt>
      <trkpt lat="43.54263" lon="1.49091">
        <ele>191.741264</ele>
        <time>2023-01-04T10:18:09.054Z</time>
      </trkpt>
      <trkpt lat="43.5425" lon="1.49095">
        <ele>191.799781</ele>
        <time>2023-01-04T10:18:12.052Z</time>
      </trkpt>
      <trkpt lat="43.5424" lon="1.49099">
        <ele>191.845263</ele>
        <time>2023-01-04T10:18:14.054Z</time>
      </trkpt>
      <trkpt lat="43.54231" lon="1.49103">
        <ele>191.890825</ele>
        <time>2023-01-04T10:18:16.060Z</time>
      </trkpt>
      <trkpt lat="43.54217" lon="1.49111">
        <ele>191.955093</ele>
        <time>2023-01-04T10:18:19.055Z</time>
      </trkpt>
      <trkpt lat="43.54208" lon="1.49118">
        <ele>192.004178</ele>
        <time>2023-01-04T10:18:21.033Z</time>
      </trkpt>
      <trkpt lat="43.54198" lon="1.49122">
        <ele>192.048189</ele>
        <time>2023-01-04T10:18:24.059Z</time>
      </trkpt>
      <trkpt lat="43.54189" lon="1.49129">
        <ele>192.095071</ele>
        <time>2023-01-04T10:18:26.050Z</time>
      </trkpt>
      <trkpt lat="43.54181" lon="1.49133">
        <ele>192.13556</ele>
        <time>2023-01-04T10:18:28.055Z</time>
      </trkpt>
      <trkpt lat="43.54166" lon="1.49141">
        <ele>192.205054</ele>
        <time>2023-01-04T10:18:31.034Z</time>
      </trkpt>
      <trkpt lat="43.54156" lon="1.4915">
        <ele>192.260974</ele>
        <time>2023-01-04T10:18:33.051Z</time>
      </trkpt>
      <trkpt lat="43.54145" lon="1.49159">
        <ele>192.315648</ele>
        <time>2023-01-04T10:18:35.056Z</time>
      </trkpt>
      <trkpt lat="43.54136" lon="1.49165">
        <ele>192.591006</ele>
        <time>2023-01-04T10:18:37.052Z</time>
      </trkpt>
      <trkpt lat="43.54127" lon="1.49172">
        <ele>192.877097</ele>
        <time>2023-01-04T10:18:39.057Z</time>
      </trkpt>
      <trkpt lat="43.54118" lon="1.49178">
        <ele>193.132733</ele>
        <time>2023-01-04T10:18:41.055Z</time>
      </trkpt>
      <trkpt lat="43.54109" lon="1.49182">
        <ele>193.405467</ele>
        <time>2023-01-04T10:18:44.040Z</time>
      </trkpt>
      <trkpt lat="43.541" lon="1.49186">
        <ele>193.669841</ele>
        <time>2023-01-04T10:18:46.054Z</time>
      </trkpt>
      <trkpt lat="43.5409" lon="1.49192">
        <ele>193.950159</ele>
        <time>2023-01-04T10:18:48.057Z</time>
      </trkpt>
      <trkpt lat="43.5408" lon="1.49201">
        <ele>194.27055</ele>
        <time>2023-01-04T10:18:50.056Z</time>
      </trkpt>
      <trkpt lat="43.54069" lon="1.49208">
        <ele>194.59296</ele>
        <time>2023-01-04T10:18:52.057Z</time>
      </trkpt>
      <trkpt lat="43.54059" lon="1.49214">
        <ele>194.889113</ele>
        <time>2023-01-04T10:18:54.055Z</time>
      </trkpt>
      <trkpt lat="43.54049" lon="1.4922">
        <ele>195.185826</ele>
        <time>2023-01-04T10:18:56.053Z</time>
      </trkpt>
      <trkpt lat="43.54039" lon="1.49224">
        <ele>195.467323</ele>
        <time>2023-01-04T10:18:58.056Z</time>
      </trkpt>
      <trkpt lat="43.54029" lon="1.49229">
        <ele>195.780975</ele>
        <time>2023-01-04T10:19:00.049Z</time>
      </trkpt>
      <trkpt lat="43.54019" lon="1.49234">
        <ele>196.065761</ele>
        <time>2023-01-04T10:19:02.034Z</time>
      </trkpt>
      <trkpt lat="43.54008" lon="1.49239">
        <ele>196.362159</ele>
        <time>2023-01-04T10:19:04.052Z</time>
      </trkpt>
      <trkpt lat="43.53998" lon="1.49243">
        <ele>196.663145</ele>
        <time>2023-01-04T10:19:06.056Z</time>
      </trkpt>
      <trkpt lat="43.53987" lon="1.49247">
        <ele>196.967141</ele>
        <time>2023-01-04T10:19:08.042Z</time>
      </trkpt>
      <trkpt lat="43.53978" lon="1.49246">
        <ele>197.192132</ele>
        <time>2023-01-04T10:19:10.046Z</time>
      </trkpt>
      <trkpt lat="43.53967" lon="1.49249">
        <ele>197.09281</ele>
        <time>2023-01-04T10:19:12.052Z</time>
      </trkpt>
      <trkpt lat="43.53956" lon="1.49254">
        <ele>196.993176</ele>
        <time>2023-01-04T10:19:14.055Z</time>
      </trkpt>
      <trkpt lat="43.53946" lon="1.49257">
        <ele>196.901463</ele>
        <time>2023-01-04T10:19:16.034Z</time>
      </trkpt>
      <trkpt lat="43.53936" lon="1.49256">
        <ele>196.81708</ele>
        <time>2023-01-04T10:19:18.057Z</time>
      </trkpt>
      <trkpt lat="43.53925" lon="1.49262">
        <ele>196.710759</ele>
        <time>2023-01-04T10:19:20.060Z</time>
      </trkpt>
      <trkpt lat="43.53915" lon="1.49267">
        <ele>196.619009</ele>
        <time>2023-01-04T10:19:22.054Z</time>
      </trkpt>
      <trkpt lat="43.53905" lon="1.49273">
        <ele>196.522698</ele>
        <time>2023-01-04T10:19:24.051Z</time>
      </trkpt>
      <trkpt lat="43.53896" lon="1.49277">
        <ele>196.441076</ele>
        <time>2023-01-04T10:19:26.057Z</time>
      </trkpt>
      <trkpt lat="43.53887" lon="1.49285">
        <ele>196.3496</ele>
        <time>2023-01-04T10:19:28.053Z</time>
      </trkpt>
      <trkpt lat="43.5388" lon="1.49295">
        <ele>196.258009</ele>
        <time>2023-01-04T10:19:30.054Z</time>
      </trkpt>
      <trkpt lat="43.53873" lon="1.49307">
        <ele>196.164096</ele>
        <time>2023-01-04T10:19:32.054Z</time>
      </trkpt>
      <trkpt lat="43.53867" lon="1.49318">
        <ele>196.074924</ele>
        <time>2023-01-04T10:19:34.058Z</time>
      </trkpt>
      <trkpt lat="43.53864" lon="1.4933">
        <ele>195.992588</ele>
        <time>2023-01-04T10:19:36.038Z</time>
      </trkpt>
      <trkpt lat="43.53862" lon="1.49343">
        <ele>195.90924</ele>
        <time>2023-01-04T10:19:38.059Z</time>
      </trkpt>
      <trkpt lat="43.53861" lon="1.49357">
        <ele>195.81897</ele>
        <time>2023-01-04T10:19:41.054Z</time>
      </trkpt>
      <trkpt lat="43.53861" lon="1.49372">
        <ele>195.720802</ele>
        <time>2023-01-04T10:19:43.052Z</time>
      </trkpt>
      <trkpt lat="43.53861" lon="1.49386">
        <ele>195.631012</ele>
        <time>2023-01-04T10:19:45.054Z</time>
      </trkpt>
      <trkpt lat="43.53863" lon="1.49399">
        <ele>195.614549</ele>
        <time>2023-01-04T10:19:47.052Z</time>
      </trkpt>
      <trkpt lat="43.53863" lon="1.49414">
        <ele>195.608272</ele>
        <time>2023-01-04T10:19:49.053Z</time>
      </trkpt>
      <trkpt lat="43.53865" lon="1.49432">
        <ele>195.600537</ele>
        <time>2023-01-04T10:19:52.054Z</time>
      </trkpt>
      <trkpt lat="43.53867" lon="1.49451">
        <ele>195.592628</ele>
        <time>2023-01-04T10:19:55.052Z</time>
      </trkpt>
      <trkpt lat="43.53869" lon="1.4947">
        <ele>195.584503</ele>
        <time>2023-01-04T10:19:58.056Z</time>
      </trkpt>
      <trkpt lat="43.5387" lon="1.49488">
        <ele>195.57719</ele>
        <time>2023-01-04T10:20:01.054Z</time>
      </trkpt>
      <trkpt lat="43.53871" lon="1.49502">
        <ele>195.570952</ele>
        <time>2023-01-04T10:20:03.056Z</time>
      </trkpt>
      <trkpt lat="43.53874" lon="1.49516">
        <ele>195.565254</ele>
        <time>2023-01-04T10:20:05.051Z</time>
      </trkpt>
      <trkpt lat="43.53877" lon="1.49529">
        <ele>195.559332</ele>
        <time>2023-01-04T10:20:07.055Z</time>
      </trkpt>
      <trkpt lat="43.53879" lon="1.49544">
        <ele>195.55317</ele>
        <time>2023-01-04T10:20:09.056Z</time>
      </trkpt>
      <trkpt lat="43.53881" lon="1.49557">
        <ele>195.547352</ele>
        <time>2023-01-04T10:20:11.054Z</time>
      </trkpt>
      <trkpt lat="43.53882" lon="1.49571">
        <ele>195.541513</ele>
        <time>2023-01-04T10:20:13.042Z</time>
      </trkpt>
      <trkpt lat="43.53885" lon="1.49586">
        <ele>195.535209</ele>
        <time>2023-01-04T10:20:15.053Z</time>
      </trkpt>
      <trkpt lat="43.53888" lon="1.49599">
        <ele>195.529406</ele>
        <time>2023-01-04T10:20:17.051Z</time>
      </trkpt>
      <trkpt lat="43.53891" lon="1.49612">
        <ele>195.523441</ele>
        <time>2023-01-04T10:20:19.054Z</time>
      </trkpt>
      <trkpt lat="43.53894" lon="1.49624">
        <ele>195.518167</ele>
        <time>2023-01-04T10:20:21.056Z</time>
      </trkpt>
      <trkpt lat="43.53896" lon="1.49639">
        <ele>195.549946</ele>
        <time>2023-01-04T10:20:23.053Z</time>
      </trkpt>
      <trkpt lat="43.53899" lon="1.49652">
        <ele>195.609545</ele>
        <time>2023-01-04T10:20:25.055Z</time>
      </trkpt>
      <trkpt lat="43.53902" lon="1.49665">
        <ele>195.671481</ele>
        <time>2023-01-04T10:20:27.043Z</time>
      </trkpt>
      <trkpt lat="43.53905" lon="1.49681">
        <ele>195.743523</ele>
        <time>2023-01-04T10:20:30.056Z</time>
      </trkpt>
      <trkpt lat="43.53906" lon="1.49694">
        <ele>195.801151</ele>
        <time>2023-01-04T10:20:32.054Z</time>
      </trkpt>
      <trkpt lat="43.53907" lon="1.49707">
        <ele>195.86122</ele>
        <time>2023-01-04T10:20:34.053Z</time>
      </trkpt>
      <trkpt lat="43.53908" lon="1.49721">
        <ele>195.921077</ele>
        <time>2023-01-04T10:20:36.056Z</time>
      </trkpt>
      <trkpt lat="43.53909" lon="1.4974">
        <ele>196.006345</ele>
        <time>2023-01-04T10:20:39.056Z</time>
      </trkpt>
      <trkpt lat="43.53909" lon="1.49754">
        <ele>196.067242</ele>
        <time>2023-01-04T10:20:41.056Z</time>
      </trkpt>
      <trkpt lat="43.53909" lon="1.49767">
        <ele>196.124583</ele>
        <time>2023-01-04T10:20:43.057Z</time>
      </trkpt>
      <trkpt lat="43.53908" lon="1.49781">
        <ele>196.187895</ele>
        <time>2023-01-04T10:20:45.056Z</time>
      </trkpt>
      <trkpt lat="43.53905" lon="1.49799">
        <ele>196.266356</ele>
        <time>2023-01-04T10:20:48.056Z</time>
      </trkpt>
      <trkpt lat="43.53903" lon="1.49812">
        <ele>196.325239</ele>
        <time>2023-01-04T10:20:50.062Z</time>
      </trkpt>
      <trkpt lat="43.53901" lon="1.49828">
        <ele>196.398837</ele>
        <time>2023-01-04T10:20:53.055Z</time>
      </trkpt>
      <trkpt lat="43.53898" lon="1.49842">
        <ele>196.465095</ele>
        <time>2023-01-04T10:20:55.038Z</time>
      </trkpt>
      <trkpt lat="43.53895" lon="1.49854">
        <ele>196.5207</ele>
        <time>2023-01-04T10:20:57.051Z</time>
      </trkpt>
      <trkpt lat="43.53892" lon="1.49867">
        <ele>196.577566</ele>
        <time>2023-01-04T10:20:59.038Z</time>
      </trkpt>
      <trkpt lat="43.53888" lon="1.49883">
        <ele>196.736366</ele>
        <time>2023-01-04T10:21:02.051Z</time>
      </trkpt>
      <trkpt lat="43.53883" lon="1.499">
        <ele>196.956935</ele>
        <time>2023-01-04T10:21:05.054Z</time>
      </trkpt>
      <trkpt lat="43.53879" lon="1.49918">
        <ele>197.189095</ele>
        <time>2023-01-04T10:21:08.055Z</time>
      </trkpt>
      <trkpt lat="43.53874" lon="1.49932">
        <ele>197.377984</ele>
        <time>2023-01-04T10:21:10.055Z</time>
      </trkpt>
      <trkpt lat="43.53869" lon="1.49944">
        <ele>197.54631</ele>
        <time>2023-01-04T10:21:12.055Z</time>
      </trkpt>
      <trkpt lat="43.53864" lon="1.49956">
        <ele>197.725714</ele>
        <time>2023-01-04T10:21:14.055Z</time>
      </trkpt>
      <trkpt lat="43.53858" lon="1.49969">
        <ele>197.911288</ele>
        <time>2023-01-04T10:21:16.052Z</time>
      </trkpt>
      <trkpt lat="43.53848" lon="1.49985">
        <ele>198.170053</ele>
        <time>2023-01-04T10:21:19.060Z</time>
      </trkpt>
      <trkpt lat="43.53842" lon="1.49995">
        <ele>198.336729</ele>
        <time>2023-01-04T10:21:21.029Z</time>
      </trkpt>
      <trkpt lat="43.53836" lon="1.50005">
        <ele>198.490634</ele>
        <time>2023-01-04T10:21:23.056Z</time>
      </trkpt>
      <trkpt lat="43.53828" lon="1.50019">
        <ele>198.714066</ele>
        <time>2023-01-04T10:21:26.051Z</time>
      </trkpt>
      <trkpt lat="43.53819" lon="1.50033">
        <ele>198.940228</ele>
        <time>2023-01-04T10:21:29.055Z</time>
      </trkpt>
      <trkpt lat="43.53813" lon="1.50044">
        <ele>199.108235</ele>
        <time>2023-01-04T10:21:31.055Z</time>
      </trkpt>
      <trkpt lat="43.53806" lon="1.50055">
        <ele>199.284235</ele>
        <time>2023-01-04T10:21:33.054Z</time>
      </trkpt>
      <trkpt lat="43.53799" lon="1.50066">
        <ele>199.472691</ele>
        <time>2023-01-04T10:21:35.058Z</time>
      </trkpt>
      <trkpt lat="43.53793" lon="1.50078">
        <ele>199.654186</ele>
        <time>2023-01-04T10:21:37.055Z</time>
      </trkpt>
      <trkpt lat="43.53787" lon="1.50088">
        <ele>199.574374</ele>
        <time>2023-01-04T10:21:39.053Z</time>
      </trkpt>
      <trkpt lat="43.53781" lon="1.50099">
        <ele>199.468752</ele>
        <time>2023-01-04T10:21:41.040Z</time>
      </trkpt>
      <trkpt lat="43.53775" lon="1.5011">
        <ele>199.361232</ele>
        <time>2023-01-04T10:21:43.054Z</time>
      </trkpt>
      <trkpt lat="43.53768" lon="1.50124">
        <ele>199.227165</ele>
        <time>2023-01-04T10:21:46.053Z</time>
      </trkpt>
      <trkpt lat="43.53762" lon="1.50135">
        <ele>199.122815</ele>
        <time>2023-01-04T10:21:49.054Z</time>
      </trkpt>
      <trkpt lat="43.53756" lon="1.50146">
        <ele>199.015266</ele>
        <time>2023-01-04T10:21:52.055Z</time>
      </trkpt>
      <trkpt lat="43.53752" lon="1.50159">
        <ele>198.90196</ele>
        <time>2023-01-04T10:21:55.053Z</time>
      </trkpt>
      <trkpt lat="43.53747" lon="1.50174">
        <ele>198.774613</ele>
        <time>2023-01-04T10:21:58.055Z</time>
      </trkpt>
      <trkpt lat="43.53741" lon="1.50186">
        <ele>198.656962</ele>
        <time>2023-01-04T10:22:00.056Z</time>
      </trkpt>
      <trkpt lat="43.53735" lon="1.50198">
        <ele>198.545664</ele>
        <time>2023-01-04T10:22:02.035Z</time>
      </trkpt>
      <trkpt lat="43.53728" lon="1.50208">
        <ele>198.435696</ele>
        <time>2023-01-04T10:22:04.035Z</time>
      </trkpt>
      <trkpt lat="43.53719" lon="1.5022">
        <ele>198.301136</ele>
        <time>2023-01-04T10:22:07.029Z</time>
      </trkpt>
      <trkpt lat="43.53713" lon="1.5023">
        <ele>198.200574</ele>
        <time>2023-01-04T10:22:09.056Z</time>
      </trkpt>
      <trkpt lat="43.53707" lon="1.50239">
        <ele>198.101575</ele>
        <time>2023-01-04T10:22:11.055Z</time>
      </trkpt>
      <trkpt lat="43.53698" lon="1.5025">
        <ele>197.973364</ele>
        <time>2023-01-04T10:22:13.059Z</time>
      </trkpt>
      <trkpt lat="43.53691" lon="1.50259">
        <ele>197.87524</ele>
        <time>2023-01-04T10:22:15.044Z</time>
      </trkpt>
      <trkpt lat="43.53684" lon="1.50267">
        <ele>197.776801</ele>
        <time>2023-01-04T10:22:17.040Z</time>
      </trkpt>
      <trkpt lat="43.53674" lon="1.5028">
        <ele>197.702272</ele>
        <time>2023-01-04T10:22:20.060Z</time>
      </trkpt>
      <trkpt lat="43.53667" lon="1.50291">
        <ele>197.675226</ele>
        <time>2023-01-04T10:22:22.051Z</time>
      </trkpt>
      <trkpt lat="43.5366" lon="1.50301">
        <ele>197.647744</ele>
        <time>2023-01-04T10:22:24.055Z</time>
      </trkpt>
      <trkpt lat="43.53653" lon="1.5031">
        <ele>197.620911</ele>
        <time>2023-01-04T10:22:26.069Z</time>
      </trkpt>
      <trkpt lat="43.53646" lon="1.50318">
        <ele>197.597076</ele>
        <time>2023-01-04T10:22:28.054Z</time>
      </trkpt>
      <trkpt lat="43.53638" lon="1.50329">
        <ele>197.568755</ele>
        <time>2023-01-04T10:22:30.054Z</time>
      </trkpt>
      <trkpt lat="43.5363" lon="1.50339">
        <ele>197.53953</ele>
        <time>2023-01-04T10:22:32.061Z</time>
      </trkpt>
      <trkpt lat="43.53622" lon="1.5035">
        <ele>197.510023</ele>
        <time>2023-01-04T10:22:34.056Z</time>
      </trkpt>
      <trkpt lat="43.53614" lon="1.50359">
        <ele>197.482419</ele>
        <time>2023-01-04T10:22:36.058Z</time>
      </trkpt>
      <trkpt lat="43.53607" lon="1.50366">
        <ele>197.458503</ele>
        <time>2023-01-04T10:22:38.055Z</time>
      </trkpt>
      <trkpt lat="43.53599" lon="1.50375">
        <ele>197.430463</ele>
        <time>2023-01-04T10:22:40.056Z</time>
      </trkpt>
      <trkpt lat="43.53588" lon="1.50386">
        <ele>197.395193</ele>
        <time>2023-01-04T10:22:43.056Z</time>
      </trkpt>
      <trkpt lat="43.5358" lon="1.50393">
        <ele>197.369419</ele>
        <time>2023-01-04T10:22:45.053Z</time>
      </trkpt>
      <trkpt lat="43.53571" lon="1.50401">
        <ele>197.340591</ele>
        <time>2023-01-04T10:22:47.055Z</time>
      </trkpt>
      <trkpt lat="43.53562" lon="1.5041">
        <ele>197.313067</ele>
        <time>2023-01-04T10:22:49.054Z</time>
      </trkpt>
      <trkpt lat="43.53553" lon="1.50419">
        <ele>197.283912</ele>
        <time>2023-01-04T10:22:51.053Z</time>
      </trkpt>
      <trkpt lat="43.53545" lon="1.50426">
        <ele>197.258228</ele>
        <time>2023-01-04T10:22:53.056Z</time>
      </trkpt>
      <trkpt lat="43.53534" lon="1.50434">
        <ele>197.102893</ele>
        <time>2023-01-04T10:22:56.053Z</time>
      </trkpt>
      <trkpt lat="43.53525" lon="1.50441">
        <ele>196.94908</ele>
        <time>2023-01-04T10:22:58.063Z</time>
      </trkpt>
      <trkpt lat="43.53516" lon="1.50448">
        <ele>196.795091</ele>
        <time>2023-01-04T10:23:00.054Z</time>
      </trkpt>
      <trkpt lat="43.53508" lon="1.50455">
        <ele>196.64909</ele>
        <time>2023-01-04T10:23:02.053Z</time>
      </trkpt>
      <trkpt lat="43.53498" lon="1.50463">
        <ele>196.477077</ele>
        <time>2023-01-04T10:23:04.062Z</time>
      </trkpt>
      <trkpt lat="43.53485" lon="1.50472">
        <ele>196.260998</ele>
        <time>2023-01-04T10:23:07.054Z</time>
      </trkpt>
      <trkpt lat="43.53476" lon="1.5048">
        <ele>196.100279</ele>
        <time>2023-01-04T10:23:09.059Z</time>
      </trkpt>
      <trkpt lat="43.53468" lon="1.50486">
        <ele>195.964261</ele>
        <time>2023-01-04T10:23:11.053Z</time>
      </trkpt>
      <trkpt lat="43.53459" lon="1.5049">
        <ele>195.813626</ele>
        <time>2023-01-04T10:23:14.055Z</time>
      </trkpt>
      <trkpt lat="43.5345" lon="1.50495">
        <ele>195.676222</ele>
        <time>2023-01-04T10:23:16.055Z</time>
      </trkpt>
      <trkpt lat="43.53442" lon="1.50501">
        <ele>195.529679</ele>
        <time>2023-01-04T10:23:18.052Z</time>
      </trkpt>
      <trkpt lat="43.53429" lon="1.50506">
        <ele>195.332977</ele>
        <time>2023-01-04T10:23:21.053Z</time>
      </trkpt>
      <trkpt lat="43.53417" lon="1.50513">
        <ele>195.128328</ele>
        <time>2023-01-04T10:23:24.055Z</time>
      </trkpt>
      <trkpt lat="43.53407" lon="1.50519">
        <ele>194.976371</ele>
        <time>2023-01-04T10:23:26.057Z</time>
      </trkpt>
      <trkpt lat="43.53395" lon="1.50526">
        <ele>194.770727</ele>
        <time>2023-01-04T10:23:29.040Z</time>
      </trkpt>
      <trkpt lat="43.5338" lon="1.50532">
        <ele>194.541519</ele>
        <time>2023-01-04T10:23:32.055Z</time>
      </trkpt>
      <trkpt lat="43.53367" lon="1.50534">
        <ele>194.541377</ele>
        <time>2023-01-04T10:23:35.052Z</time>
      </trkpt>
      <trkpt lat="43.53358" lon="1.50536">
        <ele>194.541943</ele>
        <time>2023-01-04T10:23:37.055Z</time>
      </trkpt>
      <trkpt lat="43.53348" lon="1.50537">
        <ele>194.542531</ele>
        <time>2023-01-04T10:23:39.038Z</time>
      </trkpt>
      <trkpt lat="43.53339" lon="1.50538">
        <ele>194.543077</ele>
        <time>2023-01-04T10:23:41.046Z</time>
      </trkpt>
      <trkpt lat="43.53329" lon="1.5054">
        <ele>194.543675</ele>
        <time>2023-01-04T10:23:43.056Z</time>
      </trkpt>
      <trkpt lat="43.53319" lon="1.50542">
        <ele>194.544254</ele>
        <time>2023-01-04T10:23:45.052Z</time>
      </trkpt>
      <trkpt lat="43.53309" lon="1.50544">
        <ele>194.544874</ele>
        <time>2023-01-04T10:23:47.051Z</time>
      </trkpt>
      <trkpt lat="43.53299" lon="1.50545">
        <ele>194.545447</ele>
        <time>2023-01-04T10:23:49.067Z</time>
      </trkpt>
      <trkpt lat="43.53289" lon="1.50547">
        <ele>194.546035</ele>
        <time>2023-01-04T10:23:51.056Z</time>
      </trkpt>
      <trkpt lat="43.53275" lon="1.5055">
        <ele>194.546894</ele>
        <time>2023-01-04T10:23:54.063Z</time>
      </trkpt>
      <trkpt lat="43.53262" lon="1.50552">
        <ele>194.547669</ele>
        <time>2023-01-04T10:23:57.061Z</time>
      </trkpt>
      <trkpt lat="43.53248" lon="1.50553">
        <ele>194.548466</ele>
        <time>2023-01-04T10:24:00.054Z</time>
      </trkpt>
      <trkpt lat="43.53238" lon="1.50556">
        <ele>194.54909</ele>
        <time>2023-01-04T10:24:02.054Z</time>
      </trkpt>
      <trkpt lat="43.53228" lon="1.50557">
        <ele>194.549673</ele>
        <time>2023-01-04T10:24:04.034Z</time>
      </trkpt>
      <trkpt lat="43.53214" lon="1.50559">
        <ele>194.550497</ele>
        <time>2023-01-04T10:24:07.059Z</time>
      </trkpt>
      <trkpt lat="43.53205" lon="1.50561">
        <ele>194.551084</ele>
        <time>2023-01-04T10:24:09.054Z</time>
      </trkpt>
      <trkpt lat="43.53195" lon="1.50566">
        <ele>194.637151</ele>
        <time>2023-01-04T10:24:11.049Z</time>
      </trkpt>
      <trkpt lat="43.53185" lon="1.50569">
        <ele>194.768123</ele>
        <time>2023-01-04T10:24:13.057Z</time>
      </trkpt>
      <trkpt lat="43.53176" lon="1.50573">
        <ele>194.893769</ele>
        <time>2023-01-04T10:24:15.054Z</time>
      </trkpt>
      <trkpt lat="43.53165" lon="1.50578">
        <ele>195.031172</ele>
        <time>2023-01-04T10:24:17.041Z</time>
      </trkpt>
      <trkpt lat="43.53155" lon="1.50583">
        <ele>195.158847</ele>
        <time>2023-01-04T10:24:19.053Z</time>
      </trkpt>
      <trkpt lat="43.53147" lon="1.50587">
        <ele>195.277106</ele>
        <time>2023-01-04T10:24:21.055Z</time>
      </trkpt>
      <trkpt lat="43.53138" lon="1.50592">
        <ele>195.390195</ele>
        <time>2023-01-04T10:24:23.054Z</time>
      </trkpt>
      <trkpt lat="43.53127" lon="1.50598">
        <ele>195.542344</ele>
        <time>2023-01-04T10:24:26.055Z</time>
      </trkpt>
      <trkpt lat="43.53116" lon="1.50607">
        <ele>195.694388</ele>
        <time>2023-01-04T10:24:29.056Z</time>
      </trkpt>
      <trkpt lat="43.53106" lon="1.50611">
        <ele>195.827174</ele>
        <time>2023-01-04T10:24:32.068Z</time>
      </trkpt>
      <trkpt lat="43.53094" lon="1.50615">
        <ele>195.980402</ele>
        <time>2023-01-04T10:24:35.056Z</time>
      </trkpt>
      <trkpt lat="43.53082" lon="1.50624">
        <ele>196.156908</ele>
        <time>2023-01-04T10:24:38.051Z</time>
      </trkpt>
      <trkpt lat="43.53073" lon="1.50629">
        <ele>196.272911</ele>
        <time>2023-01-04T10:24:40.049Z</time>
      </trkpt>
      <trkpt lat="43.53064" lon="1.50635">
        <ele>196.398735</ele>
        <time>2023-01-04T10:24:42.045Z</time>
      </trkpt>
      <trkpt lat="43.53055" lon="1.50641">
        <ele>196.519381</ele>
        <time>2023-01-04T10:24:44.055Z</time>
      </trkpt>
      <trkpt lat="43.53044" lon="1.50649">
        <ele>196.683753</ele>
        <time>2023-01-04T10:24:47.066Z</time>
      </trkpt>
      <trkpt lat="43.53032" lon="1.50658">
        <ele>196.802862</ele>
        <time>2023-01-04T10:24:50.058Z</time>
      </trkpt>
      <trkpt lat="43.53022" lon="1.50668">
        <ele>196.824349</ele>
        <time>2023-01-04T10:24:53.056Z</time>
      </trkpt>
      <trkpt lat="43.53013" lon="1.50678">
        <ele>196.845877</ele>
        <time>2023-01-04T10:24:56.049Z</time>
      </trkpt>
      <trkpt lat="43.53003" lon="1.50689">
        <ele>196.868981</ele>
        <time>2023-01-04T10:24:59.054Z</time>
      </trkpt>
      <trkpt lat="43.52993" lon="1.507">
        <ele>196.892834</ele>
        <time>2023-01-04T10:25:02.055Z</time>
      </trkpt>
      <trkpt lat="43.52986" lon="1.50709">
        <ele>196.90944</ele>
        <time>2023-01-04T10:25:04.057Z</time>
      </trkpt>
      <trkpt lat="43.52976" lon="1.5072">
        <ele>196.932404</ele>
        <time>2023-01-04T10:25:07.055Z</time>
      </trkpt>
      <trkpt lat="43.52965" lon="1.50732">
        <ele>196.958115</ele>
        <time>2023-01-04T10:25:10.066Z</time>
      </trkpt>
      <trkpt lat="43.52954" lon="1.50744">
        <ele>196.982611</ele>
        <time>2023-01-04T10:25:13.052Z</time>
      </trkpt>
      <trkpt lat="43.52947" lon="1.50754">
        <ele>197.001259</ele>
        <time>2023-01-04T10:25:15.052Z</time>
      </trkpt>
      <trkpt lat="43.52939" lon="1.50762">
        <ele>197.019356</ele>
        <time>2023-01-04T10:25:17.057Z</time>
      </trkpt>
      <trkpt lat="43.52931" lon="1.50771">
        <ele>197.036886</ele>
        <time>2023-01-04T10:25:19.055Z</time>
      </trkpt>
      <trkpt lat="43.52923" lon="1.5078">
        <ele>197.055359</ele>
        <time>2023-01-04T10:25:21.055Z</time>
      </trkpt>
      <trkpt lat="43.52913" lon="1.5079">
        <ele>197.078106</ele>
        <time>2023-01-04T10:25:24.054Z</time>
      </trkpt>
      <trkpt lat="43.52906" lon="1.50798">
        <ele>197.094469</ele>
        <time>2023-01-04T10:25:26.056Z</time>
      </trkpt>
      <trkpt lat="43.52896" lon="1.50809">
        <ele>197.116664</ele>
        <time>2023-01-04T10:25:29.058Z</time>
      </trkpt>
      <trkpt lat="43.52888" lon="1.50816">
        <ele>197.11833</ele>
        <time>2023-01-04T10:25:31.064Z</time>
      </trkpt>
      <trkpt lat="43.52881" lon="1.50824">
        <ele>197.117639</ele>
        <time>2023-01-04T10:25:33.055Z</time>
      </trkpt>
      <trkpt lat="43.52872" lon="1.50831">
        <ele>197.116889</ele>
        <time>2023-01-04T10:25:35.054Z</time>
      </trkpt>
      <trkpt lat="43.52859" lon="1.50841">
        <ele>197.115837</ele>
        <time>2023-01-04T10:25:38.067Z</time>
      </trkpt>
      <trkpt lat="43.52847" lon="1.50849">
        <ele>197.114844</ele>
        <time>2023-01-04T10:25:41.043Z</time>
      </trkpt>
      <trkpt lat="43.52838" lon="1.50854">
        <ele>197.114155</ele>
        <time>2023-01-04T10:25:43.058Z</time>
      </trkpt>
      <trkpt lat="43.52829" lon="1.50859">
        <ele>197.11343</ele>
        <time>2023-01-04T10:25:45.055Z</time>
      </trkpt>
      <trkpt lat="43.5282" lon="1.50865">
        <ele>197.112741</ele>
        <time>2023-01-04T10:25:47.057Z</time>
      </trkpt>
      <trkpt lat="43.52807" lon="1.50872">
        <ele>197.111707</ele>
        <time>2023-01-04T10:25:50.043Z</time>
      </trkpt>
      <trkpt lat="43.52798" lon="1.50876">
        <ele>197.111002</ele>
        <time>2023-01-04T10:25:52.051Z</time>
      </trkpt>
      <trkpt lat="43.52789" lon="1.50882">
        <ele>197.110256</ele>
        <time>2023-01-04T10:25:54.057Z</time>
      </trkpt>
      <trkpt lat="43.5278" lon="1.50888">
        <ele>197.109543</ele>
        <time>2023-01-04T10:25:56.033Z</time>
      </trkpt>
      <trkpt lat="43.52772" lon="1.50895">
        <ele>197.108874</ele>
        <time>2023-01-04T10:25:58.058Z</time>
      </trkpt>
      <trkpt lat="43.52762" lon="1.50905">
        <ele>197.107961</ele>
        <time>2023-01-04T10:26:01.056Z</time>
      </trkpt>
      <trkpt lat="43.52753" lon="1.50916">
        <ele>197.107078</ele>
        <time>2023-01-04T10:26:04.056Z</time>
      </trkpt>
      <trkpt lat="43.52745" lon="1.50927">
        <ele>197.106275</ele>
        <time>2023-01-04T10:26:07.056Z</time>
      </trkpt>
      <trkpt lat="43.52738" lon="1.50939">
        <ele>197.123357</ele>
        <time>2023-01-04T10:26:10.056Z</time>
      </trkpt>
      <trkpt lat="43.5273" lon="1.50949">
        <ele>197.153342</ele>
        <time>2023-01-04T10:26:13.062Z</time>
      </trkpt>
      <trkpt lat="43.52724" lon="1.50959">
        <ele>197.180778</ele>
        <time>2023-01-04T10:26:16.054Z</time>
      </trkpt>
      <trkpt lat="43.52717" lon="1.50972">
        <ele>197.214124</ele>
        <time>2023-01-04T10:26:19.056Z</time>
      </trkpt>
      <trkpt lat="43.52711" lon="1.50983">
        <ele>197.244361</ele>
        <time>2023-01-04T10:26:22.054Z</time>
      </trkpt>
      <trkpt lat="43.52704" lon="1.50996">
        <ele>197.278918</ele>
        <time>2023-01-04T10:26:25.054Z</time>
      </trkpt>
      <trkpt lat="43.52699" lon="1.51008">
        <ele>197.309712</ele>
        <time>2023-01-04T10:26:28.048Z</time>
      </trkpt>
      <trkpt lat="43.52694" lon="1.51019">
        <ele>197.336622</ele>
        <time>2023-01-04T10:26:30.053Z</time>
      </trkpt>
      <trkpt lat="43.52689" lon="1.51033">
        <ele>197.371033</ele>
        <time>2023-01-04T10:26:33.058Z</time>
      </trkpt>
      <trkpt lat="43.52683" lon="1.51048">
        <ele>197.407027</ele>
        <time>2023-01-04T10:26:36.058Z</time>
      </trkpt>
      <trkpt lat="43.52678" lon="1.51066">
        <ele>197.447765</ele>
        <time>2023-01-04T10:26:39.053Z</time>
      </trkpt>
      <trkpt lat="43.52673" lon="1.51085">
        <ele>197.490436</ele>
        <time>2023-01-04T10:26:42.053Z</time>
      </trkpt>
      <trkpt lat="43.5267" lon="1.51098">
        <ele>197.520436</ele>
        <time>2023-01-04T10:26:44.054Z</time>
      </trkpt>
      <trkpt lat="43.52666" lon="1.51112">
        <ele>197.55217</ele>
        <time>2023-01-04T10:26:46.057Z</time>
      </trkpt>
      <trkpt lat="43.52662" lon="1.51129">
        <ele>197.590392</ele>
        <time>2023-01-04T10:26:49.057Z</time>
      </trkpt>
      <trkpt lat="43.52659" lon="1.51143">
        <ele>197.620955</ele>
        <time>2023-01-04T10:26:51.032Z</time>
      </trkpt>
      <trkpt lat="43.52657" lon="1.51156">
        <ele>197.588804</ele>
        <time>2023-01-04T10:26:53.054Z</time>
      </trkpt>
      <trkpt lat="43.52654" lon="1.51174">
        <ele>197.456774</ele>
        <time>2023-01-04T10:26:56.054Z</time>
      </trkpt>
      <trkpt lat="43.52652" lon="1.51191">
        <ele>197.331616</ele>
        <time>2023-01-04T10:26:59.055Z</time>
      </trkpt>
      <trkpt lat="43.5265" lon="1.51209">
        <ele>197.203643</ele>
        <time>2023-01-04T10:27:02.047Z</time>
      </trkpt>
      <trkpt lat="43.52649" lon="1.51221">
        <ele>197.113912</ele>
        <time>2023-01-04T10:27:04.052Z</time>
      </trkpt>
      <trkpt lat="43.52648" lon="1.51234">
        <ele>197.023161</ele>
        <time>2023-01-04T10:27:06.067Z</time>
      </trkpt>
      <trkpt lat="43.52648" lon="1.51247">
        <ele>196.929684</ele>
        <time>2023-01-04T10:27:08.057Z</time>
      </trkpt>
      <trkpt lat="43.52647" lon="1.5126">
        <ele>196.835314</ele>
        <time>2023-01-04T10:27:10.054Z</time>
      </trkpt>
      <trkpt lat="43.52647" lon="1.51273">
        <ele>196.742301</ele>
        <time>2023-01-04T10:27:12.055Z</time>
      </trkpt>
      <trkpt lat="43.52646" lon="1.51286">
        <ele>196.650209</ele>
        <time>2023-01-04T10:27:14.054Z</time>
      </trkpt>
      <trkpt lat="43.52646" lon="1.51299">
        <ele>196.557404</ele>
        <time>2023-01-04T10:27:16.054Z</time>
      </trkpt>
      <trkpt lat="43.52646" lon="1.51316">
        <ele>196.435961</ele>
        <time>2023-01-04T10:27:19.058Z</time>
      </trkpt>
      <trkpt lat="43.52645" lon="1.51333">
        <ele>196.316657</ele>
        <time>2023-01-04T10:27:22.056Z</time>
      </trkpt>
      <trkpt lat="43.52644" lon="1.5135">
        <ele>196.191651</ele>
        <time>2023-01-04T10:27:25.053Z</time>
      </trkpt>
      <trkpt lat="43.52643" lon="1.51363">
        <ele>196.102732</ele>
        <time>2023-01-04T10:27:27.053Z</time>
      </trkpt>
      <trkpt lat="43.52642" lon="1.51376">
        <ele>196.008517</ele>
        <time>2023-01-04T10:27:29.052Z</time>
      </trkpt>
      <trkpt lat="43.52641" lon="1.51389">
        <ele>195.912477</ele>
        <time>2023-01-04T10:27:31.053Z</time>
      </trkpt>
      <trkpt lat="43.5264" lon="1.51402">
        <ele>195.936271</ele>
        <time>2023-01-04T10:27:33.036Z</time>
      </trkpt>
      <trkpt lat="43.5264" lon="1.51418">
        <ele>196.100172</ele>
        <time>2023-01-04T10:27:35.058Z</time>
      </trkpt>
      <trkpt lat="43.52638" lon="1.51434">
        <ele>196.270192</ele>
        <time>2023-01-04T10:27:37.058Z</time>
      </trkpt>
      <trkpt lat="43.52636" lon="1.5145">
        <ele>196.447547</ele>
        <time>2023-01-04T10:27:39.053Z</time>
      </trkpt>
      <trkpt lat="43.52634" lon="1.51466">
        <ele>196.621997</ele>
        <time>2023-01-04T10:27:41.039Z</time>
      </trkpt>
      <trkpt lat="43.52632" lon="1.51483">
        <ele>196.796699</ele>
        <time>2023-01-04T10:27:43.054Z</time>
      </trkpt>
      <trkpt lat="43.5263" lon="1.51498">
        <ele>196.962065</ele>
        <time>2023-01-04T10:27:45.055Z</time>
      </trkpt>
      <trkpt lat="43.52628" lon="1.51512">
        <ele>197.118597</ele>
        <time>2023-01-04T10:27:47.057Z</time>
      </trkpt>
      <trkpt lat="43.52626" lon="1.51526">
        <ele>197.266326</ele>
        <time>2023-01-04T10:27:49.054Z</time>
      </trkpt>
      <trkpt lat="43.52625" lon="1.51539">
        <ele>197.403534</ele>
        <time>2023-01-04T10:27:51.055Z</time>
      </trkpt>
      <trkpt lat="43.52623" lon="1.51551">
        <ele>197.535417</ele>
        <time>2023-01-04T10:27:53.054Z</time>
      </trkpt>
      <trkpt lat="43.52616" lon="1.51565">
        <ele>197.712497</ele>
        <time>2023-01-04T10:27:56.055Z</time>
      </trkpt>
      <trkpt lat="43.52613" lon="1.5158">
        <ele>197.886739</ele>
        <time>2023-01-04T10:27:59.055Z</time>
      </trkpt>
      <trkpt lat="43.52609" lon="1.51596">
        <ele>198.065401</ele>
        <time>2023-01-04T10:28:02.050Z</time>
      </trkpt>
      <trkpt lat="43.52606" lon="1.51608">
        <ele>198.198636</ele>
        <time>2023-01-04T10:28:04.055Z</time>
      </trkpt>
      <trkpt lat="43.52601" lon="1.51626">
        <ele>198.397243</ele>
        <time>2023-01-04T10:28:07.056Z</time>
      </trkpt>
      <trkpt lat="43.52597" lon="1.51638">
        <ele>198.564203</ele>
        <time>2023-01-04T10:28:09.048Z</time>
      </trkpt>
      <trkpt lat="43.52593" lon="1.5165">
        <ele>198.787134</ele>
        <time>2023-01-04T10:28:11.056Z</time>
      </trkpt>
      <trkpt lat="43.52589" lon="1.51662">
        <ele>199.014751</ele>
        <time>2023-01-04T10:28:13.057Z</time>
      </trkpt>
      <trkpt lat="43.52586" lon="1.51675">
        <ele>199.253834</ele>
        <time>2023-01-04T10:28:15.053Z</time>
      </trkpt>
      <trkpt lat="43.52582" lon="1.51687">
        <ele>199.484589</ele>
        <time>2023-01-04T10:28:17.055Z</time>
      </trkpt>
      <trkpt lat="43.52577" lon="1.517">
        <ele>199.72879</ele>
        <time>2023-01-04T10:28:19.062Z</time>
      </trkpt>
      <trkpt lat="43.52573" lon="1.51711">
        <ele>199.945301</ele>
        <time>2023-01-04T10:28:21.045Z</time>
      </trkpt>
      <trkpt lat="43.52567" lon="1.51722">
        <ele>200.183279</ele>
        <time>2023-01-04T10:28:23.057Z</time>
      </trkpt>
      <trkpt lat="43.52562" lon="1.51734">
        <ele>200.419786</ele>
        <time>2023-01-04T10:28:25.058Z</time>
      </trkpt>
      <trkpt lat="43.52557" lon="1.51745">
        <ele>200.651589</ele>
        <time>2023-01-04T10:28:27.052Z</time>
      </trkpt>
      <trkpt lat="43.52551" lon="1.51756">
        <ele>200.873447</ele>
        <time>2023-01-04T10:28:29.056Z</time>
      </trkpt>
      <trkpt lat="43.52546" lon="1.51767">
        <ele>201.107873</ele>
        <time>2023-01-04T10:28:31.041Z</time>
      </trkpt>
      <trkpt lat="43.5254" lon="1.51778">
        <ele>201.339487</ele>
        <time>2023-01-04T10:28:33.056Z</time>
      </trkpt>
      <trkpt lat="43.52533" lon="1.51787">
        <ele>201.578246</ele>
        <time>2023-01-04T10:28:35.059Z</time>
      </trkpt>
      <trkpt lat="43.52525" lon="1.51797">
        <ele>201.825125</ele>
        <time>2023-01-04T10:28:37.054Z</time>
      </trkpt>
      <trkpt lat="43.52517" lon="1.51805">
        <ele>202.066219</ele>
        <time>2023-01-04T10:28:39.058Z</time>
      </trkpt>
      <trkpt lat="43.52509" lon="1.51813">
        <ele>202.297153</ele>
        <time>2023-01-04T10:28:41.057Z</time>
      </trkpt>
      <trkpt lat="43.52501" lon="1.5182">
        <ele>202.519621</ele>
        <time>2023-01-04T10:28:43.056Z</time>
      </trkpt>
      <trkpt lat="43.5249" lon="1.5183">
        <ele>202.780763</ele>
        <time>2023-01-04T10:28:46.053Z</time>
      </trkpt>
      <trkpt lat="43.5248" lon="1.51838">
        <ele>202.817003</ele>
        <time>2023-01-04T10:28:49.057Z</time>
      </trkpt>
      <trkpt lat="43.52469" lon="1.51846">
        <ele>202.851797</ele>
        <time>2023-01-04T10:28:52.055Z</time>
      </trkpt>
      <trkpt lat="43.52459" lon="1.51853">
        <ele>202.887119</ele>
        <time>2023-01-04T10:28:55.057Z</time>
      </trkpt>
      <trkpt lat="43.52448" lon="1.5186">
        <ele>202.923143</ele>
        <time>2023-01-04T10:28:58.057Z</time>
      </trkpt>
      <trkpt lat="43.52437" lon="1.51866">
        <ele>202.95655</ele>
        <time>2023-01-04T10:29:01.056Z</time>
      </trkpt>
      <trkpt lat="43.52428" lon="1.51871">
        <ele>202.985288</ele>
        <time>2023-01-04T10:29:04.057Z</time>
      </trkpt>
      <trkpt lat="43.52417" lon="1.51875">
        <ele>203.019769</ele>
        <time>2023-01-04T10:29:08.054Z</time>
      </trkpt>
      <trkpt lat="43.52407" lon="1.51878">
        <ele>203.05015</ele>
        <time>2023-01-04T10:29:13.055Z</time>
      </trkpt>
      <trkpt lat="43.52398" lon="1.5188">
        <ele>203.07772</ele>
        <time>2023-01-04T10:29:18.058Z</time>
      </trkpt>
      <trkpt lat="43.52388" lon="1.5188">
        <ele>203.108392</ele>
        <time>2023-01-04T10:29:22.057Z</time>
      </trkpt>
      <trkpt lat="43.52377" lon="1.51883">
        <ele>203.140916</ele>
        <time>2023-01-04T10:29:26.054Z</time>
      </trkpt>
      <trkpt lat="43.52366" lon="1.51886">
        <ele>203.172505</ele>
        <time>2023-01-04T10:29:29.048Z</time>
      </trkpt>
      <trkpt lat="43.52357" lon="1.51888">
        <ele>203.199575</ele>
        <time>2023-01-04T10:29:32.060Z</time>
      </trkpt>
      <trkpt lat="43.52346" lon="1.5189">
        <ele>203.234897</ele>
        <time>2023-01-04T10:29:36.057Z</time>
      </trkpt>
      <trkpt lat="43.52336" lon="1.51895">
        <ele>203.264929</ele>
        <time>2023-01-04T10:29:39.055Z</time>
      </trkpt>
      <trkpt lat="43.52327" lon="1.519">
        <ele>203.295204</ele>
        <time>2023-01-04T10:29:42.057Z</time>
      </trkpt>
      <trkpt lat="43.52318" lon="1.51906">
        <ele>203.360561</ele>
        <time>2023-01-04T10:29:45.057Z</time>
      </trkpt>
      <trkpt lat="43.52308" lon="1.51912">
        <ele>203.464022</ele>
        <time>2023-01-04T10:29:49.055Z</time>
      </trkpt>
      <trkpt lat="43.52299" lon="1.51916">
        <ele>203.55069</ele>
        <time>2023-01-04T10:29:52.059Z</time>
      </trkpt>
      <trkpt lat="43.5229" lon="1.51919">
        <ele>203.642671</ele>
        <time>2023-01-04T10:29:55.056Z</time>
      </trkpt>
      <trkpt lat="43.52281" lon="1.51922">
        <ele>203.734148</ele>
        <time>2023-01-04T10:29:58.053Z</time>
      </trkpt>
      <trkpt lat="43.5227" lon="1.51927">
        <ele>203.842415</ele>
        <time>2023-01-04T10:30:01.054Z</time>
      </trkpt>
      <trkpt lat="43.52259" lon="1.51932">
        <ele>203.954782</ele>
        <time>2023-01-04T10:30:04.056Z</time>
      </trkpt>
      <trkpt lat="43.52247" lon="1.51937">
        <ele>204.071861</ele>
        <time>2023-01-04T10:30:07.057Z</time>
      </trkpt>
      <trkpt lat="43.52235" lon="1.51943">
        <ele>204.191673</ele>
        <time>2023-01-04T10:30:10.040Z</time>
      </trkpt>
      <trkpt lat="43.52222" lon="1.51946">
        <ele>204.314888</ele>
        <time>2023-01-04T10:30:13.053Z</time>
      </trkpt>
      <trkpt lat="43.5221" lon="1.51949">
        <ele>204.431131</ele>
        <time>2023-01-04T10:30:16.056Z</time>
      </trkpt>
      <trkpt lat="43.52197" lon="1.51953">
        <ele>204.562097</ele>
        <time>2023-01-04T10:30:19.057Z</time>
      </trkpt>
      <trkpt lat="43.52184" lon="1.51954">
        <ele>204.683371</ele>
        <time>2023-01-04T10:30:22.054Z</time>
      </trkpt>
      <trkpt lat="43.52175" lon="1.51955">
        <ele>204.773157</ele>
        <time>2023-01-04T10:30:24.057Z</time>
      </trkpt>
      <trkpt lat="43.52164" lon="1.51956">
        <ele>204.873747</ele>
        <time>2023-01-04T10:30:26.057Z</time>
      </trkpt>
      <trkpt lat="43.52155" lon="1.51953">
        <ele>204.971262</ele>
        <time>2023-01-04T10:30:28.039Z</time>
      </trkpt>
      <trkpt lat="43.52144" lon="1.51954">
        <ele>204.992579</ele>
        <time>2023-01-04T10:30:30.056Z</time>
      </trkpt>
      <trkpt lat="43.52134" lon="1.51954">
        <ele>204.935369</ele>
        <time>2023-01-04T10:30:32.056Z</time>
      </trkpt>
      <trkpt lat="43.52121" lon="1.51956">
        <ele>204.854998</ele>
        <time>2023-01-04T10:30:35.041Z</time>
      </trkpt>
      <trkpt lat="43.52111" lon="1.5196">
        <ele>204.793756</ele>
        <time>2023-01-04T10:30:37.042Z</time>
      </trkpt>
      <trkpt lat="43.521" lon="1.51965">
        <ele>204.727933</ele>
        <time>2023-01-04T10:30:39.038Z</time>
      </trkpt>
      <trkpt lat="43.52091" lon="1.51971">
        <ele>204.667106</ele>
        <time>2023-01-04T10:30:41.054Z</time>
      </trkpt>
      <trkpt lat="43.52081" lon="1.5198">
        <ele>204.596699</ele>
        <time>2023-01-04T10:30:43.036Z</time>
      </trkpt>
      <trkpt lat="43.52072" lon="1.51986">
        <ele>204.537312</ele>
        <time>2023-01-04T10:30:45.059Z</time>
      </trkpt>
      <trkpt lat="43.5206" lon="1.51994">
        <ele>204.458174</ele>
        <time>2023-01-04T10:30:48.063Z</time>
      </trkpt>
      <trkpt lat="43.52049" lon="1.52">
        <ele>204.384746</ele>
        <time>2023-01-04T10:30:51.058Z</time>
      </trkpt>
      <trkpt lat="43.52038" lon="1.52005">
        <ele>204.318823</ele>
        <time>2023-01-04T10:30:54.056Z</time>
      </trkpt>
      <trkpt lat="43.5203" lon="1.52012">
        <ele>204.257623</ele>
        <time>2023-01-04T10:30:56.045Z</time>
      </trkpt>
      <trkpt lat="43.52021" lon="1.52015">
        <ele>204.203579</ele>
        <time>2023-01-04T10:30:58.056Z</time>
      </trkpt>
      <trkpt lat="43.52011" lon="1.52018">
        <ele>204.145774</ele>
        <time>2023-01-04T10:31:00.057Z</time>
      </trkpt>
      <trkpt lat="43.52002" lon="1.52021">
        <ele>204.087284</ele>
        <time>2023-01-04T10:31:02.053Z</time>
      </trkpt>
      <trkpt lat="43.51988" lon="1.52023">
        <ele>204.003529</ele>
        <time>2023-01-04T10:31:05.062Z</time>
      </trkpt>
      <trkpt lat="43.51977" lon="1.52024">
        <ele>203.921968</ele>
        <time>2023-01-04T10:31:07.060Z</time>
      </trkpt>
      <trkpt lat="43.51968" lon="1.52023">
        <ele>203.799982</ele>
        <time>2023-01-04T10:31:09.047Z</time>
      </trkpt>
      <trkpt lat="43.51958" lon="1.52018">
        <ele>203.665018</ele>
        <time>2023-01-04T10:31:11.055Z</time>
      </trkpt>
      <trkpt lat="43.51946" lon="1.52016">
        <ele>203.514299</ele>
        <time>2023-01-04T10:31:13.059Z</time>
      </trkpt>
      <trkpt lat="43.51935" lon="1.52013">
        <ele>203.367036</ele>
        <time>2023-01-04T10:31:15.056Z</time>
      </trkpt>
      <trkpt lat="43.51924" lon="1.5201">
        <ele>203.215188</ele>
        <time>2023-01-04T10:31:17.055Z</time>
      </trkpt>
      <trkpt lat="43.51912" lon="1.52007">
        <ele>203.056438</ele>
        <time>2023-01-04T10:31:19.057Z</time>
      </trkpt>
      <trkpt lat="43.51902" lon="1.52001">
        <ele>202.913064</ele>
        <time>2023-01-04T10:31:21.044Z</time>
      </trkpt>
      <trkpt lat="43.51891" lon="1.51997">
        <ele>202.769124</ele>
        <time>2023-01-04T10:31:23.038Z</time>
      </trkpt>
      <trkpt lat="43.51878" lon="1.51991">
        <ele>202.592985</ele>
        <time>2023-01-04T10:31:26.059Z</time>
      </trkpt>
      <trkpt lat="43.51866" lon="1.51985">
        <ele>202.427328</ele>
        <time>2023-01-04T10:31:29.056Z</time>
      </trkpt>
      <trkpt lat="43.51857" lon="1.51981">
        <ele>202.301623</ele>
        <time>2023-01-04T10:31:31.055Z</time>
      </trkpt>
      <trkpt lat="43.51846" lon="1.51977">
        <ele>202.157713</ele>
        <time>2023-01-04T10:31:33.052Z</time>
      </trkpt>
      <trkpt lat="43.51838" lon="1.51973">
        <ele>202.039604</ele>
        <time>2023-01-04T10:31:35.056Z</time>
      </trkpt>
      <trkpt lat="43.51828" lon="1.51972">
        <ele>201.911392</ele>
        <time>2023-01-04T10:31:37.057Z</time>
      </trkpt>
      <trkpt lat="43.51818" lon="1.51971">
        <ele>201.780031</ele>
        <time>2023-01-04T10:31:39.054Z</time>
      </trkpt>
      <trkpt lat="43.51808" lon="1.51973">
        <ele>201.658384</ele>
        <time>2023-01-04T10:31:41.061Z</time>
      </trkpt>
      <trkpt lat="43.51799" lon="1.51975">
        <ele>201.769981</ele>
        <time>2023-01-04T10:31:44.057Z</time>
      </trkpt>
      <trkpt lat="43.5179" lon="1.5198">
        <ele>201.995035</ele>
        <time>2023-01-04T10:31:46.055Z</time>
      </trkpt>
      <trkpt lat="43.51778" lon="1.51986">
        <ele>202.309865</ele>
        <time>2023-01-04T10:31:49.061Z</time>
      </trkpt>
      <trkpt lat="43.51768" lon="1.51994">
        <ele>202.576702</ele>
        <time>2023-01-04T10:31:51.048Z</time>
      </trkpt>
      <trkpt lat="43.51756" lon="1.52004">
        <ele>202.904529</ele>
        <time>2023-01-04T10:31:54.056Z</time>
      </trkpt>
      <trkpt lat="43.51748" lon="1.5201">
        <ele>203.123075</ele>
        <time>2023-01-04T10:31:56.057Z</time>
      </trkpt>
      <trkpt lat="43.51739" lon="1.52018">
        <ele>203.383748</ele>
        <time>2023-01-04T10:31:58.056Z</time>
      </trkpt>
      <trkpt lat="43.5173" lon="1.52023">
        <ele>203.614837</ele>
        <time>2023-01-04T10:32:00.069Z</time>
      </trkpt>
      <trkpt lat="43.51722" lon="1.52029">
        <ele>203.835856</ele>
        <time>2023-01-04T10:32:02.057Z</time>
      </trkpt>
      <trkpt lat="43.51712" lon="1.52036">
        <ele>204.100161</ele>
        <time>2023-01-04T10:32:04.038Z</time>
      </trkpt>
      <trkpt lat="43.51703" lon="1.52042">
        <ele>204.332339</ele>
        <time>2023-01-04T10:32:06.041Z</time>
      </trkpt>
      <trkpt lat="43.51692" lon="1.52046">
        <ele>204.605677</ele>
        <time>2023-01-04T10:32:09.054Z</time>
      </trkpt>
      <trkpt lat="43.51681" lon="1.52053">
        <ele>204.908907</ele>
        <time>2023-01-04T10:32:12.054Z</time>
      </trkpt>
      <trkpt lat="43.51671" lon="1.52057">
        <ele>205.15003</ele>
        <time>2023-01-04T10:32:14.056Z</time>
      </trkpt>
      <trkpt lat="43.51662" lon="1.52061">
        <ele>205.378581</ele>
        <time>2023-01-04T10:32:16.057Z</time>
      </trkpt>
      <trkpt lat="43.51652" lon="1.52066">
        <ele>205.632153</ele>
        <time>2023-01-04T10:32:18.057Z</time>
      </trkpt>
      <trkpt lat="43.51642" lon="1.52064">
        <ele>205.881758</ele>
        <time>2023-01-04T10:32:21.056Z</time>
      </trkpt>
      <trkpt lat="43.51632" lon="1.52061">
        <ele>205.923837</ele>
        <time>2023-01-04T10:32:24.055Z</time>
      </trkpt>
      <trkpt lat="43.51619" lon="1.52062">
        <ele>205.927636</ele>
        <time>2023-01-04T10:32:27.057Z</time>
      </trkpt>
      <trkpt lat="43.51608" lon="1.5206">
        <ele>205.93073</ele>
        <time>2023-01-04T10:32:29.045Z</time>
      </trkpt>
      <trkpt lat="43.51599" lon="1.52056">
        <ele>205.933317</ele>
        <time>2023-01-04T10:32:31.049Z</time>
      </trkpt>
      <trkpt lat="43.51587" lon="1.5205">
        <ele>205.936902</ele>
        <time>2023-01-04T10:32:34.054Z</time>
      </trkpt>
      <trkpt lat="43.51578" lon="1.52039">
        <ele>205.940161</ele>
        <time>2023-01-04T10:32:37.067Z</time>
      </trkpt>
      <trkpt lat="43.5157" lon="1.52029">
        <ele>205.943269</ele>
        <time>2023-01-04T10:32:40.057Z</time>
      </trkpt>
      <trkpt lat="43.51562" lon="1.52018">
        <ele>205.946405</ele>
        <time>2023-01-04T10:32:43.053Z</time>
      </trkpt>
      <trkpt lat="43.51554" lon="1.52005">
        <ele>205.949965</ele>
        <time>2023-01-04T10:32:46.054Z</time>
      </trkpt>
      <trkpt lat="43.51546" lon="1.51997">
        <ele>205.952693</ele>
        <time>2023-01-04T10:32:48.057Z</time>
      </trkpt>
      <trkpt lat="43.51539" lon="1.51989">
        <ele>205.955295</ele>
        <time>2023-01-04T10:32:50.057Z</time>
      </trkpt>
      <trkpt lat="43.51529" lon="1.51978">
        <ele>205.958863</ele>
        <time>2023-01-04T10:32:53.057Z</time>
      </trkpt>
      <trkpt lat="43.51522" lon="1.5197">
        <ele>205.961411</ele>
        <time>2023-01-04T10:32:55.054Z</time>
      </trkpt>
      <trkpt lat="43.51515" lon="1.51962">
        <ele>205.96407</ele>
        <time>2023-01-04T10:32:57.056Z</time>
      </trkpt>
      <trkpt lat="43.51508" lon="1.51953">
        <ele>205.966789</ele>
        <time>2023-01-04T10:32:59.056Z</time>
      </trkpt>
      <trkpt lat="43.51501" lon="1.51945">
        <ele>205.96935</ele>
        <time>2023-01-04T10:33:01.043Z</time>
      </trkpt>
      <trkpt lat="43.51493" lon="1.5193">
        <ele>205.957945</ele>
        <time>2023-01-04T10:33:04.053Z</time>
      </trkpt>
      <trkpt lat="43.51488" lon="1.5192">
        <ele>205.915111</ele>
        <time>2023-01-04T10:33:06.047Z</time>
      </trkpt>
      <trkpt lat="43.51483" lon="1.51909">
        <ele>205.871463</ele>
        <time>2023-01-04T10:33:08.067Z</time>
      </trkpt>
      <trkpt lat="43.51478" lon="1.51894">
        <ele>205.815022</ele>
        <time>2023-01-04T10:33:11.062Z</time>
      </trkpt>
      <trkpt lat="43.51476" lon="1.5188">
        <ele>205.765993</ele>
        <time>2023-01-04T10:33:14.061Z</time>
      </trkpt>
      <trkpt lat="43.51474" lon="1.51864">
        <ele>205.711524</ele>
        <time>2023-01-04T10:33:16.058Z</time>
      </trkpt>
      <trkpt lat="43.51473" lon="1.51851">
        <ele>205.666582</ele>
        <time>2023-01-04T10:33:18.054Z</time>
      </trkpt>
      <trkpt lat="43.51473" lon="1.51837">
        <ele>205.618418</ele>
        <time>2023-01-04T10:33:21.069Z</time>
      </trkpt>
      <trkpt lat="43.51471" lon="1.51825">
        <ele>205.575398</ele>
        <time>2023-01-04T10:33:25.047Z</time>
      </trkpt>
      <trkpt lat="43.51465" lon="1.51816">
        <ele>205.530713</ele>
        <time>2023-01-04T10:33:29.040Z</time>
      </trkpt>
      <trkpt lat="43.51454" lon="1.51811">
        <ele>205.478329</ele>
        <time>2023-01-04T10:33:32.059Z</time>
      </trkpt>
      <trkpt lat="43.51444" lon="1.51807">
        <ele>205.430702</ele>
        <time>2023-01-04T10:33:35.042Z</time>
      </trkpt>
      <trkpt lat="43.51434" lon="1.51803">
        <ele>205.380169</ele>
        <time>2023-01-04T10:33:38.056Z</time>
      </trkpt>
      <trkpt lat="43.51424" lon="1.51799">
        <ele>205.329127</ele>
        <time>2023-01-04T10:33:41.044Z</time>
      </trkpt>
      <trkpt lat="43.51413" lon="1.51794">
        <ele>205.276294</ele>
        <time>2023-01-04T10:33:44.057Z</time>
      </trkpt>
      <trkpt lat="43.51404" lon="1.51784">
        <ele>205.224023</ele>
        <time>2023-01-04T10:33:47.051Z</time>
      </trkpt>
      <trkpt lat="43.51402" lon="1.51769">
        <ele>205.169972</ele>
        <time>2023-01-04T10:33:50.055Z</time>
      </trkpt>
      <trkpt lat="43.51401" lon="1.51752">
        <ele>205.130028</ele>
        <time>2023-01-04T10:33:53.058Z</time>
      </trkpt>
      <trkpt lat="43.514" lon="1.51736">
        <ele>205.148319</ele>
        <time>2023-01-04T10:33:56.054Z</time>
      </trkpt>
      <trkpt lat="43.51397" lon="1.51722">
        <ele>205.16511</ele>
        <time>2023-01-04T10:33:59.059Z</time>
      </trkpt>
      <trkpt lat="43.51387" lon="1.51718">
        <ele>205.180729</ele>
        <time>2023-01-04T10:34:02.057Z</time>
      </trkpt>
      <trkpt lat="43.51376" lon="1.51721">
        <ele>205.197923</ele>
        <time>2023-01-04T10:34:05.067Z</time>
      </trkpt>
      <trkpt lat="43.51365" lon="1.51723">
        <ele>205.215973</ele>
        <time>2023-01-04T10:34:08.066Z</time>
      </trkpt>
      <trkpt lat="43.51354" lon="1.51725">
        <ele>205.232747</ele>
        <time>2023-01-04T10:34:11.053Z</time>
      </trkpt>
      <trkpt lat="43.51345" lon="1.51716">
        <ele>205.24875</ele>
        <time>2023-01-04T10:34:14.038Z</time>
      </trkpt>
      <trkpt lat="43.5134" lon="1.51705">
        <ele>205.264068</ele>
        <time>2023-01-04T10:34:17.039Z</time>
      </trkpt>
      <trkpt lat="43.51334" lon="1.51695">
        <ele>205.278799</ele>
        <time>2023-01-04T10:34:20.061Z</time>
      </trkpt>
      <trkpt lat="43.51326" lon="1.51688">
        <ele>205.292962</ele>
        <time>2023-01-04T10:34:23.056Z</time>
      </trkpt>
      <trkpt lat="43.51315" lon="1.51686">
        <ele>205.310791</ele>
        <time>2023-01-04T10:34:27.054Z</time>
      </trkpt>
      <trkpt lat="43.51303" lon="1.51689">
        <ele>205.328615</ele>
        <time>2023-01-04T10:34:30.058Z</time>
      </trkpt>
      <trkpt lat="43.51293" lon="1.51692">
        <ele>205.344854</ele>
        <time>2023-01-04T10:34:33.057Z</time>
      </trkpt>
      <trkpt lat="43.5128" lon="1.51695">
        <ele>205.36546</ele>
        <time>2023-01-04T10:34:36.066Z</time>
      </trkpt>
      <trkpt lat="43.51269" lon="1.517">
        <ele>205.382741</ele>
        <time>2023-01-04T10:34:38.038Z</time>
      </trkpt>
      <trkpt lat="43.5126" lon="1.51702">
        <ele>205.39669</ele>
        <time>2023-01-04T10:34:40.053Z</time>
      </trkpt>
      <trkpt lat="43.5125" lon="1.51705">
        <ele>205.451371</ele>
        <time>2023-01-04T10:34:42.066Z</time>
      </trkpt>
      <trkpt lat="43.51241" lon="1.51709">
        <ele>205.541674</ele>
        <time>2023-01-04T10:34:44.075Z</time>
      </trkpt>
      <trkpt lat="43.51231" lon="1.51712">
        <ele>205.629366</ele>
        <time>2023-01-04T10:34:46.054Z</time>
      </trkpt>
      <trkpt lat="43.51218" lon="1.51715">
        <ele>205.75124</ele>
        <time>2023-01-04T10:34:49.066Z</time>
      </trkpt>
      <trkpt lat="43.51206" lon="1.51719">
        <ele>205.862034</ele>
        <time>2023-01-04T10:34:52.037Z</time>
      </trkpt>
      <trkpt lat="43.51197" lon="1.51722">
        <ele>205.947331</ele>
        <time>2023-01-04T10:34:54.059Z</time>
      </trkpt>
      <trkpt lat="43.51185" lon="1.51725">
        <ele>206.058829</ele>
        <time>2023-01-04T10:34:57.040Z</time>
      </trkpt>
      <trkpt lat="43.5117" lon="1.51724">
        <ele>206.189553</ele>
        <time>2023-01-04T10:35:00.056Z</time>
      </trkpt>
      <trkpt lat="43.5116" lon="1.51728">
        <ele>206.283345</ele>
        <time>2023-01-04T10:35:02.067Z</time>
      </trkpt>
      <trkpt lat="43.51151" lon="1.5173">
        <ele>206.368441</ele>
        <time>2023-01-04T10:35:04.049Z</time>
      </trkpt>
      <trkpt lat="43.51138" lon="1.51733">
        <ele>206.480322</ele>
        <time>2023-01-04T10:35:07.050Z</time>
      </trkpt>
      <trkpt lat="43.5113" lon="1.51736">
        <ele>206.562993</ele>
        <time>2023-01-04T10:35:10.056Z</time>
      </trkpt>
      <trkpt lat="43.5112" lon="1.51742">
        <ele>206.655216</ele>
        <time>2023-01-04T10:35:18.049Z</time>
      </trkpt>
      <trkpt lat="43.51112" lon="1.51747">
        <ele>206.741144</ele>
        <time>2023-01-04T10:35:31.036Z</time>
      </trkpt>
      <trkpt lat="43.51103" lon="1.5175">
        <ele>206.824385</ele>
        <time>2023-01-04T10:35:35.055Z</time>
      </trkpt>
      <trkpt lat="43.51093" lon="1.51753">
        <ele>206.911878</ele>
        <time>2023-01-04T10:35:39.059Z</time>
      </trkpt>
      <trkpt lat="43.51081" lon="1.51755">
        <ele>207.018318</ele>
        <time>2023-01-04T10:35:43.055Z</time>
      </trkpt>
      <trkpt lat="43.51072" lon="1.51759">
        <ele>207.205456</ele>
        <time>2023-01-04T10:35:46.059Z</time>
      </trkpt>
      <trkpt lat="43.51063" lon="1.51762">
        <ele>207.381437</ele>
        <time>2023-01-04T10:35:49.055Z</time>
      </trkpt>
      <trkpt lat="43.51053" lon="1.51765">
        <ele>207.566551</ele>
        <time>2023-01-04T10:35:52.059Z</time>
      </trkpt>
      <trkpt lat="43.51043" lon="1.51768">
        <ele>207.759409</ele>
        <time>2023-01-04T10:35:55.044Z</time>
      </trkpt>
      <trkpt lat="43.51034" lon="1.5177">
        <ele>207.946729</ele>
        <time>2023-01-04T10:35:58.047Z</time>
      </trkpt>
      <trkpt lat="43.51023" lon="1.5177">
        <ele>208.141097</ele>
        <time>2023-01-04T10:36:01.061Z</time>
      </trkpt>
      <trkpt lat="43.51013" lon="1.51774">
        <ele>208.350511</ele>
        <time>2023-01-04T10:36:04.043Z</time>
      </trkpt>
      <trkpt lat="43.51003" lon="1.51779">
        <ele>208.554165</ele>
        <time>2023-01-04T10:36:07.057Z</time>
      </trkpt>
      <trkpt lat="43.50993" lon="1.51784">
        <ele>208.748752</ele>
        <time>2023-01-04T10:36:09.056Z</time>
      </trkpt>
      <trkpt lat="43.50981" lon="1.5179">
        <ele>209.000568</ele>
        <time>2023-01-04T10:36:12.058Z</time>
      </trkpt>
      <trkpt lat="43.50972" lon="1.51793">
        <ele>209.171124</ele>
        <time>2023-01-04T10:36:14.063Z</time>
      </trkpt>
      <trkpt lat="43.50962" lon="1.51799">
        <ele>209.373212</ele>
        <time>2023-01-04T10:36:16.057Z</time>
      </trkpt>
      <trkpt lat="43.50952" lon="1.51808">
        <ele>209.604837</ele>
        <time>2023-01-04T10:36:19.057Z</time>
      </trkpt>
      <trkpt lat="43.50943" lon="1.51817">
        <ele>209.822154</ele>
        <time>2023-01-04T10:36:22.036Z</time>
      </trkpt>
      <trkpt lat="43.50932" lon="1.51825">
        <ele>210.051604</ele>
        <time>2023-01-04T10:36:25.054Z</time>
      </trkpt>
      <trkpt lat="43.50921" lon="1.51836">
        <ele>210.312036</ele>
        <time>2023-01-04T10:36:28.048Z</time>
      </trkpt>
      <trkpt lat="43.5091" lon="1.51847">
        <ele>210.505368</ele>
        <time>2023-01-04T10:36:31.057Z</time>
      </trkpt>
      <trkpt lat="43.50902" lon="1.51855">
        <ele>210.585563</ele>
        <time>2023-01-04T10:36:33.054Z</time>
      </trkpt>
      <trkpt lat="43.50894" lon="1.51863">
        <ele>210.661394</ele>
        <time>2023-01-04T10:36:35.065Z</time>
      </trkpt>
      <trkpt lat="43.50884" lon="1.51873">
        <ele>210.766199</ele>
        <time>2023-01-04T10:36:38.060Z</time>
      </trkpt>
      <trkpt lat="43.50873" lon="1.51883">
        <ele>210.874769</ele>
        <time>2023-01-04T10:36:41.054Z</time>
      </trkpt>
      <trkpt lat="43.50863" lon="1.51893">
        <ele>210.977943</ele>
        <time>2023-01-04T10:36:44.068Z</time>
      </trkpt>
      <trkpt lat="43.50853" lon="1.51904">
        <ele>211.080627</ele>
        <time>2023-01-04T10:36:47.066Z</time>
      </trkpt>
      <trkpt lat="43.50846" lon="1.51913">
        <ele>211.159968</ele>
        <time>2023-01-04T10:36:49.051Z</time>
      </trkpt>
      <trkpt lat="43.50839" lon="1.51922">
        <ele>211.236706</ele>
        <time>2023-01-04T10:36:51.040Z</time>
      </trkpt>
      <trkpt lat="43.50829" lon="1.51934">
        <ele>211.344595</ele>
        <time>2023-01-04T10:36:54.059Z</time>
      </trkpt>
      <trkpt lat="43.50822" lon="1.51942">
        <ele>211.418316</ele>
        <time>2023-01-04T10:36:56.048Z</time>
      </trkpt>
      <trkpt lat="43.50815" lon="1.51951">
        <ele>211.498073</ele>
        <time>2023-01-04T10:36:58.064Z</time>
      </trkpt>
      <trkpt lat="43.50807" lon="1.51961">
        <ele>211.588297</ele>
        <time>2023-01-04T10:37:00.061Z</time>
      </trkpt>
      <trkpt lat="43.50798" lon="1.51971">
        <ele>211.677853</ele>
        <time>2023-01-04T10:37:02.073Z</time>
      </trkpt>
      <trkpt lat="43.50791" lon="1.51979">
        <ele>211.757849</ele>
        <time>2023-01-04T10:37:04.072Z</time>
      </trkpt>
      <trkpt lat="43.50784" lon="1.51988">
        <ele>211.834984</ele>
        <time>2023-01-04T10:37:06.063Z</time>
      </trkpt>
      <trkpt lat="43.50774" lon="1.52">
        <ele>211.883433</ele>
        <time>2023-01-04T10:37:09.056Z</time>
      </trkpt>
      <trkpt lat="43.50766" lon="1.52008">
        <ele>211.687202</ele>
        <time>2023-01-04T10:37:11.046Z</time>
      </trkpt>
      <trkpt lat="43.50754" lon="1.52019">
        <ele>211.418119</ele>
        <time>2023-01-04T10:37:14.056Z</time>
      </trkpt>
      <trkpt lat="43.50746" lon="1.52027">
        <ele>211.228354</ele>
        <time>2023-01-04T10:37:16.064Z</time>
      </trkpt>
      <trkpt lat="43.50738" lon="1.52034">
        <ele>211.050367</ele>
        <time>2023-01-04T10:37:18.055Z</time>
      </trkpt>
      <trkpt lat="43.50725" lon="1.52042">
        <ele>210.777725</ele>
        <time>2023-01-04T10:37:21.056Z</time>
      </trkpt>
      <trkpt lat="43.50716" lon="1.52047">
        <ele>210.594199</ele>
        <time>2023-01-04T10:37:23.056Z</time>
      </trkpt>
      <trkpt lat="43.50707" lon="1.52053">
        <ele>210.406577</ele>
        <time>2023-01-04T10:37:25.065Z</time>
      </trkpt>
      <trkpt lat="43.50698" lon="1.52056">
        <ele>210.226747</ele>
        <time>2023-01-04T10:37:27.046Z</time>
      </trkpt>
      <trkpt lat="43.50689" lon="1.52061">
        <ele>210.041985</ele>
        <time>2023-01-04T10:37:29.054Z</time>
      </trkpt>
      <trkpt lat="43.50677" lon="1.52064">
        <ele>209.810711</ele>
        <time>2023-01-04T10:37:32.049Z</time>
      </trkpt>
      <trkpt lat="43.50668" lon="1.52068">
        <ele>209.625722</ele>
        <time>2023-01-04T10:37:34.054Z</time>
      </trkpt>
      <trkpt lat="43.50655" lon="1.52071">
        <ele>209.36816</ele>
        <time>2023-01-04T10:37:37.055Z</time>
      </trkpt>
      <trkpt lat="43.50642" lon="1.52073">
        <ele>209.118168</ele>
        <time>2023-01-04T10:37:40.059Z</time>
      </trkpt>
      <trkpt lat="43.50632" lon="1.52076">
        <ele>208.935466</ele>
        <time>2023-01-04T10:37:42.055Z</time>
      </trkpt>
      <trkpt lat="43.5062" lon="1.52076">
        <ele>208.694561</ele>
        <time>2023-01-04T10:37:45.046Z</time>
      </trkpt>
      <trkpt lat="43.50607" lon="1.52077">
        <ele>208.479729</ele>
        <time>2023-01-04T10:37:48.041Z</time>
      </trkpt>
      <trkpt lat="43.50595" lon="1.52078">
        <ele>208.415558</ele>
        <time>2023-01-04T10:37:51.061Z</time>
      </trkpt>
      <trkpt lat="43.50583" lon="1.52079">
        <ele>208.356161</ele>
        <time>2023-01-04T10:37:54.056Z</time>
      </trkpt>
      <trkpt lat="43.50571" lon="1.5208">
        <ele>208.292468</ele>
        <time>2023-01-04T10:37:57.043Z</time>
      </trkpt>
      <trkpt lat="43.50558" lon="1.52082">
        <ele>208.223417</ele>
        <time>2023-01-04T10:38:00.061Z</time>
      </trkpt>
      <trkpt lat="43.50544" lon="1.52085">
        <ele>208.154682</ele>
        <time>2023-01-04T10:38:03.059Z</time>
      </trkpt>
      <trkpt lat="43.50532" lon="1.52089">
        <ele>208.090745</ele>
        <time>2023-01-04T10:38:06.061Z</time>
      </trkpt>
      <trkpt lat="43.50521" lon="1.52092">
        <ele>208.030213</ele>
        <time>2023-01-04T10:38:09.056Z</time>
      </trkpt>
      <trkpt lat="43.50512" lon="1.52098">
        <ele>207.983252</ele>
        <time>2023-01-04T10:38:11.067Z</time>
      </trkpt>
      <trkpt lat="43.50503" lon="1.52107">
        <ele>207.923833</ele>
        <time>2023-01-04T10:38:13.046Z</time>
      </trkpt>
      <trkpt lat="43.50492" lon="1.52115">
        <ele>207.859571</ele>
        <time>2023-01-04T10:38:16.049Z</time>
      </trkpt>
      <trkpt lat="43.50482" lon="1.52129">
        <ele>207.787332</ele>
        <time>2023-01-04T10:38:19.038Z</time>
      </trkpt>
      <trkpt lat="43.50475" lon="1.52138">
        <ele>207.740237</ele>
        <time>2023-01-04T10:38:21.043Z</time>
      </trkpt>
      <trkpt lat="43.50468" lon="1.52147">
        <ele>207.691514</ele>
        <time>2023-01-04T10:38:23.055Z</time>
      </trkpt>
      <trkpt lat="43.50458" lon="1.5216">
        <ele>207.622295</ele>
        <time>2023-01-04T10:38:26.067Z</time>
      </trkpt>
      <trkpt lat="43.50449" lon="1.52172">
        <ele>207.535705</ele>
        <time>2023-01-04T10:38:29.042Z</time>
      </trkpt>
      <trkpt lat="43.50442" lon="1.52186">
        <ele>207.376658</ele>
        <time>2023-01-04T10:38:32.067Z</time>
      </trkpt>
      <trkpt lat="43.50436" lon="1.522">
        <ele>207.236355</ele>
        <time>2023-01-04T10:38:35.060Z</time>
      </trkpt>
      <trkpt lat="43.50431" lon="1.52215">
        <ele>207.078539</ele>
        <time>2023-01-04T10:38:38.064Z</time>
      </trkpt>
      <trkpt lat="43.50428" lon="1.5223">
        <ele>206.929953</ele>
        <time>2023-01-04T10:38:41.055Z</time>
      </trkpt>
      <trkpt lat="43.50428" lon="1.52244">
        <ele>206.800869</ele>
        <time>2023-01-04T10:38:43.060Z</time>
      </trkpt>
      <trkpt lat="43.50429" lon="1.52257">
        <ele>206.675506</ele>
        <time>2023-01-04T10:38:45.069Z</time>
      </trkpt>
      <trkpt lat="43.50429" lon="1.5227">
        <ele>206.554406</ele>
        <time>2023-01-04T10:38:47.058Z</time>
      </trkpt>
      <trkpt lat="43.5043" lon="1.52288">
        <ele>206.388845</ele>
        <time>2023-01-04T10:38:50.072Z</time>
      </trkpt>
      <trkpt lat="43.5043" lon="1.52303">
        <ele>206.24746</ele>
        <time>2023-01-04T10:38:53.065Z</time>
      </trkpt>
      <trkpt lat="43.50427" lon="1.52318">
        <ele>206.108015</ele>
        <time>2023-01-04T10:38:56.055Z</time>
      </trkpt>
      <trkpt lat="43.50425" lon="1.52332">
        <ele>205.973633</ele>
        <time>2023-01-04T10:38:59.059Z</time>
      </trkpt>
      <trkpt lat="43.50424" lon="1.52348">
        <ele>205.821635</ele>
        <time>2023-01-04T10:39:02.059Z</time>
      </trkpt>
      <trkpt lat="43.50424" lon="1.52362">
        <ele>205.687874</ele>
        <time>2023-01-04T10:39:05.064Z</time>
      </trkpt>
      <trkpt lat="43.50424" lon="1.52377">
        <ele>205.550821</ele>
        <time>2023-01-04T10:39:08.037Z</time>
      </trkpt>
      <trkpt lat="43.50425" lon="1.52392">
        <ele>205.411163</ele>
        <time>2023-01-04T10:39:11.067Z</time>
      </trkpt>
      <trkpt lat="43.50426" lon="1.52404">
        <ele>205.290746</ele>
        <time>2023-01-04T10:39:14.055Z</time>
      </trkpt>
      <trkpt lat="43.50423" lon="1.5242">
        <ele>205.306349</ele>
        <time>2023-01-04T10:39:17.065Z</time>
      </trkpt>
      <trkpt lat="43.50421" lon="1.52434">
        <ele>205.385552</ele>
        <time>2023-01-04T10:39:20.058Z</time>
      </trkpt>
      <trkpt lat="43.50417" lon="1.52448">
        <ele>205.467862</ele>
        <time>2023-01-04T10:39:22.060Z</time>
      </trkpt>
      <trkpt lat="43.50414" lon="1.52461">
        <ele>205.543493</ele>
        <time>2023-01-04T10:39:24.059Z</time>
      </trkpt>
      <trkpt lat="43.50411" lon="1.52474">
        <ele>205.616194</ele>
        <time>2023-01-04T10:39:26.069Z</time>
      </trkpt>
      <trkpt lat="43.50408" lon="1.52487">
        <ele>205.690372</ele>
        <time>2023-01-04T10:39:28.058Z</time>
      </trkpt>
      <trkpt lat="43.50405" lon="1.52499">
        <ele>205.761388</ele>
        <time>2023-01-04T10:39:30.056Z</time>
      </trkpt>
      <trkpt lat="43.50401" lon="1.52516">
        <ele>205.857591</ele>
        <time>2023-01-04T10:39:33.056Z</time>
      </trkpt>
      <trkpt lat="43.50398" lon="1.52531">
        <ele>205.94528</ele>
        <time>2023-01-04T10:39:35.051Z</time>
      </trkpt>
      <trkpt lat="43.50395" lon="1.52545">
        <ele>206.021427</ele>
        <time>2023-01-04T10:39:37.058Z</time>
      </trkpt>
      <trkpt lat="43.50393" lon="1.52559">
        <ele>206.103442</ele>
        <time>2023-01-04T10:39:39.040Z</time>
      </trkpt>
      <trkpt lat="43.5039" lon="1.52574">
        <ele>206.185616</ele>
        <time>2023-01-04T10:39:41.045Z</time>
      </trkpt>
      <trkpt lat="43.50387" lon="1.52592">
        <ele>206.284418</ele>
        <time>2023-01-04T10:39:44.052Z</time>
      </trkpt>
      <trkpt lat="43.50384" lon="1.52607">
        <ele>206.371262</ele>
        <time>2023-01-04T10:39:47.065Z</time>
      </trkpt>
      <trkpt lat="43.50379" lon="1.52625">
        <ele>206.47406</ele>
        <time>2023-01-04T10:39:50.046Z</time>
      </trkpt>
      <trkpt lat="43.50375" lon="1.52637">
        <ele>206.548573</ele>
        <time>2023-01-04T10:39:52.058Z</time>
      </trkpt>
      <trkpt lat="43.50372" lon="1.52652">
        <ele>206.640618</ele>
        <time>2023-01-04T10:39:55.055Z</time>
      </trkpt>
      <trkpt lat="43.50368" lon="1.5267">
        <ele>206.752703</ele>
        <time>2023-01-04T10:39:58.055Z</time>
      </trkpt>
      <trkpt lat="43.50362" lon="1.52687">
        <ele>206.871434</ele>
        <time>2023-01-04T10:40:01.037Z</time>
      </trkpt>
      <trkpt lat="43.50354" lon="1.52698">
        <ele>206.968372</ele>
        <time>2023-01-04T10:40:03.059Z</time>
      </trkpt>
      <trkpt lat="43.50349" lon="1.52709">
        <ele>207.049933</ele>
        <time>2023-01-04T10:40:05.040Z</time>
      </trkpt>
      <trkpt lat="43.50343" lon="1.52719">
        <ele>207.128418</ele>
        <time>2023-01-04T10:40:07.062Z</time>
      </trkpt>
      <trkpt lat="43.50335" lon="1.5273">
        <ele>207.226136</ele>
        <time>2023-01-04T10:40:10.056Z</time>
      </trkpt>
      <trkpt lat="43.50326" lon="1.52742">
        <ele>207.334023</ele>
        <time>2023-01-04T10:40:13.061Z</time>
      </trkpt>
      <trkpt lat="43.50319" lon="1.5275">
        <ele>207.411667</ele>
        <time>2023-01-04T10:40:15.059Z</time>
      </trkpt>
      <trkpt lat="43.5031" lon="1.52763">
        <ele>207.520852</ele>
        <time>2023-01-04T10:40:18.055Z</time>
      </trkpt>
      <trkpt lat="43.50302" lon="1.52777">
        <ele>207.638274</ele>
        <time>2023-01-04T10:40:21.068Z</time>
      </trkpt>
      <trkpt lat="43.50293" lon="1.52786">
        <ele>207.725113</ele>
        <time>2023-01-04T10:40:23.058Z</time>
      </trkpt>
      <trkpt lat="43.50285" lon="1.52793">
        <ele>207.809409</ele>
        <time>2023-01-04T10:40:25.067Z</time>
      </trkpt>
      <trkpt lat="43.50278" lon="1.52801">
        <ele>207.892701</ele>
        <time>2023-01-04T10:40:27.062Z</time>
      </trkpt>
      <trkpt lat="43.5027" lon="1.52809">
        <ele>207.969965</ele>
        <time>2023-01-04T10:40:29.054Z</time>
      </trkpt>
      <trkpt lat="43.50262" lon="1.52816">
        <ele>208.052272</ele>
        <time>2023-01-04T10:40:31.060Z</time>
      </trkpt>
      <trkpt lat="43.5025" lon="1.52826">
        <ele>208.098954</ele>
        <time>2023-01-04T10:40:34.057Z</time>
      </trkpt>
      <trkpt lat="43.50242" lon="1.52834">
        <ele>207.999679</ele>
        <time>2023-01-04T10:40:36.068Z</time>
      </trkpt>
      <trkpt lat="43.50232" lon="1.52843">
        <ele>207.887756</ele>
        <time>2023-01-04T10:40:38.066Z</time>
      </trkpt>
      <trkpt lat="43.50224" lon="1.5285">
        <ele>207.79149</ele>
        <time>2023-01-04T10:40:40.058Z</time>
      </trkpt>
      <trkpt lat="43.50215" lon="1.52856">
        <ele>207.696237</ele>
        <time>2023-01-04T10:40:42.062Z</time>
      </trkpt>
      <trkpt lat="43.50207" lon="1.52863">
        <ele>207.599773</ele>
        <time>2023-01-04T10:40:44.061Z</time>
      </trkpt>
      <trkpt lat="43.50196" lon="1.52872">
        <ele>207.469346</ele>
        <time>2023-01-04T10:40:47.063Z</time>
      </trkpt>
      <trkpt lat="43.50187" lon="1.52879">
        <ele>207.373103</ele>
        <time>2023-01-04T10:40:49.067Z</time>
      </trkpt>
      <trkpt lat="43.50179" lon="1.52885">
        <ele>207.282407</ele>
        <time>2023-01-04T10:40:51.055Z</time>
      </trkpt>
      <trkpt lat="43.5017" lon="1.52893">
        <ele>207.17735</ele>
        <time>2023-01-04T10:40:53.061Z</time>
      </trkpt>
      <trkpt lat="43.50161" lon="1.529">
        <ele>207.071724</ele>
        <time>2023-01-04T10:40:55.056Z</time>
      </trkpt>
      <trkpt lat="43.50153" lon="1.52907">
        <ele>206.978528</ele>
        <time>2023-01-04T10:40:57.061Z</time>
      </trkpt>
      <trkpt lat="43.50144" lon="1.52914">
        <ele>206.881075</ele>
        <time>2023-01-04T10:40:59.067Z</time>
      </trkpt>
      <trkpt lat="43.50136" lon="1.52921">
        <ele>206.78005</ele>
        <time>2023-01-04T10:41:01.059Z</time>
      </trkpt>
      <trkpt lat="43.50127" lon="1.52928">
        <ele>206.685358</ele>
        <time>2023-01-04T10:41:03.059Z</time>
      </trkpt>
      <trkpt lat="43.50119" lon="1.52938">
        <ele>206.573417</ele>
        <time>2023-01-04T10:41:05.066Z</time>
      </trkpt>
      <trkpt lat="43.50109" lon="1.52947">
        <ele>206.4593</ele>
        <time>2023-01-04T10:41:07.070Z</time>
      </trkpt>
      <trkpt lat="43.50103" lon="1.52956">
        <ele>206.365919</ele>
        <time>2023-01-04T10:41:09.057Z</time>
      </trkpt>
      <trkpt lat="43.50095" lon="1.52966">
        <ele>206.427757</ele>
        <time>2023-01-04T10:41:11.065Z</time>
      </trkpt>
      <trkpt lat="43.50087" lon="1.52975">
        <ele>206.494853</ele>
        <time>2023-01-04T10:41:13.050Z</time>
      </trkpt>
      <trkpt lat="43.5008" lon="1.52984">
        <ele>206.559288</ele>
        <time>2023-01-04T10:41:15.057Z</time>
      </trkpt>
      <trkpt lat="43.50069" lon="1.52995">
        <ele>206.652224</ele>
        <time>2023-01-04T10:41:18.041Z</time>
      </trkpt>
      <trkpt lat="43.50061" lon="1.53005">
        <ele>206.717967</ele>
        <time>2023-01-04T10:41:20.071Z</time>
      </trkpt>
      <trkpt lat="43.50054" lon="1.53015">
        <ele>206.786288</ele>
        <time>2023-01-04T10:41:22.057Z</time>
      </trkpt>
      <trkpt lat="43.50047" lon="1.53024">
        <ele>206.852838</ele>
        <time>2023-01-04T10:41:24.057Z</time>
      </trkpt>
      <trkpt lat="43.50037" lon="1.53037">
        <ele>206.939325</ele>
        <time>2023-01-04T10:41:27.041Z</time>
      </trkpt>
      <trkpt lat="43.50028" lon="1.53049">
        <ele>207.022701</ele>
        <time>2023-01-04T10:41:30.043Z</time>
      </trkpt>
      <trkpt lat="43.50019" lon="1.53058">
        <ele>207.10021</ele>
        <time>2023-01-04T10:41:33.060Z</time>
      </trkpt>
      <trkpt lat="43.50011" lon="1.53067">
        <ele>207.165581</ele>
        <time>2023-01-04T10:41:35.069Z</time>
      </trkpt>
      <trkpt lat="43.50004" lon="1.53075">
        <ele>207.225469</ele>
        <time>2023-01-04T10:41:37.068Z</time>
      </trkpt>
      <trkpt lat="43.49997" lon="1.53084">
        <ele>207.288129</ele>
        <time>2023-01-04T10:41:39.064Z</time>
      </trkpt>
      <trkpt lat="43.49986" lon="1.53094">
        <ele>207.371507</ele>
        <time>2023-01-04T10:41:42.044Z</time>
      </trkpt>
      <trkpt lat="43.49976" lon="1.53104">
        <ele>207.456781</ele>
        <time>2023-01-04T10:41:45.056Z</time>
      </trkpt>
      <trkpt lat="43.49965" lon="1.53113">
        <ele>207.541809</ele>
        <time>2023-01-04T10:41:48.072Z</time>
      </trkpt>
      <trkpt lat="43.49955" lon="1.53122">
        <ele>207.544783</ele>
        <time>2023-01-04T10:41:51.062Z</time>
      </trkpt>
      <trkpt lat="43.49945" lon="1.53129">
        <ele>207.540068</ele>
        <time>2023-01-04T10:41:54.070Z</time>
      </trkpt>
      <trkpt lat="43.49935" lon="1.53138">
        <ele>207.534924</ele>
        <time>2023-01-04T10:41:57.058Z</time>
      </trkpt>
      <trkpt lat="43.49927" lon="1.53145">
        <ele>207.531104</ele>
        <time>2023-01-04T10:41:59.063Z</time>
      </trkpt>
      <trkpt lat="43.4992" lon="1.53153">
        <ele>207.527225</ele>
        <time>2023-01-04T10:42:01.057Z</time>
      </trkpt>
      <trkpt lat="43.49909" lon="1.53162">
        <ele>207.521978</ele>
        <time>2023-01-04T10:42:04.067Z</time>
      </trkpt>
      <trkpt lat="43.49899" lon="1.53169">
        <ele>207.517329</ele>
        <time>2023-01-04T10:42:06.059Z</time>
      </trkpt>
      <trkpt lat="43.4989" lon="1.53178">
        <ele>207.512621</ele>
        <time>2023-01-04T10:42:08.066Z</time>
      </trkpt>
      <trkpt lat="43.49882" lon="1.53186">
        <ele>207.508582</ele>
        <time>2023-01-04T10:42:10.053Z</time>
      </trkpt>
      <trkpt lat="43.49874" lon="1.53193">
        <ele>207.50475</ele>
        <time>2023-01-04T10:42:12.059Z</time>
      </trkpt>
      <trkpt lat="43.49864" lon="1.53203">
        <ele>207.499492</ele>
        <time>2023-01-04T10:42:15.058Z</time>
      </trkpt>
      <trkpt lat="43.49856" lon="1.53212">
        <ele>207.495247</ele>
        <time>2023-01-04T10:42:17.064Z</time>
      </trkpt>
      <trkpt lat="43.49846" lon="1.53223">
        <ele>207.489876</ele>
        <time>2023-01-04T10:42:20.063Z</time>
      </trkpt>
      <trkpt lat="43.49837" lon="1.53234">
        <ele>207.484678</ele>
        <time>2023-01-04T10:42:23.066Z</time>
      </trkpt>
      <trkpt lat="43.49827" lon="1.53246">
        <ele>207.47923</ele>
        <time>2023-01-04T10:42:26.062Z</time>
      </trkpt>
      <trkpt lat="43.49818" lon="1.53257">
        <ele>207.474056</ele>
        <time>2023-01-04T10:42:29.067Z</time>
      </trkpt>
      <trkpt lat="43.49808" lon="1.53268">
        <ele>207.511539</ele>
        <time>2023-01-04T10:42:32.058Z</time>
      </trkpt>
      <trkpt lat="43.49798" lon="1.53281">
        <ele>207.548345</ele>
        <time>2023-01-04T10:42:35.062Z</time>
      </trkpt>
      <trkpt lat="43.4979" lon="1.53296">
        <ele>207.589491</ele>
        <time>2023-01-04T10:42:38.042Z</time>
      </trkpt>
      <trkpt lat="43.4978" lon="1.53307">
        <ele>207.625128</ele>
        <time>2023-01-04T10:42:41.070Z</time>
      </trkpt>
      <trkpt lat="43.49772" lon="1.5332">
        <ele>207.661115</ele>
        <time>2023-01-04T10:42:44.069Z</time>
      </trkpt>
      <trkpt lat="43.49764" lon="1.53331">
        <ele>207.693191</ele>
        <time>2023-01-04T10:42:47.056Z</time>
      </trkpt>
      <trkpt lat="43.49757" lon="1.53346">
        <ele>207.730288</ele>
        <time>2023-01-04T10:42:50.069Z</time>
      </trkpt>
      <trkpt lat="43.49751" lon="1.5336">
        <ele>207.765966</ele>
        <time>2023-01-04T10:42:53.067Z</time>
      </trkpt>
      <trkpt lat="43.49745" lon="1.53371">
        <ele>207.793447</ele>
        <time>2023-01-04T10:42:55.065Z</time>
      </trkpt>
      <trkpt lat="43.49738" lon="1.53385">
        <ele>207.828832</ele>
        <time>2023-01-04T10:42:57.069Z</time>
      </trkpt>
      <trkpt lat="43.49731" lon="1.53398">
        <ele>207.863589</ele>
        <time>2023-01-04T10:43:00.058Z</time>
      </trkpt>
      <trkpt lat="43.49723" lon="1.53413">
        <ele>207.901858</ele>
        <time>2023-01-04T10:43:03.072Z</time>
      </trkpt>
      <trkpt lat="43.49716" lon="1.53428">
        <ele>207.940579</ele>
        <time>2023-01-04T10:43:06.058Z</time>
      </trkpt>
      <trkpt lat="43.49709" lon="1.53441">
        <ele>207.974103</ele>
        <time>2023-01-04T10:43:09.054Z</time>
      </trkpt>
      <trkpt lat="43.49701" lon="1.53453">
        <ele>207.92314</ele>
        <time>2023-01-04T10:43:12.061Z</time>
      </trkpt>
      <trkpt lat="43.49692" lon="1.53468">
        <ele>207.734884</ele>
        <time>2023-01-04T10:43:15.057Z</time>
      </trkpt>
      <trkpt lat="43.49682" lon="1.53482">
        <ele>207.54888</ele>
        <time>2023-01-04T10:43:18.066Z</time>
      </trkpt>
      <trkpt lat="43.49675" lon="1.53493">
        <ele>207.406165</ele>
        <time>2023-01-04T10:43:20.058Z</time>
      </trkpt>
      <trkpt lat="43.49668" lon="1.53505">
        <ele>207.252238</ele>
        <time>2023-01-04T10:43:22.061Z</time>
      </trkpt>
      <trkpt lat="43.49661" lon="1.53515">
        <ele>207.127562</ele>
        <time>2023-01-04T10:43:24.071Z</time>
      </trkpt>
      <trkpt lat="43.49653" lon="1.53526">
        <ele>206.976405</ele>
        <time>2023-01-04T10:43:27.042Z</time>
      </trkpt>
      <trkpt lat="43.49644" lon="1.53535">
        <ele>206.829716</ele>
        <time>2023-01-04T10:43:30.054Z</time>
      </trkpt>
      <trkpt lat="43.49635" lon="1.53543">
        <ele>206.684594</ele>
        <time>2023-01-04T10:43:33.060Z</time>
      </trkpt>
      <trkpt lat="43.49626" lon="1.53551">
        <ele>206.54223</ele>
        <time>2023-01-04T10:43:36.059Z</time>
      </trkpt>
      <trkpt lat="43.49616" lon="1.53561">
        <ele>206.375273</ele>
        <time>2023-01-04T10:43:39.065Z</time>
      </trkpt>
      <trkpt lat="43.49609" lon="1.5357">
        <ele>206.249651</ele>
        <time>2023-01-04T10:43:42.062Z</time>
      </trkpt>
      <trkpt lat="43.49601" lon="1.53577">
        <ele>206.123163</ele>
        <time>2023-01-04T10:43:58.039Z</time>
      </trkpt>
      <trkpt lat="43.49591" lon="1.53581">
        <ele>205.990824</ele>
        <time>2023-01-04T10:44:02.044Z</time>
      </trkpt>
      <trkpt lat="43.4958" lon="1.53586">
        <ele>205.838008</ele>
        <time>2023-01-04T10:44:05.067Z</time>
      </trkpt>
      <trkpt lat="43.49572" lon="1.53591">
        <ele>205.709502</ele>
        <time>2023-01-04T10:44:07.045Z</time>
      </trkpt>
      <trkpt lat="43.49562" lon="1.53595">
        <ele>205.605327</ele>
        <time>2023-01-04T10:44:09.046Z</time>
      </trkpt>
      <trkpt lat="43.49553" lon="1.53599">
        <ele>205.627396</ele>
        <time>2023-01-04T10:44:11.048Z</time>
      </trkpt>
      <trkpt lat="43.49542" lon="1.53603">
        <ele>205.650371</ele>
        <time>2023-01-04T10:44:13.043Z</time>
      </trkpt>
      <trkpt lat="43.49532" lon="1.53607">
        <ele>205.673137</ele>
        <time>2023-01-04T10:44:15.039Z</time>
      </trkpt>
      <trkpt lat="43.49523" lon="1.5361">
        <ele>205.694624</ele>
        <time>2023-01-04T10:44:17.047Z</time>
      </trkpt>
      <trkpt lat="43.49513" lon="1.53614">
        <ele>205.717303</ele>
        <time>2023-01-04T10:44:19.060Z</time>
      </trkpt>
      <trkpt lat="43.49503" lon="1.53618">
        <ele>205.739477</ele>
        <time>2023-01-04T10:44:21.063Z</time>
      </trkpt>
      <trkpt lat="43.49493" lon="1.53621">
        <ele>205.761229</ele>
        <time>2023-01-04T10:44:23.041Z</time>
      </trkpt>
      <trkpt lat="43.49485" lon="1.53624">
        <ele>205.781027</ele>
        <time>2023-01-04T10:44:25.056Z</time>
      </trkpt>
      <trkpt lat="43.49472" lon="1.53628">
        <ele>205.80868</ele>
        <time>2023-01-04T10:44:28.061Z</time>
      </trkpt>
      <trkpt lat="43.4946" lon="1.53631">
        <ele>205.835803</ele>
        <time>2023-01-04T10:44:31.045Z</time>
      </trkpt>
      <trkpt lat="43.49449" lon="1.53635">
        <ele>205.861835</ele>
        <time>2023-01-04T10:44:34.059Z</time>
      </trkpt>
      <trkpt lat="43.49436" lon="1.53638">
        <ele>205.888743</ele>
        <time>2023-01-04T10:44:37.056Z</time>
      </trkpt>
      <trkpt lat="43.49425" lon="1.53642">
        <ele>205.915314</ele>
        <time>2023-01-04T10:44:40.052Z</time>
      </trkpt>
      <trkpt lat="43.49412" lon="1.53644">
        <ele>205.94257</ele>
        <time>2023-01-04T10:44:43.063Z</time>
      </trkpt>
      <trkpt lat="43.494" lon="1.53647">
        <ele>205.970715</ele>
        <time>2023-01-04T10:44:46.071Z</time>
      </trkpt>
      <trkpt lat="43.49391" lon="1.5365">
        <ele>205.990788</ele>
        <time>2023-01-04T10:44:48.061Z</time>
      </trkpt>
      <trkpt lat="43.49382" lon="1.53652">
        <ele>205.973855</ele>
        <time>2023-01-04T10:44:50.060Z</time>
      </trkpt>
      <trkpt lat="43.49372" lon="1.53654">
        <ele>205.946935</ele>
        <time>2023-01-04T10:44:52.066Z</time>
      </trkpt>
      <trkpt lat="43.49362" lon="1.53656">
        <ele>205.916613</ele>
        <time>2023-01-04T10:44:54.061Z</time>
      </trkpt>
      <trkpt lat="43.4935" lon="1.53657">
        <ele>205.881458</ele>
        <time>2023-01-04T10:44:56.047Z</time>
      </trkpt>
      <trkpt lat="43.4934" lon="1.53658">
        <ele>205.851929</ele>
        <time>2023-01-04T10:44:58.065Z</time>
      </trkpt>
      <trkpt lat="43.49329" lon="1.53659">
        <ele>205.822147</ele>
        <time>2023-01-04T10:45:01.065Z</time>
      </trkpt>
      <trkpt lat="43.49319" lon="1.53659">
        <ele>205.790906</ele>
        <time>2023-01-04T10:45:04.055Z</time>
      </trkpt>
      <trkpt lat="43.49306" lon="1.53661">
        <ele>205.755396</ele>
        <time>2023-01-04T10:45:07.062Z</time>
      </trkpt>
      <trkpt lat="43.49294" lon="1.53663">
        <ele>205.718011</ele>
        <time>2023-01-04T10:45:10.058Z</time>
      </trkpt>
      <trkpt lat="43.49284" lon="1.53664">
        <ele>205.690185</ele>
        <time>2023-01-04T10:45:12.061Z</time>
      </trkpt>
      <trkpt lat="43.49274" lon="1.53664">
        <ele>205.661852</ele>
        <time>2023-01-04T10:45:14.059Z</time>
      </trkpt>
      <trkpt lat="43.49265" lon="1.53664">
        <ele>205.635547</ele>
        <time>2023-01-04T10:45:16.051Z</time>
      </trkpt>
      <trkpt lat="43.49256" lon="1.53664">
        <ele>205.609493</ele>
        <time>2023-01-04T10:45:18.047Z</time>
      </trkpt>
      <trkpt lat="43.49243" lon="1.53664">
        <ele>205.572207</ele>
        <time>2023-01-04T10:45:21.067Z</time>
      </trkpt>
      <trkpt lat="43.4923" lon="1.53664">
        <ele>205.533719</ele>
        <time>2023-01-04T10:45:24.061Z</time>
      </trkpt>
      <trkpt lat="43.49217" lon="1.53662">
        <ele>205.496362</ele>
        <time>2023-01-04T10:45:27.058Z</time>
      </trkpt>
      <trkpt lat="43.49204" lon="1.53662">
        <ele>205.479205</ele>
        <time>2023-01-04T10:45:30.061Z</time>
      </trkpt>
      <trkpt lat="43.49194" lon="1.53661">
        <ele>205.486387</ele>
        <time>2023-01-04T10:45:32.070Z</time>
      </trkpt>
      <trkpt lat="43.49185" lon="1.5366">
        <ele>205.493275</ele>
        <time>2023-01-04T10:45:34.057Z</time>
      </trkpt>
      <trkpt lat="43.49171" lon="1.53658">
        <ele>205.503399</ele>
        <time>2023-01-04T10:45:37.061Z</time>
      </trkpt>
      <trkpt lat="43.49162" lon="1.53655">
        <ele>205.51012</ele>
        <time>2023-01-04T10:45:39.061Z</time>
      </trkpt>
      <trkpt lat="43.49153" lon="1.53653">
        <ele>205.517092</ele>
        <time>2023-01-04T10:45:41.061Z</time>
      </trkpt>
      <trkpt lat="43.49143" lon="1.53651">
        <ele>205.524477</ele>
        <time>2023-01-04T10:45:43.058Z</time>
      </trkpt>
      <trkpt lat="43.49133" lon="1.53649">
        <ele>205.532162</ele>
        <time>2023-01-04T10:45:45.061Z</time>
      </trkpt>
      <trkpt lat="43.49123" lon="1.53646">
        <ele>205.539434</ele>
        <time>2023-01-04T10:45:47.065Z</time>
      </trkpt>
      <trkpt lat="43.49112" lon="1.53643">
        <ele>205.547607</ele>
        <time>2023-01-04T10:45:49.069Z</time>
      </trkpt>
      <trkpt lat="43.49101" lon="1.53639">
        <ele>205.55587</ele>
        <time>2023-01-04T10:45:51.062Z</time>
      </trkpt>
      <trkpt lat="43.49092" lon="1.53636">
        <ele>205.563382</ele>
        <time>2023-01-04T10:45:53.061Z</time>
      </trkpt>
      <trkpt lat="43.49081" lon="1.53634">
        <ele>205.571207</ele>
        <time>2023-01-04T10:45:55.068Z</time>
      </trkpt>
      <trkpt lat="43.49068" lon="1.53628">
        <ele>205.581435</ele>
        <time>2023-01-04T10:45:58.062Z</time>
      </trkpt>
      <trkpt lat="43.49055" lon="1.53625">
        <ele>205.59082</ele>
        <time>2023-01-04T10:46:01.042Z</time>
      </trkpt>
      <trkpt lat="43.49042" lon="1.53621">
        <ele>205.600795</ele>
        <time>2023-01-04T10:46:04.073Z</time>
      </trkpt>
      <trkpt lat="43.49029" lon="1.53622">
        <ele>205.619505</ele>
        <time>2023-01-04T10:46:07.065Z</time>
      </trkpt>
      <trkpt lat="43.49016" lon="1.53627">
        <ele>205.657486</ele>
        <time>2023-01-04T10:46:10.055Z</time>
      </trkpt>
      <trkpt lat="43.49004" lon="1.53634">
        <ele>205.693839</ele>
        <time>2023-01-04T10:46:13.066Z</time>
      </trkpt>
      <trkpt lat="43.48994" lon="1.53642">
        <ele>205.72711</ele>
        <time>2023-01-04T10:46:16.069Z</time>
      </trkpt>
      <trkpt lat="43.48985" lon="1.53653">
        <ele>205.761372</ele>
        <time>2023-01-04T10:46:19.057Z</time>
      </trkpt>
      <trkpt lat="43.48978" lon="1.53666">
        <ele>205.79569</ele>
        <time>2023-01-04T10:46:22.068Z</time>
      </trkpt>
      <trkpt lat="43.48971" lon="1.53681">
        <ele>205.832624</ele>
        <time>2023-01-04T10:46:25.070Z</time>
      </trkpt>
      <trkpt lat="43.48966" lon="1.53697">
        <ele>205.867618</ele>
        <time>2023-01-04T10:46:28.054Z</time>
      </trkpt>
      <trkpt lat="43.48963" lon="1.53712">
        <ele>205.90027</ele>
        <time>2023-01-04T10:46:31.055Z</time>
      </trkpt>
      <trkpt lat="43.48961" lon="1.53728">
        <ele>205.934043</ele>
        <time>2023-01-04T10:46:34.065Z</time>
      </trkpt>
      <trkpt lat="43.48961" lon="1.53743">
        <ele>205.966352</ele>
        <time>2023-01-04T10:46:37.049Z</time>
      </trkpt>
      <trkpt lat="43.48962" lon="1.53759">
        <ele>205.998703</ele>
        <time>2023-01-04T10:46:40.048Z</time>
      </trkpt>
      <trkpt lat="43.48962" lon="1.53774">
        <ele>206.031647</ele>
        <time>2023-01-04T10:46:43.065Z</time>
      </trkpt>
      <trkpt lat="43.48963" lon="1.53788">
        <ele>206.06051</ele>
        <time>2023-01-04T10:46:46.068Z</time>
      </trkpt>
      <trkpt lat="43.48962" lon="1.53801">
        <ele>206.086418</ele>
        <time>2023-01-04T10:46:49.054Z</time>
      </trkpt>
      <trkpt lat="43.48965" lon="1.53818">
        <ele>206.123056</ele>
        <time>2023-01-04T10:46:52.058Z</time>
      </trkpt>
      <trkpt lat="43.48968" lon="1.53835">
        <ele>206.093364</ele>
        <time>2023-01-04T10:46:55.044Z</time>
      </trkpt>
      <trkpt lat="43.4897" lon="1.53848">
        <ele>206.069747</ele>
        <time>2023-01-04T10:46:57.058Z</time>
      </trkpt>
      <trkpt lat="43.48971" lon="1.53861">
        <ele>206.046671</ele>
        <time>2023-01-04T10:46:59.070Z</time>
      </trkpt>
      <trkpt lat="43.48973" lon="1.53878">
        <ele>206.015226</ele>
        <time>2023-01-04T10:47:02.061Z</time>
      </trkpt>
      <trkpt lat="43.48976" lon="1.53894">
        <ele>205.98622</ele>
        <time>2023-01-04T10:47:05.061Z</time>
      </trkpt>
      <trkpt lat="43.48977" lon="1.53911">
        <ele>205.955506</ele>
        <time>2023-01-04T10:47:08.063Z</time>
      </trkpt>
      <trkpt lat="43.48978" lon="1.53928">
        <ele>205.924313</ele>
        <time>2023-01-04T10:47:11.052Z</time>
      </trkpt>
      <trkpt lat="43.4898" lon="1.53942">
        <ele>205.899869</ele>
        <time>2023-01-04T10:47:13.043Z</time>
      </trkpt>
      <trkpt lat="43.48981" lon="1.5396">
        <ele>205.86703</ele>
        <time>2023-01-04T10:47:16.055Z</time>
      </trkpt>
      <trkpt lat="43.48981" lon="1.53974">
        <ele>205.842144</ele>
        <time>2023-01-04T10:47:18.063Z</time>
      </trkpt>
      <trkpt lat="43.48981" lon="1.53987">
        <ele>205.819047</ele>
        <time>2023-01-04T10:47:20.060Z</time>
      </trkpt>
      <trkpt lat="43.48981" lon="1.53999">
        <ele>205.79631</ele>
        <time>2023-01-04T10:47:22.064Z</time>
      </trkpt>
      <trkpt lat="43.48981" lon="1.54012">
        <ele>205.772824</ele>
        <time>2023-01-04T10:47:24.049Z</time>
      </trkpt>
      <trkpt lat="43.4898" lon="1.54026">
        <ele>205.748574</ele>
        <time>2023-01-04T10:47:26.067Z</time>
      </trkpt>
      <trkpt lat="43.48979" lon="1.54039">
        <ele>205.724921</ele>
        <time>2023-01-04T10:47:28.057Z</time>
      </trkpt>
      <trkpt lat="43.48978" lon="1.54054">
        <ele>205.698688</ele>
        <time>2023-01-04T10:47:30.069Z</time>
      </trkpt>
      <trkpt lat="43.48978" lon="1.54066">
        <ele>205.666682</ele>
        <time>2023-01-04T10:47:32.060Z</time>
      </trkpt>
      <trkpt lat="43.48977" lon="1.5408">
        <ele>205.594681</ele>
        <time>2023-01-04T10:47:34.069Z</time>
      </trkpt>
      <trkpt lat="43.48976" lon="1.54098">
        <ele>205.492911</ele>
        <time>2023-01-04T10:47:37.068Z</time>
      </trkpt>
      <trkpt lat="43.48975" lon="1.54116">
        <ele>205.393143</ele>
        <time>2023-01-04T10:47:40.064Z</time>
      </trkpt>
      <trkpt lat="43.48973" lon="1.54133">
        <ele>205.298694</ele>
        <time>2023-01-04T10:47:43.057Z</time>
      </trkpt>
      <trkpt lat="43.48971" lon="1.54151">
        <ele>205.199293</ele>
        <time>2023-01-04T10:47:46.067Z</time>
      </trkpt>
      <trkpt lat="43.48968" lon="1.54165">
        <ele>205.123161</ele>
        <time>2023-01-04T10:47:49.047Z</time>
      </trkpt>
      <trkpt lat="43.48963" lon="1.54184">
        <ele>205.011536</ele>
        <time>2023-01-04T10:47:52.067Z</time>
      </trkpt>
      <trkpt lat="43.4896" lon="1.54198">
        <ele>204.931375</ele>
        <time>2023-01-04T10:47:54.069Z</time>
      </trkpt>
      <trkpt lat="43.48954" lon="1.54215">
        <ele>204.831537</ele>
        <time>2023-01-04T10:47:57.071Z</time>
      </trkpt>
      <trkpt lat="43.4895" lon="1.54229">
        <ele>204.750074</ele>
        <time>2023-01-04T10:47:59.072Z</time>
      </trkpt>
      <trkpt lat="43.48945" lon="1.54244">
        <ele>204.656807</ele>
        <time>2023-01-04T10:48:01.071Z</time>
      </trkpt>
      <trkpt lat="43.48938" lon="1.5426">
        <ele>204.553816</ele>
        <time>2023-01-04T10:48:04.069Z</time>
      </trkpt>
      <trkpt lat="43.48931" lon="1.54274">
        <ele>204.464378</ele>
        <time>2023-01-04T10:48:07.047Z</time>
      </trkpt>
      <trkpt lat="43.48924" lon="1.54286">
        <ele>204.373489</ele>
        <time>2023-01-04T10:48:10.072Z</time>
      </trkpt>
      <trkpt lat="43.48916" lon="1.54298">
        <ele>204.427143</ele>
        <time>2023-01-04T10:48:13.060Z</time>
      </trkpt>
      <trkpt lat="43.48907" lon="1.54311">
        <ele>204.678397</ele>
        <time>2023-01-04T10:48:16.062Z</time>
      </trkpt>
      <trkpt lat="43.48901" lon="1.54321">
        <ele>204.871471</ele>
        <time>2023-01-04T10:48:18.064Z</time>
      </trkpt>
      <trkpt lat="43.48894" lon="1.5433">
        <ele>205.053342</ele>
        <time>2023-01-04T10:48:20.064Z</time>
      </trkpt>
      <trkpt lat="43.48887" lon="1.5434">
        <ele>205.251697</ele>
        <time>2023-01-04T10:48:22.064Z</time>
      </trkpt>
      <trkpt lat="43.48877" lon="1.54351">
        <ele>205.501608</ele>
        <time>2023-01-04T10:48:25.047Z</time>
      </trkpt>
      <trkpt lat="43.48868" lon="1.54362">
        <ele>205.739317</ele>
        <time>2023-01-04T10:48:28.059Z</time>
      </trkpt>
      <trkpt lat="43.48861" lon="1.54374">
        <ele>205.947852</ele>
        <time>2023-01-04T10:48:30.045Z</time>
      </trkpt>
      <trkpt lat="43.48853" lon="1.54384">
        <ele>206.153297</ele>
        <time>2023-01-04T10:48:32.069Z</time>
      </trkpt>
      <trkpt lat="43.48844" lon="1.54394">
        <ele>206.393181</ele>
        <time>2023-01-04T10:48:35.046Z</time>
      </trkpt>
      <trkpt lat="43.48836" lon="1.54405">
        <ele>206.60921</ele>
        <time>2023-01-04T10:48:38.063Z</time>
      </trkpt>
      <trkpt lat="43.4883" lon="1.54416">
        <ele>206.814737</ele>
        <time>2023-01-04T10:48:41.068Z</time>
      </trkpt>
      <trkpt lat="43.48822" lon="1.54426">
        <ele>207.023101</ele>
        <time>2023-01-04T10:48:44.058Z</time>
      </trkpt>
      <trkpt lat="43.48816" lon="1.54436">
        <ele>207.212746</ele>
        <time>2023-01-04T10:48:47.065Z</time>
      </trkpt>
      <trkpt lat="43.48808" lon="1.54447">
        <ele>207.414123</ele>
        <time>2023-01-04T10:48:50.071Z</time>
      </trkpt>
      <trkpt lat="43.48802" lon="1.54457">
        <ele>207.611702</ele>
        <time>2023-01-04T10:48:53.067Z</time>
      </trkpt>
      <trkpt lat="43.48795" lon="1.54469">
        <ele>207.819029</ele>
        <time>2023-01-04T10:48:56.060Z</time>
      </trkpt>
      <trkpt lat="43.4879" lon="1.54479">
        <ele>207.770885</ele>
        <time>2023-01-04T10:48:58.048Z</time>
      </trkpt>
      <trkpt lat="43.48782" lon="1.54491">
        <ele>207.644986</ele>
        <time>2023-01-04T10:49:01.055Z</time>
      </trkpt>
      <trkpt lat="43.48774" lon="1.54503">
        <ele>207.521853</ele>
        <time>2023-01-04T10:49:04.073Z</time>
      </trkpt>
      <trkpt lat="43.48765" lon="1.54519">
        <ele>207.364314</ele>
        <time>2023-01-04T10:49:07.060Z</time>
      </trkpt>
      <trkpt lat="43.48755" lon="1.54532">
        <ele>207.215708</ele>
        <time>2023-01-04T10:49:10.066Z</time>
      </trkpt>
      <trkpt lat="43.48749" lon="1.54541">
        <ele>207.117205</ele>
        <time>2023-01-04T10:49:12.069Z</time>
      </trkpt>
      <trkpt lat="43.4874" lon="1.54551">
        <ele>207.000988</ele>
        <time>2023-01-04T10:49:15.040Z</time>
      </trkpt>
      <trkpt lat="43.48731" lon="1.54561">
        <ele>206.875626</ele>
        <time>2023-01-04T10:49:18.063Z</time>
      </trkpt>
      <trkpt lat="43.48721" lon="1.54571">
        <ele>206.740784</ele>
        <time>2023-01-04T10:49:21.070Z</time>
      </trkpt>
      <trkpt lat="43.48713" lon="1.54579">
        <ele>206.644481</ele>
        <time>2023-01-04T10:49:23.066Z</time>
      </trkpt>
      <trkpt lat="43.48705" lon="1.54585">
        <ele>206.544831</ele>
        <time>2023-01-04T10:49:25.059Z</time>
      </trkpt>
      <trkpt lat="43.48696" lon="1.54591">
        <ele>206.439846</ele>
        <time>2023-01-04T10:49:27.059Z</time>
      </trkpt>
      <trkpt lat="43.48687" lon="1.54598">
        <ele>206.331956</ele>
        <time>2023-01-04T10:49:29.054Z</time>
      </trkpt>
      <trkpt lat="43.48679" lon="1.54603">
        <ele>206.231159</ele>
        <time>2023-01-04T10:49:31.043Z</time>
      </trkpt>
      <trkpt lat="43.48667" lon="1.54611">
        <ele>206.094606</ele>
        <time>2023-01-04T10:49:34.064Z</time>
      </trkpt>
      <trkpt lat="43.48658" lon="1.54615">
        <ele>205.995845</ele>
        <time>2023-01-04T10:49:36.065Z</time>
      </trkpt>
      <trkpt lat="43.48647" lon="1.5462">
        <ele>205.917037</ele>
        <time>2023-01-04T10:49:39.072Z</time>
      </trkpt>
      <trkpt lat="43.48636" lon="1.54623">
        <ele>205.876718</ele>
        <time>2023-01-04T10:49:42.073Z</time>
      </trkpt>
      <trkpt lat="43.48624" lon="1.54627">
        <ele>205.832072</ele>
        <time>2023-01-04T10:49:45.060Z</time>
      </trkpt>
      <trkpt lat="43.48614" lon="1.5463">
        <ele>205.794556</ele>
        <time>2023-01-04T10:49:47.065Z</time>
      </trkpt>
      <trkpt lat="43.48602" lon="1.54631">
        <ele>205.751146</ele>
        <time>2023-01-04T10:49:50.074Z</time>
      </trkpt>
      <trkpt lat="43.48592" lon="1.54634">
        <ele>205.717291</ele>
        <time>2023-01-04T10:49:52.070Z</time>
      </trkpt>
      <trkpt lat="43.48582" lon="1.54636">
        <ele>205.681248</ele>
        <time>2023-01-04T10:49:54.069Z</time>
      </trkpt>
      <trkpt lat="43.48572" lon="1.54637">
        <ele>205.646037</ele>
        <time>2023-01-04T10:49:56.070Z</time>
      </trkpt>
      <trkpt lat="43.48562" lon="1.54639">
        <ele>205.610432</ele>
        <time>2023-01-04T10:49:58.062Z</time>
      </trkpt>
      <trkpt lat="43.48552" lon="1.54641">
        <ele>205.572371</ele>
        <time>2023-01-04T10:50:00.060Z</time>
      </trkpt>
      <trkpt lat="43.48542" lon="1.54643">
        <ele>205.538037</ele>
        <time>2023-01-04T10:50:02.073Z</time>
      </trkpt>
      <trkpt lat="43.48529" lon="1.54645">
        <ele>205.490226</ele>
        <time>2023-01-04T10:50:05.068Z</time>
      </trkpt>
      <trkpt lat="43.4852" lon="1.54647">
        <ele>205.458006</ele>
        <time>2023-01-04T10:50:07.048Z</time>
      </trkpt>
      <trkpt lat="43.48507" lon="1.54649">
        <ele>205.412843</ele>
        <time>2023-01-04T10:50:10.073Z</time>
      </trkpt>
      <trkpt lat="43.48495" lon="1.54654">
        <ele>205.366003</ele>
        <time>2023-01-04T10:50:13.058Z</time>
      </trkpt>
      <trkpt lat="43.48483" lon="1.54658">
        <ele>205.323557</ele>
        <time>2023-01-04T10:50:16.065Z</time>
      </trkpt>
      <trkpt lat="43.4847" lon="1.54664">
        <ele>205.218877</ele>
        <time>2023-01-04T10:50:19.067Z</time>
      </trkpt>
      <trkpt lat="43.48462" lon="1.54668">
        <ele>205.109878</ele>
        <time>2023-01-04T10:50:21.070Z</time>
      </trkpt>
      <trkpt lat="43.48449" lon="1.54675">
        <ele>204.939172</ele>
        <time>2023-01-04T10:50:24.065Z</time>
      </trkpt>
      <trkpt lat="43.4844" lon="1.54677">
        <ele>204.827756</ele>
        <time>2023-01-04T10:50:26.064Z</time>
      </trkpt>
      <trkpt lat="43.48428" lon="1.54681">
        <ele>204.679518</ele>
        <time>2023-01-04T10:50:29.075Z</time>
      </trkpt>
      <trkpt lat="43.48416" lon="1.54685">
        <ele>204.533229</ele>
        <time>2023-01-04T10:50:32.071Z</time>
      </trkpt>
      <trkpt lat="43.48406" lon="1.54687">
        <ele>204.40503</ele>
        <time>2023-01-04T10:50:35.064Z</time>
      </trkpt>
      <trkpt lat="43.48395" lon="1.54686">
        <ele>204.279984</ele>
        <time>2023-01-04T10:50:38.076Z</time>
      </trkpt>
      <trkpt lat="43.48384" lon="1.54686">
        <ele>204.138989</ele>
        <time>2023-01-04T10:50:41.067Z</time>
      </trkpt>
      <trkpt lat="43.48372" lon="1.54684">
        <ele>203.991389</ele>
        <time>2023-01-04T10:50:44.063Z</time>
      </trkpt>
      <trkpt lat="43.48359" lon="1.5468">
        <ele>203.838608</ele>
        <time>2023-01-04T10:50:47.058Z</time>
      </trkpt>
      <trkpt lat="43.48348" lon="1.54678">
        <ele>203.695986</ele>
        <time>2023-01-04T10:50:49.070Z</time>
      </trkpt>
      <trkpt lat="43.48338" lon="1.54674">
        <ele>203.56923</ele>
        <time>2023-01-04T10:50:51.065Z</time>
      </trkpt>
      <trkpt lat="43.48327" lon="1.54673">
        <ele>203.435899</ele>
        <time>2023-01-04T10:50:53.061Z</time>
      </trkpt>
      <trkpt lat="43.48318" lon="1.54669">
        <ele>203.325408</ele>
        <time>2023-01-04T10:50:55.060Z</time>
      </trkpt>
      <trkpt lat="43.48308" lon="1.54669">
        <ele>203.206428</ele>
        <time>2023-01-04T10:50:57.065Z</time>
      </trkpt>
      <trkpt lat="43.48298" lon="1.54671">
        <ele>203.175921</ele>
        <time>2023-01-04T10:50:59.063Z</time>
      </trkpt>
      <trkpt lat="43.48289" lon="1.54676">
        <ele>203.354942</ele>
        <time>2023-01-04T10:51:01.039Z</time>
      </trkpt>
      <trkpt lat="43.48281" lon="1.54683">
        <ele>203.529666</ele>
        <time>2023-01-04T10:51:03.070Z</time>
      </trkpt>
      <trkpt lat="43.48272" lon="1.54693">
        <ele>203.765887</ele>
        <time>2023-01-04T10:51:06.044Z</time>
      </trkpt>
      <trkpt lat="43.48261" lon="1.54703">
        <ele>204.008788</ele>
        <time>2023-01-04T10:51:09.045Z</time>
      </trkpt>
      <trkpt lat="43.4825" lon="1.54713">
        <ele>204.257971</ele>
        <time>2023-01-04T10:51:12.069Z</time>
      </trkpt>
      <trkpt lat="43.48238" lon="1.54724">
        <ele>204.526711</ele>
        <time>2023-01-04T10:51:15.069Z</time>
      </trkpt>
      <trkpt lat="43.48229" lon="1.54734">
        <ele>204.743958</ele>
        <time>2023-01-04T10:51:17.072Z</time>
      </trkpt>
      <trkpt lat="43.48221" lon="1.54743">
        <ele>204.945791</ele>
        <time>2023-01-04T10:51:19.073Z</time>
      </trkpt>
      <trkpt lat="43.48213" lon="1.54751">
        <ele>205.130971</ele>
        <time>2023-01-04T10:51:21.072Z</time>
      </trkpt>
      <trkpt lat="43.48206" lon="1.54758">
        <ele>205.307351</ele>
        <time>2023-01-04T10:51:23.051Z</time>
      </trkpt>
      <trkpt lat="43.48197" lon="1.54764">
        <ele>205.497351</ele>
        <time>2023-01-04T10:51:25.056Z</time>
      </trkpt>
      <trkpt lat="43.48185" lon="1.54771">
        <ele>205.742215</ele>
        <time>2023-01-04T10:51:28.062Z</time>
      </trkpt>
      <trkpt lat="43.48172" lon="1.54779">
        <ele>206.006809</ele>
        <time>2023-01-04T10:51:31.071Z</time>
      </trkpt>
      <trkpt lat="43.4816" lon="1.54788">
        <ele>206.264806</ele>
        <time>2023-01-04T10:51:33.058Z</time>
      </trkpt>
      <trkpt lat="43.48151" lon="1.54793">
        <ele>206.456057</ele>
        <time>2023-01-04T10:51:35.052Z</time>
      </trkpt>
      <trkpt lat="43.48141" lon="1.54798">
        <ele>206.456979</ele>
        <time>2023-01-04T10:51:37.054Z</time>
      </trkpt>
      <trkpt lat="43.48132" lon="1.548">
        <ele>206.344126</ele>
        <time>2023-01-04T10:51:39.055Z</time>
      </trkpt>
      <trkpt lat="43.48121" lon="1.54804">
        <ele>206.206348</ele>
        <time>2023-01-04T10:51:41.071Z</time>
      </trkpt>
      <trkpt lat="43.48111" lon="1.54811">
        <ele>206.065053</ele>
        <time>2023-01-04T10:51:43.065Z</time>
      </trkpt>
      <trkpt lat="43.48101" lon="1.54819">
        <ele>205.922013</ele>
        <time>2023-01-04T10:51:45.054Z</time>
      </trkpt>
      <trkpt lat="43.48092" lon="1.54829">
        <ele>205.781116</ele>
        <time>2023-01-04T10:51:47.045Z</time>
      </trkpt>
      <trkpt lat="43.48085" lon="1.54838">
        <ele>205.656126</ele>
        <time>2023-01-04T10:51:49.059Z</time>
      </trkpt>
      <trkpt lat="43.4808" lon="1.54849">
        <ele>205.54082</ele>
        <time>2023-01-04T10:51:51.068Z</time>
      </trkpt>
      <trkpt lat="43.48077" lon="1.54866">
        <ele>205.388142</ele>
        <time>2023-01-04T10:51:54.070Z</time>
      </trkpt>
      <trkpt lat="43.48076" lon="1.54882">
        <ele>205.236967</ele>
        <time>2023-01-04T10:51:58.065Z</time>
      </trkpt>
      <trkpt lat="43.48076" lon="1.54898">
        <ele>205.099665</ele>
        <time>2023-01-04T10:52:03.043Z</time>
      </trkpt>
      <trkpt lat="43.48073" lon="1.54911">
        <ele>204.974722</ele>
        <time>2023-01-04T10:52:06.050Z</time>
      </trkpt>
      <trkpt lat="43.4807" lon="1.54927">
        <ele>204.82195</ele>
        <time>2023-01-04T10:52:09.065Z</time>
      </trkpt>
      <trkpt lat="43.48068" lon="1.54944">
        <ele>204.671304</ele>
        <time>2023-01-04T10:52:12.068Z</time>
      </trkpt>
      <trkpt lat="43.48065" lon="1.54955">
        <ele>204.558365</ele>
        <time>2023-01-04T10:52:14.064Z</time>
      </trkpt>
      <trkpt lat="43.48062" lon="1.54968">
        <ele>204.441544</ele>
        <time>2023-01-04T10:52:16.071Z</time>
      </trkpt>
      <trkpt lat="43.48058" lon="1.5498">
        <ele>204.323884</ele>
        <time>2023-01-04T10:52:18.065Z</time>
      </trkpt>
      <trkpt lat="43.48054" lon="1.54991">
        <ele>204.388423</ele>
        <time>2023-01-04T10:52:20.070Z</time>
      </trkpt>
      <trkpt lat="43.48047" lon="1.55007">
        <ele>204.548116</ele>
        <time>2023-01-04T10:52:23.075Z</time>
      </trkpt>
      <trkpt lat="43.48038" lon="1.55021">
        <ele>204.705235</ele>
        <time>2023-01-04T10:52:26.071Z</time>
      </trkpt>
      <trkpt lat="43.48031" lon="1.5503">
        <ele>204.81816</ele>
        <time>2023-01-04T10:52:28.063Z</time>
      </trkpt>
      <trkpt lat="43.48024" lon="1.55038">
        <ele>204.926721</ele>
        <time>2023-01-04T10:52:30.050Z</time>
      </trkpt>
      <trkpt lat="43.48014" lon="1.55048">
        <ele>205.078247</ele>
        <time>2023-01-04T10:52:33.074Z</time>
      </trkpt>
      <trkpt lat="43.48005" lon="1.55054">
        <ele>205.186721</ele>
        <time>2023-01-04T10:52:35.071Z</time>
      </trkpt>
      <trkpt lat="43.47997" lon="1.55061">
        <ele>205.30231</ele>
        <time>2023-01-04T10:52:37.060Z</time>
      </trkpt>
      <trkpt lat="43.47989" lon="1.55067">
        <ele>205.415576</ele>
        <time>2023-01-04T10:52:40.072Z</time>
      </trkpt>
      <trkpt lat="43.47978" lon="1.55076">
        <ele>205.564727</ele>
        <time>2023-01-04T10:52:43.059Z</time>
      </trkpt>
      <trkpt lat="43.47967" lon="1.55083">
        <ele>205.710174</ele>
        <time>2023-01-04T10:52:46.062Z</time>
      </trkpt>
      <trkpt lat="43.47954" lon="1.5509">
        <ele>205.8734</ele>
        <time>2023-01-04T10:52:49.066Z</time>
      </trkpt>
      <trkpt lat="43.47945" lon="1.55096">
        <ele>205.990959</ele>
        <time>2023-01-04T10:52:51.071Z</time>
      </trkpt>
      <trkpt lat="43.47935" lon="1.55103">
        <ele>206.122211</ele>
        <time>2023-01-04T10:52:53.068Z</time>
      </trkpt>
      <trkpt lat="43.47926" lon="1.55109">
        <ele>206.23814</ele>
        <time>2023-01-04T10:52:55.069Z</time>
      </trkpt>
      <trkpt lat="43.47917" lon="1.55115">
        <ele>206.362131</ele>
        <time>2023-01-04T10:52:57.055Z</time>
      </trkpt>
      <trkpt lat="43.47908" lon="1.55122">
        <ele>206.458273</ele>
        <time>2023-01-04T10:52:59.071Z</time>
      </trkpt>
      <trkpt lat="43.47899" lon="1.55129">
        <ele>206.537988</ele>
        <time>2023-01-04T10:53:01.073Z</time>
      </trkpt>
      <trkpt lat="43.47889" lon="1.55136">
        <ele>206.621397</ele>
        <time>2023-01-04T10:53:03.078Z</time>
      </trkpt>
      <trkpt lat="43.47879" lon="1.55143">
        <ele>206.703075</ele>
        <time>2023-01-04T10:53:05.067Z</time>
      </trkpt>
      <trkpt lat="43.4787" lon="1.55151">
        <ele>206.781222</ele>
        <time>2023-01-04T10:53:07.073Z</time>
      </trkpt>
      <trkpt lat="43.47862" lon="1.5516">
        <ele>206.861114</ele>
        <time>2023-01-04T10:53:09.060Z</time>
      </trkpt>
      <trkpt lat="43.47854" lon="1.55167">
        <ele>206.929396</ele>
        <time>2023-01-04T10:53:11.069Z</time>
      </trkpt>
      <trkpt lat="43.47847" lon="1.55176">
        <ele>206.998068</ele>
        <time>2023-01-04T10:53:13.047Z</time>
      </trkpt>
      <trkpt lat="43.4784" lon="1.55184">
        <ele>207.065124</ele>
        <time>2023-01-04T10:53:15.070Z</time>
      </trkpt>
      <trkpt lat="43.47834" lon="1.55193">
        <ele>207.135775</ele>
        <time>2023-01-04T10:53:17.070Z</time>
      </trkpt>
      <trkpt lat="43.47825" lon="1.55205">
        <ele>207.223979</ele>
        <time>2023-01-04T10:53:20.071Z</time>
      </trkpt>
      <trkpt lat="43.47818" lon="1.55216">
        <ele>207.305319</ele>
        <time>2023-01-04T10:53:22.056Z</time>
      </trkpt>
      <trkpt lat="43.47808" lon="1.5523">
        <ele>207.410165</ele>
        <time>2023-01-04T10:53:25.070Z</time>
      </trkpt>
      <trkpt lat="43.47797" lon="1.55243">
        <ele>207.5186</ele>
        <time>2023-01-04T10:53:28.061Z</time>
      </trkpt>
      <trkpt lat="43.47788" lon="1.55254">
        <ele>207.605126</ele>
        <time>2023-01-04T10:53:30.070Z</time>
      </trkpt>
      <trkpt lat="43.4778" lon="1.55262">
        <ele>207.681107</ele>
        <time>2023-01-04T10:53:32.060Z</time>
      </trkpt>
      <trkpt lat="43.4777" lon="1.55272">
        <ele>207.730622</ele>
        <time>2023-01-04T10:53:35.067Z</time>
      </trkpt>
      <trkpt lat="43.47763" lon="1.5528">
        <ele>207.595587</ele>
        <time>2023-01-04T10:53:41.071Z</time>
      </trkpt>
      <trkpt lat="43.47755" lon="1.5529">
        <ele>207.441341</ele>
        <time>2023-01-04T10:54:01.050Z</time>
      </trkpt>
      <trkpt lat="43.47746" lon="1.553">
        <ele>207.264207</ele>
        <time>2023-01-04T10:54:04.066Z</time>
      </trkpt>
      <trkpt lat="43.47739" lon="1.55308">
        <ele>207.122489</ele>
        <time>2023-01-04T10:54:06.072Z</time>
      </trkpt>
      <trkpt lat="43.47731" lon="1.55316">
        <ele>206.977914</ele>
        <time>2023-01-04T10:54:08.071Z</time>
      </trkpt>
      <trkpt lat="43.47723" lon="1.55324">
        <ele>206.832279</ele>
        <time>2023-01-04T10:54:10.068Z</time>
      </trkpt>
      <trkpt lat="43.47713" lon="1.55336">
        <ele>206.635591</ele>
        <time>2023-01-04T10:54:13.061Z</time>
      </trkpt>
      <trkpt lat="43.47703" lon="1.55345">
        <ele>206.457389</ele>
        <time>2023-01-04T10:54:16.066Z</time>
      </trkpt>
      <trkpt lat="43.47694" lon="1.55353">
        <ele>206.297002</ele>
        <time>2023-01-04T10:54:19.070Z</time>
      </trkpt>
      <trkpt lat="43.47685" lon="1.55362">
        <ele>206.13785</ele>
        <time>2023-01-04T10:54:22.066Z</time>
      </trkpt>
      <trkpt lat="43.47676" lon="1.5537">
        <ele>205.976753</ele>
        <time>2023-01-04T10:54:25.059Z</time>
      </trkpt>
      <trkpt lat="43.47667" lon="1.55377">
        <ele>205.821057</ele>
        <time>2023-01-04T10:54:28.064Z</time>
      </trkpt>
      <trkpt lat="43.47659" lon="1.55385">
        <ele>205.671121</ele>
        <time>2023-01-04T10:54:31.064Z</time>
      </trkpt>
      <trkpt lat="43.4765" lon="1.55394">
        <ele>205.499639</ele>
        <time>2023-01-04T10:54:34.069Z</time>
      </trkpt>
      <trkpt lat="43.4764" lon="1.55402">
        <ele>205.326908</ele>
        <time>2023-01-04T10:54:37.052Z</time>
      </trkpt>
      <trkpt lat="43.4763" lon="1.55411">
        <ele>205.155426</ele>
        <time>2023-01-04T10:54:40.077Z</time>
      </trkpt>
      <trkpt lat="43.47619" lon="1.5542">
        <ele>205.210543</ele>
        <time>2023-01-04T10:54:43.060Z</time>
      </trkpt>
      <trkpt lat="43.4761" lon="1.5543">
        <ele>205.419436</ele>
        <time>2023-01-04T10:54:45.064Z</time>
      </trkpt>
      <trkpt lat="43.47602" lon="1.55436">
        <ele>205.581337</ele>
        <time>2023-01-04T10:54:47.070Z</time>
      </trkpt>
      <trkpt lat="43.4759" lon="1.55446">
        <ele>205.822539</ele>
        <time>2023-01-04T10:54:49.073Z</time>
      </trkpt>
      <trkpt lat="43.47583" lon="1.55454">
        <ele>205.988435</ele>
        <time>2023-01-04T10:54:51.053Z</time>
      </trkpt>
      <trkpt lat="43.47573" lon="1.55465">
        <ele>206.221122</ele>
        <time>2023-01-04T10:54:54.073Z</time>
      </trkpt>
      <trkpt lat="43.47562" lon="1.55475">
        <ele>206.441736</ele>
        <time>2023-01-04T10:54:57.060Z</time>
      </trkpt>
      <trkpt lat="43.47552" lon="1.55486">
        <ele>206.674916</ele>
        <time>2023-01-04T10:55:00.071Z</time>
      </trkpt>
      <trkpt lat="43.47545" lon="1.55493">
        <ele>206.835179</ele>
        <time>2023-01-04T10:55:02.067Z</time>
      </trkpt>
      <trkpt lat="43.47536" lon="1.55502">
        <ele>207.025505</ele>
        <time>2023-01-04T10:55:04.072Z</time>
      </trkpt>
      <trkpt lat="43.47525" lon="1.55513">
        <ele>207.265051</ele>
        <time>2023-01-04T10:55:07.047Z</time>
      </trkpt>
      <trkpt lat="43.47514" lon="1.55526">
        <ele>207.522612</ele>
        <time>2023-01-04T10:55:10.062Z</time>
      </trkpt>
      <trkpt lat="43.47507" lon="1.55534">
        <ele>207.685677</ele>
        <time>2023-01-04T10:55:12.062Z</time>
      </trkpt>
      <trkpt lat="43.47499" lon="1.55542">
        <ele>207.857385</ele>
        <time>2023-01-04T10:55:14.072Z</time>
      </trkpt>
      <trkpt lat="43.47491" lon="1.5555">
        <ele>208.029768</ele>
        <time>2023-01-04T10:55:16.072Z</time>
      </trkpt>
      <trkpt lat="43.47484" lon="1.55557">
        <ele>208.192221</ele>
        <time>2023-01-04T10:55:18.072Z</time>
      </trkpt>
      <trkpt lat="43.47476" lon="1.55565">
        <ele>208.222825</ele>
        <time>2023-01-04T10:55:20.071Z</time>
      </trkpt>
      <trkpt lat="43.47469" lon="1.55574">
        <ele>208.145877</ele>
        <time>2023-01-04T10:55:22.065Z</time>
      </trkpt>
      <trkpt lat="43.47461" lon="1.5558">
        <ele>208.069825</ele>
        <time>2023-01-04T10:55:24.071Z</time>
      </trkpt>
      <trkpt lat="43.47453" lon="1.55588">
        <ele>207.989508</ele>
        <time>2023-01-04T10:55:26.068Z</time>
      </trkpt>
      <trkpt lat="43.47446" lon="1.55596">
        <ele>207.911908</ele>
        <time>2023-01-04T10:55:28.066Z</time>
      </trkpt>
      <trkpt lat="43.47437" lon="1.55605">
        <ele>207.825897</ele>
        <time>2023-01-04T10:55:30.053Z</time>
      </trkpt>
      <trkpt lat="43.47425" lon="1.55614">
        <ele>207.710862</ele>
        <time>2023-01-04T10:55:33.055Z</time>
      </trkpt>
      <trkpt lat="43.47415" lon="1.55618">
        <ele>207.6295</ele>
        <time>2023-01-04T10:55:35.066Z</time>
      </trkpt>
      <trkpt lat="43.47406" lon="1.55624">
        <ele>207.551671</ele>
        <time>2023-01-04T10:55:37.069Z</time>
      </trkpt>
      <trkpt lat="43.47397" lon="1.55629">
        <ele>207.472298</ele>
        <time>2023-01-04T10:55:39.041Z</time>
      </trkpt>
      <trkpt lat="43.47389" lon="1.55633">
        <ele>207.398072</ele>
        <time>2023-01-04T10:55:41.071Z</time>
      </trkpt>
      <trkpt lat="43.4738" lon="1.55638">
        <ele>207.317281</ele>
        <time>2023-01-04T10:55:43.056Z</time>
      </trkpt>
      <trkpt lat="43.47367" lon="1.55644">
        <ele>207.207774</ele>
        <time>2023-01-04T10:55:46.058Z</time>
      </trkpt>
      <trkpt lat="43.47359" lon="1.55648">
        <ele>207.134701</ele>
        <time>2023-01-04T10:55:48.060Z</time>
      </trkpt>
      <trkpt lat="43.47347" lon="1.55653">
        <ele>207.03574</ele>
        <time>2023-01-04T10:55:51.045Z</time>
      </trkpt>
      <trkpt lat="43.47338" lon="1.55657">
        <ele>206.960549</ele>
        <time>2023-01-04T10:55:53.041Z</time>
      </trkpt>
      <trkpt lat="43.47328" lon="1.55661">
        <ele>206.873876</ele>
        <time>2023-01-04T10:55:55.064Z</time>
      </trkpt>
      <trkpt lat="43.47318" lon="1.55667">
        <ele>206.797771</ele>
        <time>2023-01-04T10:55:57.048Z</time>
      </trkpt>
      <trkpt lat="43.47309" lon="1.55672">
        <ele>206.789448</ele>
        <time>2023-01-04T10:55:59.068Z</time>
      </trkpt>
      <trkpt lat="43.47299" lon="1.55677">
        <ele>206.781059</ele>
        <time>2023-01-04T10:56:01.053Z</time>
      </trkpt>
      <trkpt lat="43.4729" lon="1.55681">
        <ele>206.772629</ele>
        <time>2023-01-04T10:56:03.070Z</time>
      </trkpt>
      <trkpt lat="43.4728" lon="1.55686">
        <ele>206.764136</ele>
        <time>2023-01-04T10:56:05.068Z</time>
      </trkpt>
      <trkpt lat="43.4727" lon="1.55692">
        <ele>206.754855</ele>
        <time>2023-01-04T10:56:07.074Z</time>
      </trkpt>
      <trkpt lat="43.4726" lon="1.55696">
        <ele>206.746483</ele>
        <time>2023-01-04T10:56:09.069Z</time>
      </trkpt>
      <trkpt lat="43.47248" lon="1.55701">
        <ele>206.735486</ele>
        <time>2023-01-04T10:56:12.054Z</time>
      </trkpt>
      <trkpt lat="43.47239" lon="1.55706">
        <ele>206.727526</ele>
        <time>2023-01-04T10:56:14.068Z</time>
      </trkpt>
      <trkpt lat="43.4723" lon="1.5571">
        <ele>206.719727</ele>
        <time>2023-01-04T10:56:16.069Z</time>
      </trkpt>
      <trkpt lat="43.47216" lon="1.55716">
        <ele>206.707843</ele>
        <time>2023-01-04T10:56:19.073Z</time>
      </trkpt>
      <trkpt lat="43.47207" lon="1.55719">
        <ele>206.700096</ele>
        <time>2023-01-04T10:56:21.049Z</time>
      </trkpt>
      <trkpt lat="43.47198" lon="1.55722">
        <ele>206.691604</ele>
        <time>2023-01-04T10:56:23.071Z</time>
      </trkpt>
      <trkpt lat="43.47188" lon="1.55725">
        <ele>206.683806</ele>
        <time>2023-01-04T10:56:25.073Z</time>
      </trkpt>
      <trkpt lat="43.47179" lon="1.55727">
        <ele>206.675774</ele>
        <time>2023-01-04T10:56:27.050Z</time>
      </trkpt>
      <trkpt lat="43.47169" lon="1.5573">
        <ele>206.66751</ele>
        <time>2023-01-04T10:56:29.071Z</time>
      </trkpt>
      <trkpt lat="43.47159" lon="1.55733">
        <ele>206.658567</ele>
        <time>2023-01-04T10:56:31.056Z</time>
      </trkpt>
      <trkpt lat="43.47149" lon="1.55735">
        <ele>206.650193</ele>
        <time>2023-01-04T10:56:33.071Z</time>
      </trkpt>
      <trkpt lat="43.47139" lon="1.55737">
        <ele>206.584922</ele>
        <time>2023-01-04T10:56:35.071Z</time>
      </trkpt>
      <trkpt lat="43.47129" lon="1.55739">
        <ele>206.512836</ele>
        <time>2023-01-04T10:56:37.067Z</time>
      </trkpt>
      <trkpt lat="43.47119" lon="1.55741">
        <ele>206.440675</ele>
        <time>2023-01-04T10:56:39.067Z</time>
      </trkpt>
      <trkpt lat="43.47109" lon="1.55743">
        <ele>206.366994</ele>
        <time>2023-01-04T10:56:41.068Z</time>
      </trkpt>
      <trkpt lat="43.47098" lon="1.55746">
        <ele>206.28307</ele>
        <time>2023-01-04T10:56:43.067Z</time>
      </trkpt>
      <trkpt lat="43.47088" lon="1.55747">
        <ele>206.208294</ele>
        <time>2023-01-04T10:56:45.071Z</time>
      </trkpt>
      <trkpt lat="43.47076" lon="1.55749">
        <ele>206.123266</ele>
        <time>2023-01-04T10:56:48.049Z</time>
      </trkpt>
      <trkpt lat="43.47063" lon="1.55753">
        <ele>206.028109</ele>
        <time>2023-01-04T10:56:51.049Z</time>
      </trkpt>
      <trkpt lat="43.47051" lon="1.55757">
        <ele>205.932461</ele>
        <time>2023-01-04T10:56:54.069Z</time>
      </trkpt>
      <trkpt lat="43.4704" lon="1.55761">
        <ele>205.851138</ele>
        <time>2023-01-04T10:56:57.070Z</time>
      </trkpt>
      <trkpt lat="43.4703" lon="1.55766">
        <ele>205.776917</ele>
        <time>2023-01-04T10:57:00.064Z</time>
      </trkpt>
      <trkpt lat="43.4702" lon="1.55773">
        <ele>205.693028</ele>
        <time>2023-01-04T10:57:03.075Z</time>
      </trkpt>
      <trkpt lat="43.47011" lon="1.5578">
        <ele>205.617313</ele>
        <time>2023-01-04T10:57:06.072Z</time>
      </trkpt>
      <trkpt lat="43.47002" lon="1.55788">
        <ele>205.53753</ele>
        <time>2023-01-04T10:57:09.071Z</time>
      </trkpt>
      <trkpt lat="43.46993" lon="1.558">
        <ele>205.448655</ele>
        <time>2023-01-04T10:57:12.073Z</time>
      </trkpt>
      <trkpt lat="43.46983" lon="1.5581">
        <ele>205.361078</ele>
        <time>2023-01-04T10:57:15.068Z</time>
      </trkpt>
      <trkpt lat="43.46974" lon="1.5582">
        <ele>205.386958</ele>
        <time>2023-01-04T10:57:18.072Z</time>
      </trkpt>
      <trkpt lat="43.46968" lon="1.5583">
        <ele>205.439376</ele>
        <time>2023-01-04T10:57:21.067Z</time>
      </trkpt>
      <trkpt lat="43.46961" lon="1.5584">
        <ele>205.496077</ele>
        <time>2023-01-04T10:57:24.071Z</time>
      </trkpt>
      <trkpt lat="43.46954" lon="1.55855">
        <ele>205.568696</ele>
        <time>2023-01-04T10:57:27.074Z</time>
      </trkpt>
      <trkpt lat="43.46949" lon="1.55868">
        <ele>205.629118</ele>
        <time>2023-01-04T10:57:29.068Z</time>
      </trkpt>
      <trkpt lat="43.46943" lon="1.5588">
        <ele>205.687313</ele>
        <time>2023-01-04T10:57:31.047Z</time>
      </trkpt>
      <trkpt lat="43.46936" lon="1.55894">
        <ele>205.755997</ele>
        <time>2023-01-04T10:57:34.063Z</time>
      </trkpt>
      <trkpt lat="43.46931" lon="1.55904">
        <ele>205.8066</ele>
        <time>2023-01-04T10:57:36.062Z</time>
      </trkpt>
      <trkpt lat="43.46924" lon="1.55914">
        <ele>205.861871</ele>
        <time>2023-01-04T10:57:38.063Z</time>
      </trkpt>
      <trkpt lat="43.46919" lon="1.55925">
        <ele>205.915116</ele>
        <time>2023-01-04T10:57:40.061Z</time>
      </trkpt>
      <trkpt lat="43.46913" lon="1.55937">
        <ele>205.973311</ele>
        <time>2023-01-04T10:57:42.053Z</time>
      </trkpt>
      <trkpt lat="43.46907" lon="1.5595">
        <ele>206.036805</ele>
        <time>2023-01-04T10:57:44.066Z</time>
      </trkpt>
      <trkpt lat="43.46899" lon="1.55967">
        <ele>206.119744</ele>
        <time>2023-01-04T10:57:47.071Z</time>
      </trkpt>
      <trkpt lat="43.46895" lon="1.55979">
        <ele>206.173713</ele>
        <time>2023-01-04T10:57:49.051Z</time>
      </trkpt>
      <trkpt lat="43.46889" lon="1.5599">
        <ele>206.227317</ele>
        <time>2023-01-04T10:57:51.064Z</time>
      </trkpt>
      <trkpt lat="43.46882" lon="1.56004">
        <ele>206.298009</ele>
        <time>2023-01-04T10:57:54.072Z</time>
      </trkpt>
      <trkpt lat="43.46875" lon="1.56018">
        <ele>206.360872</ele>
        <time>2023-01-04T10:57:56.069Z</time>
      </trkpt>
      <trkpt lat="43.4687" lon="1.56029">
        <ele>206.399054</ele>
        <time>2023-01-04T10:57:58.050Z</time>
      </trkpt>
      <trkpt lat="43.46864" lon="1.5604">
        <ele>206.441998</ele>
        <time>2023-01-04T10:58:00.048Z</time>
      </trkpt>
      <trkpt lat="43.46859" lon="1.56051">
        <ele>206.480307</ele>
        <time>2023-01-04T10:58:02.071Z</time>
      </trkpt>
      <trkpt lat="43.46853" lon="1.56062">
        <ele>206.522024</ele>
        <time>2023-01-04T10:58:04.068Z</time>
      </trkpt>
      <trkpt lat="43.46847" lon="1.56074">
        <ele>206.566934</ele>
        <time>2023-01-04T10:58:06.073Z</time>
      </trkpt>
      <trkpt lat="43.46841" lon="1.56087">
        <ele>206.614608</ele>
        <time>2023-01-04T10:58:08.074Z</time>
      </trkpt>
      <trkpt lat="43.46835" lon="1.56099">
        <ele>206.658093</ele>
        <time>2023-01-04T10:58:10.069Z</time>
      </trkpt>
      <trkpt lat="43.4683" lon="1.5611">
        <ele>206.697897</ele>
        <time>2023-01-04T10:58:12.070Z</time>
      </trkpt>
      <trkpt lat="43.46825" lon="1.56122">
        <ele>206.738666</ele>
        <time>2023-01-04T10:58:14.072Z</time>
      </trkpt>
      <trkpt lat="43.46819" lon="1.56134">
        <ele>206.7823</ele>
        <time>2023-01-04T10:58:16.070Z</time>
      </trkpt>
      <trkpt lat="43.46814" lon="1.56145">
        <ele>206.822789</ele>
        <time>2023-01-04T10:58:18.074Z</time>
      </trkpt>
      <trkpt lat="43.46809" lon="1.56155">
        <ele>206.861376</ele>
        <time>2023-01-04T10:58:20.065Z</time>
      </trkpt>
      <trkpt lat="43.46802" lon="1.56171">
        <ele>206.916552</ele>
        <time>2023-01-04T10:58:23.067Z</time>
      </trkpt>
      <trkpt lat="43.46795" lon="1.56184">
        <ele>206.963914</ele>
        <time>2023-01-04T10:58:26.074Z</time>
      </trkpt>
      <trkpt lat="43.46787" lon="1.56199">
        <ele>207.020844</ele>
        <time>2023-01-04T10:58:29.071Z</time>
      </trkpt>
      <trkpt lat="43.46783" lon="1.5621">
        <ele>207.059609</ele>
        <time>2023-01-04T10:58:31.062Z</time>
      </trkpt>
      <trkpt lat="43.46778" lon="1.56223">
        <ele>207.093355</ele>
        <time>2023-01-04T10:58:33.066Z</time>
      </trkpt>
      <trkpt lat="43.46773" lon="1.56234">
        <ele>207.075473</ele>
        <time>2023-01-04T10:58:35.070Z</time>
      </trkpt>
      <trkpt lat="43.46767" lon="1.56246">
        <ele>207.054936</ele>
        <time>2023-01-04T10:58:37.068Z</time>
      </trkpt>
      <trkpt lat="43.46762" lon="1.56258">
        <ele>207.035798</ele>
        <time>2023-01-04T10:58:39.066Z</time>
      </trkpt>
      <trkpt lat="43.46756" lon="1.5627">
        <ele>207.01567</ele>
        <time>2023-01-04T10:58:41.062Z</time>
      </trkpt>
      <trkpt lat="43.46751" lon="1.56283">
        <ele>206.994496</ele>
        <time>2023-01-04T10:58:43.045Z</time>
      </trkpt>
      <trkpt lat="43.46744" lon="1.56297">
        <ele>206.971906</ele>
        <time>2023-01-04T10:58:46.069Z</time>
      </trkpt>
      <trkpt lat="43.46738" lon="1.56307">
        <ele>206.954148</ele>
        <time>2023-01-04T10:58:48.066Z</time>
      </trkpt>
      <trkpt lat="43.46731" lon="1.5632">
        <ele>206.931219</ele>
        <time>2023-01-04T10:58:51.065Z</time>
      </trkpt>
      <trkpt lat="43.46726" lon="1.56333">
        <ele>206.910941</ele>
        <time>2023-01-04T10:58:53.074Z</time>
      </trkpt>
      <trkpt lat="43.46719" lon="1.56347">
        <ele>206.88721</ele>
        <time>2023-01-04T10:58:56.071Z</time>
      </trkpt>
      <trkpt lat="43.46715" lon="1.56359">
        <ele>206.869525</ele>
        <time>2023-01-04T10:58:58.074Z</time>
      </trkpt>
      <trkpt lat="43.46709" lon="1.56374">
        <ele>206.844881</ele>
        <time>2023-01-04T10:59:01.048Z</time>
      </trkpt>
      <trkpt lat="43.46701" lon="1.56388">
        <ele>206.820481</ele>
        <time>2023-01-04T10:59:04.051Z</time>
      </trkpt>
      <trkpt lat="43.46694" lon="1.56405">
        <ele>206.794197</ele>
        <time>2023-01-04T10:59:07.049Z</time>
      </trkpt>
      <trkpt lat="43.46689" lon="1.56416">
        <ele>206.775505</ele>
        <time>2023-01-04T10:59:09.073Z</time>
      </trkpt>
      <trkpt lat="43.46685" lon="1.56427">
        <ele>206.757659</ele>
        <time>2023-01-04T10:59:11.070Z</time>
      </trkpt>
      <trkpt lat="43.46679" lon="1.56443">
        <ele>206.807617</ele>
        <time>2023-01-04T10:59:13.047Z</time>
      </trkpt>
      <trkpt lat="43.46675" lon="1.56455">
        <ele>206.860394</ele>
        <time>2023-01-04T10:59:15.059Z</time>
      </trkpt>
      <trkpt lat="43.46672" lon="1.56467">
        <ele>206.915322</ele>
        <time>2023-01-04T10:59:17.072Z</time>
      </trkpt>
      <trkpt lat="43.46667" lon="1.56478">
        <ele>206.966513</ele>
        <time>2023-01-04T10:59:19.056Z</time>
      </trkpt>
      <trkpt lat="43.46663" lon="1.56492">
        <ele>207.026676</ele>
        <time>2023-01-04T10:59:21.071Z</time>
      </trkpt>
      <trkpt lat="43.46659" lon="1.56506">
        <ele>207.091406</ele>
        <time>2023-01-04T10:59:23.061Z</time>
      </trkpt>
      <trkpt lat="43.46655" lon="1.56518">
        <ele>207.142295</ele>
        <time>2023-01-04T10:59:25.070Z</time>
      </trkpt>
      <trkpt lat="43.4665" lon="1.5653">
        <ele>207.199272</ele>
        <time>2023-01-04T10:59:27.070Z</time>
      </trkpt>
      <trkpt lat="43.46645" lon="1.56544">
        <ele>207.26368</ele>
        <time>2023-01-04T10:59:29.051Z</time>
      </trkpt>
      <trkpt lat="43.46639" lon="1.56561">
        <ele>207.340755</ele>
        <time>2023-01-04T10:59:32.073Z</time>
      </trkpt>
      <trkpt lat="43.46634" lon="1.56574">
        <ele>207.397657</ele>
        <time>2023-01-04T10:59:34.068Z</time>
      </trkpt>
      <trkpt lat="43.46629" lon="1.56586">
        <ele>207.456618</ele>
        <time>2023-01-04T10:59:36.049Z</time>
      </trkpt>
      <trkpt lat="43.46625" lon="1.566">
        <ele>207.516339</ele>
        <time>2023-01-04T10:59:38.068Z</time>
      </trkpt>
      <trkpt lat="43.46619" lon="1.56615">
        <ele>207.589675</ele>
        <time>2023-01-04T10:59:41.071Z</time>
      </trkpt>
      <trkpt lat="43.46613" lon="1.5663">
        <ele>207.658855</ele>
        <time>2023-01-04T10:59:44.065Z</time>
      </trkpt>
      <trkpt lat="43.46607" lon="1.56644">
        <ele>207.724921</ele>
        <time>2023-01-04T10:59:46.058Z</time>
      </trkpt>
      <trkpt lat="43.46601" lon="1.56658">
        <ele>207.763681</ele>
        <time>2023-01-04T10:59:49.053Z</time>
      </trkpt>
      <trkpt lat="43.46596" lon="1.56671">
        <ele>207.763595</ele>
        <time>2023-01-04T10:59:51.071Z</time>
      </trkpt>
      <trkpt lat="43.4659" lon="1.56683">
        <ele>207.763507</ele>
        <time>2023-01-04T10:59:53.072Z</time>
      </trkpt>
      <trkpt lat="43.46585" lon="1.56697">
        <ele>207.763413</ele>
        <time>2023-01-04T10:59:56.066Z</time>
      </trkpt>
      <trkpt lat="43.46579" lon="1.56712">
        <ele>207.76331</ele>
        <time>2023-01-04T10:59:59.071Z</time>
      </trkpt>
      <trkpt lat="43.46574" lon="1.56724">
        <ele>207.763231</ele>
        <time>2023-01-04T11:00:01.057Z</time>
      </trkpt>
      <trkpt lat="43.46567" lon="1.56738">
        <ele>207.763126</ele>
        <time>2023-01-04T11:00:04.053Z</time>
      </trkpt>
      <trkpt lat="43.46562" lon="1.56748">
        <ele>207.76305</ele>
        <time>2023-01-04T11:00:06.071Z</time>
      </trkpt>
      <trkpt lat="43.46555" lon="1.56763">
        <ele>207.762947</ele>
        <time>2023-01-04T11:00:08.063Z</time>
      </trkpt>
      <trkpt lat="43.46549" lon="1.56777">
        <ele>207.762849</ele>
        <time>2023-01-04T11:00:11.065Z</time>
      </trkpt>
      <trkpt lat="43.46539" lon="1.56794">
        <ele>207.762715</ele>
        <time>2023-01-04T11:00:14.074Z</time>
      </trkpt>
      <trkpt lat="43.46531" lon="1.56809">
        <ele>207.762603</ele>
        <time>2023-01-04T11:00:17.067Z</time>
      </trkpt>
      <trkpt lat="43.46524" lon="1.5682">
        <ele>207.762517</ele>
        <time>2023-01-04T11:00:19.076Z</time>
      </trkpt>
      <trkpt lat="43.46518" lon="1.56832">
        <ele>207.762431</ele>
        <time>2023-01-04T11:00:21.083Z</time>
      </trkpt>
      <trkpt lat="43.46512" lon="1.56842">
        <ele>207.762352</ele>
        <time>2023-01-04T11:00:23.069Z</time>
      </trkpt>
      <trkpt lat="43.46505" lon="1.56854">
        <ele>207.762259</ele>
        <time>2023-01-04T11:00:26.086Z</time>
      </trkpt>
      <trkpt lat="43.46499" lon="1.56866">
        <ele>207.697476</ele>
        <time>2023-01-04T11:00:29.074Z</time>
      </trkpt>
      <trkpt lat="43.46493" lon="1.56877">
        <ele>207.617377</ele>
        <time>2023-01-04T11:00:32.056Z</time>
      </trkpt>
      <trkpt lat="43.46485" lon="1.56891">
        <ele>207.51505</ele>
        <time>2023-01-04T11:00:35.051Z</time>
      </trkpt>
      <trkpt lat="43.46476" lon="1.56906">
        <ele>207.405746</ele>
        <time>2023-01-04T11:00:38.077Z</time>
      </trkpt>
      <trkpt lat="43.46468" lon="1.5692">
        <ele>207.302965</ele>
        <time>2023-01-04T11:00:41.071Z</time>
      </trkpt>
      <trkpt lat="43.46462" lon="1.56932">
        <ele>207.21723</ele>
        <time>2023-01-04T11:00:44.064Z</time>
      </trkpt>
      <trkpt lat="43.46456" lon="1.56942">
        <ele>207.14319</ele>
        <time>2023-01-04T11:00:47.057Z</time>
      </trkpt>
      <trkpt lat="43.4645" lon="1.56953">
        <ele>207.05793</ele>
        <time>2023-01-04T11:00:51.072Z</time>
      </trkpt>
      <trkpt lat="43.46442" lon="1.56964">
        <ele>206.970494</ele>
        <time>2023-01-04T11:01:02.057Z</time>
      </trkpt>
      <trkpt lat="43.46434" lon="1.56975">
        <ele>206.878896</ele>
        <time>2023-01-04T11:01:06.073Z</time>
      </trkpt>
      <trkpt lat="43.46426" lon="1.56986">
        <ele>206.783626</ele>
        <time>2023-01-04T11:01:09.068Z</time>
      </trkpt>
      <trkpt lat="43.46417" lon="1.56993">
        <ele>206.707574</ele>
        <time>2023-01-04T11:01:11.066Z</time>
      </trkpt>
      <trkpt lat="43.46409" lon="1.57001">
        <ele>206.629324</ele>
        <time>2023-01-04T11:01:13.075Z</time>
      </trkpt>
      <trkpt lat="43.46401" lon="1.57008">
        <ele>206.548768</ele>
        <time>2023-01-04T11:01:15.067Z</time>
      </trkpt>
      <trkpt lat="43.46392" lon="1.57018">
        <ele>206.460833</ele>
        <time>2023-01-04T11:01:18.068Z</time>
      </trkpt>
      <trkpt lat="43.46384" lon="1.57025">
        <ele>206.38318</ele>
        <time>2023-01-04T11:01:21.051Z</time>
      </trkpt>
      <trkpt lat="43.46375" lon="1.57035">
        <ele>206.294636</ele>
        <time>2023-01-04T11:01:25.069Z</time>
      </trkpt>
      <trkpt lat="43.46368" lon="1.57043">
        <ele>206.230538</ele>
        <time>2023-01-04T11:01:28.060Z</time>
      </trkpt>
      <trkpt lat="43.46358" lon="1.57049">
        <ele>206.161389</ele>
        <time>2023-01-04T11:01:31.072Z</time>
      </trkpt>
      <trkpt lat="43.46349" lon="1.57056">
        <ele>206.089697</ele>
        <time>2023-01-04T11:01:34.073Z</time>
      </trkpt>
      <trkpt lat="43.4634" lon="1.57064">
        <ele>206.01953</ele>
        <time>2023-01-04T11:01:37.077Z</time>
      </trkpt>
      <trkpt lat="43.46331" lon="1.57069">
        <ele>205.951444</ele>
        <time>2023-01-04T11:01:40.067Z</time>
      </trkpt>
      <trkpt lat="43.46322" lon="1.57074">
        <ele>205.886692</ele>
        <time>2023-01-04T11:01:43.067Z</time>
      </trkpt>
      <trkpt lat="43.46313" lon="1.57079">
        <ele>205.825863</ele>
        <time>2023-01-04T11:01:46.070Z</time>
      </trkpt>
      <trkpt lat="43.46304" lon="1.57082">
        <ele>205.760877</ele>
        <time>2023-01-04T11:01:50.059Z</time>
      </trkpt>
      <trkpt lat="43.46295" lon="1.57086">
        <ele>205.699341</ele>
        <time>2023-01-04T11:01:54.072Z</time>
      </trkpt>
      <trkpt lat="43.46285" lon="1.57092">
        <ele>205.624901</ele>
        <time>2023-01-04T11:01:58.069Z</time>
      </trkpt>
      <trkpt lat="43.46277" lon="1.57099">
        <ele>205.562659</ele>
        <time>2023-01-04T11:02:01.073Z</time>
      </trkpt>
      <trkpt lat="43.46268" lon="1.57108">
        <ele>205.484701</ele>
        <time>2023-01-04T11:02:05.067Z</time>
      </trkpt>
      <trkpt lat="43.4626" lon="1.57115">
        <ele>205.420883</ele>
        <time>2023-01-04T11:02:08.077Z</time>
      </trkpt>
      <trkpt lat="43.46251" lon="1.57122">
        <ele>205.350131</ele>
        <time>2023-01-04T11:02:11.056Z</time>
      </trkpt>
      <trkpt lat="43.46242" lon="1.57129">
        <ele>205.28185</ele>
        <time>2023-01-04T11:02:14.066Z</time>
      </trkpt>
      <trkpt lat="43.46234" lon="1.57136">
        <ele>205.219684</ele>
        <time>2023-01-04T11:02:17.073Z</time>
      </trkpt>
      <trkpt lat="43.46227" lon="1.57146">
        <ele>205.152118</ele>
        <time>2023-01-04T11:02:20.077Z</time>
      </trkpt>
      <trkpt lat="43.4622" lon="1.57155">
        <ele>205.177686</ele>
        <time>2023-01-04T11:02:23.074Z</time>
      </trkpt>
      <trkpt lat="43.46213" lon="1.57162">
        <ele>205.35947</ele>
        <time>2023-01-04T11:02:28.051Z</time>
      </trkpt>
      <trkpt lat="43.46205" lon="1.57171">
        <ele>205.549827</ele>
        <time>2023-01-04T11:02:32.071Z</time>
      </trkpt>
      <trkpt lat="43.46198" lon="1.5718">
        <ele>205.750457</ele>
        <time>2023-01-04T11:02:36.075Z</time>
      </trkpt>
      <trkpt lat="43.46191" lon="1.57188">
        <ele>205.939276</ele>
        <time>2023-01-04T11:02:39.073Z</time>
      </trkpt>
      <trkpt lat="43.46183" lon="1.57199">
        <ele>206.155943</ele>
        <time>2023-01-04T11:02:42.067Z</time>
      </trkpt>
      <trkpt lat="43.46175" lon="1.5721">
        <ele>206.378876</ele>
        <time>2023-01-04T11:02:45.071Z</time>
      </trkpt>
      <trkpt lat="43.46167" lon="1.57222">
        <ele>206.614176</ele>
        <time>2023-01-04T11:02:48.065Z</time>
      </trkpt>
      <trkpt lat="43.46161" lon="1.57232">
        <ele>206.801979</ele>
        <time>2023-01-04T11:02:50.071Z</time>
      </trkpt>
      <trkpt lat="43.46153" lon="1.57245">
        <ele>207.05024</ele>
        <time>2023-01-04T11:02:53.072Z</time>
      </trkpt>
      <trkpt lat="43.46144" lon="1.5726">
        <ele>207.328826</ele>
        <time>2023-01-04T11:02:56.071Z</time>
      </trkpt>
      <trkpt lat="43.46135" lon="1.57274">
        <ele>207.582933</ele>
        <time>2023-01-04T11:02:58.072Z</time>
      </trkpt>
      <trkpt lat="43.46129" lon="1.57284">
        <ele>207.78291</ele>
        <time>2023-01-04T11:03:00.082Z</time>
      </trkpt>
      <trkpt lat="43.46121" lon="1.57296">
        <ele>208.022513</ele>
        <time>2023-01-04T11:03:03.073Z</time>
      </trkpt>
      <trkpt lat="43.46115" lon="1.57307">
        <ele>208.214361</ele>
        <time>2023-01-04T11:03:05.066Z</time>
      </trkpt>
      <trkpt lat="43.46107" lon="1.5732">
        <ele>208.451121</ele>
        <time>2023-01-04T11:03:08.074Z</time>
      </trkpt>
      <trkpt lat="43.46099" lon="1.57335">
        <ele>208.663216</ele>
        <time>2023-01-04T11:03:11.074Z</time>
      </trkpt>
      <trkpt lat="43.46092" lon="1.57348">
        <ele>208.620329</ele>
        <time>2023-01-04T11:03:14.071Z</time>
      </trkpt>
      <trkpt lat="43.46085" lon="1.57361">
        <ele>208.57725</ele>
        <time>2023-01-04T11:03:17.052Z</time>
      </trkpt>
      <trkpt lat="43.46078" lon="1.57373">
        <ele>208.536967</ele>
        <time>2023-01-04T11:03:20.066Z</time>
      </trkpt>
      <trkpt lat="43.4607" lon="1.57386">
        <ele>208.492127</ele>
        <time>2023-01-04T11:03:23.073Z</time>
      </trkpt>
      <trkpt lat="43.46062" lon="1.57397">
        <ele>208.449348</ele>
        <time>2023-01-04T11:03:26.074Z</time>
      </trkpt>
      <trkpt lat="43.46055" lon="1.57412">
        <ele>208.401963</ele>
        <time>2023-01-04T11:03:28.073Z</time>
      </trkpt>
      <trkpt lat="43.46048" lon="1.57422">
        <ele>208.365733</ele>
        <time>2023-01-04T11:03:30.073Z</time>
      </trkpt>
      <trkpt lat="43.46042" lon="1.57435">
        <ele>208.324794</ele>
        <time>2023-01-04T11:03:32.072Z</time>
      </trkpt>
      <trkpt lat="43.46036" lon="1.57447">
        <ele>208.287512</ele>
        <time>2023-01-04T11:03:34.083Z</time>
      </trkpt>
      <trkpt lat="43.46031" lon="1.57458">
        <ele>208.25067</ele>
        <time>2023-01-04T11:03:36.068Z</time>
      </trkpt>
      <trkpt lat="43.46023" lon="1.57471">
        <ele>208.206293</ele>
        <time>2023-01-04T11:03:39.070Z</time>
      </trkpt>
      <trkpt lat="43.46019" lon="1.57482">
        <ele>208.172866</ele>
        <time>2023-01-04T11:03:41.071Z</time>
      </trkpt>
      <trkpt lat="43.46012" lon="1.57494">
        <ele>208.133827</ele>
        <time>2023-01-04T11:03:44.074Z</time>
      </trkpt>
      <trkpt lat="43.46005" lon="1.57504">
        <ele>208.097107</ele>
        <time>2023-01-04T11:03:47.048Z</time>
      </trkpt>
      <trkpt lat="43.45998" lon="1.57517">
        <ele>208.050976</ele>
        <time>2023-01-04T11:03:50.062Z</time>
      </trkpt>
      <trkpt lat="43.45992" lon="1.57528">
        <ele>208.015435</ele>
        <time>2023-01-04T11:03:52.057Z</time>
      </trkpt>
      <trkpt lat="43.45986" lon="1.57538">
        <ele>207.945779</ele>
        <time>2023-01-04T11:03:54.071Z</time>
      </trkpt>
      <trkpt lat="43.45981" lon="1.5755">
        <ele>207.870185</ele>
        <time>2023-01-04T11:03:56.063Z</time>
      </trkpt>
      <trkpt lat="43.45973" lon="1.57565">
        <ele>207.767271</ele>
        <time>2023-01-04T11:03:59.049Z</time>
      </trkpt>
      <trkpt lat="43.45967" lon="1.57577">
        <ele>207.689021</ele>
        <time>2023-01-04T11:04:01.070Z</time>
      </trkpt>
      <trkpt lat="43.4596" lon="1.57592">
        <ele>207.588693</ele>
        <time>2023-01-04T11:04:03.070Z</time>
      </trkpt>
      <trkpt lat="43.45954" lon="1.57602">
        <ele>207.514955</ele>
        <time>2023-01-04T11:04:05.068Z</time>
      </trkpt>
      <trkpt lat="43.45949" lon="1.57613">
        <ele>207.442472</ele>
        <time>2023-01-04T11:04:07.071Z</time>
      </trkpt>
      <trkpt lat="43.45943" lon="1.57624">
        <ele>207.365172</ele>
        <time>2023-01-04T11:04:09.066Z</time>
      </trkpt>
      <trkpt lat="43.45937" lon="1.57636">
        <ele>207.287422</ele>
        <time>2023-01-04T11:04:11.068Z</time>
      </trkpt>
      <trkpt lat="43.45932" lon="1.57648">
        <ele>207.210013</ele>
        <time>2023-01-04T11:04:13.073Z</time>
      </trkpt>
      <trkpt lat="43.45926" lon="1.57659">
        <ele>207.130468</ele>
        <time>2023-01-04T11:04:15.073Z</time>
      </trkpt>
      <trkpt lat="43.4592" lon="1.57673">
        <ele>207.045355</ele>
        <time>2023-01-04T11:04:17.073Z</time>
      </trkpt>
      <trkpt lat="43.45914" lon="1.57685">
        <ele>206.965295</ele>
        <time>2023-01-04T11:04:19.050Z</time>
      </trkpt>
      <trkpt lat="43.4591" lon="1.57696">
        <ele>206.894573</ele>
        <time>2023-01-04T11:04:21.072Z</time>
      </trkpt>
      <trkpt lat="43.45904" lon="1.57709">
        <ele>206.80461</ele>
        <time>2023-01-04T11:04:24.078Z</time>
      </trkpt>
      <trkpt lat="43.45898" lon="1.57723">
        <ele>206.717183</ele>
        <time>2023-01-04T11:04:27.050Z</time>
      </trkpt>
      <trkpt lat="43.45893" lon="1.57738">
        <ele>206.65664</ele>
        <time>2023-01-04T11:04:30.066Z</time>
      </trkpt>
      <trkpt lat="43.45887" lon="1.57754">
        <ele>206.813469</ele>
        <time>2023-01-04T11:04:33.072Z</time>
      </trkpt>
      <trkpt lat="43.45881" lon="1.5777">
        <ele>206.977719</ele>
        <time>2023-01-04T11:04:36.071Z</time>
      </trkpt>
      <trkpt lat="43.45876" lon="1.57786">
        <ele>207.128633</ele>
        <time>2023-01-04T11:04:39.055Z</time>
      </trkpt>
      <trkpt lat="43.45872" lon="1.57801">
        <ele>207.269877</ele>
        <time>2023-01-04T11:04:42.054Z</time>
      </trkpt>
      <trkpt lat="43.45865" lon="1.57817">
        <ele>207.441036</ele>
        <time>2023-01-04T11:04:45.072Z</time>
      </trkpt>
      <trkpt lat="43.45861" lon="1.57829">
        <ele>207.553689</ele>
        <time>2023-01-04T11:04:47.072Z</time>
      </trkpt>
      <trkpt lat="43.45857" lon="1.57841">
        <ele>207.677821</ele>
        <time>2023-01-04T11:04:49.072Z</time>
      </trkpt>
      <trkpt lat="43.45852" lon="1.57858">
        <ele>207.835114</ele>
        <time>2023-01-04T11:04:52.071Z</time>
      </trkpt>
      <trkpt lat="43.45847" lon="1.57875">
        <ele>208.003688</ele>
        <time>2023-01-04T11:04:55.051Z</time>
      </trkpt>
      <trkpt lat="43.45842" lon="1.57886">
        <ele>208.121808</ele>
        <time>2023-01-04T11:04:57.075Z</time>
      </trkpt>
      <trkpt lat="43.45837" lon="1.57898">
        <ele>208.237934</ele>
        <time>2023-01-04T11:04:59.067Z</time>
      </trkpt>
      <trkpt lat="43.45834" lon="1.5791">
        <ele>208.355477</ele>
        <time>2023-01-04T11:05:01.070Z</time>
      </trkpt>
      <trkpt lat="43.45827" lon="1.57928">
        <ele>208.537182</ele>
        <time>2023-01-04T11:05:04.072Z</time>
      </trkpt>
      <trkpt lat="43.45821" lon="1.57942">
        <ele>208.683415</ele>
        <time>2023-01-04T11:05:06.074Z</time>
      </trkpt>
      <trkpt lat="43.45815" lon="1.57957">
        <ele>208.830676</ele>
        <time>2023-01-04T11:05:08.066Z</time>
      </trkpt>
      <trkpt lat="43.45809" lon="1.57971">
        <ele>208.641983</ele>
        <time>2023-01-04T11:05:10.067Z</time>
      </trkpt>
      <trkpt lat="43.45803" lon="1.57982">
        <ele>208.449283</ele>
        <time>2023-01-04T11:05:12.073Z</time>
      </trkpt>
      <trkpt lat="43.45797" lon="1.57994">
        <ele>208.240784</ele>
        <time>2023-01-04T11:05:14.072Z</time>
      </trkpt>
      <trkpt lat="43.45792" lon="1.58005">
        <ele>208.0586</ele>
        <time>2023-01-04T11:05:16.064Z</time>
      </trkpt>
      <trkpt lat="43.45786" lon="1.58014">
        <ele>207.883543</ele>
        <time>2023-01-04T11:05:18.052Z</time>
      </trkpt>
      <trkpt lat="43.4578" lon="1.58024">
        <ele>207.696365</ele>
        <time>2023-01-04T11:05:20.066Z</time>
      </trkpt>
      <trkpt lat="43.45773" lon="1.58036">
        <ele>207.484129</ele>
        <time>2023-01-04T11:05:22.074Z</time>
      </trkpt>
      <trkpt lat="43.45767" lon="1.58046">
        <ele>207.307316</ele>
        <time>2023-01-04T11:05:24.072Z</time>
      </trkpt>
      <trkpt lat="43.45759" lon="1.58056">
        <ele>207.09601</ele>
        <time>2023-01-04T11:05:26.074Z</time>
      </trkpt>
      <trkpt lat="43.45752" lon="1.58067">
        <ele>206.888752</ele>
        <time>2023-01-04T11:05:28.055Z</time>
      </trkpt>
      <trkpt lat="43.45745" lon="1.58077">
        <ele>206.691945</ele>
        <time>2023-01-04T11:05:30.065Z</time>
      </trkpt>
      <trkpt lat="43.45738" lon="1.58086">
        <ele>206.501081</ele>
        <time>2023-01-04T11:05:32.071Z</time>
      </trkpt>
      <trkpt lat="43.45729" lon="1.58098">
        <ele>206.269553</ele>
        <time>2023-01-04T11:05:35.071Z</time>
      </trkpt>
      <trkpt lat="43.45723" lon="1.58107">
        <ele>206.088564</ele>
        <time>2023-01-04T11:05:37.073Z</time>
      </trkpt>
      <trkpt lat="43.45716" lon="1.58117">
        <ele>205.902461</ele>
        <time>2023-01-04T11:05:39.055Z</time>
      </trkpt>
      <trkpt lat="43.4571" lon="1.58127">
        <ele>205.709362</ele>
        <time>2023-01-04T11:05:41.072Z</time>
      </trkpt>
      <trkpt lat="43.45703" lon="1.58139">
        <ele>205.500793</ele>
        <time>2023-01-04T11:05:43.080Z</time>
      </trkpt>
      <trkpt lat="43.45696" lon="1.5815">
        <ele>205.340753</ele>
        <time>2023-01-04T11:05:45.072Z</time>
      </trkpt>
      <trkpt lat="43.45688" lon="1.58163">
        <ele>205.274009</ele>
        <time>2023-01-04T11:05:48.070Z</time>
      </trkpt>
      <trkpt lat="43.45681" lon="1.58172">
        <ele>205.223311</ele>
        <time>2023-01-04T11:05:50.053Z</time>
      </trkpt>
      <trkpt lat="43.45675" lon="1.58184">
        <ele>205.165267</ele>
        <time>2023-01-04T11:05:52.070Z</time>
      </trkpt>
      <trkpt lat="43.45668" lon="1.58194">
        <ele>205.113832</ele>
        <time>2023-01-04T11:05:54.053Z</time>
      </trkpt>
      <trkpt lat="43.45658" lon="1.58205">
        <ele>205.042887</ele>
        <time>2023-01-04T11:05:57.060Z</time>
      </trkpt>
      <trkpt lat="43.45652" lon="1.58213">
        <ele>204.994171</ele>
        <time>2023-01-04T11:05:59.073Z</time>
      </trkpt>
      <trkpt lat="43.45644" lon="1.58225">
        <ele>204.930734</ele>
        <time>2023-01-04T11:06:01.056Z</time>
      </trkpt>
      <trkpt lat="43.45632" lon="1.5824">
        <ele>204.845693</ele>
        <time>2023-01-04T11:06:04.066Z</time>
      </trkpt>
      <trkpt lat="43.45625" lon="1.58251">
        <ele>204.786695</ele>
        <time>2023-01-04T11:06:06.075Z</time>
      </trkpt>
      <trkpt lat="43.45619" lon="1.58261">
        <ele>204.736942</ele>
        <time>2023-01-04T11:06:08.073Z</time>
      </trkpt>
      <trkpt lat="43.45612" lon="1.58272">
        <ele>204.679295</ele>
        <time>2023-01-04T11:06:10.072Z</time>
      </trkpt>
      <trkpt lat="43.45607" lon="1.58285">
        <ele>204.621511</ele>
        <time>2023-01-04T11:06:12.071Z</time>
      </trkpt>
      <trkpt lat="43.45602" lon="1.58296">
        <ele>204.57096</ele>
        <time>2023-01-04T11:06:14.076Z</time>
      </trkpt>
      <trkpt lat="43.45596" lon="1.58308">
        <ele>204.514798</ele>
        <time>2023-01-04T11:06:16.070Z</time>
      </trkpt>
      <trkpt lat="43.45591" lon="1.58322">
        <ele>204.450823</ele>
        <time>2023-01-04T11:06:18.056Z</time>
      </trkpt>
      <trkpt lat="43.45586" lon="1.58341">
        <ele>204.384445</ele>
        <time>2023-01-04T11:06:21.073Z</time>
      </trkpt>
      <trkpt lat="43.45582" lon="1.58359">
        <ele>204.379805</ele>
        <time>2023-01-04T11:06:24.076Z</time>
      </trkpt>
      <trkpt lat="43.45578" lon="1.58374">
        <ele>204.376177</ele>
        <time>2023-01-04T11:06:26.079Z</time>
      </trkpt>
      <trkpt lat="43.45577" lon="1.58388">
        <ele>204.372752</ele>
        <time>2023-01-04T11:06:28.073Z</time>
      </trkpt>
      <trkpt lat="43.45575" lon="1.58403">
        <ele>204.36924</ele>
        <time>2023-01-04T11:06:30.071Z</time>
      </trkpt>
      <trkpt lat="43.45574" lon="1.58416">
        <ele>204.366053</ele>
        <time>2023-01-04T11:06:32.067Z</time>
      </trkpt>
      <trkpt lat="43.45573" lon="1.58431">
        <ele>204.362656</ele>
        <time>2023-01-04T11:06:34.074Z</time>
      </trkpt>
      <trkpt lat="43.45571" lon="1.58447">
        <ele>204.358778</ele>
        <time>2023-01-04T11:06:36.074Z</time>
      </trkpt>
      <trkpt lat="43.4557" lon="1.58461">
        <ele>204.355509</ele>
        <time>2023-01-04T11:06:38.071Z</time>
      </trkpt>
      <trkpt lat="43.45568" lon="1.58476">
        <ele>204.351758</ele>
        <time>2023-01-04T11:06:40.073Z</time>
      </trkpt>
      <trkpt lat="43.45567" lon="1.5849">
        <ele>204.348658</ele>
        <time>2023-01-04T11:06:42.069Z</time>
      </trkpt>
      <trkpt lat="43.45567" lon="1.58502">
        <ele>204.345637</ele>
        <time>2023-01-04T11:06:44.074Z</time>
      </trkpt>
      <trkpt lat="43.45567" lon="1.58515">
        <ele>204.342639</ele>
        <time>2023-01-04T11:06:46.072Z</time>
      </trkpt>
      <trkpt lat="43.45568" lon="1.58531">
        <ele>204.338825</ele>
        <time>2023-01-04T11:06:49.071Z</time>
      </trkpt>
      <trkpt lat="43.45568" lon="1.58545">
        <ele>204.335521</ele>
        <time>2023-01-04T11:06:51.051Z</time>
      </trkpt>
      <trkpt lat="43.4557" lon="1.58558">
        <ele>204.332415</ele>
        <time>2023-01-04T11:06:53.068Z</time>
      </trkpt>
      <trkpt lat="43.45571" lon="1.58573">
        <ele>204.328877</ele>
        <time>2023-01-04T11:06:55.068Z</time>
      </trkpt>
      <trkpt lat="43.45571" lon="1.58589">
        <ele>204.347614</ele>
        <time>2023-01-04T11:06:57.072Z</time>
      </trkpt>
      <trkpt lat="43.45572" lon="1.58605">
        <ele>204.394591</ele>
        <time>2023-01-04T11:06:59.077Z</time>
      </trkpt>
      <trkpt lat="43.45574" lon="1.5862">
        <ele>204.439794</ele>
        <time>2023-01-04T11:07:01.057Z</time>
      </trkpt>
      <trkpt lat="43.45574" lon="1.58634">
        <ele>204.483673</ele>
        <time>2023-01-04T11:07:03.070Z</time>
      </trkpt>
      <trkpt lat="43.45576" lon="1.58648">
        <ele>204.526274</ele>
        <time>2023-01-04T11:07:05.070Z</time>
      </trkpt>
      <trkpt lat="43.45578" lon="1.58664">
        <ele>204.575233</ele>
        <time>2023-01-04T11:07:07.067Z</time>
      </trkpt>
      <trkpt lat="43.45578" lon="1.58676">
        <ele>204.61384</ele>
        <time>2023-01-04T11:07:09.075Z</time>
      </trkpt>
      <trkpt lat="43.45579" lon="1.58691">
        <ele>204.657451</ele>
        <time>2023-01-04T11:07:11.070Z</time>
      </trkpt>
      <trkpt lat="43.45581" lon="1.58709">
        <ele>204.712312</ele>
        <time>2023-01-04T11:07:14.072Z</time>
      </trkpt>
      <trkpt lat="43.45583" lon="1.58722">
        <ele>204.752731</ele>
        <time>2023-01-04T11:07:16.074Z</time>
      </trkpt>
      <trkpt lat="43.45584" lon="1.58735">
        <ele>204.792547</ele>
        <time>2023-01-04T11:07:18.075Z</time>
      </trkpt>
      <trkpt lat="43.45585" lon="1.58747">
        <ele>204.830976</ele>
        <time>2023-01-04T11:07:20.067Z</time>
      </trkpt>
      <trkpt lat="43.45586" lon="1.58763">
        <ele>204.879768</ele>
        <time>2023-01-04T11:07:23.068Z</time>
      </trkpt>
      <trkpt lat="43.45587" lon="1.58781">
        <ele>204.934561</ele>
        <time>2023-01-04T11:07:26.074Z</time>
      </trkpt>
      <trkpt lat="43.45587" lon="1.58795">
        <ele>204.977713</ele>
        <time>2023-01-04T11:07:28.069Z</time>
      </trkpt>
      <trkpt lat="43.45587" lon="1.58809">
        <ele>205.019087</ele>
        <time>2023-01-04T11:07:30.071Z</time>
      </trkpt>
      <trkpt lat="43.45588" lon="1.58826">
        <ele>205.07142</ele>
        <time>2023-01-04T11:07:33.079Z</time>
      </trkpt>
      <trkpt lat="43.45587" lon="1.58842">
        <ele>205.12617</ele>
        <time>2023-01-04T11:07:36.073Z</time>
      </trkpt>
      <trkpt lat="43.45587" lon="1.58859">
        <ele>205.183728</ele>
        <time>2023-01-04T11:07:39.070Z</time>
      </trkpt>
      <trkpt lat="43.45586" lon="1.58873">
        <ele>205.232638</ele>
        <time>2023-01-04T11:07:41.074Z</time>
      </trkpt>
      <trkpt lat="43.45585" lon="1.58887">
        <ele>205.282244</ele>
        <time>2023-01-04T11:07:44.071Z</time>
      </trkpt>
      <trkpt lat="43.45584" lon="1.58901">
        <ele>205.330978</ele>
        <time>2023-01-04T11:07:46.075Z</time>
      </trkpt>
      <trkpt lat="43.45583" lon="1.58919">
        <ele>205.39338</ele>
        <time>2023-01-04T11:07:49.075Z</time>
      </trkpt>
      <trkpt lat="43.45582" lon="1.58931">
        <ele>205.437612</ele>
        <time>2023-01-04T11:07:51.069Z</time>
      </trkpt>
      <trkpt lat="43.45581" lon="1.58947">
        <ele>205.493892</ele>
        <time>2023-01-04T11:07:54.073Z</time>
      </trkpt>
      <trkpt lat="43.4558" lon="1.58963">
        <ele>205.547928</ele>
        <time>2023-01-04T11:07:57.071Z</time>
      </trkpt>
      <trkpt lat="43.45579" lon="1.58983">
        <ele>205.617488</ele>
        <time>2023-01-04T11:08:00.072Z</time>
      </trkpt>
      <trkpt lat="43.45578" lon="1.58995">
        <ele>205.662612</ele>
        <time>2023-01-04T11:08:02.071Z</time>
      </trkpt>
      <trkpt lat="43.45576" lon="1.59013">
        <ele>205.724376</ele>
        <time>2023-01-04T11:08:05.068Z</time>
      </trkpt>
      <trkpt lat="43.45575" lon="1.59025">
        <ele>205.76786</ele>
        <time>2023-01-04T11:08:07.073Z</time>
      </trkpt>
      <trkpt lat="43.45574" lon="1.59041">
        <ele>205.823281</ele>
        <time>2023-01-04T11:08:10.072Z</time>
      </trkpt>
      <trkpt lat="43.45574" lon="1.59057">
        <ele>205.879099</ele>
        <time>2023-01-04T11:08:14.070Z</time>
      </trkpt>
      <trkpt lat="43.45574" lon="1.59073">
        <ele>205.932427</ele>
        <time>2023-01-04T11:08:17.071Z</time>
      </trkpt>
      <trkpt lat="43.45575" lon="1.59089">
        <ele>205.935563</ele>
        <time>2023-01-04T11:08:20.052Z</time>
      </trkpt>
      <trkpt lat="43.45575" lon="1.59102">
        <ele>205.92759</ele>
        <time>2023-01-04T11:08:23.073Z</time>
      </trkpt>
      <trkpt lat="43.45571" lon="1.59115">
        <ele>205.919645</ele>
        <time>2023-01-04T11:08:27.050Z</time>
      </trkpt>
      <trkpt lat="43.45567" lon="1.59127">
        <ele>205.911825</ele>
        <time>2023-01-04T11:08:31.063Z</time>
      </trkpt>
      <trkpt lat="43.45563" lon="1.59141">
        <ele>205.903132</ele>
        <time>2023-01-04T11:08:34.072Z</time>
      </trkpt>
      <trkpt lat="43.45559" lon="1.59156">
        <ele>205.893818</ele>
        <time>2023-01-04T11:08:37.068Z</time>
      </trkpt>
      <trkpt lat="43.45555" lon="1.59171">
        <ele>205.884798</ele>
        <time>2023-01-04T11:08:39.052Z</time>
      </trkpt>
      <trkpt lat="43.45549" lon="1.59187">
        <ele>205.874341</ele>
        <time>2023-01-04T11:08:42.072Z</time>
      </trkpt>
      <trkpt lat="43.45543" lon="1.59203">
        <ele>205.864009</ele>
        <time>2023-01-04T11:08:45.074Z</time>
      </trkpt>
      <trkpt lat="43.45538" lon="1.59216">
        <ele>205.855572</ele>
        <time>2023-01-04T11:08:48.073Z</time>
      </trkpt>
      <trkpt lat="43.45532" lon="1.59228">
        <ele>205.84706</ele>
        <time>2023-01-04T11:08:51.052Z</time>
      </trkpt>
      <trkpt lat="43.45524" lon="1.5924">
        <ele>205.837696</ele>
        <time>2023-01-04T11:08:54.077Z</time>
      </trkpt>
      <trkpt lat="43.45515" lon="1.59253">
        <ele>205.827595</ele>
        <time>2023-01-04T11:08:57.071Z</time>
      </trkpt>
      <trkpt lat="43.45506" lon="1.59265">
        <ele>205.817137</ele>
        <time>2023-01-04T11:09:00.056Z</time>
      </trkpt>
      <trkpt lat="43.45497" lon="1.59277">
        <ele>205.807047</ele>
        <time>2023-01-04T11:09:03.076Z</time>
      </trkpt>
      <trkpt lat="43.45485" lon="1.59288">
        <ele>205.806528</ele>
        <time>2023-01-04T11:09:06.074Z</time>
      </trkpt>
      <trkpt lat="43.45473" lon="1.59297">
        <ele>205.826192</ele>
        <time>2023-01-04T11:09:09.073Z</time>
      </trkpt>
      <trkpt lat="43.45464" lon="1.593">
        <ele>205.839582</ele>
        <time>2023-01-04T11:09:11.072Z</time>
      </trkpt>
      <trkpt lat="43.45454" lon="1.59303">
        <ele>205.853059</ele>
        <time>2023-01-04T11:09:13.071Z</time>
      </trkpt>
      <trkpt lat="43.45445" lon="1.59306">
        <ele>205.867084</ele>
        <time>2023-01-04T11:09:15.067Z</time>
      </trkpt>
      <trkpt lat="43.45435" lon="1.59308">
        <ele>205.880481</ele>
        <time>2023-01-04T11:09:17.071Z</time>
      </trkpt>
      <trkpt lat="43.45425" lon="1.59312">
        <ele>205.895834</ele>
        <time>2023-01-04T11:09:19.070Z</time>
      </trkpt>
      <trkpt lat="43.45415" lon="1.59314">
        <ele>205.910131</ele>
        <time>2023-01-04T11:09:21.075Z</time>
      </trkpt>
      <trkpt lat="43.45406" lon="1.59317">
        <ele>205.923447</ele>
        <time>2023-01-04T11:09:23.074Z</time>
      </trkpt>
      <trkpt lat="43.45396" lon="1.59321">
        <ele>205.93711</ele>
        <time>2023-01-04T11:09:25.070Z</time>
      </trkpt>
      <trkpt lat="43.45386" lon="1.59324">
        <ele>205.951694</ele>
        <time>2023-01-04T11:09:27.074Z</time>
      </trkpt>
      <trkpt lat="43.45376" lon="1.59327">
        <ele>205.965993</ele>
        <time>2023-01-04T11:09:29.072Z</time>
      </trkpt>
      <trkpt lat="43.45365" lon="1.59331">
        <ele>205.98229</ele>
        <time>2023-01-04T11:09:31.073Z</time>
      </trkpt>
      <trkpt lat="43.45352" lon="1.59337">
        <ele>206.001086</ele>
        <time>2023-01-04T11:09:34.062Z</time>
      </trkpt>
      <trkpt lat="43.45343" lon="1.59341">
        <ele>206.015048</ele>
        <time>2023-01-04T11:09:36.075Z</time>
      </trkpt>
      <trkpt lat="43.45333" lon="1.59342">
        <ele>206.02843</ele>
        <time>2023-01-04T11:09:38.047Z</time>
      </trkpt>
      <trkpt lat="43.45323" lon="1.59346">
        <ele>206.043774</ele>
        <time>2023-01-04T11:09:40.071Z</time>
      </trkpt>
      <trkpt lat="43.45312" lon="1.59351">
        <ele>206.015052</ele>
        <time>2023-01-04T11:09:42.069Z</time>
      </trkpt>
      <trkpt lat="43.45302" lon="1.59356">
        <ele>205.921339</ele>
        <time>2023-01-04T11:09:44.077Z</time>
      </trkpt>
      <trkpt lat="43.45291" lon="1.59361">
        <ele>205.826935</ele>
        <time>2023-01-04T11:09:46.066Z</time>
      </trkpt>
      <trkpt lat="43.45281" lon="1.59364">
        <ele>205.740315</ele>
        <time>2023-01-04T11:09:48.071Z</time>
      </trkpt>
      <trkpt lat="43.45272" lon="1.59369">
        <ele>205.657898</ele>
        <time>2023-01-04T11:09:50.055Z</time>
      </trkpt>
      <trkpt lat="43.45261" lon="1.59376">
        <ele>205.555966</ele>
        <time>2023-01-04T11:09:53.073Z</time>
      </trkpt>
      <trkpt lat="43.45249" lon="1.59384">
        <ele>205.442563</ele>
        <time>2023-01-04T11:09:56.069Z</time>
      </trkpt>
      <trkpt lat="43.45237" lon="1.59393">
        <ele>205.331745</ele>
        <time>2023-01-04T11:09:59.060Z</time>
      </trkpt>
      <trkpt lat="43.45228" lon="1.594">
        <ele>205.247086</ele>
        <time>2023-01-04T11:10:01.072Z</time>
      </trkpt>
      <trkpt lat="43.45218" lon="1.59411">
        <ele>205.134036</ele>
        <time>2023-01-04T11:10:04.058Z</time>
      </trkpt>
      <trkpt lat="43.45209" lon="1.59419">
        <ele>205.046041</ele>
        <time>2023-01-04T11:10:06.072Z</time>
      </trkpt>
      <trkpt lat="43.45201" lon="1.59428">
        <ele>204.961612</ele>
        <time>2023-01-04T11:10:08.070Z</time>
      </trkpt>
      <trkpt lat="43.45193" lon="1.59437">
        <ele>204.871853</ele>
        <time>2023-01-04T11:10:10.070Z</time>
      </trkpt>
      <trkpt lat="43.45185" lon="1.59445">
        <ele>204.792342</ele>
        <time>2023-01-04T11:10:12.053Z</time>
      </trkpt>
      <trkpt lat="43.45177" lon="1.59456">
        <ele>204.695065</ele>
        <time>2023-01-04T11:10:14.054Z</time>
      </trkpt>
      <trkpt lat="43.45169" lon="1.59467">
        <ele>204.596624</ele>
        <time>2023-01-04T11:10:16.054Z</time>
      </trkpt>
      <trkpt lat="43.4516" lon="1.59478">
        <ele>204.592873</ele>
        <time>2023-01-04T11:10:18.074Z</time>
      </trkpt>
      <trkpt lat="43.45153" lon="1.59487">
        <ele>204.698745</ele>
        <time>2023-01-04T11:10:20.080Z</time>
      </trkpt>
      <trkpt lat="43.45145" lon="1.59496">
        <ele>204.811438</ele>
        <time>2023-01-04T11:10:22.072Z</time>
      </trkpt>
      <trkpt lat="43.45138" lon="1.59506">
        <ele>204.920008</ele>
        <time>2023-01-04T11:10:24.078Z</time>
      </trkpt>
      <trkpt lat="43.45132" lon="1.59517">
        <ele>205.033527</ele>
        <time>2023-01-04T11:10:26.074Z</time>
      </trkpt>
      <trkpt lat="43.45126" lon="1.59526">
        <ele>205.133409</ele>
        <time>2023-01-04T11:10:28.072Z</time>
      </trkpt>
      <trkpt lat="43.45121" lon="1.59537">
        <ele>205.234663</ele>
        <time>2023-01-04T11:10:30.075Z</time>
      </trkpt>
      <trkpt lat="43.45117" lon="1.59549">
        <ele>205.343694</ele>
        <time>2023-01-04T11:10:32.070Z</time>
      </trkpt>
      <trkpt lat="43.45112" lon="1.59561">
        <ele>205.45322</ele>
        <time>2023-01-04T11:10:34.074Z</time>
      </trkpt>
      <trkpt lat="43.45108" lon="1.59575">
        <ele>205.572843</ele>
        <time>2023-01-04T11:10:36.061Z</time>
      </trkpt>
      <trkpt lat="43.45104" lon="1.59587">
        <ele>205.675719</ele>
        <time>2023-01-04T11:10:38.073Z</time>
      </trkpt>
      <trkpt lat="43.451" lon="1.596">
        <ele>205.787696</ele>
        <time>2023-01-04T11:10:40.072Z</time>
      </trkpt>
      <trkpt lat="43.45096" lon="1.59613">
        <ele>205.906421</ele>
        <time>2023-01-04T11:10:42.068Z</time>
      </trkpt>
      <trkpt lat="43.45091" lon="1.59626">
        <ele>206.019306</ele>
        <time>2023-01-04T11:10:44.071Z</time>
      </trkpt>
      <trkpt lat="43.45086" lon="1.59641">
        <ele>206.147786</ele>
        <time>2023-01-04T11:10:47.072Z</time>
      </trkpt>
      <trkpt lat="43.45083" lon="1.59652">
        <ele>206.247206</ele>
        <time>2023-01-04T11:10:49.070Z</time>
      </trkpt>
      <trkpt lat="43.45078" lon="1.59664">
        <ele>206.357947</ele>
        <time>2023-01-04T11:10:51.072Z</time>
      </trkpt>
      <trkpt lat="43.45073" lon="1.5968">
        <ele>206.496343</ele>
        <time>2023-01-04T11:10:53.076Z</time>
      </trkpt>
      <trkpt lat="43.45069" lon="1.59692">
        <ele>206.551129</ele>
        <time>2023-01-04T11:10:55.071Z</time>
      </trkpt>
      <trkpt lat="43.45062" lon="1.59708">
        <ele>206.601208</ele>
        <time>2023-01-04T11:10:58.073Z</time>
      </trkpt>
      <trkpt lat="43.45057" lon="1.59719">
        <ele>206.637671</ele>
        <time>2023-01-04T11:11:00.052Z</time>
      </trkpt>
      <trkpt lat="43.45051" lon="1.59734">
        <ele>206.68566</ele>
        <time>2023-01-04T11:11:03.073Z</time>
      </trkpt>
      <trkpt lat="43.45045" lon="1.59745">
        <ele>206.723447</ele>
        <time>2023-01-04T11:11:05.074Z</time>
      </trkpt>
      <trkpt lat="43.45037" lon="1.59758">
        <ele>206.770196</ele>
        <time>2023-01-04T11:11:08.070Z</time>
      </trkpt>
      <trkpt lat="43.45029" lon="1.5977">
        <ele>206.815266</ele>
        <time>2023-01-04T11:11:11.069Z</time>
      </trkpt>
      <trkpt lat="43.45023" lon="1.59779">
        <ele>206.849682</ele>
        <time>2023-01-04T11:11:13.073Z</time>
      </trkpt>
      <trkpt lat="43.45017" lon="1.59788">
        <ele>206.884364</ele>
        <time>2023-01-04T11:11:15.045Z</time>
      </trkpt>
      <trkpt lat="43.45007" lon="1.59801">
        <ele>206.935059</ele>
        <time>2023-01-04T11:11:18.071Z</time>
      </trkpt>
      <trkpt lat="43.45001" lon="1.59811">
        <ele>206.971531</ele>
        <time>2023-01-04T11:11:20.073Z</time>
      </trkpt>
      <trkpt lat="43.44994" lon="1.59821">
        <ele>207.00945</ele>
        <time>2023-01-04T11:11:22.059Z</time>
      </trkpt>
      <trkpt lat="43.44986" lon="1.59831">
        <ele>207.049024</ele>
        <time>2023-01-04T11:11:25.047Z</time>
      </trkpt>
      <trkpt lat="43.44979" lon="1.5984">
        <ele>207.086699</ele>
        <time>2023-01-04T11:11:28.072Z</time>
      </trkpt>
      <trkpt lat="43.4497" lon="1.59851">
        <ele>207.133513</ele>
        <time>2023-01-04T11:11:31.050Z</time>
      </trkpt>
      <trkpt lat="43.44961" lon="1.59858">
        <ele>207.172783</ele>
        <time>2023-01-04T11:11:34.074Z</time>
      </trkpt>
      <trkpt lat="43.44952" lon="1.59865">
        <ele>207.206387</ele>
        <time>2023-01-04T11:11:37.071Z</time>
      </trkpt>
      <trkpt lat="43.44941" lon="1.5987">
        <ele>207.187904</ele>
        <time>2023-01-04T11:11:41.073Z</time>
      </trkpt>
      <trkpt lat="43.4493" lon="1.59875">
        <ele>207.16863</ele>
        <time>2023-01-04T11:11:44.078Z</time>
      </trkpt>
      <trkpt lat="43.44917" lon="1.5988">
        <ele>207.14686</ele>
        <time>2023-01-04T11:11:47.068Z</time>
      </trkpt>
      <trkpt lat="43.44908" lon="1.59883">
        <ele>207.131538</ele>
        <time>2023-01-04T11:11:49.073Z</time>
      </trkpt>
      <trkpt lat="43.44899" lon="1.59886">
        <ele>207.116821</ele>
        <time>2023-01-04T11:11:51.077Z</time>
      </trkpt>
      <trkpt lat="43.44889" lon="1.5989">
        <ele>207.100685</ele>
        <time>2023-01-04T11:11:53.071Z</time>
      </trkpt>
      <trkpt lat="43.44878" lon="1.59894">
        <ele>207.08246</ele>
        <time>2023-01-04T11:11:55.073Z</time>
      </trkpt>
      <trkpt lat="43.44868" lon="1.599">
        <ele>207.064829</ele>
        <time>2023-01-04T11:11:57.073Z</time>
      </trkpt>
      <trkpt lat="43.44859" lon="1.59903">
        <ele>207.049795</ele>
        <time>2023-01-04T11:11:59.073Z</time>
      </trkpt>
      <trkpt lat="43.4485" lon="1.59905">
        <ele>207.033975</ele>
        <time>2023-01-04T11:12:01.051Z</time>
      </trkpt>
      <trkpt lat="43.4484" lon="1.59907">
        <ele>207.017905</ele>
        <time>2023-01-04T11:12:03.065Z</time>
      </trkpt>
      <trkpt lat="43.44829" lon="1.5991">
        <ele>207.000569</ele>
        <time>2023-01-04T11:12:05.073Z</time>
      </trkpt>
      <trkpt lat="43.44819" lon="1.59913">
        <ele>206.984251</ele>
        <time>2023-01-04T11:12:07.065Z</time>
      </trkpt>
      <trkpt lat="43.44809" lon="1.59916">
        <ele>206.968067</ele>
        <time>2023-01-04T11:12:09.073Z</time>
      </trkpt>
      <trkpt lat="43.448" lon="1.59919">
        <ele>206.953009</ele>
        <time>2023-01-04T11:12:11.060Z</time>
      </trkpt>
      <trkpt lat="43.44788" lon="1.59922">
        <ele>206.932332</ele>
        <time>2023-01-04T11:12:14.077Z</time>
      </trkpt>
      <trkpt lat="43.44775" lon="1.59923">
        <ele>206.908111</ele>
        <time>2023-01-04T11:12:17.074Z</time>
      </trkpt>
      <trkpt lat="43.44763" lon="1.59923">
        <ele>206.873842</ele>
        <time>2023-01-04T11:12:20.074Z</time>
      </trkpt>
      <trkpt lat="43.44753" lon="1.59926">
        <ele>206.841921</ele>
        <time>2023-01-04T11:12:22.071Z</time>
      </trkpt>
      <trkpt lat="43.44742" lon="1.59928">
        <ele>206.812637</ele>
        <time>2023-01-04T11:12:24.074Z</time>
      </trkpt>
      <trkpt lat="43.44731" lon="1.59932">
        <ele>206.777792</ele>
        <time>2023-01-04T11:12:27.072Z</time>
      </trkpt>
      <trkpt lat="43.44722" lon="1.59932">
        <ele>206.751618</ele>
        <time>2023-01-04T11:12:30.067Z</time>
      </trkpt>
      <trkpt lat="43.44712" lon="1.59934">
        <ele>206.724899</ele>
        <time>2023-01-04T11:12:34.080Z</time>
      </trkpt>
      <trkpt lat="43.44702" lon="1.59934">
        <ele>206.693843</ele>
        <time>2023-01-04T11:12:39.065Z</time>
      </trkpt>
      <trkpt lat="43.44692" lon="1.59936">
        <ele>206.666525</ele>
        <time>2023-01-04T11:12:44.049Z</time>
      </trkpt>
      <trkpt lat="43.44682" lon="1.5994">
        <ele>206.636128</ele>
        <time>2023-01-04T11:13:13.074Z</time>
      </trkpt>
      <trkpt lat="43.44672" lon="1.59942">
        <ele>206.607609</ele>
        <time>2023-01-04T11:13:17.079Z</time>
      </trkpt>
      <trkpt lat="43.44662" lon="1.59947">
        <ele>206.577906</ele>
        <time>2023-01-04T11:13:22.074Z</time>
      </trkpt>
      <trkpt lat="43.44653" lon="1.59948">
        <ele>206.551005</ele>
        <time>2023-01-04T11:13:31.050Z</time>
      </trkpt>
      <trkpt lat="43.44651" lon="1.59952">
        <ele>206.541707</ele>
        <time>2023-01-04T11:13:47.463Z</time>
      </trkpt>
      <trkpt lat="43.44639" lon="1.59952">
        <ele>206.507484</ele>
        <time>2023-01-04T11:28:42.076Z</time>
      </trkpt>
      <trkpt lat="43.44629" lon="1.59958">
        <ele>206.474899</ele>
        <time>2023-01-04T11:28:47.081Z</time>
      </trkpt>
      <trkpt lat="43.44619" lon="1.59963">
        <ele>206.442953</ele>
        <time>2023-01-04T11:28:51.086Z</time>
      </trkpt>
      <trkpt lat="43.44609" lon="1.59969">
        <ele>206.412286</ele>
        <time>2023-01-04T11:28:55.081Z</time>
      </trkpt>
      <trkpt lat="43.44598" lon="1.59977">
        <ele>206.395151</ele>
        <time>2023-01-04T11:28:59.080Z</time>
      </trkpt>
      <trkpt lat="43.4459" lon="1.59986">
        <ele>206.388423</ele>
        <time>2023-01-04T11:29:02.074Z</time>
      </trkpt>
      <trkpt lat="43.44581" lon="1.59995">
        <ele>206.381089</ele>
        <time>2023-01-04T11:29:05.086Z</time>
      </trkpt>
      <trkpt lat="43.44573" lon="1.60006">
        <ele>206.373614</ele>
        <time>2023-01-04T11:29:08.066Z</time>
      </trkpt>
      <trkpt lat="43.44565" lon="1.60017">
        <ele>206.365968</ele>
        <time>2023-01-04T11:29:11.062Z</time>
      </trkpt>
      <trkpt lat="43.44557" lon="1.60029">
        <ele>206.3582</ele>
        <time>2023-01-04T11:29:14.073Z</time>
      </trkpt>
      <trkpt lat="43.4455" lon="1.60041">
        <ele>206.350795</ele>
        <time>2023-01-04T11:29:17.079Z</time>
      </trkpt>
      <trkpt lat="43.44542" lon="1.60055">
        <ele>206.34248</ele>
        <time>2023-01-04T11:29:20.079Z</time>
      </trkpt>
      <trkpt lat="43.44537" lon="1.60065">
        <ele>206.33638</ele>
        <time>2023-01-04T11:29:22.077Z</time>
      </trkpt>
      <trkpt lat="43.44531" lon="1.60079">
        <ele>206.328538</ele>
        <time>2023-01-04T11:29:25.089Z</time>
      </trkpt>
      <trkpt lat="43.44527" lon="1.60092">
        <ele>206.321785</ele>
        <time>2023-01-04T11:29:28.082Z</time>
      </trkpt>
      <trkpt lat="43.44522" lon="1.60104">
        <ele>206.314785</ele>
        <time>2023-01-04T11:29:31.079Z</time>
      </trkpt>
      <trkpt lat="43.44516" lon="1.60121">
        <ele>206.306238</ele>
        <time>2023-01-04T11:29:34.080Z</time>
      </trkpt>
      <trkpt lat="43.44513" lon="1.60136">
        <ele>206.298334</ele>
        <time>2023-01-04T11:29:37.070Z</time>
      </trkpt>
      <trkpt lat="43.44518" lon="1.60153">
        <ele>206.289699</ele>
        <time>2023-01-04T11:29:40.090Z</time>
      </trkpt>
      <trkpt lat="43.44522" lon="1.60166">
        <ele>206.282742</ele>
        <time>2023-01-04T11:29:43.067Z</time>
      </trkpt>
      <trkpt lat="43.44524" lon="1.60179">
        <ele>206.431086</ele>
        <time>2023-01-04T11:29:46.080Z</time>
      </trkpt>
      <trkpt lat="43.44527" lon="1.60193">
        <ele>206.633313</ele>
        <time>2023-01-04T11:29:49.078Z</time>
      </trkpt>
      <trkpt lat="43.44529" lon="1.60207">
        <ele>206.836908</ele>
        <time>2023-01-04T11:29:52.083Z</time>
      </trkpt>
      <trkpt lat="43.44533" lon="1.60222">
        <ele>207.053321</ele>
        <time>2023-01-04T11:29:55.077Z</time>
      </trkpt>
      <trkpt lat="43.44536" lon="1.60238">
        <ele>207.282304</ele>
        <time>2023-01-04T11:29:58.084Z</time>
      </trkpt>
      <trkpt lat="43.44541" lon="1.60254">
        <ele>207.523451</ele>
        <time>2023-01-04T11:30:01.057Z</time>
      </trkpt>
      <trkpt lat="43.44545" lon="1.6027">
        <ele>207.759768</ele>
        <time>2023-01-04T11:30:04.081Z</time>
      </trkpt>
      <trkpt lat="43.4455" lon="1.60285">
        <ele>207.989124</ele>
        <time>2023-01-04T11:30:07.064Z</time>
      </trkpt>
      <trkpt lat="43.44553" lon="1.603">
        <ele>208.209546</ele>
        <time>2023-01-04T11:30:10.080Z</time>
      </trkpt>
      <trkpt lat="43.44556" lon="1.60315">
        <ele>208.430782</ele>
        <time>2023-01-04T11:30:13.076Z</time>
      </trkpt>
      <trkpt lat="43.4456" lon="1.60331">
        <ele>208.664312</ele>
        <time>2023-01-04T11:30:16.075Z</time>
      </trkpt>
      <trkpt lat="43.44563" lon="1.60348">
        <ele>208.910719</ele>
        <time>2023-01-04T11:30:19.089Z</time>
      </trkpt>
      <trkpt lat="43.44566" lon="1.60365">
        <ele>209.149009</ele>
        <time>2023-01-04T11:30:22.092Z</time>
      </trkpt>
      <trkpt lat="43.44569" lon="1.60381">
        <ele>209.380943</ele>
        <time>2023-01-04T11:30:25.075Z</time>
      </trkpt>
      <trkpt lat="43.44571" lon="1.60398">
        <ele>209.624089</ele>
        <time>2023-01-04T11:30:28.081Z</time>
      </trkpt>
      <trkpt lat="43.44572" lon="1.60412">
        <ele>209.778484</ele>
        <time>2023-01-04T11:30:30.092Z</time>
      </trkpt>
      <trkpt lat="43.44572" lon="1.60426">
        <ele>209.88787</ele>
        <time>2023-01-04T11:30:32.079Z</time>
      </trkpt>
      <trkpt lat="43.44571" lon="1.60445">
        <ele>210.034184</ele>
        <time>2023-01-04T11:30:35.088Z</time>
      </trkpt>
      <trkpt lat="43.44569" lon="1.60457">
        <ele>210.132362</ele>
        <time>2023-01-04T11:30:37.083Z</time>
      </trkpt>
      <trkpt lat="43.44566" lon="1.60473">
        <ele>210.259091</ele>
        <time>2023-01-04T11:30:40.082Z</time>
      </trkpt>
      <trkpt lat="43.44563" lon="1.60486">
        <ele>210.364655</ele>
        <time>2023-01-04T11:30:42.082Z</time>
      </trkpt>
      <trkpt lat="43.44558" lon="1.60498">
        <ele>210.477668</ele>
        <time>2023-01-04T11:30:44.078Z</time>
      </trkpt>
      <trkpt lat="43.44552" lon="1.6051">
        <ele>210.595827</ele>
        <time>2023-01-04T11:30:46.078Z</time>
      </trkpt>
      <trkpt lat="43.44545" lon="1.60524">
        <ele>210.723671</ele>
        <time>2023-01-04T11:30:49.090Z</time>
      </trkpt>
      <trkpt lat="43.44538" lon="1.60537">
        <ele>210.85129</ele>
        <time>2023-01-04T11:30:52.080Z</time>
      </trkpt>
      <trkpt lat="43.44529" lon="1.60549">
        <ele>210.982588</ele>
        <time>2023-01-04T11:30:55.082Z</time>
      </trkpt>
      <trkpt lat="43.4452" lon="1.60561">
        <ele>211.113544</ele>
        <time>2023-01-04T11:30:58.079Z</time>
      </trkpt>
      <trkpt lat="43.44512" lon="1.60572">
        <ele>211.241454</ele>
        <time>2023-01-04T11:31:01.080Z</time>
      </trkpt>
      <trkpt lat="43.44506" lon="1.60581">
        <ele>211.341495</ele>
        <time>2023-01-04T11:31:03.080Z</time>
      </trkpt>
      <trkpt lat="43.44498" lon="1.60589">
        <ele>211.438501</ele>
        <time>2023-01-04T11:31:05.055Z</time>
      </trkpt>
      <trkpt lat="43.44492" lon="1.60598">
        <ele>211.538542</ele>
        <time>2023-01-04T11:31:07.066Z</time>
      </trkpt>
      <trkpt lat="43.44483" lon="1.60611">
        <ele>211.663475</ele>
        <time>2023-01-04T11:31:10.077Z</time>
      </trkpt>
      <trkpt lat="43.44476" lon="1.6062">
        <ele>211.641522</ele>
        <time>2023-01-04T11:31:12.078Z</time>
      </trkpt>
      <trkpt lat="43.44467" lon="1.60631">
        <ele>211.613545</ele>
        <time>2023-01-04T11:31:15.078Z</time>
      </trkpt>
      <trkpt lat="43.44456" lon="1.60643">
        <ele>211.58275</ele>
        <time>2023-01-04T11:31:18.077Z</time>
      </trkpt>
      <trkpt lat="43.4445" lon="1.60653">
        <ele>211.559777</ele>
        <time>2023-01-04T11:31:20.080Z</time>
      </trkpt>
      <trkpt lat="43.44439" lon="1.60666">
        <ele>211.527095</ele>
        <time>2023-01-04T11:31:23.078Z</time>
      </trkpt>
      <trkpt lat="43.44429" lon="1.60679">
        <ele>211.495696</ele>
        <time>2023-01-04T11:31:26.070Z</time>
      </trkpt>
      <trkpt lat="43.44422" lon="1.6069">
        <ele>211.470683</ele>
        <time>2023-01-04T11:31:28.087Z</time>
      </trkpt>
      <trkpt lat="43.44414" lon="1.60699">
        <ele>211.448678</ele>
        <time>2023-01-04T11:31:30.087Z</time>
      </trkpt>
      <trkpt lat="43.44407" lon="1.60707">
        <ele>211.426923</ele>
        <time>2023-01-04T11:31:32.078Z</time>
      </trkpt>
      <trkpt lat="43.44397" lon="1.60718">
        <ele>211.397371</ele>
        <time>2023-01-04T11:31:35.079Z</time>
      </trkpt>
      <trkpt lat="43.44387" lon="1.60722">
        <ele>211.374679</ele>
        <time>2023-01-04T11:31:38.057Z</time>
      </trkpt>
      <trkpt lat="43.44375" lon="1.60733">
        <ele>211.340904</ele>
        <time>2023-01-04T11:31:41.077Z</time>
      </trkpt>
      <trkpt lat="43.44366" lon="1.6074">
        <ele>211.316828</ele>
        <time>2023-01-04T11:31:43.082Z</time>
      </trkpt>
      <trkpt lat="43.44357" lon="1.60748">
        <ele>211.293185</ele>
        <time>2023-01-04T11:31:45.063Z</time>
      </trkpt>
      <trkpt lat="43.44348" lon="1.60754">
        <ele>211.271074</ele>
        <time>2023-01-04T11:31:47.086Z</time>
      </trkpt>
      <trkpt lat="43.44339" lon="1.6076">
        <ele>211.256571</ele>
        <time>2023-01-04T11:31:49.081Z</time>
      </trkpt>
      <trkpt lat="43.44329" lon="1.60767">
        <ele>211.265015</ele>
        <time>2023-01-04T11:31:51.077Z</time>
      </trkpt>
      <trkpt lat="43.4432" lon="1.60773">
        <ele>211.27199</ele>
        <time>2023-01-04T11:31:53.077Z</time>
      </trkpt>
      <trkpt lat="43.44311" lon="1.60779">
        <ele>211.279343</ele>
        <time>2023-01-04T11:31:55.080Z</time>
      </trkpt>
      <trkpt lat="43.44302" lon="1.60785">
        <ele>211.286834</ele>
        <time>2023-01-04T11:31:57.074Z</time>
      </trkpt>
      <trkpt lat="43.44294" lon="1.60791">
        <ele>211.293918</ele>
        <time>2023-01-04T11:31:59.075Z</time>
      </trkpt>
      <trkpt lat="43.44285" lon="1.60798">
        <ele>211.301324</ele>
        <time>2023-01-04T11:32:01.079Z</time>
      </trkpt>
      <trkpt lat="43.44277" lon="1.60806">
        <ele>211.308952</ele>
        <time>2023-01-04T11:32:03.080Z</time>
      </trkpt>
      <trkpt lat="43.44269" lon="1.60814">
        <ele>211.316414</ele>
        <time>2023-01-04T11:32:05.079Z</time>
      </trkpt>
      <trkpt lat="43.44263" lon="1.60823">
        <ele>211.323297</ele>
        <time>2023-01-04T11:32:07.086Z</time>
      </trkpt>
      <trkpt lat="43.44255" lon="1.60832">
        <ele>211.330705</ele>
        <time>2023-01-04T11:32:09.080Z</time>
      </trkpt>
      <trkpt lat="43.44247" lon="1.60841">
        <ele>211.338351</ele>
        <time>2023-01-04T11:32:11.086Z</time>
      </trkpt>
      <trkpt lat="43.44241" lon="1.60852">
        <ele>211.346267</ele>
        <time>2023-01-04T11:32:13.067Z</time>
      </trkpt>
      <trkpt lat="43.44232" lon="1.60867">
        <ele>211.356588</ele>
        <time>2023-01-04T11:32:16.079Z</time>
      </trkpt>
      <trkpt lat="43.44225" lon="1.60876">
        <ele>211.363448</ele>
        <time>2023-01-04T11:32:18.077Z</time>
      </trkpt>
      <trkpt lat="43.44218" lon="1.60884">
        <ele>211.370415</ele>
        <time>2023-01-04T11:32:20.082Z</time>
      </trkpt>
      <trkpt lat="43.44211" lon="1.60897">
        <ele>211.379016</ele>
        <time>2023-01-04T11:32:22.082Z</time>
      </trkpt>
      <trkpt lat="43.44203" lon="1.60909">
        <ele>211.388184</ele>
        <time>2023-01-04T11:32:24.077Z</time>
      </trkpt>
      <trkpt lat="43.44195" lon="1.60921">
        <ele>211.500995</ele>
        <time>2023-01-04T11:32:26.080Z</time>
      </trkpt>
      <trkpt lat="43.44189" lon="1.60932">
        <ele>211.592699</ele>
        <time>2023-01-04T11:32:28.080Z</time>
      </trkpt>
      <trkpt lat="43.44183" lon="1.60942">
        <ele>211.685856</ele>
        <time>2023-01-04T11:32:30.081Z</time>
      </trkpt>
      <trkpt lat="43.44176" lon="1.60955">
        <ele>211.801531</ele>
        <time>2023-01-04T11:32:32.084Z</time>
      </trkpt>
      <trkpt lat="43.44171" lon="1.60968">
        <ele>211.904108</ele>
        <time>2023-01-04T11:32:34.089Z</time>
      </trkpt>
      <trkpt lat="43.44165" lon="1.6098">
        <ele>212.010046</ele>
        <time>2023-01-04T11:32:36.081Z</time>
      </trkpt>
      <trkpt lat="43.44161" lon="1.60994">
        <ele>212.116056</ele>
        <time>2023-01-04T11:32:38.081Z</time>
      </trkpt>
      <trkpt lat="43.44155" lon="1.61007">
        <ele>212.226955</ele>
        <time>2023-01-04T11:32:40.079Z</time>
      </trkpt>
      <trkpt lat="43.4415" lon="1.61021">
        <ele>212.33376</ele>
        <time>2023-01-04T11:32:43.085Z</time>
      </trkpt>
      <trkpt lat="43.44145" lon="1.61033">
        <ele>212.43293</ele>
        <time>2023-01-04T11:32:45.080Z</time>
      </trkpt>
      <trkpt lat="43.44142" lon="1.61045">
        <ele>212.523427</ele>
        <time>2023-01-04T11:32:47.085Z</time>
      </trkpt>
      <trkpt lat="43.44137" lon="1.61059">
        <ele>212.629836</ele>
        <time>2023-01-04T11:32:49.089Z</time>
      </trkpt>
      <trkpt lat="43.44133" lon="1.61074">
        <ele>212.747023</ele>
        <time>2023-01-04T11:32:52.066Z</time>
      </trkpt>
      <trkpt lat="43.44128" lon="1.61086">
        <ele>212.839385</ele>
        <time>2023-01-04T11:32:54.068Z</time>
      </trkpt>
      <trkpt lat="43.44123" lon="1.61099">
        <ele>212.945372</ele>
        <time>2023-01-04T11:32:56.077Z</time>
      </trkpt>
      <trkpt lat="43.44118" lon="1.61112">
        <ele>213.052382</ele>
        <time>2023-01-04T11:32:59.076Z</time>
      </trkpt>
      <trkpt lat="43.44113" lon="1.61123">
        <ele>213.141574</ele>
        <time>2023-01-04T11:33:01.079Z</time>
      </trkpt>
      <trkpt lat="43.44107" lon="1.61139">
        <ele>213.145007</ele>
        <time>2023-01-04T11:33:04.080Z</time>
      </trkpt>
      <trkpt lat="43.44102" lon="1.61149">
        <ele>213.147549</ele>
        <time>2023-01-04T11:33:06.088Z</time>
      </trkpt>
      <trkpt lat="43.44097" lon="1.6116">
        <ele>213.150165</ele>
        <time>2023-01-04T11:33:08.069Z</time>
      </trkpt>
      <trkpt lat="43.44089" lon="1.61174">
        <ele>213.153667</ele>
        <time>2023-01-04T11:33:11.077Z</time>
      </trkpt>
      <trkpt lat="43.4408" lon="1.61188">
        <ele>213.157411</ele>
        <time>2023-01-04T11:33:14.082Z</time>
      </trkpt>
      <trkpt lat="43.44071" lon="1.61199">
        <ele>213.160696</ele>
        <time>2023-01-04T11:33:17.079Z</time>
      </trkpt>
      <trkpt lat="43.4406" lon="1.6121">
        <ele>213.164351</ele>
        <time>2023-01-04T11:33:20.081Z</time>
      </trkpt>
      <trkpt lat="43.44049" lon="1.6122">
        <ele>213.167905</ele>
        <time>2023-01-04T11:33:23.082Z</time>
      </trkpt>
      <trkpt lat="43.44041" lon="1.61227">
        <ele>213.170651</ele>
        <time>2023-01-04T11:33:25.063Z</time>
      </trkpt>
      <trkpt lat="43.4403" lon="1.61235">
        <ele>213.173885</ele>
        <time>2023-01-04T11:33:28.077Z</time>
      </trkpt>
      <trkpt lat="43.44021" lon="1.61242">
        <ele>213.176822</ele>
        <time>2023-01-04T11:33:30.063Z</time>
      </trkpt>
      <trkpt lat="43.44012" lon="1.61245">
        <ele>213.179334</ele>
        <time>2023-01-04T11:33:32.078Z</time>
      </trkpt>
      <trkpt lat="43.44" lon="1.61248">
        <ele>213.18247</ele>
        <time>2023-01-04T11:33:35.076Z</time>
      </trkpt>
      <trkpt lat="43.43989" lon="1.61251">
        <ele>213.185593</ele>
        <time>2023-01-04T11:33:38.066Z</time>
      </trkpt>
      <trkpt lat="43.43978" lon="1.61252">
        <ele>213.188723</ele>
        <time>2023-01-04T11:33:42.088Z</time>
      </trkpt>
      <trkpt lat="43.43967" lon="1.61256">
        <ele>213.219564</ele>
        <time>2023-01-04T11:33:46.069Z</time>
      </trkpt>
      <trkpt lat="43.43957" lon="1.61259">
        <ele>213.302226</ele>
        <time>2023-01-04T11:33:51.071Z</time>
      </trkpt>
      <trkpt lat="43.43948" lon="1.61262">
        <ele>213.374645</ele>
        <time>2023-01-04T11:33:55.083Z</time>
      </trkpt>
      <trkpt lat="43.43937" lon="1.61269">
        <ele>213.46536</ele>
        <time>2023-01-04T11:33:59.080Z</time>
      </trkpt>
      <trkpt lat="43.43927" lon="1.61276">
        <ele>213.551683</ele>
        <time>2023-01-04T11:34:02.087Z</time>
      </trkpt>
      <trkpt lat="43.43916" lon="1.61286">
        <ele>213.64548</ele>
        <time>2023-01-04T11:34:05.076Z</time>
      </trkpt>
      <trkpt lat="43.43908" lon="1.61296">
        <ele>213.73274</ele>
        <time>2023-01-04T11:34:08.081Z</time>
      </trkpt>
      <trkpt lat="43.43899" lon="1.61302">
        <ele>213.804666</ele>
        <time>2023-01-04T11:34:11.082Z</time>
      </trkpt>
      <trkpt lat="43.43889" lon="1.61306">
        <ele>213.888841</ele>
        <time>2023-01-04T11:34:14.068Z</time>
      </trkpt>
      <trkpt lat="43.43878" lon="1.61313">
        <ele>213.981615</ele>
        <time>2023-01-04T11:34:17.082Z</time>
      </trkpt>
      <trkpt lat="43.43867" lon="1.61322">
        <ele>214.078518</ele>
        <time>2023-01-04T11:34:20.088Z</time>
      </trkpt>
      <trkpt lat="43.43857" lon="1.61332">
        <ele>214.172632</ele>
        <time>2023-01-04T11:34:23.084Z</time>
      </trkpt>
      <trkpt lat="43.4385" lon="1.6134">
        <ele>214.242023</ele>
        <time>2023-01-04T11:34:25.080Z</time>
      </trkpt>
      <trkpt lat="43.43841" lon="1.61353">
        <ele>214.337288</ele>
        <time>2023-01-04T11:34:28.085Z</time>
      </trkpt>
      <trkpt lat="43.43834" lon="1.61363">
        <ele>214.414917</ele>
        <time>2023-01-04T11:34:31.078Z</time>
      </trkpt>
      <trkpt lat="43.43827" lon="1.61371">
        <ele>214.488455</ele>
        <time>2023-01-04T11:34:34.087Z</time>
      </trkpt>
      <trkpt lat="43.43819" lon="1.61382">
        <ele>214.56369</ele>
        <time>2023-01-04T11:34:38.072Z</time>
      </trkpt>
      <trkpt lat="43.43812" lon="1.6139">
        <ele>214.5894</ele>
        <time>2023-01-04T11:34:41.078Z</time>
      </trkpt>
      <trkpt lat="43.43804" lon="1.614">
        <ele>214.617587</ele>
        <time>2023-01-04T11:34:44.082Z</time>
      </trkpt>
      <trkpt lat="43.43797" lon="1.61409">
        <ele>214.643813</ele>
        <time>2023-01-04T11:34:47.075Z</time>
      </trkpt>
      <trkpt lat="43.4379" lon="1.61419">
        <ele>214.669469</ele>
        <time>2023-01-04T11:34:50.067Z</time>
      </trkpt>
      <trkpt lat="43.43782" lon="1.61428">
        <ele>214.696292</ele>
        <time>2023-01-04T11:34:53.080Z</time>
      </trkpt>
      <trkpt lat="43.43773" lon="1.6144">
        <ele>214.728384</ele>
        <time>2023-01-04T11:34:56.063Z</time>
      </trkpt>
      <trkpt lat="43.43765" lon="1.61451">
        <ele>214.758815</ele>
        <time>2023-01-04T11:34:59.080Z</time>
      </trkpt>
      <trkpt lat="43.43759" lon="1.6146">
        <ele>214.784071</ele>
        <time>2023-01-04T11:35:01.079Z</time>
      </trkpt>
      <trkpt lat="43.43752" lon="1.61469">
        <ele>214.808437</ele>
        <time>2023-01-04T11:35:03.081Z</time>
      </trkpt>
      <trkpt lat="43.43743" lon="1.61483">
        <ele>214.842975</ele>
        <time>2023-01-04T11:35:06.071Z</time>
      </trkpt>
      <trkpt lat="43.43734" lon="1.61496">
        <ele>214.878556</ele>
        <time>2023-01-04T11:35:09.062Z</time>
      </trkpt>
      <trkpt lat="43.43727" lon="1.61506">
        <ele>214.90637</ele>
        <time>2023-01-04T11:35:11.076Z</time>
      </trkpt>
      <trkpt lat="43.43717" lon="1.61519">
        <ele>214.940941</ele>
        <time>2023-01-04T11:35:14.087Z</time>
      </trkpt>
      <trkpt lat="43.4371" lon="1.61528">
        <ele>214.966987</ele>
        <time>2023-01-04T11:35:16.080Z</time>
      </trkpt>
      <trkpt lat="43.437" lon="1.6154">
        <ele>215.002701</ele>
        <time>2023-01-04T11:35:19.066Z</time>
      </trkpt>
      <trkpt lat="43.4369" lon="1.61552">
        <ele>215.041873</ele>
        <time>2023-01-04T11:35:22.082Z</time>
      </trkpt>
      <trkpt lat="43.43681" lon="1.61562">
        <ele>215.312103</ele>
        <time>2023-01-04T11:35:24.078Z</time>
      </trkpt>
      <trkpt lat="43.43672" lon="1.6157">
        <ele>215.553343</ele>
        <time>2023-01-04T11:35:26.079Z</time>
      </trkpt>
      <trkpt lat="43.4366" lon="1.61584">
        <ele>215.90404</ele>
        <time>2023-01-04T11:35:29.071Z</time>
      </trkpt>
      <trkpt lat="43.43651" lon="1.61595">
        <ele>216.184529</ele>
        <time>2023-01-04T11:35:32.079Z</time>
      </trkpt>
      <trkpt lat="43.43642" lon="1.61603">
        <ele>216.423877</ele>
        <time>2023-01-04T11:35:34.080Z</time>
      </trkpt>
      <trkpt lat="43.43633" lon="1.61612">
        <ele>216.684808</ele>
        <time>2023-01-04T11:35:36.093Z</time>
      </trkpt>
      <trkpt lat="43.43625" lon="1.6162">
        <ele>216.913093</ele>
        <time>2023-01-04T11:35:38.067Z</time>
      </trkpt>
      <trkpt lat="43.43617" lon="1.61628">
        <ele>217.13648</ele>
        <time>2023-01-04T11:35:40.089Z</time>
      </trkpt>
      <trkpt lat="43.43608" lon="1.61636">
        <ele>217.367458</ele>
        <time>2023-01-04T11:35:42.081Z</time>
      </trkpt>
      <trkpt lat="43.43598" lon="1.61647">
        <ele>217.661233</ele>
        <time>2023-01-04T11:35:45.081Z</time>
      </trkpt>
      <trkpt lat="43.4359" lon="1.61655">
        <ele>217.889725</ele>
        <time>2023-01-04T11:35:47.066Z</time>
      </trkpt>
      <trkpt lat="43.43581" lon="1.61662">
        <ele>218.132885</ele>
        <time>2023-01-04T11:35:49.078Z</time>
      </trkpt>
      <trkpt lat="43.43573" lon="1.6167">
        <ele>218.358217</ele>
        <time>2023-01-04T11:35:51.067Z</time>
      </trkpt>
      <trkpt lat="43.43565" lon="1.61682">
        <ele>218.61468</ele>
        <time>2023-01-04T11:35:53.080Z</time>
      </trkpt>
      <trkpt lat="43.43555" lon="1.61695">
        <ele>218.935003</ele>
        <time>2023-01-04T11:35:56.084Z</time>
      </trkpt>
      <trkpt lat="43.43549" lon="1.61706">
        <ele>219.113893</ele>
        <time>2023-01-04T11:35:58.079Z</time>
      </trkpt>
      <trkpt lat="43.43541" lon="1.61716">
        <ele>218.903433</ele>
        <time>2023-01-04T11:36:00.056Z</time>
      </trkpt>
      <trkpt lat="43.43534" lon="1.61726">
        <ele>218.698996</ele>
        <time>2023-01-04T11:36:02.059Z</time>
      </trkpt>
      <trkpt lat="43.43524" lon="1.6174">
        <ele>218.436432</ele>
        <time>2023-01-04T11:36:05.078Z</time>
      </trkpt>
      <trkpt lat="43.43515" lon="1.61755">
        <ele>218.149497</ele>
        <time>2023-01-04T11:36:08.083Z</time>
      </trkpt>
      <trkpt lat="43.43505" lon="1.61768">
        <ele>217.882165</ele>
        <time>2023-01-04T11:36:11.079Z</time>
      </trkpt>
      <trkpt lat="43.43499" lon="1.61778">
        <ele>217.68939</ele>
        <time>2023-01-04T11:36:13.066Z</time>
      </trkpt>
      <trkpt lat="43.43493" lon="1.61789">
        <ele>217.49694</ele>
        <time>2023-01-04T11:36:15.082Z</time>
      </trkpt>
      <trkpt lat="43.43485" lon="1.61801">
        <ele>217.269747</ele>
        <time>2023-01-04T11:36:17.079Z</time>
      </trkpt>
      <trkpt lat="43.43478" lon="1.61811">
        <ele>217.076191</ele>
        <time>2023-01-04T11:36:19.080Z</time>
      </trkpt>
      <trkpt lat="43.43471" lon="1.61823">
        <ele>216.851072</ele>
        <time>2023-01-04T11:36:21.062Z</time>
      </trkpt>
      <trkpt lat="43.43464" lon="1.61835">
        <ele>216.640488</ele>
        <time>2023-01-04T11:36:23.061Z</time>
      </trkpt>
      <trkpt lat="43.43458" lon="1.61847">
        <ele>216.425222</ele>
        <time>2023-01-04T11:36:25.089Z</time>
      </trkpt>
      <trkpt lat="43.43449" lon="1.61859">
        <ele>216.172268</ele>
        <time>2023-01-04T11:36:27.078Z</time>
      </trkpt>
      <trkpt lat="43.43441" lon="1.61871">
        <ele>215.948179</ele>
        <time>2023-01-04T11:36:29.082Z</time>
      </trkpt>
      <trkpt lat="43.43433" lon="1.61881">
        <ele>215.739078</ele>
        <time>2023-01-04T11:36:31.087Z</time>
      </trkpt>
      <trkpt lat="43.43426" lon="1.61891">
        <ele>215.597406</ele>
        <time>2023-01-04T11:36:33.078Z</time>
      </trkpt>
      <trkpt lat="43.43418" lon="1.61901">
        <ele>215.55233</ele>
        <time>2023-01-04T11:36:35.062Z</time>
      </trkpt>
      <trkpt lat="43.43411" lon="1.61911">
        <ele>215.509061</ele>
        <time>2023-01-04T11:36:37.079Z</time>
      </trkpt>
      <trkpt lat="43.43403" lon="1.61919">
        <ele>215.470161</ele>
        <time>2023-01-04T11:36:39.079Z</time>
      </trkpt>
      <trkpt lat="43.43397" lon="1.61927">
        <ele>215.43159</ele>
        <time>2023-01-04T11:36:41.085Z</time>
      </trkpt>
      <trkpt lat="43.43389" lon="1.61933">
        <ele>215.393459</ele>
        <time>2023-01-04T11:36:43.078Z</time>
      </trkpt>
      <trkpt lat="43.43379" lon="1.61947">
        <ele>215.335317</ele>
        <time>2023-01-04T11:36:46.081Z</time>
      </trkpt>
      <trkpt lat="43.43367" lon="1.6196">
        <ele>215.271696</ele>
        <time>2023-01-04T11:36:49.083Z</time>
      </trkpt>
      <trkpt lat="43.43359" lon="1.61969">
        <ele>215.225667</ele>
        <time>2023-01-04T11:36:51.068Z</time>
      </trkpt>
      <trkpt lat="43.43348" lon="1.61981">
        <ele>215.167858</ele>
        <time>2023-01-04T11:36:54.082Z</time>
      </trkpt>
      <trkpt lat="43.4334" lon="1.61988">
        <ele>215.128993</ele>
        <time>2023-01-04T11:36:56.080Z</time>
      </trkpt>
      <trkpt lat="43.43329" lon="1.61999">
        <ele>215.070885</ele>
        <time>2023-01-04T11:36:59.079Z</time>
      </trkpt>
      <trkpt lat="43.4332" lon="1.62007">
        <ele>215.027887</ele>
        <time>2023-01-04T11:37:01.068Z</time>
      </trkpt>
      <trkpt lat="43.43309" lon="1.62018">
        <ele>214.96893</ele>
        <time>2023-01-04T11:37:04.089Z</time>
      </trkpt>
      <trkpt lat="43.43301" lon="1.62027">
        <ele>214.923553</ele>
        <time>2023-01-04T11:37:06.082Z</time>
      </trkpt>
      <trkpt lat="43.43291" lon="1.62037">
        <ele>214.873731</ele>
        <time>2023-01-04T11:37:08.083Z</time>
      </trkpt>
      <trkpt lat="43.43282" lon="1.62048">
        <ele>214.834254</ele>
        <time>2023-01-04T11:37:10.065Z</time>
      </trkpt>
      <trkpt lat="43.43272" lon="1.62058">
        <ele>214.801149</ele>
        <time>2023-01-04T11:37:12.063Z</time>
      </trkpt>
      <trkpt lat="43.43262" lon="1.62068">
        <ele>214.769105</ele>
        <time>2023-01-04T11:37:14.078Z</time>
      </trkpt>
      <trkpt lat="43.43253" lon="1.62075">
        <ele>214.741234</ele>
        <time>2023-01-04T11:37:16.093Z</time>
      </trkpt>
      <trkpt lat="43.43244" lon="1.62081">
        <ele>214.714163</ele>
        <time>2023-01-04T11:37:18.077Z</time>
      </trkpt>
      <trkpt lat="43.43235" lon="1.62086">
        <ele>214.686939</ele>
        <time>2023-01-04T11:37:20.079Z</time>
      </trkpt>
      <trkpt lat="43.43226" lon="1.6209">
        <ele>214.662708</ele>
        <time>2023-01-04T11:37:22.084Z</time>
      </trkpt>
      <trkpt lat="43.43216" lon="1.62094">
        <ele>214.633994</ele>
        <time>2023-01-04T11:37:24.084Z</time>
      </trkpt>
      <trkpt lat="43.43206" lon="1.62096">
        <ele>214.608237</ele>
        <time>2023-01-04T11:37:26.080Z</time>
      </trkpt>
      <trkpt lat="43.43196" lon="1.62097">
        <ele>214.580426</ele>
        <time>2023-01-04T11:37:28.057Z</time>
      </trkpt>
      <trkpt lat="43.43187" lon="1.62099">
        <ele>214.554769</ele>
        <time>2023-01-04T11:37:30.080Z</time>
      </trkpt>
      <trkpt lat="43.43177" lon="1.62097">
        <ele>214.529688</ele>
        <time>2023-01-04T11:37:32.072Z</time>
      </trkpt>
      <trkpt lat="43.43168" lon="1.62097">
        <ele>214.503603</ele>
        <time>2023-01-04T11:37:34.077Z</time>
      </trkpt>
      <trkpt lat="43.43158" lon="1.62095">
        <ele>214.478722</ele>
        <time>2023-01-04T11:37:36.080Z</time>
      </trkpt>
      <trkpt lat="43.43149" lon="1.62093">
        <ele>214.453467</ele>
        <time>2023-01-04T11:37:38.084Z</time>
      </trkpt>
      <trkpt lat="43.4314" lon="1.62091">
        <ele>214.428506</ele>
        <time>2023-01-04T11:37:40.089Z</time>
      </trkpt>
      <trkpt lat="43.43129" lon="1.62089">
        <ele>214.399001</ele>
        <time>2023-01-04T11:37:42.083Z</time>
      </trkpt>
      <trkpt lat="43.43119" lon="1.62087">
        <ele>214.372871</ele>
        <time>2023-01-04T11:37:44.076Z</time>
      </trkpt>
      <trkpt lat="43.43109" lon="1.62086">
        <ele>214.349165</ele>
        <time>2023-01-04T11:37:46.079Z</time>
      </trkpt>
      <trkpt lat="43.431" lon="1.62086">
        <ele>214.326962</ele>
        <time>2023-01-04T11:37:48.079Z</time>
      </trkpt>
      <trkpt lat="43.43089" lon="1.62085">
        <ele>214.301475</ele>
        <time>2023-01-04T11:37:50.091Z</time>
      </trkpt>
      <trkpt lat="43.43079" lon="1.62085">
        <ele>214.279222</ele>
        <time>2023-01-04T11:37:52.085Z</time>
      </trkpt>
      <trkpt lat="43.43066" lon="1.62085">
        <ele>214.248841</ele>
        <time>2023-01-04T11:37:55.079Z</time>
      </trkpt>
      <trkpt lat="43.43054" lon="1.62085">
        <ele>214.221252</ele>
        <time>2023-01-04T11:37:58.067Z</time>
      </trkpt>
      <trkpt lat="43.43042" lon="1.62088">
        <ele>214.191063</ele>
        <time>2023-01-04T11:38:01.079Z</time>
      </trkpt>
      <trkpt lat="43.43029" lon="1.6209">
        <ele>214.162078</ele>
        <time>2023-01-04T11:38:04.079Z</time>
      </trkpt>
      <trkpt lat="43.43016" lon="1.62093">
        <ele>214.131155</ele>
        <time>2023-01-04T11:38:07.081Z</time>
      </trkpt>
      <trkpt lat="43.43004" lon="1.62099">
        <ele>214.101481</ele>
        <time>2023-01-04T11:38:10.090Z</time>
      </trkpt>
      <trkpt lat="43.42993" lon="1.62107">
        <ele>214.071597</ele>
        <time>2023-01-04T11:38:13.078Z</time>
      </trkpt>
      <trkpt lat="43.42984" lon="1.62116">
        <ele>214.045504</ele>
        <time>2023-01-04T11:38:16.087Z</time>
      </trkpt>
      <trkpt lat="43.42977" lon="1.62124">
        <ele>214.023739</ele>
        <time>2023-01-04T11:38:18.079Z</time>
      </trkpt>
      <trkpt lat="43.42968" lon="1.62136">
        <ele>213.994697</ele>
        <time>2023-01-04T11:38:21.086Z</time>
      </trkpt>
      <trkpt lat="43.42961" lon="1.62145">
        <ele>213.972199</ele>
        <time>2023-01-04T11:38:23.064Z</time>
      </trkpt>
      <trkpt lat="43.42954" lon="1.62155">
        <ele>213.988106</ele>
        <time>2023-01-04T11:38:25.078Z</time>
      </trkpt>
      <trkpt lat="43.42948" lon="1.62166">
        <ele>214.165191</ele>
        <time>2023-01-04T11:38:27.084Z</time>
      </trkpt>
      <trkpt lat="43.42941" lon="1.62176">
        <ele>214.357776</ele>
        <time>2023-01-04T11:38:29.063Z</time>
      </trkpt>
      <trkpt lat="43.42934" lon="1.62185">
        <ele>214.531725</ele>
        <time>2023-01-04T11:38:31.078Z</time>
      </trkpt>
      <trkpt lat="43.42926" lon="1.62194">
        <ele>214.722438</ele>
        <time>2023-01-04T11:38:33.081Z</time>
      </trkpt>
      <trkpt lat="43.4292" lon="1.62204">
        <ele>214.889215</ele>
        <time>2023-01-04T11:38:35.086Z</time>
      </trkpt>
      <trkpt lat="43.42914" lon="1.62215">
        <ele>215.083997</ele>
        <time>2023-01-04T11:38:38.083Z</time>
      </trkpt>
      <trkpt lat="43.42905" lon="1.62229">
        <ele>215.330521</ele>
        <time>2023-01-04T11:38:41.079Z</time>
      </trkpt>
      <trkpt lat="43.42895" lon="1.62241">
        <ele>215.576585</ele>
        <time>2023-01-04T11:38:44.064Z</time>
      </trkpt>
      <trkpt lat="43.42887" lon="1.62253">
        <ele>215.795421</ele>
        <time>2023-01-04T11:38:46.087Z</time>
      </trkpt>
      <trkpt lat="43.42881" lon="1.62263">
        <ele>215.965468</ele>
        <time>2023-01-04T11:38:48.083Z</time>
      </trkpt>
      <trkpt lat="43.42874" lon="1.62272">
        <ele>216.143628</ele>
        <time>2023-01-04T11:38:50.079Z</time>
      </trkpt>
      <trkpt lat="43.42868" lon="1.62282">
        <ele>216.31508</ele>
        <time>2023-01-04T11:38:52.078Z</time>
      </trkpt>
      <trkpt lat="43.42862" lon="1.62291">
        <ele>216.486094</ele>
        <time>2023-01-04T11:38:54.076Z</time>
      </trkpt>
      <trkpt lat="43.42854" lon="1.62302">
        <ele>216.699027</ele>
        <time>2023-01-04T11:38:57.086Z</time>
      </trkpt>
      <trkpt lat="43.42845" lon="1.62315">
        <ele>216.930864</ele>
        <time>2023-01-04T11:39:00.082Z</time>
      </trkpt>
      <trkpt lat="43.42839" lon="1.62325">
        <ele>217.111362</ele>
        <time>2023-01-04T11:39:02.079Z</time>
      </trkpt>
      <trkpt lat="43.42831" lon="1.62336">
        <ele>217.258878</ele>
        <time>2023-01-04T11:39:04.087Z</time>
      </trkpt>
      <trkpt lat="43.42825" lon="1.62346">
        <ele>217.150498</ele>
        <time>2023-01-04T11:39:06.083Z</time>
      </trkpt>
      <trkpt lat="43.42819" lon="1.62357">
        <ele>217.032756</ele>
        <time>2023-01-04T11:39:08.079Z</time>
      </trkpt>
      <trkpt lat="43.42811" lon="1.62368">
        <ele>216.901341</ele>
        <time>2023-01-04T11:39:10.088Z</time>
      </trkpt>
      <trkpt lat="43.42801" lon="1.62381">
        <ele>216.753316</ele>
        <time>2023-01-04T11:39:12.083Z</time>
      </trkpt>
      <trkpt lat="43.42793" lon="1.62393">
        <ele>216.621668</ele>
        <time>2023-01-04T11:39:14.078Z</time>
      </trkpt>
      <trkpt lat="43.42786" lon="1.62407">
        <ele>216.478778</ele>
        <time>2023-01-04T11:39:16.090Z</time>
      </trkpt>
      <trkpt lat="43.42779" lon="1.62419">
        <ele>216.348453</ele>
        <time>2023-01-04T11:39:18.081Z</time>
      </trkpt>
      <trkpt lat="43.42772" lon="1.62429">
        <ele>216.240061</ele>
        <time>2023-01-04T11:39:20.075Z</time>
      </trkpt>
      <trkpt lat="43.42767" lon="1.62441">
        <ele>216.124296</ele>
        <time>2023-01-04T11:39:22.078Z</time>
      </trkpt>
      <trkpt lat="43.4276" lon="1.62453">
        <ele>215.998595</ele>
        <time>2023-01-04T11:39:24.079Z</time>
      </trkpt>
      <trkpt lat="43.42754" lon="1.62463">
        <ele>215.885584</ele>
        <time>2023-01-04T11:39:26.081Z</time>
      </trkpt>
      <trkpt lat="43.42749" lon="1.62476">
        <ele>215.770537</ele>
        <time>2023-01-04T11:39:29.087Z</time>
      </trkpt>
      <trkpt lat="43.42743" lon="1.62488">
        <ele>215.650709</ele>
        <time>2023-01-04T11:39:32.080Z</time>
      </trkpt>
      <trkpt lat="43.42737" lon="1.62503">
        <ele>215.510264</ele>
        <time>2023-01-04T11:39:36.079Z</time>
      </trkpt>
      <trkpt lat="43.42731" lon="1.62514">
        <ele>215.39451</ele>
        <time>2023-01-04T11:39:38.086Z</time>
      </trkpt>
      <trkpt lat="43.42724" lon="1.62527">
        <ele>215.258903</ele>
        <time>2023-01-04T11:39:40.070Z</time>
      </trkpt>
      <trkpt lat="43.4272" lon="1.62539">
        <ele>215.258462</ele>
        <time>2023-01-04T11:39:42.081Z</time>
      </trkpt>
      <trkpt lat="43.42713" lon="1.62554">
        <ele>215.28117</ele>
        <time>2023-01-04T11:39:45.081Z</time>
      </trkpt>
      <trkpt lat="43.42704" lon="1.62574">
        <ele>215.312013</ele>
        <time>2023-01-04T11:39:48.091Z</time>
      </trkpt>
      <trkpt lat="43.42698" lon="1.62589">
        <ele>215.334658</ele>
        <time>2023-01-04T11:39:51.085Z</time>
      </trkpt>
      <trkpt lat="43.42694" lon="1.62604">
        <ele>215.356308</ele>
        <time>2023-01-04T11:39:54.081Z</time>
      </trkpt>
      <trkpt lat="43.42691" lon="1.62616">
        <ele>215.372694</ele>
        <time>2023-01-04T11:39:57.077Z</time>
      </trkpt>
      <trkpt lat="43.42687" lon="1.62633">
        <ele>215.395887</ele>
        <time>2023-01-04T11:40:00.081Z</time>
      </trkpt>
      <trkpt lat="43.42681" lon="1.62649">
        <ele>215.419143</ele>
        <time>2023-01-04T11:40:02.077Z</time>
      </trkpt>
      <trkpt lat="43.42679" lon="1.62662">
        <ele>215.436921</ele>
        <time>2023-01-04T11:40:04.083Z</time>
      </trkpt>
      <trkpt lat="43.42675" lon="1.62679">
        <ele>215.461286</ele>
        <time>2023-01-04T11:40:07.079Z</time>
      </trkpt>
      <trkpt lat="43.42673" lon="1.62692">
        <ele>215.478379</ele>
        <time>2023-01-04T11:40:09.077Z</time>
      </trkpt>
      <trkpt lat="43.42669" lon="1.62705">
        <ele>215.496006</ele>
        <time>2023-01-04T11:40:12.077Z</time>
      </trkpt>
      <trkpt lat="43.42665" lon="1.62719">
        <ele>215.515983</ele>
        <time>2023-01-04T11:40:15.087Z</time>
      </trkpt>
      <trkpt lat="43.42661" lon="1.6273">
        <ele>215.532443</ele>
        <time>2023-01-04T11:40:18.091Z</time>
      </trkpt>
      <trkpt lat="43.42657" lon="1.62742">
        <ele>215.549895</ele>
        <time>2023-01-04T11:40:21.077Z</time>
      </trkpt>
      <trkpt lat="43.42653" lon="1.62755">
        <ele>215.569321</ele>
        <time>2023-01-04T11:40:24.078Z</time>
      </trkpt>
      <trkpt lat="43.42649" lon="1.62769">
        <ele>215.660379</ele>
        <time>2023-01-04T11:40:27.080Z</time>
      </trkpt>
      <trkpt lat="43.42645" lon="1.62782">
        <ele>215.748515</ele>
        <time>2023-01-04T11:40:30.081Z</time>
      </trkpt>
      <trkpt lat="43.42639" lon="1.62796">
        <ele>215.852262</ele>
        <time>2023-01-04T11:40:33.062Z</time>
      </trkpt>
      <trkpt lat="43.42634" lon="1.62812">
        <ele>215.959399</ele>
        <time>2023-01-04T11:40:36.081Z</time>
      </trkpt>
      <trkpt lat="43.4263" lon="1.62826">
        <ele>216.050836</ele>
        <time>2023-01-04T11:40:39.059Z</time>
      </trkpt>
      <trkpt lat="43.42624" lon="1.62841">
        <ele>216.159537</ele>
        <time>2023-01-04T11:40:42.081Z</time>
      </trkpt>
      <trkpt lat="43.42621" lon="1.62855">
        <ele>216.253689</ele>
        <time>2023-01-04T11:40:44.081Z</time>
      </trkpt>
      <trkpt lat="43.42618" lon="1.62873">
        <ele>216.364687</ele>
        <time>2023-01-04T11:40:46.078Z</time>
      </trkpt>
      <trkpt lat="43.42614" lon="1.62888">
        <ele>216.46997</ele>
        <time>2023-01-04T11:40:48.092Z</time>
      </trkpt>
      <trkpt lat="43.42613" lon="1.62901">
        <ele>216.552567</ele>
        <time>2023-01-04T11:40:51.085Z</time>
      </trkpt>
      <trkpt lat="43.42613" lon="1.62918">
        <ele>216.654849</ele>
        <time>2023-01-04T11:40:54.080Z</time>
      </trkpt>
      <trkpt lat="43.4261" lon="1.62932">
        <ele>216.747563</ele>
        <time>2023-01-04T11:40:56.090Z</time>
      </trkpt>
      <trkpt lat="43.42609" lon="1.62946">
        <ele>216.834433</ele>
        <time>2023-01-04T11:40:58.087Z</time>
      </trkpt>
      <trkpt lat="43.42609" lon="1.62961">
        <ele>216.930455</ele>
        <time>2023-01-04T11:41:00.078Z</time>
      </trkpt>
      <trkpt lat="43.42613" lon="1.62975">
        <ele>217.021302</ele>
        <time>2023-01-04T11:41:02.089Z</time>
      </trkpt>
      <trkpt lat="43.42615" lon="1.62988">
        <ele>217.107509</ele>
        <time>2023-01-04T11:41:04.077Z</time>
      </trkpt>
      <trkpt lat="43.42618" lon="1.63002">
        <ele>216.980572</ele>
        <time>2023-01-04T11:41:06.080Z</time>
      </trkpt>
      <trkpt lat="43.4262" lon="1.63019">
        <ele>216.783608</ele>
        <time>2023-01-04T11:41:09.081Z</time>
      </trkpt>
      <trkpt lat="43.42627" lon="1.63033">
        <ele>216.586268</ele>
        <time>2023-01-04T11:41:11.087Z</time>
      </trkpt>
      <trkpt lat="43.42632" lon="1.63046">
        <ele>216.418783</ele>
        <time>2023-01-04T11:41:13.087Z</time>
      </trkpt>
      <trkpt lat="43.42639" lon="1.63061">
        <ele>216.210107</ele>
        <time>2023-01-04T11:41:15.077Z</time>
      </trkpt>
      <trkpt lat="43.42645" lon="1.63075">
        <ele>216.021427</ele>
        <time>2023-01-04T11:41:18.078Z</time>
      </trkpt>
      <trkpt lat="43.42651" lon="1.63087">
        <ele>215.859113</ele>
        <time>2023-01-04T11:41:20.083Z</time>
      </trkpt>
      <trkpt lat="43.42657" lon="1.63098">
        <ele>215.694082</ele>
        <time>2023-01-04T11:41:22.082Z</time>
      </trkpt>
      <trkpt lat="43.42664" lon="1.63108">
        <ele>215.532987</ele>
        <time>2023-01-04T11:41:24.087Z</time>
      </trkpt>
      <trkpt lat="43.42669" lon="1.63118">
        <ele>215.387066</ele>
        <time>2023-01-04T11:41:26.076Z</time>
      </trkpt>
      <trkpt lat="43.42677" lon="1.63133">
        <ele>215.178392</ele>
        <time>2023-01-04T11:41:28.081Z</time>
      </trkpt>
      <trkpt lat="43.42683" lon="1.63147">
        <ele>214.993325</ele>
        <time>2023-01-04T11:41:30.078Z</time>
      </trkpt>
      <trkpt lat="43.42691" lon="1.63162">
        <ele>214.783839</ele>
        <time>2023-01-04T11:41:33.077Z</time>
      </trkpt>
      <trkpt lat="43.42696" lon="1.63173">
        <ele>214.631283</ele>
        <time>2023-01-04T11:41:35.080Z</time>
      </trkpt>
      <trkpt lat="43.42701" lon="1.63183">
        <ele>214.483534</ele>
        <time>2023-01-04T11:41:37.087Z</time>
      </trkpt>
      <trkpt lat="43.42705" lon="1.63195">
        <ele>214.338811</ele>
        <time>2023-01-04T11:41:39.061Z</time>
      </trkpt>
      <trkpt lat="43.42708" lon="1.63207">
        <ele>214.27443</ele>
        <time>2023-01-04T11:41:41.086Z</time>
      </trkpt>
      <trkpt lat="43.42713" lon="1.63221">
        <ele>214.303606</ele>
        <time>2023-01-04T11:41:43.085Z</time>
      </trkpt>
      <trkpt lat="43.42716" lon="1.63234">
        <ele>214.33078</ele>
        <time>2023-01-04T11:41:45.088Z</time>
      </trkpt>
      <trkpt lat="43.42719" lon="1.63249">
        <ele>214.360209</ele>
        <time>2023-01-04T11:41:47.069Z</time>
      </trkpt>
      <trkpt lat="43.4272" lon="1.63264">
        <ele>214.390262</ele>
        <time>2023-01-04T11:41:49.079Z</time>
      </trkpt>
      <trkpt lat="43.42719" lon="1.63276">
        <ele>214.414501</ele>
        <time>2023-01-04T11:41:51.076Z</time>
      </trkpt>
      <trkpt lat="43.42719" lon="1.63289">
        <ele>214.439927</ele>
        <time>2023-01-04T11:41:53.086Z</time>
      </trkpt>
      <trkpt lat="43.42716" lon="1.63308">
        <ele>214.477137</ele>
        <time>2023-01-04T11:41:56.078Z</time>
      </trkpt>
      <trkpt lat="43.42712" lon="1.63321">
        <ele>214.504622</ele>
        <time>2023-01-04T11:41:58.081Z</time>
      </trkpt>
      <trkpt lat="43.42709" lon="1.63333">
        <ele>214.529255</ele>
        <time>2023-01-04T11:42:00.077Z</time>
      </trkpt>
      <trkpt lat="43.42704" lon="1.63345">
        <ele>214.555312</ele>
        <time>2023-01-04T11:42:02.079Z</time>
      </trkpt>
      <trkpt lat="43.42697" lon="1.6336">
        <ele>214.591191</ele>
        <time>2023-01-04T11:42:05.079Z</time>
      </trkpt>
      <trkpt lat="43.42691" lon="1.63371">
        <ele>214.61808</ele>
        <time>2023-01-04T11:42:07.086Z</time>
      </trkpt>
      <trkpt lat="43.42683" lon="1.63382">
        <ele>214.649401</ele>
        <time>2023-01-04T11:42:09.078Z</time>
      </trkpt>
      <trkpt lat="43.42675" lon="1.63393">
        <ele>214.678012</ele>
        <time>2023-01-04T11:42:11.089Z</time>
      </trkpt>
      <trkpt lat="43.42667" lon="1.63402">
        <ele>214.706362</ele>
        <time>2023-01-04T11:42:13.091Z</time>
      </trkpt>
      <trkpt lat="43.42657" lon="1.6341">
        <ele>214.736704</ele>
        <time>2023-01-04T11:42:15.087Z</time>
      </trkpt>
      <trkpt lat="43.42647" lon="1.63415">
        <ele>214.82232</ele>
        <time>2023-01-04T11:42:17.081Z</time>
      </trkpt>
      <trkpt lat="43.42637" lon="1.63418">
        <ele>214.932912</ele>
        <time>2023-01-04T11:42:19.084Z</time>
      </trkpt>
      <trkpt lat="43.42625" lon="1.63419">
        <ele>215.050151</ele>
        <time>2023-01-04T11:42:21.089Z</time>
      </trkpt>
      <trkpt lat="43.42614" lon="1.63417">
        <ele>215.158006</ele>
        <time>2023-01-04T11:42:23.069Z</time>
      </trkpt>
      <trkpt lat="43.42604" lon="1.63416">
        <ele>215.260483</ele>
        <time>2023-01-04T11:42:25.087Z</time>
      </trkpt>
      <trkpt lat="43.42591" lon="1.63412">
        <ele>215.393342</ele>
        <time>2023-01-04T11:42:28.088Z</time>
      </trkpt>
      <trkpt lat="43.42581" lon="1.63409">
        <ele>215.493116</ele>
        <time>2023-01-04T11:42:30.093Z</time>
      </trkpt>
      <trkpt lat="43.42569" lon="1.63407">
        <ele>215.615039</ele>
        <time>2023-01-04T11:42:32.092Z</time>
      </trkpt>
      <trkpt lat="43.42558" lon="1.63409">
        <ele>215.728141</ele>
        <time>2023-01-04T11:42:34.091Z</time>
      </trkpt>
      <trkpt lat="43.42546" lon="1.63414">
        <ele>215.853254</ele>
        <time>2023-01-04T11:42:37.077Z</time>
      </trkpt>
      <trkpt lat="43.42536" lon="1.6342">
        <ele>215.956238</ele>
        <time>2023-01-04T11:42:40.080Z</time>
      </trkpt>
      <trkpt lat="43.42529" lon="1.63428">
        <ele>216.050025</ele>
        <time>2023-01-04T11:42:43.087Z</time>
      </trkpt>
      <trkpt lat="43.42523" lon="1.63439">
        <ele>216.149756</ele>
        <time>2023-01-04T11:42:46.079Z</time>
      </trkpt>
      <trkpt lat="43.42515" lon="1.6345">
        <ele>216.263116</ele>
        <time>2023-01-04T11:42:49.065Z</time>
      </trkpt>
      <trkpt lat="43.42506" lon="1.63464">
        <ele>216.399851</ele>
        <time>2023-01-04T11:42:52.089Z</time>
      </trkpt>
      <trkpt lat="43.425" lon="1.63474">
        <ele>216.490714</ele>
        <time>2023-01-04T11:42:54.089Z</time>
      </trkpt>
      <trkpt lat="43.42494" lon="1.63486">
        <ele>216.494164</ele>
        <time>2023-01-04T11:42:56.087Z</time>
      </trkpt>
      <trkpt lat="43.42487" lon="1.63494">
        <ele>216.414052</ele>
        <time>2023-01-04T11:42:58.077Z</time>
      </trkpt>
      <trkpt lat="43.42481" lon="1.63505">
        <ele>216.328394</ele>
        <time>2023-01-04T11:43:00.081Z</time>
      </trkpt>
      <trkpt lat="43.42475" lon="1.63517">
        <ele>216.235068</ele>
        <time>2023-01-04T11:43:02.090Z</time>
      </trkpt>
      <trkpt lat="43.42468" lon="1.63528">
        <ele>216.143079</ele>
        <time>2023-01-04T11:43:04.087Z</time>
      </trkpt>
      <trkpt lat="43.42461" lon="1.6354">
        <ele>216.047002</ele>
        <time>2023-01-04T11:43:06.089Z</time>
      </trkpt>
      <trkpt lat="43.42454" lon="1.63549">
        <ele>215.960913</ele>
        <time>2023-01-04T11:43:08.081Z</time>
      </trkpt>
      <trkpt lat="43.42447" lon="1.6356">
        <ele>215.876674</ele>
        <time>2023-01-04T11:43:10.089Z</time>
      </trkpt>
      <trkpt lat="43.4244" lon="1.63572">
        <ele>215.770824</ele>
        <time>2023-01-04T11:43:12.087Z</time>
      </trkpt>
      <trkpt lat="43.42433" lon="1.63582">
        <ele>215.687305</ele>
        <time>2023-01-04T11:43:14.092Z</time>
      </trkpt>
      <trkpt lat="43.42427" lon="1.63593">
        <ele>215.602518</ele>
        <time>2023-01-04T11:43:16.088Z</time>
      </trkpt>
      <trkpt lat="43.42421" lon="1.63603">
        <ele>215.516693</ele>
        <time>2023-01-04T11:43:18.083Z</time>
      </trkpt>
      <trkpt lat="43.42413" lon="1.63614">
        <ele>215.420694</ele>
        <time>2023-01-04T11:43:20.089Z</time>
      </trkpt>
      <trkpt lat="43.42406" lon="1.63625">
        <ele>215.329553</ele>
        <time>2023-01-04T11:43:22.083Z</time>
      </trkpt>
      <trkpt lat="43.42398" lon="1.6364">
        <ele>215.210242</ele>
        <time>2023-01-04T11:43:25.070Z</time>
      </trkpt>
      <trkpt lat="43.4239" lon="1.6365">
        <ele>215.11969</ele>
        <time>2023-01-04T11:43:27.071Z</time>
      </trkpt>
      <trkpt lat="43.42383" lon="1.63659">
        <ele>215.033398</ele>
        <time>2023-01-04T11:43:29.081Z</time>
      </trkpt>
      <trkpt lat="43.42376" lon="1.63668">
        <ele>214.958512</ele>
        <time>2023-01-04T11:43:31.090Z</time>
      </trkpt>
      <trkpt lat="43.42367" lon="1.63681">
        <ele>214.877899</ele>
        <time>2023-01-04T11:43:33.061Z</time>
      </trkpt>
      <trkpt lat="43.42359" lon="1.63691">
        <ele>214.805017</ele>
        <time>2023-01-04T11:43:35.063Z</time>
      </trkpt>
      <trkpt lat="43.4235" lon="1.63699">
        <ele>214.731721</ele>
        <time>2023-01-04T11:43:37.074Z</time>
      </trkpt>
      <trkpt lat="43.4234" lon="1.63706">
        <ele>214.66272</ele>
        <time>2023-01-04T11:43:39.082Z</time>
      </trkpt>
      <trkpt lat="43.42332" lon="1.63715">
        <ele>214.592627</ele>
        <time>2023-01-04T11:43:41.059Z</time>
      </trkpt>
      <trkpt lat="43.42324" lon="1.63721">
        <ele>214.533995</ele>
        <time>2023-01-04T11:43:43.059Z</time>
      </trkpt>
      <trkpt lat="43.42314" lon="1.63729">
        <ele>214.461153</ele>
        <time>2023-01-04T11:43:45.062Z</time>
      </trkpt>
      <trkpt lat="43.42305" lon="1.63738">
        <ele>214.387857</ele>
        <time>2023-01-04T11:43:47.058Z</time>
      </trkpt>
      <trkpt lat="43.42295" lon="1.63748">
        <ele>214.309193</ele>
        <time>2023-01-04T11:43:49.074Z</time>
      </trkpt>
      <trkpt lat="43.42283" lon="1.63758">
        <ele>214.214851</ele>
        <time>2023-01-04T11:43:52.067Z</time>
      </trkpt>
      <trkpt lat="43.42274" lon="1.63767">
        <ele>214.145563</ele>
        <time>2023-01-04T11:43:54.067Z</time>
      </trkpt>
      <trkpt lat="43.42263" lon="1.63777">
        <ele>214.057953</ele>
        <time>2023-01-04T11:43:57.072Z</time>
      </trkpt>
      <trkpt lat="43.42252" lon="1.63786">
        <ele>213.974361</ele>
        <time>2023-01-04T11:44:00.075Z</time>
      </trkpt>
      <trkpt lat="43.4224" lon="1.63796">
        <ele>213.883833</ele>
        <time>2023-01-04T11:44:03.075Z</time>
      </trkpt>
      <trkpt lat="43.42233" lon="1.63804">
        <ele>213.82071</ele>
        <time>2023-01-04T11:44:05.079Z</time>
      </trkpt>
      <trkpt lat="43.42222" lon="1.63814">
        <ele>213.973106</ele>
        <time>2023-01-04T11:44:08.066Z</time>
      </trkpt>
      <trkpt lat="43.42212" lon="1.63824">
        <ele>214.141266</ele>
        <time>2023-01-04T11:44:10.080Z</time>
      </trkpt>
      <trkpt lat="43.42201" lon="1.63836">
        <ele>214.340029</ele>
        <time>2023-01-04T11:44:13.077Z</time>
      </trkpt>
      <trkpt lat="43.4219" lon="1.63848">
        <ele>214.541873</ele>
        <time>2023-01-04T11:44:16.067Z</time>
      </trkpt>
      <trkpt lat="43.42182" lon="1.63859">
        <ele>214.711095</ele>
        <time>2023-01-04T11:44:18.106Z</time>
      </trkpt>
      <trkpt lat="43.42172" lon="1.63871">
        <ele>214.891884</ele>
        <time>2023-01-04T11:44:20.074Z</time>
      </trkpt>
      <trkpt lat="43.42164" lon="1.63879">
        <ele>215.033579</ele>
        <time>2023-01-04T11:44:22.076Z</time>
      </trkpt>
      <trkpt lat="43.42157" lon="1.63886">
        <ele>215.168067</ele>
        <time>2023-01-04T11:44:24.075Z</time>
      </trkpt>
      <trkpt lat="43.42148" lon="1.63894">
        <ele>215.310255</ele>
        <time>2023-01-04T11:44:27.079Z</time>
      </trkpt>
      <trkpt lat="43.4214" lon="1.63905">
        <ele>215.480484</ele>
        <time>2023-01-04T11:44:31.076Z</time>
      </trkpt>
      <trkpt lat="43.42131" lon="1.63917">
        <ele>215.657335</ele>
        <time>2023-01-04T11:44:34.067Z</time>
      </trkpt>
      <trkpt lat="43.42124" lon="1.63925">
        <ele>215.795149</ele>
        <time>2023-01-04T11:44:36.077Z</time>
      </trkpt>
      <trkpt lat="43.42115" lon="1.63936">
        <ele>215.958703</ele>
        <time>2023-01-04T11:44:38.067Z</time>
      </trkpt>
      <trkpt lat="43.42108" lon="1.63944">
        <ele>216.092529</ele>
        <time>2023-01-04T11:44:40.074Z</time>
      </trkpt>
      <trkpt lat="43.42099" lon="1.63954">
        <ele>216.25672</ele>
        <time>2023-01-04T11:44:43.067Z</time>
      </trkpt>
      <trkpt lat="43.4209" lon="1.63962">
        <ele>216.379397</ele>
        <time>2023-01-04T11:44:46.062Z</time>
      </trkpt>
      <trkpt lat="43.4208" lon="1.63971">
        <ele>216.345642</ele>
        <time>2023-01-04T11:44:48.083Z</time>
      </trkpt>
      <trkpt lat="43.42071" lon="1.63978">
        <ele>216.316823</ele>
        <time>2023-01-04T11:44:50.075Z</time>
      </trkpt>
      <trkpt lat="43.42062" lon="1.63986">
        <ele>216.286778</ele>
        <time>2023-01-04T11:44:52.076Z</time>
      </trkpt>
      <trkpt lat="43.42053" lon="1.63994">
        <ele>216.255546</ele>
        <time>2023-01-04T11:44:54.092Z</time>
      </trkpt>
      <trkpt lat="43.42042" lon="1.64001">
        <ele>216.222348</ele>
        <time>2023-01-04T11:44:56.056Z</time>
      </trkpt>
      <trkpt lat="43.42033" lon="1.64007">
        <ele>216.192159</ele>
        <time>2023-01-04T11:44:58.080Z</time>
      </trkpt>
      <trkpt lat="43.42024" lon="1.64014">
        <ele>216.163341</ele>
        <time>2023-01-04T11:45:00.066Z</time>
      </trkpt>
      <trkpt lat="43.42014" lon="1.6402">
        <ele>216.132649</ele>
        <time>2023-01-04T11:45:02.076Z</time>
      </trkpt>
      <trkpt lat="43.42005" lon="1.64026">
        <ele>216.104629</ele>
        <time>2023-01-04T11:45:04.074Z</time>
      </trkpt>
      <trkpt lat="43.41994" lon="1.64035">
        <ele>216.067335</ele>
        <time>2023-01-04T11:45:07.079Z</time>
      </trkpt>
      <trkpt lat="43.41984" lon="1.6404">
        <ele>216.038771</ele>
        <time>2023-01-04T11:45:09.077Z</time>
      </trkpt>
      <trkpt lat="43.41975" lon="1.64045">
        <ele>216.010812</ele>
        <time>2023-01-04T11:45:11.075Z</time>
      </trkpt>
      <trkpt lat="43.41967" lon="1.64051">
        <ele>215.985033</ele>
        <time>2023-01-04T11:45:13.075Z</time>
      </trkpt>
      <trkpt lat="43.41959" lon="1.64056">
        <ele>215.959252</ele>
        <time>2023-01-04T11:45:15.060Z</time>
      </trkpt>
      <trkpt lat="43.41949" lon="1.64063">
        <ele>215.927421</ele>
        <time>2023-01-04T11:45:18.078Z</time>
      </trkpt>
      <trkpt lat="43.4194" lon="1.64069">
        <ele>215.898904</ele>
        <time>2023-01-04T11:45:21.088Z</time>
      </trkpt>
      <trkpt lat="43.41929" lon="1.64077">
        <ele>215.92203</ele>
        <time>2023-01-04T11:45:24.076Z</time>
      </trkpt>
      <trkpt lat="43.41918" lon="1.64082">
        <ele>216.079536</ele>
        <time>2023-01-04T11:45:26.076Z</time>
      </trkpt>
      <trkpt lat="43.41906" lon="1.64086">
        <ele>216.243306</ele>
        <time>2023-01-04T11:45:28.076Z</time>
      </trkpt>
      <trkpt lat="43.41895" lon="1.64092">
        <ele>216.396209</ele>
        <time>2023-01-04T11:45:30.074Z</time>
      </trkpt>
      <trkpt lat="43.41886" lon="1.64098">
        <ele>216.538151</ele>
        <time>2023-01-04T11:45:32.076Z</time>
      </trkpt>
      <trkpt lat="43.41876" lon="1.64104">
        <ele>216.683342</ele>
        <time>2023-01-04T11:45:35.066Z</time>
      </trkpt>
      <trkpt lat="43.41868" lon="1.64114">
        <ele>216.82426</ele>
        <time>2023-01-04T11:45:40.079Z</time>
      </trkpt>
      <trkpt lat="43.41866" lon="1.64128">
        <ele>216.962054</ele>
        <time>2023-01-04T11:45:46.059Z</time>
      </trkpt>
      <trkpt lat="43.41858" lon="1.64137">
        <ele>217.103224</ele>
        <time>2023-01-04T11:45:49.087Z</time>
      </trkpt>
      <trkpt lat="43.41848" lon="1.64141">
        <ele>217.246008</ele>
        <time>2023-01-04T11:45:52.078Z</time>
      </trkpt>
      <trkpt lat="43.41836" lon="1.64142">
        <ele>217.409515</ele>
        <time>2023-01-04T11:45:56.077Z</time>
      </trkpt>
      <trkpt lat="43.41825" lon="1.64144">
        <ele>217.559114</ele>
        <time>2023-01-04T11:45:59.076Z</time>
      </trkpt>
      <trkpt lat="43.41815" lon="1.64151">
        <ele>217.714066</ele>
        <time>2023-01-04T11:46:03.079Z</time>
      </trkpt>
      <trkpt lat="43.41805" lon="1.64157">
        <ele>217.850659</ele>
        <time>2023-01-04T11:46:06.083Z</time>
      </trkpt>
      <trkpt lat="43.41794" lon="1.6416">
        <ele>218.001774</ele>
        <time>2023-01-04T11:46:10.075Z</time>
      </trkpt>
      <trkpt lat="43.41785" lon="1.64168">
        <ele>218.150814</ele>
        <time>2023-01-04T11:46:25.074Z</time>
      </trkpt>
      <trkpt lat="43.41777" lon="1.64179">
        <ele>218.290462</ele>
        <time>2023-01-04T11:46:29.067Z</time>
      </trkpt>
      <trkpt lat="43.41768" lon="1.64189">
        <ele>218.256509</ele>
        <time>2023-01-04T11:46:32.079Z</time>
      </trkpt>
      <trkpt lat="43.41758" lon="1.64198">
        <ele>218.220157</ele>
        <time>2023-01-04T11:46:35.072Z</time>
      </trkpt>
      <trkpt lat="43.41747" lon="1.64208">
        <ele>218.180164</ele>
        <time>2023-01-04T11:46:38.060Z</time>
      </trkpt>
      <trkpt lat="43.41735" lon="1.64217">
        <ele>218.14012</ele>
        <time>2023-01-04T11:46:41.074Z</time>
      </trkpt>
      <trkpt lat="43.41724" lon="1.64224">
        <ele>218.102982</ele>
        <time>2023-01-04T11:46:44.081Z</time>
      </trkpt>
      <trkpt lat="43.41715" lon="1.64231">
        <ele>218.069885</ele>
        <time>2023-01-04T11:46:47.083Z</time>
      </trkpt>
      <trkpt lat="43.41704" lon="1.64239">
        <ele>218.031905</ele>
        <time>2023-01-04T11:46:50.068Z</time>
      </trkpt>
      <trkpt lat="43.41692" lon="1.64248">
        <ele>217.992482</ele>
        <time>2023-01-04T11:46:53.074Z</time>
      </trkpt>
      <trkpt lat="43.41681" lon="1.64259">
        <ele>217.952278</ele>
        <time>2023-01-04T11:46:56.067Z</time>
      </trkpt>
      <trkpt lat="43.41671" lon="1.64271">
        <ele>217.910342</ele>
        <time>2023-01-04T11:46:59.077Z</time>
      </trkpt>
      <trkpt lat="43.4166" lon="1.64283">
        <ele>217.869768</ele>
        <time>2023-01-04T11:47:02.079Z</time>
      </trkpt>
      <trkpt lat="43.41653" lon="1.6429">
        <ele>217.842094</ele>
        <time>2023-01-04T11:47:04.086Z</time>
      </trkpt>
      <trkpt lat="43.41643" lon="1.64302">
        <ele>217.800535</ele>
        <time>2023-01-04T11:47:07.088Z</time>
      </trkpt>
      <trkpt lat="43.41633" lon="1.64315">
        <ele>217.760671</ele>
        <time>2023-01-04T11:47:10.082Z</time>
      </trkpt>
      <trkpt lat="43.41623" lon="1.64328">
        <ele>217.648125</ele>
        <time>2023-01-04T11:47:13.088Z</time>
      </trkpt>
      <trkpt lat="43.41617" lon="1.64338">
        <ele>217.552909</ele>
        <time>2023-01-04T11:47:15.081Z</time>
      </trkpt>
      <trkpt lat="43.41608" lon="1.64347">
        <ele>217.443171</ele>
        <time>2023-01-04T11:47:17.089Z</time>
      </trkpt>
      <trkpt lat="43.41601" lon="1.64355">
        <ele>217.347366</ele>
        <time>2023-01-04T11:47:19.082Z</time>
      </trkpt>
      <trkpt lat="43.41594" lon="1.64365">
        <ele>217.249727</ele>
        <time>2023-01-04T11:47:22.079Z</time>
      </trkpt>
      <trkpt lat="43.41588" lon="1.64376">
        <ele>217.153879</ele>
        <time>2023-01-04T11:47:25.067Z</time>
      </trkpt>
      <trkpt lat="43.41583" lon="1.64387">
        <ele>217.060888</ele>
        <time>2023-01-04T11:47:28.076Z</time>
      </trkpt>
      <trkpt lat="43.41577" lon="1.64401">
        <ele>216.93893</ele>
        <time>2023-01-04T11:47:32.080Z</time>
      </trkpt>
      <trkpt lat="43.41569" lon="1.64415">
        <ele>216.808991</ele>
        <time>2023-01-04T11:47:35.063Z</time>
      </trkpt>
      <trkpt lat="43.41561" lon="1.6443">
        <ele>216.673145</ele>
        <time>2023-01-04T11:47:38.079Z</time>
      </trkpt>
      <trkpt lat="43.41554" lon="1.64444">
        <ele>216.547923</ele>
        <time>2023-01-04T11:47:41.066Z</time>
      </trkpt>
      <trkpt lat="43.41547" lon="1.64458">
        <ele>216.429159</ele>
        <time>2023-01-04T11:47:43.083Z</time>
      </trkpt>
      <trkpt lat="43.41542" lon="1.64469">
        <ele>216.334245</ele>
        <time>2023-01-04T11:47:45.089Z</time>
      </trkpt>
      <trkpt lat="43.41536" lon="1.64483">
        <ele>216.217485</ele>
        <time>2023-01-04T11:47:47.073Z</time>
      </trkpt>
      <trkpt lat="43.41531" lon="1.64495">
        <ele>216.115531</ele>
        <time>2023-01-04T11:47:49.087Z</time>
      </trkpt>
      <trkpt lat="43.41524" lon="1.64507">
        <ele>216.005</ele>
        <time>2023-01-04T11:47:52.091Z</time>
      </trkpt>
      <trkpt lat="43.41517" lon="1.64522">
        <ele>216.030091</ele>
        <time>2023-01-04T11:47:55.084Z</time>
      </trkpt>
      <trkpt lat="43.41511" lon="1.64535">
        <ele>216.155571</ele>
        <time>2023-01-04T11:47:57.087Z</time>
      </trkpt>
      <trkpt lat="43.41506" lon="1.64547">
        <ele>216.260021</ele>
        <time>2023-01-04T11:47:59.068Z</time>
      </trkpt>
      <trkpt lat="43.415" lon="1.64557">
        <ele>216.359028</ele>
        <time>2023-01-04T11:48:01.087Z</time>
      </trkpt>
      <trkpt lat="43.41494" lon="1.64569">
        <ele>216.476952</ele>
        <time>2023-01-04T11:48:03.070Z</time>
      </trkpt>
      <trkpt lat="43.41487" lon="1.6458">
        <ele>216.586348</ele>
        <time>2023-01-04T11:48:05.088Z</time>
      </trkpt>
      <trkpt lat="43.41478" lon="1.64597">
        <ele>216.748413</ele>
        <time>2023-01-04T11:48:08.087Z</time>
      </trkpt>
      <trkpt lat="43.4147" lon="1.64609">
        <ele>216.879233</ele>
        <time>2023-01-04T11:48:10.079Z</time>
      </trkpt>
      <trkpt lat="43.41464" lon="1.6462">
        <ele>216.987054</ele>
        <time>2023-01-04T11:48:12.097Z</time>
      </trkpt>
      <trkpt lat="43.41456" lon="1.6463">
        <ele>217.103512</ele>
        <time>2023-01-04T11:48:14.088Z</time>
      </trkpt>
      <trkpt lat="43.41446" lon="1.64641">
        <ele>217.237018</ele>
        <time>2023-01-04T11:48:16.082Z</time>
      </trkpt>
      <trkpt lat="43.41438" lon="1.64651">
        <ele>217.354147</ele>
        <time>2023-01-04T11:48:18.090Z</time>
      </trkpt>
      <trkpt lat="43.41429" lon="1.6466">
        <ele>217.476676</ele>
        <time>2023-01-04T11:48:20.080Z</time>
      </trkpt>
      <trkpt lat="43.41419" lon="1.64671">
        <ele>217.606548</ele>
        <time>2023-01-04T11:48:22.087Z</time>
      </trkpt>
      <trkpt lat="43.41411" lon="1.64679">
        <ele>217.718838</ele>
        <time>2023-01-04T11:48:24.092Z</time>
      </trkpt>
      <trkpt lat="43.41401" lon="1.64689">
        <ele>217.853299</ele>
        <time>2023-01-04T11:48:26.081Z</time>
      </trkpt>
      <trkpt lat="43.41391" lon="1.64695">
        <ele>217.991681</ele>
        <time>2023-01-04T11:48:28.079Z</time>
      </trkpt>
      <trkpt lat="43.41383" lon="1.64703">
        <ele>218.132796</ele>
        <time>2023-01-04T11:48:30.087Z</time>
      </trkpt>
      <trkpt lat="43.41373" lon="1.64709">
        <ele>218.291729</ele>
        <time>2023-01-04T11:48:32.085Z</time>
      </trkpt>
      <trkpt lat="43.41362" lon="1.64715">
        <ele>218.447668</ele>
        <time>2023-01-04T11:48:34.082Z</time>
      </trkpt>
      <trkpt lat="43.41353" lon="1.6472">
        <ele>218.588631</ele>
        <time>2023-01-04T11:48:36.088Z</time>
      </trkpt>
      <trkpt lat="43.41344" lon="1.64724">
        <ele>218.721802</ele>
        <time>2023-01-04T11:48:38.080Z</time>
      </trkpt>
      <trkpt lat="43.41332" lon="1.64729">
        <ele>218.901401</ele>
        <time>2023-01-04T11:48:40.088Z</time>
      </trkpt>
      <trkpt lat="43.41323" lon="1.64734">
        <ele>219.042011</ele>
        <time>2023-01-04T11:48:42.089Z</time>
      </trkpt>
      <trkpt lat="43.41312" lon="1.64738">
        <ele>219.192667</ele>
        <time>2023-01-04T11:48:44.089Z</time>
      </trkpt>
      <trkpt lat="43.41302" lon="1.64741">
        <ele>219.345193</ele>
        <time>2023-01-04T11:48:46.062Z</time>
      </trkpt>
      <trkpt lat="43.41292" lon="1.64746">
        <ele>219.492137</ele>
        <time>2023-01-04T11:48:48.081Z</time>
      </trkpt>
      <trkpt lat="43.4128" lon="1.64748">
        <ele>219.655781</ele>
        <time>2023-01-04T11:48:51.087Z</time>
      </trkpt>
      <trkpt lat="43.41271" lon="1.64752">
        <ele>219.793578</ele>
        <time>2023-01-04T11:48:53.090Z</time>
      </trkpt>
      <trkpt lat="43.41262" lon="1.64755">
        <ele>219.928958</ele>
        <time>2023-01-04T11:48:55.077Z</time>
      </trkpt>
      <trkpt lat="43.41251" lon="1.6476">
        <ele>220.090993</ele>
        <time>2023-01-04T11:48:57.076Z</time>
      </trkpt>
      <trkpt lat="43.4124" lon="1.64768">
        <ele>220.265862</ele>
        <time>2023-01-04T11:49:00.083Z</time>
      </trkpt>
      <trkpt lat="43.41229" lon="1.64778">
        <ele>220.404382</ele>
        <time>2023-01-04T11:49:03.088Z</time>
      </trkpt>
      <trkpt lat="43.41221" lon="1.64787">
        <ele>220.350845</ele>
        <time>2023-01-04T11:49:05.086Z</time>
      </trkpt>
      <trkpt lat="43.4121" lon="1.64802">
        <ele>220.275042</ele>
        <time>2023-01-04T11:49:08.063Z</time>
      </trkpt>
      <trkpt lat="43.41201" lon="1.64818">
        <ele>220.201899</ele>
        <time>2023-01-04T11:49:11.087Z</time>
      </trkpt>
      <trkpt lat="43.41193" lon="1.64829">
        <ele>220.146247</ele>
        <time>2023-01-04T11:49:13.085Z</time>
      </trkpt>
      <trkpt lat="43.4119" lon="1.64844">
        <ele>220.091806</ele>
        <time>2023-01-04T11:49:16.077Z</time>
      </trkpt>
      <trkpt lat="43.41185" lon="1.64856">
        <ele>220.039498</ele>
        <time>2023-01-04T11:49:18.080Z</time>
      </trkpt>
      <trkpt lat="43.4118" lon="1.64869">
        <ele>219.988233</ele>
        <time>2023-01-04T11:49:20.078Z</time>
      </trkpt>
      <trkpt lat="43.41174" lon="1.64886">
        <ele>219.91958</ele>
        <time>2023-01-04T11:49:23.089Z</time>
      </trkpt>
      <trkpt lat="43.4117" lon="1.64902">
        <ele>219.859739</ele>
        <time>2023-01-04T11:49:26.079Z</time>
      </trkpt>
      <trkpt lat="43.41167" lon="1.64914">
        <ele>219.81274</ele>
        <time>2023-01-04T11:49:28.086Z</time>
      </trkpt>
      <trkpt lat="43.41165" lon="1.64929">
        <ele>219.758303</ele>
        <time>2023-01-04T11:49:31.085Z</time>
      </trkpt>
      <trkpt lat="43.4116" lon="1.64945">
        <ele>219.695325</ele>
        <time>2023-01-04T11:49:33.091Z</time>
      </trkpt>
      <trkpt lat="43.41154" lon="1.64959">
        <ele>219.637357</ele>
        <time>2023-01-04T11:49:35.090Z</time>
      </trkpt>
      <trkpt lat="43.4115" lon="1.64971">
        <ele>219.589214</ele>
        <time>2023-01-04T11:49:37.082Z</time>
      </trkpt>
      <trkpt lat="43.41145" lon="1.64982">
        <ele>219.54149</ele>
        <time>2023-01-04T11:49:39.085Z</time>
      </trkpt>
      <trkpt lat="43.41141" lon="1.65001">
        <ele>219.633086</ele>
        <time>2023-01-04T11:49:42.081Z</time>
      </trkpt>
      <trkpt lat="43.4114" lon="1.65014">
        <ele>219.732828</ele>
        <time>2023-01-04T11:49:44.079Z</time>
      </trkpt>
      <trkpt lat="43.41137" lon="1.6503">
        <ele>219.857735</ele>
        <time>2023-01-04T11:49:46.078Z</time>
      </trkpt>
      <trkpt lat="43.41137" lon="1.65044">
        <ele>219.967038</ele>
        <time>2023-01-04T11:49:48.076Z</time>
      </trkpt>
      <trkpt lat="43.41136" lon="1.65058">
        <ele>220.076719</ele>
        <time>2023-01-04T11:49:50.081Z</time>
      </trkpt>
      <trkpt lat="43.41133" lon="1.65074">
        <ele>220.204512</ele>
        <time>2023-01-04T11:49:52.083Z</time>
      </trkpt>
      <trkpt lat="43.41132" lon="1.6509">
        <ele>220.324418</ele>
        <time>2023-01-04T11:49:54.079Z</time>
      </trkpt>
      <trkpt lat="43.41133" lon="1.65106">
        <ele>220.449738</ele>
        <time>2023-01-04T11:49:56.082Z</time>
      </trkpt>
      <trkpt lat="43.41133" lon="1.65125">
        <ele>220.596328</ele>
        <time>2023-01-04T11:49:59.080Z</time>
      </trkpt>
      <trkpt lat="43.41131" lon="1.6514">
        <ele>220.710023</ele>
        <time>2023-01-04T11:50:01.088Z</time>
      </trkpt>
      <trkpt lat="43.41138" lon="1.65185">
        <ele>221.062223</ele>
        <time>2023-01-04T11:50:09.091Z</time>
      </trkpt>
      <trkpt lat="43.41138" lon="1.65206">
        <ele>221.21953</ele>
        <time>2023-01-04T11:50:11.095Z</time>
      </trkpt>
      <trkpt lat="43.41132" lon="1.65221">
        <ele>221.352115</ele>
        <time>2023-01-04T11:50:13.088Z</time>
      </trkpt>
      <trkpt lat="43.41134" lon="1.65237">
        <ele>221.35857</ele>
        <time>2023-01-04T11:50:17.087Z</time>
      </trkpt>
      <trkpt lat="43.41136" lon="1.65249">
        <ele>221.270056</ele>
        <time>2023-01-04T11:50:20.079Z</time>
      </trkpt>
      <trkpt lat="43.41138" lon="1.65265">
        <ele>221.152632</ele>
        <time>2023-01-04T11:50:23.084Z</time>
      </trkpt>
      <trkpt lat="43.41139" lon="1.65282">
        <ele>221.039439</ele>
        <time>2023-01-04T11:50:26.089Z</time>
      </trkpt>
      <trkpt lat="43.41143" lon="1.65295">
        <ele>220.940917</ele>
        <time>2023-01-04T11:50:29.089Z</time>
      </trkpt>
      <trkpt lat="43.41147" lon="1.65308">
        <ele>220.844656</ele>
        <time>2023-01-04T11:50:32.087Z</time>
      </trkpt>
      <trkpt lat="43.4115" lon="1.65323">
        <ele>220.73146</ele>
        <time>2023-01-04T11:50:35.082Z</time>
      </trkpt>
      <trkpt lat="43.41151" lon="1.65341">
        <ele>220.608782</ele>
        <time>2023-01-04T11:50:38.083Z</time>
      </trkpt>
      <trkpt lat="43.41153" lon="1.65357">
        <ele>220.491043</ele>
        <time>2023-01-04T11:50:41.087Z</time>
      </trkpt>
      <trkpt lat="43.41156" lon="1.65376">
        <ele>220.360895</ele>
        <time>2023-01-04T11:50:44.084Z</time>
      </trkpt>
      <trkpt lat="43.41159" lon="1.65389">
        <ele>220.262031</ele>
        <time>2023-01-04T11:50:46.089Z</time>
      </trkpt>
      <trkpt lat="43.41164" lon="1.65401">
        <ele>220.164009</ele>
        <time>2023-01-04T11:50:48.080Z</time>
      </trkpt>
      <trkpt lat="43.41168" lon="1.65419">
        <ele>220.034483</ele>
        <time>2023-01-04T11:50:51.087Z</time>
      </trkpt>
      <trkpt lat="43.41172" lon="1.6543">
        <ele>219.948107</ele>
        <time>2023-01-04T11:50:53.090Z</time>
      </trkpt>
      <trkpt lat="43.41175" lon="1.65443">
        <ele>219.850576</ele>
        <time>2023-01-04T11:50:55.061Z</time>
      </trkpt>
      <trkpt lat="43.41179" lon="1.65457">
        <ele>219.745804</ele>
        <time>2023-01-04T11:50:57.079Z</time>
      </trkpt>
      <trkpt lat="43.41182" lon="1.65472">
        <ele>219.660229</ele>
        <time>2023-01-04T11:50:59.088Z</time>
      </trkpt>
      <trkpt lat="43.41184" lon="1.65488">
        <ele>219.591597</ele>
        <time>2023-01-04T11:51:01.076Z</time>
      </trkpt>
      <trkpt lat="43.41186" lon="1.65505">
        <ele>219.522853</ele>
        <time>2023-01-04T11:51:03.070Z</time>
      </trkpt>
      <trkpt lat="43.4119" lon="1.6552">
        <ele>219.458821</ele>
        <time>2023-01-04T11:51:05.084Z</time>
      </trkpt>
      <trkpt lat="43.41195" lon="1.65537">
        <ele>219.381609</ele>
        <time>2023-01-04T11:51:08.080Z</time>
      </trkpt>
      <trkpt lat="43.41198" lon="1.6555">
        <ele>219.32806</ele>
        <time>2023-01-04T11:51:10.080Z</time>
      </trkpt>
      <trkpt lat="43.412" lon="1.65562">
        <ele>219.276193</ele>
        <time>2023-01-04T11:51:12.083Z</time>
      </trkpt>
      <trkpt lat="43.41203" lon="1.65575">
        <ele>219.222689</ele>
        <time>2023-01-04T11:51:14.093Z</time>
      </trkpt>
      <trkpt lat="43.41205" lon="1.65587">
        <ele>219.17158</ele>
        <time>2023-01-04T11:51:16.087Z</time>
      </trkpt>
      <trkpt lat="43.41208" lon="1.65605">
        <ele>219.098275</ele>
        <time>2023-01-04T11:51:19.083Z</time>
      </trkpt>
      <trkpt lat="43.41211" lon="1.65618">
        <ele>219.043519</ele>
        <time>2023-01-04T11:51:21.089Z</time>
      </trkpt>
      <trkpt lat="43.41213" lon="1.65631">
        <ele>218.988998</ele>
        <time>2023-01-04T11:51:23.058Z</time>
      </trkpt>
      <trkpt lat="43.41215" lon="1.65646">
        <ele>218.927742</ele>
        <time>2023-01-04T11:51:25.083Z</time>
      </trkpt>
      <trkpt lat="43.41219" lon="1.65659">
        <ele>218.867898</ele>
        <time>2023-01-04T11:51:27.066Z</time>
      </trkpt>
      <trkpt lat="43.41223" lon="1.65672">
        <ele>218.812883</ele>
        <time>2023-01-04T11:51:29.088Z</time>
      </trkpt>
      <trkpt lat="43.41226" lon="1.65684">
        <ele>218.762717</ele>
        <time>2023-01-04T11:51:32.096Z</time>
      </trkpt>
      <trkpt lat="43.41226" lon="1.65698">
        <ele>218.704708</ele>
        <time>2023-01-04T11:51:37.080Z</time>
      </trkpt>
      <trkpt lat="43.41229" lon="1.65712">
        <ele>218.647777</ele>
        <time>2023-01-04T11:51:40.087Z</time>
      </trkpt>
      <trkpt lat="43.41231" lon="1.65727">
        <ele>218.592843</ele>
        <time>2023-01-04T11:51:42.086Z</time>
      </trkpt>
      <trkpt lat="43.41232" lon="1.65744">
        <ele>218.528832</ele>
        <time>2023-01-04T11:51:44.087Z</time>
      </trkpt>
      <trkpt lat="43.41233" lon="1.65762">
        <ele>218.464087</ele>
        <time>2023-01-04T11:51:46.088Z</time>
      </trkpt>
      <trkpt lat="43.41233" lon="1.65781">
        <ele>218.392091</ele>
        <time>2023-01-04T11:51:48.097Z</time>
      </trkpt>
      <trkpt lat="43.41232" lon="1.65798">
        <ele>218.331849</ele>
        <time>2023-01-04T11:51:50.066Z</time>
      </trkpt>
      <trkpt lat="43.41229" lon="1.65817">
        <ele>218.258633</ele>
        <time>2023-01-04T11:51:52.090Z</time>
      </trkpt>
      <trkpt lat="43.41231" lon="1.65837">
        <ele>218.187523</ele>
        <time>2023-01-04T11:51:54.085Z</time>
      </trkpt>
      <trkpt lat="43.41233" lon="1.65852">
        <ele>218.130594</ele>
        <time>2023-01-04T11:51:56.083Z</time>
      </trkpt>
      <trkpt lat="43.41231" lon="1.65865">
        <ele>218.080628</ele>
        <time>2023-01-04T11:51:58.074Z</time>
      </trkpt>
      <trkpt lat="43.41229" lon="1.65878">
        <ele>218.032921</ele>
        <time>2023-01-04T11:52:00.089Z</time>
      </trkpt>
      <trkpt lat="43.4123" lon="1.65893">
        <ele>217.976712</ele>
        <time>2023-01-04T11:52:03.078Z</time>
      </trkpt>
      <trkpt lat="43.41227" lon="1.65914">
        <ele>217.899899</ele>
        <time>2023-01-04T11:52:06.088Z</time>
      </trkpt>
      <trkpt lat="43.41224" lon="1.65929">
        <ele>217.843122</ele>
        <time>2023-01-04T11:52:09.087Z</time>
      </trkpt>
      <trkpt lat="43.41222" lon="1.65942">
        <ele>217.793487</ele>
        <time>2023-01-04T11:52:11.091Z</time>
      </trkpt>
      <trkpt lat="43.41219" lon="1.65955">
        <ele>217.717581</ele>
        <time>2023-01-04T11:52:13.080Z</time>
      </trkpt>
      <trkpt lat="43.41214" lon="1.65967">
        <ele>217.607623</ele>
        <time>2023-01-04T11:52:15.071Z</time>
      </trkpt>
      <trkpt lat="43.41209" lon="1.65982">
        <ele>217.489251</ele>
        <time>2023-01-04T11:52:18.091Z</time>
      </trkpt>
      <trkpt lat="43.41204" lon="1.65998">
        <ele>217.360141</ele>
        <time>2023-01-04T11:52:21.084Z</time>
      </trkpt>
      <trkpt lat="43.41197" lon="1.66013">
        <ele>217.224498</ele>
        <time>2023-01-04T11:52:24.086Z</time>
      </trkpt>
      <trkpt lat="43.41192" lon="1.66026">
        <ele>217.117733</ele>
        <time>2023-01-04T11:52:26.082Z</time>
      </trkpt>
      <trkpt lat="43.41186" lon="1.6604">
        <ele>216.996944</ele>
        <time>2023-01-04T11:52:28.080Z</time>
      </trkpt>
      <trkpt lat="43.41181" lon="1.6605">
        <ele>216.903961</ele>
        <time>2023-01-04T11:52:30.078Z</time>
      </trkpt>
      <trkpt lat="43.41174" lon="1.66063">
        <ele>216.784666</ele>
        <time>2023-01-04T11:52:32.083Z</time>
      </trkpt>
      <trkpt lat="43.41169" lon="1.66074">
        <ele>216.686969</ele>
        <time>2023-01-04T11:52:34.080Z</time>
      </trkpt>
      <trkpt lat="43.41163" lon="1.66085">
        <ele>216.583375</ele>
        <time>2023-01-04T11:52:36.079Z</time>
      </trkpt>
      <trkpt lat="43.41156" lon="1.66101">
        <ele>216.447044</ele>
        <time>2023-01-04T11:52:39.088Z</time>
      </trkpt>
      <trkpt lat="43.41148" lon="1.66113">
        <ele>216.327856</ele>
        <time>2023-01-04T11:52:42.082Z</time>
      </trkpt>
      <trkpt lat="43.41141" lon="1.66122">
        <ele>216.228164</ele>
        <time>2023-01-04T11:52:44.082Z</time>
      </trkpt>
      <trkpt lat="43.41135" lon="1.66133">
        <ele>216.123832</ele>
        <time>2023-01-04T11:52:46.062Z</time>
      </trkpt>
      <trkpt lat="43.41128" lon="1.66143">
        <ele>216.026286</ele>
        <time>2023-01-04T11:52:48.079Z</time>
      </trkpt>
      <trkpt lat="43.4112" lon="1.66153">
        <ele>215.91526</ele>
        <time>2023-01-04T11:52:50.079Z</time>
      </trkpt>
      <trkpt lat="43.41112" lon="1.6616">
        <ele>215.833058</ele>
        <time>2023-01-04T11:52:52.080Z</time>
      </trkpt>
      <trkpt lat="43.41105" lon="1.66169">
        <ele>215.740595</ele>
        <time>2023-01-04T11:52:54.088Z</time>
      </trkpt>
      <trkpt lat="43.41097" lon="1.6618">
        <ele>215.640886</ele>
        <time>2023-01-04T11:52:56.082Z</time>
      </trkpt>
      <trkpt lat="43.41088" lon="1.66191">
        <ele>215.523959</ele>
        <time>2023-01-04T11:52:59.085Z</time>
      </trkpt>
      <trkpt lat="43.41081" lon="1.66201">
        <ele>215.436604</ele>
        <time>2023-01-04T11:53:01.083Z</time>
      </trkpt>
      <trkpt lat="43.41072" lon="1.66211">
        <ele>215.330784</ele>
        <time>2023-01-04T11:53:03.090Z</time>
      </trkpt>
      <trkpt lat="43.41063" lon="1.66222">
        <ele>215.222681</ele>
        <time>2023-01-04T11:53:05.074Z</time>
      </trkpt>
      <trkpt lat="43.41054" lon="1.66233">
        <ele>215.11137</ele>
        <time>2023-01-04T11:53:07.091Z</time>
      </trkpt>
      <trkpt lat="43.41043" lon="1.66245">
        <ele>214.979675</ele>
        <time>2023-01-04T11:53:10.080Z</time>
      </trkpt>
      <trkpt lat="43.41033" lon="1.66256">
        <ele>214.870178</ele>
        <time>2023-01-04T11:53:12.086Z</time>
      </trkpt>
      <trkpt lat="43.41025" lon="1.66265">
        <ele>214.772229</ele>
        <time>2023-01-04T11:53:14.090Z</time>
      </trkpt>
      <trkpt lat="43.41017" lon="1.66275">
        <ele>214.674815</ele>
        <time>2023-01-04T11:53:16.088Z</time>
      </trkpt>
      <trkpt lat="43.41008" lon="1.66284">
        <ele>214.57186</ele>
        <time>2023-01-04T11:53:18.079Z</time>
      </trkpt>
      <trkpt lat="43.40999" lon="1.66294">
        <ele>214.471514</ele>
        <time>2023-01-04T11:53:20.090Z</time>
      </trkpt>
      <trkpt lat="43.40991" lon="1.66303">
        <ele>214.374796</ele>
        <time>2023-01-04T11:53:22.094Z</time>
      </trkpt>
      <trkpt lat="43.40982" lon="1.66314">
        <ele>214.291376</ele>
        <time>2023-01-04T11:53:24.064Z</time>
      </trkpt>
      <trkpt lat="43.40974" lon="1.66322">
        <ele>214.304445</ele>
        <time>2023-01-04T11:53:26.088Z</time>
      </trkpt>
      <trkpt lat="43.40966" lon="1.6633">
        <ele>214.317467</ele>
        <time>2023-01-04T11:53:28.077Z</time>
      </trkpt>
      <trkpt lat="43.40957" lon="1.66339">
        <ele>214.331429</ele>
        <time>2023-01-04T11:53:30.089Z</time>
      </trkpt>
      <trkpt lat="43.40948" lon="1.66348">
        <ele>214.345817</ele>
        <time>2023-01-04T11:53:32.085Z</time>
      </trkpt>
      <trkpt lat="43.40939" lon="1.66355">
        <ele>214.359265</ele>
        <time>2023-01-04T11:53:34.087Z</time>
      </trkpt>
      <trkpt lat="43.40929" lon="1.66365">
        <ele>214.374707</ele>
        <time>2023-01-04T11:53:37.079Z</time>
      </trkpt>
      <trkpt lat="43.40919" lon="1.66372">
        <ele>214.389241</ele>
        <time>2023-01-04T11:53:39.089Z</time>
      </trkpt>
      <trkpt lat="43.4091" lon="1.6638">
        <ele>214.403018</ele>
        <time>2023-01-04T11:53:41.077Z</time>
      </trkpt>
      <trkpt lat="43.40903" lon="1.66388">
        <ele>214.4151</ele>
        <time>2023-01-04T11:53:43.077Z</time>
      </trkpt>
      <trkpt lat="43.40893" lon="1.66396">
        <ele>214.42949</ele>
        <time>2023-01-04T11:53:45.087Z</time>
      </trkpt>
      <trkpt lat="43.40884" lon="1.66403">
        <ele>214.442654</ele>
        <time>2023-01-04T11:53:47.085Z</time>
      </trkpt>
      <trkpt lat="43.40873" lon="1.66412">
        <ele>214.459498</ele>
        <time>2023-01-04T11:53:49.083Z</time>
      </trkpt>
      <trkpt lat="43.40863" lon="1.66421">
        <ele>214.474149</ele>
        <time>2023-01-04T11:53:51.069Z</time>
      </trkpt>
      <trkpt lat="43.40855" lon="1.66429">
        <ele>214.487271</ele>
        <time>2023-01-04T11:53:53.087Z</time>
      </trkpt>
      <trkpt lat="43.40846" lon="1.66435">
        <ele>214.499352</ele>
        <time>2023-01-04T11:53:55.067Z</time>
      </trkpt>
      <trkpt lat="43.40838" lon="1.66443">
        <ele>214.512416</ele>
        <time>2023-01-04T11:53:57.096Z</time>
      </trkpt>
      <trkpt lat="43.40829" lon="1.6645">
        <ele>214.454761</ele>
        <time>2023-01-04T11:53:59.081Z</time>
      </trkpt>
      <trkpt lat="43.4082" lon="1.66458">
        <ele>214.328352</ele>
        <time>2023-01-04T11:54:01.089Z</time>
      </trkpt>
      <trkpt lat="43.40812" lon="1.66464">
        <ele>214.20978</ele>
        <time>2023-01-04T11:54:03.061Z</time>
      </trkpt>
      <trkpt lat="43.40802" lon="1.66472">
        <ele>214.075741</ele>
        <time>2023-01-04T11:54:05.087Z</time>
      </trkpt>
      <trkpt lat="43.40793" lon="1.66478">
        <ele>213.950072</ele>
        <time>2023-01-04T11:54:07.089Z</time>
      </trkpt>
      <trkpt lat="43.40781" lon="1.66486">
        <ele>213.796754</ele>
        <time>2023-01-04T11:54:09.078Z</time>
      </trkpt>
      <trkpt lat="43.40771" lon="1.66494">
        <ele>213.65353</ele>
        <time>2023-01-04T11:54:11.081Z</time>
      </trkpt>
      <trkpt lat="43.4076" lon="1.66502">
        <ele>213.499473</ele>
        <time>2023-01-04T11:54:13.082Z</time>
      </trkpt>
      <trkpt lat="43.40751" lon="1.66508">
        <ele>213.378189</ele>
        <time>2023-01-04T11:54:15.079Z</time>
      </trkpt>
      <trkpt lat="43.40739" lon="1.66518">
        <ele>213.209852</ele>
        <time>2023-01-04T11:54:18.091Z</time>
      </trkpt>
      <trkpt lat="43.4073" lon="1.66523">
        <ele>213.097392</ele>
        <time>2023-01-04T11:54:20.083Z</time>
      </trkpt>
      <trkpt lat="43.40722" lon="1.66529">
        <ele>212.98015</ele>
        <time>2023-01-04T11:54:22.087Z</time>
      </trkpt>
      <trkpt lat="43.40713" lon="1.66533">
        <ele>212.864015</ele>
        <time>2023-01-04T11:54:24.086Z</time>
      </trkpt>
      <trkpt lat="43.40701" lon="1.66539">
        <ele>212.706285</ele>
        <time>2023-01-04T11:54:27.087Z</time>
      </trkpt>
      <trkpt lat="43.40691" lon="1.66543">
        <ele>212.586954</ele>
        <time>2023-01-04T11:54:29.069Z</time>
      </trkpt>
      <trkpt lat="43.40682" lon="1.66549">
        <ele>212.464084</ele>
        <time>2023-01-04T11:54:31.089Z</time>
      </trkpt>
      <trkpt lat="43.40671" lon="1.66553">
        <ele>212.340285</ele>
        <time>2023-01-04T11:54:33.080Z</time>
      </trkpt>
      <trkpt lat="43.40662" lon="1.66557">
        <ele>212.361643</ele>
        <time>2023-01-04T11:54:35.082Z</time>
      </trkpt>
      <trkpt lat="43.40653" lon="1.66562">
        <ele>212.382559</ele>
        <time>2023-01-04T11:54:37.088Z</time>
      </trkpt>
      <trkpt lat="43.4064" lon="1.66569">
        <ele>212.414919</ele>
        <time>2023-01-04T11:54:40.089Z</time>
      </trkpt>
      <trkpt lat="43.40626" lon="1.66575">
        <ele>212.447349</ele>
        <time>2023-01-04T11:54:43.087Z</time>
      </trkpt>
      <trkpt lat="43.40617" lon="1.66582">
        <ele>212.471079</ele>
        <time>2023-01-04T11:54:45.066Z</time>
      </trkpt>
      <trkpt lat="43.40605" lon="1.66589">
        <ele>212.499783</ele>
        <time>2023-01-04T11:54:47.084Z</time>
      </trkpt>
      <trkpt lat="43.40595" lon="1.66596">
        <ele>212.526117</ele>
        <time>2023-01-04T11:54:49.087Z</time>
      </trkpt>
      <trkpt lat="43.40582" lon="1.66605">
        <ele>212.557036</ele>
        <time>2023-01-04T11:54:51.082Z</time>
      </trkpt>
      <trkpt lat="43.40573" lon="1.66611">
        <ele>212.580549</ele>
        <time>2023-01-04T11:54:53.075Z</time>
      </trkpt>
      <trkpt lat="43.40563" lon="1.66618">
        <ele>212.606795</ele>
        <time>2023-01-04T11:54:55.077Z</time>
      </trkpt>
      <trkpt lat="43.40555" lon="1.66624">
        <ele>212.627154</ele>
        <time>2023-01-04T11:54:57.088Z</time>
      </trkpt>
      <trkpt lat="43.40546" lon="1.6663">
        <ele>212.650391</ele>
        <time>2023-01-04T11:54:59.089Z</time>
      </trkpt>
      <trkpt lat="43.40533" lon="1.6664">
        <ele>212.682245</ele>
        <time>2023-01-04T11:55:02.094Z</time>
      </trkpt>
      <trkpt lat="43.40525" lon="1.66647">
        <ele>212.704552</ele>
        <time>2023-01-04T11:55:04.071Z</time>
      </trkpt>
      <trkpt lat="43.40514" lon="1.66655">
        <ele>212.731113</ele>
        <time>2023-01-04T11:55:06.074Z</time>
      </trkpt>
      <trkpt lat="43.40503" lon="1.66666">
        <ele>213.139454</ele>
        <time>2023-01-04T11:55:08.069Z</time>
      </trkpt>
      <trkpt lat="43.40494" lon="1.66676">
        <ele>213.697247</ele>
        <time>2023-01-04T11:55:10.077Z</time>
      </trkpt>
      <trkpt lat="43.40486" lon="1.66684">
        <ele>214.188109</ele>
        <time>2023-01-04T11:55:12.091Z</time>
      </trkpt>
      <trkpt lat="43.40475" lon="1.66695">
        <ele>214.839473</ele>
        <time>2023-01-04T11:55:15.065Z</time>
      </trkpt>
      <trkpt lat="43.40467" lon="1.66705">
        <ele>215.376296</ele>
        <time>2023-01-04T11:55:17.088Z</time>
      </trkpt>
      <trkpt lat="43.40458" lon="1.66715">
        <ele>215.961704</ele>
        <time>2023-01-04T11:55:19.077Z</time>
      </trkpt>
      <trkpt lat="43.40448" lon="1.66727">
        <ele>216.58644</ele>
        <time>2023-01-04T11:55:22.085Z</time>
      </trkpt>
      <trkpt lat="43.4044" lon="1.66739">
        <ele>217.127433</ele>
        <time>2023-01-04T11:55:24.084Z</time>
      </trkpt>
      <trkpt lat="43.40432" lon="1.66753">
        <ele>217.772991</ele>
        <time>2023-01-04T11:55:27.079Z</time>
      </trkpt>
      <trkpt lat="43.40425" lon="1.66763">
        <ele>218.279418</ele>
        <time>2023-01-04T11:55:29.090Z</time>
      </trkpt>
      <trkpt lat="43.40418" lon="1.66775">
        <ele>218.802606</ele>
        <time>2023-01-04T11:55:31.064Z</time>
      </trkpt>
      <trkpt lat="43.40412" lon="1.66785">
        <ele>219.270806</ele>
        <time>2023-01-04T11:55:33.080Z</time>
      </trkpt>
      <trkpt lat="43.40407" lon="1.66797">
        <ele>219.752236</ele>
        <time>2023-01-04T11:55:35.080Z</time>
      </trkpt>
      <trkpt lat="43.40403" lon="1.66813">
        <ele>220.365174</ele>
        <time>2023-01-04T11:55:38.069Z</time>
      </trkpt>
      <trkpt lat="43.40396" lon="1.66825">
        <ele>220.891043</ele>
        <time>2023-01-04T11:55:41.063Z</time>
      </trkpt>
      <trkpt lat="43.40391" lon="1.66838">
        <ele>221.383876</ele>
        <time>2023-01-04T11:55:43.067Z</time>
      </trkpt>
      <trkpt lat="43.40386" lon="1.66849">
        <ele>221.631481</ele>
        <time>2023-01-04T11:55:45.087Z</time>
      </trkpt>
      <trkpt lat="43.40382" lon="1.66861">
        <ele>221.826838</ele>
        <time>2023-01-04T11:55:47.092Z</time>
      </trkpt>
      <trkpt lat="43.40374" lon="1.66876">
        <ele>222.121203</ele>
        <time>2023-01-04T11:55:50.090Z</time>
      </trkpt>
      <trkpt lat="43.40368" lon="1.66886">
        <ele>222.327895</ele>
        <time>2023-01-04T11:55:52.083Z</time>
      </trkpt>
      <trkpt lat="43.40363" lon="1.66901">
        <ele>222.58373</ele>
        <time>2023-01-04T11:55:55.088Z</time>
      </trkpt>
      <trkpt lat="43.40356" lon="1.66917">
        <ele>222.870317</ele>
        <time>2023-01-04T11:55:58.082Z</time>
      </trkpt>
      <trkpt lat="43.40352" lon="1.66928">
        <ele>223.069919</ele>
        <time>2023-01-04T11:56:00.081Z</time>
      </trkpt>
      <trkpt lat="43.40346" lon="1.66943">
        <ele>223.345613</ele>
        <time>2023-01-04T11:56:03.088Z</time>
      </trkpt>
      <trkpt lat="43.40343" lon="1.66956">
        <ele>223.557353</ele>
        <time>2023-01-04T11:56:06.089Z</time>
      </trkpt>
      <trkpt lat="43.40336" lon="1.6697">
        <ele>223.805168</ele>
        <time>2023-01-04T11:56:08.084Z</time>
      </trkpt>
      <trkpt lat="43.40332" lon="1.66986">
        <ele>224.077571</ele>
        <time>2023-01-04T11:56:11.091Z</time>
      </trkpt>
      <trkpt lat="43.40328" lon="1.66997">
        <ele>224.272274</ele>
        <time>2023-01-04T11:56:13.093Z</time>
      </trkpt>
      <trkpt lat="43.40323" lon="1.67016">
        <ele>224.576891</ele>
        <time>2023-01-04T11:56:16.086Z</time>
      </trkpt>
      <trkpt lat="43.40316" lon="1.6703">
        <ele>224.846397</ele>
        <time>2023-01-04T11:56:18.090Z</time>
      </trkpt>
      <trkpt lat="43.40314" lon="1.67044">
        <ele>225.069026</ele>
        <time>2023-01-04T11:56:20.083Z</time>
      </trkpt>
      <trkpt lat="43.4031" lon="1.67057">
        <ele>225.290664</ele>
        <time>2023-01-04T11:56:22.088Z</time>
      </trkpt>
      <trkpt lat="43.40305" lon="1.67068">
        <ele>225.633058</ele>
        <time>2023-01-04T11:56:24.078Z</time>
      </trkpt>
      <trkpt lat="43.403" lon="1.67083">
        <ele>226.058541</ele>
        <time>2023-01-04T11:56:27.079Z</time>
      </trkpt>
      <trkpt lat="43.40297" lon="1.67096">
        <ele>226.447448</ele>
        <time>2023-01-04T11:56:29.094Z</time>
      </trkpt>
      <trkpt lat="43.40292" lon="1.67112">
        <ele>226.89759</ele>
        <time>2023-01-04T11:56:31.087Z</time>
      </trkpt>
      <trkpt lat="43.40286" lon="1.67128">
        <ele>227.389971</ele>
        <time>2023-01-04T11:56:33.081Z</time>
      </trkpt>
      <trkpt lat="43.40278" lon="1.67146">
        <ele>227.9672</ele>
        <time>2023-01-04T11:56:36.085Z</time>
      </trkpt>
      <trkpt lat="43.40272" lon="1.6716">
        <ele>228.403417</ele>
        <time>2023-01-04T11:56:39.081Z</time>
      </trkpt>
      <trkpt lat="43.40266" lon="1.67173">
        <ele>228.808009</ele>
        <time>2023-01-04T11:56:41.085Z</time>
      </trkpt>
      <trkpt lat="43.40261" lon="1.67186">
        <ele>229.187964</ele>
        <time>2023-01-04T11:56:43.080Z</time>
      </trkpt>
      <trkpt lat="43.40255" lon="1.67201">
        <ele>229.646161</ele>
        <time>2023-01-04T11:56:45.090Z</time>
      </trkpt>
      <trkpt lat="43.40248" lon="1.67219">
        <ele>230.196635</ele>
        <time>2023-01-04T11:56:48.088Z</time>
      </trkpt>
      <trkpt lat="43.40244" lon="1.67231">
        <ele>230.558728</ele>
        <time>2023-01-04T11:56:50.088Z</time>
      </trkpt>
      <trkpt lat="43.40241" lon="1.67244">
        <ele>230.943895</ele>
        <time>2023-01-04T11:56:52.071Z</time>
      </trkpt>
      <trkpt lat="43.40235" lon="1.6726">
        <ele>231.416949</ele>
        <time>2023-01-04T11:56:54.079Z</time>
      </trkpt>
      <trkpt lat="43.40233" lon="1.67273">
        <ele>231.752614</ele>
        <time>2023-01-04T11:56:56.090Z</time>
      </trkpt>
      <trkpt lat="43.4023" lon="1.67285">
        <ele>231.925101</ele>
        <time>2023-01-04T11:56:58.081Z</time>
      </trkpt>
      <trkpt lat="43.40225" lon="1.673">
        <ele>231.832891</ele>
        <time>2023-01-04T11:57:01.080Z</time>
      </trkpt>
      <trkpt lat="43.40221" lon="1.67315">
        <ele>231.749394</ele>
        <time>2023-01-04T11:57:03.084Z</time>
      </trkpt>
      <trkpt lat="43.40219" lon="1.6733">
        <ele>231.665863</ele>
        <time>2023-01-04T11:57:05.079Z</time>
      </trkpt>
      <trkpt lat="43.40215" lon="1.67343">
        <ele>231.590274</ele>
        <time>2023-01-04T11:57:08.082Z</time>
      </trkpt>
      <trkpt lat="43.40211" lon="1.67358">
        <ele>231.500352</ele>
        <time>2023-01-04T11:57:10.076Z</time>
      </trkpt>
      <trkpt lat="43.40206" lon="1.67372">
        <ele>231.418189</ele>
        <time>2023-01-04T11:57:12.089Z</time>
      </trkpt>
      <trkpt lat="43.40203" lon="1.67384">
        <ele>231.347024</ele>
        <time>2023-01-04T11:57:14.091Z</time>
      </trkpt>
      <trkpt lat="43.402" lon="1.67398">
        <ele>231.265379</ele>
        <time>2023-01-04T11:57:16.081Z</time>
      </trkpt>
      <trkpt lat="43.40194" lon="1.67413">
        <ele>231.173099</ele>
        <time>2023-01-04T11:57:18.078Z</time>
      </trkpt>
      <trkpt lat="43.40187" lon="1.6743">
        <ele>231.062809</ele>
        <time>2023-01-04T11:57:20.089Z</time>
      </trkpt>
      <trkpt lat="43.40181" lon="1.67444">
        <ele>230.976506</ele>
        <time>2023-01-04T11:57:22.081Z</time>
      </trkpt>
      <trkpt lat="43.40178" lon="1.67456">
        <ele>230.905578</ele>
        <time>2023-01-04T11:57:24.091Z</time>
      </trkpt>
      <trkpt lat="43.40174" lon="1.67467">
        <ele>230.836195</ele>
        <time>2023-01-04T11:57:26.079Z</time>
      </trkpt>
      <trkpt lat="43.40169" lon="1.67482">
        <ele>230.745013</ele>
        <time>2023-01-04T11:57:29.086Z</time>
      </trkpt>
      <trkpt lat="43.40162" lon="1.67496">
        <ele>230.656315</ele>
        <time>2023-01-04T11:57:31.082Z</time>
      </trkpt>
      <trkpt lat="43.40159" lon="1.6751">
        <ele>230.554382</ele>
        <time>2023-01-04T11:57:33.087Z</time>
      </trkpt>
      <trkpt lat="43.40153" lon="1.67524">
        <ele>230.371294</ele>
        <time>2023-01-04T11:57:36.088Z</time>
      </trkpt>
      <trkpt lat="43.40147" lon="1.67535">
        <ele>230.228189</ele>
        <time>2023-01-04T11:57:38.076Z</time>
      </trkpt>
      <trkpt lat="43.4014" lon="1.67548">
        <ele>230.050813</ele>
        <time>2023-01-04T11:57:40.079Z</time>
      </trkpt>
      <trkpt lat="43.40135" lon="1.67559">
        <ele>229.904251</ele>
        <time>2023-01-04T11:57:42.085Z</time>
      </trkpt>
      <trkpt lat="43.40128" lon="1.67571">
        <ele>229.746066</ele>
        <time>2023-01-04T11:57:44.064Z</time>
      </trkpt>
      <trkpt lat="43.40123" lon="1.67583">
        <ele>229.591309</ele>
        <time>2023-01-04T11:57:46.084Z</time>
      </trkpt>
      <trkpt lat="43.40117" lon="1.67594">
        <ele>229.440249</ele>
        <time>2023-01-04T11:57:48.084Z</time>
      </trkpt>
      <trkpt lat="43.40112" lon="1.67608">
        <ele>229.273296</ele>
        <time>2023-01-04T11:57:50.085Z</time>
      </trkpt>
      <trkpt lat="43.40105" lon="1.67621">
        <ele>229.103077</ele>
        <time>2023-01-04T11:57:52.097Z</time>
      </trkpt>
      <trkpt lat="43.401" lon="1.67632">
        <ele>228.959028</ele>
        <time>2023-01-04T11:57:54.084Z</time>
      </trkpt>
      <trkpt lat="43.40091" lon="1.6765">
        <ele>228.715104</ele>
        <time>2023-01-04T11:57:57.091Z</time>
      </trkpt>
      <trkpt lat="43.40085" lon="1.67662">
        <ele>228.561422</ele>
        <time>2023-01-04T11:57:59.079Z</time>
      </trkpt>
      <trkpt lat="43.40079" lon="1.67672">
        <ele>228.416074</ele>
        <time>2023-01-04T11:58:01.079Z</time>
      </trkpt>
      <trkpt lat="43.40073" lon="1.67683">
        <ele>228.271112</ele>
        <time>2023-01-04T11:58:03.082Z</time>
      </trkpt>
      <trkpt lat="43.40068" lon="1.67697">
        <ele>228.10667</ele>
        <time>2023-01-04T11:58:05.070Z</time>
      </trkpt>
      <trkpt lat="43.4006" lon="1.6771">
        <ele>227.924762</ele>
        <time>2023-01-04T11:58:07.087Z</time>
      </trkpt>
      <trkpt lat="43.40055" lon="1.6772">
        <ele>227.921962</ele>
        <time>2023-01-04T11:58:09.071Z</time>
      </trkpt>
      <trkpt lat="43.40049" lon="1.67732">
        <ele>227.925245</ele>
        <time>2023-01-04T11:58:11.081Z</time>
      </trkpt>
      <trkpt lat="43.40043" lon="1.67745">
        <ele>227.928818</ele>
        <time>2023-01-04T11:58:13.090Z</time>
      </trkpt>
      <trkpt lat="43.40035" lon="1.6776">
        <ele>227.933293</ele>
        <time>2023-01-04T11:58:16.080Z</time>
      </trkpt>
      <trkpt lat="43.40029" lon="1.6777">
        <ele>227.936389</ele>
        <time>2023-01-04T11:58:18.092Z</time>
      </trkpt>
      <trkpt lat="43.40022" lon="1.67786">
        <ele>227.940702</ele>
        <time>2023-01-04T11:58:21.090Z</time>
      </trkpt>
      <trkpt lat="43.40016" lon="1.67797">
        <ele>227.943854</ele>
        <time>2023-01-04T11:58:23.068Z</time>
      </trkpt>
      <trkpt lat="43.4001" lon="1.67807">
        <ele>227.946897</ele>
        <time>2023-01-04T11:58:25.082Z</time>
      </trkpt>
      <trkpt lat="43.40003" lon="1.67822">
        <ele>227.95109</ele>
        <time>2023-01-04T11:58:28.082Z</time>
      </trkpt>
      <trkpt lat="43.39997" lon="1.67832">
        <ele>227.954097</ele>
        <time>2023-01-04T11:58:30.090Z</time>
      </trkpt>
      <trkpt lat="43.39989" lon="1.67844">
        <ele>227.957758</ele>
        <time>2023-01-04T11:58:32.096Z</time>
      </trkpt>
      <trkpt lat="43.39984" lon="1.67855">
        <ele>227.960937</ele>
        <time>2023-01-04T11:58:34.095Z</time>
      </trkpt>
      <trkpt lat="43.39977" lon="1.67865">
        <ele>227.964238</ele>
        <time>2023-01-04T11:58:36.092Z</time>
      </trkpt>
      <trkpt lat="43.39971" lon="1.67876">
        <ele>227.967276</ele>
        <time>2023-01-04T11:58:38.092Z</time>
      </trkpt>
      <trkpt lat="43.39963" lon="1.6789">
        <ele>227.971516</ele>
        <time>2023-01-04T11:58:41.081Z</time>
      </trkpt>
      <trkpt lat="43.39956" lon="1.67898">
        <ele>227.974506</ele>
        <time>2023-01-04T11:58:43.081Z</time>
      </trkpt>
      <trkpt lat="43.39946" lon="1.6791">
        <ele>227.948997</ele>
        <time>2023-01-04T11:58:46.078Z</time>
      </trkpt>
      <trkpt lat="43.39937" lon="1.67922">
        <ele>227.883834</ele>
        <time>2023-01-04T11:58:49.091Z</time>
      </trkpt>
      <trkpt lat="43.39929" lon="1.67929">
        <ele>227.83798</ele>
        <time>2023-01-04T11:58:51.084Z</time>
      </trkpt>
      <trkpt lat="43.39919" lon="1.6794">
        <ele>227.773055</ele>
        <time>2023-01-04T11:58:54.082Z</time>
      </trkpt>
      <trkpt lat="43.3991" lon="1.67949">
        <ele>227.714048</ele>
        <time>2023-01-04T11:58:57.082Z</time>
      </trkpt>
      <trkpt lat="43.39899" lon="1.67953">
        <ele>227.659996</ele>
        <time>2023-01-04T11:59:00.083Z</time>
      </trkpt>
      <trkpt lat="43.39889" lon="1.67956">
        <ele>227.605332</ele>
        <time>2023-01-04T11:59:04.088Z</time>
      </trkpt>
      <trkpt lat="43.3988" lon="1.67961">
        <ele>227.558878</ele>
        <time>2023-01-04T11:59:12.090Z</time>
      </trkpt>
      <trkpt lat="43.39871" lon="1.67967">
        <ele>227.508438</ele>
        <time>2023-01-04T11:59:17.090Z</time>
      </trkpt>
      <trkpt lat="43.39861" lon="1.67971">
        <ele>227.453014</ele>
        <time>2023-01-04T11:59:21.079Z</time>
      </trkpt>
      <trkpt lat="43.39851" lon="1.67977">
        <ele>227.399972</ele>
        <time>2023-01-04T11:59:25.080Z</time>
      </trkpt>
      <trkpt lat="43.39842" lon="1.67982">
        <ele>227.349975</ele>
        <time>2023-01-04T11:59:29.067Z</time>
      </trkpt>
      <trkpt lat="43.39834" lon="1.6799">
        <ele>227.300997</ele>
        <time>2023-01-04T11:59:32.089Z</time>
      </trkpt>
      <trkpt lat="43.39827" lon="1.68001">
        <ele>227.246167</ele>
        <time>2023-01-04T11:59:36.091Z</time>
      </trkpt>
      <trkpt lat="43.3982" lon="1.68013">
        <ele>227.187974</ele>
        <time>2023-01-04T11:59:40.091Z</time>
      </trkpt>
      <trkpt lat="43.39813" lon="1.68026">
        <ele>227.129975</ele>
        <time>2023-01-04T11:59:44.090Z</time>
      </trkpt>
      <trkpt lat="43.39806" lon="1.68037">
        <ele>227.076598</ele>
        <time>2023-01-04T11:59:48.086Z</time>
      </trkpt>
      <trkpt lat="43.39799" lon="1.68052">
        <ele>227.140248</ele>
        <time>2023-01-04T11:59:52.090Z</time>
      </trkpt>
      <trkpt lat="43.39794" lon="1.68065">
        <ele>227.213965</ele>
        <time>2023-01-04T11:59:55.080Z</time>
      </trkpt>
      <trkpt lat="43.39788" lon="1.68078">
        <ele>227.293185</ele>
        <time>2023-01-04T11:59:58.068Z</time>
      </trkpt>
      <trkpt lat="43.39782" lon="1.68092">
        <ele>227.373695</ele>
        <time>2023-01-04T12:00:01.080Z</time>
      </trkpt>
      <trkpt lat="43.39778" lon="1.68105">
        <ele>227.441252</ele>
        <time>2023-01-04T12:00:03.076Z</time>
      </trkpt>
      <trkpt lat="43.39775" lon="1.68121">
        <ele>227.525033</ele>
        <time>2023-01-04T12:00:06.082Z</time>
      </trkpt>
      <trkpt lat="43.39773" lon="1.68133">
        <ele>227.589621</ele>
        <time>2023-01-04T12:00:08.089Z</time>
      </trkpt>
      <trkpt lat="43.39769" lon="1.68145">
        <ele>227.654305</ele>
        <time>2023-01-04T12:00:12.078Z</time>
      </trkpt>
      <trkpt lat="43.39764" lon="1.6816">
        <ele>227.739341</ele>
        <time>2023-01-04T12:00:15.088Z</time>
      </trkpt>
      <trkpt lat="43.39759" lon="1.68177">
        <ele>227.827747</ele>
        <time>2023-01-04T12:00:18.089Z</time>
      </trkpt>
      <trkpt lat="43.39758" lon="1.6819">
        <ele>227.890166</ele>
        <time>2023-01-04T12:00:20.091Z</time>
      </trkpt>
      <trkpt lat="43.39754" lon="1.68205">
        <ele>227.970133</ele>
        <time>2023-01-04T12:00:23.080Z</time>
      </trkpt>
      <trkpt lat="43.39751" lon="1.68217">
        <ele>228.035819</ele>
        <time>2023-01-04T12:00:25.077Z</time>
      </trkpt>
      <trkpt lat="43.39744" lon="1.68231">
        <ele>228.120199</ele>
        <time>2023-01-04T12:00:28.090Z</time>
      </trkpt>
      <trkpt lat="43.3974" lon="1.68248">
        <ele>228.211946</ele>
        <time>2023-01-04T12:00:31.094Z</time>
      </trkpt>
      <trkpt lat="43.39733" lon="1.68261">
        <ele>228.291166</ele>
        <time>2023-01-04T12:00:33.081Z</time>
      </trkpt>
      <trkpt lat="43.39727" lon="1.68272">
        <ele>228.125992</ele>
        <time>2023-01-04T12:00:35.089Z</time>
      </trkpt>
      <trkpt lat="43.3972" lon="1.68282">
        <ele>227.89783</ele>
        <time>2023-01-04T12:00:38.090Z</time>
      </trkpt>
      <trkpt lat="43.39712" lon="1.68294">
        <ele>227.637921</ele>
        <time>2023-01-04T12:00:41.084Z</time>
      </trkpt>
      <trkpt lat="43.39703" lon="1.68305">
        <ele>227.396439</ele>
        <time>2023-01-04T12:00:43.090Z</time>
      </trkpt>
      <trkpt lat="43.39695" lon="1.68316">
        <ele>227.142905</ele>
        <time>2023-01-04T12:00:46.093Z</time>
      </trkpt>
      <trkpt lat="43.39685" lon="1.68324">
        <ele>226.881502</ele>
        <time>2023-01-04T12:00:49.086Z</time>
      </trkpt>
      <trkpt lat="43.39674" lon="1.6833">
        <ele>226.643557</ele>
        <time>2023-01-04T12:00:52.063Z</time>
      </trkpt>
      <trkpt lat="43.39666" lon="1.68336">
        <ele>226.447871</ele>
        <time>2023-01-04T12:00:54.065Z</time>
      </trkpt>
      <trkpt lat="43.39656" lon="1.68344">
        <ele>226.189688</ele>
        <time>2023-01-04T12:00:56.078Z</time>
      </trkpt>
      <trkpt lat="43.39646" lon="1.68352">
        <ele>225.937655</ele>
        <time>2023-01-04T12:00:58.080Z</time>
      </trkpt>
      <trkpt lat="43.39636" lon="1.68356">
        <ele>225.720001</ele>
        <time>2023-01-04T12:01:00.079Z</time>
      </trkpt>
      <trkpt lat="43.39628" lon="1.68366">
        <ele>225.486854</ele>
        <time>2023-01-04T12:01:02.084Z</time>
      </trkpt>
      <trkpt lat="43.39619" lon="1.68372">
        <ele>225.266243</ele>
        <time>2023-01-04T12:01:04.088Z</time>
      </trkpt>
      <trkpt lat="43.3961" lon="1.68379">
        <ele>225.051299</ele>
        <time>2023-01-04T12:01:06.079Z</time>
      </trkpt>
      <trkpt lat="43.39603" lon="1.68388">
        <ele>224.842069</ele>
        <time>2023-01-04T12:01:08.087Z</time>
      </trkpt>
      <trkpt lat="43.39594" lon="1.68397">
        <ele>224.608314</ele>
        <time>2023-01-04T12:01:10.063Z</time>
      </trkpt>
      <trkpt lat="43.39585" lon="1.68412">
        <ele>224.524809</ele>
        <time>2023-01-04T12:01:13.089Z</time>
      </trkpt>
      <trkpt lat="43.3958" lon="1.68422">
        <ele>224.698446</ele>
        <time>2023-01-04T12:01:15.082Z</time>
      </trkpt>
      <trkpt lat="43.39575" lon="1.68434">
        <ele>224.881747</ele>
        <time>2023-01-04T12:01:17.090Z</time>
      </trkpt>
      <trkpt lat="43.39572" lon="1.68445">
        <ele>225.055321</ele>
        <time>2023-01-04T12:01:19.084Z</time>
      </trkpt>
      <trkpt lat="43.39571" lon="1.68461">
        <ele>225.267094</ele>
        <time>2023-01-04T12:01:22.080Z</time>
      </trkpt>
      <trkpt lat="43.39573" lon="1.6848">
        <ele>225.531201</ele>
        <time>2023-01-04T12:01:25.067Z</time>
      </trkpt>
      <trkpt lat="43.39572" lon="1.68496">
        <ele>225.761883</ele>
        <time>2023-01-04T12:01:27.086Z</time>
      </trkpt>
      <trkpt lat="43.39573" lon="1.68511">
        <ele>225.969568</ele>
        <time>2023-01-04T12:01:29.088Z</time>
      </trkpt>
      <trkpt lat="43.39574" lon="1.68526">
        <ele>226.174282</ele>
        <time>2023-01-04T12:01:31.080Z</time>
      </trkpt>
      <trkpt lat="43.39576" lon="1.68544">
        <ele>226.431299</ele>
        <time>2023-01-04T12:01:34.090Z</time>
      </trkpt>
      <trkpt lat="43.39579" lon="1.6856">
        <ele>226.663599</ele>
        <time>2023-01-04T12:01:37.082Z</time>
      </trkpt>
      <trkpt lat="43.3958" lon="1.68573">
        <ele>226.839009</ele>
        <time>2023-01-04T12:01:39.077Z</time>
      </trkpt>
      <trkpt lat="43.3958" lon="1.68588">
        <ele>227.041096</ele>
        <time>2023-01-04T12:01:41.068Z</time>
      </trkpt>
      <trkpt lat="43.39581" lon="1.68604">
        <ele>227.272334</ele>
        <time>2023-01-04T12:01:43.080Z</time>
      </trkpt>
      <trkpt lat="43.39578" lon="1.68622">
        <ele>227.521272</ele>
        <time>2023-01-04T12:01:46.088Z</time>
      </trkpt>
      <trkpt lat="43.39576" lon="1.6864">
        <ele>227.779335</ele>
        <time>2023-01-04T12:01:49.090Z</time>
      </trkpt>
      <trkpt lat="43.39575" lon="1.68654">
        <ele>227.79609</ele>
        <time>2023-01-04T12:01:51.089Z</time>
      </trkpt>
      <trkpt lat="43.39574" lon="1.68671">
        <ele>227.697751</ele>
        <time>2023-01-04T12:01:54.086Z</time>
      </trkpt>
      <trkpt lat="43.39573" lon="1.68685">
        <ele>227.617407</ele>
        <time>2023-01-04T12:01:56.078Z</time>
      </trkpt>
      <trkpt lat="43.3957" lon="1.68699">
        <ele>227.527004</ele>
        <time>2023-01-04T12:01:58.080Z</time>
      </trkpt>
      <trkpt lat="43.39568" lon="1.68712">
        <ele>227.448313</ele>
        <time>2023-01-04T12:02:00.077Z</time>
      </trkpt>
      <trkpt lat="43.39564" lon="1.68724">
        <ele>227.37254</ele>
        <time>2023-01-04T12:02:02.081Z</time>
      </trkpt>
      <trkpt lat="43.39563" lon="1.6874">
        <ele>227.279227</ele>
        <time>2023-01-04T12:02:05.089Z</time>
      </trkpt>
      <trkpt lat="43.3956" lon="1.68755">
        <ele>227.182067</ele>
        <time>2023-01-04T12:02:08.087Z</time>
      </trkpt>
      <trkpt lat="43.39553" lon="1.68773">
        <ele>227.065903</ele>
        <time>2023-01-04T12:02:11.081Z</time>
      </trkpt>
      <trkpt lat="43.39548" lon="1.68785">
        <ele>226.980623</ele>
        <time>2023-01-04T12:02:13.082Z</time>
      </trkpt>
      <trkpt lat="43.39541" lon="1.68798">
        <ele>226.886259</ele>
        <time>2023-01-04T12:02:15.080Z</time>
      </trkpt>
      <trkpt lat="43.39534" lon="1.68808">
        <ele>226.802166</ele>
        <time>2023-01-04T12:02:17.080Z</time>
      </trkpt>
      <trkpt lat="43.39526" lon="1.68815">
        <ele>226.722266</ele>
        <time>2023-01-04T12:02:19.080Z</time>
      </trkpt>
      <trkpt lat="43.39517" lon="1.6882">
        <ele>226.643617</ele>
        <time>2023-01-04T12:02:21.090Z</time>
      </trkpt>
      <trkpt lat="43.39505" lon="1.68825">
        <ele>226.542234</ele>
        <time>2023-01-04T12:02:23.086Z</time>
      </trkpt>
      <trkpt lat="43.39495" lon="1.68827">
        <ele>226.465241</ele>
        <time>2023-01-04T12:02:24.085Z</time>
      </trkpt>
      <trkpt lat="43.39484" lon="1.68827">
        <ele>226.385882</ele>
        <time>2023-01-04T12:02:27.066Z</time>
      </trkpt>
      <trkpt lat="43.39472" lon="1.68825">
        <ele>226.402298</ele>
        <time>2023-01-04T12:02:29.090Z</time>
      </trkpt>
      <trkpt lat="43.39461" lon="1.68823">
        <ele>226.416475</ele>
        <time>2023-01-04T12:02:31.092Z</time>
      </trkpt>
      <trkpt lat="43.3945" lon="1.68821">
        <ele>226.431433</ele>
        <time>2023-01-04T12:02:33.078Z</time>
      </trkpt>
      <trkpt lat="43.3944" lon="1.68819">
        <ele>226.445161</ele>
        <time>2023-01-04T12:02:35.069Z</time>
      </trkpt>
      <trkpt lat="43.3943" lon="1.68817">
        <ele>226.458371</ele>
        <time>2023-01-04T12:02:37.060Z</time>
      </trkpt>
      <trkpt lat="43.39419" lon="1.68815">
        <ele>226.474223</ele>
        <time>2023-01-04T12:02:40.068Z</time>
      </trkpt>
      <trkpt lat="43.39408" lon="1.68812">
        <ele>226.489075</ele>
        <time>2023-01-04T12:02:43.087Z</time>
      </trkpt>
      <trkpt lat="43.39397" lon="1.68809">
        <ele>226.503452</ele>
        <time>2023-01-04T12:02:45.078Z</time>
      </trkpt>
      <trkpt lat="43.39386" lon="1.68802">
        <ele>226.519955</ele>
        <time>2023-01-04T12:02:47.079Z</time>
      </trkpt>
      <trkpt lat="43.39376" lon="1.68799">
        <ele>226.533895</ele>
        <time>2023-01-04T12:02:49.086Z</time>
      </trkpt>
      <trkpt lat="43.39365" lon="1.68805">
        <ele>226.549581</ele>
        <time>2023-01-04T12:02:52.072Z</time>
      </trkpt>
      <trkpt lat="43.39361" lon="1.68816">
        <ele>226.561611</ele>
        <time>2023-01-04T12:02:55.092Z</time>
      </trkpt>
      <trkpt lat="43.39356" lon="1.68829">
        <ele>226.575745</ele>
        <time>2023-01-04T12:02:58.082Z</time>
      </trkpt>
      <trkpt lat="43.39352" lon="1.68843">
        <ele>226.59022</ele>
        <time>2023-01-04T12:03:02.077Z</time>
      </trkpt>
      <trkpt lat="43.39347" lon="1.68854">
        <ele>226.602408</ele>
        <time>2023-01-04T12:03:05.086Z</time>
      </trkpt>
      <trkpt lat="43.3934" lon="1.68864">
        <ele>226.616639</ele>
        <time>2023-01-04T12:03:08.090Z</time>
      </trkpt>
      <trkpt lat="43.39333" lon="1.68872">
        <ele>226.58182</ele>
        <time>2023-01-04T12:03:10.083Z</time>
      </trkpt>
      <trkpt lat="43.39328" lon="1.68883">
        <ele>226.46018</ele>
        <time>2023-01-04T12:03:12.090Z</time>
      </trkpt>
      <trkpt lat="43.39322" lon="1.68893">
        <ele>226.338024</ele>
        <time>2023-01-04T12:03:14.082Z</time>
      </trkpt>
      <trkpt lat="43.39316" lon="1.68908">
        <ele>226.171603</ele>
        <time>2023-01-04T12:03:17.089Z</time>
      </trkpt>
      <trkpt lat="43.39308" lon="1.68924">
        <ele>225.990755</ele>
        <time>2023-01-04T12:03:20.078Z</time>
      </trkpt>
      <trkpt lat="43.39304" lon="1.68935">
        <ele>225.872061</ele>
        <time>2023-01-04T12:03:22.092Z</time>
      </trkpt>
      <trkpt lat="43.393" lon="1.68947">
        <ele>225.747944</ele>
        <time>2023-01-04T12:03:24.088Z</time>
      </trkpt>
      <trkpt lat="43.39295" lon="1.68958">
        <ele>225.624541</ele>
        <time>2023-01-04T12:03:26.078Z</time>
      </trkpt>
      <trkpt lat="43.39291" lon="1.6897">
        <ele>225.495157</ele>
        <time>2023-01-04T12:03:28.080Z</time>
      </trkpt>
      <trkpt lat="43.39287" lon="1.68982">
        <ele>225.371864</ele>
        <time>2023-01-04T12:03:30.080Z</time>
      </trkpt>
      <trkpt lat="43.39284" lon="1.68999">
        <ele>225.199907</ele>
        <time>2023-01-04T12:03:33.090Z</time>
      </trkpt>
      <trkpt lat="43.3928" lon="1.69011">
        <ele>225.078886</ele>
        <time>2023-01-04T12:03:35.080Z</time>
      </trkpt>
      <trkpt lat="43.39278" lon="1.69024">
        <ele>224.953478</ele>
        <time>2023-01-04T12:03:37.087Z</time>
      </trkpt>
      <trkpt lat="43.39271" lon="1.69036">
        <ele>224.807288</ele>
        <time>2023-01-04T12:03:39.089Z</time>
      </trkpt>
      <trkpt lat="43.3926" lon="1.69052">
        <ele>224.60187</ele>
        <time>2023-01-04T12:03:42.090Z</time>
      </trkpt>
      <trkpt lat="43.39257" lon="1.69065">
        <ele>224.476248</ele>
        <time>2023-01-04T12:03:44.080Z</time>
      </trkpt>
      <trkpt lat="43.3925" lon="1.69076">
        <ele>224.327281</ele>
        <time>2023-01-04T12:03:46.091Z</time>
      </trkpt>
      <trkpt lat="43.39244" lon="1.69093">
        <ele>224.669071</ele>
        <time>2023-01-04T12:03:49.087Z</time>
      </trkpt>
      <trkpt lat="43.39239" lon="1.69106">
        <ele>225.134946</ele>
        <time>2023-01-04T12:03:53.080Z</time>
      </trkpt>
      <trkpt lat="43.39233" lon="1.69117">
        <ele>225.59231</ele>
        <time>2023-01-04T12:03:56.079Z</time>
      </trkpt>
      <trkpt lat="43.3923" lon="1.6913">
        <ele>226.01432</ele>
        <time>2023-01-04T12:03:59.091Z</time>
      </trkpt>
      <trkpt lat="43.39221" lon="1.69143">
        <ele>226.592039</ele>
        <time>2023-01-04T12:04:02.082Z</time>
      </trkpt>
      <trkpt lat="43.39212" lon="1.69154">
        <ele>227.146008</ele>
        <time>2023-01-04T12:04:05.089Z</time>
      </trkpt>
      <trkpt lat="43.39204" lon="1.69163">
        <ele>227.56851</ele>
        <time>2023-01-04T12:04:08.090Z</time>
      </trkpt>
      <trkpt lat="43.39197" lon="1.6917">
        <ele>227.978919</ele>
        <time>2023-01-04T12:04:12.090Z</time>
      </trkpt>
      <trkpt lat="43.39187" lon="1.69172">
        <ele>228.391952</ele>
        <time>2023-01-04T12:04:21.067Z</time>
      </trkpt>
      <trkpt lat="43.39179" lon="1.69182">
        <ele>228.896652</ele>
        <time>2023-01-04T12:04:43.082Z</time>
      </trkpt>
      <trkpt lat="43.39169" lon="1.69194">
        <ele>229.45921</ele>
        <time>2023-01-04T12:04:47.075Z</time>
      </trkpt>
      <trkpt lat="43.39161" lon="1.69206">
        <ele>230.002474</ele>
        <time>2023-01-04T12:04:50.088Z</time>
      </trkpt>
      <trkpt lat="43.39153" lon="1.69215">
        <ele>230.44287</ele>
        <time>2023-01-04T12:04:52.079Z</time>
      </trkpt>
      <trkpt lat="43.39144" lon="1.69226">
        <ele>230.975483</ele>
        <time>2023-01-04T12:04:55.089Z</time>
      </trkpt>
      <trkpt lat="43.39136" lon="1.69239">
        <ele>231.506747</ele>
        <time>2023-01-04T12:04:58.087Z</time>
      </trkpt>
      <trkpt lat="43.39131" lon="1.6925">
        <ele>231.918426</ele>
        <time>2023-01-04T12:05:00.084Z</time>
      </trkpt>
      <trkpt lat="43.39123" lon="1.69263">
        <ele>232.175228</ele>
        <time>2023-01-04T12:05:03.083Z</time>
      </trkpt>
      <trkpt lat="43.39117" lon="1.69273">
        <ele>232.150203</ele>
        <time>2023-01-04T12:05:06.070Z</time>
      </trkpt>
      <trkpt lat="43.3911" lon="1.69284">
        <ele>232.121057</ele>
        <time>2023-01-04T12:05:10.090Z</time>
      </trkpt>
      <trkpt lat="43.39102" lon="1.69293">
        <ele>232.093827</ele>
        <time>2023-01-04T12:05:14.071Z</time>
      </trkpt>
      <trkpt lat="43.39093" lon="1.69299">
        <ele>232.066384</ele>
        <time>2023-01-04T12:05:17.077Z</time>
      </trkpt>
      <trkpt lat="43.39083" lon="1.69308">
        <ele>232.035043</ele>
        <time>2023-01-04T12:05:20.082Z</time>
      </trkpt>
      <trkpt lat="43.39075" lon="1.69321">
        <ele>232.000832</ele>
        <time>2023-01-04T12:05:22.085Z</time>
      </trkpt>
      <trkpt lat="43.39068" lon="1.69331">
        <ele>231.975396</ele>
        <time>2023-01-04T12:05:24.083Z</time>
      </trkpt>
      <trkpt lat="43.39057" lon="1.69341">
        <ele>231.938532</ele>
        <time>2023-01-04T12:05:27.087Z</time>
      </trkpt>
      <trkpt lat="43.3905" lon="1.69351">
        <ele>231.911973</ele>
        <time>2023-01-04T12:05:29.070Z</time>
      </trkpt>
      <trkpt lat="43.3904" lon="1.69364">
        <ele>231.874675</ele>
        <time>2023-01-04T12:05:32.089Z</time>
      </trkpt>
      <trkpt lat="43.39031" lon="1.69374">
        <ele>231.843501</ele>
        <time>2023-01-04T12:05:34.081Z</time>
      </trkpt>
      <trkpt lat="43.39026" lon="1.69386">
        <ele>231.817565</ele>
        <time>2023-01-04T12:05:37.082Z</time>
      </trkpt>
      <trkpt lat="43.39023" lon="1.69401">
        <ele>231.785862</ele>
        <time>2023-01-04T12:05:41.080Z</time>
      </trkpt>
      <trkpt lat="43.39017" lon="1.69414">
        <ele>231.755642</ele>
        <time>2023-01-04T12:05:44.089Z</time>
      </trkpt>
      <trkpt lat="43.39007" lon="1.69425">
        <ele>231.720746</ele>
        <time>2023-01-04T12:05:47.090Z</time>
      </trkpt>
      <trkpt lat="43.39007" lon="1.69438">
        <ele>231.735388</ele>
        <time>2023-01-04T12:05:49.083Z</time>
      </trkpt>
      <trkpt lat="43.39003" lon="1.69457">
        <ele>231.811946</ele>
        <time>2023-01-04T12:05:52.082Z</time>
      </trkpt>
      <trkpt lat="43.39001" lon="1.69471">
        <ele>231.869756</ele>
        <time>2023-01-04T12:05:55.087Z</time>
      </trkpt>
      <trkpt lat="43.38998" lon="1.69488">
        <ele>231.938147</ele>
        <time>2023-01-04T12:05:58.077Z</time>
      </trkpt>
      <trkpt lat="43.38996" lon="1.69502">
        <ele>231.990118</ele>
        <time>2023-01-04T12:06:00.079Z</time>
      </trkpt>
      <trkpt lat="43.38992" lon="1.69518">
        <ele>232.0601</ele>
        <time>2023-01-04T12:06:02.084Z</time>
      </trkpt>
      <trkpt lat="43.38987" lon="1.69531">
        <ele>232.115367</ele>
        <time>2023-01-04T12:06:04.084Z</time>
      </trkpt>
      <trkpt lat="43.38985" lon="1.69545">
        <ele>232.172163</ele>
        <time>2023-01-04T12:06:06.086Z</time>
      </trkpt>
      <trkpt lat="43.38985" lon="1.69559">
        <ele>232.224137</ele>
        <time>2023-01-04T12:06:08.092Z</time>
      </trkpt>
      <trkpt lat="43.38985" lon="1.69572">
        <ele>232.275781</ele>
        <time>2023-01-04T12:06:10.086Z</time>
      </trkpt>
      <trkpt lat="43.38991" lon="1.69584">
        <ele>232.328844</ele>
        <time>2023-01-04T12:06:12.088Z</time>
      </trkpt>
      <trkpt lat="43.38992" lon="1.69597">
        <ele>232.382355</ele>
        <time>2023-01-04T12:06:14.079Z</time>
      </trkpt>
      <trkpt lat="43.38996" lon="1.69612">
        <ele>232.44442</ele>
        <time>2023-01-04T12:06:17.083Z</time>
      </trkpt>
      <trkpt lat="43.39004" lon="1.69626">
        <ele>232.511556</ele>
        <time>2023-01-04T12:06:20.084Z</time>
      </trkpt>
      <trkpt lat="43.3901" lon="1.69637">
        <ele>232.564572</ele>
        <time>2023-01-04T12:06:22.081Z</time>
      </trkpt>
      <trkpt lat="43.39017" lon="1.69651">
        <ele>232.631428</ele>
        <time>2023-01-04T12:06:25.063Z</time>
      </trkpt>
      <trkpt lat="43.39025" lon="1.69662">
        <ele>232.698871</ele>
        <time>2023-01-04T12:06:27.089Z</time>
      </trkpt>
      <trkpt lat="43.39031" lon="1.69673">
        <ele>232.776738</ele>
        <time>2023-01-04T12:06:29.088Z</time>
      </trkpt>
      <trkpt lat="43.39037" lon="1.69688">
        <ele>232.873641</ele>
        <time>2023-01-04T12:06:31.079Z</time>
      </trkpt>
      <trkpt lat="43.39041" lon="1.69702">
        <ele>232.954517</ele>
        <time>2023-01-04T12:06:33.091Z</time>
      </trkpt>
      <trkpt lat="43.39046" lon="1.69713">
        <ele>233.025492</ele>
        <time>2023-01-04T12:06:35.082Z</time>
      </trkpt>
      <trkpt lat="43.39051" lon="1.69729">
        <ele>233.122046</ele>
        <time>2023-01-04T12:06:37.083Z</time>
      </trkpt>
      <trkpt lat="43.39053" lon="1.69744">
        <ele>233.208582</ele>
        <time>2023-01-04T12:06:39.073Z</time>
      </trkpt>
      <trkpt lat="43.39052" lon="1.69759">
        <ele>233.291587</ele>
        <time>2023-01-04T12:06:41.066Z</time>
      </trkpt>
      <trkpt lat="43.3905" lon="1.69774">
        <ele>233.376776</ele>
        <time>2023-01-04T12:06:43.089Z</time>
      </trkpt>
      <trkpt lat="43.39047" lon="1.69787">
        <ele>233.450608</ele>
        <time>2023-01-04T12:06:45.091Z</time>
      </trkpt>
      <trkpt lat="43.3905" lon="1.69799">
        <ele>233.520806</ele>
        <time>2023-01-04T12:06:47.086Z</time>
      </trkpt>
      <trkpt lat="43.3905" lon="1.69813">
        <ele>233.599414</ele>
        <time>2023-01-04T12:06:49.063Z</time>
      </trkpt>
      <trkpt lat="43.39044" lon="1.69827">
        <ele>233.688068</ele>
        <time>2023-01-04T12:06:51.081Z</time>
      </trkpt>
      <trkpt lat="43.39046" lon="1.69841">
        <ele>233.763991</ele>
        <time>2023-01-04T12:06:53.090Z</time>
      </trkpt>
      <trkpt lat="43.39042" lon="1.69853">
        <ele>233.83702</ele>
        <time>2023-01-04T12:06:55.089Z</time>
      </trkpt>
      <trkpt lat="43.39038" lon="1.69872">
        <ele>233.947241</ele>
        <time>2023-01-04T12:06:57.091Z</time>
      </trkpt>
      <trkpt lat="43.39041" lon="1.69892">
        <ele>233.98435</ele>
        <time>2023-01-04T12:07:00.080Z</time>
      </trkpt>
      <trkpt lat="43.39033" lon="1.69909">
        <ele>233.674435</ele>
        <time>2023-01-04T12:07:02.089Z</time>
      </trkpt>
      <trkpt lat="43.39026" lon="1.69924">
        <ele>233.395293</ele>
        <time>2023-01-04T12:07:04.074Z</time>
      </trkpt>
      <trkpt lat="43.39022" lon="1.69937">
        <ele>233.184743</ele>
        <time>2023-01-04T12:07:06.088Z</time>
      </trkpt>
      <trkpt lat="43.39011" lon="1.69952">
        <ele>232.858488</ele>
        <time>2023-01-04T12:07:08.090Z</time>
      </trkpt>
      <trkpt lat="43.39001" lon="1.69963">
        <ele>232.589468</ele>
        <time>2023-01-04T12:07:10.093Z</time>
      </trkpt>
      <trkpt lat="43.38992" lon="1.69971">
        <ele>232.365565</ele>
        <time>2023-01-04T12:07:12.090Z</time>
      </trkpt>
      <trkpt lat="43.3898" lon="1.69973">
        <ele>232.11188</ele>
        <time>2023-01-04T12:07:15.090Z</time>
      </trkpt>
      <trkpt lat="43.38965" lon="1.69974">
        <ele>231.790546</ele>
        <time>2023-01-04T12:07:18.082Z</time>
      </trkpt>
      <trkpt lat="43.38955" lon="1.69973">
        <ele>231.590587</ele>
        <time>2023-01-04T12:07:20.091Z</time>
      </trkpt>
      <trkpt lat="43.38944" lon="1.69971">
        <ele>231.35544</ele>
        <time>2023-01-04T12:07:22.083Z</time>
      </trkpt>
      <trkpt lat="43.38934" lon="1.6997">
        <ele>231.140456</ele>
        <time>2023-01-04T12:07:24.085Z</time>
      </trkpt>
      <trkpt lat="43.38923" lon="1.69968">
        <ele>230.91515</ele>
        <time>2023-01-04T12:07:26.073Z</time>
      </trkpt>
      <trkpt lat="43.38912" lon="1.69969">
        <ele>230.684272</ele>
        <time>2023-01-04T12:07:28.066Z</time>
      </trkpt>
      <trkpt lat="43.38901" lon="1.69968">
        <ele>230.444709</ele>
        <time>2023-01-04T12:07:31.066Z</time>
      </trkpt>
      <trkpt lat="43.38889" lon="1.69968">
        <ele>230.186409</ele>
        <time>2023-01-04T12:07:34.079Z</time>
      </trkpt>
      <trkpt lat="43.3888" lon="1.6997">
        <ele>229.949121</ele>
        <time>2023-01-04T12:07:36.094Z</time>
      </trkpt>
      <trkpt lat="43.3887" lon="1.69972">
        <ele>229.705177</ele>
        <time>2023-01-04T12:07:38.067Z</time>
      </trkpt>
      <trkpt lat="43.38862" lon="1.69976">
        <ele>229.47719</ele>
        <time>2023-01-04T12:07:40.086Z</time>
      </trkpt>
      <trkpt lat="43.38849" lon="1.69981">
        <ele>229.144367</ele>
        <time>2023-01-04T12:07:43.080Z</time>
      </trkpt>
      <trkpt lat="43.38841" lon="1.69987">
        <ele>228.915481</ele>
        <time>2023-01-04T12:07:45.084Z</time>
      </trkpt>
      <trkpt lat="43.38829" lon="1.69995">
        <ele>228.580637</ele>
        <time>2023-01-04T12:07:48.083Z</time>
      </trkpt>
      <trkpt lat="43.38821" lon="1.70003">
        <ele>228.33584</ele>
        <time>2023-01-04T12:07:50.090Z</time>
      </trkpt>
      <trkpt lat="43.38812" lon="1.70011">
        <ele>228.06514</ele>
        <time>2023-01-04T12:07:52.092Z</time>
      </trkpt>
      <trkpt lat="43.38802" lon="1.70021">
        <ele>227.757955</ele>
        <time>2023-01-04T12:07:54.092Z</time>
      </trkpt>
      <trkpt lat="43.38791" lon="1.70027">
        <ele>227.445622</ele>
        <time>2023-01-04T12:07:57.091Z</time>
      </trkpt>
      <trkpt lat="43.38782" lon="1.7004">
        <ele>227.132759</ele>
        <time>2023-01-04T12:07:59.086Z</time>
      </trkpt>
      <trkpt lat="43.38773" lon="1.70048">
        <ele>226.856996</ele>
        <time>2023-01-04T12:08:01.090Z</time>
      </trkpt>
      <trkpt lat="43.38763" lon="1.70053">
        <ele>226.581165</ele>
        <time>2023-01-04T12:08:03.081Z</time>
      </trkpt>
      <trkpt lat="43.38754" lon="1.7006">
        <ele>226.327943</ele>
        <time>2023-01-04T12:08:05.090Z</time>
      </trkpt>
      <trkpt lat="43.38746" lon="1.70068">
        <ele>226.076954</ele>
        <time>2023-01-04T12:08:07.094Z</time>
      </trkpt>
      <trkpt lat="43.38737" lon="1.70075">
        <ele>225.811084</ele>
        <time>2023-01-04T12:08:09.091Z</time>
      </trkpt>
      <trkpt lat="43.38727" lon="1.70083">
        <ele>225.991279</ele>
        <time>2023-01-04T12:08:11.066Z</time>
      </trkpt>
      <trkpt lat="43.38717" lon="1.70092">
        <ele>226.329839</ele>
        <time>2023-01-04T12:08:13.094Z</time>
      </trkpt>
      <trkpt lat="43.38708" lon="1.70098">
        <ele>226.620342</ele>
        <time>2023-01-04T12:08:15.091Z</time>
      </trkpt>
      <trkpt lat="43.38699" lon="1.70104">
        <ele>226.921963</ele>
        <time>2023-01-04T12:08:17.085Z</time>
      </trkpt>
      <trkpt lat="43.38691" lon="1.70113">
        <ele>227.225036</ele>
        <time>2023-01-04T12:08:19.066Z</time>
      </trkpt>
      <trkpt lat="43.38682" lon="1.70121">
        <ele>227.562301</ele>
        <time>2023-01-04T12:08:21.085Z</time>
      </trkpt>
      <trkpt lat="43.38674" lon="1.70131">
        <ele>227.868166</ele>
        <time>2023-01-04T12:08:23.082Z</time>
      </trkpt>
      <trkpt lat="43.38668" lon="1.7014">
        <ele>228.142829</ele>
        <time>2023-01-04T12:08:25.064Z</time>
      </trkpt>
      <trkpt lat="43.38658" lon="1.70153">
        <ele>228.546607</ele>
        <time>2023-01-04T12:08:27.090Z</time>
      </trkpt>
      <trkpt lat="43.3865" lon="1.70163">
        <ele>228.877305</ele>
        <time>2023-01-04T12:08:29.098Z</time>
      </trkpt>
      <trkpt lat="43.38639" lon="1.70179">
        <ele>229.355433</ele>
        <time>2023-01-04T12:08:32.082Z</time>
      </trkpt>
      <trkpt lat="43.38631" lon="1.70192">
        <ele>229.732554</ele>
        <time>2023-01-04T12:08:35.088Z</time>
      </trkpt>
      <trkpt lat="43.38622" lon="1.70207">
        <ele>230.145448</ele>
        <time>2023-01-04T12:08:38.091Z</time>
      </trkpt>
      <trkpt lat="43.38614" lon="1.70216">
        <ele>230.440171</ele>
        <time>2023-01-04T12:08:40.085Z</time>
      </trkpt>
      <trkpt lat="43.38607" lon="1.70225">
        <ele>230.729956</ele>
        <time>2023-01-04T12:08:41.087Z</time>
      </trkpt>
      <trkpt lat="43.38599" lon="1.70237">
        <ele>231.090723</ele>
        <time>2023-01-04T12:08:43.087Z</time>
      </trkpt>
      <trkpt lat="43.38593" lon="1.70248">
        <ele>231.395024</ele>
        <time>2023-01-04T12:08:45.079Z</time>
      </trkpt>
      <trkpt lat="43.38587" lon="1.70259">
        <ele>231.690476</ele>
        <time>2023-01-04T12:08:47.091Z</time>
      </trkpt>
      <trkpt lat="43.38579" lon="1.7027">
        <ele>232.038643</ele>
        <time>2023-01-04T12:08:49.084Z</time>
      </trkpt>
      <trkpt lat="43.38572" lon="1.70282">
        <ele>232.374898</ele>
        <time>2023-01-04T12:08:51.092Z</time>
      </trkpt>
      <trkpt lat="43.38565" lon="1.70296">
        <ele>232.722104</ele>
        <time>2023-01-04T12:08:53.079Z</time>
      </trkpt>
      <trkpt lat="43.38558" lon="1.70311">
        <ele>233.125723</ele>
        <time>2023-01-04T12:08:56.080Z</time>
      </trkpt>
      <trkpt lat="43.38553" lon="1.70324">
        <ele>233.453628</ele>
        <time>2023-01-04T12:08:58.081Z</time>
      </trkpt>
      <trkpt lat="43.38545" lon="1.70338">
        <ele>233.825263</ele>
        <time>2023-01-04T12:09:00.085Z</time>
      </trkpt>
      <trkpt lat="43.38539" lon="1.70347">
        <ele>234.106531</ele>
        <time>2023-01-04T12:09:02.089Z</time>
      </trkpt>
      <trkpt lat="43.38534" lon="1.70359">
        <ele>234.418141</ele>
        <time>2023-01-04T12:09:04.089Z</time>
      </trkpt>
      <trkpt lat="43.38524" lon="1.7037">
        <ele>234.792741</ele>
        <time>2023-01-04T12:09:06.092Z</time>
      </trkpt>
      <trkpt lat="43.38516" lon="1.70383">
        <ele>235.17225</ele>
        <time>2023-01-04T12:09:08.088Z</time>
      </trkpt>
      <trkpt lat="43.38511" lon="1.70394">
        <ele>235.454737</ele>
        <time>2023-01-04T12:09:10.081Z</time>
      </trkpt>
      <trkpt lat="43.38504" lon="1.70405">
        <ele>235.776153</ele>
        <time>2023-01-04T12:09:13.090Z</time>
      </trkpt>
      <trkpt lat="43.38501" lon="1.7042">
        <ele>236.120626</ele>
        <time>2023-01-04T12:09:15.089Z</time>
      </trkpt>
      <trkpt lat="43.38496" lon="1.70437">
        <ele>236.508725</ele>
        <time>2023-01-04T12:09:17.069Z</time>
      </trkpt>
      <trkpt lat="43.38495" lon="1.70451">
        <ele>236.629042</ele>
        <time>2023-01-04T12:09:19.070Z</time>
      </trkpt>
      <trkpt lat="43.38496" lon="1.7047">
        <ele>236.798672</ele>
        <time>2023-01-04T12:09:22.080Z</time>
      </trkpt>
      <trkpt lat="43.385" lon="1.70488">
        <ele>236.956111</ele>
        <time>2023-01-04T12:09:25.078Z</time>
      </trkpt>
      <trkpt lat="43.38506" lon="1.70502">
        <ele>237.095407</ele>
        <time>2023-01-04T12:09:27.083Z</time>
      </trkpt>
      <trkpt lat="43.3851" lon="1.70515">
        <ele>237.220706</ele>
        <time>2023-01-04T12:09:29.091Z</time>
      </trkpt>
      <trkpt lat="43.38512" lon="1.70529">
        <ele>237.339631</ele>
        <time>2023-01-04T12:09:31.083Z</time>
      </trkpt>
      <trkpt lat="43.38517" lon="1.7054">
        <ele>237.456996</ele>
        <time>2023-01-04T12:09:33.090Z</time>
      </trkpt>
      <trkpt lat="43.38523" lon="1.70554">
        <ele>237.591155</ele>
        <time>2023-01-04T12:09:35.070Z</time>
      </trkpt>
      <trkpt lat="43.38526" lon="1.70573">
        <ele>237.764213</ele>
        <time>2023-01-04T12:09:38.079Z</time>
      </trkpt>
      <trkpt lat="43.3853" lon="1.70586">
        <ele>237.879914</ele>
        <time>2023-01-04T12:09:40.088Z</time>
      </trkpt>
      <trkpt lat="43.38534" lon="1.706">
        <ele>238.009777</ele>
        <time>2023-01-04T12:09:42.082Z</time>
      </trkpt>
      <trkpt lat="43.38538" lon="1.70612">
        <ele>238.126131</ele>
        <time>2023-01-04T12:09:44.089Z</time>
      </trkpt>
      <trkpt lat="43.38542" lon="1.70629">
        <ele>238.288141</ele>
        <time>2023-01-04T12:09:47.088Z</time>
      </trkpt>
      <trkpt lat="43.38549" lon="1.70644">
        <ele>238.442459</ele>
        <time>2023-01-04T12:09:49.090Z</time>
      </trkpt>
      <trkpt lat="43.38555" lon="1.70661">
        <ele>238.600612</ele>
        <time>2023-01-04T12:09:52.095Z</time>
      </trkpt>
      <trkpt lat="43.38558" lon="1.70673">
        <ele>238.728021</ele>
        <time>2023-01-04T12:09:55.084Z</time>
      </trkpt>
      <trkpt lat="43.38563" lon="1.70688">
        <ele>238.906019</ele>
        <time>2023-01-04T12:09:59.091Z</time>
      </trkpt>
      <trkpt lat="43.38568" lon="1.707">
        <ele>239.06341</ele>
        <time>2023-01-04T12:10:02.089Z</time>
      </trkpt>
      <trkpt lat="43.38573" lon="1.70716">
        <ele>239.25203</ele>
        <time>2023-01-04T12:10:05.069Z</time>
      </trkpt>
      <trkpt lat="43.38577" lon="1.70728">
        <ele>239.39655</ele>
        <time>2023-01-04T12:10:07.073Z</time>
      </trkpt>
      <trkpt lat="43.38584" lon="1.70744">
        <ele>239.594772</ele>
        <time>2023-01-04T12:10:09.079Z</time>
      </trkpt>
      <trkpt lat="43.38589" lon="1.70755">
        <ele>239.734584</ele>
        <time>2023-01-04T12:10:11.067Z</time>
      </trkpt>
      <trkpt lat="43.38595" lon="1.7077">
        <ele>239.92979</ele>
        <time>2023-01-04T12:10:14.076Z</time>
      </trkpt>
      <trkpt lat="43.38598" lon="1.70785">
        <ele>240.087592</ele>
        <time>2023-01-04T12:10:18.087Z</time>
      </trkpt>
      <trkpt lat="43.38602" lon="1.70796">
        <ele>240.228247</ele>
        <time>2023-01-04T12:10:25.081Z</time>
      </trkpt>
      <trkpt lat="43.38609" lon="1.70808">
        <ele>240.399888</ele>
        <time>2023-01-04T12:10:48.062Z</time>
      </trkpt>
      <trkpt lat="43.38612" lon="1.70824">
        <ele>240.576752</ele>
        <time>2023-01-04T12:10:51.058Z</time>
      </trkpt>
      <trkpt lat="43.38616" lon="1.70837">
        <ele>240.737035</ele>
        <time>2023-01-04T12:10:55.073Z</time>
      </trkpt>
      <trkpt lat="43.38618" lon="1.7085">
        <ele>240.876208</ele>
        <time>2023-01-04T12:11:00.066Z</time>
      </trkpt>
      <trkpt lat="43.3862" lon="1.70862">
        <ele>241.011101</ele>
        <time>2023-01-04T12:11:05.072Z</time>
      </trkpt>
      <trkpt lat="43.38624" lon="1.70874">
        <ele>241.156018</ele>
        <time>2023-01-04T12:11:10.061Z</time>
      </trkpt>
      <trkpt lat="43.38626" lon="1.70887">
        <ele>241.298342</ele>
        <time>2023-01-04T12:11:15.067Z</time>
      </trkpt>
      <trkpt lat="43.38632" lon="1.70898">
        <ele>241.212842</ele>
        <time>2023-01-04T12:11:21.090Z</time>
      </trkpt>
      <trkpt lat="43.38639" lon="1.70906">
        <ele>241.046329</ele>
        <time>2023-01-04T12:11:27.094Z</time>
      </trkpt>
      <trkpt lat="43.38645" lon="1.70917">
        <ele>240.859349</ele>
        <time>2023-01-04T12:11:33.088Z</time>
      </trkpt>
      <trkpt lat="43.38654" lon="1.70925">
        <ele>240.656303</ele>
        <time>2023-01-04T12:11:40.080Z</time>
      </trkpt>
      <trkpt lat="43.38665" lon="1.70929">
        <ele>240.460743</ele>
        <time>2023-01-04T12:11:44.084Z</time>
      </trkpt>
      <trkpt lat="43.38675" lon="1.70937">
        <ele>240.247016</ele>
        <time>2023-01-04T12:11:47.062Z</time>
      </trkpt>
      <trkpt lat="43.38683" lon="1.70949">
        <ele>240.025412</ele>
        <time>2023-01-04T12:11:50.067Z</time>
      </trkpt>
      <trkpt lat="43.38692" lon="1.70958">
        <ele>239.82251</ele>
        <time>2023-01-04T12:11:53.094Z</time>
      </trkpt>
      <trkpt lat="43.38703" lon="1.70963">
        <ele>239.615344</ele>
        <time>2023-01-04T12:11:56.088Z</time>
      </trkpt>
      <trkpt lat="43.38715" lon="1.70967">
        <ele>239.374211</ele>
        <time>2023-01-04T12:11:59.088Z</time>
      </trkpt>
      <trkpt lat="43.38726" lon="1.7097">
        <ele>239.179002</ele>
        <time>2023-01-04T12:12:03.089Z</time>
      </trkpt>
      <trkpt lat="43.38737" lon="1.70974">
        <ele>238.96113</ele>
        <time>2023-01-04T12:12:06.090Z</time>
      </trkpt>
      <trkpt lat="43.38747" lon="1.70979">
        <ele>238.76958</ele>
        <time>2023-01-04T12:12:09.091Z</time>
      </trkpt>
      <trkpt lat="43.38759" lon="1.70984">
        <ele>238.54504</ele>
        <time>2023-01-04T12:12:12.074Z</time>
      </trkpt>
      <trkpt lat="43.38771" lon="1.70992">
        <ele>238.296612</ele>
        <time>2023-01-04T12:12:15.088Z</time>
      </trkpt>
      <trkpt lat="43.38781" lon="1.70998">
        <ele>238.094566</ele>
        <time>2023-01-04T12:12:17.084Z</time>
      </trkpt>
      <trkpt lat="43.38791" lon="1.71008">
        <ele>237.431985</ele>
        <time>2023-01-04T12:12:19.070Z</time>
      </trkpt>
      <trkpt lat="43.38802" lon="1.71016">
        <ele>236.560367</ele>
        <time>2023-01-04T12:12:21.080Z</time>
      </trkpt>
      <trkpt lat="43.38809" lon="1.71025">
        <ele>235.891596</ele>
        <time>2023-01-04T12:12:23.084Z</time>
      </trkpt>
      <trkpt lat="43.38819" lon="1.71032">
        <ele>235.13214</ele>
        <time>2023-01-04T12:12:25.086Z</time>
      </trkpt>
      <trkpt lat="43.38829" lon="1.71039">
        <ele>234.381019</ele>
        <time>2023-01-04T12:12:29.086Z</time>
      </trkpt>
      <trkpt lat="43.38837" lon="1.71048">
        <ele>233.666448</ele>
        <time>2023-01-04T12:12:33.090Z</time>
      </trkpt>
      <trkpt lat="43.38849" lon="1.71056">
        <ele>232.738168</ele>
        <time>2023-01-04T12:12:36.080Z</time>
      </trkpt>
      <trkpt lat="43.3886" lon="1.71064">
        <ele>231.881672</ele>
        <time>2023-01-04T12:12:38.082Z</time>
      </trkpt>
      <trkpt lat="43.3887" lon="1.71069">
        <ele>231.204914</ele>
        <time>2023-01-04T12:12:40.080Z</time>
      </trkpt>
      <trkpt lat="43.38881" lon="1.71077">
        <ele>230.324173</ele>
        <time>2023-01-04T12:12:42.070Z</time>
      </trkpt>
      <trkpt lat="43.38891" lon="1.71081">
        <ele>229.641803</ele>
        <time>2023-01-04T12:12:44.086Z</time>
      </trkpt>
      <trkpt lat="43.38903" lon="1.71088">
        <ele>228.723845</ele>
        <time>2023-01-04T12:12:45.080Z</time>
      </trkpt>
      <trkpt lat="43.38913" lon="1.71093">
        <ele>228.046373</ele>
        <time>2023-01-04T12:12:47.089Z</time>
      </trkpt>
      <trkpt lat="43.38921" lon="1.71097">
        <ele>227.431322</ele>
        <time>2023-01-04T12:12:50.079Z</time>
      </trkpt>
      <trkpt lat="43.38935" lon="1.71104">
        <ele>226.406861</ele>
        <time>2023-01-04T12:12:52.090Z</time>
      </trkpt>
      <trkpt lat="43.38944" lon="1.71108">
        <ele>225.793913</ele>
        <time>2023-01-04T12:12:55.090Z</time>
      </trkpt>
      <trkpt lat="43.38952" lon="1.71114">
        <ele>225.77644</ele>
        <time>2023-01-04T12:13:00.086Z</time>
      </trkpt>
      <trkpt lat="43.38962" lon="1.71116">
        <ele>225.78913</ele>
        <time>2023-01-04T12:13:04.077Z</time>
      </trkpt>
      <trkpt lat="43.38975" lon="1.71121">
        <ele>225.807288</ele>
        <time>2023-01-04T12:13:08.066Z</time>
      </trkpt>
      <trkpt lat="43.38983" lon="1.71129">
        <ele>225.819435</ele>
        <time>2023-01-04T12:13:10.070Z</time>
      </trkpt>
      <trkpt lat="43.38983" lon="1.71142">
        <ele>225.831406</ele>
        <time>2023-01-04T12:13:15.073Z</time>
      </trkpt>
      <trkpt lat="43.38978" lon="1.71153">
        <ele>225.843689</ele>
        <time>2023-01-04T12:13:20.070Z</time>
      </trkpt>
      <trkpt lat="43.38973" lon="1.71166">
        <ele>225.857487</ele>
        <time>2023-01-04T12:13:25.066Z</time>
      </trkpt>
      <trkpt lat="43.38981" lon="1.71175">
        <ele>225.870917</ele>
        <time>2023-01-04T12:13:30.069Z</time>
      </trkpt>
      <trkpt lat="43.38991" lon="1.71182">
        <ele>225.885714</ele>
        <time>2023-01-04T12:13:34.063Z</time>
      </trkpt>
      <trkpt lat="43.38999" lon="1.71189">
        <ele>225.8979</ele>
        <time>2023-01-04T12:13:37.059Z</time>
      </trkpt>
      <trkpt lat="43.39006" lon="1.71197">
        <ele>225.909903</ele>
        <time>2023-01-04T12:13:40.065Z</time>
      </trkpt>
      <trkpt lat="43.39015" lon="1.71205">
        <ele>225.922994</ele>
        <time>2023-01-04T12:13:43.072Z</time>
      </trkpt>
      <trkpt lat="43.39025" lon="1.71215">
        <ele>225.939557</ele>
        <time>2023-01-04T12:13:46.067Z</time>
      </trkpt>
      <trkpt lat="43.39035" lon="1.71223">
        <ele>225.954335</ele>
        <time>2023-01-04T12:13:49.071Z</time>
      </trkpt>
      <trkpt lat="43.39043" lon="1.71232">
        <ele>225.967815</ele>
        <time>2023-01-04T12:13:52.096Z</time>
      </trkpt>
      <trkpt lat="43.3905" lon="1.71242">
        <ele>225.981453</ele>
        <time>2023-01-04T12:13:55.062Z</time>
      </trkpt>
      <trkpt lat="43.39056" lon="1.71254">
        <ele>225.994736</ele>
        <time>2023-01-04T12:13:58.074Z</time>
      </trkpt>
      <trkpt lat="43.39063" lon="1.71264">
        <ele>226.290359</ele>
        <time>2023-01-04T12:14:01.063Z</time>
      </trkpt>
      <trkpt lat="43.39071" lon="1.71273">
        <ele>226.722948</ele>
        <time>2023-01-04T12:14:06.091Z</time>
      </trkpt>
      <trkpt lat="43.3908" lon="1.71287">
        <ele>227.255008</ele>
        <time>2023-01-04T12:14:12.087Z</time>
      </trkpt>
      <trkpt lat="43.39093" lon="1.713">
        <ele>227.922472</ele>
        <time>2023-01-04T12:14:14.083Z</time>
      </trkpt>
      <trkpt lat="43.39093" lon="1.71313">
        <ele>228.302304</ele>
        <time>2023-01-04T12:14:16.069Z</time>
      </trkpt>
      <trkpt lat="43.39093" lon="1.71331">
        <ele>228.834813</ele>
        <time>2023-01-04T12:14:19.083Z</time>
      </trkpt>
      <trkpt lat="43.39095" lon="1.71348">
        <ele>229.327829</ele>
        <time>2023-01-04T12:14:22.082Z</time>
      </trkpt>
      <trkpt lat="43.39093" lon="1.71362">
        <ele>229.732631</ele>
        <time>2023-01-04T12:14:24.083Z</time>
      </trkpt>
      <trkpt lat="43.39092" lon="1.71378">
        <ele>230.204753</ele>
        <time>2023-01-04T12:14:27.091Z</time>
      </trkpt>
      <trkpt lat="43.3909" lon="1.71395">
        <ele>230.725236</ele>
        <time>2023-01-04T12:14:30.080Z</time>
      </trkpt>
      <trkpt lat="43.39086" lon="1.71408">
        <ele>231.132339</ele>
        <time>2023-01-04T12:14:32.072Z</time>
      </trkpt>
      <trkpt lat="43.39085" lon="1.71426">
        <ele>231.667075</ele>
        <time>2023-01-04T12:14:35.081Z</time>
      </trkpt>
      <trkpt lat="43.39082" lon="1.71439">
        <ele>232.06044</ele>
        <time>2023-01-04T12:14:37.088Z</time>
      </trkpt>
      <trkpt lat="43.39079" lon="1.71452">
        <ele>232.462211</ele>
        <time>2023-01-04T12:14:40.068Z</time>
      </trkpt>
      <trkpt lat="43.39078" lon="1.71475">
        <ele>233.134014</ele>
        <time>2023-01-04T12:14:43.068Z</time>
      </trkpt>
      <trkpt lat="43.39075" lon="1.71489">
        <ele>233.182739</ele>
        <time>2023-01-04T12:14:46.089Z</time>
      </trkpt>
      <trkpt lat="43.39071" lon="1.71508">
        <ele>233.095678</ele>
        <time>2023-01-04T12:14:49.096Z</time>
      </trkpt>
      <trkpt lat="43.39067" lon="1.71519">
        <ele>233.040099</ele>
        <time>2023-01-04T12:14:51.083Z</time>
      </trkpt>
      <trkpt lat="43.39064" lon="1.71535">
        <ele>232.971175</ele>
        <time>2023-01-04T12:14:53.083Z</time>
      </trkpt>
      <trkpt lat="43.39063" lon="1.71548">
        <ele>232.914442</ele>
        <time>2023-01-04T12:14:55.079Z</time>
      </trkpt>
      <trkpt lat="43.39061" lon="1.71566">
        <ele>232.833697</ele>
        <time>2023-01-04T12:14:58.090Z</time>
      </trkpt>
      <trkpt lat="43.39058" lon="1.71578">
        <ele>232.779701</ele>
        <time>2023-01-04T12:15:00.083Z</time>
      </trkpt>
      <trkpt lat="43.39056" lon="1.71596">
        <ele>232.698315</ele>
        <time>2023-01-04T12:15:03.087Z</time>
      </trkpt>
      <trkpt lat="43.39054" lon="1.71611">
        <ele>232.630447</ele>
        <time>2023-01-04T12:15:05.091Z</time>
      </trkpt>
      <trkpt lat="43.3905" lon="1.71627">
        <ele>232.559417</ele>
        <time>2023-01-04T12:15:07.080Z</time>
      </trkpt>
      <trkpt lat="43.39048" lon="1.7164">
        <ele>232.499113</ele>
        <time>2023-01-04T12:15:09.090Z</time>
      </trkpt>
      <trkpt lat="43.39047" lon="1.71652">
        <ele>232.444787</ele>
        <time>2023-01-04T12:15:11.089Z</time>
      </trkpt>
      <trkpt lat="43.39044" lon="1.71669">
        <ele>232.371041</ele>
        <time>2023-01-04T12:15:13.088Z</time>
      </trkpt>
      <trkpt lat="43.39042" lon="1.71682">
        <ele>232.310861</ele>
        <time>2023-01-04T12:15:15.089Z</time>
      </trkpt>
      <trkpt lat="43.3904" lon="1.71699">
        <ele>232.234853</ele>
        <time>2023-01-04T12:15:17.086Z</time>
      </trkpt>
      <trkpt lat="43.39038" lon="1.71716">
        <ele>232.162866</ele>
        <time>2023-01-04T12:15:19.091Z</time>
      </trkpt>
      <trkpt lat="43.39038" lon="1.7173">
        <ele>231.596191</ele>
        <time>2023-01-04T12:15:22.085Z</time>
      </trkpt>
      <trkpt lat="43.39038" lon="1.71745">
        <ele>230.835845</ele>
        <time>2023-01-04T12:15:24.084Z</time>
      </trkpt>
      <trkpt lat="43.39037" lon="1.71759">
        <ele>230.138218</ele>
        <time>2023-01-04T12:15:26.092Z</time>
      </trkpt>
      <trkpt lat="43.39035" lon="1.71772">
        <ele>229.487074</ele>
        <time>2023-01-04T12:15:28.088Z</time>
      </trkpt>
      <trkpt lat="43.39034" lon="1.71786">
        <ele>228.787716</ele>
        <time>2023-01-04T12:15:31.066Z</time>
      </trkpt>
      <trkpt lat="43.39033" lon="1.71801">
        <ele>228.056605</ele>
        <time>2023-01-04T12:15:34.092Z</time>
      </trkpt>
      <trkpt lat="43.3903" lon="1.71821">
        <ele>227.072968</ele>
        <time>2023-01-04T12:15:37.091Z</time>
      </trkpt>
      <trkpt lat="43.39026" lon="1.71838">
        <ele>226.169191</ele>
        <time>2023-01-04T12:15:40.091Z</time>
      </trkpt>
      <trkpt lat="43.39022" lon="1.71853">
        <ele>225.358957</ele>
        <time>2023-01-04T12:15:42.092Z</time>
      </trkpt>
      <trkpt lat="43.39017" lon="1.71869">
        <ele>224.534075</ele>
        <time>2023-01-04T12:15:44.093Z</time>
      </trkpt>
      <trkpt lat="43.39012" lon="1.71884">
        <ele>223.722218</ele>
        <time>2023-01-04T12:15:47.088Z</time>
      </trkpt>
      <trkpt lat="43.39007" lon="1.71897">
        <ele>222.959563</ele>
        <time>2023-01-04T12:15:49.090Z</time>
      </trkpt>
      <trkpt lat="43.39" lon="1.71911">
        <ele>222.139891</ele>
        <time>2023-01-04T12:15:51.092Z</time>
      </trkpt>
      <trkpt lat="43.38993" lon="1.71924">
        <ele>221.342876</ele>
        <time>2023-01-04T12:15:53.094Z</time>
      </trkpt>
      <trkpt lat="43.38987" lon="1.71937">
        <ele>220.599389</ele>
        <time>2023-01-04T12:15:55.082Z</time>
      </trkpt>
      <trkpt lat="43.38978" lon="1.71948">
        <ele>220.017479</ele>
        <time>2023-01-04T12:15:58.081Z</time>
      </trkpt>
      <trkpt lat="43.3897" lon="1.71956">
        <ele>220.451169</ele>
        <time>2023-01-04T12:16:00.081Z</time>
      </trkpt>
      <trkpt lat="43.38959" lon="1.71967">
        <ele>221.054793</ele>
        <time>2023-01-04T12:16:03.085Z</time>
      </trkpt>
      <trkpt lat="43.38949" lon="1.71974">
        <ele>221.554419</ele>
        <time>2023-01-04T12:16:05.074Z</time>
      </trkpt>
      <trkpt lat="43.3894" lon="1.71979">
        <ele>221.971663</ele>
        <time>2023-01-04T12:16:07.069Z</time>
      </trkpt>
      <trkpt lat="43.38931" lon="1.71984">
        <ele>222.420031</ele>
        <time>2023-01-04T12:16:09.083Z</time>
      </trkpt>
      <trkpt lat="43.38922" lon="1.71991">
        <ele>222.856535</ele>
        <time>2023-01-04T12:16:11.089Z</time>
      </trkpt>
      <trkpt lat="43.38911" lon="1.71995">
        <ele>223.360718</ele>
        <time>2023-01-04T12:16:13.086Z</time>
      </trkpt>
      <trkpt lat="43.38902" lon="1.72001">
        <ele>223.813953</ele>
        <time>2023-01-04T12:16:15.074Z</time>
      </trkpt>
      <trkpt lat="43.38893" lon="1.72005">
        <ele>224.212364</ele>
        <time>2023-01-04T12:16:17.095Z</time>
      </trkpt>
      <trkpt lat="43.38883" lon="1.72009">
        <ele>224.679278</ele>
        <time>2023-01-04T12:16:19.088Z</time>
      </trkpt>
      <trkpt lat="43.38873" lon="1.72012">
        <ele>225.108044</ele>
        <time>2023-01-04T12:16:21.069Z</time>
      </trkpt>
      <trkpt lat="43.38862" lon="1.72015">
        <ele>225.610481</ele>
        <time>2023-01-04T12:16:23.083Z</time>
      </trkpt>
      <trkpt lat="43.38852" lon="1.72019">
        <ele>226.073901</ele>
        <time>2023-01-04T12:16:25.084Z</time>
      </trkpt>
      <trkpt lat="43.38841" lon="1.7202">
        <ele>226.548826</ele>
        <time>2023-01-04T12:16:27.086Z</time>
      </trkpt>
      <trkpt lat="43.38827" lon="1.72023">
        <ele>227.179856</ele>
        <time>2023-01-04T12:16:30.088Z</time>
      </trkpt>
      <trkpt lat="43.38816" lon="1.72026">
        <ele>227.668791</ele>
        <time>2023-01-04T12:16:32.083Z</time>
      </trkpt>
      <trkpt lat="43.38806" lon="1.72026">
        <ele>227.779748</ele>
        <time>2023-01-04T12:16:34.083Z</time>
      </trkpt>
      <trkpt lat="43.38797" lon="1.72027">
        <ele>227.725937</ele>
        <time>2023-01-04T12:16:36.092Z</time>
      </trkpt>
      <trkpt lat="43.38788" lon="1.72027">
        <ele>227.671617</ele>
        <time>2023-01-04T12:16:38.078Z</time>
      </trkpt>
      <trkpt lat="43.38779" lon="1.7203">
        <ele>227.618757</ele>
        <time>2023-01-04T12:16:40.091Z</time>
      </trkpt>
      <trkpt lat="43.38767" lon="1.72035">
        <ele>227.545505</ele>
        <time>2023-01-04T12:16:43.089Z</time>
      </trkpt>
      <trkpt lat="43.38757" lon="1.72038">
        <ele>227.485862</ele>
        <time>2023-01-04T12:16:45.072Z</time>
      </trkpt>
      <trkpt lat="43.38745" lon="1.72042">
        <ele>227.413363</ele>
        <time>2023-01-04T12:16:48.081Z</time>
      </trkpt>
      <trkpt lat="43.38736" lon="1.72044">
        <ele>227.358785</ele>
        <time>2023-01-04T12:16:50.084Z</time>
      </trkpt>
      <trkpt lat="43.38725" lon="1.72048">
        <ele>227.28811</ele>
        <time>2023-01-04T12:16:53.069Z</time>
      </trkpt>
      <trkpt lat="43.38713" lon="1.72054">
        <ele>227.214978</ele>
        <time>2023-01-04T12:16:56.085Z</time>
      </trkpt>
      <trkpt lat="43.38703" lon="1.72063">
        <ele>227.145333</ele>
        <time>2023-01-04T12:16:59.088Z</time>
      </trkpt>
      <trkpt lat="43.38693" lon="1.72071">
        <ele>227.075014</ele>
        <time>2023-01-04T12:17:02.090Z</time>
      </trkpt>
      <trkpt lat="43.38683" lon="1.72082">
        <ele>227.003438</ele>
        <time>2023-01-04T12:17:05.084Z</time>
      </trkpt>
      <trkpt lat="43.38673" lon="1.72093">
        <ele>226.923705</ele>
        <time>2023-01-04T12:17:08.087Z</time>
      </trkpt>
      <trkpt lat="43.38666" lon="1.72106">
        <ele>226.8557</ele>
        <time>2023-01-04T12:17:11.090Z</time>
      </trkpt>
      <trkpt lat="43.38657" lon="1.72121">
        <ele>226.775163</ele>
        <time>2023-01-04T12:17:14.083Z</time>
      </trkpt>
      <trkpt lat="43.38648" lon="1.72135">
        <ele>226.594996</ele>
        <time>2023-01-04T12:17:17.089Z</time>
      </trkpt>
      <trkpt lat="43.38641" lon="1.72149">
        <ele>226.410871</ele>
        <time>2023-01-04T12:17:20.084Z</time>
      </trkpt>
      <trkpt lat="43.38635" lon="1.7216">
        <ele>226.255386</ele>
        <time>2023-01-04T12:17:22.068Z</time>
      </trkpt>
      <trkpt lat="43.38628" lon="1.72173">
        <ele>226.081068</ele>
        <time>2023-01-04T12:17:24.089Z</time>
      </trkpt>
      <trkpt lat="43.38621" lon="1.72187">
        <ele>225.881787</ele>
        <time>2023-01-04T12:17:27.083Z</time>
      </trkpt>
      <trkpt lat="43.38615" lon="1.72198">
        <ele>225.734156</ele>
        <time>2023-01-04T12:17:29.083Z</time>
      </trkpt>
      <trkpt lat="43.38607" lon="1.72211">
        <ele>225.546447</ele>
        <time>2023-01-04T12:17:32.080Z</time>
      </trkpt>
      <trkpt lat="43.38599" lon="1.72223">
        <ele>225.366952</ele>
        <time>2023-01-04T12:17:34.085Z</time>
      </trkpt>
      <trkpt lat="43.38591" lon="1.72235">
        <ele>225.187916</ele>
        <time>2023-01-04T12:17:36.062Z</time>
      </trkpt>
      <trkpt lat="43.38584" lon="1.72248">
        <ele>225.007396</ele>
        <time>2023-01-04T12:17:38.086Z</time>
      </trkpt>
      <trkpt lat="43.38576" lon="1.7226">
        <ele>224.836893</ele>
        <time>2023-01-04T12:17:40.078Z</time>
      </trkpt>
      <trkpt lat="43.38569" lon="1.72273">
        <ele>224.644744</ele>
        <time>2023-01-04T12:17:43.068Z</time>
      </trkpt>
      <trkpt lat="43.38561" lon="1.72285">
        <ele>224.473854</ele>
        <time>2023-01-04T12:17:45.089Z</time>
      </trkpt>
      <trkpt lat="43.38555" lon="1.72299">
        <ele>224.284719</ele>
        <time>2023-01-04T12:17:48.081Z</time>
      </trkpt>
      <trkpt lat="43.38551" lon="1.72311">
        <ele>224.145533</ele>
        <time>2023-01-04T12:17:50.071Z</time>
      </trkpt>
      <trkpt lat="43.38543" lon="1.72321">
        <ele>224.060762</ele>
        <time>2023-01-04T12:17:52.091Z</time>
      </trkpt>
      <trkpt lat="43.38537" lon="1.72331">
        <ele>224.206084</ele>
        <time>2023-01-04T12:17:54.072Z</time>
      </trkpt>
      <trkpt lat="43.38528" lon="1.72347">
        <ele>224.433844</ele>
        <time>2023-01-04T12:17:57.085Z</time>
      </trkpt>
      <trkpt lat="43.3852" lon="1.72361">
        <ele>224.634861</ele>
        <time>2023-01-04T12:17:59.081Z</time>
      </trkpt>
      <trkpt lat="43.38513" lon="1.72372">
        <ele>224.801875</ele>
        <time>2023-01-04T12:18:01.089Z</time>
      </trkpt>
      <trkpt lat="43.38507" lon="1.72385">
        <ele>224.978849</ele>
        <time>2023-01-04T12:18:04.090Z</time>
      </trkpt>
      <trkpt lat="43.38499" lon="1.72399">
        <ele>225.169241</ele>
        <time>2023-01-04T12:18:07.083Z</time>
      </trkpt>
      <trkpt lat="43.38493" lon="1.72409">
        <ele>225.317094</ele>
        <time>2023-01-04T12:18:09.090Z</time>
      </trkpt>
      <trkpt lat="43.38487" lon="1.72421">
        <ele>225.478598</ele>
        <time>2023-01-04T12:18:11.087Z</time>
      </trkpt>
      <trkpt lat="43.38481" lon="1.72433">
        <ele>225.645403</ele>
        <time>2023-01-04T12:18:14.081Z</time>
      </trkpt>
      <trkpt lat="43.38474" lon="1.72448">
        <ele>225.84499</ele>
        <time>2023-01-04T12:18:17.079Z</time>
      </trkpt>
      <trkpt lat="43.38467" lon="1.72463">
        <ele>226.042719</ele>
        <time>2023-01-04T12:18:20.088Z</time>
      </trkpt>
      <trkpt lat="43.38462" lon="1.72474">
        <ele>226.188845</ele>
        <time>2023-01-04T12:18:22.089Z</time>
      </trkpt>
      <trkpt lat="43.38455" lon="1.72489">
        <ele>226.384395</ele>
        <time>2023-01-04T12:18:25.080Z</time>
      </trkpt>
      <trkpt lat="43.38449" lon="1.72503">
        <ele>226.56925</ele>
        <time>2023-01-04T12:18:27.072Z</time>
      </trkpt>
      <trkpt lat="43.38445" lon="1.72515">
        <ele>226.718876</ele>
        <time>2023-01-04T12:18:29.065Z</time>
      </trkpt>
      <trkpt lat="43.3844" lon="1.7253">
        <ele>226.811853</ele>
        <time>2023-01-04T12:18:31.089Z</time>
      </trkpt>
      <trkpt lat="43.38435" lon="1.72543">
        <ele>226.835193</ele>
        <time>2023-01-04T12:18:34.080Z</time>
      </trkpt>
      <trkpt lat="43.3843" lon="1.72554">
        <ele>226.855774</ele>
        <time>2023-01-04T12:18:37.094Z</time>
      </trkpt>
      <trkpt lat="43.38422" lon="1.7257">
        <ele>226.885278</ele>
        <time>2023-01-04T12:18:41.089Z</time>
      </trkpt>
      <trkpt lat="43.38415" lon="1.72586">
        <ele>226.914896</ele>
        <time>2023-01-04T12:18:44.093Z</time>
      </trkpt>
      <trkpt lat="43.3841" lon="1.72599">
        <ele>226.937126</ele>
        <time>2023-01-04T12:18:47.091Z</time>
      </trkpt>
      <trkpt lat="43.38404" lon="1.72613">
        <ele>226.963886</ele>
        <time>2023-01-04T12:18:50.068Z</time>
      </trkpt>
      <trkpt lat="43.38396" lon="1.72626">
        <ele>226.990158</ele>
        <time>2023-01-04T12:18:53.089Z</time>
      </trkpt>
      <trkpt lat="43.38388" lon="1.72637">
        <ele>227.0155</ele>
        <time>2023-01-04T12:18:56.086Z</time>
      </trkpt>
      <trkpt lat="43.38378" lon="1.7265">
        <ele>227.04467</ele>
        <time>2023-01-04T12:18:58.083Z</time>
      </trkpt>
      <trkpt lat="43.38373" lon="1.72662">
        <ele>227.066244</ele>
        <time>2023-01-04T12:19:00.078Z</time>
      </trkpt>
      <trkpt lat="43.3837" lon="1.72674">
        <ele>227.086965</ele>
        <time>2023-01-04T12:19:03.086Z</time>
      </trkpt>
      <trkpt lat="43.38364" lon="1.72686">
        <ele>227.110703</ele>
        <time>2023-01-04T12:19:06.089Z</time>
      </trkpt>
      <trkpt lat="43.38358" lon="1.72699">
        <ele>227.133833</ele>
        <time>2023-01-04T12:19:09.078Z</time>
      </trkpt>
      <trkpt lat="43.38354" lon="1.72711">
        <ele>227.155893</ele>
        <time>2023-01-04T12:19:12.079Z</time>
      </trkpt>
      <trkpt lat="43.38349" lon="1.72726">
        <ele>227.181313</ele>
        <time>2023-01-04T12:19:15.080Z</time>
      </trkpt>
      <trkpt lat="43.38344" lon="1.72738">
        <ele>227.054999</ele>
        <time>2023-01-04T12:19:18.083Z</time>
      </trkpt>
      <trkpt lat="43.38337" lon="1.7275">
        <ele>226.862243</ele>
        <time>2023-01-04T12:19:21.087Z</time>
      </trkpt>
      <trkpt lat="43.38331" lon="1.72761">
        <ele>226.698604</ele>
        <time>2023-01-04T12:19:25.088Z</time>
      </trkpt>
      <trkpt lat="43.38323" lon="1.72767">
        <ele>226.545355</ele>
        <time>2023-01-04T12:19:29.088Z</time>
      </trkpt>
      <trkpt lat="43.38317" lon="1.72776">
        <ele>226.384061</ele>
        <time>2023-01-04T12:19:33.085Z</time>
      </trkpt>
      <trkpt lat="43.38309" lon="1.72788">
        <ele>226.190663</ele>
        <time>2023-01-04T12:19:38.079Z</time>
      </trkpt>
      <trkpt lat="43.38302" lon="1.72798">
        <ele>226.010061</ele>
        <time>2023-01-04T12:19:41.089Z</time>
      </trkpt>
      <trkpt lat="43.38294" lon="1.7281">
        <ele>225.808262</ele>
        <time>2023-01-04T12:19:44.083Z</time>
      </trkpt>
      <trkpt lat="43.38288" lon="1.72823">
        <ele>225.615678</ele>
        <time>2023-01-04T12:19:47.073Z</time>
      </trkpt>
      <trkpt lat="43.38284" lon="1.72835">
        <ele>225.461176</ele>
        <time>2023-01-04T12:19:50.087Z</time>
      </trkpt>
      <trkpt lat="43.38279" lon="1.72847">
        <ele>225.280041</ele>
        <time>2023-01-04T12:19:55.085Z</time>
      </trkpt>
      <trkpt lat="43.3827" lon="1.72854">
        <ele>225.105134</ele>
        <time>2023-01-04T12:19:58.080Z</time>
      </trkpt>
      <trkpt lat="43.38263" lon="1.72863">
        <ele>224.939081</ele>
        <time>2023-01-04T12:20:01.074Z</time>
      </trkpt>
      <trkpt lat="43.3826" lon="1.72877">
        <ele>224.753033</ele>
        <time>2023-01-04T12:20:06.083Z</time>
      </trkpt>
      <trkpt lat="43.38252" lon="1.72888">
        <ele>224.564701</ele>
        <time>2023-01-04T12:20:10.088Z</time>
      </trkpt>
      <trkpt lat="43.38247" lon="1.729">
        <ele>224.402484</ele>
        <time>2023-01-04T12:20:14.089Z</time>
      </trkpt>
      <trkpt lat="43.38243" lon="1.72912">
        <ele>224.227901</ele>
        <time>2023-01-04T12:20:17.078Z</time>
      </trkpt>
      <trkpt lat="43.38237" lon="1.72923">
        <ele>224.067202</ele>
        <time>2023-01-04T12:20:20.088Z</time>
      </trkpt>
      <trkpt lat="43.38231" lon="1.72933">
        <ele>223.898264</ele>
        <time>2023-01-04T12:20:23.080Z</time>
      </trkpt>
      <trkpt lat="43.38223" lon="1.72944">
        <ele>223.71052</ele>
        <time>2023-01-04T12:20:25.068Z</time>
      </trkpt>
      <trkpt lat="43.38217" lon="1.72956">
        <ele>223.521411</ele>
        <time>2023-01-04T12:20:27.090Z</time>
      </trkpt>
      <trkpt lat="43.38212" lon="1.72968">
        <ele>223.355112</ele>
        <time>2023-01-04T12:20:29.072Z</time>
      </trkpt>
      <trkpt lat="43.38204" lon="1.7298">
        <ele>223.152299</ele>
        <time>2023-01-04T12:20:31.079Z</time>
      </trkpt>
      <trkpt lat="43.38196" lon="1.72993">
        <ele>222.942273</ele>
        <time>2023-01-04T12:20:34.091Z</time>
      </trkpt>
      <trkpt lat="43.38191" lon="1.73009">
        <ele>222.728688</ele>
        <time>2023-01-04T12:20:37.083Z</time>
      </trkpt>
      <trkpt lat="43.38185" lon="1.73025">
        <ele>222.508443</ele>
        <time>2023-01-04T12:20:40.083Z</time>
      </trkpt>
      <trkpt lat="43.38181" lon="1.73038">
        <ele>222.327157</ele>
        <time>2023-01-04T12:20:43.089Z</time>
      </trkpt>
      <trkpt lat="43.38174" lon="1.7305">
        <ele>222.137146</ele>
        <time>2023-01-04T12:20:45.088Z</time>
      </trkpt>
      <trkpt lat="43.38169" lon="1.7306">
        <ele>221.983274</ele>
        <time>2023-01-04T12:20:46.089Z</time>
      </trkpt>
      <trkpt lat="43.38162" lon="1.73073">
        <ele>221.78328</ele>
        <time>2023-01-04T12:20:48.070Z</time>
      </trkpt>
      <trkpt lat="43.38159" lon="1.73089">
        <ele>221.585214</ele>
        <time>2023-01-04T12:20:50.088Z</time>
      </trkpt>
      <trkpt lat="43.3815" lon="1.73105">
        <ele>221.32694</ele>
        <time>2023-01-04T12:20:53.082Z</time>
      </trkpt>
      <trkpt lat="43.38145" lon="1.73117">
        <ele>221.154865</ele>
        <time>2023-01-04T12:20:55.084Z</time>
      </trkpt>
      <trkpt lat="43.38141" lon="1.73129">
        <ele>221.047391</ele>
        <time>2023-01-04T12:20:57.089Z</time>
      </trkpt>
      <trkpt lat="43.38136" lon="1.73148">
        <ele>221.079251</ele>
        <time>2023-01-04T12:21:00.082Z</time>
      </trkpt>
      <trkpt lat="43.38133" lon="1.73161">
        <ele>221.101391</ele>
        <time>2023-01-04T12:21:02.092Z</time>
      </trkpt>
      <trkpt lat="43.38129" lon="1.73172">
        <ele>221.12227</ele>
        <time>2023-01-04T12:21:04.091Z</time>
      </trkpt>
      <trkpt lat="43.38124" lon="1.73184">
        <ele>221.144053</ele>
        <time>2023-01-04T12:21:07.093Z</time>
      </trkpt>
      <trkpt lat="43.38122" lon="1.73196">
        <ele>221.163974</ele>
        <time>2023-01-04T12:21:10.068Z</time>
      </trkpt>
      <trkpt lat="43.38118" lon="1.73213">
        <ele>221.192631</ele>
        <time>2023-01-04T12:21:12.089Z</time>
      </trkpt>
      <trkpt lat="43.38114" lon="1.73228">
        <ele>221.21818</ele>
        <time>2023-01-04T12:21:14.090Z</time>
      </trkpt>
      <trkpt lat="43.38112" lon="1.7324">
        <ele>221.238824</ele>
        <time>2023-01-04T12:21:16.081Z</time>
      </trkpt>
      <trkpt lat="43.38109" lon="1.73254">
        <ele>221.262124</ele>
        <time>2023-01-04T12:21:18.081Z</time>
      </trkpt>
      <trkpt lat="43.38106" lon="1.73267">
        <ele>221.284368</ele>
        <time>2023-01-04T12:21:20.091Z</time>
      </trkpt>
      <trkpt lat="43.38104" lon="1.73283">
        <ele>221.309377</ele>
        <time>2023-01-04T12:21:22.093Z</time>
      </trkpt>
      <trkpt lat="43.38102" lon="1.73295">
        <ele>221.330333</ele>
        <time>2023-01-04T12:21:24.089Z</time>
      </trkpt>
      <trkpt lat="43.38098" lon="1.7331">
        <ele>221.355653</ele>
        <time>2023-01-04T12:21:26.088Z</time>
      </trkpt>
      <trkpt lat="43.38097" lon="1.73325">
        <ele>221.380369</ele>
        <time>2023-01-04T12:21:28.090Z</time>
      </trkpt>
      <trkpt lat="43.38093" lon="1.7334">
        <ele>221.4066</ele>
        <time>2023-01-04T12:21:30.089Z</time>
      </trkpt>
      <trkpt lat="43.38089" lon="1.73359">
        <ele>221.436969</ele>
        <time>2023-01-04T12:21:33.095Z</time>
      </trkpt>
      <trkpt lat="43.38086" lon="1.73373">
        <ele>221.624702</ele>
        <time>2023-01-04T12:21:35.087Z</time>
      </trkpt>
      <trkpt lat="43.38082" lon="1.73391">
        <ele>221.907503</ele>
        <time>2023-01-04T12:21:38.079Z</time>
      </trkpt>
      <trkpt lat="43.38078" lon="1.73404">
        <ele>222.125645</ele>
        <time>2023-01-04T12:21:40.090Z</time>
      </trkpt>
      <trkpt lat="43.3807" lon="1.73417">
        <ele>222.37234</ele>
        <time>2023-01-04T12:21:43.084Z</time>
      </trkpt>
      <trkpt lat="43.38064" lon="1.73428">
        <ele>222.576489</ele>
        <time>2023-01-04T12:21:45.094Z</time>
      </trkpt>
      <trkpt lat="43.38059" lon="1.73443">
        <ele>222.82592</ele>
        <time>2023-01-04T12:21:47.092Z</time>
      </trkpt>
      <trkpt lat="43.38055" lon="1.73456">
        <ele>223.035834</ele>
        <time>2023-01-04T12:21:49.074Z</time>
      </trkpt>
      <trkpt lat="43.38049" lon="1.73468">
        <ele>223.254403</ele>
        <time>2023-01-04T12:21:51.086Z</time>
      </trkpt>
      <trkpt lat="43.38043" lon="1.73478">
        <ele>223.44521</ele>
        <time>2023-01-04T12:21:53.090Z</time>
      </trkpt>
      <trkpt lat="43.38038" lon="1.73494">
        <ele>223.707689</ele>
        <time>2023-01-04T12:21:56.080Z</time>
      </trkpt>
      <trkpt lat="43.38031" lon="1.73508">
        <ele>223.962172</ele>
        <time>2023-01-04T12:21:59.096Z</time>
      </trkpt>
      <trkpt lat="43.38025" lon="1.73526">
        <ele>224.258605</ele>
        <time>2023-01-04T12:22:02.082Z</time>
      </trkpt>
      <trkpt lat="43.38019" lon="1.73542">
        <ele>224.522805</ele>
        <time>2023-01-04T12:22:04.081Z</time>
      </trkpt>
      <trkpt lat="43.38012" lon="1.73558">
        <ele>224.80203</ele>
        <time>2023-01-04T12:22:07.094Z</time>
      </trkpt>
      <trkpt lat="43.38007" lon="1.73574">
        <ele>225.067563</ele>
        <time>2023-01-04T12:22:09.097Z</time>
      </trkpt>
      <trkpt lat="43.38001" lon="1.73591">
        <ele>225.141634</ele>
        <time>2023-01-04T12:22:11.077Z</time>
      </trkpt>
      <trkpt lat="43.37994" lon="1.73606">
        <ele>225.151516</ele>
        <time>2023-01-04T12:22:13.089Z</time>
      </trkpt>
      <trkpt lat="43.37989" lon="1.73622">
        <ele>225.161506</ele>
        <time>2023-01-04T12:22:15.067Z</time>
      </trkpt>
      <trkpt lat="43.37984" lon="1.73638">
        <ele>225.170684</ele>
        <time>2023-01-04T12:22:17.091Z</time>
      </trkpt>
      <trkpt lat="43.37978" lon="1.73652">
        <ele>225.179805</ele>
        <time>2023-01-04T12:22:19.087Z</time>
      </trkpt>
      <trkpt lat="43.37969" lon="1.73669">
        <ele>225.191318</ele>
        <time>2023-01-04T12:22:22.089Z</time>
      </trkpt>
      <trkpt lat="43.37963" lon="1.73685">
        <ele>225.201462</ele>
        <time>2023-01-04T12:22:25.091Z</time>
      </trkpt>
      <trkpt lat="43.37958" lon="1.73699">
        <ele>225.209855</ele>
        <time>2023-01-04T12:22:28.091Z</time>
      </trkpt>
      <trkpt lat="43.37955" lon="1.73712">
        <ele>225.217013</ele>
        <time>2023-01-04T12:22:30.091Z</time>
      </trkpt>
      <trkpt lat="43.37951" lon="1.73724">
        <ele>225.224136</ele>
        <time>2023-01-04T12:22:34.093Z</time>
      </trkpt>
      <trkpt lat="43.37946" lon="1.73736">
        <ele>225.231832</ele>
        <time>2023-01-04T12:22:37.081Z</time>
      </trkpt>
      <trkpt lat="43.3794" lon="1.73751">
        <ele>225.24158</ele>
        <time>2023-01-04T12:22:40.087Z</time>
      </trkpt>
      <trkpt lat="43.37937" lon="1.73771">
        <ele>225.252635</ele>
        <time>2023-01-04T12:22:43.082Z</time>
      </trkpt>
      <trkpt lat="43.37933" lon="1.73782">
        <ele>225.259493</ele>
        <time>2023-01-04T12:22:46.068Z</time>
      </trkpt>
      <trkpt lat="43.37926" lon="1.73796">
        <ele>225.26883</ele>
        <time>2023-01-04T12:22:49.091Z</time>
      </trkpt>
      <trkpt lat="43.37919" lon="1.7381">
        <ele>225.064052</ele>
        <time>2023-01-04T12:22:52.095Z</time>
      </trkpt>
      <trkpt lat="43.37913" lon="1.73826">
        <ele>224.799845</ele>
        <time>2023-01-04T12:22:55.090Z</time>
      </trkpt>
      <trkpt lat="43.37908" lon="1.73836">
        <ele>224.613263</ele>
        <time>2023-01-04T12:22:57.088Z</time>
      </trkpt>
      <trkpt lat="43.37902" lon="1.73848">
        <ele>224.407744</ele>
        <time>2023-01-04T12:22:59.092Z</time>
      </trkpt>
      <trkpt lat="43.37897" lon="1.73859">
        <ele>224.212315</ele>
        <time>2023-01-04T12:23:01.091Z</time>
      </trkpt>
      <trkpt lat="43.37892" lon="1.7387">
        <ele>224.029388</ele>
        <time>2023-01-04T12:23:03.082Z</time>
      </trkpt>
      <trkpt lat="43.37884" lon="1.73883">
        <ele>223.78083</ele>
        <time>2023-01-04T12:23:06.095Z</time>
      </trkpt>
      <trkpt lat="43.37877" lon="1.73896">
        <ele>223.537217</ele>
        <time>2023-01-04T12:23:09.090Z</time>
      </trkpt>
      <trkpt lat="43.3787" lon="1.73904">
        <ele>223.355581</ele>
        <time>2023-01-04T12:23:11.066Z</time>
      </trkpt>
      <trkpt lat="43.37863" lon="1.73913">
        <ele>223.166487</ele>
        <time>2023-01-04T12:23:13.090Z</time>
      </trkpt>
      <trkpt lat="43.37857" lon="1.73922">
        <ele>222.983258</ele>
        <time>2023-01-04T12:23:15.090Z</time>
      </trkpt>
      <trkpt lat="43.3785" lon="1.73931">
        <ele>222.784774</ele>
        <time>2023-01-04T12:23:17.080Z</time>
      </trkpt>
      <trkpt lat="43.37841" lon="1.73943">
        <ele>222.526739</ele>
        <time>2023-01-04T12:23:20.089Z</time>
      </trkpt>
      <trkpt lat="43.37834" lon="1.73951">
        <ele>222.343906</ele>
        <time>2023-01-04T12:23:22.094Z</time>
      </trkpt>
      <trkpt lat="43.37826" lon="1.73962">
        <ele>222.126776</ele>
        <time>2023-01-04T12:23:24.090Z</time>
      </trkpt>
      <trkpt lat="43.37819" lon="1.7397">
        <ele>221.939203</ele>
        <time>2023-01-04T12:23:26.090Z</time>
      </trkpt>
      <trkpt lat="43.37809" lon="1.73981">
        <ele>221.68996</ele>
        <time>2023-01-04T12:23:29.072Z</time>
      </trkpt>
      <trkpt lat="43.378" lon="1.7399">
        <ele>221.500662</ele>
        <time>2023-01-04T12:23:32.093Z</time>
      </trkpt>
      <trkpt lat="43.37791" lon="1.74003">
        <ele>221.295362</ele>
        <time>2023-01-04T12:23:35.083Z</time>
      </trkpt>
      <trkpt lat="43.37782" lon="1.74013">
        <ele>221.102629</ele>
        <time>2023-01-04T12:23:38.076Z</time>
      </trkpt>
      <trkpt lat="43.37774" lon="1.74021">
        <ele>220.95592</ele>
        <time>2023-01-04T12:23:40.072Z</time>
      </trkpt>
      <trkpt lat="43.37766" lon="1.74026">
        <ele>220.809054</ele>
        <time>2023-01-04T12:23:42.065Z</time>
      </trkpt>
      <trkpt lat="43.37755" lon="1.74036">
        <ele>220.605865</ele>
        <time>2023-01-04T12:23:45.092Z</time>
      </trkpt>
      <trkpt lat="43.37747" lon="1.74045">
        <ele>220.440297</ele>
        <time>2023-01-04T12:23:47.090Z</time>
      </trkpt>
      <trkpt lat="43.37736" lon="1.74055">
        <ele>220.235433</ele>
        <time>2023-01-04T12:23:50.094Z</time>
      </trkpt>
      <trkpt lat="43.37728" lon="1.74064">
        <ele>220.077746</ele>
        <time>2023-01-04T12:23:52.093Z</time>
      </trkpt>
      <trkpt lat="43.3772" lon="1.74072">
        <ele>219.915653</ele>
        <time>2023-01-04T12:23:54.090Z</time>
      </trkpt>
      <trkpt lat="43.37709" lon="1.74082">
        <ele>219.713223</ele>
        <time>2023-01-04T12:23:57.087Z</time>
      </trkpt>
      <trkpt lat="43.37702" lon="1.7409">
        <ele>219.571215</ele>
        <time>2023-01-04T12:23:59.068Z</time>
      </trkpt>
      <trkpt lat="43.37694" lon="1.74099">
        <ele>219.403111</ele>
        <time>2023-01-04T12:24:01.087Z</time>
      </trkpt>
      <trkpt lat="43.37687" lon="1.7411">
        <ele>219.247079</ele>
        <time>2023-01-04T12:24:03.080Z</time>
      </trkpt>
      <trkpt lat="43.37677" lon="1.74121">
        <ele>219.042575</ele>
        <time>2023-01-04T12:24:06.090Z</time>
      </trkpt>
      <trkpt lat="43.37672" lon="1.74131">
        <ele>218.896942</ele>
        <time>2023-01-04T12:24:08.081Z</time>
      </trkpt>
      <trkpt lat="43.37667" lon="1.74147">
        <ele>218.741255</ele>
        <time>2023-01-04T12:24:12.083Z</time>
      </trkpt>
      <trkpt lat="43.37663" lon="1.74162">
        <ele>218.637696</ele>
        <time>2023-01-04T12:24:14.090Z</time>
      </trkpt>
      <trkpt lat="43.37657" lon="1.74173">
        <ele>218.543391</ele>
        <time>2023-01-04T12:24:16.090Z</time>
      </trkpt>
      <trkpt lat="43.37651" lon="1.74186">
        <ele>218.435842</ele>
        <time>2023-01-04T12:24:19.066Z</time>
      </trkpt>
      <trkpt lat="43.37646" lon="1.74199">
        <ele>218.337633</ele>
        <time>2023-01-04T12:24:22.094Z</time>
      </trkpt>
      <trkpt lat="43.37642" lon="1.74213">
        <ele>218.23524</ele>
        <time>2023-01-04T12:24:24.090Z</time>
      </trkpt>
      <trkpt lat="43.37637" lon="1.74228">
        <ele>218.122147</ele>
        <time>2023-01-04T12:24:26.082Z</time>
      </trkpt>
      <trkpt lat="43.37632" lon="1.74244">
        <ele>218.005176</ele>
        <time>2023-01-04T12:24:28.093Z</time>
      </trkpt>
      <trkpt lat="43.37629" lon="1.74256">
        <ele>217.918736</ele>
        <time>2023-01-04T12:24:31.091Z</time>
      </trkpt>
      <trkpt lat="43.37624" lon="1.74269">
        <ele>217.824547</ele>
        <time>2023-01-04T12:24:34.092Z</time>
      </trkpt>
      <trkpt lat="43.3762" lon="1.74279">
        <ele>217.740541</ele>
        <time>2023-01-04T12:24:36.086Z</time>
      </trkpt>
      <trkpt lat="43.37612" lon="1.74297">
        <ele>217.602467</ele>
        <time>2023-01-04T12:24:39.094Z</time>
      </trkpt>
      <trkpt lat="43.37608" lon="1.7431">
        <ele>217.505793</ele>
        <time>2023-01-04T12:24:41.070Z</time>
      </trkpt>
      <trkpt lat="43.37604" lon="1.74326">
        <ele>217.389207</ele>
        <time>2023-01-04T12:24:44.081Z</time>
      </trkpt>
      <trkpt lat="43.376" lon="1.74341">
        <ele>217.27984</ele>
        <time>2023-01-04T12:24:46.094Z</time>
      </trkpt>
      <trkpt lat="43.37597" lon="1.74359">
        <ele>217.152397</ele>
        <time>2023-01-04T12:24:48.090Z</time>
      </trkpt>
      <trkpt lat="43.37593" lon="1.74372">
        <ele>217.095488</ele>
        <time>2023-01-04T12:24:50.085Z</time>
      </trkpt>
      <trkpt lat="43.37588" lon="1.74384">
        <ele>217.049176</ele>
        <time>2023-01-04T12:24:52.070Z</time>
      </trkpt>
      <trkpt lat="43.37584" lon="1.74398">
        <ele>217.000197</ele>
        <time>2023-01-04T12:24:54.091Z</time>
      </trkpt>
      <trkpt lat="43.3758" lon="1.74416">
        <ele>216.935674</ele>
        <time>2023-01-04T12:24:56.086Z</time>
      </trkpt>
      <trkpt lat="43.37579" lon="1.74431">
        <ele>216.883473</ele>
        <time>2023-01-04T12:24:58.086Z</time>
      </trkpt>
      <trkpt lat="43.37577" lon="1.74448">
        <ele>216.826279</ele>
        <time>2023-01-04T12:25:00.090Z</time>
      </trkpt>
      <trkpt lat="43.37572" lon="1.74461">
        <ele>216.77789</ele>
        <time>2023-01-04T12:25:03.092Z</time>
      </trkpt>
      <trkpt lat="43.37567" lon="1.74477">
        <ele>216.718976</ele>
        <time>2023-01-04T12:25:06.087Z</time>
      </trkpt>
      <trkpt lat="43.3756" lon="1.74495">
        <ele>216.649792</ele>
        <time>2023-01-04T12:25:09.091Z</time>
      </trkpt>
      <trkpt lat="43.37554" lon="1.7451">
        <ele>216.593851</ele>
        <time>2023-01-04T12:25:11.087Z</time>
      </trkpt>
      <trkpt lat="43.37549" lon="1.74523">
        <ele>216.544825</ele>
        <time>2023-01-04T12:25:13.094Z</time>
      </trkpt>
      <trkpt lat="43.37545" lon="1.74538">
        <ele>216.491446</ele>
        <time>2023-01-04T12:25:16.079Z</time>
      </trkpt>
      <trkpt lat="43.37542" lon="1.74551">
        <ele>216.444871</ele>
        <time>2023-01-04T12:25:18.091Z</time>
      </trkpt>
      <trkpt lat="43.37536" lon="1.74567">
        <ele>216.384085</ele>
        <time>2023-01-04T12:25:20.094Z</time>
      </trkpt>
      <trkpt lat="43.3753" lon="1.74583">
        <ele>216.325229</ele>
        <time>2023-01-04T12:25:22.090Z</time>
      </trkpt>
      <trkpt lat="43.37522" lon="1.74601">
        <ele>216.45485</ele>
        <time>2023-01-04T12:25:25.075Z</time>
      </trkpt>
      <trkpt lat="43.37516" lon="1.74619">
        <ele>216.68344</ele>
        <time>2023-01-04T12:25:28.091Z</time>
      </trkpt>
      <trkpt lat="43.3751" lon="1.74632">
        <ele>216.857384</ele>
        <time>2023-01-04T12:25:30.091Z</time>
      </trkpt>
      <trkpt lat="43.37505" lon="1.74648">
        <ele>217.05711</ele>
        <time>2023-01-04T12:25:33.090Z</time>
      </trkpt>
      <trkpt lat="43.37501" lon="1.74661">
        <ele>217.217097</ele>
        <time>2023-01-04T12:25:35.092Z</time>
      </trkpt>
      <trkpt lat="43.37496" lon="1.74674">
        <ele>217.38201</ele>
        <time>2023-01-04T12:25:37.083Z</time>
      </trkpt>
      <trkpt lat="43.37492" lon="1.74687">
        <ele>217.540944</ele>
        <time>2023-01-04T12:25:40.085Z</time>
      </trkpt>
      <trkpt lat="43.37486" lon="1.74703">
        <ele>217.746448</ele>
        <time>2023-01-04T12:25:43.070Z</time>
      </trkpt>
      <trkpt lat="43.37481" lon="1.74717">
        <ele>217.92149</ele>
        <time>2023-01-04T12:25:46.090Z</time>
      </trkpt>
      <trkpt lat="43.37476" lon="1.74728">
        <ele>218.080584</ele>
        <time>2023-01-04T12:25:48.091Z</time>
      </trkpt>
      <trkpt lat="43.37469" lon="1.74741">
        <ele>218.260755</ele>
        <time>2023-01-04T12:25:50.084Z</time>
      </trkpt>
      <trkpt lat="43.37463" lon="1.74753">
        <ele>218.422875</ele>
        <time>2023-01-04T12:25:52.098Z</time>
      </trkpt>
      <trkpt lat="43.37456" lon="1.74765">
        <ele>218.597781</ele>
        <time>2023-01-04T12:25:54.079Z</time>
      </trkpt>
      <trkpt lat="43.37448" lon="1.74777">
        <ele>218.78349</ele>
        <time>2023-01-04T12:25:57.099Z</time>
      </trkpt>
      <trkpt lat="43.3744" lon="1.74788">
        <ele>218.967723</ele>
        <time>2023-01-04T12:25:59.092Z</time>
      </trkpt>
      <trkpt lat="43.37431" lon="1.74798">
        <ele>219.129797</ele>
        <time>2023-01-04T12:26:01.083Z</time>
      </trkpt>
      <trkpt lat="43.37425" lon="1.7481">
        <ele>219.180533</ele>
        <time>2023-01-04T12:26:03.088Z</time>
      </trkpt>
      <trkpt lat="43.37418" lon="1.74821">
        <ele>219.228695</ele>
        <time>2023-01-04T12:26:05.087Z</time>
      </trkpt>
      <trkpt lat="43.37412" lon="1.74832">
        <ele>219.27584</ele>
        <time>2023-01-04T12:26:07.091Z</time>
      </trkpt>
      <trkpt lat="43.37401" lon="1.74844">
        <ele>219.341605</ele>
        <time>2023-01-04T12:26:09.082Z</time>
      </trkpt>
      <trkpt lat="43.37395" lon="1.74854">
        <ele>219.385512</ele>
        <time>2023-01-04T12:26:11.080Z</time>
      </trkpt>
      <trkpt lat="43.37388" lon="1.74864">
        <ele>219.435484</ele>
        <time>2023-01-04T12:26:13.089Z</time>
      </trkpt>
      <trkpt lat="43.37381" lon="1.74873">
        <ele>219.480849</ele>
        <time>2023-01-04T12:26:15.090Z</time>
      </trkpt>
      <trkpt lat="43.37373" lon="1.74884">
        <ele>219.532199</ele>
        <time>2023-01-04T12:26:17.090Z</time>
      </trkpt>
      <trkpt lat="43.37366" lon="1.74896">
        <ele>219.584013</ele>
        <time>2023-01-04T12:26:20.067Z</time>
      </trkpt>
      <trkpt lat="43.3736" lon="1.74906">
        <ele>219.626053</ele>
        <time>2023-01-04T12:26:22.090Z</time>
      </trkpt>
      <trkpt lat="43.37354" lon="1.74922">
        <ele>219.687664</ele>
        <time>2023-01-04T12:26:25.086Z</time>
      </trkpt>
      <trkpt lat="43.37346" lon="1.7493">
        <ele>219.735108</ele>
        <time>2023-01-04T12:26:27.085Z</time>
      </trkpt>
      <trkpt lat="43.37337" lon="1.74941">
        <ele>219.792063</ele>
        <time>2023-01-04T12:26:30.093Z</time>
      </trkpt>
      <trkpt lat="43.37329" lon="1.74951">
        <ele>219.842189</ele>
        <time>2023-01-04T12:26:33.087Z</time>
      </trkpt>
      <trkpt lat="43.37322" lon="1.74962">
        <ele>219.89097</ele>
        <time>2023-01-04T12:26:35.095Z</time>
      </trkpt>
      <trkpt lat="43.37316" lon="1.74972">
        <ele>219.935467</ele>
        <time>2023-01-04T12:26:37.089Z</time>
      </trkpt>
      <trkpt lat="43.37311" lon="1.74985">
        <ele>219.873156</ele>
        <time>2023-01-04T12:26:39.091Z</time>
      </trkpt>
      <trkpt lat="43.373" lon="1.74996">
        <ele>219.623143</ele>
        <time>2023-01-04T12:26:41.087Z</time>
      </trkpt>
      <trkpt lat="43.37293" lon="1.75007">
        <ele>219.426354</ele>
        <time>2023-01-04T12:26:43.089Z</time>
      </trkpt>
      <trkpt lat="43.37286" lon="1.75021">
        <ele>219.19637</ele>
        <time>2023-01-04T12:26:46.091Z</time>
      </trkpt>
      <trkpt lat="43.37276" lon="1.75035">
        <ele>218.926777</ele>
        <time>2023-01-04T12:26:49.069Z</time>
      </trkpt>
      <trkpt lat="43.37269" lon="1.75048">
        <ele>218.721696</ele>
        <time>2023-01-04T12:26:51.082Z</time>
      </trkpt>
      <trkpt lat="43.37264" lon="1.75058">
        <ele>218.548407</ele>
        <time>2023-01-04T12:26:53.086Z</time>
      </trkpt>
      <trkpt lat="43.37256" lon="1.75073">
        <ele>218.302111</ele>
        <time>2023-01-04T12:26:56.084Z</time>
      </trkpt>
      <trkpt lat="43.37249" lon="1.75084">
        <ele>218.102584</ele>
        <time>2023-01-04T12:26:59.078Z</time>
      </trkpt>
      <trkpt lat="43.37245" lon="1.75098">
        <ele>217.90722</ele>
        <time>2023-01-04T12:27:01.086Z</time>
      </trkpt>
      <trkpt lat="43.37239" lon="1.75107">
        <ele>217.739453</ele>
        <time>2023-01-04T12:27:02.057Z</time>
      </trkpt>
      <trkpt lat="43.37236" lon="1.7512">
        <ele>217.55139</ele>
        <time>2023-01-04T12:27:04.088Z</time>
      </trkpt>
      <trkpt lat="43.37229" lon="1.75131">
        <ele>217.354927</ele>
        <time>2023-01-04T12:27:06.090Z</time>
      </trkpt>
      <trkpt lat="43.37223" lon="1.75152">
        <ele>217.056308</ele>
        <time>2023-01-04T12:27:08.087Z</time>
      </trkpt>
      <trkpt lat="43.37219" lon="1.75166">
        <ele>216.851796</ele>
        <time>2023-01-04T12:27:10.091Z</time>
      </trkpt>
      <trkpt lat="43.37213" lon="1.75176">
        <ele>216.679525</ele>
        <time>2023-01-04T12:27:12.093Z</time>
      </trkpt>
      <trkpt lat="43.37211" lon="1.75192">
        <ele>216.587295</ele>
        <time>2023-01-04T12:27:14.066Z</time>
      </trkpt>
      <trkpt lat="43.37205" lon="1.75205">
        <ele>216.539564</ele>
        <time>2023-01-04T12:27:16.090Z</time>
      </trkpt>
      <trkpt lat="43.37204" lon="1.7522">
        <ele>216.49125</ele>
        <time>2023-01-04T12:27:18.080Z</time>
      </trkpt>
      <trkpt lat="43.37201" lon="1.75233">
        <ele>216.444702</ele>
        <time>2023-01-04T12:27:20.090Z</time>
      </trkpt>
      <trkpt lat="43.37196" lon="1.75248">
        <ele>216.389954</ele>
        <time>2023-01-04T12:27:23.091Z</time>
      </trkpt>
      <trkpt lat="43.3719" lon="1.75265">
        <ele>216.330237</ele>
        <time>2023-01-04T12:27:26.094Z</time>
      </trkpt>
      <trkpt lat="43.37183" lon="1.7528">
        <ele>216.273849</ele>
        <time>2023-01-04T12:27:29.081Z</time>
      </trkpt>
      <trkpt lat="43.37178" lon="1.75296">
        <ele>216.216991</ele>
        <time>2023-01-04T12:27:31.092Z</time>
      </trkpt>
      <trkpt lat="43.37173" lon="1.75308">
        <ele>216.173008</ele>
        <time>2023-01-04T12:27:33.091Z</time>
      </trkpt>
      <trkpt lat="43.37167" lon="1.75323">
        <ele>216.117334</ele>
        <time>2023-01-04T12:27:35.086Z</time>
      </trkpt>
      <trkpt lat="43.37161" lon="1.75334">
        <ele>216.072402</ele>
        <time>2023-01-04T12:27:37.084Z</time>
      </trkpt>
      <trkpt lat="43.37157" lon="1.75345">
        <ele>216.030907</ele>
        <time>2023-01-04T12:27:39.066Z</time>
      </trkpt>
      <trkpt lat="43.37151" lon="1.75358">
        <ele>215.980898</ele>
        <time>2023-01-04T12:27:41.084Z</time>
      </trkpt>
      <trkpt lat="43.37144" lon="1.75369">
        <ele>215.934087</ele>
        <time>2023-01-04T12:27:43.092Z</time>
      </trkpt>
      <trkpt lat="43.37138" lon="1.7538">
        <ele>215.88732</ele>
        <time>2023-01-04T12:27:45.090Z</time>
      </trkpt>
      <trkpt lat="43.37128" lon="1.75395">
        <ele>215.829765</ele>
        <time>2023-01-04T12:27:48.087Z</time>
      </trkpt>
      <trkpt lat="43.3712" lon="1.75404">
        <ele>216.384237</ele>
        <time>2023-01-04T12:27:50.082Z</time>
      </trkpt>
      <trkpt lat="43.37111" lon="1.75415">
        <ele>217.075845</ele>
        <time>2023-01-04T12:27:53.083Z</time>
      </trkpt>
      <trkpt lat="43.37101" lon="1.75424">
        <ele>217.685134</ele>
        <time>2023-01-04T12:27:56.092Z</time>
      </trkpt>
      <trkpt lat="43.37094" lon="1.75436">
        <ele>218.276735</ele>
        <time>2023-01-04T12:27:59.069Z</time>
      </trkpt>
      <trkpt lat="43.37087" lon="1.75447">
        <ele>218.838176</ele>
        <time>2023-01-04T12:28:02.083Z</time>
      </trkpt>
      <trkpt lat="43.37079" lon="1.75454">
        <ele>219.361752</ele>
        <time>2023-01-04T12:28:04.090Z</time>
      </trkpt>
      <trkpt lat="43.37069" lon="1.75462">
        <ele>219.9625</ele>
        <time>2023-01-04T12:28:06.093Z</time>
      </trkpt>
      <trkpt lat="43.3706" lon="1.75467">
        <ele>220.490057</ele>
        <time>2023-01-04T12:28:08.090Z</time>
      </trkpt>
      <trkpt lat="43.37049" lon="1.75477">
        <ele>221.194505</ele>
        <time>2023-01-04T12:28:11.090Z</time>
      </trkpt>
      <trkpt lat="43.37039" lon="1.75489">
        <ele>221.890233</ele>
        <time>2023-01-04T12:28:14.093Z</time>
      </trkpt>
      <trkpt lat="43.37029" lon="1.75497">
        <ele>222.521648</ele>
        <time>2023-01-04T12:28:17.077Z</time>
      </trkpt>
      <trkpt lat="43.37019" lon="1.75508">
        <ele>223.224405</ele>
        <time>2023-01-04T12:28:20.069Z</time>
      </trkpt>
      <trkpt lat="43.3701" lon="1.75517">
        <ele>223.8004</ele>
        <time>2023-01-04T12:28:23.090Z</time>
      </trkpt>
      <trkpt lat="43.37002" lon="1.75523">
        <ele>224.306711</ele>
        <time>2023-01-04T12:28:25.065Z</time>
      </trkpt>
      <trkpt lat="43.36992" lon="1.75534">
        <ele>224.958895</ele>
        <time>2023-01-04T12:28:28.092Z</time>
      </trkpt>
      <trkpt lat="43.36985" lon="1.75542">
        <ele>225.471993</ele>
        <time>2023-01-04T12:28:31.071Z</time>
      </trkpt>
      <trkpt lat="43.36977" lon="1.75552">
        <ele>225.851701</ele>
        <time>2023-01-04T12:28:34.065Z</time>
      </trkpt>
      <trkpt lat="43.36966" lon="1.75561">
        <ele>226.286656</ele>
        <time>2023-01-04T12:28:37.087Z</time>
      </trkpt>
      <trkpt lat="43.36958" lon="1.75571">
        <ele>226.669499</ele>
        <time>2023-01-04T12:28:40.076Z</time>
      </trkpt>
      <trkpt lat="43.36948" lon="1.75579">
        <ele>227.075207</ele>
        <time>2023-01-04T12:28:43.070Z</time>
      </trkpt>
      <trkpt lat="43.3694" lon="1.75586">
        <ele>227.395432</ele>
        <time>2023-01-04T12:28:45.089Z</time>
      </trkpt>
      <trkpt lat="43.36929" lon="1.75594">
        <ele>227.832834</ele>
        <time>2023-01-04T12:28:48.091Z</time>
      </trkpt>
      <trkpt lat="43.3692" lon="1.75604">
        <ele>228.229283</ele>
        <time>2023-01-04T12:28:52.082Z</time>
      </trkpt>
      <trkpt lat="43.3691" lon="1.7561">
        <ele>228.60056</ele>
        <time>2023-01-04T12:28:55.086Z</time>
      </trkpt>
      <trkpt lat="43.36898" lon="1.75617">
        <ele>229.055994</ele>
        <time>2023-01-04T12:28:58.069Z</time>
      </trkpt>
      <trkpt lat="43.36888" lon="1.75626">
        <ele>229.477831</ele>
        <time>2023-01-04T12:29:01.090Z</time>
      </trkpt>
      <trkpt lat="43.36877" lon="1.75635">
        <ele>229.915488</ele>
        <time>2023-01-04T12:29:04.090Z</time>
      </trkpt>
      <trkpt lat="43.36869" lon="1.75643">
        <ele>230.272586</ele>
        <time>2023-01-04T12:29:07.070Z</time>
      </trkpt>
      <trkpt lat="43.36861" lon="1.7565">
        <ele>230.596858</ele>
        <time>2023-01-04T12:29:10.084Z</time>
      </trkpt>
      <trkpt lat="43.36853" lon="1.75661">
        <ele>231.00011</ele>
        <time>2023-01-04T12:29:14.092Z</time>
      </trkpt>
      <trkpt lat="43.36847" lon="1.7567">
        <ele>231.315554</ele>
        <time>2023-01-04T12:29:18.093Z</time>
      </trkpt>
      <trkpt lat="43.3684" lon="1.7568">
        <ele>231.649925</ele>
        <time>2023-01-04T12:29:25.069Z</time>
      </trkpt>
      <trkpt lat="43.36834" lon="1.7569">
        <ele>231.559574</ele>
        <time>2023-01-04T12:29:41.089Z</time>
      </trkpt>
      <trkpt lat="43.3683" lon="1.75701">
        <ele>231.353501</ele>
        <time>2023-01-04T12:29:45.092Z</time>
      </trkpt>
      <trkpt lat="43.3682" lon="1.75713">
        <ele>231.070366</ele>
        <time>2023-01-04T12:29:48.076Z</time>
      </trkpt>
      <trkpt lat="43.36813" lon="1.75722">
        <ele>230.857494</ele>
        <time>2023-01-04T12:29:50.091Z</time>
      </trkpt>
      <trkpt lat="43.36804" lon="1.7573">
        <ele>230.612667</ele>
        <time>2023-01-04T12:29:53.092Z</time>
      </trkpt>
      <trkpt lat="43.36795" lon="1.75737">
        <ele>230.390137</ele>
        <time>2023-01-04T12:29:56.094Z</time>
      </trkpt>
      <trkpt lat="43.36788" lon="1.75746">
        <ele>230.17738</ele>
        <time>2023-01-04T12:29:59.080Z</time>
      </trkpt>
      <trkpt lat="43.36779" lon="1.75756">
        <ele>229.925158</ele>
        <time>2023-01-04T12:30:02.090Z</time>
      </trkpt>
      <trkpt lat="43.36772" lon="1.75768">
        <ele>229.68907</ele>
        <time>2023-01-04T12:30:05.091Z</time>
      </trkpt>
      <trkpt lat="43.36764" lon="1.75778">
        <ele>229.442502</ele>
        <time>2023-01-04T12:30:08.094Z</time>
      </trkpt>
      <trkpt lat="43.36757" lon="1.75792">
        <ele>229.164875</ele>
        <time>2023-01-04T12:30:11.077Z</time>
      </trkpt>
      <trkpt lat="43.36749" lon="1.75802">
        <ele>228.939803</ele>
        <time>2023-01-04T12:30:14.084Z</time>
      </trkpt>
      <trkpt lat="43.36744" lon="1.75814">
        <ele>228.7064</ele>
        <time>2023-01-04T12:30:17.089Z</time>
      </trkpt>
      <trkpt lat="43.36736" lon="1.75829">
        <ele>228.417401</ele>
        <time>2023-01-04T12:30:20.091Z</time>
      </trkpt>
      <trkpt lat="43.36728" lon="1.75842">
        <ele>228.134645</ele>
        <time>2023-01-04T12:30:23.090Z</time>
      </trkpt>
      <trkpt lat="43.3672" lon="1.75856">
        <ele>227.863824</ele>
        <time>2023-01-04T12:30:26.097Z</time>
      </trkpt>
      <trkpt lat="43.36714" lon="1.7587">
        <ele>227.68816</ele>
        <time>2023-01-04T12:30:29.090Z</time>
      </trkpt>
      <trkpt lat="43.36709" lon="1.75884">
        <ele>227.572563</ele>
        <time>2023-01-04T12:30:32.078Z</time>
      </trkpt>
      <trkpt lat="43.36704" lon="1.75898">
        <ele>227.459709</ele>
        <time>2023-01-04T12:30:35.092Z</time>
      </trkpt>
      <trkpt lat="43.36698" lon="1.75911">
        <ele>227.351671</ele>
        <time>2023-01-04T12:30:38.068Z</time>
      </trkpt>
      <trkpt lat="43.36692" lon="1.75926">
        <ele>227.233344</ele>
        <time>2023-01-04T12:30:41.091Z</time>
      </trkpt>
      <trkpt lat="43.36686" lon="1.75941">
        <ele>227.108375</ele>
        <time>2023-01-04T12:30:44.092Z</time>
      </trkpt>
      <trkpt lat="43.36681" lon="1.75952">
        <ele>227.015528</ele>
        <time>2023-01-04T12:30:46.069Z</time>
      </trkpt>
      <trkpt lat="43.36675" lon="1.75964">
        <ele>226.910838</ele>
        <time>2023-01-04T12:30:48.091Z</time>
      </trkpt>
      <trkpt lat="43.3667" lon="1.75977">
        <ele>226.808538</ele>
        <time>2023-01-04T12:30:50.090Z</time>
      </trkpt>
      <trkpt lat="43.36664" lon="1.75994">
        <ele>226.67402</ele>
        <time>2023-01-04T12:30:53.092Z</time>
      </trkpt>
      <trkpt lat="43.36658" lon="1.7601">
        <ele>226.544473</ele>
        <time>2023-01-04T12:30:56.076Z</time>
      </trkpt>
      <trkpt lat="43.36652" lon="1.76023">
        <ele>226.435418</ele>
        <time>2023-01-04T12:30:59.092Z</time>
      </trkpt>
      <trkpt lat="43.36648" lon="1.76037">
        <ele>226.328584</ele>
        <time>2023-01-04T12:31:02.093Z</time>
      </trkpt>
      <trkpt lat="43.36642" lon="1.76052">
        <ele>226.200213</ele>
        <time>2023-01-04T12:31:05.096Z</time>
      </trkpt>
      <trkpt lat="43.36637" lon="1.76064">
        <ele>226.105632</ele>
        <time>2023-01-04T12:31:07.086Z</time>
      </trkpt>
      <trkpt lat="43.36631" lon="1.76076">
        <ele>225.999675</ele>
        <time>2023-01-04T12:31:09.092Z</time>
      </trkpt>
      <trkpt lat="43.36625" lon="1.7609">
        <ele>226.088482</ele>
        <time>2023-01-04T12:31:11.071Z</time>
      </trkpt>
      <trkpt lat="43.36621" lon="1.76106">
        <ele>226.204544</ele>
        <time>2023-01-04T12:31:13.073Z</time>
      </trkpt>
      <trkpt lat="43.36617" lon="1.76118">
        <ele>226.297381</ele>
        <time>2023-01-04T12:31:15.086Z</time>
      </trkpt>
      <trkpt lat="43.36613" lon="1.76135">
        <ele>226.416683</ele>
        <time>2023-01-04T12:31:18.090Z</time>
      </trkpt>
      <trkpt lat="43.3661" lon="1.76147">
        <ele>226.505983</ele>
        <time>2023-01-04T12:31:20.090Z</time>
      </trkpt>
      <trkpt lat="43.36607" lon="1.76159">
        <ele>226.595169</ele>
        <time>2023-01-04T12:31:22.086Z</time>
      </trkpt>
      <trkpt lat="43.36603" lon="1.76176">
        <ele>226.712881</ele>
        <time>2023-01-04T12:31:25.086Z</time>
      </trkpt>
      <trkpt lat="43.366" lon="1.76188">
        <ele>226.805134</ele>
        <time>2023-01-04T12:31:27.071Z</time>
      </trkpt>
      <trkpt lat="43.36597" lon="1.76205">
        <ele>226.92247</ele>
        <time>2023-01-04T12:31:29.091Z</time>
      </trkpt>
      <trkpt lat="43.36595" lon="1.76222">
        <ele>227.03839</ele>
        <time>2023-01-04T12:31:31.072Z</time>
      </trkpt>
      <trkpt lat="43.36591" lon="1.76239">
        <ele>227.16236</ele>
        <time>2023-01-04T12:31:33.086Z</time>
      </trkpt>
      <trkpt lat="43.3659" lon="1.76253">
        <ele>227.261469</ele>
        <time>2023-01-04T12:31:35.091Z</time>
      </trkpt>
      <trkpt lat="43.36589" lon="1.76267">
        <ele>227.356362</ele>
        <time>2023-01-04T12:31:37.090Z</time>
      </trkpt>
      <trkpt lat="43.36587" lon="1.76281">
        <ele>227.455286</ele>
        <time>2023-01-04T12:31:39.070Z</time>
      </trkpt>
      <trkpt lat="43.36586" lon="1.76299">
        <ele>227.577068</ele>
        <time>2023-01-04T12:31:42.090Z</time>
      </trkpt>
      <trkpt lat="43.36583" lon="1.76315">
        <ele>227.689362</ele>
        <time>2023-01-04T12:31:45.072Z</time>
      </trkpt>
      <trkpt lat="43.36581" lon="1.76331">
        <ele>227.743516</ele>
        <time>2023-01-04T12:31:48.089Z</time>
      </trkpt>
      <trkpt lat="43.36579" lon="1.76344">
        <ele>227.787726</ele>
        <time>2023-01-04T12:31:51.089Z</time>
      </trkpt>
      <trkpt lat="43.36576" lon="1.76359">
        <ele>227.841112</ele>
        <time>2023-01-04T12:31:54.093Z</time>
      </trkpt>
      <trkpt lat="43.36572" lon="1.76376">
        <ele>227.900386</ele>
        <time>2023-01-04T12:31:57.077Z</time>
      </trkpt>
      <trkpt lat="43.36569" lon="1.76391">
        <ele>227.95507</ele>
        <time>2023-01-04T12:32:00.078Z</time>
      </trkpt>
      <trkpt lat="43.36566" lon="1.76404">
        <ele>228.002899</ele>
        <time>2023-01-04T12:32:03.071Z</time>
      </trkpt>
      <trkpt lat="43.36563" lon="1.76418">
        <ele>228.050821</ele>
        <time>2023-01-04T12:32:06.094Z</time>
      </trkpt>
      <trkpt lat="43.36557" lon="1.76434">
        <ele>228.111086</ele>
        <time>2023-01-04T12:32:09.090Z</time>
      </trkpt>
      <trkpt lat="43.3655" lon="1.76444">
        <ele>228.157992</ele>
        <time>2023-01-04T12:32:11.080Z</time>
      </trkpt>
      <trkpt lat="43.36545" lon="1.76458">
        <ele>228.212659</ele>
        <time>2023-01-04T12:32:13.087Z</time>
      </trkpt>
      <trkpt lat="43.36538" lon="1.7647">
        <ele>228.265447</ele>
        <time>2023-01-04T12:32:15.089Z</time>
      </trkpt>
      <trkpt lat="43.3653" lon="1.76485">
        <ele>228.326465</ele>
        <time>2023-01-04T12:32:17.091Z</time>
      </trkpt>
      <trkpt lat="43.36525" lon="1.76499">
        <ele>228.381806</ele>
        <time>2023-01-04T12:32:19.083Z</time>
      </trkpt>
      <trkpt lat="43.36519" lon="1.76512">
        <ele>228.433921</ele>
        <time>2023-01-04T12:32:21.089Z</time>
      </trkpt>
      <trkpt lat="43.36513" lon="1.76526">
        <ele>228.487732</ele>
        <time>2023-01-04T12:32:23.090Z</time>
      </trkpt>
      <trkpt lat="43.36507" lon="1.76538">
        <ele>228.539007</ele>
        <time>2023-01-04T12:32:25.083Z</time>
      </trkpt>
      <trkpt lat="43.36503" lon="1.7655">
        <ele>228.591642</ele>
        <time>2023-01-04T12:32:27.091Z</time>
      </trkpt>
      <trkpt lat="43.36498" lon="1.76564">
        <ele>228.648367</ele>
        <time>2023-01-04T12:32:29.092Z</time>
      </trkpt>
      <trkpt lat="43.36493" lon="1.76578">
        <ele>228.71146</ele>
        <time>2023-01-04T12:32:31.089Z</time>
      </trkpt>
      <trkpt lat="43.36487" lon="1.76593">
        <ele>228.776074</ele>
        <time>2023-01-04T12:32:33.087Z</time>
      </trkpt>
      <trkpt lat="43.36482" lon="1.76607">
        <ele>228.836019</ele>
        <time>2023-01-04T12:32:35.083Z</time>
      </trkpt>
      <trkpt lat="43.36478" lon="1.7662">
        <ele>228.892637</ele>
        <time>2023-01-04T12:32:37.091Z</time>
      </trkpt>
      <trkpt lat="43.36472" lon="1.76635">
        <ele>228.955715</ele>
        <time>2023-01-04T12:32:39.090Z</time>
      </trkpt>
      <trkpt lat="43.36467" lon="1.76648">
        <ele>229.013948</ele>
        <time>2023-01-04T12:32:41.091Z</time>
      </trkpt>
      <trkpt lat="43.36462" lon="1.76662">
        <ele>229.074703</ele>
        <time>2023-01-04T12:32:43.089Z</time>
      </trkpt>
      <trkpt lat="43.36458" lon="1.76674">
        <ele>229.126514</ele>
        <time>2023-01-04T12:32:45.091Z</time>
      </trkpt>
      <trkpt lat="43.36454" lon="1.76689">
        <ele>229.186389</ele>
        <time>2023-01-04T12:32:47.091Z</time>
      </trkpt>
      <trkpt lat="43.36448" lon="1.76704">
        <ele>229.253119</ele>
        <time>2023-01-04T12:32:49.081Z</time>
      </trkpt>
      <trkpt lat="43.36444" lon="1.76717">
        <ele>229.311437</ele>
        <time>2023-01-04T12:32:51.094Z</time>
      </trkpt>
      <trkpt lat="43.3644" lon="1.7673">
        <ele>229.365673</ele>
        <time>2023-01-04T12:32:53.091Z</time>
      </trkpt>
      <trkpt lat="43.36437" lon="1.76744">
        <ele>229.419898</ele>
        <time>2023-01-04T12:32:55.091Z</time>
      </trkpt>
      <trkpt lat="43.36433" lon="1.76758">
        <ele>229.481381</ele>
        <time>2023-01-04T12:32:57.091Z</time>
      </trkpt>
      <trkpt lat="43.36429" lon="1.76771">
        <ele>229.443915</ele>
        <time>2023-01-04T12:32:59.091Z</time>
      </trkpt>
      <trkpt lat="43.36427" lon="1.76784">
        <ele>229.401951</ele>
        <time>2023-01-04T12:33:01.090Z</time>
      </trkpt>
      <trkpt lat="43.3642" lon="1.768">
        <ele>229.340276</ele>
        <time>2023-01-04T12:33:04.089Z</time>
      </trkpt>
      <trkpt lat="43.36416" lon="1.76816">
        <ele>229.287031</ele>
        <time>2023-01-04T12:33:07.092Z</time>
      </trkpt>
      <trkpt lat="43.36414" lon="1.76831">
        <ele>229.237756</ele>
        <time>2023-01-04T12:33:10.069Z</time>
      </trkpt>
      <trkpt lat="43.36412" lon="1.76848">
        <ele>229.180816</ele>
        <time>2023-01-04T12:33:13.095Z</time>
      </trkpt>
      <trkpt lat="43.3641" lon="1.76861">
        <ele>229.13885</ele>
        <time>2023-01-04T12:33:15.089Z</time>
      </trkpt>
      <trkpt lat="43.36408" lon="1.76874">
        <ele>229.095677</ele>
        <time>2023-01-04T12:33:17.089Z</time>
      </trkpt>
      <trkpt lat="43.36407" lon="1.76886">
        <ele>229.054172</ele>
        <time>2023-01-04T12:33:19.095Z</time>
      </trkpt>
      <trkpt lat="43.36407" lon="1.769">
        <ele>229.010431</ele>
        <time>2023-01-04T12:33:21.092Z</time>
      </trkpt>
      <trkpt lat="43.36406" lon="1.76914">
        <ele>228.962761</ele>
        <time>2023-01-04T12:33:23.089Z</time>
      </trkpt>
      <trkpt lat="43.36404" lon="1.7693">
        <ele>228.911401</ele>
        <time>2023-01-04T12:33:25.060Z</time>
      </trkpt>
      <trkpt lat="43.36403" lon="1.76945">
        <ele>228.86049</ele>
        <time>2023-01-04T12:33:27.085Z</time>
      </trkpt>
      <trkpt lat="43.36401" lon="1.7696">
        <ele>228.811451</ele>
        <time>2023-01-04T12:33:29.092Z</time>
      </trkpt>
      <trkpt lat="43.36399" lon="1.76975">
        <ele>228.764344</ele>
        <time>2023-01-04T12:33:31.092Z</time>
      </trkpt>
      <trkpt lat="43.36398" lon="1.76989">
        <ele>228.71613</ele>
        <time>2023-01-04T12:33:33.086Z</time>
      </trkpt>
      <trkpt lat="43.36395" lon="1.77004">
        <ele>228.680623</ele>
        <time>2023-01-04T12:33:35.091Z</time>
      </trkpt>
      <trkpt lat="43.36394" lon="1.77018">
        <ele>228.683757</ele>
        <time>2023-01-04T12:33:37.094Z</time>
      </trkpt>
      <trkpt lat="43.36392" lon="1.77034">
        <ele>228.687403</ele>
        <time>2023-01-04T12:33:39.070Z</time>
      </trkpt>
      <trkpt lat="43.36391" lon="1.77051">
        <ele>228.691266</ele>
        <time>2023-01-04T12:33:41.088Z</time>
      </trkpt>
      <trkpt lat="43.36388" lon="1.77065">
        <ele>228.694518</ele>
        <time>2023-01-04T12:33:43.094Z</time>
      </trkpt>
      <trkpt lat="43.36387" lon="1.77081">
        <ele>228.698108</ele>
        <time>2023-01-04T12:33:45.090Z</time>
      </trkpt>
      <trkpt lat="43.36384" lon="1.77097">
        <ele>228.701883</ele>
        <time>2023-01-04T12:33:47.090Z</time>
      </trkpt>
      <trkpt lat="43.36382" lon="1.77111">
        <ele>228.705184</ele>
        <time>2023-01-04T12:33:49.090Z</time>
      </trkpt>
      <trkpt lat="43.3638" lon="1.77127">
        <ele>228.70882</ele>
        <time>2023-01-04T12:33:51.092Z</time>
      </trkpt>
      <trkpt lat="43.36378" lon="1.77142">
        <ele>228.712199</ele>
        <time>2023-01-04T12:33:53.086Z</time>
      </trkpt>
      <trkpt lat="43.36377" lon="1.77156">
        <ele>228.715573</ele>
        <time>2023-01-04T12:33:55.090Z</time>
      </trkpt>
      <trkpt lat="43.36377" lon="1.77171">
        <ele>228.718971</ele>
        <time>2023-01-04T12:33:57.090Z</time>
      </trkpt>
      <trkpt lat="43.36373" lon="1.77187">
        <ele>228.722655</ele>
        <time>2023-01-04T12:33:59.089Z</time>
      </trkpt>
      <trkpt lat="43.36369" lon="1.77204">
        <ele>228.726627</ele>
        <time>2023-01-04T12:34:01.090Z</time>
      </trkpt>
      <trkpt lat="43.36365" lon="1.77218">
        <ele>228.730175</ele>
        <time>2023-01-04T12:34:03.085Z</time>
      </trkpt>
      <trkpt lat="43.3636" lon="1.77235">
        <ele>228.734223</ele>
        <time>2023-01-04T12:34:05.091Z</time>
      </trkpt>
      <trkpt lat="43.36356" lon="1.7725">
        <ele>228.947223</ele>
        <time>2023-01-04T12:34:07.087Z</time>
      </trkpt>
      <trkpt lat="43.36352" lon="1.77264">
        <ele>229.257448</ele>
        <time>2023-01-04T12:34:09.066Z</time>
      </trkpt>
      <trkpt lat="43.36347" lon="1.7728">
        <ele>229.620095</ele>
        <time>2023-01-04T12:34:12.093Z</time>
      </trkpt>
      <trkpt lat="43.36343" lon="1.77294">
        <ele>229.915538</ele>
        <time>2023-01-04T12:34:15.085Z</time>
      </trkpt>
      <trkpt lat="43.3634" lon="1.77306">
        <ele>230.182099</ele>
        <time>2023-01-04T12:34:19.085Z</time>
      </trkpt>
      <trkpt lat="43.36335" lon="1.77317">
        <ele>230.457672</ele>
        <time>2023-01-04T12:34:22.088Z</time>
      </trkpt>
      <trkpt lat="43.3633" lon="1.77331">
        <ele>230.773632</ele>
        <time>2023-01-04T12:34:25.089Z</time>
      </trkpt>
      <trkpt lat="43.36326" lon="1.77342">
        <ele>231.029938</ele>
        <time>2023-01-04T12:34:28.072Z</time>
      </trkpt>
      <trkpt lat="43.36324" lon="1.77356">
        <ele>231.315351</ele>
        <time>2023-01-04T12:34:33.101Z</time>
      </trkpt>
      <trkpt lat="43.36315" lon="1.77362">
        <ele>231.595038</ele>
        <time>2023-01-04T12:34:45.094Z</time>
      </trkpt>
      <trkpt lat="43.36312" lon="1.77375">
        <ele>231.87148</ele>
        <time>2023-01-04T12:34:55.088Z</time>
      </trkpt>
      <trkpt lat="43.3631" lon="1.77387">
        <ele>232.145131</ele>
        <time>2023-01-04T12:34:59.097Z</time>
      </trkpt>
      <trkpt lat="43.36307" lon="1.774">
        <ele>232.41846</ele>
        <time>2023-01-04T12:35:02.091Z</time>
      </trkpt>
      <trkpt lat="43.36302" lon="1.77413">
        <ele>232.721301</ele>
        <time>2023-01-04T12:35:05.083Z</time>
      </trkpt>
      <trkpt lat="43.36298" lon="1.77427">
        <ele>233.041135</ele>
        <time>2023-01-04T12:35:08.089Z</time>
      </trkpt>
      <trkpt lat="43.36293" lon="1.77444">
        <ele>233.408132</ele>
        <time>2023-01-04T12:35:11.093Z</time>
      </trkpt>
      <trkpt lat="43.36289" lon="1.77456">
        <ele>233.679609</ele>
        <time>2023-01-04T12:35:13.086Z</time>
      </trkpt>
      <trkpt lat="43.36284" lon="1.7747">
        <ele>233.801421</ele>
        <time>2023-01-04T12:35:15.089Z</time>
      </trkpt>
      <trkpt lat="43.36278" lon="1.77481">
        <ele>233.706043</ele>
        <time>2023-01-04T12:35:17.076Z</time>
      </trkpt>
      <trkpt lat="43.36274" lon="1.77498">
        <ele>233.582368</ele>
        <time>2023-01-04T12:35:20.082Z</time>
      </trkpt>
      <trkpt lat="43.3627" lon="1.77513">
        <ele>233.476934</ele>
        <time>2023-01-04T12:35:22.072Z</time>
      </trkpt>
      <trkpt lat="43.36265" lon="1.77525">
        <ele>233.383577</ele>
        <time>2023-01-04T12:35:24.085Z</time>
      </trkpt>
      <trkpt lat="43.36262" lon="1.77539">
        <ele>233.280758</ele>
        <time>2023-01-04T12:35:26.090Z</time>
      </trkpt>
      <trkpt lat="43.36258" lon="1.77551">
        <ele>233.195038</ele>
        <time>2023-01-04T12:35:28.070Z</time>
      </trkpt>
      <trkpt lat="43.36253" lon="1.77563">
        <ele>233.102821</ele>
        <time>2023-01-04T12:35:30.089Z</time>
      </trkpt>
      <trkpt lat="43.36249" lon="1.77574">
        <ele>233.016315</ele>
        <time>2023-01-04T12:35:32.084Z</time>
      </trkpt>
      <trkpt lat="43.36246" lon="1.77586">
        <ele>232.926283</ele>
        <time>2023-01-04T12:35:34.092Z</time>
      </trkpt>
      <trkpt lat="43.36242" lon="1.77598">
        <ele>232.836687</ele>
        <time>2023-01-04T12:35:36.095Z</time>
      </trkpt>
      <trkpt lat="43.36238" lon="1.7761">
        <ele>232.750584</ele>
        <time>2023-01-04T12:35:38.071Z</time>
      </trkpt>
      <trkpt lat="43.36235" lon="1.77622">
        <ele>232.661849</ele>
        <time>2023-01-04T12:35:40.091Z</time>
      </trkpt>
      <trkpt lat="43.36231" lon="1.77634">
        <ele>232.57138</ele>
        <time>2023-01-04T12:35:42.097Z</time>
      </trkpt>
      <trkpt lat="43.36225" lon="1.77649">
        <ele>232.454772</ele>
        <time>2023-01-04T12:35:45.088Z</time>
      </trkpt>
      <trkpt lat="43.36216" lon="1.77659">
        <ele>232.35238</ele>
        <time>2023-01-04T12:35:49.069Z</time>
      </trkpt>
      <trkpt lat="43.3621" lon="1.7767">
        <ele>232.258104</ele>
        <time>2023-01-04T12:35:53.092Z</time>
      </trkpt>
      <trkpt lat="43.36204" lon="1.7768">
        <ele>232.170251</ele>
        <time>2023-01-04T12:35:56.093Z</time>
      </trkpt>
      <trkpt lat="43.36198" lon="1.77691">
        <ele>232.171157</ele>
        <time>2023-01-04T12:35:59.088Z</time>
      </trkpt>
      <trkpt lat="43.3619" lon="1.777">
        <ele>232.176604</ele>
        <time>2023-01-04T12:36:02.076Z</time>
      </trkpt>
      <trkpt lat="43.36183" lon="1.77711">
        <ele>232.182575</ele>
        <time>2023-01-04T12:36:05.071Z</time>
      </trkpt>
      <trkpt lat="43.36174" lon="1.77722">
        <ele>232.188807</ele>
        <time>2023-01-04T12:36:08.092Z</time>
      </trkpt>
      <trkpt lat="43.36168" lon="1.7773">
        <ele>232.193688</ele>
        <time>2023-01-04T12:36:10.095Z</time>
      </trkpt>
      <trkpt lat="43.36161" lon="1.77739">
        <ele>232.198542</ele>
        <time>2023-01-04T12:36:12.092Z</time>
      </trkpt>
      <trkpt lat="43.36154" lon="1.7775">
        <ele>232.204281</ele>
        <time>2023-01-04T12:36:15.090Z</time>
      </trkpt>
      <trkpt lat="43.36147" lon="1.77763">
        <ele>232.210637</ele>
        <time>2023-01-04T12:36:18.088Z</time>
      </trkpt>
      <trkpt lat="43.36139" lon="1.77777">
        <ele>232.217595</ele>
        <time>2023-01-04T12:36:21.090Z</time>
      </trkpt>
      <trkpt lat="43.36133" lon="1.77787">
        <ele>232.22271</ele>
        <time>2023-01-04T12:36:23.091Z</time>
      </trkpt>
      <trkpt lat="43.36127" lon="1.77797">
        <ele>232.227947</ele>
        <time>2023-01-04T12:36:25.091Z</time>
      </trkpt>
      <trkpt lat="43.3612" lon="1.77808">
        <ele>232.233505</ele>
        <time>2023-01-04T12:36:27.093Z</time>
      </trkpt>
      <trkpt lat="43.36112" lon="1.7782">
        <ele>232.239925</ele>
        <time>2023-01-04T12:36:30.070Z</time>
      </trkpt>
      <trkpt lat="43.36105" lon="1.77838">
        <ele>232.247898</ele>
        <time>2023-01-04T12:36:33.070Z</time>
      </trkpt>
      <trkpt lat="43.36095" lon="1.77852">
        <ele>232.255735</ele>
        <time>2023-01-04T12:36:36.091Z</time>
      </trkpt>
      <trkpt lat="43.36087" lon="1.77863">
        <ele>232.26149</ele>
        <time>2023-01-04T12:36:38.069Z</time>
      </trkpt>
      <trkpt lat="43.36081" lon="1.7788">
        <ele>232.272626</ele>
        <time>2023-01-04T12:36:41.066Z</time>
      </trkpt>
      <trkpt lat="43.36077" lon="1.77892">
        <ele>232.279998</ele>
        <time>2023-01-04T12:36:43.076Z</time>
      </trkpt>
      <trkpt lat="43.3607" lon="1.77909">
        <ele>232.291962</ele>
        <time>2023-01-04T12:36:46.070Z</time>
      </trkpt>
      <trkpt lat="43.36063" lon="1.77924">
        <ele>232.302797</ele>
        <time>2023-01-04T12:36:49.071Z</time>
      </trkpt>
      <trkpt lat="43.3606" lon="1.7794">
        <ele>232.312399</ele>
        <time>2023-01-04T12:36:52.069Z</time>
      </trkpt>
      <trkpt lat="43.36054" lon="1.77956">
        <ele>232.322685</ele>
        <time>2023-01-04T12:36:55.061Z</time>
      </trkpt>
      <trkpt lat="43.36049" lon="1.77974">
        <ele>232.33413</ele>
        <time>2023-01-04T12:36:58.097Z</time>
      </trkpt>
      <trkpt lat="43.36046" lon="1.77986">
        <ele>232.342003</ele>
        <time>2023-01-04T12:37:00.075Z</time>
      </trkpt>
      <trkpt lat="43.36043" lon="1.78001">
        <ele>232.35112</ele>
        <time>2023-01-04T12:37:02.073Z</time>
      </trkpt>
      <trkpt lat="43.36038" lon="1.78019">
        <ele>232.362615</ele>
        <time>2023-01-04T12:37:04.071Z</time>
      </trkpt>
      <trkpt lat="43.36035" lon="1.78035">
        <ele>232.372322</ele>
        <time>2023-01-04T12:37:06.073Z</time>
      </trkpt>
      <trkpt lat="43.36032" lon="1.78048">
        <ele>232.380613</ele>
        <time>2023-01-04T12:37:08.065Z</time>
      </trkpt>
      <trkpt lat="43.36026" lon="1.78062">
        <ele>232.390129</ele>
        <time>2023-01-04T12:37:11.072Z</time>
      </trkpt>
      <trkpt lat="43.36023" lon="1.78075">
        <ele>232.398157</ele>
        <time>2023-01-04T12:37:14.073Z</time>
      </trkpt>
      <trkpt lat="43.36016" lon="1.78086">
        <ele>232.40734</ele>
        <time>2023-01-04T12:37:18.072Z</time>
      </trkpt>
      <trkpt lat="43.36009" lon="1.78098">
        <ele>232.374367</ele>
        <time>2023-01-04T12:37:21.074Z</time>
      </trkpt>
      <trkpt lat="43.36003" lon="1.78108">
        <ele>232.332814</ele>
        <time>2023-01-04T12:37:23.068Z</time>
      </trkpt>
      <trkpt lat="43.35998" lon="1.78119">
        <ele>232.291213</ele>
        <time>2023-01-04T12:37:25.093Z</time>
      </trkpt>
      <trkpt lat="43.35992" lon="1.78134">
        <ele>232.235314</ele>
        <time>2023-01-04T12:37:28.092Z</time>
      </trkpt>
      <trkpt lat="43.35985" lon="1.7815">
        <ele>232.175708</ele>
        <time>2023-01-04T12:37:31.072Z</time>
      </trkpt>
      <trkpt lat="43.35981" lon="1.78161">
        <ele>232.134447</ele>
        <time>2023-01-04T12:37:33.092Z</time>
      </trkpt>
      <trkpt lat="43.35973" lon="1.78175">
        <ele>232.077368</ele>
        <time>2023-01-04T12:37:35.085Z</time>
      </trkpt>
      <trkpt lat="43.35967" lon="1.78185">
        <ele>232.033603</ele>
        <time>2023-01-04T12:37:37.081Z</time>
      </trkpt>
      <trkpt lat="43.3596" lon="1.78195">
        <ele>231.989623</ele>
        <time>2023-01-04T12:37:39.199Z</time>
      </trkpt>
      <trkpt lat="43.35953" lon="1.78207">
        <ele>231.939035</ele>
        <time>2023-01-04T12:37:42.073Z</time>
      </trkpt>
      <trkpt lat="43.35946" lon="1.78223">
        <ele>231.877987</ele>
        <time>2023-01-04T12:37:44.086Z</time>
      </trkpt>
      <trkpt lat="43.35938" lon="1.78233">
        <ele>231.832168</ele>
        <time>2023-01-04T12:37:46.072Z</time>
      </trkpt>
      <trkpt lat="43.3593" lon="1.78249">
        <ele>231.768447</ele>
        <time>2023-01-04T12:37:48.073Z</time>
      </trkpt>
      <trkpt lat="43.35922" lon="1.7826">
        <ele>231.715597</ele>
        <time>2023-01-04T12:37:51.071Z</time>
      </trkpt>
      <trkpt lat="43.35914" lon="1.78273">
        <ele>231.660869</ele>
        <time>2023-01-04T12:37:54.082Z</time>
      </trkpt>
      <trkpt lat="43.35906" lon="1.78288">
        <ele>231.603766</ele>
        <time>2023-01-04T12:37:57.070Z</time>
      </trkpt>
      <trkpt lat="43.35902" lon="1.78299">
        <ele>231.585384</ele>
        <time>2023-01-04T12:37:59.069Z</time>
      </trkpt>
      <trkpt lat="43.35896" lon="1.78311">
        <ele>231.565748</ele>
        <time>2023-01-04T12:38:01.088Z</time>
      </trkpt>
      <trkpt lat="43.35892" lon="1.78322">
        <ele>231.547917</ele>
        <time>2023-01-04T12:38:03.092Z</time>
      </trkpt>
      <trkpt lat="43.35886" lon="1.78333">
        <ele>231.527482</ele>
        <time>2023-01-04T12:38:05.079Z</time>
      </trkpt>
      <trkpt lat="43.35882" lon="1.78345">
        <ele>231.50914</ele>
        <time>2023-01-04T12:38:07.078Z</time>
      </trkpt>
      <trkpt lat="43.35878" lon="1.78358">
        <ele>231.489116</ele>
        <time>2023-01-04T12:38:09.079Z</time>
      </trkpt>
      <trkpt lat="43.35873" lon="1.7837">
        <ele>231.468514</ele>
        <time>2023-01-04T12:38:11.073Z</time>
      </trkpt>
      <trkpt lat="43.35869" lon="1.78382">
        <ele>231.449615</ele>
        <time>2023-01-04T12:38:13.077Z</time>
      </trkpt>
      <trkpt lat="43.35864" lon="1.78394">
        <ele>231.429863</ele>
        <time>2023-01-04T12:38:15.089Z</time>
      </trkpt>
      <trkpt lat="43.3586" lon="1.78409">
        <ele>231.407537</ele>
        <time>2023-01-04T12:38:17.089Z</time>
      </trkpt>
      <trkpt lat="43.35854" lon="1.78426">
        <ele>231.380152</ele>
        <time>2023-01-04T12:38:20.072Z</time>
      </trkpt>
      <trkpt lat="43.35851" lon="1.7844">
        <ele>231.358361</ele>
        <time>2023-01-04T12:38:22.091Z</time>
      </trkpt>
      <trkpt lat="43.35844" lon="1.78454">
        <ele>231.334521</ele>
        <time>2023-01-04T12:38:24.077Z</time>
      </trkpt>
      <trkpt lat="43.3584" lon="1.78473">
        <ele>231.306099</ele>
        <time>2023-01-04T12:38:27.085Z</time>
      </trkpt>
      <trkpt lat="43.35835" lon="1.78487">
        <ele>231.28311</ele>
        <time>2023-01-04T12:38:29.080Z</time>
      </trkpt>
      <trkpt lat="43.35831" lon="1.78501">
        <ele>231.262128</ele>
        <time>2023-01-04T12:38:31.069Z</time>
      </trkpt>
      <trkpt lat="43.35828" lon="1.78515">
        <ele>231.219029</ele>
        <time>2023-01-04T12:38:33.089Z</time>
      </trkpt>
      <trkpt lat="43.35824" lon="1.78533">
        <ele>231.126874</ele>
        <time>2023-01-04T12:38:35.073Z</time>
      </trkpt>
      <trkpt lat="43.35821" lon="1.7855">
        <ele>231.037645</ele>
        <time>2023-01-04T12:38:38.073Z</time>
      </trkpt>
      <trkpt lat="43.35816" lon="1.78566">
        <ele>230.950572</ele>
        <time>2023-01-04T12:38:41.070Z</time>
      </trkpt>
      <trkpt lat="43.35813" lon="1.7858">
        <ele>230.876127</ele>
        <time>2023-01-04T12:38:44.070Z</time>
      </trkpt>
      <trkpt lat="43.3581" lon="1.78594">
        <ele>230.806627</ele>
        <time>2023-01-04T12:38:46.082Z</time>
      </trkpt>
      <trkpt lat="43.35805" lon="1.78612">
        <ele>230.709337</ele>
        <time>2023-01-04T12:38:49.088Z</time>
      </trkpt>
      <trkpt lat="43.35802" lon="1.78624">
        <ele>230.646273</ele>
        <time>2023-01-04T12:38:51.088Z</time>
      </trkpt>
      <trkpt lat="43.35798" lon="1.78642">
        <ele>230.554072</ele>
        <time>2023-01-04T12:38:54.091Z</time>
      </trkpt>
      <trkpt lat="43.35795" lon="1.78659">
        <ele>230.466465</ele>
        <time>2023-01-04T12:38:57.069Z</time>
      </trkpt>
      <trkpt lat="43.35792" lon="1.78671">
        <ele>230.401991</ele>
        <time>2023-01-04T12:38:59.073Z</time>
      </trkpt>
      <trkpt lat="43.35787" lon="1.78682">
        <ele>230.33358</ele>
        <time>2023-01-04T12:39:01.088Z</time>
      </trkpt>
      <trkpt lat="43.35783" lon="1.78696">
        <ele>230.261108</ele>
        <time>2023-01-04T12:39:03.086Z</time>
      </trkpt>
      <trkpt lat="43.3578" lon="1.78708">
        <ele>230.19844</ele>
        <time>2023-01-04T12:39:05.073Z</time>
      </trkpt>
      <trkpt lat="43.35774" lon="1.78725">
        <ele>230.101914</ele>
        <time>2023-01-04T12:39:08.085Z</time>
      </trkpt>
      <trkpt lat="43.35768" lon="1.78741">
        <ele>230.019057</ele>
        <time>2023-01-04T12:39:10.072Z</time>
      </trkpt>
      <trkpt lat="43.35767" lon="1.78758">
        <ele>230.204531</ele>
        <time>2023-01-04T12:39:12.071Z</time>
      </trkpt>
      <trkpt lat="43.35763" lon="1.7877">
        <ele>230.349333</ele>
        <time>2023-01-04T12:39:14.078Z</time>
      </trkpt>
      <trkpt lat="43.35758" lon="1.78786">
        <ele>230.534352</ele>
        <time>2023-01-04T12:39:16.087Z</time>
      </trkpt>
      <trkpt lat="43.35755" lon="1.788">
        <ele>230.687371</ele>
        <time>2023-01-04T12:39:18.072Z</time>
      </trkpt>
      <trkpt lat="43.3575" lon="1.78819">
        <ele>230.901189</ele>
        <time>2023-01-04T12:39:21.072Z</time>
      </trkpt>
      <trkpt lat="43.35747" lon="1.78833">
        <ele>231.054787</ele>
        <time>2023-01-04T12:39:23.077Z</time>
      </trkpt>
      <trkpt lat="43.35742" lon="1.78847">
        <ele>231.22682</ele>
        <time>2023-01-04T12:39:25.070Z</time>
      </trkpt>
      <trkpt lat="43.35739" lon="1.7886">
        <ele>231.371218</ele>
        <time>2023-01-04T12:39:27.070Z</time>
      </trkpt>
      <trkpt lat="43.35734" lon="1.78876">
        <ele>231.553694</ele>
        <time>2023-01-04T12:39:30.074Z</time>
      </trkpt>
      <trkpt lat="43.35729" lon="1.78893">
        <ele>231.752527</ele>
        <time>2023-01-04T12:39:33.090Z</time>
      </trkpt>
      <trkpt lat="43.35725" lon="1.78906">
        <ele>231.903713</ele>
        <time>2023-01-04T12:39:35.073Z</time>
      </trkpt>
      <trkpt lat="43.35721" lon="1.78919">
        <ele>232.060051</ele>
        <time>2023-01-04T12:39:37.091Z</time>
      </trkpt>
      <trkpt lat="43.35717" lon="1.78932">
        <ele>232.206107</ele>
        <time>2023-01-04T12:39:39.071Z</time>
      </trkpt>
      <trkpt lat="43.35715" lon="1.78947">
        <ele>232.364575</ele>
        <time>2023-01-04T12:39:41.070Z</time>
      </trkpt>
      <trkpt lat="43.3571" lon="1.78959">
        <ele>232.513864</ele>
        <time>2023-01-04T12:39:43.072Z</time>
      </trkpt>
      <trkpt lat="43.35705" lon="1.78976">
        <ele>232.637909</ele>
        <time>2023-01-04T12:39:46.086Z</time>
      </trkpt>
      <trkpt lat="43.35701" lon="1.78987">
        <ele>232.577312</ele>
        <time>2023-01-04T12:39:48.087Z</time>
      </trkpt>
      <trkpt lat="43.35697" lon="1.79002">
        <ele>232.507878</ele>
        <time>2023-01-04T12:39:51.092Z</time>
      </trkpt>
      <trkpt lat="43.35695" lon="1.79015">
        <ele>232.444929</ele>
        <time>2023-01-04T12:39:53.092Z</time>
      </trkpt>
      <trkpt lat="43.35693" lon="1.79029">
        <ele>232.378881</ele>
        <time>2023-01-04T12:39:55.079Z</time>
      </trkpt>
      <trkpt lat="43.35689" lon="1.79041">
        <ele>232.318134</ele>
        <time>2023-01-04T12:39:57.086Z</time>
      </trkpt>
      <trkpt lat="43.35686" lon="1.79053">
        <ele>232.261043</ele>
        <time>2023-01-04T12:39:59.092Z</time>
      </trkpt>
      <trkpt lat="43.35681" lon="1.79065">
        <ele>232.196694</ele>
        <time>2023-01-04T12:40:01.091Z</time>
      </trkpt>
      <trkpt lat="43.35677" lon="1.79079">
        <ele>232.128578</ele>
        <time>2023-01-04T12:40:03.070Z</time>
      </trkpt>
      <trkpt lat="43.35675" lon="1.79093">
        <ele>232.062474</ele>
        <time>2023-01-04T12:40:05.090Z</time>
      </trkpt>
      <trkpt lat="43.35672" lon="1.79107">
        <ele>231.99534</ele>
        <time>2023-01-04T12:40:07.088Z</time>
      </trkpt>
      <trkpt lat="43.3567" lon="1.79122">
        <ele>231.925696</ele>
        <time>2023-01-04T12:40:09.067Z</time>
      </trkpt>
      <trkpt lat="43.35667" lon="1.79138">
        <ele>231.848921</ele>
        <time>2023-01-04T12:40:11.071Z</time>
      </trkpt>
      <trkpt lat="43.35663" lon="1.79154">
        <ele>231.77164</ele>
        <time>2023-01-04T12:40:13.069Z</time>
      </trkpt>
      <trkpt lat="43.35659" lon="1.79169">
        <ele>231.697685</ele>
        <time>2023-01-04T12:40:15.093Z</time>
      </trkpt>
      <trkpt lat="43.35656" lon="1.79183">
        <ele>231.628202</ele>
        <time>2023-01-04T12:40:17.094Z</time>
      </trkpt>
      <trkpt lat="43.35651" lon="1.79198">
        <ele>231.554134</ele>
        <time>2023-01-04T12:40:19.086Z</time>
      </trkpt>
      <trkpt lat="43.35647" lon="1.79217">
        <ele>231.644416</ele>
        <time>2023-01-04T12:40:22.095Z</time>
      </trkpt>
      <trkpt lat="43.35643" lon="1.79231">
        <ele>231.79055</ele>
        <time>2023-01-04T12:40:24.091Z</time>
      </trkpt>
      <trkpt lat="43.35641" lon="1.79243">
        <ele>231.921762</ele>
        <time>2023-01-04T12:40:26.095Z</time>
      </trkpt>
      <trkpt lat="43.35638" lon="1.79257">
        <ele>232.062415</ele>
        <time>2023-01-04T12:40:28.094Z</time>
      </trkpt>
      <trkpt lat="43.35635" lon="1.79271">
        <ele>232.212311</ele>
        <time>2023-01-04T12:40:30.093Z</time>
      </trkpt>
      <trkpt lat="43.35633" lon="1.79285">
        <ele>232.34832</ele>
        <time>2023-01-04T12:40:32.093Z</time>
      </trkpt>
      <trkpt lat="43.3563" lon="1.79298">
        <ele>232.493388</ele>
        <time>2023-01-04T12:40:34.089Z</time>
      </trkpt>
      <trkpt lat="43.35628" lon="1.79317">
        <ele>232.68241</ele>
        <time>2023-01-04T12:40:37.090Z</time>
      </trkpt>
      <trkpt lat="43.35624" lon="1.79328">
        <ele>232.808489</ele>
        <time>2023-01-04T12:40:39.092Z</time>
      </trkpt>
      <trkpt lat="43.35621" lon="1.7934">
        <ele>232.935297</ele>
        <time>2023-01-04T12:40:41.091Z</time>
      </trkpt>
      <trkpt lat="43.35618" lon="1.79354">
        <ele>233.083639</ele>
        <time>2023-01-04T12:40:43.072Z</time>
      </trkpt>
      <trkpt lat="43.35615" lon="1.7937">
        <ele>233.24164</ele>
        <time>2023-01-04T12:40:45.075Z</time>
      </trkpt>
      <trkpt lat="43.35613" lon="1.79384">
        <ele>233.390431</ele>
        <time>2023-01-04T12:40:47.091Z</time>
      </trkpt>
      <trkpt lat="43.35611" lon="1.79398">
        <ele>233.533301</ele>
        <time>2023-01-04T12:40:49.100Z</time>
      </trkpt>
      <trkpt lat="43.3561" lon="1.79413">
        <ele>233.68029</ele>
        <time>2023-01-04T12:40:51.094Z</time>
      </trkpt>
      <trkpt lat="43.35608" lon="1.7943">
        <ele>233.857231</ele>
        <time>2023-01-04T12:40:54.091Z</time>
      </trkpt>
      <trkpt lat="43.35608" lon="1.79444">
        <ele>233.999683</ele>
        <time>2023-01-04T12:40:56.095Z</time>
      </trkpt>
      <trkpt lat="43.35606" lon="1.79457">
        <ele>233.984391</ele>
        <time>2023-01-04T12:40:58.096Z</time>
      </trkpt>
      <trkpt lat="43.35604" lon="1.7947">
        <ele>233.96697</ele>
        <time>2023-01-04T12:41:00.092Z</time>
      </trkpt>
      <trkpt lat="43.35601" lon="1.79485">
        <ele>233.945899</ele>
        <time>2023-01-04T12:41:02.099Z</time>
      </trkpt>
      <trkpt lat="43.35599" lon="1.795">
        <ele>233.924817</ele>
        <time>2023-01-04T12:41:04.095Z</time>
      </trkpt>
      <trkpt lat="43.35595" lon="1.79513">
        <ele>233.905353</ele>
        <time>2023-01-04T12:41:06.093Z</time>
      </trkpt>
      <trkpt lat="43.35592" lon="1.79527">
        <ele>233.885696</ele>
        <time>2023-01-04T12:41:08.073Z</time>
      </trkpt>
      <trkpt lat="43.35589" lon="1.7954">
        <ele>233.867505</ele>
        <time>2023-01-04T12:41:10.094Z</time>
      </trkpt>
      <trkpt lat="43.35585" lon="1.79555">
        <ele>233.844915</ele>
        <time>2023-01-04T12:41:13.091Z</time>
      </trkpt>
      <trkpt lat="43.35578" lon="1.7957">
        <ele>233.820796</ele>
        <time>2023-01-04T12:41:16.085Z</time>
      </trkpt>
      <trkpt lat="43.3557" lon="1.79588">
        <ele>233.793678</ele>
        <time>2023-01-04T12:41:19.100Z</time>
      </trkpt>
      <trkpt lat="43.35564" lon="1.79604">
        <ele>233.768489</ele>
        <time>2023-01-04T12:41:21.092Z</time>
      </trkpt>
      <trkpt lat="43.35556" lon="1.79618">
        <ele>233.743555</ele>
        <time>2023-01-04T12:41:23.088Z</time>
      </trkpt>
      <trkpt lat="43.35548" lon="1.79633">
        <ele>233.719392</ele>
        <time>2023-01-04T12:41:25.088Z</time>
      </trkpt>
      <trkpt lat="43.35543" lon="1.79653">
        <ele>233.690422</ele>
        <time>2023-01-04T12:41:27.093Z</time>
      </trkpt>
      <trkpt lat="43.35536" lon="1.79667">
        <ele>233.666663</ele>
        <time>2023-01-04T12:41:28.073Z</time>
      </trkpt>
      <trkpt lat="43.35526" lon="1.79676">
        <ele>233.61364</ele>
        <time>2023-01-04T12:41:30.077Z</time>
      </trkpt>
      <trkpt lat="43.35518" lon="1.79692">
        <ele>233.544043</ele>
        <time>2023-01-04T12:41:32.074Z</time>
      </trkpt>
      <trkpt lat="43.35509" lon="1.79708">
        <ele>233.473185</ele>
        <time>2023-01-04T12:41:37.093Z</time>
      </trkpt>
      <trkpt lat="43.35501" lon="1.79719">
        <ele>233.419093</ele>
        <time>2023-01-04T12:41:39.089Z</time>
      </trkpt>
      <trkpt lat="43.35494" lon="1.79734">
        <ele>233.357972</ele>
        <time>2023-01-04T12:41:42.092Z</time>
      </trkpt>
      <trkpt lat="43.35488" lon="1.79745">
        <ele>233.308185</ele>
        <time>2023-01-04T12:41:44.093Z</time>
      </trkpt>
      <trkpt lat="43.35482" lon="1.79758">
        <ele>233.257086</ele>
        <time>2023-01-04T12:41:46.092Z</time>
      </trkpt>
      <trkpt lat="43.35477" lon="1.79768">
        <ele>233.212382</ele>
        <time>2023-01-04T12:41:48.069Z</time>
      </trkpt>
      <trkpt lat="43.35472" lon="1.79779">
        <ele>233.169088</ele>
        <time>2023-01-04T12:41:50.094Z</time>
      </trkpt>
      <trkpt lat="43.35465" lon="1.79792">
        <ele>233.111382</ele>
        <time>2023-01-04T12:41:52.101Z</time>
      </trkpt>
      <trkpt lat="43.35458" lon="1.79804">
        <ele>233.059052</ele>
        <time>2023-01-04T12:41:54.085Z</time>
      </trkpt>
      <trkpt lat="43.35457" lon="1.79819">
        <ele>233.007547</ele>
        <time>2023-01-04T12:41:56.072Z</time>
      </trkpt>
      <trkpt lat="43.35449" lon="1.7983">
        <ele>232.953968</ele>
        <time>2023-01-04T12:41:58.093Z</time>
      </trkpt>
      <trkpt lat="43.35444" lon="1.79842">
        <ele>232.902365</ele>
        <time>2023-01-04T12:42:00.092Z</time>
      </trkpt>
      <trkpt lat="43.35438" lon="1.79854">
        <ele>232.852661</ele>
        <time>2023-01-04T12:42:02.092Z</time>
      </trkpt>
      <trkpt lat="43.35433" lon="1.79865">
        <ele>232.806543</ele>
        <time>2023-01-04T12:42:04.071Z</time>
      </trkpt>
      <trkpt lat="43.35426" lon="1.7988">
        <ele>232.79809</ele>
        <time>2023-01-04T12:42:07.093Z</time>
      </trkpt>
      <trkpt lat="43.35422" lon="1.79892">
        <ele>232.796008</ele>
        <time>2023-01-04T12:42:09.091Z</time>
      </trkpt>
      <trkpt lat="43.35414" lon="1.79906">
        <ele>232.793128</ele>
        <time>2023-01-04T12:42:12.065Z</time>
      </trkpt>
      <trkpt lat="43.35407" lon="1.7992">
        <ele>232.79034</ele>
        <time>2023-01-04T12:42:15.094Z</time>
      </trkpt>
      <trkpt lat="43.35402" lon="1.79936">
        <ele>232.787516</ele>
        <time>2023-01-04T12:42:18.093Z</time>
      </trkpt>
      <trkpt lat="43.354" lon="1.79954">
        <ele>232.784643</ele>
        <time>2023-01-04T12:42:21.087Z</time>
      </trkpt>
      <trkpt lat="43.35402" lon="1.79968">
        <ele>232.782272</ele>
        <time>2023-01-04T12:42:24.092Z</time>
      </trkpt>
      <trkpt lat="43.35407" lon="1.7998">
        <ele>232.779988</ele>
        <time>2023-01-04T12:42:27.094Z</time>
      </trkpt>
      <trkpt lat="43.35407" lon="1.79993">
        <ele>232.777885</ele>
        <time>2023-01-04T12:42:29.070Z</time>
      </trkpt>
      <trkpt lat="43.35405" lon="1.80008">
        <ele>232.775405</ele>
        <time>2023-01-04T12:42:31.090Z</time>
      </trkpt>
      <trkpt lat="43.35403" lon="1.80027">
        <ele>232.772384</ele>
        <time>2023-01-04T12:42:34.088Z</time>
      </trkpt>
      <trkpt lat="43.35403" lon="1.80041">
        <ele>232.770086</ele>
        <time>2023-01-04T12:42:36.092Z</time>
      </trkpt>
      <trkpt lat="43.35403" lon="1.80055">
        <ele>232.767739</ele>
        <time>2023-01-04T12:42:38.096Z</time>
      </trkpt>
      <trkpt lat="43.35406" lon="1.80067">
        <ele>232.7657</ele>
        <time>2023-01-04T12:42:40.073Z</time>
      </trkpt>
      <trkpt lat="43.35406" lon="1.8008">
        <ele>232.763692</ele>
        <time>2023-01-04T12:42:42.090Z</time>
      </trkpt>
      <trkpt lat="43.35411" lon="1.80092">
        <ele>232.761479</ele>
        <time>2023-01-04T12:42:44.094Z</time>
      </trkpt>
      <trkpt lat="43.35414" lon="1.80105">
        <ele>232.771353</ele>
        <time>2023-01-04T12:42:46.082Z</time>
      </trkpt>
      <trkpt lat="43.35418" lon="1.80117">
        <ele>232.786532</ele>
        <time>2023-01-04T12:42:48.094Z</time>
      </trkpt>
      <trkpt lat="43.35422" lon="1.8013">
        <ele>232.80237</ele>
        <time>2023-01-04T12:42:50.069Z</time>
      </trkpt>
      <trkpt lat="43.35428" lon="1.80146">
        <ele>232.823638</ele>
        <time>2023-01-04T12:42:53.072Z</time>
      </trkpt>
      <trkpt lat="43.35435" lon="1.80161">
        <ele>232.843992</ele>
        <time>2023-01-04T12:42:56.093Z</time>
      </trkpt>
      <trkpt lat="43.35442" lon="1.80177">
        <ele>232.865141</ele>
        <time>2023-01-04T12:42:59.091Z</time>
      </trkpt>
      <trkpt lat="43.35448" lon="1.80188">
        <ele>232.880992</ele>
        <time>2023-01-04T12:43:01.073Z</time>
      </trkpt>
      <trkpt lat="43.35455" lon="1.80199">
        <ele>232.897243</ele>
        <time>2023-01-04T12:43:03.092Z</time>
      </trkpt>
      <trkpt lat="43.35462" lon="1.80211">
        <ele>232.915062</ele>
        <time>2023-01-04T12:43:06.093Z</time>
      </trkpt>
      <trkpt lat="43.35471" lon="1.80223">
        <ele>232.935475</ele>
        <time>2023-01-04T12:43:09.084Z</time>
      </trkpt>
      <trkpt lat="43.3548" lon="1.80236">
        <ele>232.955976</ele>
        <time>2023-01-04T12:43:12.080Z</time>
      </trkpt>
      <trkpt lat="43.35487" lon="1.80249">
        <ele>232.97509</ele>
        <time>2023-01-04T12:43:15.091Z</time>
      </trkpt>
      <trkpt lat="43.35492" lon="1.80264">
        <ele>232.993287</ele>
        <time>2023-01-04T12:43:18.090Z</time>
      </trkpt>
      <trkpt lat="43.35496" lon="1.80277">
        <ele>233.009962</ele>
        <time>2023-01-04T12:43:21.075Z</time>
      </trkpt>
      <trkpt lat="43.35506" lon="1.80298">
        <ele>233.039364</ele>
        <time>2023-01-04T12:43:29.093Z</time>
      </trkpt>
      <trkpt lat="43.35539" lon="1.80314">
        <ele>232.737486</ele>
        <time>2023-01-04T12:43:35.080Z</time>
      </trkpt>
      <trkpt lat="43.35535" lon="1.80326">
        <ele>232.642037</ele>
        <time>2023-01-04T12:43:37.071Z</time>
      </trkpt>
      <trkpt lat="43.35543" lon="1.80331">
        <ele>232.548186</ele>
        <time>2023-01-04T12:43:39.062Z</time>
      </trkpt>
      <trkpt lat="43.35552" lon="1.80337">
        <ele>232.444301</ele>
        <time>2023-01-04T12:43:42.075Z</time>
      </trkpt>
      <trkpt lat="43.35566" lon="1.80348">
        <ele>232.282823</ele>
        <time>2023-01-04T12:43:46.068Z</time>
      </trkpt>
      <trkpt lat="43.35577" lon="1.80361">
        <ele>232.142115</ele>
        <time>2023-01-04T12:43:48.070Z</time>
      </trkpt>
      <trkpt lat="43.35586" lon="1.80376">
        <ele>232.001146</ele>
        <time>2023-01-04T12:43:50.069Z</time>
      </trkpt>
      <trkpt lat="43.35593" lon="1.80387">
        <ele>231.892879</ele>
        <time>2023-01-04T12:43:52.070Z</time>
      </trkpt>
      <trkpt lat="43.35599" lon="1.80399">
        <ele>231.779629</ele>
        <time>2023-01-04T12:43:54.069Z</time>
      </trkpt>
      <trkpt lat="43.35607" lon="1.8041">
        <ele>231.668148</ele>
        <time>2023-01-04T12:43:56.071Z</time>
      </trkpt>
      <trkpt lat="43.35614" lon="1.80421">
        <ele>231.563751</ele>
        <time>2023-01-04T12:43:58.071Z</time>
      </trkpt>
      <trkpt lat="43.35621" lon="1.8043">
        <ele>231.46529</ele>
        <time>2023-01-04T12:44:00.072Z</time>
      </trkpt>
      <trkpt lat="43.35629" lon="1.8044">
        <ele>231.356039</ele>
        <time>2023-01-04T12:44:02.070Z</time>
      </trkpt>
      <trkpt lat="43.35636" lon="1.80451">
        <ele>231.249369</ele>
        <time>2023-01-04T12:44:04.072Z</time>
      </trkpt>
      <trkpt lat="43.35642" lon="1.8046">
        <ele>231.602066</ele>
        <time>2023-01-04T12:44:06.072Z</time>
      </trkpt>
      <trkpt lat="43.35648" lon="1.80473">
        <ele>232.135848</ele>
        <time>2023-01-04T12:44:09.071Z</time>
      </trkpt>
      <trkpt lat="43.35655" lon="1.80485">
        <ele>232.655375</ele>
        <time>2023-01-04T12:44:12.093Z</time>
      </trkpt>
      <trkpt lat="43.35662" lon="1.80495">
        <ele>233.134895</ele>
        <time>2023-01-04T12:44:14.090Z</time>
      </trkpt>
      <trkpt lat="43.35669" lon="1.80508">
        <ele>233.709965</ele>
        <time>2023-01-04T12:44:17.071Z</time>
      </trkpt>
      <trkpt lat="43.35677" lon="1.80523">
        <ele>234.362061</ele>
        <time>2023-01-04T12:44:20.091Z</time>
      </trkpt>
      <trkpt lat="43.35685" lon="1.80536">
        <ele>234.960869</ele>
        <time>2023-01-04T12:44:23.093Z</time>
      </trkpt>
      <trkpt lat="43.35691" lon="1.80549">
        <ele>235.508063</ele>
        <time>2023-01-04T12:44:26.091Z</time>
      </trkpt>
      <trkpt lat="43.35694" lon="1.80562">
        <ele>235.979099</ele>
        <time>2023-01-04T12:44:29.095Z</time>
      </trkpt>
      <trkpt lat="43.35697" lon="1.80574">
        <ele>236.414307</ele>
        <time>2023-01-04T12:44:32.092Z</time>
      </trkpt>
      <trkpt lat="43.35698" lon="1.80587">
        <ele>236.887188</ele>
        <time>2023-01-04T12:44:36.094Z</time>
      </trkpt>
      <trkpt lat="43.357" lon="1.806">
        <ele>237.352444</ele>
        <time>2023-01-04T12:44:40.074Z</time>
      </trkpt>
      <trkpt lat="43.35703" lon="1.80613">
        <ele>237.818339</ele>
        <time>2023-01-04T12:44:45.086Z</time>
      </trkpt>
      <trkpt lat="43.35707" lon="1.80631">
        <ele>238.481619</ele>
        <time>2023-01-04T12:45:10.091Z</time>
      </trkpt>
      <trkpt lat="43.35711" lon="1.80643">
        <ele>238.942842</ele>
        <time>2023-01-04T12:45:15.095Z</time>
      </trkpt>
      <trkpt lat="43.35724" lon="1.80662">
        <ele>239.848232</ele>
        <time>2023-01-04T12:47:55.094Z</time>
      </trkpt>
      <trkpt lat="43.3573" lon="1.80671">
        <ele>239.806267</ele>
        <time>2023-01-04T12:47:59.092Z</time>
      </trkpt>
      <trkpt lat="43.35735" lon="1.80684">
        <ele>239.697664</ele>
        <time>2023-01-04T12:48:05.092Z</time>
      </trkpt>
      <trkpt lat="43.35739" lon="1.80698">
        <ele>239.577466</ele>
        <time>2023-01-04T12:48:10.089Z</time>
      </trkpt>
      <trkpt lat="43.35743" lon="1.80711">
        <ele>239.45714</ele>
        <time>2023-01-04T12:48:14.143Z</time>
      </trkpt>
      <trkpt lat="43.35747" lon="1.80726">
        <ele>239.329837</ele>
        <time>2023-01-04T12:48:18.091Z</time>
      </trkpt>
      <trkpt lat="43.35752" lon="1.80741">
        <ele>239.198789</ele>
        <time>2023-01-04T12:48:22.094Z</time>
      </trkpt>
      <trkpt lat="43.35755" lon="1.80757">
        <ele>239.069527</ele>
        <time>2023-01-04T12:48:26.144Z</time>
      </trkpt>
      <trkpt lat="43.35758" lon="1.80769">
        <ele>238.962878</ele>
        <time>2023-01-04T12:48:29.092Z</time>
      </trkpt>
      <trkpt lat="43.3576" lon="1.80785">
        <ele>238.839819</ele>
        <time>2023-01-04T12:48:33.092Z</time>
      </trkpt>
      <trkpt lat="43.35763" lon="1.80798">
        <ele>238.731254</ele>
        <time>2023-01-04T12:48:36.096Z</time>
      </trkpt>
      <trkpt lat="43.35766" lon="1.80813">
        <ele>238.606731</ele>
        <time>2023-01-04T12:48:39.094Z</time>
      </trkpt>
      <trkpt lat="43.35769" lon="1.80828">
        <ele>238.482983</ele>
        <time>2023-01-04T12:48:42.097Z</time>
      </trkpt>
      <trkpt lat="43.35773" lon="1.80843">
        <ele>238.350805</ele>
        <time>2023-01-04T12:48:45.092Z</time>
      </trkpt>
      <trkpt lat="43.35775" lon="1.80859">
        <ele>238.22175</ele>
        <time>2023-01-04T12:48:48.092Z</time>
      </trkpt>
      <trkpt lat="43.35778" lon="1.80875">
        <ele>238.091159</ele>
        <time>2023-01-04T12:48:52.092Z</time>
      </trkpt>
      <trkpt lat="43.3578" lon="1.80889">
        <ele>237.979127</ele>
        <time>2023-01-04T12:48:55.093Z</time>
      </trkpt>
      <trkpt lat="43.3578" lon="1.80905">
        <ele>237.909921</ele>
        <time>2023-01-04T12:48:58.098Z</time>
      </trkpt>
      <trkpt lat="43.35781" lon="1.80921">
        <ele>237.890616</ele>
        <time>2023-01-04T12:49:01.093Z</time>
      </trkpt>
      <trkpt lat="43.35784" lon="1.80936">
        <ele>237.87133</ele>
        <time>2023-01-04T12:49:04.091Z</time>
      </trkpt>
      <trkpt lat="43.35786" lon="1.80949">
        <ele>237.855632</ele>
        <time>2023-01-04T12:49:07.149Z</time>
      </trkpt>
      <trkpt lat="43.35787" lon="1.80964">
        <ele>237.837783</ele>
        <time>2023-01-04T12:49:10.090Z</time>
      </trkpt>
      <trkpt lat="43.35789" lon="1.8098">
        <ele>237.81822</ele>
        <time>2023-01-04T12:49:13.140Z</time>
      </trkpt>
      <trkpt lat="43.35791" lon="1.80996">
        <ele>237.798968</ele>
        <time>2023-01-04T12:49:16.093Z</time>
      </trkpt>
      <trkpt lat="43.35792" lon="1.81012">
        <ele>237.77981</ele>
        <time>2023-01-04T12:49:19.143Z</time>
      </trkpt>
      <trkpt lat="43.35793" lon="1.81029">
        <ele>237.759537</ele>
        <time>2023-01-04T12:49:22.094Z</time>
      </trkpt>
      <trkpt lat="43.35794" lon="1.81047">
        <ele>237.738441</ele>
        <time>2023-01-04T12:49:25.135Z</time>
      </trkpt>
      <trkpt lat="43.35794" lon="1.81063">
        <ele>237.719612</ele>
        <time>2023-01-04T12:49:28.103Z</time>
      </trkpt>
      <trkpt lat="43.35795" lon="1.81078">
        <ele>237.702073</ele>
        <time>2023-01-04T12:49:31.170Z</time>
      </trkpt>
      <trkpt lat="43.35796" lon="1.81093">
        <ele>237.683649</ele>
        <time>2023-01-04T12:49:34.092Z</time>
      </trkpt>
      <trkpt lat="43.35798" lon="1.81109">
        <ele>237.664761</ele>
        <time>2023-01-04T12:49:37.140Z</time>
      </trkpt>
      <trkpt lat="43.35799" lon="1.81122">
        <ele>237.648199</ele>
        <time>2023-01-04T12:49:40.086Z</time>
      </trkpt>
      <trkpt lat="43.35796" lon="1.81135">
        <ele>237.632921</ele>
        <time>2023-01-04T12:49:42.095Z</time>
      </trkpt>
      <trkpt lat="43.35795" lon="1.81152">
        <ele>237.616118</ele>
        <time>2023-01-04T12:49:45.096Z</time>
      </trkpt>
      <trkpt lat="43.35794" lon="1.81168">
        <ele>237.602284</ele>
        <time>2023-01-04T12:49:48.093Z</time>
      </trkpt>
      <trkpt lat="43.35792" lon="1.81185">
        <ele>237.587902</ele>
        <time>2023-01-04T12:49:51.090Z</time>
      </trkpt>
      <trkpt lat="43.35791" lon="1.81199">
        <ele>237.575913</ele>
        <time>2023-01-04T12:50:04.092Z</time>
      </trkpt>
      <trkpt lat="43.3579" lon="1.81214">
        <ele>237.562323</ele>
        <time>2023-01-04T12:50:09.085Z</time>
      </trkpt>
      <trkpt lat="43.35788" lon="1.81227">
        <ele>237.551528</ele>
        <time>2023-01-04T12:50:12.095Z</time>
      </trkpt>
      <trkpt lat="43.35786" lon="1.81241">
        <ele>237.538902</ele>
        <time>2023-01-04T12:50:15.096Z</time>
      </trkpt>
      <trkpt lat="43.35784" lon="1.81257">
        <ele>237.52514</ele>
        <time>2023-01-04T12:50:18.092Z</time>
      </trkpt>
      <trkpt lat="43.35782" lon="1.81271">
        <ele>237.51278</ele>
        <time>2023-01-04T12:50:21.091Z</time>
      </trkpt>
      <trkpt lat="43.3578" lon="1.81286">
        <ele>237.499948</ele>
        <time>2023-01-04T12:50:24.072Z</time>
      </trkpt>
      <trkpt lat="43.35776" lon="1.813">
        <ele>237.487486</ele>
        <time>2023-01-04T12:50:27.091Z</time>
      </trkpt>
      <trkpt lat="43.35774" lon="1.81312">
        <ele>237.476739</ele>
        <time>2023-01-04T12:50:30.092Z</time>
      </trkpt>
      <trkpt lat="43.3577" lon="1.81325">
        <ele>237.464876</ele>
        <time>2023-01-04T12:50:33.095Z</time>
      </trkpt>
      <trkpt lat="43.35767" lon="1.81337">
        <ele>237.453523</ele>
        <time>2023-01-04T12:50:36.093Z</time>
      </trkpt>
      <trkpt lat="43.35764" lon="1.8135">
        <ele>237.442066</ele>
        <time>2023-01-04T12:50:39.093Z</time>
      </trkpt>
      <trkpt lat="43.3576" lon="1.81365">
        <ele>237.428353</ele>
        <time>2023-01-04T12:50:42.092Z</time>
      </trkpt>
      <trkpt lat="43.35756" lon="1.81381">
        <ele>237.413807</ele>
        <time>2023-01-04T12:50:45.071Z</time>
      </trkpt>
      <trkpt lat="43.35752" lon="1.81397">
        <ele>237.330925</ele>
        <time>2023-01-04T12:50:48.091Z</time>
      </trkpt>
      <trkpt lat="43.35748" lon="1.81412">
        <ele>237.24919</ele>
        <time>2023-01-04T12:50:51.094Z</time>
      </trkpt>
      <trkpt lat="43.35744" lon="1.81428">
        <ele>237.166807</ele>
        <time>2023-01-04T12:50:54.095Z</time>
      </trkpt>
      <trkpt lat="43.3574" lon="1.81443">
        <ele>237.085363</ele>
        <time>2023-01-04T12:50:57.092Z</time>
      </trkpt>
      <trkpt lat="43.35735" lon="1.81461">
        <ele>236.993614</ele>
        <time>2023-01-04T12:51:00.135Z</time>
      </trkpt>
      <trkpt lat="43.35732" lon="1.81472">
        <ele>236.930184</ele>
        <time>2023-01-04T12:51:02.094Z</time>
      </trkpt>
      <trkpt lat="43.35727" lon="1.81489">
        <ele>236.843061</ele>
        <time>2023-01-04T12:51:05.091Z</time>
      </trkpt>
      <trkpt lat="43.35723" lon="1.81504">
        <ele>236.758041</ele>
        <time>2023-01-04T12:51:08.094Z</time>
      </trkpt>
      <trkpt lat="43.35718" lon="1.81518">
        <ele>236.683625</ele>
        <time>2023-01-04T12:51:11.094Z</time>
      </trkpt>
      <trkpt lat="43.35712" lon="1.81535">
        <ele>236.589031</ele>
        <time>2023-01-04T12:51:14.092Z</time>
      </trkpt>
      <trkpt lat="43.35708" lon="1.81547">
        <ele>236.527185</ele>
        <time>2023-01-04T12:51:16.088Z</time>
      </trkpt>
      <trkpt lat="43.35703" lon="1.81562">
        <ele>236.44109</ele>
        <time>2023-01-04T12:51:19.090Z</time>
      </trkpt>
      <trkpt lat="43.35697" lon="1.81577">
        <ele>236.356536</ele>
        <time>2023-01-04T12:51:22.087Z</time>
      </trkpt>
      <trkpt lat="43.35692" lon="1.81592">
        <ele>236.274182</ele>
        <time>2023-01-04T12:51:25.091Z</time>
      </trkpt>
      <trkpt lat="43.35687" lon="1.81606">
        <ele>236.196053</ele>
        <time>2023-01-04T12:51:28.093Z</time>
      </trkpt>
      <trkpt lat="43.35683" lon="1.81619">
        <ele>236.228329</ele>
        <time>2023-01-04T12:51:31.077Z</time>
      </trkpt>
      <trkpt lat="43.3568" lon="1.81634">
        <ele>236.289963</ele>
        <time>2023-01-04T12:51:35.143Z</time>
      </trkpt>
      <trkpt lat="43.3568" lon="1.81648">
        <ele>236.349973</ele>
        <time>2023-01-04T12:51:40.092Z</time>
      </trkpt>
      <trkpt lat="43.35674" lon="1.81659">
        <ele>236.40422</ele>
        <time>2023-01-04T12:51:45.092Z</time>
      </trkpt>
      <trkpt lat="43.35669" lon="1.81669">
        <ele>236.45612</ele>
        <time>2023-01-04T12:51:49.093Z</time>
      </trkpt>
      <trkpt lat="43.35663" lon="1.81682">
        <ele>236.516584</ele>
        <time>2023-01-04T12:51:53.091Z</time>
      </trkpt>
      <trkpt lat="43.35657" lon="1.81693">
        <ele>236.571572</ele>
        <time>2023-01-04T12:51:56.094Z</time>
      </trkpt>
      <trkpt lat="43.3565" lon="1.81706">
        <ele>236.638009</ele>
        <time>2023-01-04T12:51:59.091Z</time>
      </trkpt>
      <trkpt lat="43.35643" lon="1.81719">
        <ele>236.705371</ele>
        <time>2023-01-04T12:52:02.073Z</time>
      </trkpt>
      <trkpt lat="43.35635" lon="1.81731">
        <ele>236.772595</ele>
        <time>2023-01-04T12:52:05.087Z</time>
      </trkpt>
      <trkpt lat="43.35625" lon="1.81744">
        <ele>236.845778</ele>
        <time>2023-01-04T12:52:08.091Z</time>
      </trkpt>
      <trkpt lat="43.35618" lon="1.81752">
        <ele>236.898749</ele>
        <time>2023-01-04T12:52:10.154Z</time>
      </trkpt>
      <trkpt lat="43.35609" lon="1.81765">
        <ele>236.972272</ele>
        <time>2023-01-04T12:52:13.091Z</time>
      </trkpt>
      <trkpt lat="43.35601" lon="1.81776">
        <ele>237.037835</ele>
        <time>2023-01-04T12:52:16.092Z</time>
      </trkpt>
      <trkpt lat="43.35595" lon="1.81786">
        <ele>237.090251</ele>
        <time>2023-01-04T12:52:19.067Z</time>
      </trkpt>
      <trkpt lat="43.35588" lon="1.81796">
        <ele>237.14359</ele>
        <time>2023-01-04T12:52:22.094Z</time>
      </trkpt>
      <trkpt lat="43.3558" lon="1.81806">
        <ele>237.246774</ele>
        <time>2023-01-04T12:52:26.095Z</time>
      </trkpt>
      <trkpt lat="43.35571" lon="1.81813">
        <ele>237.42479</ele>
        <time>2023-01-04T12:52:30.095Z</time>
      </trkpt>
      <trkpt lat="43.3556" lon="1.81818">
        <ele>237.63771</ele>
        <time>2023-01-04T12:52:34.105Z</time>
      </trkpt>
      <trkpt lat="43.35552" lon="1.81826">
        <ele>237.816788</ele>
        <time>2023-01-04T12:52:38.093Z</time>
      </trkpt>
      <trkpt lat="43.35543" lon="1.8183">
        <ele>237.981058</ele>
        <time>2023-01-04T12:52:43.095Z</time>
      </trkpt>
      <trkpt lat="43.35534" lon="1.81839">
        <ele>238.186884</ele>
        <time>2023-01-04T12:52:48.094Z</time>
      </trkpt>
      <trkpt lat="43.35525" lon="1.81847">
        <ele>238.384612</ele>
        <time>2023-01-04T12:52:53.096Z</time>
      </trkpt>
      <trkpt lat="43.35517" lon="1.81856">
        <ele>238.567404</ele>
        <time>2023-01-04T12:52:57.082Z</time>
      </trkpt>
      <trkpt lat="43.35508" lon="1.81867">
        <ele>238.773014</ele>
        <time>2023-01-04T12:53:01.087Z</time>
      </trkpt>
      <trkpt lat="43.35499" lon="1.81876">
        <ele>238.982596</ele>
        <time>2023-01-04T12:53:05.072Z</time>
      </trkpt>
      <trkpt lat="43.35489" lon="1.81885">
        <ele>239.19886</ele>
        <time>2023-01-04T12:53:09.091Z</time>
      </trkpt>
      <trkpt lat="43.35481" lon="1.81892">
        <ele>239.371267</ele>
        <time>2023-01-04T12:53:12.086Z</time>
      </trkpt>
      <trkpt lat="43.35472" lon="1.819">
        <ele>239.552611</ele>
        <time>2023-01-04T12:53:15.068Z</time>
      </trkpt>
      <trkpt lat="43.35464" lon="1.81909">
        <ele>239.738784</ele>
        <time>2023-01-04T12:53:18.093Z</time>
      </trkpt>
      <trkpt lat="43.35456" lon="1.81916">
        <ele>239.918605</ele>
        <time>2023-01-04T12:53:21.089Z</time>
      </trkpt>
      <trkpt lat="43.35446" lon="1.81925">
        <ele>240.129795</ele>
        <time>2023-01-04T12:53:25.170Z</time>
      </trkpt>
      <trkpt lat="43.35439" lon="1.81933">
        <ele>240.299972</ele>
        <time>2023-01-04T12:53:28.093Z</time>
      </trkpt>
      <trkpt lat="43.3543" lon="1.8194">
        <ele>240.396251</ele>
        <time>2023-01-04T12:53:31.096Z</time>
      </trkpt>
      <trkpt lat="43.35421" lon="1.81948">
        <ele>240.214994</ele>
        <time>2023-01-04T12:53:34.094Z</time>
      </trkpt>
      <trkpt lat="43.35412" lon="1.81956">
        <ele>240.034184</ele>
        <time>2023-01-04T12:53:37.089Z</time>
      </trkpt>
      <trkpt lat="43.35403" lon="1.81964">
        <ele>239.867307</ele>
        <time>2023-01-04T12:53:40.070Z</time>
      </trkpt>
      <trkpt lat="43.35395" lon="1.81974">
        <ele>239.685895</ele>
        <time>2023-01-04T12:53:43.087Z</time>
      </trkpt>
      <trkpt lat="43.35385" lon="1.81983">
        <ele>239.5028</ele>
        <time>2023-01-04T12:53:46.093Z</time>
      </trkpt>
      <trkpt lat="43.35377" lon="1.81991">
        <ele>239.327806</ele>
        <time>2023-01-04T12:53:49.091Z</time>
      </trkpt>
      <trkpt lat="43.3537" lon="1.82">
        <ele>239.171642</ele>
        <time>2023-01-04T12:53:52.095Z</time>
      </trkpt>
      <trkpt lat="43.35364" lon="1.8201">
        <ele>239.019839</ele>
        <time>2023-01-04T12:53:55.093Z</time>
      </trkpt>
      <trkpt lat="43.35357" lon="1.82018">
        <ele>238.869166</ele>
        <time>2023-01-04T12:53:58.091Z</time>
      </trkpt>
      <trkpt lat="43.35351" lon="1.82027">
        <ele>238.720721</ele>
        <time>2023-01-04T12:54:02.095Z</time>
      </trkpt>
      <trkpt lat="43.35344" lon="1.82039">
        <ele>238.543225</ele>
        <time>2023-01-04T12:54:08.093Z</time>
      </trkpt>
      <trkpt lat="43.35337" lon="1.82049">
        <ele>238.378432</ele>
        <time>2023-01-04T12:54:11.142Z</time>
      </trkpt>
      <trkpt lat="43.35328" lon="1.8206">
        <ele>238.18102</ele>
        <time>2023-01-04T12:54:14.092Z</time>
      </trkpt>
      <trkpt lat="43.3532" lon="1.82071">
        <ele>237.989642</ele>
        <time>2023-01-04T12:54:17.076Z</time>
      </trkpt>
      <trkpt lat="43.35312" lon="1.82083">
        <ele>237.795755</ele>
        <time>2023-01-04T12:54:20.092Z</time>
      </trkpt>
      <trkpt lat="43.35303" lon="1.82093">
        <ele>237.607524</ele>
        <time>2023-01-04T12:54:23.077Z</time>
      </trkpt>
      <trkpt lat="43.35295" lon="1.82102">
        <ele>237.527014</ele>
        <time>2023-01-04T12:54:26.094Z</time>
      </trkpt>
      <trkpt lat="43.35286" lon="1.82111">
        <ele>237.670067</ele>
        <time>2023-01-04T12:54:29.076Z</time>
      </trkpt>
      <trkpt lat="43.35278" lon="1.82123">
        <ele>237.811026</ele>
        <time>2023-01-04T12:54:32.095Z</time>
      </trkpt>
      <trkpt lat="43.35271" lon="1.82135">
        <ele>237.95447</ele>
        <time>2023-01-04T12:54:35.074Z</time>
      </trkpt>
      <trkpt lat="43.35264" lon="1.82145">
        <ele>238.085674</ele>
        <time>2023-01-04T12:54:38.091Z</time>
      </trkpt>
      <trkpt lat="43.35256" lon="1.82153">
        <ele>238.211548</ele>
        <time>2023-01-04T12:54:41.093Z</time>
      </trkpt>
      <trkpt lat="43.35248" lon="1.82163">
        <ele>238.339257</ele>
        <time>2023-01-04T12:54:44.093Z</time>
      </trkpt>
      <trkpt lat="43.35242" lon="1.82173">
        <ele>238.459517</ele>
        <time>2023-01-04T12:54:47.098Z</time>
      </trkpt>
      <trkpt lat="43.35235" lon="1.82183">
        <ele>238.590445</ele>
        <time>2023-01-04T12:54:50.091Z</time>
      </trkpt>
      <trkpt lat="43.35229" lon="1.82192">
        <ele>238.710666</ele>
        <time>2023-01-04T12:54:53.073Z</time>
      </trkpt>
      <trkpt lat="43.3522" lon="1.82202">
        <ele>238.853563</ele>
        <time>2023-01-04T12:54:57.091Z</time>
      </trkpt>
      <trkpt lat="43.35212" lon="1.82212">
        <ele>238.99213</ele>
        <time>2023-01-04T12:55:01.099Z</time>
      </trkpt>
      <trkpt lat="43.35204" lon="1.82222">
        <ele>239.125455</ele>
        <time>2023-01-04T12:55:04.093Z</time>
      </trkpt>
      <trkpt lat="43.35197" lon="1.82231">
        <ele>239.245676</ele>
        <time>2023-01-04T12:55:07.094Z</time>
      </trkpt>
      <trkpt lat="43.35189" lon="1.82239">
        <ele>239.374683</ele>
        <time>2023-01-04T12:55:11.092Z</time>
      </trkpt>
      <trkpt lat="43.35182" lon="1.8225">
        <ele>239.51036</ele>
        <time>2023-01-04T12:55:16.095Z</time>
      </trkpt>
      <trkpt lat="43.35175" lon="1.82259">
        <ele>239.632708</ele>
        <time>2023-01-04T12:55:21.093Z</time>
      </trkpt>
      <trkpt lat="43.35168" lon="1.8227">
        <ele>239.760275</ele>
        <time>2023-01-04T12:55:26.077Z</time>
      </trkpt>
      <trkpt lat="43.35161" lon="1.82279">
        <ele>239.775548</ele>
        <time>2023-01-04T12:55:31.092Z</time>
      </trkpt>
      <trkpt lat="43.35151" lon="1.82276">
        <ele>239.787041</ele>
        <time>2023-01-04T12:55:36.149Z</time>
      </trkpt>
      <trkpt lat="43.35142" lon="1.82271">
        <ele>239.796952</ele>
        <time>2023-01-04T12:55:39.094Z</time>
      </trkpt>
      <trkpt lat="43.35133" lon="1.82268">
        <ele>239.806751</ele>
        <time>2023-01-04T12:55:42.143Z</time>
      </trkpt>
      <trkpt lat="43.35123" lon="1.8227">
        <ele>239.817185</ele>
        <time>2023-01-04T12:55:45.094Z</time>
      </trkpt>
      <trkpt lat="43.35113" lon="1.82278">
        <ele>239.828657</ele>
        <time>2023-01-04T12:55:48.094Z</time>
      </trkpt>
      <trkpt lat="43.35104" lon="1.82286">
        <ele>239.84082</ele>
        <time>2023-01-04T12:55:51.073Z</time>
      </trkpt>
      <trkpt lat="43.35093" lon="1.82295">
        <ele>239.853705</ele>
        <time>2023-01-04T12:55:54.093Z</time>
      </trkpt>
      <trkpt lat="43.35083" lon="1.82306">
        <ele>239.86736</ele>
        <time>2023-01-04T12:55:57.090Z</time>
      </trkpt>
      <trkpt lat="43.35072" lon="1.82316">
        <ele>239.881391</ele>
        <time>2023-01-04T12:56:00.094Z</time>
      </trkpt>
      <trkpt lat="43.3506" lon="1.82324">
        <ele>239.895607</ele>
        <time>2023-01-04T12:56:03.092Z</time>
      </trkpt>
      <trkpt lat="43.35051" lon="1.82329">
        <ele>239.905511</ele>
        <time>2023-01-04T12:56:05.095Z</time>
      </trkpt>
      <trkpt lat="43.35042" lon="1.82333">
        <ele>239.915683</ele>
        <time>2023-01-04T12:56:07.094Z</time>
      </trkpt>
      <trkpt lat="43.35032" lon="1.82337">
        <ele>239.92662</ele>
        <time>2023-01-04T12:56:09.093Z</time>
      </trkpt>
      <trkpt lat="43.35022" lon="1.8234">
        <ele>239.937873</ele>
        <time>2023-01-04T12:56:11.077Z</time>
      </trkpt>
      <trkpt lat="43.3501" lon="1.82344">
        <ele>239.949862</ele>
        <time>2023-01-04T12:56:13.092Z</time>
      </trkpt>
      <trkpt lat="43.34999" lon="1.82347">
        <ele>239.84655</ele>
        <time>2023-01-04T12:56:15.105Z</time>
      </trkpt>
      <trkpt lat="43.34988" lon="1.8235">
        <ele>239.659132</ele>
        <time>2023-01-04T12:56:17.093Z</time>
      </trkpt>
      <trkpt lat="43.34977" lon="1.82354">
        <ele>239.467249</ele>
        <time>2023-01-04T12:56:19.091Z</time>
      </trkpt>
      <trkpt lat="43.34965" lon="1.82357">
        <ele>239.276378</ele>
        <time>2023-01-04T12:56:21.138Z</time>
      </trkpt>
      <trkpt lat="43.34953" lon="1.8236">
        <ele>239.079301</ele>
        <time>2023-01-04T12:56:23.093Z</time>
      </trkpt>
      <trkpt lat="43.34942" lon="1.82363">
        <ele>238.883606</ele>
        <time>2023-01-04T12:56:25.094Z</time>
      </trkpt>
      <trkpt lat="43.3493" lon="1.82367">
        <ele>238.69064</ele>
        <time>2023-01-04T12:56:27.150Z</time>
      </trkpt>
      <trkpt lat="43.34919" lon="1.82369">
        <ele>238.500452</ele>
        <time>2023-01-04T12:56:29.089Z</time>
      </trkpt>
      <trkpt lat="43.34908" lon="1.82373">
        <ele>238.31761</ele>
        <time>2023-01-04T12:56:31.094Z</time>
      </trkpt>
      <trkpt lat="43.34897" lon="1.82375">
        <ele>238.137534</ele>
        <time>2023-01-04T12:56:33.113Z</time>
      </trkpt>
      <trkpt lat="43.34886" lon="1.82378">
        <ele>237.954938</ele>
        <time>2023-01-04T12:56:35.096Z</time>
      </trkpt>
      <trkpt lat="43.34876" lon="1.82381">
        <ele>237.785429</ele>
        <time>2023-01-04T12:56:37.103Z</time>
      </trkpt>
      <trkpt lat="43.34866" lon="1.82384">
        <ele>237.622132</ele>
        <time>2023-01-04T12:56:39.131Z</time>
      </trkpt>
      <trkpt lat="43.34857" lon="1.82387">
        <ele>237.466743</ele>
        <time>2023-01-04T12:56:41.093Z</time>
      </trkpt>
      <trkpt lat="43.34845" lon="1.82391">
        <ele>237.256471</ele>
        <time>2023-01-04T12:56:44.090Z</time>
      </trkpt>
      <trkpt lat="43.34833" lon="1.82395">
        <ele>237.056845</ele>
        <time>2023-01-04T12:56:47.096Z</time>
      </trkpt>
      <trkpt lat="43.3482" lon="1.82401">
        <ele>236.89418</ele>
        <time>2023-01-04T12:56:50.095Z</time>
      </trkpt>
      <trkpt lat="43.34809" lon="1.82408">
        <ele>236.752146</ele>
        <time>2023-01-04T12:56:53.077Z</time>
      </trkpt>
      <trkpt lat="43.34798" lon="1.82416">
        <ele>236.612893</ele>
        <time>2023-01-04T12:56:56.095Z</time>
      </trkpt>
      <trkpt lat="43.34787" lon="1.82426">
        <ele>236.467712</ele>
        <time>2023-01-04T12:56:59.097Z</time>
      </trkpt>
      <trkpt lat="43.34775" lon="1.82435">
        <ele>236.317299</ele>
        <time>2023-01-04T12:57:02.094Z</time>
      </trkpt>
      <trkpt lat="43.34764" lon="1.82445">
        <ele>236.169236</ele>
        <time>2023-01-04T12:57:05.094Z</time>
      </trkpt>
      <trkpt lat="43.34756" lon="1.82452">
        <ele>236.062788</ele>
        <time>2023-01-04T12:57:07.090Z</time>
      </trkpt>
      <trkpt lat="43.34747" lon="1.82458">
        <ele>235.956774</ele>
        <time>2023-01-04T12:57:09.134Z</time>
      </trkpt>
      <trkpt lat="43.34739" lon="1.82464">
        <ele>235.849993</ele>
        <time>2023-01-04T12:57:11.071Z</time>
      </trkpt>
      <trkpt lat="43.34731" lon="1.82471">
        <ele>235.740039</ele>
        <time>2023-01-04T12:57:13.095Z</time>
      </trkpt>
      <trkpt lat="43.34722" lon="1.82478">
        <ele>235.626582</ele>
        <time>2023-01-04T12:57:15.150Z</time>
      </trkpt>
      <trkpt lat="43.34713" lon="1.82485">
        <ele>235.511753</ele>
        <time>2023-01-04T12:57:17.095Z</time>
      </trkpt>
      <trkpt lat="43.34704" lon="1.82493">
        <ele>235.392394</ele>
        <time>2023-01-04T12:57:19.074Z</time>
      </trkpt>
      <trkpt lat="43.34695" lon="1.825">
        <ele>235.277791</ele>
        <time>2023-01-04T12:57:21.145Z</time>
      </trkpt>
      <trkpt lat="43.34686" lon="1.82507">
        <ele>235.163625</ele>
        <time>2023-01-04T12:57:23.076Z</time>
      </trkpt>
      <trkpt lat="43.34678" lon="1.82514">
        <ele>235.052211</ele>
        <time>2023-01-04T12:57:25.092Z</time>
      </trkpt>
      <trkpt lat="43.34669" lon="1.82521">
        <ele>235.010279</ele>
        <time>2023-01-04T12:57:27.149Z</time>
      </trkpt>
      <trkpt lat="43.3466" lon="1.82528">
        <ele>235.038504</ele>
        <time>2023-01-04T12:57:29.090Z</time>
      </trkpt>
      <trkpt lat="43.34652" lon="1.82534">
        <ele>235.06523</ele>
        <time>2023-01-04T12:57:31.096Z</time>
      </trkpt>
      <trkpt lat="43.34644" lon="1.82542">
        <ele>235.092216</ele>
        <time>2023-01-04T12:57:33.142Z</time>
      </trkpt>
      <trkpt lat="43.34636" lon="1.82549">
        <ele>235.118509</ele>
        <time>2023-01-04T12:57:35.094Z</time>
      </trkpt>
      <trkpt lat="43.34627" lon="1.82556">
        <ele>235.145777</ele>
        <time>2023-01-04T12:57:37.083Z</time>
      </trkpt>
      <trkpt lat="43.34619" lon="1.82563">
        <ele>235.172099</ele>
        <time>2023-01-04T12:57:39.174Z</time>
      </trkpt>
      <trkpt lat="43.34611" lon="1.82569">
        <ele>235.199027</ele>
        <time>2023-01-04T12:57:41.074Z</time>
      </trkpt>
      <trkpt lat="43.34602" lon="1.82576">
        <ele>235.225615</ele>
        <time>2023-01-04T12:57:43.092Z</time>
      </trkpt>
      <trkpt lat="43.34595" lon="1.82583">
        <ele>235.251226</ele>
        <time>2023-01-04T12:57:45.143Z</time>
      </trkpt>
      <trkpt lat="43.34587" lon="1.8259">
        <ele>235.276762</ele>
        <time>2023-01-04T12:57:47.095Z</time>
      </trkpt>
      <trkpt lat="43.34578" lon="1.82597">
        <ele>235.304001</ele>
        <time>2023-01-04T12:57:49.069Z</time>
      </trkpt>
      <trkpt lat="43.3457" lon="1.82603">
        <ele>235.33053</ele>
        <time>2023-01-04T12:57:51.172Z</time>
      </trkpt>
      <trkpt lat="43.34562" lon="1.8261">
        <ele>235.35672</ele>
        <time>2023-01-04T12:57:53.095Z</time>
      </trkpt>
      <trkpt lat="43.34553" lon="1.82617">
        <ele>235.384906</ele>
        <time>2023-01-04T12:57:55.091Z</time>
      </trkpt>
      <trkpt lat="43.34545" lon="1.82623">
        <ele>235.410576</ele>
        <time>2023-01-04T12:57:57.141Z</time>
      </trkpt>
      <trkpt lat="43.34537" lon="1.8263">
        <ele>235.436623</ele>
        <time>2023-01-04T12:57:59.093Z</time>
      </trkpt>
      <trkpt lat="43.34528" lon="1.82637">
        <ele>235.463522</ele>
        <time>2023-01-04T12:58:01.094Z</time>
      </trkpt>
      <trkpt lat="43.3452" lon="1.82644">
        <ele>235.491336</ele>
        <time>2023-01-04T12:58:03.151Z</time>
      </trkpt>
      <trkpt lat="43.34511" lon="1.82651">
        <ele>235.572927</ele>
        <time>2023-01-04T12:58:05.095Z</time>
      </trkpt>
      <trkpt lat="43.34502" lon="1.82659">
        <ele>235.65895</ele>
        <time>2023-01-04T12:58:07.073Z</time>
      </trkpt>
      <trkpt lat="43.34495" lon="1.82665">
        <ele>235.736608</ele>
        <time>2023-01-04T12:58:09.140Z</time>
      </trkpt>
      <trkpt lat="43.34484" lon="1.82674">
        <ele>235.844661</ele>
        <time>2023-01-04T12:58:12.091Z</time>
      </trkpt>
      <trkpt lat="43.34474" lon="1.82683">
        <ele>235.942152</ele>
        <time>2023-01-04T12:58:15.142Z</time>
      </trkpt>
      <trkpt lat="43.34465" lon="1.82694">
        <ele>236.049305</ele>
        <time>2023-01-04T12:58:18.095Z</time>
      </trkpt>
      <trkpt lat="43.34455" lon="1.82708">
        <ele>236.163988</ele>
        <time>2023-01-04T12:58:21.149Z</time>
      </trkpt>
      <trkpt lat="43.34446" lon="1.82721">
        <ele>236.275845</ele>
        <time>2023-01-04T12:58:24.094Z</time>
      </trkpt>
      <trkpt lat="43.34441" lon="1.82731">
        <ele>236.35226</ele>
        <time>2023-01-04T12:58:26.094Z</time>
      </trkpt>
      <trkpt lat="43.34436" lon="1.82742">
        <ele>236.432253</ele>
        <time>2023-01-04T12:58:28.094Z</time>
      </trkpt>
      <trkpt lat="43.34431" lon="1.82753">
        <ele>236.513218</ele>
        <time>2023-01-04T12:58:30.094Z</time>
      </trkpt>
      <trkpt lat="43.34425" lon="1.82763">
        <ele>236.593016</ele>
        <time>2023-01-04T12:58:32.095Z</time>
      </trkpt>
      <trkpt lat="43.3442" lon="1.82774">
        <ele>236.66995</ele>
        <time>2023-01-04T12:58:34.095Z</time>
      </trkpt>
      <trkpt lat="43.34415" lon="1.82785">
        <ele>236.752044</ele>
        <time>2023-01-04T12:58:36.097Z</time>
      </trkpt>
      <trkpt lat="43.34411" lon="1.82797">
        <ele>236.834723</ele>
        <time>2023-01-04T12:58:38.095Z</time>
      </trkpt>
      <trkpt lat="43.34406" lon="1.8281">
        <ele>236.923875</ele>
        <time>2023-01-04T12:58:40.077Z</time>
      </trkpt>
      <trkpt lat="43.34401" lon="1.82822">
        <ele>237.009159</ele>
        <time>2023-01-04T12:58:42.089Z</time>
      </trkpt>
      <trkpt lat="43.34397" lon="1.82835">
        <ele>237.046497</ele>
        <time>2023-01-04T12:58:44.094Z</time>
      </trkpt>
      <trkpt lat="43.34392" lon="1.82848">
        <ele>237.077463</ele>
        <time>2023-01-04T12:58:46.094Z</time>
      </trkpt>
      <trkpt lat="43.34388" lon="1.82859">
        <ele>237.106891</ele>
        <time>2023-01-04T12:58:48.094Z</time>
      </trkpt>
      <trkpt lat="43.34383" lon="1.82872">
        <ele>237.13725</ele>
        <time>2023-01-04T12:58:50.093Z</time>
      </trkpt>
      <trkpt lat="43.34379" lon="1.82884">
        <ele>237.167218</ele>
        <time>2023-01-04T12:58:52.088Z</time>
      </trkpt>
      <trkpt lat="43.34374" lon="1.82896">
        <ele>237.197184</ele>
        <time>2023-01-04T12:58:54.097Z</time>
      </trkpt>
      <trkpt lat="43.34369" lon="1.82909">
        <ele>237.228352</ele>
        <time>2023-01-04T12:58:56.095Z</time>
      </trkpt>
      <trkpt lat="43.34365" lon="1.82921">
        <ele>237.259103</ele>
        <time>2023-01-04T12:58:58.088Z</time>
      </trkpt>
      <trkpt lat="43.3436" lon="1.82934">
        <ele>237.290548</ele>
        <time>2023-01-04T12:59:00.091Z</time>
      </trkpt>
      <trkpt lat="43.34355" lon="1.82946">
        <ele>237.320807</ele>
        <time>2023-01-04T12:59:02.098Z</time>
      </trkpt>
      <trkpt lat="43.3435" lon="1.82958">
        <ele>237.3511</ele>
        <time>2023-01-04T12:59:04.146Z</time>
      </trkpt>
      <trkpt lat="43.34346" lon="1.8297">
        <ele>237.379683</ele>
        <time>2023-01-04T12:59:06.095Z</time>
      </trkpt>
      <trkpt lat="43.34341" lon="1.82982">
        <ele>237.410511</ele>
        <time>2023-01-04T12:59:08.092Z</time>
      </trkpt>
      <trkpt lat="43.34337" lon="1.82994">
        <ele>237.438765</ele>
        <time>2023-01-04T12:59:10.139Z</time>
      </trkpt>
      <trkpt lat="43.34331" lon="1.8301">
        <ele>237.478147</ele>
        <time>2023-01-04T12:59:13.095Z</time>
      </trkpt>
      <trkpt lat="43.34326" lon="1.83022">
        <ele>237.50857</ele>
        <time>2023-01-04T12:59:15.096Z</time>
      </trkpt>
      <trkpt lat="43.34322" lon="1.83035">
        <ele>237.538087</ele>
        <time>2023-01-04T12:59:17.088Z</time>
      </trkpt>
      <trkpt lat="43.34315" lon="1.83051">
        <ele>237.548263</ele>
        <time>2023-01-04T12:59:20.070Z</time>
      </trkpt>
      <trkpt lat="43.34311" lon="1.83064">
        <ele>237.528924</ele>
        <time>2023-01-04T12:59:22.102Z</time>
      </trkpt>
      <trkpt lat="43.34307" lon="1.83076">
        <ele>237.509621</ele>
        <time>2023-01-04T12:59:24.093Z</time>
      </trkpt>
      <trkpt lat="43.34303" lon="1.83088">
        <ele>237.491273</ele>
        <time>2023-01-04T12:59:26.074Z</time>
      </trkpt>
      <trkpt lat="43.34299" lon="1.831">
        <ele>237.473313</ele>
        <time>2023-01-04T12:59:28.093Z</time>
      </trkpt>
      <trkpt lat="43.34295" lon="1.83112">
        <ele>237.454939</ele>
        <time>2023-01-04T12:59:30.093Z</time>
      </trkpt>
      <trkpt lat="43.34291" lon="1.83124">
        <ele>237.436192</ele>
        <time>2023-01-04T12:59:32.095Z</time>
      </trkpt>
      <trkpt lat="43.34287" lon="1.83136">
        <ele>237.416306</ele>
        <time>2023-01-04T12:59:34.093Z</time>
      </trkpt>
      <trkpt lat="43.34282" lon="1.83149">
        <ele>237.39684</ele>
        <time>2023-01-04T12:59:36.095Z</time>
      </trkpt>
      <trkpt lat="43.34277" lon="1.83161">
        <ele>237.377438</ele>
        <time>2023-01-04T12:59:38.096Z</time>
      </trkpt>
      <trkpt lat="43.34274" lon="1.83173">
        <ele>237.359142</ele>
        <time>2023-01-04T12:59:40.093Z</time>
      </trkpt>
      <trkpt lat="43.3427" lon="1.83185">
        <ele>237.33971</ele>
        <time>2023-01-04T12:59:42.095Z</time>
      </trkpt>
      <trkpt lat="43.34264" lon="1.83198">
        <ele>237.319534</ele>
        <time>2023-01-04T12:59:44.095Z</time>
      </trkpt>
      <trkpt lat="43.34259" lon="1.83211">
        <ele>237.298957</ele>
        <time>2023-01-04T12:59:46.095Z</time>
      </trkpt>
      <trkpt lat="43.34255" lon="1.83223">
        <ele>237.279322</ele>
        <time>2023-01-04T12:59:48.103Z</time>
      </trkpt>
      <trkpt lat="43.34251" lon="1.83234">
        <ele>237.261797</ele>
        <time>2023-01-04T12:59:50.093Z</time>
      </trkpt>
      <trkpt lat="43.34245" lon="1.8325">
        <ele>237.237723</ele>
        <time>2023-01-04T12:59:53.095Z</time>
      </trkpt>
      <trkpt lat="43.3424" lon="1.83264">
        <ele>237.215379</ele>
        <time>2023-01-04T12:59:56.089Z</time>
      </trkpt>
      <trkpt lat="43.34235" lon="1.83278">
        <ele>237.37773</ele>
        <time>2023-01-04T12:59:59.097Z</time>
      </trkpt>
      <trkpt lat="43.3423" lon="1.8329">
        <ele>237.545432</ele>
        <time>2023-01-04T13:00:02.094Z</time>
      </trkpt>
      <trkpt lat="43.34226" lon="1.83303">
        <ele>237.710588</ele>
        <time>2023-01-04T13:00:06.093Z</time>
      </trkpt>
      <trkpt lat="43.34221" lon="1.83314">
        <ele>237.86047</ele>
        <time>2023-01-04T13:00:09.156Z</time>
      </trkpt>
      <trkpt lat="43.34216" lon="1.83326">
        <ele>238.029703</ele>
        <time>2023-01-04T13:00:12.073Z</time>
      </trkpt>
      <trkpt lat="43.34211" lon="1.8334">
        <ele>238.208891</ele>
        <time>2023-01-04T13:00:15.146Z</time>
      </trkpt>
      <trkpt lat="43.34206" lon="1.83354">
        <ele>238.401565</ele>
        <time>2023-01-04T13:00:18.094Z</time>
      </trkpt>
      <trkpt lat="43.34201" lon="1.83369">
        <ele>238.592938</ele>
        <time>2023-01-04T13:00:21.141Z</time>
      </trkpt>
      <trkpt lat="43.34196" lon="1.83385">
        <ele>238.806704</ele>
        <time>2023-01-04T13:00:24.090Z</time>
      </trkpt>
      <trkpt lat="43.3419" lon="1.834">
        <ele>239.011577</ele>
        <time>2023-01-04T13:00:27.143Z</time>
      </trkpt>
      <trkpt lat="43.34184" lon="1.83414">
        <ele>239.202562</ele>
        <time>2023-01-04T13:00:30.092Z</time>
      </trkpt>
      <trkpt lat="43.34179" lon="1.83425">
        <ele>239.360921</ele>
        <time>2023-01-04T13:00:33.137Z</time>
      </trkpt>
      <trkpt lat="43.34174" lon="1.83439">
        <ele>239.54011</ele>
        <time>2023-01-04T13:00:37.094Z</time>
      </trkpt>
      <trkpt lat="43.34168" lon="1.83449">
        <ele>239.698186</ele>
        <time>2023-01-04T13:00:42.094Z</time>
      </trkpt>
      <trkpt lat="43.34159" lon="1.83478">
        <ele>240.069573</ele>
        <time>2023-01-04T13:01:37.140Z</time>
      </trkpt>
      <trkpt lat="43.34154" lon="1.83494">
        <ele>240.128331</ele>
        <time>2023-01-04T13:01:40.093Z</time>
      </trkpt>
      <trkpt lat="43.3415" lon="1.83506">
        <ele>240.089013</ele>
        <time>2023-01-04T13:01:42.094Z</time>
      </trkpt>
      <trkpt lat="43.34146" lon="1.83517">
        <ele>240.049299</ele>
        <time>2023-01-04T13:01:44.084Z</time>
      </trkpt>
      <trkpt lat="43.34142" lon="1.83528">
        <ele>240.00969</ele>
        <time>2023-01-04T13:01:46.094Z</time>
      </trkpt>
      <trkpt lat="43.34136" lon="1.83545">
        <ele>239.951559</ele>
        <time>2023-01-04T13:01:49.145Z</time>
      </trkpt>
      <trkpt lat="43.34131" lon="1.83561">
        <ele>239.89678</ele>
        <time>2023-01-04T13:01:52.077Z</time>
      </trkpt>
      <trkpt lat="43.34127" lon="1.83572">
        <ele>239.857934</ele>
        <time>2023-01-04T13:01:54.095Z</time>
      </trkpt>
      <trkpt lat="43.34122" lon="1.83587">
        <ele>239.804783</ele>
        <time>2023-01-04T13:01:57.095Z</time>
      </trkpt>
      <trkpt lat="43.34115" lon="1.83602">
        <ele>239.751144</ele>
        <time>2023-01-04T13:02:00.096Z</time>
      </trkpt>
      <trkpt lat="43.34109" lon="1.83617">
        <ele>239.696705</ele>
        <time>2023-01-04T13:02:03.099Z</time>
      </trkpt>
      <trkpt lat="43.34102" lon="1.83631">
        <ele>239.64356</ele>
        <time>2023-01-04T13:02:06.092Z</time>
      </trkpt>
      <trkpt lat="43.34095" lon="1.83646">
        <ele>239.586963</ele>
        <time>2023-01-04T13:02:09.095Z</time>
      </trkpt>
      <trkpt lat="43.34089" lon="1.83663">
        <ele>239.527991</ele>
        <time>2023-01-04T13:02:12.086Z</time>
      </trkpt>
      <trkpt lat="43.34085" lon="1.83674">
        <ele>239.48783</ele>
        <time>2023-01-04T13:02:14.076Z</time>
      </trkpt>
      <trkpt lat="43.34081" lon="1.83687">
        <ele>239.446705</ele>
        <time>2023-01-04T13:02:16.100Z</time>
      </trkpt>
      <trkpt lat="43.34078" lon="1.837">
        <ele>239.402497</ele>
        <time>2023-01-04T13:02:18.094Z</time>
      </trkpt>
      <trkpt lat="43.34075" lon="1.83713">
        <ele>239.307446</ele>
        <time>2023-01-04T13:02:20.094Z</time>
      </trkpt>
      <trkpt lat="43.34073" lon="1.83726">
        <ele>239.166708</ele>
        <time>2023-01-04T13:02:22.095Z</time>
      </trkpt>
      <trkpt lat="43.34072" lon="1.8374">
        <ele>239.030533</ele>
        <time>2023-01-04T13:02:24.133Z</time>
      </trkpt>
      <trkpt lat="43.34071" lon="1.83753">
        <ele>238.896737</ele>
        <time>2023-01-04T13:02:26.098Z</time>
      </trkpt>
      <trkpt lat="43.3407" lon="1.83767">
        <ele>238.752642</ele>
        <time>2023-01-04T13:02:28.097Z</time>
      </trkpt>
      <trkpt lat="43.3407" lon="1.83781">
        <ele>238.615715</ele>
        <time>2023-01-04T13:02:30.095Z</time>
      </trkpt>
      <trkpt lat="43.3407" lon="1.83798">
        <ele>238.437527</ele>
        <time>2023-01-04T13:02:33.096Z</time>
      </trkpt>
      <trkpt lat="43.34072" lon="1.83811">
        <ele>238.305989</ele>
        <time>2023-01-04T13:02:35.149Z</time>
      </trkpt>
      <trkpt lat="43.34076" lon="1.83823">
        <ele>238.168857</ele>
        <time>2023-01-04T13:02:37.095Z</time>
      </trkpt>
      <trkpt lat="43.34082" lon="1.83835">
        <ele>238.022505</ele>
        <time>2023-01-04T13:02:39.080Z</time>
      </trkpt>
      <trkpt lat="43.34088" lon="1.83848">
        <ele>237.871942</ele>
        <time>2023-01-04T13:02:41.139Z</time>
      </trkpt>
      <trkpt lat="43.34095" lon="1.83859">
        <ele>237.721456</ele>
        <time>2023-01-04T13:02:43.092Z</time>
      </trkpt>
      <trkpt lat="43.34101" lon="1.83873">
        <ele>237.56108</ele>
        <time>2023-01-04T13:02:45.093Z</time>
      </trkpt>
      <trkpt lat="43.34108" lon="1.83885">
        <ele>237.408195</ele>
        <time>2023-01-04T13:02:47.099Z</time>
      </trkpt>
      <trkpt lat="43.34115" lon="1.83898">
        <ele>237.246298</ele>
        <time>2023-01-04T13:02:49.095Z</time>
      </trkpt>
      <trkpt lat="43.34121" lon="1.8391">
        <ele>237.090133</ele>
        <time>2023-01-04T13:02:51.098Z</time>
      </trkpt>
      <trkpt lat="43.34127" lon="1.83924">
        <ele>236.933201</ele>
        <time>2023-01-04T13:02:53.095Z</time>
      </trkpt>
      <trkpt lat="43.34133" lon="1.83935">
        <ele>236.692023</ele>
        <time>2023-01-04T13:02:55.095Z</time>
      </trkpt>
      <trkpt lat="43.34139" lon="1.83947">
        <ele>236.410642</ele>
        <time>2023-01-04T13:02:57.093Z</time>
      </trkpt>
      <trkpt lat="43.34146" lon="1.83959">
        <ele>236.127798</ele>
        <time>2023-01-04T13:02:59.093Z</time>
      </trkpt>
      <trkpt lat="43.34151" lon="1.8397">
        <ele>235.866391</ele>
        <time>2023-01-04T13:03:01.094Z</time>
      </trkpt>
      <trkpt lat="43.34158" lon="1.83981">
        <ele>235.586453</ele>
        <time>2023-01-04T13:03:03.141Z</time>
      </trkpt>
      <trkpt lat="43.34164" lon="1.8399">
        <ele>235.343498</ele>
        <time>2023-01-04T13:03:05.091Z</time>
      </trkpt>
      <trkpt lat="43.3417" lon="1.84">
        <ele>235.091175</ele>
        <time>2023-01-04T13:03:07.092Z</time>
      </trkpt>
      <trkpt lat="43.34177" lon="1.84009">
        <ele>234.839629</ele>
        <time>2023-01-04T13:03:09.136Z</time>
      </trkpt>
      <trkpt lat="43.34185" lon="1.84018">
        <ele>234.562303</ele>
        <time>2023-01-04T13:03:11.096Z</time>
      </trkpt>
      <trkpt lat="43.34193" lon="1.84027">
        <ele>234.284959</ele>
        <time>2023-01-04T13:03:13.089Z</time>
      </trkpt>
      <trkpt lat="43.34201" lon="1.84033">
        <ele>234.029184</ele>
        <time>2023-01-04T13:03:15.137Z</time>
      </trkpt>
      <trkpt lat="43.34211" lon="1.8404">
        <ele>233.745888</ele>
        <time>2023-01-04T13:03:17.094Z</time>
      </trkpt>
      <trkpt lat="43.34221" lon="1.84046">
        <ele>233.452856</ele>
        <time>2023-01-04T13:03:19.094Z</time>
      </trkpt>
      <trkpt lat="43.34232" lon="1.84053">
        <ele>233.139602</ele>
        <time>2023-01-04T13:03:21.153Z</time>
      </trkpt>
      <trkpt lat="43.34242" lon="1.8406">
        <ele>232.823931</ele>
        <time>2023-01-04T13:03:23.102Z</time>
      </trkpt>
      <trkpt lat="43.34253" lon="1.84066">
        <ele>232.49997</ele>
        <time>2023-01-04T13:03:25.093Z</time>
      </trkpt>
      <trkpt lat="43.34265" lon="1.84073">
        <ele>232.172519</ele>
        <time>2023-01-04T13:03:27.156Z</time>
      </trkpt>
      <trkpt lat="43.34275" lon="1.84078">
        <ele>232.041338</ele>
        <time>2023-01-04T13:03:29.099Z</time>
      </trkpt>
      <trkpt lat="43.34287" lon="1.84084">
        <ele>231.980128</ele>
        <time>2023-01-04T13:03:31.094Z</time>
      </trkpt>
      <trkpt lat="43.34299" lon="1.84089">
        <ele>231.921008</ele>
        <time>2023-01-04T13:03:33.081Z</time>
      </trkpt>
      <trkpt lat="43.3431" lon="1.84095">
        <ele>231.861425</ele>
        <time>2023-01-04T13:03:35.087Z</time>
      </trkpt>
      <trkpt lat="43.34322" lon="1.84101">
        <ele>231.799163</ele>
        <time>2023-01-04T13:03:37.093Z</time>
      </trkpt>
      <trkpt lat="43.34334" lon="1.84106">
        <ele>231.736791</ele>
        <time>2023-01-04T13:03:39.077Z</time>
      </trkpt>
      <trkpt lat="43.34346" lon="1.84113">
        <ele>231.674156</ele>
        <time>2023-01-04T13:03:41.093Z</time>
      </trkpt>
      <trkpt lat="43.34357" lon="1.84118">
        <ele>231.61562</ele>
        <time>2023-01-04T13:03:43.094Z</time>
      </trkpt>
      <trkpt lat="43.34368" lon="1.84124">
        <ele>231.556971</ele>
        <time>2023-01-04T13:03:45.093Z</time>
      </trkpt>
      <trkpt lat="43.34379" lon="1.84131">
        <ele>231.496682</ele>
        <time>2023-01-04T13:03:47.092Z</time>
      </trkpt>
      <trkpt lat="43.3439" lon="1.84139">
        <ele>231.437772</ele>
        <time>2023-01-04T13:03:49.096Z</time>
      </trkpt>
      <trkpt lat="43.344" lon="1.84146">
        <ele>231.379699</ele>
        <time>2023-01-04T13:03:51.076Z</time>
      </trkpt>
      <trkpt lat="43.34411" lon="1.84155">
        <ele>231.319122</ele>
        <time>2023-01-04T13:03:53.095Z</time>
      </trkpt>
      <trkpt lat="43.34421" lon="1.84164">
        <ele>231.258061</ele>
        <time>2023-01-04T13:03:55.095Z</time>
      </trkpt>
      <trkpt lat="43.34431" lon="1.84173">
        <ele>231.198603</ele>
        <time>2023-01-04T13:03:57.093Z</time>
      </trkpt>
      <trkpt lat="43.34443" lon="1.84182">
        <ele>231.219245</ele>
        <time>2023-01-04T13:03:59.080Z</time>
      </trkpt>
      <trkpt lat="43.34453" lon="1.84191">
        <ele>231.243653</ele>
        <time>2023-01-04T13:04:01.098Z</time>
      </trkpt>
      <trkpt lat="43.34463" lon="1.84199">
        <ele>231.267289</ele>
        <time>2023-01-04T13:04:03.095Z</time>
      </trkpt>
      <trkpt lat="43.34473" lon="1.84208">
        <ele>231.290413</ele>
        <time>2023-01-04T13:04:05.095Z</time>
      </trkpt>
      <trkpt lat="43.34482" lon="1.84217">
        <ele>231.312149</ele>
        <time>2023-01-04T13:04:07.098Z</time>
      </trkpt>
      <trkpt lat="43.34492" lon="1.84225">
        <ele>231.334961</ele>
        <time>2023-01-04T13:04:09.077Z</time>
      </trkpt>
      <trkpt lat="43.34502" lon="1.84233">
        <ele>231.357661</ele>
        <time>2023-01-04T13:04:11.093Z</time>
      </trkpt>
      <trkpt lat="43.34511" lon="1.84241">
        <ele>231.379829</ele>
        <time>2023-01-04T13:04:13.094Z</time>
      </trkpt>
      <trkpt lat="43.34521" lon="1.84249">
        <ele>231.40187</ele>
        <time>2023-01-04T13:04:15.079Z</time>
      </trkpt>
      <trkpt lat="43.3453" lon="1.84257">
        <ele>231.42306</ele>
        <time>2023-01-04T13:04:17.093Z</time>
      </trkpt>
      <trkpt lat="43.34539" lon="1.84265">
        <ele>231.444632</ele>
        <time>2023-01-04T13:04:19.094Z</time>
      </trkpt>
      <trkpt lat="43.34547" lon="1.84273">
        <ele>231.46515</ele>
        <time>2023-01-04T13:04:21.098Z</time>
      </trkpt>
      <trkpt lat="43.34557" lon="1.84281">
        <ele>231.486417</ele>
        <time>2023-01-04T13:04:23.098Z</time>
      </trkpt>
      <trkpt lat="43.34565" lon="1.84288">
        <ele>231.506895</ele>
        <time>2023-01-04T13:04:25.095Z</time>
      </trkpt>
      <trkpt lat="43.34574" lon="1.84295">
        <ele>231.526836</ele>
        <time>2023-01-04T13:04:27.099Z</time>
      </trkpt>
      <trkpt lat="43.34582" lon="1.84303">
        <ele>231.546131</ele>
        <time>2023-01-04T13:04:29.097Z</time>
      </trkpt>
      <trkpt lat="43.3459" lon="1.8431">
        <ele>231.595802</ele>
        <time>2023-01-04T13:04:31.143Z</time>
      </trkpt>
      <trkpt lat="43.34597" lon="1.84316">
        <ele>231.659619</ele>
        <time>2023-01-04T13:04:33.100Z</time>
      </trkpt>
      <trkpt lat="43.34608" lon="1.84325">
        <ele>231.752687</ele>
        <time>2023-01-04T13:04:36.093Z</time>
      </trkpt>
      <trkpt lat="43.34619" lon="1.84335">
        <ele>231.844007</ele>
        <time>2023-01-04T13:04:39.093Z</time>
      </trkpt>
      <trkpt lat="43.34631" lon="1.84345">
        <ele>231.939863</ele>
        <time>2023-01-04T13:04:42.081Z</time>
      </trkpt>
      <trkpt lat="43.34638" lon="1.84352">
        <ele>232.005618</ele>
        <time>2023-01-04T13:04:44.081Z</time>
      </trkpt>
      <trkpt lat="43.3465" lon="1.84361">
        <ele>232.098762</ele>
        <time>2023-01-04T13:04:47.095Z</time>
      </trkpt>
      <trkpt lat="43.34658" lon="1.84369">
        <ele>232.166297</ele>
        <time>2023-01-04T13:04:49.147Z</time>
      </trkpt>
      <trkpt lat="43.34665" lon="1.84375">
        <ele>232.232403</ele>
        <time>2023-01-04T13:04:51.097Z</time>
      </trkpt>
      <trkpt lat="43.34673" lon="1.84382">
        <ele>232.297034</ele>
        <time>2023-01-04T13:04:53.097Z</time>
      </trkpt>
      <trkpt lat="43.34681" lon="1.84389">
        <ele>232.361725</ele>
        <time>2023-01-04T13:04:55.112Z</time>
      </trkpt>
      <trkpt lat="43.34689" lon="1.84395">
        <ele>232.428106</ele>
        <time>2023-01-04T13:04:57.095Z</time>
      </trkpt>
      <trkpt lat="43.347" lon="1.84405">
        <ele>232.520569</ele>
        <time>2023-01-04T13:05:00.097Z</time>
      </trkpt>
      <trkpt lat="43.3471" lon="1.84415">
        <ele>232.607181</ele>
        <time>2023-01-04T13:05:03.096Z</time>
      </trkpt>
      <trkpt lat="43.3472" lon="1.84423">
        <ele>232.689222</ele>
        <time>2023-01-04T13:05:06.096Z</time>
      </trkpt>
      <trkpt lat="43.34729" lon="1.84429">
        <ele>232.76495</ele>
        <time>2023-01-04T13:05:09.095Z</time>
      </trkpt>
      <trkpt lat="43.34738" lon="1.84437">
        <ele>232.851902</ele>
        <time>2023-01-04T13:05:12.094Z</time>
      </trkpt>
      <trkpt lat="43.34747" lon="1.84443">
        <ele>233.016946</ele>
        <time>2023-01-04T13:05:15.094Z</time>
      </trkpt>
      <trkpt lat="43.34758" lon="1.84449">
        <ele>233.192826</ele>
        <time>2023-01-04T13:05:18.096Z</time>
      </trkpt>
      <trkpt lat="43.34768" lon="1.84456">
        <ele>233.377355</ele>
        <time>2023-01-04T13:05:21.097Z</time>
      </trkpt>
      <trkpt lat="43.34779" lon="1.84462">
        <ele>233.563342</ele>
        <time>2023-01-04T13:05:24.095Z</time>
      </trkpt>
      <trkpt lat="43.3479" lon="1.84467">
        <ele>233.750785</ele>
        <time>2023-01-04T13:05:27.094Z</time>
      </trkpt>
      <trkpt lat="43.34802" lon="1.84473">
        <ele>233.941603</ele>
        <time>2023-01-04T13:05:30.091Z</time>
      </trkpt>
      <trkpt lat="43.34813" lon="1.84479">
        <ele>234.130536</ele>
        <time>2023-01-04T13:05:33.096Z</time>
      </trkpt>
      <trkpt lat="43.34824" lon="1.84484">
        <ele>234.315711</ele>
        <time>2023-01-04T13:05:36.073Z</time>
      </trkpt>
      <trkpt lat="43.34835" lon="1.84488">
        <ele>234.50588</ele>
        <time>2023-01-04T13:05:39.096Z</time>
      </trkpt>
      <trkpt lat="43.34846" lon="1.84493">
        <ele>234.680586</ele>
        <time>2023-01-04T13:05:42.092Z</time>
      </trkpt>
      <trkpt lat="43.34856" lon="1.84497">
        <ele>234.840297</ele>
        <time>2023-01-04T13:05:45.106Z</time>
      </trkpt>
      <trkpt lat="43.34873" lon="1.84506">
        <ele>235.131403</ele>
        <time>2023-01-04T13:08:42.089Z</time>
      </trkpt>
      <trkpt lat="43.34882" lon="1.84515">
        <ele>235.307822</ele>
        <time>2023-01-04T13:08:47.086Z</time>
      </trkpt>
      <trkpt lat="43.34889" lon="1.84528">
        <ele>235.494301</ele>
        <time>2023-01-04T13:08:51.096Z</time>
      </trkpt>
      <trkpt lat="43.34891" lon="1.84541">
        <ele>235.645576</ele>
        <time>2023-01-04T13:08:54.079Z</time>
      </trkpt>
      <trkpt lat="43.34891" lon="1.84556">
        <ele>235.744235</ele>
        <time>2023-01-04T13:08:57.096Z</time>
      </trkpt>
      <trkpt lat="43.34888" lon="1.84571">
        <ele>235.829406</ele>
        <time>2023-01-04T13:09:00.090Z</time>
      </trkpt>
      <trkpt lat="43.34885" lon="1.84588">
        <ele>235.92491</ele>
        <time>2023-01-04T13:09:03.080Z</time>
      </trkpt>
      <trkpt lat="43.34882" lon="1.846">
        <ele>235.993271</ele>
        <time>2023-01-04T13:09:05.089Z</time>
      </trkpt>
      <trkpt lat="43.34873" lon="1.84614">
        <ele>236.089881</ele>
        <time>2023-01-04T13:09:07.095Z</time>
      </trkpt>
      <trkpt lat="43.3487" lon="1.84626">
        <ele>236.160053</ele>
        <time>2023-01-04T13:09:09.092Z</time>
      </trkpt>
      <trkpt lat="43.34867" lon="1.84638">
        <ele>236.228432</ele>
        <time>2023-01-04T13:09:11.087Z</time>
      </trkpt>
      <trkpt lat="43.34864" lon="1.84651">
        <ele>236.303161</ele>
        <time>2023-01-04T13:09:13.083Z</time>
      </trkpt>
      <trkpt lat="43.34861" lon="1.84664">
        <ele>236.374821</ele>
        <time>2023-01-04T13:09:15.075Z</time>
      </trkpt>
      <trkpt lat="43.34858" lon="1.84676">
        <ele>236.443522</ele>
        <time>2023-01-04T13:09:17.081Z</time>
      </trkpt>
      <trkpt lat="43.34854" lon="1.84694">
        <ele>236.542128</ele>
        <time>2023-01-04T13:09:20.087Z</time>
      </trkpt>
      <trkpt lat="43.3485" lon="1.84711">
        <ele>236.64044</ele>
        <time>2023-01-04T13:09:23.085Z</time>
      </trkpt>
      <trkpt lat="43.34846" lon="1.84728">
        <ele>236.735397</ele>
        <time>2023-01-04T13:09:26.086Z</time>
      </trkpt>
      <trkpt lat="43.34843" lon="1.84739">
        <ele>236.803004</ele>
        <time>2023-01-04T13:09:28.078Z</time>
      </trkpt>
      <trkpt lat="43.3484" lon="1.84751">
        <ele>236.870107</ele>
        <time>2023-01-04T13:09:30.088Z</time>
      </trkpt>
      <trkpt lat="43.34837" lon="1.84768">
        <ele>236.963667</ele>
        <time>2023-01-04T13:09:33.089Z</time>
      </trkpt>
      <trkpt lat="43.34832" lon="1.84783">
        <ele>236.955292</ele>
        <time>2023-01-04T13:09:36.080Z</time>
      </trkpt>
      <trkpt lat="43.34827" lon="1.848">
        <ele>236.816402</ele>
        <time>2023-01-04T13:09:39.090Z</time>
      </trkpt>
      <trkpt lat="43.34825" lon="1.84813">
        <ele>236.715882</ele>
        <time>2023-01-04T13:09:41.107Z</time>
      </trkpt>
      <trkpt lat="43.34822" lon="1.84826">
        <ele>236.611299</ele>
        <time>2023-01-04T13:09:43.097Z</time>
      </trkpt>
      <trkpt lat="43.34819" lon="1.8484">
        <ele>236.503368</ele>
        <time>2023-01-04T13:09:45.079Z</time>
      </trkpt>
      <trkpt lat="43.34816" lon="1.84852">
        <ele>236.402509</ele>
        <time>2023-01-04T13:09:47.114Z</time>
      </trkpt>
      <trkpt lat="43.34812" lon="1.84866">
        <ele>236.288427</ele>
        <time>2023-01-04T13:09:49.107Z</time>
      </trkpt>
      <trkpt lat="43.34808" lon="1.8488">
        <ele>236.17509</ele>
        <time>2023-01-04T13:09:51.107Z</time>
      </trkpt>
      <trkpt lat="43.34803" lon="1.84893">
        <ele>236.06908</ele>
        <time>2023-01-04T13:09:53.098Z</time>
      </trkpt>
      <trkpt lat="43.34799" lon="1.84906">
        <ele>235.95895</ele>
        <time>2023-01-04T13:09:55.091Z</time>
      </trkpt>
      <trkpt lat="43.34794" lon="1.8492">
        <ele>235.840654</ele>
        <time>2023-01-04T13:09:57.110Z</time>
      </trkpt>
      <trkpt lat="43.34789" lon="1.84934">
        <ele>235.720943</ele>
        <time>2023-01-04T13:09:59.080Z</time>
      </trkpt>
      <trkpt lat="43.34784" lon="1.84948">
        <ele>235.607083</ele>
        <time>2023-01-04T13:10:01.086Z</time>
      </trkpt>
      <trkpt lat="43.34779" lon="1.84959">
        <ele>235.50134</ele>
        <time>2023-01-04T13:10:03.084Z</time>
      </trkpt>
      <trkpt lat="43.34773" lon="1.84973">
        <ele>235.38372</ele>
        <time>2023-01-04T13:10:05.109Z</time>
      </trkpt>
      <trkpt lat="43.34768" lon="1.84986">
        <ele>235.271022</ele>
        <time>2023-01-04T13:10:07.104Z</time>
      </trkpt>
      <trkpt lat="43.34762" lon="1.84999">
        <ele>235.158261</ele>
        <time>2023-01-04T13:10:09.096Z</time>
      </trkpt>
      <trkpt lat="43.34756" lon="1.85011">
        <ele>235.038492</ele>
        <time>2023-01-04T13:10:11.082Z</time>
      </trkpt>
      <trkpt lat="43.34751" lon="1.85024">
        <ele>234.921633</ele>
        <time>2023-01-04T13:10:13.105Z</time>
      </trkpt>
      <trkpt lat="43.34745" lon="1.85036">
        <ele>234.80544</ele>
        <time>2023-01-04T13:10:15.081Z</time>
      </trkpt>
      <trkpt lat="43.34739" lon="1.85048">
        <ele>234.696399</ele>
        <time>2023-01-04T13:10:17.088Z</time>
      </trkpt>
      <trkpt lat="43.34734" lon="1.85058">
        <ele>234.591861</ele>
        <time>2023-01-04T13:10:19.087Z</time>
      </trkpt>
      <trkpt lat="43.34726" lon="1.85073">
        <ele>234.445706</ele>
        <time>2023-01-04T13:10:22.088Z</time>
      </trkpt>
      <trkpt lat="43.34719" lon="1.85088">
        <ele>234.307223</ele>
        <time>2023-01-04T13:10:25.086Z</time>
      </trkpt>
      <trkpt lat="43.34711" lon="1.85102">
        <ele>234.164264</ele>
        <time>2023-01-04T13:10:28.097Z</time>
      </trkpt>
      <trkpt lat="43.34706" lon="1.85114">
        <ele>234.059984</ele>
        <time>2023-01-04T13:10:30.074Z</time>
      </trkpt>
      <trkpt lat="43.347" lon="1.85127">
        <ele>233.934175</ele>
        <time>2023-01-04T13:10:33.081Z</time>
      </trkpt>
      <trkpt lat="43.34692" lon="1.85142">
        <ele>233.791861</ele>
        <time>2023-01-04T13:10:36.088Z</time>
      </trkpt>
      <trkpt lat="43.34686" lon="1.85154">
        <ele>233.668118</ele>
        <time>2023-01-04T13:10:39.083Z</time>
      </trkpt>
      <trkpt lat="43.34679" lon="1.85163">
        <ele>233.567675</ele>
        <time>2023-01-04T13:10:42.083Z</time>
      </trkpt>
      <trkpt lat="43.34671" lon="1.85174">
        <ele>233.44964</ele>
        <time>2023-01-04T13:10:46.092Z</time>
      </trkpt>
      <trkpt lat="43.34667" lon="1.85185">
        <ele>233.348043</ele>
        <time>2023-01-04T13:10:49.086Z</time>
      </trkpt>
      <trkpt lat="43.34661" lon="1.852">
        <ele>233.211431</ele>
        <time>2023-01-04T13:10:52.095Z</time>
      </trkpt>
      <trkpt lat="43.34655" lon="1.85214">
        <ele>232.934418</ele>
        <time>2023-01-04T13:10:55.093Z</time>
      </trkpt>
      <trkpt lat="43.34649" lon="1.85225">
        <ele>232.676604</ele>
        <time>2023-01-04T13:10:57.080Z</time>
      </trkpt>
      <trkpt lat="43.34643" lon="1.85241">
        <ele>232.312878</ele>
        <time>2023-01-04T13:11:00.079Z</time>
      </trkpt>
      <trkpt lat="43.34638" lon="1.85252">
        <ele>232.052038</ele>
        <time>2023-01-04T13:11:02.084Z</time>
      </trkpt>
      <trkpt lat="43.34633" lon="1.85263">
        <ele>231.804012</ele>
        <time>2023-01-04T13:11:04.088Z</time>
      </trkpt>
      <trkpt lat="43.34627" lon="1.85275">
        <ele>231.513703</ele>
        <time>2023-01-04T13:11:06.082Z</time>
      </trkpt>
      <trkpt lat="43.34622" lon="1.85287">
        <ele>231.229128</ele>
        <time>2023-01-04T13:11:08.089Z</time>
      </trkpt>
      <trkpt lat="43.34616" lon="1.853">
        <ele>230.923129</ele>
        <time>2023-01-04T13:11:10.076Z</time>
      </trkpt>
      <trkpt lat="43.34611" lon="1.85313">
        <ele>230.636472</ele>
        <time>2023-01-04T13:11:12.086Z</time>
      </trkpt>
      <trkpt lat="43.34606" lon="1.85327">
        <ele>230.325337</ele>
        <time>2023-01-04T13:11:14.105Z</time>
      </trkpt>
      <trkpt lat="43.346" lon="1.85341">
        <ele>230.002316</ele>
        <time>2023-01-04T13:11:16.079Z</time>
      </trkpt>
      <trkpt lat="43.34595" lon="1.85358">
        <ele>229.641033</ele>
        <time>2023-01-04T13:11:18.087Z</time>
      </trkpt>
      <trkpt lat="43.3459" lon="1.85375">
        <ele>229.262904</ele>
        <time>2023-01-04T13:11:20.086Z</time>
      </trkpt>
      <trkpt lat="43.34586" lon="1.85393">
        <ele>228.897773</ele>
        <time>2023-01-04T13:11:22.085Z</time>
      </trkpt>
      <trkpt lat="43.34581" lon="1.8541">
        <ele>228.52802</ele>
        <time>2023-01-04T13:11:24.089Z</time>
      </trkpt>
      <trkpt lat="43.34577" lon="1.85426">
        <ele>228.268683</ele>
        <time>2023-01-04T13:11:26.103Z</time>
      </trkpt>
      <trkpt lat="43.34573" lon="1.85441">
        <ele>228.361048</ele>
        <time>2023-01-04T13:11:28.084Z</time>
      </trkpt>
      <trkpt lat="43.3457" lon="1.85452">
        <ele>228.435604</ele>
        <time>2023-01-04T13:11:30.078Z</time>
      </trkpt>
      <trkpt lat="43.34565" lon="1.85469">
        <ele>228.542433</ele>
        <time>2023-01-04T13:11:33.080Z</time>
      </trkpt>
      <trkpt lat="43.34561" lon="1.85486">
        <ele>228.649592</ele>
        <time>2023-01-04T13:11:36.105Z</time>
      </trkpt>
      <trkpt lat="43.34556" lon="1.85498">
        <ele>228.727426</ele>
        <time>2023-01-04T13:11:38.085Z</time>
      </trkpt>
      <trkpt lat="43.34552" lon="1.85509">
        <ele>228.802415</ele>
        <time>2023-01-04T13:11:40.084Z</time>
      </trkpt>
      <trkpt lat="43.34547" lon="1.85525">
        <ele>228.904163</ele>
        <time>2023-01-04T13:11:43.080Z</time>
      </trkpt>
      <trkpt lat="43.34542" lon="1.85538">
        <ele>228.992772</ele>
        <time>2023-01-04T13:11:46.087Z</time>
      </trkpt>
      <trkpt lat="43.34536" lon="1.85552">
        <ele>229.088565</ele>
        <time>2023-01-04T13:11:49.084Z</time>
      </trkpt>
      <trkpt lat="43.34532" lon="1.85565">
        <ele>229.17278</ele>
        <time>2023-01-04T13:11:52.073Z</time>
      </trkpt>
      <trkpt lat="43.34527" lon="1.85578">
        <ele>229.260152</ele>
        <time>2023-01-04T13:11:55.093Z</time>
      </trkpt>
      <trkpt lat="43.34523" lon="1.8559">
        <ele>229.338372</ele>
        <time>2023-01-04T13:11:58.095Z</time>
      </trkpt>
      <trkpt lat="43.34518" lon="1.85602">
        <ele>229.41862</ele>
        <time>2023-01-04T13:12:01.081Z</time>
      </trkpt>
      <trkpt lat="43.34512" lon="1.85614">
        <ele>229.502849</ele>
        <time>2023-01-04T13:12:04.085Z</time>
      </trkpt>
      <trkpt lat="43.34508" lon="1.85625">
        <ele>229.576436</ele>
        <time>2023-01-04T13:12:07.076Z</time>
      </trkpt>
      <trkpt lat="43.34502" lon="1.85637">
        <ele>229.666048</ele>
        <time>2023-01-04T13:12:11.104Z</time>
      </trkpt>
      <trkpt lat="43.34494" lon="1.85646">
        <ele>229.791691</ele>
        <time>2023-01-04T13:12:15.092Z</time>
      </trkpt>
      <trkpt lat="43.34482" lon="1.85646">
        <ele>230.01082</ele>
        <time>2023-01-04T13:12:19.088Z</time>
      </trkpt>
      <trkpt lat="43.34473" lon="1.8564">
        <ele>230.189355</ele>
        <time>2023-01-04T13:12:22.083Z</time>
      </trkpt>
      <trkpt lat="43.34463" lon="1.85634">
        <ele>230.385363</ele>
        <time>2023-01-04T13:12:25.088Z</time>
      </trkpt>
      <trkpt lat="43.34453" lon="1.85628">
        <ele>230.569305</ele>
        <time>2023-01-04T13:12:28.081Z</time>
      </trkpt>
      <trkpt lat="43.34443" lon="1.85622">
        <ele>230.766833</ele>
        <time>2023-01-04T13:12:31.080Z</time>
      </trkpt>
      <trkpt lat="43.34432" lon="1.85616">
        <ele>230.978221</ele>
        <time>2023-01-04T13:12:34.086Z</time>
      </trkpt>
      <trkpt lat="43.34422" lon="1.85609">
        <ele>231.182471</ele>
        <time>2023-01-04T13:12:37.078Z</time>
      </trkpt>
      <trkpt lat="43.3441" lon="1.85603">
        <ele>231.409261</ele>
        <time>2023-01-04T13:12:40.083Z</time>
      </trkpt>
      <trkpt lat="43.34398" lon="1.85597">
        <ele>231.63652</ele>
        <time>2023-01-04T13:12:43.080Z</time>
      </trkpt>
      <trkpt lat="43.34386" lon="1.85592">
        <ele>231.871978</ele>
        <time>2023-01-04T13:12:46.074Z</time>
      </trkpt>
      <trkpt lat="43.34376" lon="1.85592">
        <ele>232.040987</ele>
        <time>2023-01-04T13:12:48.089Z</time>
      </trkpt>
      <trkpt lat="43.34367" lon="1.85593">
        <ele>232.214936</ele>
        <time>2023-01-04T13:12:50.080Z</time>
      </trkpt>
      <trkpt lat="43.34354" lon="1.85598">
        <ele>232.451401</ele>
        <time>2023-01-04T13:12:53.086Z</time>
      </trkpt>
      <trkpt lat="43.34342" lon="1.85603">
        <ele>232.66779</ele>
        <time>2023-01-04T13:12:56.078Z</time>
      </trkpt>
      <trkpt lat="43.34331" lon="1.85608">
        <ele>232.877905</ele>
        <time>2023-01-04T13:12:59.092Z</time>
      </trkpt>
      <trkpt lat="43.34321" lon="1.85615">
        <ele>233.092582</ele>
        <time>2023-01-04T13:13:02.085Z</time>
      </trkpt>
      <trkpt lat="43.34311" lon="1.85619">
        <ele>233.302786</ele>
        <time>2023-01-04T13:13:05.084Z</time>
      </trkpt>
      <trkpt lat="43.34302" lon="1.85623">
        <ele>233.495444</ele>
        <time>2023-01-04T13:13:08.081Z</time>
      </trkpt>
      <trkpt lat="43.34293" lon="1.85628">
        <ele>233.684352</ele>
        <time>2023-01-04T13:13:11.085Z</time>
      </trkpt>
      <trkpt lat="43.34284" lon="1.85633">
        <ele>233.880703</ele>
        <time>2023-01-04T13:13:14.083Z</time>
      </trkpt>
      <trkpt lat="43.34275" lon="1.85638">
        <ele>234.068169</ele>
        <time>2023-01-04T13:13:17.078Z</time>
      </trkpt>
      <trkpt lat="43.34266" lon="1.85642">
        <ele>234.248107</ele>
        <time>2023-01-04T13:13:20.081Z</time>
      </trkpt>
      <trkpt lat="43.34257" lon="1.85647">
        <ele>234.431908</ele>
        <time>2023-01-04T13:13:23.084Z</time>
      </trkpt>
      <trkpt lat="43.34247" lon="1.85652">
        <ele>234.644767</ele>
        <time>2023-01-04T13:13:26.081Z</time>
      </trkpt>
      <trkpt lat="43.34235" lon="1.85659">
        <ele>234.915109</ele>
        <time>2023-01-04T13:13:29.083Z</time>
      </trkpt>
      <trkpt lat="43.34225" lon="1.85664">
        <ele>235.115643</ele>
        <time>2023-01-04T13:13:31.083Z</time>
      </trkpt>
      <trkpt lat="43.34215" lon="1.8567">
        <ele>235.323524</ele>
        <time>2023-01-04T13:13:33.098Z</time>
      </trkpt>
      <trkpt lat="43.34204" lon="1.85675">
        <ele>235.55183</ele>
        <time>2023-01-04T13:13:35.090Z</time>
      </trkpt>
      <trkpt lat="43.34194" lon="1.85681">
        <ele>235.776449</ele>
        <time>2023-01-04T13:13:37.084Z</time>
      </trkpt>
      <trkpt lat="43.34183" lon="1.85685">
        <ele>235.987048</ele>
        <time>2023-01-04T13:13:39.091Z</time>
      </trkpt>
      <trkpt lat="43.34173" lon="1.8569">
        <ele>236.205851</ele>
        <time>2023-01-04T13:13:41.084Z</time>
      </trkpt>
      <trkpt lat="43.34163" lon="1.85692">
        <ele>236.40352</ele>
        <time>2023-01-04T13:13:43.084Z</time>
      </trkpt>
      <trkpt lat="43.34149" lon="1.85694">
        <ele>236.416428</ele>
        <time>2023-01-04T13:13:46.092Z</time>
      </trkpt>
      <trkpt lat="43.34136" lon="1.85695">
        <ele>236.32442</ele>
        <time>2023-01-04T13:13:49.097Z</time>
      </trkpt>
      <trkpt lat="43.34124" lon="1.85696">
        <ele>236.242153</ele>
        <time>2023-01-04T13:13:52.087Z</time>
      </trkpt>
      <trkpt lat="43.34114" lon="1.85698">
        <ele>236.170023</ele>
        <time>2023-01-04T13:13:55.087Z</time>
      </trkpt>
      <trkpt lat="43.34105" lon="1.857">
        <ele>236.107427</ele>
        <time>2023-01-04T13:13:58.088Z</time>
      </trkpt>
      <trkpt lat="43.34094" lon="1.85702">
        <ele>236.032564</ele>
        <time>2023-01-04T13:14:02.082Z</time>
      </trkpt>
      <trkpt lat="43.34084" lon="1.85704">
        <ele>235.964981</ele>
        <time>2023-01-04T13:14:06.077Z</time>
      </trkpt>
      <trkpt lat="43.34073" lon="1.85709">
        <ele>235.881129</ele>
        <time>2023-01-04T13:14:10.094Z</time>
      </trkpt>
      <trkpt lat="43.34061" lon="1.85717">
        <ele>235.79352</ele>
        <time>2023-01-04T13:14:13.089Z</time>
      </trkpt>
      <trkpt lat="43.34053" lon="1.85723">
        <ele>235.72534</ele>
        <time>2023-01-04T13:14:15.092Z</time>
      </trkpt>
      <trkpt lat="43.34043" lon="1.85732">
        <ele>235.642546</ele>
        <time>2023-01-04T13:14:17.090Z</time>
      </trkpt>
      <trkpt lat="43.34031" lon="1.85742">
        <ele>235.549896</ele>
        <time>2023-01-04T13:14:19.089Z</time>
      </trkpt>
      <trkpt lat="43.34021" lon="1.85753">
        <ele>235.459232</ele>
        <time>2023-01-04T13:14:21.085Z</time>
      </trkpt>
      <trkpt lat="43.3401" lon="1.85763">
        <ele>235.368568</ele>
        <time>2023-01-04T13:14:23.088Z</time>
      </trkpt>
      <trkpt lat="43.33997" lon="1.85771">
        <ele>235.273219</ele>
        <time>2023-01-04T13:14:25.088Z</time>
      </trkpt>
      <trkpt lat="43.33984" lon="1.85774">
        <ele>235.329601</ele>
        <time>2023-01-04T13:14:27.083Z</time>
      </trkpt>
      <trkpt lat="43.33971" lon="1.85768">
        <ele>235.458724</ele>
        <time>2023-01-04T13:14:29.105Z</time>
      </trkpt>
      <trkpt lat="43.33961" lon="1.85761">
        <ele>235.576539</ele>
        <time>2023-01-04T13:14:31.084Z</time>
      </trkpt>
      <trkpt lat="43.33952" lon="1.85752">
        <ele>235.679502</ele>
        <time>2023-01-04T13:14:33.102Z</time>
      </trkpt>
      <trkpt lat="43.33941" lon="1.85743">
        <ele>235.808089</ele>
        <time>2023-01-04T13:14:36.087Z</time>
      </trkpt>
      <trkpt lat="43.3393" lon="1.85737">
        <ele>235.919457</ele>
        <time>2023-01-04T13:14:39.085Z</time>
      </trkpt>
      <trkpt lat="43.33921" lon="1.85731">
        <ele>236.021648</ele>
        <time>2023-01-04T13:14:42.082Z</time>
      </trkpt>
      <trkpt lat="43.33912" lon="1.85726">
        <ele>236.118455</ele>
        <time>2023-01-04T13:14:45.096Z</time>
      </trkpt>
      <trkpt lat="43.33902" lon="1.8572">
        <ele>236.220647</ele>
        <time>2023-01-04T13:14:48.087Z</time>
      </trkpt>
      <trkpt lat="43.33893" lon="1.85714">
        <ele>236.321659</ele>
        <time>2023-01-04T13:14:51.084Z</time>
      </trkpt>
      <trkpt lat="43.33884" lon="1.8571">
        <ele>236.41342</ele>
        <time>2023-01-04T13:14:54.086Z</time>
      </trkpt>
      <trkpt lat="43.33875" lon="1.85705">
        <ele>236.510831</ele>
        <time>2023-01-04T13:14:57.089Z</time>
      </trkpt>
      <trkpt lat="43.33865" lon="1.85698">
        <ele>236.615695</ele>
        <time>2023-01-04T13:15:00.087Z</time>
      </trkpt>
      <trkpt lat="43.33856" lon="1.85692">
        <ele>236.716413</ele>
        <time>2023-01-04T13:15:03.088Z</time>
      </trkpt>
      <trkpt lat="43.33847" lon="1.85686">
        <ele>236.809403</ele>
        <time>2023-01-04T13:15:06.084Z</time>
      </trkpt>
      <trkpt lat="43.33837" lon="1.85679">
        <ele>236.925522</ele>
        <time>2023-01-04T13:15:10.091Z</time>
      </trkpt>
      <trkpt lat="43.33826" lon="1.85671">
        <ele>237.090023</ele>
        <time>2023-01-04T13:15:14.089Z</time>
      </trkpt>
      <trkpt lat="43.33816" lon="1.85665">
        <ele>237.344778</ele>
        <time>2023-01-04T13:15:18.089Z</time>
      </trkpt>
      <trkpt lat="43.33806" lon="1.85662">
        <ele>237.589629</ele>
        <time>2023-01-04T13:15:22.080Z</time>
      </trkpt>
      <trkpt lat="43.33794" lon="1.85665">
        <ele>237.861361</ele>
        <time>2023-01-04T13:15:26.076Z</time>
      </trkpt>
      <trkpt lat="43.33785" lon="1.85676">
        <ele>238.130676</ele>
        <time>2023-01-04T13:15:30.079Z</time>
      </trkpt>
      <trkpt lat="43.3378" lon="1.85686">
        <ele>238.345547</ele>
        <time>2023-01-04T13:15:33.084Z</time>
      </trkpt>
      <trkpt lat="43.33774" lon="1.85697">
        <ele>238.563103</ele>
        <time>2023-01-04T13:15:36.080Z</time>
      </trkpt>
      <trkpt lat="43.33769" lon="1.85707">
        <ele>238.767268</ele>
        <time>2023-01-04T13:15:39.087Z</time>
      </trkpt>
      <trkpt lat="43.33762" lon="1.85719">
        <ele>239.025434</ele>
        <time>2023-01-04T13:15:43.086Z</time>
      </trkpt>
      <trkpt lat="43.33755" lon="1.85728">
        <ele>239.237666</ele>
        <time>2023-01-04T13:15:46.082Z</time>
      </trkpt>
      <trkpt lat="43.33748" lon="1.85739">
        <ele>239.484147</ele>
        <time>2023-01-04T13:15:50.085Z</time>
      </trkpt>
      <trkpt lat="43.33743" lon="1.85751">
        <ele>239.712673</ele>
        <time>2023-01-04T13:15:54.087Z</time>
      </trkpt>
      <trkpt lat="43.33739" lon="1.85763">
        <ele>239.926364</ele>
        <time>2023-01-04T13:15:58.077Z</time>
      </trkpt>
      <trkpt lat="43.33735" lon="1.85777">
        <ele>240.178524</ele>
        <time>2023-01-04T13:16:02.096Z</time>
      </trkpt>
      <trkpt lat="43.33731" lon="1.8579">
        <ele>240.419301</ele>
        <time>2023-01-04T13:16:05.104Z</time>
      </trkpt>
      <trkpt lat="43.33725" lon="1.85805">
        <ele>240.697397</ele>
        <time>2023-01-04T13:16:08.086Z</time>
      </trkpt>
      <trkpt lat="43.33719" lon="1.8582">
        <ele>240.981014</ele>
        <time>2023-01-04T13:16:11.089Z</time>
      </trkpt>
      <trkpt lat="43.33713" lon="1.85835">
        <ele>241.148753</ele>
        <time>2023-01-04T13:16:14.080Z</time>
      </trkpt>
      <trkpt lat="43.33708" lon="1.85851">
        <ele>241.218844</ele>
        <time>2023-01-04T13:16:17.092Z</time>
      </trkpt>
      <trkpt lat="43.33703" lon="1.85866">
        <ele>241.286405</ele>
        <time>2023-01-04T13:16:20.100Z</time>
      </trkpt>
      <trkpt lat="43.337" lon="1.85882">
        <ele>241.355915</ele>
        <time>2023-01-04T13:16:23.085Z</time>
      </trkpt>
      <trkpt lat="43.33697" lon="1.859">
        <ele>241.429025</ele>
        <time>2023-01-04T13:16:26.080Z</time>
      </trkpt>
      <trkpt lat="43.33695" lon="1.85912">
        <ele>241.48006</ele>
        <time>2023-01-04T13:16:28.087Z</time>
      </trkpt>
      <trkpt lat="43.33693" lon="1.85925">
        <ele>241.531889</ele>
        <time>2023-01-04T13:16:30.084Z</time>
      </trkpt>
      <trkpt lat="43.33689" lon="1.85941">
        <ele>241.602344</ele>
        <time>2023-01-04T13:16:33.084Z</time>
      </trkpt>
      <trkpt lat="43.33683" lon="1.85957">
        <ele>241.676052</ele>
        <time>2023-01-04T13:16:36.079Z</time>
      </trkpt>
      <trkpt lat="43.33677" lon="1.85968">
        <ele>241.729426</ele>
        <time>2023-01-04T13:16:38.087Z</time>
      </trkpt>
      <trkpt lat="43.33672" lon="1.85979">
        <ele>241.784739</ele>
        <time>2023-01-04T13:16:40.087Z</time>
      </trkpt>
      <trkpt lat="43.33666" lon="1.8599">
        <ele>241.840404</ele>
        <time>2023-01-04T13:16:42.091Z</time>
      </trkpt>
      <trkpt lat="43.33659" lon="1.86">
        <ele>241.896534</ele>
        <time>2023-01-04T13:16:44.086Z</time>
      </trkpt>
      <trkpt lat="43.33652" lon="1.86011">
        <ele>241.953957</ele>
        <time>2023-01-04T13:16:46.087Z</time>
      </trkpt>
      <trkpt lat="43.33646" lon="1.86022">
        <ele>242.011301</ele>
        <time>2023-01-04T13:16:48.082Z</time>
      </trkpt>
      <trkpt lat="43.3364" lon="1.86034">
        <ele>242.071549</ele>
        <time>2023-01-04T13:16:50.082Z</time>
      </trkpt>
      <trkpt lat="43.33634" lon="1.86046">
        <ele>242.134801</ele>
        <time>2023-01-04T13:16:52.083Z</time>
      </trkpt>
      <trkpt lat="43.33628" lon="1.86063">
        <ele>242.260412</ele>
        <time>2023-01-04T13:16:55.088Z</time>
      </trkpt>
      <trkpt lat="43.33622" lon="1.86079">
        <ele>242.386336</ele>
        <time>2023-01-04T13:16:58.080Z</time>
      </trkpt>
      <trkpt lat="43.33616" lon="1.86096">
        <ele>242.508358</ele>
        <time>2023-01-04T13:17:01.094Z</time>
      </trkpt>
      <trkpt lat="43.33612" lon="1.86108">
        <ele>242.598119</ele>
        <time>2023-01-04T13:17:03.108Z</time>
      </trkpt>
      <trkpt lat="43.33607" lon="1.86119">
        <ele>242.68197</ele>
        <time>2023-01-04T13:17:05.097Z</time>
      </trkpt>
      <trkpt lat="43.33603" lon="1.86131">
        <ele>242.769921</ele>
        <time>2023-01-04T13:17:07.096Z</time>
      </trkpt>
      <trkpt lat="43.33597" lon="1.86142">
        <ele>242.859604</ele>
        <time>2023-01-04T13:17:09.086Z</time>
      </trkpt>
      <trkpt lat="43.33592" lon="1.86152">
        <ele>242.94661</ele>
        <time>2023-01-04T13:17:11.085Z</time>
      </trkpt>
      <trkpt lat="43.33584" lon="1.86161">
        <ele>243.036724</ele>
        <time>2023-01-04T13:17:13.085Z</time>
      </trkpt>
      <trkpt lat="43.33571" lon="1.86167">
        <ele>243.163359</ele>
        <time>2023-01-04T13:17:16.101Z</time>
      </trkpt>
      <trkpt lat="43.33559" lon="1.86171">
        <ele>243.281372</ele>
        <time>2023-01-04T13:17:19.081Z</time>
      </trkpt>
      <trkpt lat="43.33546" lon="1.86175">
        <ele>243.400845</ele>
        <time>2023-01-04T13:17:22.080Z</time>
      </trkpt>
      <trkpt lat="43.33534" lon="1.86175">
        <ele>243.512931</ele>
        <time>2023-01-04T13:17:25.084Z</time>
      </trkpt>
      <trkpt lat="43.33521" lon="1.86172">
        <ele>243.634479</ele>
        <time>2023-01-04T13:17:28.085Z</time>
      </trkpt>
      <trkpt lat="43.33508" lon="1.86168">
        <ele>243.75622</ele>
        <time>2023-01-04T13:17:31.078Z</time>
      </trkpt>
      <trkpt lat="43.33495" lon="1.86164">
        <ele>243.670181</ele>
        <time>2023-01-04T13:17:34.086Z</time>
      </trkpt>
      <trkpt lat="43.33486" lon="1.8616">
        <ele>243.59082</ele>
        <time>2023-01-04T13:17:36.080Z</time>
      </trkpt>
      <trkpt lat="43.33477" lon="1.86156">
        <ele>243.513068</ele>
        <time>2023-01-04T13:17:38.084Z</time>
      </trkpt>
      <trkpt lat="43.33468" lon="1.86152">
        <ele>243.433982</ele>
        <time>2023-01-04T13:17:40.082Z</time>
      </trkpt>
      <trkpt lat="43.33459" lon="1.86148">
        <ele>243.353532</ele>
        <time>2023-01-04T13:17:42.083Z</time>
      </trkpt>
      <trkpt lat="43.33449" lon="1.86145">
        <ele>243.272372</ele>
        <time>2023-01-04T13:17:44.101Z</time>
      </trkpt>
      <trkpt lat="43.3344" lon="1.86142">
        <ele>243.193943</ele>
        <time>2023-01-04T13:17:46.098Z</time>
      </trkpt>
      <trkpt lat="43.33427" lon="1.86137">
        <ele>243.081615</ele>
        <time>2023-01-04T13:17:49.088Z</time>
      </trkpt>
      <trkpt lat="43.33419" lon="1.86133">
        <ele>243.005526</ele>
        <time>2023-01-04T13:17:51.091Z</time>
      </trkpt>
      <trkpt lat="43.3341" lon="1.8613">
        <ele>242.92845</ele>
        <time>2023-01-04T13:17:53.087Z</time>
      </trkpt>
      <trkpt lat="43.33401" lon="1.86127">
        <ele>242.849575</ele>
        <time>2023-01-04T13:17:55.088Z</time>
      </trkpt>
      <trkpt lat="43.33392" lon="1.86123">
        <ele>242.769313</ele>
        <time>2023-01-04T13:17:57.091Z</time>
      </trkpt>
      <trkpt lat="43.33383" lon="1.86119">
        <ele>242.693026</ele>
        <time>2023-01-04T13:17:59.086Z</time>
      </trkpt>
      <trkpt lat="43.33371" lon="1.86112">
        <ele>242.583803</ele>
        <time>2023-01-04T13:18:02.077Z</time>
      </trkpt>
      <trkpt lat="43.33359" lon="1.86105">
        <ele>242.478644</ele>
        <time>2023-01-04T13:18:05.088Z</time>
      </trkpt>
      <trkpt lat="43.33349" lon="1.861">
        <ele>242.381333</ele>
        <time>2023-01-04T13:18:08.079Z</time>
      </trkpt>
      <trkpt lat="43.33337" lon="1.86093">
        <ele>242.279977</ele>
        <time>2023-01-04T13:18:11.087Z</time>
      </trkpt>
      <trkpt lat="43.33329" lon="1.86089">
        <ele>242.059802</ele>
        <time>2023-01-04T13:18:13.087Z</time>
      </trkpt>
      <trkpt lat="43.3332" lon="1.86083">
        <ele>241.763403</ele>
        <time>2023-01-04T13:18:15.088Z</time>
      </trkpt>
      <trkpt lat="43.33309" lon="1.86077">
        <ele>241.420594</ele>
        <time>2023-01-04T13:18:17.086Z</time>
      </trkpt>
      <trkpt lat="43.33297" lon="1.8607">
        <ele>241.048044</ele>
        <time>2023-01-04T13:18:19.089Z</time>
      </trkpt>
      <trkpt lat="43.33285" lon="1.86063">
        <ele>240.656325</ele>
        <time>2023-01-04T13:18:21.112Z</time>
      </trkpt>
      <trkpt lat="43.33271" lon="1.86056">
        <ele>240.237667</ele>
        <time>2023-01-04T13:18:23.099Z</time>
      </trkpt>
      <trkpt lat="43.33258" lon="1.86048">
        <ele>239.800392</ele>
        <time>2023-01-04T13:18:25.080Z</time>
      </trkpt>
      <trkpt lat="43.33244" lon="1.8604">
        <ele>239.359344</ele>
        <time>2023-01-04T13:18:27.106Z</time>
      </trkpt>
      <trkpt lat="43.3323" lon="1.86032">
        <ele>238.943133</ele>
        <time>2023-01-04T13:18:29.097Z</time>
      </trkpt>
      <trkpt lat="43.33218" lon="1.86026">
        <ele>238.551047</ele>
        <time>2023-01-04T13:18:31.086Z</time>
      </trkpt>
      <trkpt lat="43.33207" lon="1.86021">
        <ele>238.21478</ele>
        <time>2023-01-04T13:18:33.085Z</time>
      </trkpt>
      <trkpt lat="43.33197" lon="1.86019">
        <ele>237.919096</ele>
        <time>2023-01-04T13:18:35.080Z</time>
      </trkpt>
      <trkpt lat="43.33188" lon="1.86019">
        <ele>237.644611</ele>
        <time>2023-01-04T13:18:37.086Z</time>
      </trkpt>
      <trkpt lat="43.33179" lon="1.86023">
        <ele>237.368467</ele>
        <time>2023-01-04T13:18:39.087Z</time>
      </trkpt>
      <trkpt lat="43.33171" lon="1.86031">
        <ele>237.096431</ele>
        <time>2023-01-04T13:18:41.106Z</time>
      </trkpt>
      <trkpt lat="43.33165" lon="1.8604">
        <ele>236.998299</ele>
        <time>2023-01-04T13:18:43.086Z</time>
      </trkpt>
      <trkpt lat="43.33158" lon="1.86052">
        <ele>236.979146</ele>
        <time>2023-01-04T13:18:45.084Z</time>
      </trkpt>
      <trkpt lat="43.33152" lon="1.86063">
        <ele>236.959989</ele>
        <time>2023-01-04T13:18:47.082Z</time>
      </trkpt>
      <trkpt lat="43.33146" lon="1.86075">
        <ele>236.941264</ele>
        <time>2023-01-04T13:18:49.091Z</time>
      </trkpt>
      <trkpt lat="43.3314" lon="1.86087">
        <ele>236.921569</ele>
        <time>2023-01-04T13:18:51.084Z</time>
      </trkpt>
      <trkpt lat="43.33134" lon="1.86099">
        <ele>236.902195</ele>
        <time>2023-01-04T13:18:53.088Z</time>
      </trkpt>
      <trkpt lat="43.33128" lon="1.86111">
        <ele>236.882378</ele>
        <time>2023-01-04T13:18:55.080Z</time>
      </trkpt>
      <trkpt lat="43.33123" lon="1.86122">
        <ele>236.864738</ele>
        <time>2023-01-04T13:18:57.106Z</time>
      </trkpt>
      <trkpt lat="43.33117" lon="1.86133">
        <ele>236.846109</ele>
        <time>2023-01-04T13:18:59.086Z</time>
      </trkpt>
      <trkpt lat="43.33111" lon="1.86145">
        <ele>236.826728</ele>
        <time>2023-01-04T13:19:01.093Z</time>
      </trkpt>
      <trkpt lat="43.33105" lon="1.86157">
        <ele>236.807568</ele>
        <time>2023-01-04T13:19:03.104Z</time>
      </trkpt>
      <trkpt lat="43.33099" lon="1.86169">
        <ele>236.78829</ele>
        <time>2023-01-04T13:19:05.087Z</time>
      </trkpt>
      <trkpt lat="43.33091" lon="1.86178">
        <ele>236.768508</ele>
        <time>2023-01-04T13:19:07.084Z</time>
      </trkpt>
      <trkpt lat="43.33081" lon="1.86184">
        <ele>236.748888</ele>
        <time>2023-01-04T13:19:09.084Z</time>
      </trkpt>
      <trkpt lat="43.33071" lon="1.86182">
        <ele>236.729678</ele>
        <time>2023-01-04T13:19:11.087Z</time>
      </trkpt>
      <trkpt lat="43.33061" lon="1.86178">
        <ele>236.711478</ele>
        <time>2023-01-04T13:19:13.095Z</time>
      </trkpt>
      <trkpt lat="43.3305" lon="1.86174">
        <ele>236.689585</ele>
        <time>2023-01-04T13:19:16.086Z</time>
      </trkpt>
      <trkpt lat="43.3304" lon="1.86169">
        <ele>236.645615</ele>
        <time>2023-01-04T13:19:20.079Z</time>
      </trkpt>
      <trkpt lat="43.3303" lon="1.86165">
        <ele>236.577554</ele>
        <time>2023-01-04T13:19:25.090Z</time>
      </trkpt>
      <trkpt lat="43.33019" lon="1.86159">
        <ele>236.507006</ele>
        <time>2023-01-04T13:19:31.086Z</time>
      </trkpt>
      <trkpt lat="43.33009" lon="1.86163">
        <ele>236.441143</ele>
        <time>2023-01-04T13:19:35.103Z</time>
      </trkpt>
      <trkpt lat="43.33006" lon="1.86178">
        <ele>236.366575</ele>
        <time>2023-01-04T13:19:38.092Z</time>
      </trkpt>
      <trkpt lat="43.33004" lon="1.8619">
        <ele>236.304904</ele>
        <time>2023-01-04T13:19:40.083Z</time>
      </trkpt>
      <trkpt lat="43.32998" lon="1.86202">
        <ele>236.239053</ele>
        <time>2023-01-04T13:19:42.091Z</time>
      </trkpt>
      <trkpt lat="43.32992" lon="1.86213">
        <ele>236.177153</ele>
        <time>2023-01-04T13:19:44.089Z</time>
      </trkpt>
      <trkpt lat="43.32988" lon="1.86224">
        <ele>236.11579</ele>
        <time>2023-01-04T13:19:46.086Z</time>
      </trkpt>
      <trkpt lat="43.32984" lon="1.86238">
        <ele>236.047592</ele>
        <time>2023-01-04T13:19:48.083Z</time>
      </trkpt>
      <trkpt lat="43.32981" lon="1.86251">
        <ele>235.983751</ele>
        <time>2023-01-04T13:19:50.082Z</time>
      </trkpt>
      <trkpt lat="43.32978" lon="1.86263">
        <ele>235.920996</ele>
        <time>2023-01-04T13:19:52.086Z</time>
      </trkpt>
      <trkpt lat="43.32974" lon="1.86281">
        <ele>235.832629</ele>
        <time>2023-01-04T13:19:55.086Z</time>
      </trkpt>
      <trkpt lat="43.32971" lon="1.86293">
        <ele>235.773063</ele>
        <time>2023-01-04T13:19:57.086Z</time>
      </trkpt>
      <trkpt lat="43.32968" lon="1.86306">
        <ele>235.712925</ele>
        <time>2023-01-04T13:19:59.092Z</time>
      </trkpt>
      <trkpt lat="43.32964" lon="1.86322">
        <ele>235.630635</ele>
        <time>2023-01-04T13:20:02.086Z</time>
      </trkpt>
      <trkpt lat="43.3296" lon="1.86335">
        <ele>235.564856</ele>
        <time>2023-01-04T13:20:05.084Z</time>
      </trkpt>
      <trkpt lat="43.32956" lon="1.86347">
        <ele>235.506804</ele>
        <time>2023-01-04T13:20:09.086Z</time>
      </trkpt>
      <trkpt lat="43.32952" lon="1.86358">
        <ele>235.453527</ele>
        <time>2023-01-04T13:20:14.082Z</time>
      </trkpt>
      <trkpt lat="43.32955" lon="1.86377">
        <ele>235.369104</ele>
        <time>2023-01-04T13:21:21.088Z</time>
      </trkpt>
      <trkpt lat="43.32957" lon="1.86389">
        <ele>235.315239</ele>
        <time>2023-01-04T13:21:26.098Z</time>
      </trkpt>
      <trkpt lat="43.32953" lon="1.86404">
        <ele>235.247835</ele>
        <time>2023-01-04T13:21:30.100Z</time>
      </trkpt>
      <trkpt lat="43.32949" lon="1.86421">
        <ele>235.175368</ele>
        <time>2023-01-04T13:21:34.083Z</time>
      </trkpt>
      <trkpt lat="43.32946" lon="1.86437">
        <ele>235.103178</ele>
        <time>2023-01-04T13:21:38.081Z</time>
      </trkpt>
      <trkpt lat="43.32942" lon="1.86453">
        <ele>235.032979</ele>
        <time>2023-01-04T13:21:42.088Z</time>
      </trkpt>
      <trkpt lat="43.3294" lon="1.86465">
        <ele>234.979595</ele>
        <time>2023-01-04T13:21:45.090Z</time>
      </trkpt>
      <trkpt lat="43.32936" lon="1.86481">
        <ele>234.910238</ele>
        <time>2023-01-04T13:21:48.097Z</time>
      </trkpt>
      <trkpt lat="43.32933" lon="1.86497">
        <ele>234.839814</ele>
        <time>2023-01-04T13:21:51.092Z</time>
      </trkpt>
      <trkpt lat="43.3293" lon="1.8651">
        <ele>234.778381</ele>
        <time>2023-01-04T13:21:54.087Z</time>
      </trkpt>
      <trkpt lat="43.32927" lon="1.86527">
        <ele>234.705648</ele>
        <time>2023-01-04T13:21:57.082Z</time>
      </trkpt>
      <trkpt lat="43.32924" lon="1.86543">
        <ele>234.633841</ele>
        <time>2023-01-04T13:22:00.086Z</time>
      </trkpt>
      <trkpt lat="43.32921" lon="1.8656">
        <ele>234.562484</ele>
        <time>2023-01-04T13:22:03.089Z</time>
      </trkpt>
      <trkpt lat="43.32918" lon="1.86577">
        <ele>234.489292</ele>
        <time>2023-01-04T13:22:06.088Z</time>
      </trkpt>
      <trkpt lat="43.32916" lon="1.86595">
        <ele>234.457242</ele>
        <time>2023-01-04T13:22:09.081Z</time>
      </trkpt>
      <trkpt lat="43.32914" lon="1.86609">
        <ele>234.445903</ele>
        <time>2023-01-04T13:22:11.093Z</time>
      </trkpt>
      <trkpt lat="43.32913" lon="1.86621">
        <ele>234.435048</ele>
        <time>2023-01-04T13:22:13.084Z</time>
      </trkpt>
      <trkpt lat="43.32911" lon="1.86635">
        <ele>234.423514</ele>
        <time>2023-01-04T13:22:15.088Z</time>
      </trkpt>
      <trkpt lat="43.32908" lon="1.86653">
        <ele>234.408181</ele>
        <time>2023-01-04T13:22:18.091Z</time>
      </trkpt>
      <trkpt lat="43.32908" lon="1.86668">
        <ele>234.395018</ele>
        <time>2023-01-04T13:22:21.086Z</time>
      </trkpt>
      <trkpt lat="43.32907" lon="1.86685">
        <ele>234.380438</ele>
        <time>2023-01-04T13:22:24.083Z</time>
      </trkpt>
      <trkpt lat="43.32905" lon="1.86699">
        <ele>234.368767</ele>
        <time>2023-01-04T13:22:26.087Z</time>
      </trkpt>
      <trkpt lat="43.32906" lon="1.86714">
        <ele>234.356142</ele>
        <time>2023-01-04T13:22:29.084Z</time>
      </trkpt>
      <trkpt lat="43.32906" lon="1.86732">
        <ele>234.340916</ele>
        <time>2023-01-04T13:22:32.082Z</time>
      </trkpt>
      <trkpt lat="43.32905" lon="1.86745">
        <ele>234.330035</ele>
        <time>2023-01-04T13:22:34.100Z</time>
      </trkpt>
      <trkpt lat="43.32905" lon="1.86764">
        <ele>234.314305</ele>
        <time>2023-01-04T13:22:37.082Z</time>
      </trkpt>
      <trkpt lat="43.32907" lon="1.86781">
        <ele>234.299446</ele>
        <time>2023-01-04T13:22:40.081Z</time>
      </trkpt>
      <trkpt lat="43.32908" lon="1.86799">
        <ele>234.284094</ele>
        <time>2023-01-04T13:22:43.082Z</time>
      </trkpt>
      <trkpt lat="43.32907" lon="1.86816">
        <ele>234.27</ele>
        <time>2023-01-04T13:22:46.079Z</time>
      </trkpt>
      <trkpt lat="43.32909" lon="1.86828">
        <ele>234.249477</ele>
        <time>2023-01-04T13:22:48.086Z</time>
      </trkpt>
      <trkpt lat="43.32908" lon="1.86841">
        <ele>234.181207</ele>
        <time>2023-01-04T13:22:50.095Z</time>
      </trkpt>
      <trkpt lat="43.3291" lon="1.86858">
        <ele>234.09072</ele>
        <time>2023-01-04T13:22:53.089Z</time>
      </trkpt>
      <trkpt lat="43.32909" lon="1.86875">
        <ele>233.996915</ele>
        <time>2023-01-04T13:22:56.087Z</time>
      </trkpt>
      <trkpt lat="43.32907" lon="1.86891">
        <ele>233.910082</ele>
        <time>2023-01-04T13:22:59.084Z</time>
      </trkpt>
      <trkpt lat="43.32902" lon="1.86905">
        <ele>233.824888</ele>
        <time>2023-01-04T13:23:02.086Z</time>
      </trkpt>
      <trkpt lat="43.32896" lon="1.86925">
        <ele>233.708611</ele>
        <time>2023-01-04T13:23:05.086Z</time>
      </trkpt>
      <trkpt lat="43.32893" lon="1.86937">
        <ele>233.641614</ele>
        <time>2023-01-04T13:23:07.087Z</time>
      </trkpt>
      <trkpt lat="43.32888" lon="1.86953">
        <ele>233.543952</ele>
        <time>2023-01-04T13:23:10.087Z</time>
      </trkpt>
      <trkpt lat="43.32883" lon="1.86968">
        <ele>233.456289</ele>
        <time>2023-01-04T13:23:13.082Z</time>
      </trkpt>
      <trkpt lat="43.32878" lon="1.86983">
        <ele>233.368696</ele>
        <time>2023-01-04T13:23:16.086Z</time>
      </trkpt>
      <trkpt lat="43.32875" lon="1.86997">
        <ele>233.290843</ele>
        <time>2023-01-04T13:23:19.083Z</time>
      </trkpt>
      <trkpt lat="43.32873" lon="1.87011">
        <ele>233.21503</ele>
        <time>2023-01-04T13:23:22.084Z</time>
      </trkpt>
      <trkpt lat="43.32869" lon="1.87024">
        <ele>233.136512</ele>
        <time>2023-01-04T13:23:25.088Z</time>
      </trkpt>
      <trkpt lat="43.32866" lon="1.87035">
        <ele>233.069805</ele>
        <time>2023-01-04T13:23:28.095Z</time>
      </trkpt>
      <trkpt lat="43.32861" lon="1.87047">
        <ele>232.997924</ele>
        <time>2023-01-04T13:23:31.087Z</time>
      </trkpt>
      <trkpt lat="43.32858" lon="1.87059">
        <ele>232.92841</ele>
        <time>2023-01-04T13:23:33.087Z</time>
      </trkpt>
      <trkpt lat="43.32854" lon="1.87075">
        <ele>232.657111</ele>
        <time>2023-01-04T13:23:35.079Z</time>
      </trkpt>
      <trkpt lat="43.3285" lon="1.87088">
        <ele>232.409816</ele>
        <time>2023-01-04T13:23:37.108Z</time>
      </trkpt>
      <trkpt lat="43.32844" lon="1.87104">
        <ele>232.114559</ele>
        <time>2023-01-04T13:23:39.086Z</time>
      </trkpt>
      <trkpt lat="43.32839" lon="1.87117">
        <ele>231.857095</ele>
        <time>2023-01-04T13:23:41.091Z</time>
      </trkpt>
      <trkpt lat="43.32832" lon="1.87133">
        <ele>231.560113</ele>
        <time>2023-01-04T13:23:43.106Z</time>
      </trkpt>
      <trkpt lat="43.32827" lon="1.87147">
        <ele>231.288997</ele>
        <time>2023-01-04T13:23:45.109Z</time>
      </trkpt>
      <trkpt lat="43.32823" lon="1.8716">
        <ele>231.052296</ele>
        <time>2023-01-04T13:23:47.091Z</time>
      </trkpt>
      <trkpt lat="43.32819" lon="1.87173">
        <ele>230.802328</ele>
        <time>2023-01-04T13:23:49.094Z</time>
      </trkpt>
      <trkpt lat="43.32815" lon="1.87186">
        <ele>230.580085</ele>
        <time>2023-01-04T13:23:51.092Z</time>
      </trkpt>
      <trkpt lat="43.32811" lon="1.872">
        <ele>230.311718</ele>
        <time>2023-01-04T13:23:54.093Z</time>
      </trkpt>
      <trkpt lat="43.32805" lon="1.87216">
        <ele>230.030052</ele>
        <time>2023-01-04T13:23:57.078Z</time>
      </trkpt>
      <trkpt lat="43.32802" lon="1.8723">
        <ele>229.784016</ele>
        <time>2023-01-04T13:23:59.103Z</time>
      </trkpt>
      <trkpt lat="43.32798" lon="1.87243">
        <ele>229.541843</ele>
        <time>2023-01-04T13:24:02.088Z</time>
      </trkpt>
      <trkpt lat="43.32794" lon="1.87256">
        <ele>229.298068</ele>
        <time>2023-01-04T13:24:05.077Z</time>
      </trkpt>
      <trkpt lat="43.3279" lon="1.87268">
        <ele>229.070102</ele>
        <time>2023-01-04T13:24:08.091Z</time>
      </trkpt>
      <trkpt lat="43.32787" lon="1.8728">
        <ele>228.859765</ele>
        <time>2023-01-04T13:24:11.083Z</time>
      </trkpt>
      <trkpt lat="43.32782" lon="1.87294">
        <ele>228.767637</ele>
        <time>2023-01-04T13:24:14.084Z</time>
      </trkpt>
      <trkpt lat="43.32776" lon="1.87309">
        <ele>228.77068</ele>
        <time>2023-01-04T13:24:16.084Z</time>
      </trkpt>
      <trkpt lat="43.32772" lon="1.87321">
        <ele>228.773009</ele>
        <time>2023-01-04T13:24:18.108Z</time>
      </trkpt>
      <trkpt lat="43.32769" lon="1.87335">
        <ele>228.775511</ele>
        <time>2023-01-04T13:24:21.090Z</time>
      </trkpt>
      <trkpt lat="43.32763" lon="1.87349">
        <ele>228.778298</ele>
        <time>2023-01-04T13:24:24.081Z</time>
      </trkpt>
      <trkpt lat="43.32759" lon="1.87363">
        <ele>228.780971</ele>
        <time>2023-01-04T13:24:27.082Z</time>
      </trkpt>
      <trkpt lat="43.32755" lon="1.87375">
        <ele>228.783392</ele>
        <time>2023-01-04T13:24:29.085Z</time>
      </trkpt>
      <trkpt lat="43.32752" lon="1.87395">
        <ele>228.786946</ele>
        <time>2023-01-04T13:24:31.095Z</time>
      </trkpt>
      <trkpt lat="43.3275" lon="1.87408">
        <ele>228.789307</ele>
        <time>2023-01-04T13:24:33.086Z</time>
      </trkpt>
      <trkpt lat="43.32748" lon="1.87426">
        <ele>228.792462</ele>
        <time>2023-01-04T13:24:35.086Z</time>
      </trkpt>
      <trkpt lat="43.32746" lon="1.87441">
        <ele>228.795188</ele>
        <time>2023-01-04T13:24:37.106Z</time>
      </trkpt>
      <trkpt lat="43.32744" lon="1.87454">
        <ele>228.797534</ele>
        <time>2023-01-04T13:24:39.084Z</time>
      </trkpt>
      <trkpt lat="43.32742" lon="1.87472">
        <ele>228.800652</ele>
        <time>2023-01-04T13:24:42.090Z</time>
      </trkpt>
      <trkpt lat="43.3274" lon="1.87489">
        <ele>228.803665</ele>
        <time>2023-01-04T13:24:44.094Z</time>
      </trkpt>
      <trkpt lat="43.32739" lon="1.87504">
        <ele>228.806282</ele>
        <time>2023-01-04T13:24:46.087Z</time>
      </trkpt>
      <trkpt lat="43.32737" lon="1.87518">
        <ele>228.808883</ele>
        <time>2023-01-04T13:24:48.091Z</time>
      </trkpt>
      <trkpt lat="43.32737" lon="1.87538">
        <ele>228.829846</ele>
        <time>2023-01-04T13:24:51.087Z</time>
      </trkpt>
      <trkpt lat="43.32736" lon="1.87552">
        <ele>228.84753</ele>
        <time>2023-01-04T13:24:53.136Z</time>
      </trkpt>
      <trkpt lat="43.32735" lon="1.87564">
        <ele>228.862936</ele>
        <time>2023-01-04T13:24:55.089Z</time>
      </trkpt>
      <trkpt lat="43.32733" lon="1.87577">
        <ele>228.878545</ele>
        <time>2023-01-04T13:24:57.098Z</time>
      </trkpt>
      <trkpt lat="43.32731" lon="1.8759">
        <ele>228.894974</ele>
        <time>2023-01-04T13:24:59.089Z</time>
      </trkpt>
      <trkpt lat="43.32729" lon="1.87603">
        <ele>228.911868</ele>
        <time>2023-01-04T13:25:01.100Z</time>
      </trkpt>
      <trkpt lat="43.32727" lon="1.87616">
        <ele>228.927933</ele>
        <time>2023-01-04T13:25:03.095Z</time>
      </trkpt>
      <trkpt lat="43.32726" lon="1.87629">
        <ele>228.943877</ele>
        <time>2023-01-04T13:25:05.100Z</time>
      </trkpt>
      <trkpt lat="43.32725" lon="1.87642">
        <ele>228.959406</ele>
        <time>2023-01-04T13:25:07.112Z</time>
      </trkpt>
      <trkpt lat="43.32724" lon="1.87655">
        <ele>228.975465</ele>
        <time>2023-01-04T13:25:09.105Z</time>
      </trkpt>
      <trkpt lat="43.32723" lon="1.87667">
        <ele>228.991387</ele>
        <time>2023-01-04T13:25:11.085Z</time>
      </trkpt>
      <trkpt lat="43.32722" lon="1.8768">
        <ele>229.00738</ele>
        <time>2023-01-04T13:25:13.088Z</time>
      </trkpt>
      <trkpt lat="43.32721" lon="1.87699">
        <ele>229.029936</ele>
        <time>2023-01-04T13:25:16.101Z</time>
      </trkpt>
      <trkpt lat="43.32719" lon="1.87712">
        <ele>229.046584</ele>
        <time>2023-01-04T13:25:18.090Z</time>
      </trkpt>
      <trkpt lat="43.32719" lon="1.87727">
        <ele>229.065181</ele>
        <time>2023-01-04T13:25:21.086Z</time>
      </trkpt>
      <trkpt lat="43.32718" lon="1.8774">
        <ele>229.081418</ele>
        <time>2023-01-04T13:25:23.088Z</time>
      </trkpt>
      <trkpt lat="43.32717" lon="1.87758">
        <ele>229.10271</ele>
        <time>2023-01-04T13:25:26.083Z</time>
      </trkpt>
      <trkpt lat="43.32716" lon="1.87771">
        <ele>229.116176</ele>
        <time>2023-01-04T13:25:28.104Z</time>
      </trkpt>
      <trkpt lat="43.32715" lon="1.87784">
        <ele>229.124219</ele>
        <time>2023-01-04T13:25:30.094Z</time>
      </trkpt>
      <trkpt lat="43.32713" lon="1.87798">
        <ele>229.132733</ele>
        <time>2023-01-04T13:25:32.111Z</time>
      </trkpt>
      <trkpt lat="43.3271" lon="1.87814">
        <ele>229.142504</ele>
        <time>2023-01-04T13:25:36.086Z</time>
      </trkpt>
      <trkpt lat="43.32707" lon="1.87829">
        <ele>229.151912</ele>
        <time>2023-01-04T13:25:39.093Z</time>
      </trkpt>
      <trkpt lat="43.32703" lon="1.87844">
        <ele>229.161486</ele>
        <time>2023-01-04T13:25:42.097Z</time>
      </trkpt>
      <trkpt lat="43.32699" lon="1.87858">
        <ele>229.170635</ele>
        <time>2023-01-04T13:25:45.079Z</time>
      </trkpt>
      <trkpt lat="43.32694" lon="1.87874">
        <ele>229.181265</ele>
        <time>2023-01-04T13:25:48.091Z</time>
      </trkpt>
      <trkpt lat="43.32688" lon="1.87889">
        <ele>229.19155</ele>
        <time>2023-01-04T13:25:51.086Z</time>
      </trkpt>
      <trkpt lat="43.32682" lon="1.87899">
        <ele>229.19938</ele>
        <time>2023-01-04T13:25:53.097Z</time>
      </trkpt>
      <trkpt lat="43.32676" lon="1.87914">
        <ele>229.209366</ele>
        <time>2023-01-04T13:25:56.091Z</time>
      </trkpt>
      <trkpt lat="43.32673" lon="1.87926">
        <ele>229.216999</ele>
        <time>2023-01-04T13:25:59.092Z</time>
      </trkpt>
      <trkpt lat="43.32667" lon="1.87936">
        <ele>229.224728</ele>
        <time>2023-01-04T13:26:02.086Z</time>
      </trkpt>
      <trkpt lat="43.32662" lon="1.87947">
        <ele>229.232522</ele>
        <time>2023-01-04T13:26:04.086Z</time>
      </trkpt>
      <trkpt lat="43.32658" lon="1.87958">
        <ele>229.240221</ele>
        <time>2023-01-04T13:26:06.092Z</time>
      </trkpt>
      <trkpt lat="43.32651" lon="1.87973">
        <ele>229.250703</ele>
        <time>2023-01-04T13:26:09.083Z</time>
      </trkpt>
      <trkpt lat="43.32646" lon="1.87985">
        <ele>229.258972</ele>
        <time>2023-01-04T13:26:11.093Z</time>
      </trkpt>
      <trkpt lat="43.32638" lon="1.88001">
        <ele>229.303542</ele>
        <time>2023-01-04T13:26:14.082Z</time>
      </trkpt>
      <trkpt lat="43.32631" lon="1.88016">
        <ele>229.356463</ele>
        <time>2023-01-04T13:26:17.084Z</time>
      </trkpt>
      <trkpt lat="43.32625" lon="1.88032">
        <ele>229.409384</ele>
        <time>2023-01-04T13:26:20.086Z</time>
      </trkpt>
      <trkpt lat="43.32618" lon="1.88041">
        <ele>229.448745</ele>
        <time>2023-01-04T13:26:22.086Z</time>
      </trkpt>
      <trkpt lat="43.32612" lon="1.88054">
        <ele>229.490948</ele>
        <time>2023-01-04T13:26:24.082Z</time>
      </trkpt>
      <trkpt lat="43.32607" lon="1.88066">
        <ele>229.534114</ele>
        <time>2023-01-04T13:26:26.086Z</time>
      </trkpt>
      <trkpt lat="43.32601" lon="1.88079">
        <ele>229.579163</ele>
        <time>2023-01-04T13:26:28.088Z</time>
      </trkpt>
      <trkpt lat="43.32597" lon="1.88091">
        <ele>229.615918</ele>
        <time>2023-01-04T13:26:30.107Z</time>
      </trkpt>
      <trkpt lat="43.3259" lon="1.88104">
        <ele>229.665125</ele>
        <time>2023-01-04T13:26:33.093Z</time>
      </trkpt>
      <trkpt lat="43.32586" lon="1.88116">
        <ele>229.704452</ele>
        <time>2023-01-04T13:26:36.086Z</time>
      </trkpt>
      <trkpt lat="43.3258" lon="1.88129">
        <ele>229.747294</ele>
        <time>2023-01-04T13:26:39.085Z</time>
      </trkpt>
      <trkpt lat="43.32574" lon="1.88144">
        <ele>229.797974</ele>
        <time>2023-01-04T13:26:42.089Z</time>
      </trkpt>
      <trkpt lat="43.32569" lon="1.88154">
        <ele>229.835799</ele>
        <time>2023-01-04T13:26:44.080Z</time>
      </trkpt>
      <trkpt lat="43.32562" lon="1.88168">
        <ele>229.881956</ele>
        <time>2023-01-04T13:26:46.088Z</time>
      </trkpt>
      <trkpt lat="43.32556" lon="1.88182">
        <ele>229.93224</ele>
        <time>2023-01-04T13:26:49.084Z</time>
      </trkpt>
      <trkpt lat="43.32551" lon="1.88194">
        <ele>229.970793</ele>
        <time>2023-01-04T13:26:51.096Z</time>
      </trkpt>
      <trkpt lat="43.32546" lon="1.88204">
        <ele>229.945176</ele>
        <time>2023-01-04T13:26:53.086Z</time>
      </trkpt>
      <trkpt lat="43.32539" lon="1.88216">
        <ele>229.838628</ele>
        <time>2023-01-04T13:26:56.088Z</time>
      </trkpt>
      <trkpt lat="43.32532" lon="1.8823">
        <ele>229.730501</ele>
        <time>2023-01-04T13:26:59.103Z</time>
      </trkpt>
      <trkpt lat="43.32527" lon="1.88245">
        <ele>229.61592</ele>
        <time>2023-01-04T13:27:02.090Z</time>
      </trkpt>
      <trkpt lat="43.32524" lon="1.88264">
        <ele>229.491618</ele>
        <time>2023-01-04T13:27:04.087Z</time>
      </trkpt>
      <trkpt lat="43.32523" lon="1.88277">
        <ele>229.401176</ele>
        <time>2023-01-04T13:27:06.079Z</time>
      </trkpt>
      <trkpt lat="43.32521" lon="1.8829">
        <ele>229.313126</ele>
        <time>2023-01-04T13:27:08.095Z</time>
      </trkpt>
      <trkpt lat="43.32521" lon="1.88308">
        <ele>229.193395</ele>
        <time>2023-01-04T13:27:11.077Z</time>
      </trkpt>
      <trkpt lat="43.32521" lon="1.88322">
        <ele>229.102286</ele>
        <time>2023-01-04T13:27:13.087Z</time>
      </trkpt>
      <trkpt lat="43.32521" lon="1.88339">
        <ele>228.989842</ele>
        <time>2023-01-04T13:27:16.075Z</time>
      </trkpt>
      <trkpt lat="43.32521" lon="1.88353">
        <ele>228.894708</ele>
        <time>2023-01-04T13:27:19.090Z</time>
      </trkpt>
      <trkpt lat="43.32517" lon="1.88368">
        <ele>228.793452</ele>
        <time>2023-01-04T13:27:23.088Z</time>
      </trkpt>
      <trkpt lat="43.32517" lon="1.88381">
        <ele>228.702054</ele>
        <time>2023-01-04T13:27:26.085Z</time>
      </trkpt>
      <trkpt lat="43.32515" lon="1.88395">
        <ele>228.606879</ele>
        <time>2023-01-04T13:27:29.086Z</time>
      </trkpt>
      <trkpt lat="43.32517" lon="1.88411">
        <ele>228.503166</ele>
        <time>2023-01-04T13:27:32.102Z</time>
      </trkpt>
      <trkpt lat="43.3252" lon="1.88423">
        <ele>228.420444</ele>
        <time>2023-01-04T13:27:34.082Z</time>
      </trkpt>
      <trkpt lat="43.3252" lon="1.88437">
        <ele>228.291494</ele>
        <time>2023-01-04T13:27:37.077Z</time>
      </trkpt>
      <trkpt lat="43.32519" lon="1.88451">
        <ele>227.985549</ele>
        <time>2023-01-04T13:27:40.076Z</time>
      </trkpt>
      <trkpt lat="43.32519" lon="1.88465">
        <ele>227.669265</ele>
        <time>2023-01-04T13:27:43.090Z</time>
      </trkpt>
      <trkpt lat="43.32519" lon="1.88481">
        <ele>227.322847</ele>
        <time>2023-01-04T13:27:46.079Z</time>
      </trkpt>
      <trkpt lat="43.32519" lon="1.88497">
        <ele>226.99595</ele>
        <time>2023-01-04T13:27:49.077Z</time>
      </trkpt>
      <trkpt lat="43.32518" lon="1.8851">
        <ele>226.700998</ele>
        <time>2023-01-04T13:27:52.097Z</time>
      </trkpt>
      <trkpt lat="43.32519" lon="1.88526">
        <ele>226.352149</ele>
        <time>2023-01-04T13:27:55.089Z</time>
      </trkpt>
      <trkpt lat="43.3252" lon="1.8854">
        <ele>226.058391</ele>
        <time>2023-01-04T13:27:58.088Z</time>
      </trkpt>
      <trkpt lat="43.32518" lon="1.88552">
        <ele>225.787898</ele>
        <time>2023-01-04T13:28:04.080Z</time>
      </trkpt>
      <trkpt lat="43.32517" lon="1.88572">
        <ele>225.362339</ele>
        <time>2023-01-04T13:28:42.092Z</time>
      </trkpt>
      <trkpt lat="43.32516" lon="1.88588">
        <ele>225.011024</ele>
        <time>2023-01-04T13:28:45.092Z</time>
      </trkpt>
      <trkpt lat="43.32516" lon="1.88606">
        <ele>224.627567</ele>
        <time>2023-01-04T13:28:48.088Z</time>
      </trkpt>
      <trkpt lat="43.32516" lon="1.88618">
        <ele>224.352639</ele>
        <time>2023-01-04T13:28:50.103Z</time>
      </trkpt>
      <trkpt lat="43.32516" lon="1.88631">
        <ele>224.075529</ele>
        <time>2023-01-04T13:28:52.104Z</time>
      </trkpt>
      <trkpt lat="43.32516" lon="1.88644">
        <ele>223.785203</ele>
        <time>2023-01-04T13:28:54.091Z</time>
      </trkpt>
      <trkpt lat="43.32516" lon="1.88663">
        <ele>223.386781</ele>
        <time>2023-01-04T13:28:57.093Z</time>
      </trkpt>
      <trkpt lat="43.32516" lon="1.88675">
        <ele>223.118083</ele>
        <time>2023-01-04T13:28:59.081Z</time>
      </trkpt>
      <trkpt lat="43.32516" lon="1.88692">
        <ele>222.972321</ele>
        <time>2023-01-04T13:29:02.079Z</time>
      </trkpt>
      <trkpt lat="43.32516" lon="1.88708">
        <ele>222.94294</ele>
        <time>2023-01-04T13:29:05.086Z</time>
      </trkpt>
      <trkpt lat="43.32515" lon="1.88723">
        <ele>222.915561</ele>
        <time>2023-01-04T13:29:08.090Z</time>
      </trkpt>
      <trkpt lat="43.32515" lon="1.88738">
        <ele>222.887092</ele>
        <time>2023-01-04T13:29:11.089Z</time>
      </trkpt>
      <trkpt lat="43.32515" lon="1.88756">
        <ele>222.855855</ele>
        <time>2023-01-04T13:29:14.086Z</time>
      </trkpt>
      <trkpt lat="43.32514" lon="1.88774">
        <ele>222.822273</ele>
        <time>2023-01-04T13:29:17.086Z</time>
      </trkpt>
      <trkpt lat="43.32514" lon="1.88787">
        <ele>222.799278</ele>
        <time>2023-01-04T13:29:19.084Z</time>
      </trkpt>
      <trkpt lat="43.32514" lon="1.88805">
        <ele>222.765149</ele>
        <time>2023-01-04T13:29:22.107Z</time>
      </trkpt>
      <trkpt lat="43.32514" lon="1.88819">
        <ele>222.740694</ele>
        <time>2023-01-04T13:29:24.080Z</time>
      </trkpt>
      <trkpt lat="43.32514" lon="1.88832">
        <ele>222.717091</ele>
        <time>2023-01-04T13:29:26.086Z</time>
      </trkpt>
      <trkpt lat="43.32513" lon="1.88845">
        <ele>222.693337</ele>
        <time>2023-01-04T13:29:28.093Z</time>
      </trkpt>
      <trkpt lat="43.32513" lon="1.88857">
        <ele>222.670131</ele>
        <time>2023-01-04T13:29:30.081Z</time>
      </trkpt>
      <trkpt lat="43.32511" lon="1.88876">
        <ele>222.636581</ele>
        <time>2023-01-04T13:29:33.083Z</time>
      </trkpt>
      <trkpt lat="43.3251" lon="1.88888">
        <ele>222.613285</ele>
        <time>2023-01-04T13:29:35.088Z</time>
      </trkpt>
      <trkpt lat="43.32508" lon="1.88901">
        <ele>222.59011</ele>
        <time>2023-01-04T13:29:37.084Z</time>
      </trkpt>
      <trkpt lat="43.32505" lon="1.88913">
        <ele>222.566808</ele>
        <time>2023-01-04T13:29:39.091Z</time>
      </trkpt>
      <trkpt lat="43.32502" lon="1.8893">
        <ele>222.522367</ele>
        <time>2023-01-04T13:29:42.105Z</time>
      </trkpt>
      <trkpt lat="43.32499" lon="1.88942">
        <ele>222.457632</ele>
        <time>2023-01-04T13:29:44.089Z</time>
      </trkpt>
      <trkpt lat="43.32495" lon="1.8896">
        <ele>222.361247</ele>
        <time>2023-01-04T13:29:47.126Z</time>
      </trkpt>
      <trkpt lat="43.32492" lon="1.88973">
        <ele>222.290706</ele>
        <time>2023-01-04T13:29:49.090Z</time>
      </trkpt>
      <trkpt lat="43.32489" lon="1.88985">
        <ele>222.22281</ele>
        <time>2023-01-04T13:29:51.089Z</time>
      </trkpt>
      <trkpt lat="43.32486" lon="1.88998">
        <ele>222.154851</ele>
        <time>2023-01-04T13:29:53.081Z</time>
      </trkpt>
      <trkpt lat="43.32483" lon="1.89011">
        <ele>222.084993</ele>
        <time>2023-01-04T13:29:55.103Z</time>
      </trkpt>
      <trkpt lat="43.32481" lon="1.89023">
        <ele>222.018427</ele>
        <time>2023-01-04T13:29:57.082Z</time>
      </trkpt>
      <trkpt lat="43.32478" lon="1.89036">
        <ele>221.950063</ele>
        <time>2023-01-04T13:29:59.078Z</time>
      </trkpt>
      <trkpt lat="43.32475" lon="1.89048">
        <ele>221.883367</ele>
        <time>2023-01-04T13:30:01.112Z</time>
      </trkpt>
      <trkpt lat="43.32471" lon="1.89065">
        <ele>221.790537</ele>
        <time>2023-01-04T13:30:04.104Z</time>
      </trkpt>
      <trkpt lat="43.32467" lon="1.89083">
        <ele>221.694279</ele>
        <time>2023-01-04T13:30:07.104Z</time>
      </trkpt>
      <trkpt lat="43.32463" lon="1.891">
        <ele>221.605004</ele>
        <time>2023-01-04T13:30:10.087Z</time>
      </trkpt>
      <trkpt lat="43.3246" lon="1.89112">
        <ele>221.539289</ele>
        <time>2023-01-04T13:30:12.084Z</time>
      </trkpt>
      <trkpt lat="43.32455" lon="1.89129">
        <ele>221.444755</ele>
        <time>2023-01-04T13:30:15.079Z</time>
      </trkpt>
      <trkpt lat="43.32453" lon="1.89141">
        <ele>221.380731</ele>
        <time>2023-01-04T13:30:17.086Z</time>
      </trkpt>
      <trkpt lat="43.3245" lon="1.89153">
        <ele>221.315847</ele>
        <time>2023-01-04T13:30:19.090Z</time>
      </trkpt>
      <trkpt lat="43.32449" lon="1.89165">
        <ele>221.279417</ele>
        <time>2023-01-04T13:30:21.088Z</time>
      </trkpt>
      <trkpt lat="43.32447" lon="1.89178">
        <ele>221.34092</ele>
        <time>2023-01-04T13:30:23.082Z</time>
      </trkpt>
      <trkpt lat="43.32444" lon="1.8919">
        <ele>221.4026</ele>
        <time>2023-01-04T13:30:25.089Z</time>
      </trkpt>
      <trkpt lat="43.32442" lon="1.89207">
        <ele>221.49154</ele>
        <time>2023-01-04T13:30:28.094Z</time>
      </trkpt>
      <trkpt lat="43.32438" lon="1.89221">
        <ele>221.562772</ele>
        <time>2023-01-04T13:30:30.085Z</time>
      </trkpt>
      <trkpt lat="43.32435" lon="1.89238">
        <ele>221.647846</ele>
        <time>2023-01-04T13:30:33.087Z</time>
      </trkpt>
      <trkpt lat="43.32434" lon="1.89254">
        <ele>221.726982</ele>
        <time>2023-01-04T13:30:36.087Z</time>
      </trkpt>
      <trkpt lat="43.32432" lon="1.89267">
        <ele>221.792004</ele>
        <time>2023-01-04T13:30:39.087Z</time>
      </trkpt>
      <trkpt lat="43.3243" lon="1.89285">
        <ele>221.881658</ele>
        <time>2023-01-04T13:30:42.089Z</time>
      </trkpt>
      <trkpt lat="43.32429" lon="1.89299">
        <ele>221.948819</ele>
        <time>2023-01-04T13:30:44.082Z</time>
      </trkpt>
      <trkpt lat="43.32428" lon="1.89311">
        <ele>222.012094</ele>
        <time>2023-01-04T13:30:46.086Z</time>
      </trkpt>
      <trkpt lat="43.32426" lon="1.89326">
        <ele>222.08783</ele>
        <time>2023-01-04T13:30:49.082Z</time>
      </trkpt>
      <trkpt lat="43.32424" lon="1.89341">
        <ele>222.159858</ele>
        <time>2023-01-04T13:30:51.084Z</time>
      </trkpt>
      <trkpt lat="43.32421" lon="1.89359">
        <ele>222.249716</ele>
        <time>2023-01-04T13:30:54.086Z</time>
      </trkpt>
      <trkpt lat="43.32419" lon="1.89371">
        <ele>222.312619</ele>
        <time>2023-01-04T13:30:56.087Z</time>
      </trkpt>
      <trkpt lat="43.32417" lon="1.89389">
        <ele>222.401529</ele>
        <time>2023-01-04T13:30:59.090Z</time>
      </trkpt>
      <trkpt lat="43.32415" lon="1.89402">
        <ele>222.464196</ele>
        <time>2023-01-04T13:31:01.077Z</time>
      </trkpt>
      <trkpt lat="43.32414" lon="1.89415">
        <ele>222.502311</ele>
        <time>2023-01-04T13:31:03.082Z</time>
      </trkpt>
      <trkpt lat="43.32411" lon="1.89431">
        <ele>222.538153</ele>
        <time>2023-01-04T13:31:06.090Z</time>
      </trkpt>
      <trkpt lat="43.32407" lon="1.89447">
        <ele>222.574514</ele>
        <time>2023-01-04T13:31:09.100Z</time>
      </trkpt>
      <trkpt lat="43.32405" lon="1.8946">
        <ele>222.603661</ele>
        <time>2023-01-04T13:31:11.088Z</time>
      </trkpt>
      <trkpt lat="43.32403" lon="1.89477">
        <ele>222.639554</ele>
        <time>2023-01-04T13:31:13.089Z</time>
      </trkpt>
      <trkpt lat="43.32402" lon="1.8949">
        <ele>222.667172</ele>
        <time>2023-01-04T13:31:15.102Z</time>
      </trkpt>
      <trkpt lat="43.32399" lon="1.89502">
        <ele>222.695581</ele>
        <time>2023-01-04T13:31:17.105Z</time>
      </trkpt>
      <trkpt lat="43.32396" lon="1.89521">
        <ele>222.735802</ele>
        <time>2023-01-04T13:31:20.087Z</time>
      </trkpt>
      <trkpt lat="43.32392" lon="1.89536">
        <ele>222.771484</ele>
        <time>2023-01-04T13:31:23.086Z</time>
      </trkpt>
      <trkpt lat="43.32388" lon="1.89551">
        <ele>222.80461</ele>
        <time>2023-01-04T13:31:26.090Z</time>
      </trkpt>
      <trkpt lat="43.32384" lon="1.89568">
        <ele>222.842987</ele>
        <time>2023-01-04T13:31:28.078Z</time>
      </trkpt>
      <trkpt lat="43.32381" lon="1.89582">
        <ele>222.874817</ele>
        <time>2023-01-04T13:31:30.086Z</time>
      </trkpt>
      <trkpt lat="43.32378" lon="1.89599">
        <ele>222.912718</ele>
        <time>2023-01-04T13:31:33.087Z</time>
      </trkpt>
      <trkpt lat="43.32374" lon="1.89614">
        <ele>222.945947</ele>
        <time>2023-01-04T13:31:35.087Z</time>
      </trkpt>
      <trkpt lat="43.3237" lon="1.89627">
        <ele>222.975549</ele>
        <time>2023-01-04T13:31:37.106Z</time>
      </trkpt>
      <trkpt lat="43.32367" lon="1.8964">
        <ele>223.004649</ele>
        <time>2023-01-04T13:31:39.092Z</time>
      </trkpt>
      <trkpt lat="43.32365" lon="1.89653">
        <ele>222.923965</ele>
        <time>2023-01-04T13:31:41.088Z</time>
      </trkpt>
      <trkpt lat="43.32362" lon="1.89666">
        <ele>222.811676</ele>
        <time>2023-01-04T13:31:43.087Z</time>
      </trkpt>
      <trkpt lat="43.32358" lon="1.8968">
        <ele>222.68886</ele>
        <time>2023-01-04T13:31:45.086Z</time>
      </trkpt>
      <trkpt lat="43.32353" lon="1.89694">
        <ele>222.563686</ele>
        <time>2023-01-04T13:31:48.084Z</time>
      </trkpt>
      <trkpt lat="43.32348" lon="1.89711">
        <ele>222.415288</ele>
        <time>2023-01-04T13:31:51.087Z</time>
      </trkpt>
      <trkpt lat="43.32345" lon="1.89723">
        <ele>222.312381</ele>
        <time>2023-01-04T13:31:53.091Z</time>
      </trkpt>
      <trkpt lat="43.32341" lon="1.89735">
        <ele>222.203685</ele>
        <time>2023-01-04T13:31:55.086Z</time>
      </trkpt>
      <trkpt lat="43.32337" lon="1.89747">
        <ele>222.097664</ele>
        <time>2023-01-04T13:31:57.081Z</time>
      </trkpt>
      <trkpt lat="43.32334" lon="1.8976">
        <ele>221.987878</ele>
        <time>2023-01-04T13:31:59.088Z</time>
      </trkpt>
      <trkpt lat="43.3233" lon="1.89772">
        <ele>221.881857</ele>
        <time>2023-01-04T13:32:01.086Z</time>
      </trkpt>
      <trkpt lat="43.32326" lon="1.89785">
        <ele>221.764708</ele>
        <time>2023-01-04T13:32:04.086Z</time>
      </trkpt>
      <trkpt lat="43.32323" lon="1.89797">
        <ele>221.66286</ele>
        <time>2023-01-04T13:32:06.088Z</time>
      </trkpt>
      <trkpt lat="43.32318" lon="1.89814">
        <ele>221.513462</ele>
        <time>2023-01-04T13:32:09.089Z</time>
      </trkpt>
      <trkpt lat="43.32315" lon="1.89826">
        <ele>221.40902</ele>
        <time>2023-01-04T13:32:11.094Z</time>
      </trkpt>
      <trkpt lat="43.32312" lon="1.89838">
        <ele>221.308007</ele>
        <time>2023-01-04T13:32:13.089Z</time>
      </trkpt>
      <trkpt lat="43.32309" lon="1.89854">
        <ele>221.177636</ele>
        <time>2023-01-04T13:32:16.083Z</time>
      </trkpt>
      <trkpt lat="43.32307" lon="1.89869">
        <ele>221.052742</ele>
        <time>2023-01-04T13:32:19.080Z</time>
      </trkpt>
      <trkpt lat="43.32304" lon="1.89883">
        <ele>220.953339</ele>
        <time>2023-01-04T13:32:22.106Z</time>
      </trkpt>
      <trkpt lat="43.32301" lon="1.89896">
        <ele>220.872553</ele>
        <time>2023-01-04T13:32:25.086Z</time>
      </trkpt>
      <trkpt lat="43.32296" lon="1.89907">
        <ele>220.792218</ele>
        <time>2023-01-04T13:32:28.088Z</time>
      </trkpt>
      <trkpt lat="43.3229" lon="1.89924">
        <ele>220.679899</ele>
        <time>2023-01-04T13:32:32.095Z</time>
      </trkpt>
      <trkpt lat="43.32286" lon="1.89936">
        <ele>220.599121</ele>
        <time>2023-01-04T13:32:34.090Z</time>
      </trkpt>
      <trkpt lat="43.32282" lon="1.89949">
        <ele>220.518798</ele>
        <time>2023-01-04T13:32:36.083Z</time>
      </trkpt>
      <trkpt lat="43.32278" lon="1.89962">
        <ele>220.43363</ele>
        <time>2023-01-04T13:32:38.088Z</time>
      </trkpt>
      <trkpt lat="43.32274" lon="1.89975">
        <ele>220.346252</ele>
        <time>2023-01-04T13:32:40.089Z</time>
      </trkpt>
      <trkpt lat="43.3227" lon="1.89988">
        <ele>220.263392</ele>
        <time>2023-01-04T13:32:42.088Z</time>
      </trkpt>
      <trkpt lat="43.32266" lon="1.9">
        <ele>220.184497</ele>
        <time>2023-01-04T13:32:44.092Z</time>
      </trkpt>
      <trkpt lat="43.32263" lon="1.90012">
        <ele>220.10455</ele>
        <time>2023-01-04T13:32:46.086Z</time>
      </trkpt>
      <trkpt lat="43.32259" lon="1.90025">
        <ele>220.022796</ele>
        <time>2023-01-04T13:32:48.093Z</time>
      </trkpt>
      <trkpt lat="43.32256" lon="1.90037">
        <ele>219.944267</ele>
        <time>2023-01-04T13:32:50.089Z</time>
      </trkpt>
      <trkpt lat="43.32252" lon="1.90049">
        <ele>219.86339</ele>
        <time>2023-01-04T13:32:52.102Z</time>
      </trkpt>
      <trkpt lat="43.32248" lon="1.90062">
        <ele>219.778922</ele>
        <time>2023-01-04T13:32:54.086Z</time>
      </trkpt>
      <trkpt lat="43.32244" lon="1.90074">
        <ele>219.701038</ele>
        <time>2023-01-04T13:32:56.093Z</time>
      </trkpt>
      <trkpt lat="43.3224" lon="1.9009">
        <ele>219.597938</ele>
        <time>2023-01-04T13:32:59.079Z</time>
      </trkpt>
      <trkpt lat="43.32236" lon="1.90106">
        <ele>219.519231</ele>
        <time>2023-01-04T13:33:02.080Z</time>
      </trkpt>
      <trkpt lat="43.32233" lon="1.90123">
        <ele>219.516885</ele>
        <time>2023-01-04T13:33:05.088Z</time>
      </trkpt>
      <trkpt lat="43.32231" lon="1.90135">
        <ele>219.515044</ele>
        <time>2023-01-04T13:33:08.089Z</time>
      </trkpt>
      <trkpt lat="43.32227" lon="1.9015">
        <ele>219.51295</ele>
        <time>2023-01-04T13:33:12.091Z</time>
      </trkpt>
      <trkpt lat="43.32226" lon="1.90162">
        <ele>219.511192</ele>
        <time>2023-01-04T13:33:23.081Z</time>
      </trkpt>
      <trkpt lat="43.32224" lon="1.90175">
        <ele>219.509365</ele>
        <time>2023-01-04T13:33:27.084Z</time>
      </trkpt>
      <trkpt lat="43.32223" lon="1.90188">
        <ele>219.50748</ele>
        <time>2023-01-04T13:33:30.087Z</time>
      </trkpt>
      <trkpt lat="43.32222" lon="1.90203">
        <ele>219.505376</ele>
        <time>2023-01-04T13:33:33.085Z</time>
      </trkpt>
      <trkpt lat="43.3222" lon="1.9022">
        <ele>219.503065</ele>
        <time>2023-01-04T13:33:36.087Z</time>
      </trkpt>
      <trkpt lat="43.32218" lon="1.90237">
        <ele>219.500591</ele>
        <time>2023-01-04T13:33:39.087Z</time>
      </trkpt>
      <trkpt lat="43.32217" lon="1.90256">
        <ele>219.498028</ele>
        <time>2023-01-04T13:33:42.087Z</time>
      </trkpt>
      <trkpt lat="43.32217" lon="1.90269">
        <ele>219.496197</ele>
        <time>2023-01-04T13:33:44.088Z</time>
      </trkpt>
      <trkpt lat="43.32217" lon="1.90287">
        <ele>219.493668</ele>
        <time>2023-01-04T13:33:47.084Z</time>
      </trkpt>
      <trkpt lat="43.32217" lon="1.90305">
        <ele>219.491099</ele>
        <time>2023-01-04T13:33:50.092Z</time>
      </trkpt>
      <trkpt lat="43.32217" lon="1.90318">
        <ele>219.489256</ele>
        <time>2023-01-04T13:33:52.088Z</time>
      </trkpt>
      <trkpt lat="43.32218" lon="1.90337">
        <ele>219.486641</ele>
        <time>2023-01-04T13:33:55.086Z</time>
      </trkpt>
      <trkpt lat="43.32218" lon="1.9035">
        <ele>219.512481</ele>
        <time>2023-01-04T13:33:57.087Z</time>
      </trkpt>
      <trkpt lat="43.32218" lon="1.90368">
        <ele>219.659572</ele>
        <time>2023-01-04T13:34:00.091Z</time>
      </trkpt>
      <trkpt lat="43.32219" lon="1.90386">
        <ele>219.810106</ele>
        <time>2023-01-04T13:34:03.084Z</time>
      </trkpt>
      <trkpt lat="43.32219" lon="1.90398">
        <ele>219.91452</ele>
        <time>2023-01-04T13:34:05.088Z</time>
      </trkpt>
      <trkpt lat="43.32218" lon="1.90411">
        <ele>220.01884</ele>
        <time>2023-01-04T13:34:07.084Z</time>
      </trkpt>
      <trkpt lat="43.32216" lon="1.90427">
        <ele>220.154225</ele>
        <time>2023-01-04T13:34:10.103Z</time>
      </trkpt>
      <trkpt lat="43.32213" lon="1.90443">
        <ele>220.297344</ele>
        <time>2023-01-04T13:34:13.088Z</time>
      </trkpt>
      <trkpt lat="43.32211" lon="1.90458">
        <ele>220.424947</ele>
        <time>2023-01-04T13:34:15.079Z</time>
      </trkpt>
      <trkpt lat="43.3221" lon="1.90472">
        <ele>220.540186</ele>
        <time>2023-01-04T13:34:17.079Z</time>
      </trkpt>
      <trkpt lat="43.32209" lon="1.9049">
        <ele>220.688538</ele>
        <time>2023-01-04T13:34:20.084Z</time>
      </trkpt>
      <trkpt lat="43.32205" lon="1.90506">
        <ele>220.833195</ele>
        <time>2023-01-04T13:34:23.086Z</time>
      </trkpt>
      <trkpt lat="43.32202" lon="1.90525">
        <ele>220.995512</ele>
        <time>2023-01-04T13:34:26.085Z</time>
      </trkpt>
      <trkpt lat="43.32199" lon="1.90538">
        <ele>221.102668</ele>
        <time>2023-01-04T13:34:28.081Z</time>
      </trkpt>
      <trkpt lat="43.32197" lon="1.90551">
        <ele>221.214945</ele>
        <time>2023-01-04T13:34:30.088Z</time>
      </trkpt>
      <trkpt lat="43.32194" lon="1.90563">
        <ele>221.322237</ele>
        <time>2023-01-04T13:34:32.085Z</time>
      </trkpt>
      <trkpt lat="43.32192" lon="1.90576">
        <ele>221.43626</ele>
        <time>2023-01-04T13:34:34.088Z</time>
      </trkpt>
      <trkpt lat="43.32189" lon="1.9059">
        <ele>221.558733</ele>
        <time>2023-01-04T13:34:36.094Z</time>
      </trkpt>
      <trkpt lat="43.32187" lon="1.90602">
        <ele>221.706654</ele>
        <time>2023-01-04T13:34:38.083Z</time>
      </trkpt>
      <trkpt lat="43.32184" lon="1.90618">
        <ele>221.904322</ele>
        <time>2023-01-04T13:34:41.089Z</time>
      </trkpt>
      <trkpt lat="43.32181" lon="1.90631">
        <ele>222.062996</ele>
        <time>2023-01-04T13:34:43.090Z</time>
      </trkpt>
      <trkpt lat="43.32178" lon="1.90646">
        <ele>222.24812</ele>
        <time>2023-01-04T13:34:45.090Z</time>
      </trkpt>
      <trkpt lat="43.32174" lon="1.9066">
        <ele>222.42128</ele>
        <time>2023-01-04T13:34:47.086Z</time>
      </trkpt>
      <trkpt lat="43.3217" lon="1.90678">
        <ele>222.644051</ele>
        <time>2023-01-04T13:34:50.088Z</time>
      </trkpt>
      <trkpt lat="43.32167" lon="1.90691">
        <ele>222.812187</ele>
        <time>2023-01-04T13:34:52.095Z</time>
      </trkpt>
      <trkpt lat="43.32164" lon="1.90703">
        <ele>222.961483</ele>
        <time>2023-01-04T13:34:54.103Z</time>
      </trkpt>
      <trkpt lat="43.32161" lon="1.90722">
        <ele>223.194231</ele>
        <time>2023-01-04T13:34:57.087Z</time>
      </trkpt>
      <trkpt lat="43.32159" lon="1.90735">
        <ele>223.34984</ele>
        <time>2023-01-04T13:34:59.085Z</time>
      </trkpt>
      <trkpt lat="43.32156" lon="1.90748">
        <ele>223.514408</ele>
        <time>2023-01-04T13:35:01.082Z</time>
      </trkpt>
      <trkpt lat="43.32155" lon="1.90762">
        <ele>223.681961</ele>
        <time>2023-01-04T13:35:03.092Z</time>
      </trkpt>
      <trkpt lat="43.32152" lon="1.90777">
        <ele>223.86678</ele>
        <time>2023-01-04T13:35:05.086Z</time>
      </trkpt>
      <trkpt lat="43.32151" lon="1.90791">
        <ele>224.037829</ele>
        <time>2023-01-04T13:35:07.095Z</time>
      </trkpt>
      <trkpt lat="43.32148" lon="1.90806">
        <ele>224.219591</ele>
        <time>2023-01-04T13:35:09.084Z</time>
      </trkpt>
      <trkpt lat="43.32147" lon="1.90819">
        <ele>224.376739</ele>
        <time>2023-01-04T13:35:11.093Z</time>
      </trkpt>
      <trkpt lat="43.32143" lon="1.90835">
        <ele>224.389769</ele>
        <time>2023-01-04T13:35:14.087Z</time>
      </trkpt>
      <trkpt lat="43.32141" lon="1.90848">
        <ele>224.181357</ele>
        <time>2023-01-04T13:35:16.089Z</time>
      </trkpt>
      <trkpt lat="43.32139" lon="1.90862">
        <ele>223.966425</ele>
        <time>2023-01-04T13:35:18.085Z</time>
      </trkpt>
      <trkpt lat="43.32137" lon="1.90877">
        <ele>223.740747</ele>
        <time>2023-01-04T13:35:20.107Z</time>
      </trkpt>
      <trkpt lat="43.32134" lon="1.9089">
        <ele>223.539978</ele>
        <time>2023-01-04T13:35:22.086Z</time>
      </trkpt>
      <trkpt lat="43.32133" lon="1.90903">
        <ele>223.335412</ele>
        <time>2023-01-04T13:35:24.090Z</time>
      </trkpt>
      <trkpt lat="43.3213" lon="1.9092">
        <ele>223.07961</ele>
        <time>2023-01-04T13:35:27.082Z</time>
      </trkpt>
      <trkpt lat="43.32126" lon="1.90933">
        <ele>222.864353</ele>
        <time>2023-01-04T13:35:30.087Z</time>
      </trkpt>
      <trkpt lat="43.32122" lon="1.90948">
        <ele>222.615176</ele>
        <time>2023-01-04T13:35:33.078Z</time>
      </trkpt>
      <trkpt lat="43.32116" lon="1.90967">
        <ele>222.303422</ele>
        <time>2023-01-04T13:35:36.088Z</time>
      </trkpt>
      <trkpt lat="43.32111" lon="1.9098">
        <ele>222.086999</ele>
        <time>2023-01-04T13:35:39.092Z</time>
      </trkpt>
      <trkpt lat="43.32104" lon="1.90996">
        <ele>221.810678</ele>
        <time>2023-01-04T13:35:42.086Z</time>
      </trkpt>
      <trkpt lat="43.32098" lon="1.91012">
        <ele>221.541792</ele>
        <time>2023-01-04T13:35:45.092Z</time>
      </trkpt>
      <trkpt lat="43.32092" lon="1.91029">
        <ele>221.251713</ele>
        <time>2023-01-04T13:35:48.082Z</time>
      </trkpt>
      <trkpt lat="43.32089" lon="1.91041">
        <ele>221.055372</ele>
        <time>2023-01-04T13:35:50.082Z</time>
      </trkpt>
      <trkpt lat="43.32084" lon="1.91052">
        <ele>220.866889</ele>
        <time>2023-01-04T13:35:52.083Z</time>
      </trkpt>
      <trkpt lat="43.32081" lon="1.91064">
        <ele>220.842215</ele>
        <time>2023-01-04T13:35:55.086Z</time>
      </trkpt>
      <trkpt lat="43.32078" lon="1.91079">
        <ele>221.059767</ele>
        <time>2023-01-04T13:35:58.090Z</time>
      </trkpt>
      <trkpt lat="43.32074" lon="1.91098">
        <ele>221.319759</ele>
        <time>2023-01-04T13:36:00.088Z</time>
      </trkpt>
      <trkpt lat="43.32073" lon="1.91113">
        <ele>221.538548</ele>
        <time>2023-01-04T13:36:02.087Z</time>
      </trkpt>
      <trkpt lat="43.32071" lon="1.91128">
        <ele>221.744078</ele>
        <time>2023-01-04T13:36:04.084Z</time>
      </trkpt>
      <trkpt lat="43.32069" lon="1.91144">
        <ele>221.95824</ele>
        <time>2023-01-04T13:36:06.086Z</time>
      </trkpt>
      <trkpt lat="43.32068" lon="1.9116">
        <ele>222.179697</ele>
        <time>2023-01-04T13:36:08.088Z</time>
      </trkpt>
      <trkpt lat="43.32067" lon="1.91174">
        <ele>222.37389</ele>
        <time>2023-01-04T13:36:10.086Z</time>
      </trkpt>
      <trkpt lat="43.32067" lon="1.91187">
        <ele>222.548811</ele>
        <time>2023-01-04T13:36:12.088Z</time>
      </trkpt>
      <trkpt lat="43.32068" lon="1.91204">
        <ele>222.786283</ele>
        <time>2023-01-04T13:36:15.091Z</time>
      </trkpt>
      <trkpt lat="43.32069" lon="1.91221">
        <ele>223.02071</ele>
        <time>2023-01-04T13:36:18.086Z</time>
      </trkpt>
      <trkpt lat="43.32072" lon="1.91239">
        <ele>223.260697</ele>
        <time>2023-01-04T13:36:21.079Z</time>
      </trkpt>
      <trkpt lat="43.32073" lon="1.91256">
        <ele>223.502975</ele>
        <time>2023-01-04T13:36:24.097Z</time>
      </trkpt>
      <trkpt lat="43.32075" lon="1.91274">
        <ele>223.74821</ele>
        <time>2023-01-04T13:36:27.089Z</time>
      </trkpt>
      <trkpt lat="43.32077" lon="1.91291">
        <ele>223.980823</ele>
        <time>2023-01-04T13:36:30.090Z</time>
      </trkpt>
      <trkpt lat="43.32079" lon="1.91306">
        <ele>224.084978</ele>
        <time>2023-01-04T13:36:33.085Z</time>
      </trkpt>
      <trkpt lat="43.32079" lon="1.9132">
        <ele>223.910876</ele>
        <time>2023-01-04T13:36:36.103Z</time>
      </trkpt>
      <trkpt lat="43.32083" lon="1.91333">
        <ele>223.721377</ele>
        <time>2023-01-04T13:36:39.081Z</time>
      </trkpt>
      <trkpt lat="43.32085" lon="1.91346">
        <ele>223.55735</ele>
        <time>2023-01-04T13:36:42.094Z</time>
      </trkpt>
      <trkpt lat="43.32086" lon="1.91359">
        <ele>223.39326</ele>
        <time>2023-01-04T13:36:45.085Z</time>
      </trkpt>
      <trkpt lat="43.32086" lon="1.91372">
        <ele>223.225909</ele>
        <time>2023-01-04T13:36:48.088Z</time>
      </trkpt>
      <trkpt lat="43.32086" lon="1.91384">
        <ele>223.062392</ele>
        <time>2023-01-04T13:36:51.086Z</time>
      </trkpt>
      <trkpt lat="43.32086" lon="1.91397">
        <ele>222.898903</ele>
        <time>2023-01-04T13:36:54.090Z</time>
      </trkpt>
      <trkpt lat="43.32086" lon="1.91412">
        <ele>222.701924</ele>
        <time>2023-01-04T13:36:57.086Z</time>
      </trkpt>
      <trkpt lat="43.32089" lon="1.91428">
        <ele>222.488325</ele>
        <time>2023-01-04T13:37:00.095Z</time>
      </trkpt>
      <trkpt lat="43.32093" lon="1.91446">
        <ele>222.254975</ele>
        <time>2023-01-04T13:37:03.093Z</time>
      </trkpt>
      <trkpt lat="43.32095" lon="1.91458">
        <ele>222.087846</ele>
        <time>2023-01-04T13:37:05.100Z</time>
      </trkpt>
      <trkpt lat="43.321" lon="1.91476">
        <ele>221.841525</ele>
        <time>2023-01-04T13:37:08.084Z</time>
      </trkpt>
      <trkpt lat="43.32103" lon="1.91488">
        <ele>221.675185</ele>
        <time>2023-01-04T13:37:10.104Z</time>
      </trkpt>
      <trkpt lat="43.32108" lon="1.91505">
        <ele>221.444693</ele>
        <time>2023-01-04T13:37:13.103Z</time>
      </trkpt>
      <trkpt lat="43.32112" lon="1.9152">
        <ele>221.231067</ele>
        <time>2023-01-04T13:37:16.084Z</time>
      </trkpt>
      <trkpt lat="43.32117" lon="1.91535">
        <ele>221.026454</ele>
        <time>2023-01-04T13:37:19.083Z</time>
      </trkpt>
      <trkpt lat="43.32121" lon="1.91547">
        <ele>220.945186</ele>
        <time>2023-01-04T13:37:22.087Z</time>
      </trkpt>
      <trkpt lat="43.32125" lon="1.91562">
        <ele>220.925585</ele>
        <time>2023-01-04T13:37:26.094Z</time>
      </trkpt>
      <trkpt lat="43.32129" lon="1.91574">
        <ele>220.908824</ele>
        <time>2023-01-04T13:37:29.079Z</time>
      </trkpt>
      <trkpt lat="43.32133" lon="1.91587">
        <ele>220.891022</ele>
        <time>2023-01-04T13:37:32.089Z</time>
      </trkpt>
      <trkpt lat="43.32134" lon="1.91602">
        <ele>220.871334</ele>
        <time>2023-01-04T13:37:35.085Z</time>
      </trkpt>
      <trkpt lat="43.32135" lon="1.91619">
        <ele>220.850019</ele>
        <time>2023-01-04T13:37:38.091Z</time>
      </trkpt>
      <trkpt lat="43.32134" lon="1.91635">
        <ele>220.828649</ele>
        <time>2023-01-04T13:37:41.089Z</time>
      </trkpt>
      <trkpt lat="43.3213" lon="1.91652">
        <ele>220.806827</ele>
        <time>2023-01-04T13:37:44.093Z</time>
      </trkpt>
      <trkpt lat="43.32126" lon="1.91669">
        <ele>220.783931</ele>
        <time>2023-01-04T13:37:47.102Z</time>
      </trkpt>
      <trkpt lat="43.32123" lon="1.91681">
        <ele>220.767512</ele>
        <time>2023-01-04T13:37:49.089Z</time>
      </trkpt>
      <trkpt lat="43.32119" lon="1.91693">
        <ele>220.750971</ele>
        <time>2023-01-04T13:37:51.087Z</time>
      </trkpt>
      <trkpt lat="43.32116" lon="1.91705">
        <ele>220.734548</ele>
        <time>2023-01-04T13:37:53.103Z</time>
      </trkpt>
      <trkpt lat="43.32113" lon="1.91718">
        <ele>220.717649</ele>
        <time>2023-01-04T13:37:55.088Z</time>
      </trkpt>
      <trkpt lat="43.3211" lon="1.9173">
        <ele>220.700859</ele>
        <time>2023-01-04T13:37:57.106Z</time>
      </trkpt>
      <trkpt lat="43.32106" lon="1.91742">
        <ele>220.6842</ele>
        <time>2023-01-04T13:37:59.086Z</time>
      </trkpt>
      <trkpt lat="43.32103" lon="1.91755">
        <ele>220.667422</ele>
        <time>2023-01-04T13:38:01.088Z</time>
      </trkpt>
      <trkpt lat="43.321" lon="1.91767">
        <ele>220.650222</ele>
        <time>2023-01-04T13:38:03.086Z</time>
      </trkpt>
      <trkpt lat="43.32097" lon="1.9178">
        <ele>220.643137</ele>
        <time>2023-01-04T13:38:05.088Z</time>
      </trkpt>
      <trkpt lat="43.32094" lon="1.91793">
        <ele>220.650866</ele>
        <time>2023-01-04T13:38:07.103Z</time>
      </trkpt>
      <trkpt lat="43.32091" lon="1.91806">
        <ele>220.658845</ele>
        <time>2023-01-04T13:38:09.087Z</time>
      </trkpt>
      <trkpt lat="43.32088" lon="1.91819">
        <ele>220.667005</ele>
        <time>2023-01-04T13:38:11.086Z</time>
      </trkpt>
      <trkpt lat="43.32084" lon="1.91832">
        <ele>220.674758</ele>
        <time>2023-01-04T13:38:13.093Z</time>
      </trkpt>
      <trkpt lat="43.32082" lon="1.91845">
        <ele>220.682339</ele>
        <time>2023-01-04T13:38:15.091Z</time>
      </trkpt>
      <trkpt lat="43.32079" lon="1.91858">
        <ele>220.690009</ele>
        <time>2023-01-04T13:38:17.104Z</time>
      </trkpt>
      <trkpt lat="43.32076" lon="1.91869">
        <ele>220.697192</ele>
        <time>2023-01-04T13:38:19.087Z</time>
      </trkpt>
      <trkpt lat="43.32075" lon="1.91887">
        <ele>220.707531</ele>
        <time>2023-01-04T13:38:22.086Z</time>
      </trkpt>
      <trkpt lat="43.32073" lon="1.91906">
        <ele>220.718279</ele>
        <time>2023-01-04T13:38:25.102Z</time>
      </trkpt>
      <trkpt lat="43.32071" lon="1.91918">
        <ele>220.725479</ele>
        <time>2023-01-04T13:38:27.092Z</time>
      </trkpt>
      <trkpt lat="43.3207" lon="1.91931">
        <ele>220.733135</ele>
        <time>2023-01-04T13:38:29.084Z</time>
      </trkpt>
      <trkpt lat="43.3207" lon="1.91944">
        <ele>220.740498</ele>
        <time>2023-01-04T13:38:31.080Z</time>
      </trkpt>
      <trkpt lat="43.32069" lon="1.91958">
        <ele>220.74855</ele>
        <time>2023-01-04T13:38:33.088Z</time>
      </trkpt>
      <trkpt lat="43.32069" lon="1.91972">
        <ele>220.756319</ele>
        <time>2023-01-04T13:38:35.098Z</time>
      </trkpt>
      <trkpt lat="43.32069" lon="1.91986">
        <ele>220.76448</ele>
        <time>2023-01-04T13:38:37.075Z</time>
      </trkpt>
      <trkpt lat="43.32068" lon="1.92">
        <ele>220.772478</ele>
        <time>2023-01-04T13:38:39.089Z</time>
      </trkpt>
      <trkpt lat="43.32069" lon="1.92014">
        <ele>220.780706</ele>
        <time>2023-01-04T13:38:41.100Z</time>
      </trkpt>
      <trkpt lat="43.32069" lon="1.92027">
        <ele>220.811074</ele>
        <time>2023-01-04T13:38:43.104Z</time>
      </trkpt>
      <trkpt lat="43.3207" lon="1.9204">
        <ele>220.846634</ele>
        <time>2023-01-04T13:38:45.106Z</time>
      </trkpt>
      <trkpt lat="43.32072" lon="1.92057">
        <ele>220.8938</ele>
        <time>2023-01-04T13:38:48.139Z</time>
      </trkpt>
      <trkpt lat="43.32074" lon="1.92072">
        <ele>220.93811</ele>
        <time>2023-01-04T13:38:51.097Z</time>
      </trkpt>
      <trkpt lat="43.32076" lon="1.92088">
        <ele>220.982079</ele>
        <time>2023-01-04T13:38:54.157Z</time>
      </trkpt>
      <trkpt lat="43.32079" lon="1.92102">
        <ele>221.02538</ele>
        <time>2023-01-04T13:38:57.096Z</time>
      </trkpt>
      <trkpt lat="43.32083" lon="1.92118">
        <ele>221.07209</ele>
        <time>2023-01-04T13:39:00.159Z</time>
      </trkpt>
      <trkpt lat="43.32085" lon="1.92131">
        <ele>221.10726</ele>
        <time>2023-01-04T13:39:02.098Z</time>
      </trkpt>
      <trkpt lat="43.32088" lon="1.92143">
        <ele>221.142759</ele>
        <time>2023-01-04T13:39:04.098Z</time>
      </trkpt>
      <trkpt lat="43.32091" lon="1.92155">
        <ele>221.177575</ele>
        <time>2023-01-04T13:39:06.169Z</time>
      </trkpt>
      <trkpt lat="43.32094" lon="1.92172">
        <ele>221.227092</ele>
        <time>2023-01-04T13:39:09.108Z</time>
      </trkpt>
      <trkpt lat="43.32097" lon="1.92187">
        <ele>221.270935</ele>
        <time>2023-01-04T13:39:12.144Z</time>
      </trkpt>
      <trkpt lat="43.321" lon="1.92202">
        <ele>221.31323</ele>
        <time>2023-01-04T13:39:15.111Z</time>
      </trkpt>
      <trkpt lat="43.32103" lon="1.92218">
        <ele>221.360035</ele>
        <time>2023-01-04T13:39:18.148Z</time>
      </trkpt>
      <trkpt lat="43.32105" lon="1.92236">
        <ele>221.408924</ele>
        <time>2023-01-04T13:39:21.095Z</time>
      </trkpt>
      <trkpt lat="43.32105" lon="1.92254">
        <ele>221.460429</ele>
        <time>2023-01-04T13:39:24.148Z</time>
      </trkpt>
      <trkpt lat="43.32105" lon="1.92267">
        <ele>221.447048</ele>
        <time>2023-01-04T13:39:26.101Z</time>
      </trkpt>
      <trkpt lat="43.32104" lon="1.92279">
        <ele>221.415204</ele>
        <time>2023-01-04T13:39:28.099Z</time>
      </trkpt>
      <trkpt lat="43.32102" lon="1.92291">
        <ele>221.382987</ele>
        <time>2023-01-04T13:39:30.175Z</time>
      </trkpt>
      <trkpt lat="43.32098" lon="1.92302">
        <ele>221.35108</ele>
        <time>2023-01-04T13:39:32.106Z</time>
      </trkpt>
      <trkpt lat="43.32095" lon="1.92314">
        <ele>221.318626</ele>
        <time>2023-01-04T13:39:34.107Z</time>
      </trkpt>
      <trkpt lat="43.32091" lon="1.92326">
        <ele>221.285555</ele>
        <time>2023-01-04T13:39:36.097Z</time>
      </trkpt>
      <trkpt lat="43.32087" lon="1.92338">
        <ele>221.251722</ele>
        <time>2023-01-04T13:39:38.101Z</time>
      </trkpt>
      <trkpt lat="43.32082" lon="1.92357">
        <ele>221.199205</ele>
        <time>2023-01-04T13:39:41.162Z</time>
      </trkpt>
      <trkpt lat="43.32078" lon="1.9237">
        <ele>221.162695</ele>
        <time>2023-01-04T13:39:43.111Z</time>
      </trkpt>
      <trkpt lat="43.32073" lon="1.92388">
        <ele>221.111725</ele>
        <time>2023-01-04T13:39:46.115Z</time>
      </trkpt>
      <trkpt lat="43.32069" lon="1.92401">
        <ele>221.075669</ele>
        <time>2023-01-04T13:39:48.095Z</time>
      </trkpt>
      <trkpt lat="43.32065" lon="1.92415">
        <ele>221.038286</ele>
        <time>2023-01-04T13:39:50.079Z</time>
      </trkpt>
      <trkpt lat="43.32062" lon="1.92428">
        <ele>221.000902</ele>
        <time>2023-01-04T13:39:52.096Z</time>
      </trkpt>
      <trkpt lat="43.32059" lon="1.92443">
        <ele>220.962441</ele>
        <time>2023-01-04T13:39:54.107Z</time>
      </trkpt>
      <trkpt lat="43.32057" lon="1.92457">
        <ele>220.925683</ele>
        <time>2023-01-04T13:39:56.095Z</time>
      </trkpt>
      <trkpt lat="43.32055" lon="1.9247">
        <ele>220.890808</ele>
        <time>2023-01-04T13:39:58.098Z</time>
      </trkpt>
      <trkpt lat="43.32053" lon="1.92488">
        <ele>220.843949</ele>
        <time>2023-01-04T13:40:01.099Z</time>
      </trkpt>
      <trkpt lat="43.32051" lon="1.92506">
        <ele>220.854413</ele>
        <time>2023-01-04T13:40:04.094Z</time>
      </trkpt>
      <trkpt lat="43.32048" lon="1.92523">
        <ele>220.883553</ele>
        <time>2023-01-04T13:40:07.102Z</time>
      </trkpt>
      <trkpt lat="43.32046" lon="1.92537">
        <ele>220.905408</ele>
        <time>2023-01-04T13:40:09.109Z</time>
      </trkpt>
      <trkpt lat="43.32044" lon="1.92549">
        <ele>220.926122</ele>
        <time>2023-01-04T13:40:11.141Z</time>
      </trkpt>
      <trkpt lat="43.32043" lon="1.92562">
        <ele>220.947486</ele>
        <time>2023-01-04T13:40:13.108Z</time>
      </trkpt>
      <trkpt lat="43.32041" lon="1.92575">
        <ele>220.968014</ele>
        <time>2023-01-04T13:40:15.107Z</time>
      </trkpt>
      <trkpt lat="43.32041" lon="1.92592">
        <ele>220.995705</ele>
        <time>2023-01-04T13:40:18.105Z</time>
      </trkpt>
      <trkpt lat="43.32038" lon="1.92607">
        <ele>221.020658</ele>
        <time>2023-01-04T13:40:21.098Z</time>
      </trkpt>
      <trkpt lat="43.32037" lon="1.92621">
        <ele>221.043387</ele>
        <time>2023-01-04T13:40:24.111Z</time>
      </trkpt>
      <trkpt lat="43.32036" lon="1.92638">
        <ele>221.07067</ele>
        <time>2023-01-04T13:40:28.167Z</time>
      </trkpt>
      <trkpt lat="43.32034" lon="1.92653">
        <ele>221.09497</ele>
        <time>2023-01-04T13:40:32.087Z</time>
      </trkpt>
      <trkpt lat="43.32031" lon="1.92665">
        <ele>221.116478</ele>
        <time>2023-01-04T13:40:37.113Z</time>
      </trkpt>
      <trkpt lat="43.32029" lon="1.92678">
        <ele>221.137608</ele>
        <time>2023-01-04T13:40:41.110Z</time>
      </trkpt>
      <trkpt lat="43.32028" lon="1.92693">
        <ele>221.16151</ele>
        <time>2023-01-04T13:40:45.099Z</time>
      </trkpt>
      <trkpt lat="43.32027" lon="1.92708">
        <ele>221.186561</ele>
        <time>2023-01-04T13:40:49.101Z</time>
      </trkpt>
      <trkpt lat="43.32026" lon="1.92723">
        <ele>221.21041</ele>
        <time>2023-01-04T13:40:52.165Z</time>
      </trkpt>
      <trkpt lat="43.32024" lon="1.92739">
        <ele>221.236946</ele>
        <time>2023-01-04T13:40:55.107Z</time>
      </trkpt>
      <trkpt lat="43.32022" lon="1.92753">
        <ele>221.25968</ele>
        <time>2023-01-04T13:40:58.163Z</time>
      </trkpt>
      <trkpt lat="43.32021" lon="1.92771">
        <ele>221.288655</ele>
        <time>2023-01-04T13:41:01.101Z</time>
      </trkpt>
      <trkpt lat="43.32017" lon="1.92789">
        <ele>221.318778</ele>
        <time>2023-01-04T13:41:04.145Z</time>
      </trkpt>
      <trkpt lat="43.32015" lon="1.92806">
        <ele>221.346924</ele>
        <time>2023-01-04T13:41:07.109Z</time>
      </trkpt>
      <trkpt lat="43.32014" lon="1.92821">
        <ele>221.372215</ele>
        <time>2023-01-04T13:41:10.140Z</time>
      </trkpt>
      <trkpt lat="43.32011" lon="1.92839">
        <ele>221.400825</ele>
        <time>2023-01-04T13:41:13.102Z</time>
      </trkpt>
      <trkpt lat="43.3201" lon="1.92855">
        <ele>221.427076</ele>
        <time>2023-01-04T13:41:16.136Z</time>
      </trkpt>
      <trkpt lat="43.32007" lon="1.92867">
        <ele>221.447708</ele>
        <time>2023-01-04T13:41:18.099Z</time>
      </trkpt>
      <trkpt lat="43.32004" lon="1.9288">
        <ele>221.469984</ele>
        <time>2023-01-04T13:41:20.096Z</time>
      </trkpt>
      <trkpt lat="43.32002" lon="1.92898">
        <ele>221.49963</ele>
        <time>2023-01-04T13:41:23.110Z</time>
      </trkpt>
      <trkpt lat="43.32" lon="1.92911">
        <ele>221.520097</ele>
        <time>2023-01-04T13:41:25.107Z</time>
      </trkpt>
      <trkpt lat="43.31998" lon="1.92928">
        <ele>221.548908</ele>
        <time>2023-01-04T13:41:27.091Z</time>
      </trkpt>
      <trkpt lat="43.31994" lon="1.9294">
        <ele>221.569101</ele>
        <time>2023-01-04T13:41:29.109Z</time>
      </trkpt>
      <trkpt lat="43.31992" lon="1.92956">
        <ele>221.595696</ele>
        <time>2023-01-04T13:41:32.169Z</time>
      </trkpt>
      <trkpt lat="43.3199" lon="1.92973">
        <ele>221.622559</ele>
        <time>2023-01-04T13:41:36.107Z</time>
      </trkpt>
      <trkpt lat="43.31987" lon="1.9299">
        <ele>221.60585</ele>
        <time>2023-01-04T13:41:39.110Z</time>
      </trkpt>
      <trkpt lat="43.31983" lon="1.93005">
        <ele>221.572993</ele>
        <time>2023-01-04T13:41:41.098Z</time>
      </trkpt>
      <trkpt lat="43.31979" lon="1.93022">
        <ele>221.537641</ele>
        <time>2023-01-04T13:41:44.136Z</time>
      </trkpt>
      <trkpt lat="43.31975" lon="1.93039">
        <ele>221.501428</ele>
        <time>2023-01-04T13:41:47.080Z</time>
      </trkpt>
      <trkpt lat="43.31972" lon="1.93055">
        <ele>221.467011</ele>
        <time>2023-01-04T13:41:50.164Z</time>
      </trkpt>
      <trkpt lat="43.31968" lon="1.9307">
        <ele>221.434154</ele>
        <time>2023-01-04T13:41:53.111Z</time>
      </trkpt>
      <trkpt lat="43.31965" lon="1.93087">
        <ele>221.398605</ele>
        <time>2023-01-04T13:41:56.087Z</time>
      </trkpt>
      <trkpt lat="43.31962" lon="1.93099">
        <ele>221.372739</ele>
        <time>2023-01-04T13:41:58.098Z</time>
      </trkpt>
      <trkpt lat="43.31958" lon="1.93112">
        <ele>221.34467</ele>
        <time>2023-01-04T13:42:00.100Z</time>
      </trkpt>
      <trkpt lat="43.31955" lon="1.93125">
        <ele>221.315643</ele>
        <time>2023-01-04T13:42:02.101Z</time>
      </trkpt>
      <trkpt lat="43.31952" lon="1.93137">
        <ele>221.289491</ele>
        <time>2023-01-04T13:42:04.109Z</time>
      </trkpt>
      <trkpt lat="43.31949" lon="1.9315">
        <ele>221.263023</ele>
        <time>2023-01-04T13:42:06.102Z</time>
      </trkpt>
      <trkpt lat="43.31944" lon="1.93168">
        <ele>221.223942</ele>
        <time>2023-01-04T13:42:09.083Z</time>
      </trkpt>
      <trkpt lat="43.3194" lon="1.93181">
        <ele>221.196257</ele>
        <time>2023-01-04T13:42:11.098Z</time>
      </trkpt>
      <trkpt lat="43.31937" lon="1.93193">
        <ele>221.169278</ele>
        <time>2023-01-04T13:42:13.108Z</time>
      </trkpt>
      <trkpt lat="43.31931" lon="1.93205">
        <ele>221.141122</ele>
        <time>2023-01-04T13:42:15.108Z</time>
      </trkpt>
      <trkpt lat="43.31926" lon="1.93216">
        <ele>221.149601</ele>
        <time>2023-01-04T13:42:17.085Z</time>
      </trkpt>
      <trkpt lat="43.31919" lon="1.93231">
        <ele>221.203306</ele>
        <time>2023-01-04T13:42:20.107Z</time>
      </trkpt>
      <trkpt lat="43.31912" lon="1.93244">
        <ele>221.255718</ele>
        <time>2023-01-04T13:42:23.101Z</time>
      </trkpt>
      <trkpt lat="43.31906" lon="1.93254">
        <ele>221.29541</ele>
        <time>2023-01-04T13:42:25.101Z</time>
      </trkpt>
      <trkpt lat="43.31898" lon="1.93268">
        <ele>221.347822</ele>
        <time>2023-01-04T13:42:28.106Z</time>
      </trkpt>
      <trkpt lat="43.3189" lon="1.93281">
        <ele>221.402309</ele>
        <time>2023-01-04T13:42:31.089Z</time>
      </trkpt>
      <trkpt lat="43.31882" lon="1.93292">
        <ele>221.44727</ele>
        <time>2023-01-04T13:42:33.100Z</time>
      </trkpt>
      <trkpt lat="43.31875" lon="1.93302">
        <ele>221.491489</ele>
        <time>2023-01-04T13:42:35.110Z</time>
      </trkpt>
      <trkpt lat="43.31868" lon="1.93312">
        <ele>221.534003</ele>
        <time>2023-01-04T13:42:37.106Z</time>
      </trkpt>
      <trkpt lat="43.31861" lon="1.93323">
        <ele>221.578392</ele>
        <time>2023-01-04T13:42:39.106Z</time>
      </trkpt>
      <trkpt lat="43.31852" lon="1.93337">
        <ele>221.636719</ele>
        <time>2023-01-04T13:42:42.143Z</time>
      </trkpt>
      <trkpt lat="43.31846" lon="1.93348">
        <ele>221.681992</ele>
        <time>2023-01-04T13:42:44.098Z</time>
      </trkpt>
      <trkpt lat="43.31836" lon="1.93362">
        <ele>221.741184</ele>
        <time>2023-01-04T13:42:47.086Z</time>
      </trkpt>
      <trkpt lat="43.3183" lon="1.93372">
        <ele>221.78027</ele>
        <time>2023-01-04T13:42:49.108Z</time>
      </trkpt>
      <trkpt lat="43.31821" lon="1.93383">
        <ele>221.83024</ele>
        <time>2023-01-04T13:42:52.102Z</time>
      </trkpt>
      <trkpt lat="43.31813" lon="1.93395">
        <ele>221.880946</ele>
        <time>2023-01-04T13:42:55.082Z</time>
      </trkpt>
      <trkpt lat="43.31804" lon="1.93408">
        <ele>221.856433</ele>
        <time>2023-01-04T13:42:58.111Z</time>
      </trkpt>
      <trkpt lat="43.31796" lon="1.93421">
        <ele>221.816312</ele>
        <time>2023-01-04T13:43:01.111Z</time>
      </trkpt>
      <trkpt lat="43.31789" lon="1.93437">
        <ele>221.774515</ele>
        <time>2023-01-04T13:43:04.097Z</time>
      </trkpt>
      <trkpt lat="43.31786" lon="1.93449">
        <ele>221.744947</ele>
        <time>2023-01-04T13:43:06.155Z</time>
      </trkpt>
      <trkpt lat="43.31784" lon="1.93468">
        <ele>221.70214</ele>
        <time>2023-01-04T13:43:09.084Z</time>
      </trkpt>
      <trkpt lat="43.31785" lon="1.93481">
        <ele>221.671883</ele>
        <time>2023-01-04T13:43:11.098Z</time>
      </trkpt>
      <trkpt lat="43.31788" lon="1.93494">
        <ele>221.642081</ele>
        <time>2023-01-04T13:43:13.090Z</time>
      </trkpt>
      <trkpt lat="43.31792" lon="1.93507">
        <ele>221.61035</ele>
        <time>2023-01-04T13:43:15.092Z</time>
      </trkpt>
      <trkpt lat="43.31795" lon="1.9352">
        <ele>221.578746</ele>
        <time>2023-01-04T13:43:17.090Z</time>
      </trkpt>
      <trkpt lat="43.31799" lon="1.93533">
        <ele>221.54746</ele>
        <time>2023-01-04T13:43:19.096Z</time>
      </trkpt>
      <trkpt lat="43.31803" lon="1.93545">
        <ele>221.518094</ele>
        <time>2023-01-04T13:43:21.101Z</time>
      </trkpt>
      <trkpt lat="43.31805" lon="1.93557">
        <ele>221.489168</ele>
        <time>2023-01-04T13:43:23.147Z</time>
      </trkpt>
      <trkpt lat="43.31808" lon="1.93574">
        <ele>221.449433</ele>
        <time>2023-01-04T13:43:26.098Z</time>
      </trkpt>
      <trkpt lat="43.31807" lon="1.9359">
        <ele>221.411993</ele>
        <time>2023-01-04T13:43:29.112Z</time>
      </trkpt>
      <trkpt lat="43.31803" lon="1.93607">
        <ele>221.371994</ele>
        <time>2023-01-04T13:43:32.104Z</time>
      </trkpt>
      <trkpt lat="43.318" lon="1.93619">
        <ele>221.343801</ele>
        <time>2023-01-04T13:43:34.162Z</time>
      </trkpt>
      <trkpt lat="43.31796" lon="1.93631">
        <ele>221.294777</ele>
        <time>2023-01-04T13:43:36.099Z</time>
      </trkpt>
      <trkpt lat="43.31791" lon="1.93644">
        <ele>221.221633</ele>
        <time>2023-01-04T13:43:38.105Z</time>
      </trkpt>
      <trkpt lat="43.31787" lon="1.93657">
        <ele>221.153489</ele>
        <time>2023-01-04T13:43:40.174Z</time>
      </trkpt>
      <trkpt lat="43.31783" lon="1.93669">
        <ele>221.086541</ele>
        <time>2023-01-04T13:43:42.106Z</time>
      </trkpt>
      <trkpt lat="43.31778" lon="1.93679">
        <ele>221.023064</ele>
        <time>2023-01-04T13:43:44.105Z</time>
      </trkpt>
      <trkpt lat="43.31773" lon="1.93693">
        <ele>220.947603</ele>
        <time>2023-01-04T13:43:46.194Z</time>
      </trkpt>
      <trkpt lat="43.31769" lon="1.93706">
        <ele>220.876415</ele>
        <time>2023-01-04T13:43:48.095Z</time>
      </trkpt>
      <trkpt lat="43.31766" lon="1.9372">
        <ele>220.803356</ele>
        <time>2023-01-04T13:43:50.109Z</time>
      </trkpt>
      <trkpt lat="43.31763" lon="1.93733">
        <ele>220.735454</ele>
        <time>2023-01-04T13:43:52.088Z</time>
      </trkpt>
      <trkpt lat="43.3176" lon="1.93746">
        <ele>220.6681</ele>
        <time>2023-01-04T13:43:54.102Z</time>
      </trkpt>
      <trkpt lat="43.31758" lon="1.93761">
        <ele>220.591377</ele>
        <time>2023-01-04T13:43:57.150Z</time>
      </trkpt>
      <trkpt lat="43.31758" lon="1.93775">
        <ele>220.523092</ele>
        <time>2023-01-04T13:44:00.102Z</time>
      </trkpt>
      <trkpt lat="43.31756" lon="1.9379">
        <ele>220.448822</ele>
        <time>2023-01-04T13:44:03.154Z</time>
      </trkpt>
      <trkpt lat="43.31753" lon="1.93807">
        <ele>220.35989</ele>
        <time>2023-01-04T13:44:06.107Z</time>
      </trkpt>
      <trkpt lat="43.31752" lon="1.93819">
        <ele>220.298247</ele>
        <time>2023-01-04T13:44:08.110Z</time>
      </trkpt>
      <trkpt lat="43.31748" lon="1.93831">
        <ele>220.234583</ele>
        <time>2023-01-04T13:44:10.108Z</time>
      </trkpt>
      <trkpt lat="43.31743" lon="1.93844">
        <ele>220.161506</ele>
        <time>2023-01-04T13:44:13.095Z</time>
      </trkpt>
      <trkpt lat="43.31738" lon="1.93856">
        <ele>220.097689</ele>
        <time>2023-01-04T13:44:16.109Z</time>
      </trkpt>
      <trkpt lat="43.31731" lon="1.9387">
        <ele>220.10972</ele>
        <time>2023-01-04T13:44:19.107Z</time>
      </trkpt>
      <trkpt lat="43.31721" lon="1.93882">
        <ele>220.122774</ele>
        <time>2023-01-04T13:44:22.109Z</time>
      </trkpt>
      <trkpt lat="43.31714" lon="1.9389">
        <ele>220.132223</ele>
        <time>2023-01-04T13:44:24.097Z</time>
      </trkpt>
      <trkpt lat="43.31706" lon="1.93899">
        <ele>220.142285</ele>
        <time>2023-01-04T13:44:26.096Z</time>
      </trkpt>
      <trkpt lat="43.31695" lon="1.9391">
        <ele>220.155377</ele>
        <time>2023-01-04T13:44:29.106Z</time>
      </trkpt>
      <trkpt lat="43.31687" lon="1.93918">
        <ele>220.165112</ele>
        <time>2023-01-04T13:44:31.127Z</time>
      </trkpt>
      <trkpt lat="43.3168" lon="1.93926">
        <ele>220.174992</ele>
        <time>2023-01-04T13:44:33.101Z</time>
      </trkpt>
      <trkpt lat="43.31672" lon="1.93935">
        <ele>220.185345</ele>
        <time>2023-01-04T13:44:35.094Z</time>
      </trkpt>
      <trkpt lat="43.31664" lon="1.93944">
        <ele>220.195622</ele>
        <time>2023-01-04T13:44:37.107Z</time>
      </trkpt>
      <trkpt lat="43.31655" lon="1.93953">
        <ele>220.206027</ele>
        <time>2023-01-04T13:44:39.091Z</time>
      </trkpt>
      <trkpt lat="43.31648" lon="1.93962">
        <ele>220.215966</ele>
        <time>2023-01-04T13:44:41.111Z</time>
      </trkpt>
      <trkpt lat="43.31639" lon="1.93971">
        <ele>220.227099</ele>
        <time>2023-01-04T13:44:43.110Z</time>
      </trkpt>
      <trkpt lat="43.3163" lon="1.93981">
        <ele>220.238128</ele>
        <time>2023-01-04T13:44:45.110Z</time>
      </trkpt>
      <trkpt lat="43.31622" lon="1.9399">
        <ele>220.248454</ele>
        <time>2023-01-04T13:44:47.101Z</time>
      </trkpt>
      <trkpt lat="43.31614" lon="1.93998">
        <ele>220.258516</ele>
        <time>2023-01-04T13:44:49.109Z</time>
      </trkpt>
      <trkpt lat="43.31606" lon="1.94007">
        <ele>220.268342</ele>
        <time>2023-01-04T13:44:51.110Z</time>
      </trkpt>
      <trkpt lat="43.31598" lon="1.94015">
        <ele>220.290987</ele>
        <time>2023-01-04T13:44:53.100Z</time>
      </trkpt>
      <trkpt lat="43.31591" lon="1.94023">
        <ele>220.345227</ele>
        <time>2023-01-04T13:44:55.104Z</time>
      </trkpt>
      <trkpt lat="43.31582" lon="1.9403">
        <ele>220.4021</ele>
        <time>2023-01-04T13:44:57.099Z</time>
      </trkpt>
      <trkpt lat="43.31572" lon="1.94037">
        <ele>220.46501</ele>
        <time>2023-01-04T13:44:59.099Z</time>
      </trkpt>
      <trkpt lat="43.31563" lon="1.94042">
        <ele>220.524413</ele>
        <time>2023-01-04T13:45:01.105Z</time>
      </trkpt>
      <trkpt lat="43.31552" lon="1.94048">
        <ele>220.587448</ele>
        <time>2023-01-04T13:45:03.114Z</time>
      </trkpt>
      <trkpt lat="43.31542" lon="1.94053">
        <ele>220.649807</ele>
        <time>2023-01-04T13:45:05.108Z</time>
      </trkpt>
      <trkpt lat="43.31532" lon="1.9406">
        <ele>220.712663</ele>
        <time>2023-01-04T13:45:07.090Z</time>
      </trkpt>
      <trkpt lat="43.31523" lon="1.94067">
        <ele>220.774862</ele>
        <time>2023-01-04T13:45:09.084Z</time>
      </trkpt>
      <trkpt lat="43.31514" lon="1.94077">
        <ele>220.83595</ele>
        <time>2023-01-04T13:45:11.113Z</time>
      </trkpt>
      <trkpt lat="43.31507" lon="1.94087">
        <ele>220.896845</ele>
        <time>2023-01-04T13:45:13.108Z</time>
      </trkpt>
      <trkpt lat="43.31499" lon="1.94097">
        <ele>220.957603</ele>
        <time>2023-01-04T13:45:15.108Z</time>
      </trkpt>
      <trkpt lat="43.31491" lon="1.94107">
        <ele>221.019872</ele>
        <time>2023-01-04T13:45:17.102Z</time>
      </trkpt>
      <trkpt lat="43.31484" lon="1.94119">
        <ele>221.0825</ele>
        <time>2023-01-04T13:45:19.099Z</time>
      </trkpt>
      <trkpt lat="43.31477" lon="1.94131">
        <ele>221.147281</ele>
        <time>2023-01-04T13:45:21.095Z</time>
      </trkpt>
      <trkpt lat="43.3147" lon="1.94141">
        <ele>221.204788</ele>
        <time>2023-01-04T13:45:23.100Z</time>
      </trkpt>
      <trkpt lat="43.31464" lon="1.94153">
        <ele>221.263774</ele>
        <time>2023-01-04T13:45:25.106Z</time>
      </trkpt>
      <trkpt lat="43.31457" lon="1.94162">
        <ele>221.290629</ele>
        <time>2023-01-04T13:45:27.102Z</time>
      </trkpt>
      <trkpt lat="43.31449" lon="1.94177">
        <ele>221.249866</ele>
        <time>2023-01-04T13:45:30.110Z</time>
      </trkpt>
      <trkpt lat="43.31443" lon="1.94187">
        <ele>221.222074</ele>
        <time>2023-01-04T13:45:32.088Z</time>
      </trkpt>
      <trkpt lat="43.31438" lon="1.94198">
        <ele>221.192689</ele>
        <time>2023-01-04T13:45:34.110Z</time>
      </trkpt>
      <trkpt lat="43.31432" lon="1.94209">
        <ele>221.162939</ele>
        <time>2023-01-04T13:45:36.106Z</time>
      </trkpt>
      <trkpt lat="43.31426" lon="1.9422">
        <ele>221.1332</ele>
        <time>2023-01-04T13:45:38.107Z</time>
      </trkpt>
      <trkpt lat="43.3142" lon="1.94231">
        <ele>221.100964</ele>
        <time>2023-01-04T13:45:40.100Z</time>
      </trkpt>
      <trkpt lat="43.31412" lon="1.94243">
        <ele>221.06821</ele>
        <time>2023-01-04T13:45:42.097Z</time>
      </trkpt>
      <trkpt lat="43.31405" lon="1.94254">
        <ele>221.035129</ele>
        <time>2023-01-04T13:45:44.100Z</time>
      </trkpt>
      <trkpt lat="43.31399" lon="1.94264">
        <ele>221.006259</ele>
        <time>2023-01-04T13:45:46.177Z</time>
      </trkpt>
      <trkpt lat="43.31393" lon="1.94275">
        <ele>220.976519</ele>
        <time>2023-01-04T13:45:48.110Z</time>
      </trkpt>
      <trkpt lat="43.31387" lon="1.94285">
        <ele>220.948452</ele>
        <time>2023-01-04T13:45:50.104Z</time>
      </trkpt>
      <trkpt lat="43.31381" lon="1.94294">
        <ele>220.92055</ele>
        <time>2023-01-04T13:45:52.140Z</time>
      </trkpt>
      <trkpt lat="43.31374" lon="1.94308">
        <ele>220.884426</ele>
        <time>2023-01-04T13:45:55.112Z</time>
      </trkpt>
      <trkpt lat="43.31369" lon="1.94323">
        <ele>220.849029</ele>
        <time>2023-01-04T13:45:58.142Z</time>
      </trkpt>
      <trkpt lat="43.31364" lon="1.94337">
        <ele>220.812949</ele>
        <time>2023-01-04T13:46:01.110Z</time>
      </trkpt>
      <trkpt lat="43.31358" lon="1.94354">
        <ele>220.773786</ele>
        <time>2023-01-04T13:46:04.142Z</time>
      </trkpt>
      <trkpt lat="43.31355" lon="1.94371">
        <ele>220.751564</ele>
        <time>2023-01-04T13:46:07.109Z</time>
      </trkpt>
      <trkpt lat="43.31352" lon="1.94388">
        <ele>220.739428</ele>
        <time>2023-01-04T13:46:10.150Z</time>
      </trkpt>
      <trkpt lat="43.3135" lon="1.94401">
        <ele>220.730624</ele>
        <time>2023-01-04T13:46:12.122Z</time>
      </trkpt>
      <trkpt lat="43.31347" lon="1.94419">
        <ele>220.718358</ele>
        <time>2023-01-04T13:46:15.110Z</time>
      </trkpt>
      <trkpt lat="43.31342" lon="1.94435">
        <ele>220.70684</ele>
        <time>2023-01-04T13:46:18.099Z</time>
      </trkpt>
      <trkpt lat="43.31336" lon="1.94449">
        <ele>220.696074</ele>
        <time>2023-01-04T13:46:21.155Z</time>
      </trkpt>
      <trkpt lat="43.31327" lon="1.9446">
        <ele>220.685158</ele>
        <time>2023-01-04T13:46:24.079Z</time>
      </trkpt>
      <trkpt lat="43.31318" lon="1.94471">
        <ele>220.673857</ele>
        <time>2023-01-04T13:46:27.152Z</time>
      </trkpt>
      <trkpt lat="43.31308" lon="1.94483">
        <ele>220.661762</ele>
        <time>2023-01-04T13:46:30.103Z</time>
      </trkpt>
      <trkpt lat="43.31299" lon="1.94496">
        <ele>220.649597</ele>
        <time>2023-01-04T13:46:33.120Z</time>
      </trkpt>
      <trkpt lat="43.31291" lon="1.9451">
        <ele>220.637601</ele>
        <time>2023-01-04T13:46:36.109Z</time>
      </trkpt>
      <trkpt lat="43.31286" lon="1.94527">
        <ele>220.625912</ele>
        <time>2023-01-04T13:46:39.113Z</time>
      </trkpt>
      <trkpt lat="43.31281" lon="1.94543">
        <ele>220.614424</ele>
        <time>2023-01-04T13:46:42.111Z</time>
      </trkpt>
      <trkpt lat="43.31278" lon="1.94558">
        <ele>220.603883</ele>
        <time>2023-01-04T13:46:45.111Z</time>
      </trkpt>
      <trkpt lat="43.31276" lon="1.94573">
        <ele>220.587469</ele>
        <time>2023-01-04T13:46:48.111Z</time>
      </trkpt>
      <trkpt lat="43.31273" lon="1.94586">
        <ele>220.382349</ele>
        <time>2023-01-04T13:46:51.108Z</time>
      </trkpt>
      <trkpt lat="43.31271" lon="1.94599">
        <ele>220.18609</ele>
        <time>2023-01-04T13:46:54.087Z</time>
      </trkpt>
      <trkpt lat="43.31269" lon="1.94613">
        <ele>219.972298</ele>
        <time>2023-01-04T13:46:57.109Z</time>
      </trkpt>
      <trkpt lat="43.31269" lon="1.94626">
        <ele>219.779989</ele>
        <time>2023-01-04T13:47:00.097Z</time>
      </trkpt>
      <trkpt lat="43.3127" lon="1.9464">
        <ele>219.559477</ele>
        <time>2023-01-04T13:47:04.085Z</time>
      </trkpt>
      <trkpt lat="43.31271" lon="1.94652">
        <ele>219.388463</ele>
        <time>2023-01-04T13:48:42.408Z</time>
      </trkpt>
      <trkpt lat="43.31262" lon="1.94651">
        <ele>219.19417</ele>
        <time>2023-01-04T13:50:20.087Z</time>
      </trkpt>
      <trkpt lat="43.31254" lon="1.94639">
        <ele>218.955474</ele>
        <time>2023-01-04T13:50:33.094Z</time>
      </trkpt>
      <trkpt lat="43.31248" lon="1.9463">
        <ele>218.757055</ele>
        <time>2023-01-04T13:50:36.113Z</time>
      </trkpt>
      <trkpt lat="43.3124" lon="1.94619">
        <ele>218.532766</ele>
        <time>2023-01-04T13:50:39.110Z</time>
      </trkpt>
      <trkpt lat="43.31233" lon="1.94606">
        <ele>218.292156</ele>
        <time>2023-01-04T13:50:42.093Z</time>
      </trkpt>
      <trkpt lat="43.31225" lon="1.94594">
        <ele>218.036812</ele>
        <time>2023-01-04T13:50:45.099Z</time>
      </trkpt>
      <trkpt lat="43.31216" lon="1.9458">
        <ele>217.773361</ele>
        <time>2023-01-04T13:50:48.104Z</time>
      </trkpt>
      <trkpt lat="43.31207" lon="1.94567">
        <ele>217.497687</ele>
        <time>2023-01-04T13:50:51.082Z</time>
      </trkpt>
      <trkpt lat="43.31197" lon="1.94555">
        <ele>217.222082</ele>
        <time>2023-01-04T13:50:54.109Z</time>
      </trkpt>
      <trkpt lat="43.31186" lon="1.94545">
        <ele>216.950661</ele>
        <time>2023-01-04T13:50:57.106Z</time>
      </trkpt>
      <trkpt lat="43.31177" lon="1.9454">
        <ele>216.666522</ele>
        <time>2023-01-04T13:50:59.087Z</time>
      </trkpt>
      <trkpt lat="43.31168" lon="1.94535">
        <ele>216.309257</ele>
        <time>2023-01-04T13:51:01.089Z</time>
      </trkpt>
      <trkpt lat="43.31157" lon="1.94531">
        <ele>215.931987</ele>
        <time>2023-01-04T13:51:03.110Z</time>
      </trkpt>
      <trkpt lat="43.31146" lon="1.94526">
        <ele>215.535554</ele>
        <time>2023-01-04T13:51:05.088Z</time>
      </trkpt>
      <trkpt lat="43.31134" lon="1.94521">
        <ele>215.102223</ele>
        <time>2023-01-04T13:51:07.103Z</time>
      </trkpt>
      <trkpt lat="43.31122" lon="1.94515">
        <ele>214.65927</ele>
        <time>2023-01-04T13:51:09.085Z</time>
      </trkpt>
      <trkpt lat="43.3111" lon="1.9451">
        <ele>214.222159</ele>
        <time>2023-01-04T13:51:11.097Z</time>
      </trkpt>
      <trkpt lat="43.311" lon="1.94506">
        <ele>213.859144</ele>
        <time>2023-01-04T13:51:13.106Z</time>
      </trkpt>
      <trkpt lat="43.31089" lon="1.94499">
        <ele>213.461713</ele>
        <time>2023-01-04T13:51:15.101Z</time>
      </trkpt>
      <trkpt lat="43.3108" lon="1.9449">
        <ele>213.070663</ele>
        <time>2023-01-04T13:51:17.093Z</time>
      </trkpt>
      <trkpt lat="43.3107" lon="1.9448">
        <ele>212.63344</ele>
        <time>2023-01-04T13:51:19.090Z</time>
      </trkpt>
      <trkpt lat="43.3106" lon="1.94467">
        <ele>212.168587</ele>
        <time>2023-01-04T13:51:21.087Z</time>
      </trkpt>
      <trkpt lat="43.31051" lon="1.94454">
        <ele>211.710814</ele>
        <time>2023-01-04T13:51:23.083Z</time>
      </trkpt>
      <trkpt lat="43.31044" lon="1.94439">
        <ele>211.27379</ele>
        <time>2023-01-04T13:51:25.099Z</time>
      </trkpt>
      <trkpt lat="43.31039" lon="1.94426">
        <ele>210.880452</ele>
        <time>2023-01-04T13:51:27.099Z</time>
      </trkpt>
      <trkpt lat="43.31034" lon="1.94414">
        <ele>210.637414</ele>
        <time>2023-01-04T13:51:29.086Z</time>
      </trkpt>
      <trkpt lat="43.31029" lon="1.94402">
        <ele>210.546873</ele>
        <time>2023-01-04T13:51:31.110Z</time>
      </trkpt>
      <trkpt lat="43.31022" lon="1.94388">
        <ele>210.429502</ele>
        <time>2023-01-04T13:51:34.099Z</time>
      </trkpt>
      <trkpt lat="43.31017" lon="1.94375">
        <ele>210.334704</ele>
        <time>2023-01-04T13:51:37.078Z</time>
      </trkpt>
      <trkpt lat="43.31013" lon="1.94361">
        <ele>210.225793</ele>
        <time>2023-01-04T13:51:40.112Z</time>
      </trkpt>
      <trkpt lat="43.31009" lon="1.94346">
        <ele>210.12375</ele>
        <time>2023-01-04T13:51:43.100Z</time>
      </trkpt>
      <trkpt lat="43.31005" lon="1.94334">
        <ele>210.03302</ele>
        <time>2023-01-04T13:51:46.083Z</time>
      </trkpt>
      <trkpt lat="43.30996" lon="1.94333">
        <ele>209.94824</ele>
        <time>2023-01-04T13:51:49.090Z</time>
      </trkpt>
      <trkpt lat="43.30991" lon="1.94347">
        <ele>209.841847</ele>
        <time>2023-01-04T13:51:52.092Z</time>
      </trkpt>
      <trkpt lat="43.30986" lon="1.94363">
        <ele>209.72322</ele>
        <time>2023-01-04T13:51:55.099Z</time>
      </trkpt>
      <trkpt lat="43.30981" lon="1.94374">
        <ele>209.632705</ele>
        <time>2023-01-04T13:51:57.097Z</time>
      </trkpt>
      <trkpt lat="43.30976" lon="1.94385">
        <ele>209.546516</ele>
        <time>2023-01-04T13:51:59.108Z</time>
      </trkpt>
      <trkpt lat="43.30973" lon="1.94397">
        <ele>209.456863</ele>
        <time>2023-01-04T13:52:01.086Z</time>
      </trkpt>
      <trkpt lat="43.30968" lon="1.94409">
        <ele>209.369765</ele>
        <time>2023-01-04T13:52:03.103Z</time>
      </trkpt>
      <trkpt lat="43.30962" lon="1.94421">
        <ele>209.268799</ele>
        <time>2023-01-04T13:52:06.094Z</time>
      </trkpt>
      <trkpt lat="43.30959" lon="1.94437">
        <ele>209.155411</ele>
        <time>2023-01-04T13:52:09.088Z</time>
      </trkpt>
      <trkpt lat="43.30956" lon="1.9445">
        <ele>209.067064</ele>
        <time>2023-01-04T13:52:11.091Z</time>
      </trkpt>
      <trkpt lat="43.30953" lon="1.94463">
        <ele>208.969999</ele>
        <time>2023-01-04T13:52:13.100Z</time>
      </trkpt>
      <trkpt lat="43.3095" lon="1.94476">
        <ele>208.859073</ele>
        <time>2023-01-04T13:52:15.113Z</time>
      </trkpt>
      <trkpt lat="43.30947" lon="1.94489">
        <ele>208.748845</ele>
        <time>2023-01-04T13:52:17.114Z</time>
      </trkpt>
      <trkpt lat="43.30943" lon="1.94503">
        <ele>208.636411</ele>
        <time>2023-01-04T13:52:19.104Z</time>
      </trkpt>
      <trkpt lat="43.30939" lon="1.94516">
        <ele>208.528813</ele>
        <time>2023-01-04T13:52:21.101Z</time>
      </trkpt>
      <trkpt lat="43.30936" lon="1.94529">
        <ele>208.418573</ele>
        <time>2023-01-04T13:52:23.091Z</time>
      </trkpt>
      <trkpt lat="43.30932" lon="1.94541">
        <ele>208.308233</ele>
        <time>2023-01-04T13:52:25.120Z</time>
      </trkpt>
      <trkpt lat="43.30928" lon="1.94554">
        <ele>208.203502</ele>
        <time>2023-01-04T13:52:27.107Z</time>
      </trkpt>
      <trkpt lat="43.30924" lon="1.94567">
        <ele>208.093262</ele>
        <time>2023-01-04T13:52:29.093Z</time>
      </trkpt>
      <trkpt lat="43.3092" lon="1.9458">
        <ele>207.980828</ele>
        <time>2023-01-04T13:52:31.117Z</time>
      </trkpt>
      <trkpt lat="43.30916" lon="1.94593">
        <ele>207.865146</ele>
        <time>2023-01-04T13:52:33.109Z</time>
      </trkpt>
      <trkpt lat="43.30912" lon="1.94608">
        <ele>207.745665</ele>
        <time>2023-01-04T13:52:35.112Z</time>
      </trkpt>
      <trkpt lat="43.30908" lon="1.94621">
        <ele>207.630295</ele>
        <time>2023-01-04T13:52:37.105Z</time>
      </trkpt>
      <trkpt lat="43.30904" lon="1.94635">
        <ele>207.510082</ele>
        <time>2023-01-04T13:52:39.104Z</time>
      </trkpt>
      <trkpt lat="43.309" lon="1.9465">
        <ele>207.385413</ele>
        <time>2023-01-04T13:52:41.103Z</time>
      </trkpt>
      <trkpt lat="43.30895" lon="1.94664">
        <ele>207.26873</ele>
        <time>2023-01-04T13:52:43.111Z</time>
      </trkpt>
      <trkpt lat="43.30892" lon="1.94677">
        <ele>207.157759</ele>
        <time>2023-01-04T13:52:45.108Z</time>
      </trkpt>
      <trkpt lat="43.30888" lon="1.9469">
        <ele>207.0645</ele>
        <time>2023-01-04T13:52:47.101Z</time>
      </trkpt>
      <trkpt lat="43.30884" lon="1.94705">
        <ele>207.223631</ele>
        <time>2023-01-04T13:52:49.109Z</time>
      </trkpt>
      <trkpt lat="43.3088" lon="1.94718">
        <ele>207.379203</ele>
        <time>2023-01-04T13:52:51.099Z</time>
      </trkpt>
      <trkpt lat="43.30876" lon="1.94732">
        <ele>207.534555</ele>
        <time>2023-01-04T13:52:53.109Z</time>
      </trkpt>
      <trkpt lat="43.30872" lon="1.94745">
        <ele>207.686441</ele>
        <time>2023-01-04T13:52:55.111Z</time>
      </trkpt>
      <trkpt lat="43.30868" lon="1.94757">
        <ele>207.817245</ele>
        <time>2023-01-04T13:52:57.103Z</time>
      </trkpt>
      <trkpt lat="43.30863" lon="1.94773">
        <ele>208.004957</ele>
        <time>2023-01-04T13:53:00.095Z</time>
      </trkpt>
      <trkpt lat="43.30856" lon="1.94787">
        <ele>208.183291</ele>
        <time>2023-01-04T13:53:03.094Z</time>
      </trkpt>
      <trkpt lat="43.30846" lon="1.94795">
        <ele>208.35012</ele>
        <time>2023-01-04T13:53:06.087Z</time>
      </trkpt>
      <trkpt lat="43.30835" lon="1.94797">
        <ele>208.518602</ele>
        <time>2023-01-04T13:53:09.091Z</time>
      </trkpt>
      <trkpt lat="43.30827" lon="1.94803">
        <ele>208.650257</ele>
        <time>2023-01-04T13:53:12.090Z</time>
      </trkpt>
      <trkpt lat="43.30821" lon="1.94814">
        <ele>208.795505</ele>
        <time>2023-01-04T13:53:16.093Z</time>
      </trkpt>
      <trkpt lat="43.30824" lon="1.94829">
        <ele>208.954224</ele>
        <time>2023-01-04T13:53:21.089Z</time>
      </trkpt>
      <trkpt lat="43.30826" lon="1.94845">
        <ele>209.12991</ele>
        <time>2023-01-04T13:53:25.091Z</time>
      </trkpt>
      <trkpt lat="43.30828" lon="1.9486">
        <ele>209.28181</ele>
        <time>2023-01-04T13:53:28.111Z</time>
      </trkpt>
      <trkpt lat="43.30826" lon="1.94875">
        <ele>209.449194</ele>
        <time>2023-01-04T13:53:31.092Z</time>
      </trkpt>
      <trkpt lat="43.30821" lon="1.9489">
        <ele>209.622083</ele>
        <time>2023-01-04T13:53:34.091Z</time>
      </trkpt>
      <trkpt lat="43.30815" lon="1.94906">
        <ele>209.698197</ele>
        <time>2023-01-04T13:53:37.098Z</time>
      </trkpt>
      <trkpt lat="43.3081" lon="1.94922">
        <ele>209.756907</ele>
        <time>2023-01-04T13:53:40.103Z</time>
      </trkpt>
      <trkpt lat="43.30804" lon="1.94939">
        <ele>209.815323</ele>
        <time>2023-01-04T13:53:43.099Z</time>
      </trkpt>
      <trkpt lat="43.30799" lon="1.94954">
        <ele>209.870452</ele>
        <time>2023-01-04T13:53:46.101Z</time>
      </trkpt>
      <trkpt lat="43.30794" lon="1.94969">
        <ele>209.924034</ele>
        <time>2023-01-04T13:53:49.098Z</time>
      </trkpt>
      <trkpt lat="43.30789" lon="1.94983">
        <ele>209.973906</ele>
        <time>2023-01-04T13:53:52.098Z</time>
      </trkpt>
      <trkpt lat="43.30783" lon="1.94995">
        <ele>210.019252</ele>
        <time>2023-01-04T13:53:55.081Z</time>
      </trkpt>
      <trkpt lat="43.30778" lon="1.95007">
        <ele>210.066261</ele>
        <time>2023-01-04T13:53:58.085Z</time>
      </trkpt>
      <trkpt lat="43.30771" lon="1.9502">
        <ele>210.119465</ele>
        <time>2023-01-04T13:54:01.110Z</time>
      </trkpt>
      <trkpt lat="43.30762" lon="1.95033">
        <ele>210.173897</ele>
        <time>2023-01-04T13:54:04.092Z</time>
      </trkpt>
      <trkpt lat="43.30754" lon="1.95045">
        <ele>210.229579</ele>
        <time>2023-01-04T13:54:07.111Z</time>
      </trkpt>
      <trkpt lat="43.30745" lon="1.95057">
        <ele>210.28402</ele>
        <time>2023-01-04T13:54:10.087Z</time>
      </trkpt>
      <trkpt lat="43.30737" lon="1.95069">
        <ele>210.335145</ele>
        <time>2023-01-04T13:54:13.104Z</time>
      </trkpt>
      <trkpt lat="43.3073" lon="1.95082">
        <ele>210.38838</ele>
        <time>2023-01-04T13:54:16.112Z</time>
      </trkpt>
      <trkpt lat="43.30723" lon="1.95093">
        <ele>210.437161</ele>
        <time>2023-01-04T13:54:19.102Z</time>
      </trkpt>
      <trkpt lat="43.30716" lon="1.95105">
        <ele>210.334869</ele>
        <time>2023-01-04T13:54:22.109Z</time>
      </trkpt>
      <trkpt lat="43.30711" lon="1.95115">
        <ele>210.202919</ele>
        <time>2023-01-04T13:54:24.088Z</time>
      </trkpt>
      <trkpt lat="43.30706" lon="1.95127">
        <ele>210.065516</ele>
        <time>2023-01-04T13:54:26.109Z</time>
      </trkpt>
      <trkpt lat="43.30702" lon="1.95139">
        <ele>209.925155</ele>
        <time>2023-01-04T13:54:28.104Z</time>
      </trkpt>
      <trkpt lat="43.30697" lon="1.95151">
        <ele>209.779092</ele>
        <time>2023-01-04T13:54:30.109Z</time>
      </trkpt>
      <trkpt lat="43.30691" lon="1.95164">
        <ele>209.623639</ele>
        <time>2023-01-04T13:54:32.103Z</time>
      </trkpt>
      <trkpt lat="43.30686" lon="1.95177">
        <ele>209.467268</ele>
        <time>2023-01-04T13:54:34.105Z</time>
      </trkpt>
      <trkpt lat="43.30681" lon="1.9519">
        <ele>209.308381</ele>
        <time>2023-01-04T13:54:36.102Z</time>
      </trkpt>
      <trkpt lat="43.30678" lon="1.95203">
        <ele>209.166985</ele>
        <time>2023-01-04T13:54:38.090Z</time>
      </trkpt>
      <trkpt lat="43.30673" lon="1.95216">
        <ele>209.013775</ele>
        <time>2023-01-04T13:54:40.087Z</time>
      </trkpt>
      <trkpt lat="43.30668" lon="1.95229">
        <ele>208.86559</ele>
        <time>2023-01-04T13:54:42.085Z</time>
      </trkpt>
      <trkpt lat="43.30664" lon="1.95242">
        <ele>208.71393</ele>
        <time>2023-01-04T13:54:44.099Z</time>
      </trkpt>
      <trkpt lat="43.3066" lon="1.95256">
        <ele>208.559772</ele>
        <time>2023-01-04T13:54:46.112Z</time>
      </trkpt>
      <trkpt lat="43.30655" lon="1.95268">
        <ele>208.414096</ele>
        <time>2023-01-04T13:54:48.104Z</time>
      </trkpt>
      <trkpt lat="43.30651" lon="1.95281">
        <ele>208.263028</ele>
        <time>2023-01-04T13:54:50.109Z</time>
      </trkpt>
      <trkpt lat="43.30646" lon="1.95294">
        <ele>208.117042</ele>
        <time>2023-01-04T13:54:52.114Z</time>
      </trkpt>
      <trkpt lat="43.30642" lon="1.95307">
        <ele>207.969607</ele>
        <time>2023-01-04T13:54:54.106Z</time>
      </trkpt>
      <trkpt lat="43.30637" lon="1.95321">
        <ele>207.851417</ele>
        <time>2023-01-04T13:54:57.101Z</time>
      </trkpt>
      <trkpt lat="43.30631" lon="1.95331">
        <ele>207.812928</ele>
        <time>2023-01-04T13:55:00.103Z</time>
      </trkpt>
      <trkpt lat="43.30628" lon="1.95346">
        <ele>207.766345</ele>
        <time>2023-01-04T13:55:04.101Z</time>
      </trkpt>
      <trkpt lat="43.30624" lon="1.9536">
        <ele>207.721176</ele>
        <time>2023-01-04T13:55:07.097Z</time>
      </trkpt>
      <trkpt lat="43.30619" lon="1.95371">
        <ele>207.684711</ele>
        <time>2023-01-04T13:55:09.089Z</time>
      </trkpt>
      <trkpt lat="43.30615" lon="1.95382">
        <ele>207.645969</ele>
        <time>2023-01-04T13:55:11.102Z</time>
      </trkpt>
      <trkpt lat="43.30611" lon="1.95395">
        <ele>207.604235</ele>
        <time>2023-01-04T13:55:13.101Z</time>
      </trkpt>
      <trkpt lat="43.30607" lon="1.95407">
        <ele>207.563881</ele>
        <time>2023-01-04T13:55:15.087Z</time>
      </trkpt>
      <trkpt lat="43.30602" lon="1.9542">
        <ele>207.521436</ele>
        <time>2023-01-04T13:55:17.084Z</time>
      </trkpt>
      <trkpt lat="43.30598" lon="1.95433">
        <ele>207.479606</ele>
        <time>2023-01-04T13:55:19.099Z</time>
      </trkpt>
      <trkpt lat="43.30593" lon="1.95447">
        <ele>207.432171</ele>
        <time>2023-01-04T13:55:21.114Z</time>
      </trkpt>
      <trkpt lat="43.30589" lon="1.95461">
        <ele>207.388336</ele>
        <time>2023-01-04T13:55:23.104Z</time>
      </trkpt>
      <trkpt lat="43.30585" lon="1.95474">
        <ele>207.346841</ele>
        <time>2023-01-04T13:55:25.107Z</time>
      </trkpt>
      <trkpt lat="43.3058" lon="1.95487">
        <ele>207.303322</ele>
        <time>2023-01-04T13:55:27.079Z</time>
      </trkpt>
      <trkpt lat="43.30576" lon="1.955">
        <ele>207.260782</ele>
        <time>2023-01-04T13:55:29.105Z</time>
      </trkpt>
      <trkpt lat="43.30571" lon="1.95512">
        <ele>207.219824</ele>
        <time>2023-01-04T13:55:31.106Z</time>
      </trkpt>
      <trkpt lat="43.30567" lon="1.95524">
        <ele>207.181462</ele>
        <time>2023-01-04T13:55:33.099Z</time>
      </trkpt>
      <trkpt lat="43.30562" lon="1.95539">
        <ele>207.134276</ele>
        <time>2023-01-04T13:55:36.106Z</time>
      </trkpt>
      <trkpt lat="43.30557" lon="1.95552">
        <ele>207.118787</ele>
        <time>2023-01-04T13:55:39.101Z</time>
      </trkpt>
      <trkpt lat="43.30554" lon="1.95567">
        <ele>207.102509</ele>
        <time>2023-01-04T13:55:42.097Z</time>
      </trkpt>
      <trkpt lat="43.30551" lon="1.95582">
        <ele>207.085981</ele>
        <time>2023-01-04T13:55:45.104Z</time>
      </trkpt>
      <trkpt lat="43.30546" lon="1.95598">
        <ele>207.0672</ele>
        <time>2023-01-04T13:55:48.100Z</time>
      </trkpt>
      <trkpt lat="43.30542" lon="1.95609">
        <ele>207.054037</ele>
        <time>2023-01-04T13:55:50.110Z</time>
      </trkpt>
      <trkpt lat="43.30538" lon="1.95622">
        <ele>207.040177</ele>
        <time>2023-01-04T13:55:52.097Z</time>
      </trkpt>
      <trkpt lat="43.30534" lon="1.95632">
        <ele>207.026962</ele>
        <time>2023-01-04T13:55:54.111Z</time>
      </trkpt>
      <trkpt lat="43.30528" lon="1.95648">
        <ele>207.008192</ele>
        <time>2023-01-04T13:55:57.089Z</time>
      </trkpt>
      <trkpt lat="43.30521" lon="1.9566">
        <ele>206.992136</ele>
        <time>2023-01-04T13:56:00.110Z</time>
      </trkpt>
      <trkpt lat="43.30514" lon="1.95669">
        <ele>206.977904</ele>
        <time>2023-01-04T13:56:04.109Z</time>
      </trkpt>
      <trkpt lat="43.30504" lon="1.95674">
        <ele>206.962497</ele>
        <time>2023-01-04T13:56:38.117Z</time>
      </trkpt>
      <trkpt lat="43.30493" lon="1.95671">
        <ele>206.94656</ele>
        <time>2023-01-04T13:56:42.082Z</time>
      </trkpt>
      <trkpt lat="43.30482" lon="1.95667">
        <ele>206.930242</ele>
        <time>2023-01-04T13:56:45.084Z</time>
      </trkpt>
      <trkpt lat="43.3047" lon="1.95663">
        <ele>206.912395</ele>
        <time>2023-01-04T13:56:48.082Z</time>
      </trkpt>
      <trkpt lat="43.30458" lon="1.95658">
        <ele>206.893412</ele>
        <time>2023-01-04T13:56:51.087Z</time>
      </trkpt>
      <trkpt lat="43.30449" lon="1.95655">
        <ele>206.880343</ele>
        <time>2023-01-04T13:56:53.088Z</time>
      </trkpt>
      <trkpt lat="43.30436" lon="1.95651">
        <ele>206.912768</ele>
        <time>2023-01-04T13:56:56.093Z</time>
      </trkpt>
      <trkpt lat="43.30427" lon="1.95648">
        <ele>206.953977</ele>
        <time>2023-01-04T13:56:58.089Z</time>
      </trkpt>
      <trkpt lat="43.30418" lon="1.95644">
        <ele>206.996421</ele>
        <time>2023-01-04T13:57:00.101Z</time>
      </trkpt>
      <trkpt lat="43.30404" lon="1.9564">
        <ele>207.05569</ele>
        <time>2023-01-04T13:57:03.100Z</time>
      </trkpt>
      <trkpt lat="43.30395" lon="1.95636">
        <ele>207.096402</ele>
        <time>2023-01-04T13:57:05.094Z</time>
      </trkpt>
      <trkpt lat="43.30383" lon="1.95632">
        <ele>207.150449</ele>
        <time>2023-01-04T13:57:08.092Z</time>
      </trkpt>
      <trkpt lat="43.30372" lon="1.95628">
        <ele>207.202149</ele>
        <time>2023-01-04T13:57:11.115Z</time>
      </trkpt>
      <trkpt lat="43.30361" lon="1.95624">
        <ele>207.250897</ele>
        <time>2023-01-04T13:57:14.096Z</time>
      </trkpt>
      <trkpt lat="43.30352" lon="1.95621">
        <ele>207.291156</ele>
        <time>2023-01-04T13:57:17.113Z</time>
      </trkpt>
      <trkpt lat="43.30344" lon="1.95617">
        <ele>207.330576</ele>
        <time>2023-01-04T13:57:26.092Z</time>
      </trkpt>
      <trkpt lat="43.30332" lon="1.95614">
        <ele>207.38283</ele>
        <time>2023-01-04T13:57:30.085Z</time>
      </trkpt>
      <trkpt lat="43.3032" lon="1.9561">
        <ele>207.434378</ele>
        <time>2023-01-04T13:57:33.095Z</time>
      </trkpt>
      <trkpt lat="43.30307" lon="1.95605">
        <ele>207.493631</ele>
        <time>2023-01-04T13:57:36.093Z</time>
      </trkpt>
      <trkpt lat="43.30298" lon="1.95602">
        <ele>207.53626</ele>
        <time>2023-01-04T13:57:38.118Z</time>
      </trkpt>
      <trkpt lat="43.30288" lon="1.95598">
        <ele>207.578201</ele>
        <time>2023-01-04T13:57:40.091Z</time>
      </trkpt>
      <trkpt lat="43.30279" lon="1.95594">
        <ele>207.622525</ele>
        <time>2023-01-04T13:57:42.094Z</time>
      </trkpt>
      <trkpt lat="43.30268" lon="1.9559">
        <ele>207.636245</ele>
        <time>2023-01-04T13:57:44.088Z</time>
      </trkpt>
      <trkpt lat="43.30258" lon="1.95586">
        <ele>207.550909</ele>
        <time>2023-01-04T13:57:46.088Z</time>
      </trkpt>
      <trkpt lat="43.30248" lon="1.95581">
        <ele>207.46546</ele>
        <time>2023-01-04T13:57:48.086Z</time>
      </trkpt>
      <trkpt lat="43.30239" lon="1.95577">
        <ele>207.383566</ele>
        <time>2023-01-04T13:57:50.086Z</time>
      </trkpt>
      <trkpt lat="43.30228" lon="1.95574">
        <ele>207.298868</ele>
        <time>2023-01-04T13:57:52.089Z</time>
      </trkpt>
      <trkpt lat="43.30218" lon="1.95569">
        <ele>207.207845</ele>
        <time>2023-01-04T13:57:54.092Z</time>
      </trkpt>
      <trkpt lat="43.30207" lon="1.95566">
        <ele>207.119114</ele>
        <time>2023-01-04T13:57:56.087Z</time>
      </trkpt>
      <trkpt lat="43.30196" lon="1.95562">
        <ele>207.030043</ele>
        <time>2023-01-04T13:57:58.092Z</time>
      </trkpt>
      <trkpt lat="43.30186" lon="1.95558">
        <ele>206.942209</ele>
        <time>2023-01-04T13:58:00.104Z</time>
      </trkpt>
      <trkpt lat="43.30175" lon="1.95555">
        <ele>206.85466</ele>
        <time>2023-01-04T13:58:02.091Z</time>
      </trkpt>
      <trkpt lat="43.30165" lon="1.95551">
        <ele>206.76975</ele>
        <time>2023-01-04T13:58:04.104Z</time>
      </trkpt>
      <trkpt lat="43.30156" lon="1.95547">
        <ele>206.691908</ele>
        <time>2023-01-04T13:58:06.093Z</time>
      </trkpt>
      <trkpt lat="43.30144" lon="1.95542">
        <ele>206.586914</ele>
        <time>2023-01-04T13:58:09.092Z</time>
      </trkpt>
      <trkpt lat="43.30137" lon="1.95532">
        <ele>206.506505</ele>
        <time>2023-01-04T13:58:12.101Z</time>
      </trkpt>
      <trkpt lat="43.30132" lon="1.95518">
        <ele>206.415051</ele>
        <time>2023-01-04T13:58:15.091Z</time>
      </trkpt>
      <trkpt lat="43.30125" lon="1.95504">
        <ele>206.316317</ele>
        <time>2023-01-04T13:58:18.090Z</time>
      </trkpt>
      <trkpt lat="43.30115" lon="1.95494">
        <ele>206.213784</ele>
        <time>2023-01-04T13:58:21.089Z</time>
      </trkpt>
      <trkpt lat="43.30102" lon="1.9549">
        <ele>206.162123</ele>
        <time>2023-01-04T13:58:24.114Z</time>
      </trkpt>
      <trkpt lat="43.30089" lon="1.95491">
        <ele>206.118054</ele>
        <time>2023-01-04T13:58:27.089Z</time>
      </trkpt>
      <trkpt lat="43.30081" lon="1.95496">
        <ele>206.088027</ele>
        <time>2023-01-04T13:58:29.088Z</time>
      </trkpt>
      <trkpt lat="43.30072" lon="1.95501">
        <ele>206.057595</ele>
        <time>2023-01-04T13:58:31.099Z</time>
      </trkpt>
      <trkpt lat="43.30065" lon="1.95509">
        <ele>206.025949</ele>
        <time>2023-01-04T13:58:33.124Z</time>
      </trkpt>
      <trkpt lat="43.30057" lon="1.95523">
        <ele>205.983351</ele>
        <time>2023-01-04T13:58:36.123Z</time>
      </trkpt>
      <trkpt lat="43.30052" lon="1.95537">
        <ele>205.943979</ele>
        <time>2023-01-04T13:58:39.104Z</time>
      </trkpt>
      <trkpt lat="43.30045" lon="1.95549">
        <ele>205.906431</ele>
        <time>2023-01-04T13:58:43.086Z</time>
      </trkpt>
      <trkpt lat="43.30035" lon="1.95556">
        <ele>205.870938</ele>
        <time>2023-01-04T13:58:47.093Z</time>
      </trkpt>
      <trkpt lat="43.30031" lon="1.95569">
        <ele>205.835987</ele>
        <time>2023-01-04T13:58:51.089Z</time>
      </trkpt>
      <trkpt lat="43.30027" lon="1.95582">
        <ele>205.802166</ele>
        <time>2023-01-04T13:58:55.090Z</time>
      </trkpt>
      <trkpt lat="43.30018" lon="1.95591">
        <ele>205.765836</ele>
        <time>2023-01-04T13:58:59.089Z</time>
      </trkpt>
      <trkpt lat="43.30011" lon="1.95599">
        <ele>205.735654</ele>
        <time>2023-01-04T13:59:02.090Z</time>
      </trkpt>
      <trkpt lat="43.3" lon="1.95602">
        <ele>205.698705</ele>
        <time>2023-01-04T13:59:06.091Z</time>
      </trkpt>
      <trkpt lat="43.29991" lon="1.95592">
        <ele>205.659606</ele>
        <time>2023-01-04T13:59:10.097Z</time>
      </trkpt>
      <trkpt lat="43.29983" lon="1.95583">
        <ele>205.625493</ele>
        <time>2023-01-04T13:59:13.092Z</time>
      </trkpt>
      <trkpt lat="43.29979" lon="1.95571">
        <ele>205.645217</ele>
        <time>2023-01-04T13:59:16.085Z</time>
      </trkpt>
      <trkpt lat="43.29978" lon="1.95556">
        <ele>205.874953</ele>
        <time>2023-01-04T13:59:20.098Z</time>
      </trkpt>
      <trkpt lat="43.29975" lon="1.95542">
        <ele>206.102616</ele>
        <time>2023-01-04T13:59:24.108Z</time>
      </trkpt>
      <trkpt lat="43.29973" lon="1.95527">
        <ele>206.353593</ele>
        <time>2023-01-04T13:59:28.096Z</time>
      </trkpt>
      <trkpt lat="43.29974" lon="1.95511">
        <ele>206.596246</ele>
        <time>2023-01-04T13:59:32.097Z</time>
      </trkpt>
      <trkpt lat="43.29984" lon="1.95508">
        <ele>206.81252</ele>
        <time>2023-01-04T13:59:36.091Z</time>
      </trkpt>
      <trkpt lat="43.29993" lon="1.95512">
        <ele>207.01575</ele>
        <time>2023-01-04T13:59:40.092Z</time>
      </trkpt>
      <trkpt lat="43.30002" lon="1.95516">
        <ele>207.214066</ele>
        <time>2023-01-04T13:59:44.092Z</time>
      </trkpt>
      <trkpt lat="43.30012" lon="1.95522">
        <ele>207.453461</ele>
        <time>2023-01-04T13:59:49.088Z</time>
      </trkpt>
      <trkpt lat="43.30021" lon="1.95528">
        <ele>207.683626</ele>
        <time>2023-01-04T13:59:54.093Z</time>
      </trkpt>
      <trkpt lat="43.30021" lon="1.9553">
        <ele>207.716494</ele>
        <time>2023-01-04T14:00:24.026Z</time>
      </trkpt>
      <trkpt lat="43.30089" lon="1.95448">
        <ele>209.305816</ele>
        <time>2023-01-04T14:42:34.107Z</time>
      </trkpt>
      <trkpt lat="43.30096" lon="1.95431">
        <ele>209.053828</ele>
        <time>2023-01-04T14:43:36.102Z</time>
      </trkpt>
      <trkpt lat="43.30104" lon="1.9542">
        <ele>208.847665</ele>
        <time>2023-01-04T14:43:41.094Z</time>
      </trkpt>
      <trkpt lat="43.30113" lon="1.9542">
        <ele>208.681398</ele>
        <time>2023-01-04T14:43:46.097Z</time>
      </trkpt>
      <trkpt lat="43.30114" lon="1.95435">
        <ele>208.485224</ele>
        <time>2023-01-04T14:43:50.122Z</time>
      </trkpt>
      <trkpt lat="43.30111" lon="1.95448">
        <ele>208.307504</ele>
        <time>2023-01-04T14:43:53.121Z</time>
      </trkpt>
      <trkpt lat="43.30108" lon="1.95463">
        <ele>208.106309</ele>
        <time>2023-01-04T14:43:57.093Z</time>
      </trkpt>
      <trkpt lat="43.30105" lon="1.95476">
        <ele>207.931273</ele>
        <time>2023-01-04T14:44:03.104Z</time>
      </trkpt>
      <trkpt lat="43.301" lon="1.95486">
        <ele>207.765322</ele>
        <time>2023-01-04T14:44:10.111Z</time>
      </trkpt>
      <trkpt lat="43.3009" lon="1.9549">
        <ele>207.577189</ele>
        <time>2023-01-04T14:44:19.101Z</time>
      </trkpt>
      <trkpt lat="43.30079" lon="1.95495">
        <ele>207.361929</ele>
        <time>2023-01-04T14:44:23.094Z</time>
      </trkpt>
      <trkpt lat="43.3007" lon="1.95502">
        <ele>207.172248</ele>
        <time>2023-01-04T14:44:26.120Z</time>
      </trkpt>
      <trkpt lat="43.30062" lon="1.95513">
        <ele>206.975363</ele>
        <time>2023-01-04T14:44:29.102Z</time>
      </trkpt>
      <trkpt lat="43.30057" lon="1.95526">
        <ele>206.775867</ele>
        <time>2023-01-04T14:44:32.104Z</time>
      </trkpt>
      <trkpt lat="43.30054" lon="1.95541">
        <ele>206.568024</ele>
        <time>2023-01-04T14:44:35.111Z</time>
      </trkpt>
      <trkpt lat="43.30055" lon="1.95556">
        <ele>206.370536</ele>
        <time>2023-01-04T14:44:38.095Z</time>
      </trkpt>
      <trkpt lat="43.30057" lon="1.9557">
        <ele>206.213764</ele>
        <time>2023-01-04T14:44:41.095Z</time>
      </trkpt>
      <trkpt lat="43.30061" lon="1.95582">
        <ele>206.183596</ele>
        <time>2023-01-04T14:44:44.097Z</time>
      </trkpt>
      <trkpt lat="43.3007" lon="1.95593">
        <ele>206.145507</ele>
        <time>2023-01-04T14:44:48.089Z</time>
      </trkpt>
      <trkpt lat="43.30079" lon="1.956">
        <ele>206.111624</ele>
        <time>2023-01-04T14:44:51.091Z</time>
      </trkpt>
      <trkpt lat="43.30089" lon="1.95607">
        <ele>206.075884</ele>
        <time>2023-01-04T14:44:54.090Z</time>
      </trkpt>
      <trkpt lat="43.30097" lon="1.95616">
        <ele>206.041381</ele>
        <time>2023-01-04T14:44:57.128Z</time>
      </trkpt>
      <trkpt lat="43.30103" lon="1.95627">
        <ele>206.008956</ele>
        <time>2023-01-04T14:45:00.093Z</time>
      </trkpt>
      <trkpt lat="43.30106" lon="1.95641">
        <ele>205.975094</ele>
        <time>2023-01-04T14:45:03.092Z</time>
      </trkpt>
      <trkpt lat="43.30109" lon="1.95657">
        <ele>205.936792</ele>
        <time>2023-01-04T14:45:06.101Z</time>
      </trkpt>
      <trkpt lat="43.30111" lon="1.95674">
        <ele>205.897288</ele>
        <time>2023-01-04T14:45:09.113Z</time>
      </trkpt>
      <trkpt lat="43.30114" lon="1.95691">
        <ele>205.856422</ele>
        <time>2023-01-04T14:45:12.139Z</time>
      </trkpt>
      <trkpt lat="43.30116" lon="1.95708">
        <ele>205.813884</ele>
        <time>2023-01-04T14:45:15.120Z</time>
      </trkpt>
      <trkpt lat="43.30118" lon="1.95721">
        <ele>205.784468</ele>
        <time>2023-01-04T14:45:17.102Z</time>
      </trkpt>
      <trkpt lat="43.3012" lon="1.95733">
        <ele>205.753839</ele>
        <time>2023-01-04T14:45:19.094Z</time>
      </trkpt>
      <trkpt lat="43.30122" lon="1.95751">
        <ele>205.711329</ele>
        <time>2023-01-04T14:45:22.098Z</time>
      </trkpt>
      <trkpt lat="43.30124" lon="1.95764">
        <ele>205.681975</ele>
        <time>2023-01-04T14:45:24.107Z</time>
      </trkpt>
      <trkpt lat="43.30126" lon="1.95777">
        <ele>205.650427</ele>
        <time>2023-01-04T14:45:26.090Z</time>
      </trkpt>
      <trkpt lat="43.30127" lon="1.9579">
        <ele>205.653483</ele>
        <time>2023-01-04T14:45:28.136Z</time>
      </trkpt>
      <trkpt lat="43.30129" lon="1.95804">
        <ele>205.67437</ele>
        <time>2023-01-04T14:45:30.092Z</time>
      </trkpt>
      <trkpt lat="43.30131" lon="1.95818">
        <ele>205.694048</ele>
        <time>2023-01-04T14:45:32.112Z</time>
      </trkpt>
      <trkpt lat="43.30132" lon="1.95832">
        <ele>205.714296</ele>
        <time>2023-01-04T14:45:34.120Z</time>
      </trkpt>
      <trkpt lat="43.30134" lon="1.95845">
        <ele>205.73391</ele>
        <time>2023-01-04T14:45:36.109Z</time>
      </trkpt>
      <trkpt lat="43.30135" lon="1.9586">
        <ele>205.755098</ele>
        <time>2023-01-04T14:45:38.114Z</time>
      </trkpt>
      <trkpt lat="43.30137" lon="1.95874">
        <ele>205.775856</ele>
        <time>2023-01-04T14:45:40.112Z</time>
      </trkpt>
      <trkpt lat="43.30138" lon="1.95888">
        <ele>205.796803</ele>
        <time>2023-01-04T14:45:42.088Z</time>
      </trkpt>
      <trkpt lat="43.30139" lon="1.95903">
        <ele>205.818994</ele>
        <time>2023-01-04T14:45:44.109Z</time>
      </trkpt>
      <trkpt lat="43.3014" lon="1.95918">
        <ele>205.840623</ele>
        <time>2023-01-04T14:45:46.115Z</time>
      </trkpt>
      <trkpt lat="43.3014" lon="1.95934">
        <ele>205.863639</ele>
        <time>2023-01-04T14:45:48.108Z</time>
      </trkpt>
      <trkpt lat="43.30141" lon="1.9595">
        <ele>205.886366</ele>
        <time>2023-01-04T14:45:50.099Z</time>
      </trkpt>
      <trkpt lat="43.3014" lon="1.95966">
        <ele>205.909516</ele>
        <time>2023-01-04T14:45:52.096Z</time>
      </trkpt>
      <trkpt lat="43.3014" lon="1.95982">
        <ele>205.932974</ele>
        <time>2023-01-04T14:45:54.112Z</time>
      </trkpt>
      <trkpt lat="43.30139" lon="1.95998">
        <ele>205.956512</ele>
        <time>2023-01-04T14:45:56.098Z</time>
      </trkpt>
      <trkpt lat="43.30137" lon="1.96015">
        <ele>205.98062</ele>
        <time>2023-01-04T14:45:58.090Z</time>
      </trkpt>
      <trkpt lat="43.30135" lon="1.96031">
        <ele>205.958267</ele>
        <time>2023-01-04T14:46:00.119Z</time>
      </trkpt>
      <trkpt lat="43.30133" lon="1.96047">
        <ele>205.821329</ele>
        <time>2023-01-04T14:46:02.107Z</time>
      </trkpt>
      <trkpt lat="43.30131" lon="1.96063">
        <ele>205.673645</ele>
        <time>2023-01-04T14:46:04.101Z</time>
      </trkpt>
      <trkpt lat="43.30128" lon="1.96079">
        <ele>205.528857</ele>
        <time>2023-01-04T14:46:06.098Z</time>
      </trkpt>
      <trkpt lat="43.30125" lon="1.96096">
        <ele>205.378154</ele>
        <time>2023-01-04T14:46:08.109Z</time>
      </trkpt>
      <trkpt lat="43.30123" lon="1.96113">
        <ele>205.226011</ele>
        <time>2023-01-04T14:46:10.108Z</time>
      </trkpt>
      <trkpt lat="43.3012" lon="1.9613">
        <ele>205.071637</ele>
        <time>2023-01-04T14:46:12.096Z</time>
      </trkpt>
      <trkpt lat="43.30117" lon="1.96148">
        <ele>204.917547</ele>
        <time>2023-01-04T14:46:14.096Z</time>
      </trkpt>
      <trkpt lat="43.30114" lon="1.96165">
        <ele>204.763147</ele>
        <time>2023-01-04T14:46:16.087Z</time>
      </trkpt>
      <trkpt lat="43.30111" lon="1.96182">
        <ele>204.612697</ele>
        <time>2023-01-04T14:46:18.094Z</time>
      </trkpt>
      <trkpt lat="43.30107" lon="1.96199">
        <ele>204.456888</ele>
        <time>2023-01-04T14:46:20.110Z</time>
      </trkpt>
      <trkpt lat="43.30104" lon="1.96216">
        <ele>204.303477</ele>
        <time>2023-01-04T14:46:22.109Z</time>
      </trkpt>
      <trkpt lat="43.301" lon="1.96234">
        <ele>204.142704</ele>
        <time>2023-01-04T14:46:24.119Z</time>
      </trkpt>
      <trkpt lat="43.30097" lon="1.9625">
        <ele>203.996476</ele>
        <time>2023-01-04T14:46:26.101Z</time>
      </trkpt>
      <trkpt lat="43.30094" lon="1.96267">
        <ele>203.844736</ele>
        <time>2023-01-04T14:46:28.102Z</time>
      </trkpt>
      <trkpt lat="43.3009" lon="1.96283">
        <ele>203.736472</ele>
        <time>2023-01-04T14:46:30.120Z</time>
      </trkpt>
      <trkpt lat="43.30087" lon="1.96301">
        <ele>203.618039</ele>
        <time>2023-01-04T14:46:32.118Z</time>
      </trkpt>
      <trkpt lat="43.30083" lon="1.96318">
        <ele>203.503992</ele>
        <time>2023-01-04T14:46:34.110Z</time>
      </trkpt>
      <trkpt lat="43.30079" lon="1.96335">
        <ele>203.384493</ele>
        <time>2023-01-04T14:46:36.092Z</time>
      </trkpt>
      <trkpt lat="43.30076" lon="1.96352">
        <ele>203.271822</ele>
        <time>2023-01-04T14:46:38.110Z</time>
      </trkpt>
      <trkpt lat="43.30073" lon="1.96369">
        <ele>203.15798</ele>
        <time>2023-01-04T14:46:40.089Z</time>
      </trkpt>
      <trkpt lat="43.30069" lon="1.96387">
        <ele>203.042044</ele>
        <time>2023-01-04T14:46:42.112Z</time>
      </trkpt>
      <trkpt lat="43.30066" lon="1.96404">
        <ele>202.929463</ele>
        <time>2023-01-04T14:46:44.097Z</time>
      </trkpt>
      <trkpt lat="43.30063" lon="1.96421">
        <ele>202.815168</ele>
        <time>2023-01-04T14:46:46.108Z</time>
      </trkpt>
      <trkpt lat="43.30059" lon="1.96438">
        <ele>202.696357</ele>
        <time>2023-01-04T14:46:48.097Z</time>
      </trkpt>
      <trkpt lat="43.30055" lon="1.96456">
        <ele>202.579225</ele>
        <time>2023-01-04T14:46:50.100Z</time>
      </trkpt>
      <trkpt lat="43.30051" lon="1.96473">
        <ele>202.460162</ele>
        <time>2023-01-04T14:46:52.105Z</time>
      </trkpt>
      <trkpt lat="43.30045" lon="1.9649">
        <ele>202.338791</ele>
        <time>2023-01-04T14:46:54.101Z</time>
      </trkpt>
      <trkpt lat="43.3004" lon="1.96507">
        <ele>202.244328</ele>
        <time>2023-01-04T14:46:56.109Z</time>
      </trkpt>
      <trkpt lat="43.30034" lon="1.96523">
        <ele>202.219626</ele>
        <time>2023-01-04T14:46:58.101Z</time>
      </trkpt>
      <trkpt lat="43.30029" lon="1.9654">
        <ele>202.194725</ele>
        <time>2023-01-04T14:47:00.099Z</time>
      </trkpt>
      <trkpt lat="43.30025" lon="1.96554">
        <ele>202.1734</ele>
        <time>2023-01-04T14:47:02.108Z</time>
      </trkpt>
      <trkpt lat="43.30021" lon="1.96568">
        <ele>202.153059</ele>
        <time>2023-01-04T14:47:04.096Z</time>
      </trkpt>
      <trkpt lat="43.30018" lon="1.96582">
        <ele>202.132971</ele>
        <time>2023-01-04T14:47:06.106Z</time>
      </trkpt>
      <trkpt lat="43.30015" lon="1.96594">
        <ele>202.115258</ele>
        <time>2023-01-04T14:47:08.111Z</time>
      </trkpt>
      <trkpt lat="43.30013" lon="1.96608">
        <ele>202.094606</ele>
        <time>2023-01-04T14:47:10.093Z</time>
      </trkpt>
      <trkpt lat="43.3001" lon="1.96623">
        <ele>202.073543</ele>
        <time>2023-01-04T14:47:12.090Z</time>
      </trkpt>
      <trkpt lat="43.30008" lon="1.96639">
        <ele>202.051973</ele>
        <time>2023-01-04T14:47:14.112Z</time>
      </trkpt>
      <trkpt lat="43.30007" lon="1.96654">
        <ele>202.030349</ele>
        <time>2023-01-04T14:47:16.095Z</time>
      </trkpt>
      <trkpt lat="43.30006" lon="1.9667">
        <ele>202.008018</ele>
        <time>2023-01-04T14:47:18.122Z</time>
      </trkpt>
      <trkpt lat="43.30005" lon="1.96686">
        <ele>201.986693</ele>
        <time>2023-01-04T14:47:20.123Z</time>
      </trkpt>
      <trkpt lat="43.30003" lon="1.96698">
        <ele>201.96934</ele>
        <time>2023-01-04T14:47:22.099Z</time>
      </trkpt>
      <trkpt lat="43.3" lon="1.96715">
        <ele>201.945639</ele>
        <time>2023-01-04T14:47:25.108Z</time>
      </trkpt>
      <trkpt lat="43.29992" lon="1.96726">
        <ele>201.922875</ele>
        <time>2023-01-04T14:47:28.107Z</time>
      </trkpt>
      <trkpt lat="43.29982" lon="1.96738">
        <ele>201.863373</ele>
        <time>2023-01-04T14:47:31.097Z</time>
      </trkpt>
      <trkpt lat="43.29979" lon="1.96756">
        <ele>201.75486</ele>
        <time>2023-01-04T14:47:34.123Z</time>
      </trkpt>
      <trkpt lat="43.29979" lon="1.96774">
        <ele>201.648322</ele>
        <time>2023-01-04T14:47:37.103Z</time>
      </trkpt>
      <trkpt lat="43.29983" lon="1.96785">
        <ele>201.573541</ele>
        <time>2023-01-04T14:47:39.104Z</time>
      </trkpt>
      <trkpt lat="43.29989" lon="1.96795">
        <ele>201.499625</ele>
        <time>2023-01-04T14:47:41.108Z</time>
      </trkpt>
      <trkpt lat="43.29996" lon="1.96803">
        <ele>201.425054</ele>
        <time>2023-01-04T14:47:43.111Z</time>
      </trkpt>
      <trkpt lat="43.30002" lon="1.96813">
        <ele>201.348174</ele>
        <time>2023-01-04T14:47:45.098Z</time>
      </trkpt>
      <trkpt lat="43.30006" lon="1.96825">
        <ele>201.268379</ele>
        <time>2023-01-04T14:47:47.122Z</time>
      </trkpt>
      <trkpt lat="43.30009" lon="1.96839">
        <ele>201.182027</ele>
        <time>2023-01-04T14:47:49.136Z</time>
      </trkpt>
      <trkpt lat="43.30014" lon="1.96853">
        <ele>201.093377</ele>
        <time>2023-01-04T14:47:51.114Z</time>
      </trkpt>
      <trkpt lat="43.30017" lon="1.96867">
        <ele>201.005067</ele>
        <time>2023-01-04T14:47:53.106Z</time>
      </trkpt>
      <trkpt lat="43.30022" lon="1.96881">
        <ele>200.91273</ele>
        <time>2023-01-04T14:47:55.124Z</time>
      </trkpt>
      <trkpt lat="43.30026" lon="1.96895">
        <ele>200.819949</ele>
        <time>2023-01-04T14:47:57.121Z</time>
      </trkpt>
      <trkpt lat="43.30029" lon="1.9691">
        <ele>200.727441</ele>
        <time>2023-01-04T14:47:59.109Z</time>
      </trkpt>
      <trkpt lat="43.30034" lon="1.96925">
        <ele>200.632145</ele>
        <time>2023-01-04T14:48:01.106Z</time>
      </trkpt>
      <trkpt lat="43.30037" lon="1.9694">
        <ele>200.537121</ele>
        <time>2023-01-04T14:48:03.097Z</time>
      </trkpt>
      <trkpt lat="43.30041" lon="1.96956">
        <ele>200.437737</ele>
        <time>2023-01-04T14:48:05.107Z</time>
      </trkpt>
      <trkpt lat="43.30045" lon="1.96972">
        <ele>200.344935</ele>
        <time>2023-01-04T14:48:07.113Z</time>
      </trkpt>
      <trkpt lat="43.3005" lon="1.96987">
        <ele>200.252394</ele>
        <time>2023-01-04T14:48:09.118Z</time>
      </trkpt>
      <trkpt lat="43.30054" lon="1.97003">
        <ele>200.159574</ele>
        <time>2023-01-04T14:48:11.098Z</time>
      </trkpt>
      <trkpt lat="43.30058" lon="1.97018">
        <ele>200.066773</ele>
        <time>2023-01-04T14:48:13.123Z</time>
      </trkpt>
      <trkpt lat="43.30062" lon="1.97033">
        <ele>199.977389</ele>
        <time>2023-01-04T14:48:15.113Z</time>
      </trkpt>
      <trkpt lat="43.30065" lon="1.97048">
        <ele>199.891686</ele>
        <time>2023-01-04T14:48:17.121Z</time>
      </trkpt>
      <trkpt lat="43.3007" lon="1.97062">
        <ele>199.805632</ele>
        <time>2023-01-04T14:48:19.107Z</time>
      </trkpt>
      <trkpt lat="43.30074" lon="1.97075">
        <ele>199.725592</ele>
        <time>2023-01-04T14:48:21.106Z</time>
      </trkpt>
      <trkpt lat="43.30079" lon="1.97087">
        <ele>199.647626</ele>
        <time>2023-01-04T14:48:23.116Z</time>
      </trkpt>
      <trkpt lat="43.30084" lon="1.971">
        <ele>199.567446</ele>
        <time>2023-01-04T14:48:25.119Z</time>
      </trkpt>
      <trkpt lat="43.3009" lon="1.97113">
        <ele>199.484181</ele>
        <time>2023-01-04T14:48:27.105Z</time>
      </trkpt>
      <trkpt lat="43.30095" lon="1.97125">
        <ele>199.40022</ele>
        <time>2023-01-04T14:48:29.119Z</time>
      </trkpt>
      <trkpt lat="43.30102" lon="1.97139">
        <ele>199.30948</ele>
        <time>2023-01-04T14:48:31.119Z</time>
      </trkpt>
      <trkpt lat="43.30108" lon="1.97153">
        <ele>199.216619</ele>
        <time>2023-01-04T14:48:33.124Z</time>
      </trkpt>
      <trkpt lat="43.30116" lon="1.97166">
        <ele>199.123834</ele>
        <time>2023-01-04T14:48:35.109Z</time>
      </trkpt>
      <trkpt lat="43.30123" lon="1.9718">
        <ele>199.113053</ele>
        <time>2023-01-04T14:48:37.111Z</time>
      </trkpt>
      <trkpt lat="43.3013" lon="1.97193">
        <ele>199.3191</ele>
        <time>2023-01-04T14:48:39.120Z</time>
      </trkpt>
      <trkpt lat="43.30137" lon="1.97205">
        <ele>199.518192</ele>
        <time>2023-01-04T14:48:41.090Z</time>
      </trkpt>
      <trkpt lat="43.30145" lon="1.97218">
        <ele>199.71656</ele>
        <time>2023-01-04T14:48:43.115Z</time>
      </trkpt>
      <trkpt lat="43.30152" lon="1.97229">
        <ele>199.905202</ele>
        <time>2023-01-04T14:48:45.116Z</time>
      </trkpt>
      <trkpt lat="43.30159" lon="1.97242">
        <ele>200.104201</ele>
        <time>2023-01-04T14:48:47.130Z</time>
      </trkpt>
      <trkpt lat="43.30166" lon="1.97255">
        <ele>200.30068</ele>
        <time>2023-01-04T14:48:49.123Z</time>
      </trkpt>
      <trkpt lat="43.30173" lon="1.97266">
        <ele>200.490091</ele>
        <time>2023-01-04T14:48:51.091Z</time>
      </trkpt>
      <trkpt lat="43.30181" lon="1.97277">
        <ele>200.67412</ele>
        <time>2023-01-04T14:48:53.114Z</time>
      </trkpt>
      <trkpt lat="43.30188" lon="1.97288">
        <ele>200.851597</ele>
        <time>2023-01-04T14:48:55.094Z</time>
      </trkpt>
      <trkpt lat="43.30193" lon="1.97299">
        <ele>201.01353</ele>
        <time>2023-01-04T14:48:57.107Z</time>
      </trkpt>
      <trkpt lat="43.30199" lon="1.97309">
        <ele>201.173885</ele>
        <time>2023-01-04T14:48:59.128Z</time>
      </trkpt>
      <trkpt lat="43.30207" lon="1.97322">
        <ele>201.383839</ele>
        <time>2023-01-04T14:49:02.121Z</time>
      </trkpt>
      <trkpt lat="43.30214" lon="1.97335">
        <ele>201.585787</ele>
        <time>2023-01-04T14:49:05.122Z</time>
      </trkpt>
      <trkpt lat="43.30221" lon="1.97348">
        <ele>201.785774</ele>
        <time>2023-01-04T14:49:08.121Z</time>
      </trkpt>
      <trkpt lat="43.30228" lon="1.97361">
        <ele>201.979734</ele>
        <time>2023-01-04T14:49:11.112Z</time>
      </trkpt>
      <trkpt lat="43.30234" lon="1.97373">
        <ele>202.123551</ele>
        <time>2023-01-04T14:49:14.120Z</time>
      </trkpt>
      <trkpt lat="43.30241" lon="1.97386">
        <ele>202.161562</ele>
        <time>2023-01-04T14:49:17.120Z</time>
      </trkpt>
      <trkpt lat="43.30247" lon="1.97398">
        <ele>202.198348</ele>
        <time>2023-01-04T14:49:20.094Z</time>
      </trkpt>
      <trkpt lat="43.30252" lon="1.9741">
        <ele>202.234502</ele>
        <time>2023-01-04T14:49:23.096Z</time>
      </trkpt>
      <trkpt lat="43.30257" lon="1.97422">
        <ele>202.268285</ele>
        <time>2023-01-04T14:49:26.093Z</time>
      </trkpt>
      <trkpt lat="43.30261" lon="1.97433">
        <ele>202.29954</ele>
        <time>2023-01-04T14:49:29.105Z</time>
      </trkpt>
      <trkpt lat="43.30263" lon="1.97446">
        <ele>202.331455</ele>
        <time>2023-01-04T14:49:33.123Z</time>
      </trkpt>
      <trkpt lat="43.30262" lon="1.97462">
        <ele>202.371816</ele>
        <time>2023-01-04T14:49:38.103Z</time>
      </trkpt>
      <trkpt lat="43.3026" lon="1.97476">
        <ele>202.408207</ele>
        <time>2023-01-04T14:49:41.090Z</time>
      </trkpt>
      <trkpt lat="43.30261" lon="1.97491">
        <ele>202.445798</ele>
        <time>2023-01-04T14:49:44.110Z</time>
      </trkpt>
      <trkpt lat="43.30267" lon="1.97503">
        <ele>202.482302</ele>
        <time>2023-01-04T14:49:47.102Z</time>
      </trkpt>
      <trkpt lat="43.30273" lon="1.97513">
        <ele>202.515255</ele>
        <time>2023-01-04T14:49:50.123Z</time>
      </trkpt>
      <trkpt lat="43.30287" lon="1.97526">
        <ele>202.573013</ele>
        <time>2023-01-04T14:50:26.121Z</time>
      </trkpt>
      <trkpt lat="43.30298" lon="1.97524">
        <ele>202.609923</ele>
        <time>2023-01-04T14:50:31.102Z</time>
      </trkpt>
      <trkpt lat="43.30308" lon="1.97528">
        <ele>202.646878</ele>
        <time>2023-01-04T14:50:35.100Z</time>
      </trkpt>
      <trkpt lat="43.30318" lon="1.97538">
        <ele>202.687946</ele>
        <time>2023-01-04T14:50:39.112Z</time>
      </trkpt>
      <trkpt lat="43.30324" lon="1.97548">
        <ele>202.72069</ele>
        <time>2023-01-04T14:50:42.095Z</time>
      </trkpt>
      <trkpt lat="43.3033" lon="1.9756">
        <ele>202.881762</ele>
        <time>2023-01-04T14:50:45.096Z</time>
      </trkpt>
      <trkpt lat="43.30335" lon="1.97572">
        <ele>203.09096</ele>
        <time>2023-01-04T14:50:48.112Z</time>
      </trkpt>
      <trkpt lat="43.30341" lon="1.97584">
        <ele>203.305734</ele>
        <time>2023-01-04T14:50:51.108Z</time>
      </trkpt>
      <trkpt lat="43.30347" lon="1.97596">
        <ele>203.516169</ele>
        <time>2023-01-04T14:50:54.104Z</time>
      </trkpt>
      <trkpt lat="43.30353" lon="1.97608">
        <ele>203.735699</ele>
        <time>2023-01-04T14:50:57.124Z</time>
      </trkpt>
      <trkpt lat="43.30359" lon="1.9762">
        <ele>203.954222</ele>
        <time>2023-01-04T14:51:00.100Z</time>
      </trkpt>
      <trkpt lat="43.30365" lon="1.97633">
        <ele>204.175194</ele>
        <time>2023-01-04T14:51:03.094Z</time>
      </trkpt>
      <trkpt lat="43.30372" lon="1.97645">
        <ele>204.403017</ele>
        <time>2023-01-04T14:51:06.093Z</time>
      </trkpt>
      <trkpt lat="43.30378" lon="1.97659">
        <ele>204.638042</ele>
        <time>2023-01-04T14:51:09.094Z</time>
      </trkpt>
      <trkpt lat="43.30385" lon="1.97672">
        <ele>204.873067</ele>
        <time>2023-01-04T14:51:12.095Z</time>
      </trkpt>
      <trkpt lat="43.30391" lon="1.97685">
        <ele>205.108413</ele>
        <time>2023-01-04T14:51:15.089Z</time>
      </trkpt>
      <trkpt lat="43.30398" lon="1.97699">
        <ele>205.340065</ele>
        <time>2023-01-04T14:51:18.093Z</time>
      </trkpt>
      <trkpt lat="43.30404" lon="1.97711">
        <ele>205.566708</ele>
        <time>2023-01-04T14:51:21.105Z</time>
      </trkpt>
      <trkpt lat="43.30412" lon="1.97723">
        <ele>205.796077</ele>
        <time>2023-01-04T14:51:24.095Z</time>
      </trkpt>
      <trkpt lat="43.30419" lon="1.97735">
        <ele>206.024667</ele>
        <time>2023-01-04T14:51:27.098Z</time>
      </trkpt>
      <trkpt lat="43.30427" lon="1.97746">
        <ele>206.251841</ele>
        <time>2023-01-04T14:51:30.108Z</time>
      </trkpt>
      <trkpt lat="43.30435" lon="1.97757">
        <ele>206.355101</ele>
        <time>2023-01-04T14:51:33.104Z</time>
      </trkpt>
      <trkpt lat="43.30443" lon="1.97769">
        <ele>206.352217</ele>
        <time>2023-01-04T14:51:36.094Z</time>
      </trkpt>
      <trkpt lat="43.30452" lon="1.97781">
        <ele>206.349347</ele>
        <time>2023-01-04T14:51:39.104Z</time>
      </trkpt>
      <trkpt lat="43.30461" lon="1.97793">
        <ele>206.346266</ele>
        <time>2023-01-04T14:51:42.110Z</time>
      </trkpt>
      <trkpt lat="43.30471" lon="1.97805">
        <ele>206.343138</ele>
        <time>2023-01-04T14:51:45.120Z</time>
      </trkpt>
      <trkpt lat="43.30482" lon="1.97816">
        <ele>206.339938</ele>
        <time>2023-01-04T14:51:48.093Z</time>
      </trkpt>
      <trkpt lat="43.30491" lon="1.97828">
        <ele>206.336968</ele>
        <time>2023-01-04T14:51:51.112Z</time>
      </trkpt>
      <trkpt lat="43.305" lon="1.97838">
        <ele>206.33415</ele>
        <time>2023-01-04T14:51:54.104Z</time>
      </trkpt>
      <trkpt lat="43.30509" lon="1.97851">
        <ele>206.331189</ele>
        <time>2023-01-04T14:51:57.097Z</time>
      </trkpt>
      <trkpt lat="43.30518" lon="1.97864">
        <ele>206.32805</ele>
        <time>2023-01-04T14:52:00.099Z</time>
      </trkpt>
      <trkpt lat="43.30527" lon="1.97876">
        <ele>206.324963</ele>
        <time>2023-01-04T14:52:03.106Z</time>
      </trkpt>
      <trkpt lat="43.30537" lon="1.97888">
        <ele>206.321823</ele>
        <time>2023-01-04T14:52:06.113Z</time>
      </trkpt>
      <trkpt lat="43.30546" lon="1.979">
        <ele>206.318803</ele>
        <time>2023-01-04T14:52:09.098Z</time>
      </trkpt>
      <trkpt lat="43.30555" lon="1.97913">
        <ele>206.315804</ele>
        <time>2023-01-04T14:52:12.097Z</time>
      </trkpt>
      <trkpt lat="43.30563" lon="1.97925">
        <ele>206.220693</ele>
        <time>2023-01-04T14:52:15.098Z</time>
      </trkpt>
      <trkpt lat="43.30569" lon="1.97938">
        <ele>205.933197</ele>
        <time>2023-01-04T14:52:18.103Z</time>
      </trkpt>
      <trkpt lat="43.30573" lon="1.97953">
        <ele>205.647799</ele>
        <time>2023-01-04T14:52:21.108Z</time>
      </trkpt>
      <trkpt lat="43.30568" lon="1.97964">
        <ele>205.420786</ele>
        <time>2023-01-04T14:52:24.117Z</time>
      </trkpt>
      <trkpt lat="43.30559" lon="1.97968">
        <ele>205.165442</ele>
        <time>2023-01-04T14:52:27.127Z</time>
      </trkpt>
      <trkpt lat="43.30547" lon="1.97969">
        <ele>204.874162</ele>
        <time>2023-01-04T14:52:30.105Z</time>
      </trkpt>
      <trkpt lat="43.30537" lon="1.9797">
        <ele>204.613567</ele>
        <time>2023-01-04T14:52:34.122Z</time>
      </trkpt>
      <trkpt lat="43.30537" lon="1.97956">
        <ele>204.35484</ele>
        <time>2023-01-04T14:52:39.119Z</time>
      </trkpt>
      <trkpt lat="43.30543" lon="1.97947">
        <ele>204.120849</ele>
        <time>2023-01-04T14:52:42.094Z</time>
      </trkpt>
      <trkpt lat="43.30548" lon="1.97933">
        <ele>203.845057</ele>
        <time>2023-01-04T14:52:46.114Z</time>
      </trkpt>
      <trkpt lat="43.30541" lon="1.97918">
        <ele>203.530698</ele>
        <time>2023-01-04T14:52:50.120Z</time>
      </trkpt>
      <trkpt lat="43.30533" lon="1.97908">
        <ele>203.261222</ele>
        <time>2023-01-04T14:52:53.100Z</time>
      </trkpt>
      <trkpt lat="43.30527" lon="1.97899">
        <ele>203.034131</ele>
        <time>2023-01-04T14:52:56.100Z</time>
      </trkpt>
      <trkpt lat="43.3052" lon="1.97891">
        <ele>202.805292</ele>
        <time>2023-01-04T14:53:00.093Z</time>
      </trkpt>
      <trkpt lat="43.30512" lon="1.97885">
        <ele>202.57307</ele>
        <time>2023-01-04T14:53:05.099Z</time>
      </trkpt>
      <trkpt lat="43.30505" lon="1.97894">
        <ele>202.339078</ele>
        <time>2023-01-04T14:53:09.109Z</time>
      </trkpt>
      <trkpt lat="43.30499" lon="1.97906">
        <ele>202.068116</ele>
        <time>2023-01-04T14:53:13.103Z</time>
      </trkpt>
      <trkpt lat="43.30492" lon="1.97916">
        <ele>201.829299</ele>
        <time>2023-01-04T14:53:17.095Z</time>
      </trkpt>
      <trkpt lat="43.30482" lon="1.97912">
        <ele>201.858063</ele>
        <time>2023-01-04T14:53:22.102Z</time>
      </trkpt>
      <trkpt lat="43.30472" lon="1.97916">
        <ele>201.905026</ele>
        <time>2023-01-04T14:53:40.093Z</time>
      </trkpt>
      <trkpt lat="43.30466" lon="1.97927">
        <ele>201.952715</ele>
        <time>2023-01-04T14:53:46.096Z</time>
      </trkpt>
      <trkpt lat="43.30461" lon="1.97939">
        <ele>201.997711</ele>
        <time>2023-01-04T14:53:50.092Z</time>
      </trkpt>
      <trkpt lat="43.30454" lon="1.97951">
        <ele>202.051329</ele>
        <time>2023-01-04T14:53:54.089Z</time>
      </trkpt>
      <trkpt lat="43.30448" lon="1.97962">
        <ele>202.095214</ele>
        <time>2023-01-04T14:53:57.104Z</time>
      </trkpt>
      <trkpt lat="43.30443" lon="1.97974">
        <ele>202.141051</ele>
        <time>2023-01-04T14:54:00.106Z</time>
      </trkpt>
      <trkpt lat="43.30437" lon="1.97985">
        <ele>202.186302</ele>
        <time>2023-01-04T14:54:03.116Z</time>
      </trkpt>
      <trkpt lat="43.30432" lon="1.97996">
        <ele>202.231263</ele>
        <time>2023-01-04T14:54:06.111Z</time>
      </trkpt>
      <trkpt lat="43.30425" lon="1.98007">
        <ele>202.281218</ele>
        <time>2023-01-04T14:54:09.096Z</time>
      </trkpt>
      <trkpt lat="43.30418" lon="1.98018">
        <ele>202.328849</ele>
        <time>2023-01-04T14:54:12.103Z</time>
      </trkpt>
      <trkpt lat="43.30411" lon="1.98027">
        <ele>202.371402</ele>
        <time>2023-01-04T14:54:15.100Z</time>
      </trkpt>
      <trkpt lat="43.30405" lon="1.98036">
        <ele>202.414514</ele>
        <time>2023-01-04T14:54:18.099Z</time>
      </trkpt>
      <trkpt lat="43.30398" lon="1.98047">
        <ele>202.462144</ele>
        <time>2023-01-04T14:54:21.108Z</time>
      </trkpt>
      <trkpt lat="43.30391" lon="1.98058">
        <ele>202.511511</ele>
        <time>2023-01-04T14:54:24.114Z</time>
      </trkpt>
      <trkpt lat="43.30384" lon="1.98069">
        <ele>202.560149</ele>
        <time>2023-01-04T14:54:27.109Z</time>
      </trkpt>
      <trkpt lat="43.30377" lon="1.9808">
        <ele>202.610547</ele>
        <time>2023-01-04T14:54:30.105Z</time>
      </trkpt>
      <trkpt lat="43.30369" lon="1.98091">
        <ele>202.638991</ele>
        <time>2023-01-04T14:54:33.096Z</time>
      </trkpt>
      <trkpt lat="43.30361" lon="1.98102">
        <ele>202.63657</ele>
        <time>2023-01-04T14:54:36.113Z</time>
      </trkpt>
      <trkpt lat="43.30354" lon="1.98113">
        <ele>202.634134</ele>
        <time>2023-01-04T14:54:39.104Z</time>
      </trkpt>
      <trkpt lat="43.30346" lon="1.98125">
        <ele>202.63165</ele>
        <time>2023-01-04T14:54:42.117Z</time>
      </trkpt>
      <trkpt lat="43.30339" lon="1.98136">
        <ele>202.6292</ele>
        <time>2023-01-04T14:54:45.093Z</time>
      </trkpt>
      <trkpt lat="43.30332" lon="1.98148">
        <ele>202.626764</ele>
        <time>2023-01-04T14:54:48.118Z</time>
      </trkpt>
      <trkpt lat="43.30324" lon="1.98159">
        <ele>202.624281</ele>
        <time>2023-01-04T14:54:51.090Z</time>
      </trkpt>
      <trkpt lat="43.30317" lon="1.98171">
        <ele>202.621878</ele>
        <time>2023-01-04T14:54:54.114Z</time>
      </trkpt>
      <trkpt lat="43.30309" lon="1.98182">
        <ele>202.61941</ele>
        <time>2023-01-04T14:54:57.118Z</time>
      </trkpt>
      <trkpt lat="43.30302" lon="1.98193">
        <ele>202.616975</ele>
        <time>2023-01-04T14:55:00.112Z</time>
      </trkpt>
      <trkpt lat="43.30295" lon="1.98205">
        <ele>202.614539</ele>
        <time>2023-01-04T14:55:03.100Z</time>
      </trkpt>
      <trkpt lat="43.30287" lon="1.98216">
        <ele>202.612026</ele>
        <time>2023-01-04T14:55:06.106Z</time>
      </trkpt>
      <trkpt lat="43.3028" lon="1.98228">
        <ele>202.609615</ele>
        <time>2023-01-04T14:55:09.099Z</time>
      </trkpt>
      <trkpt lat="43.30273" lon="1.98239">
        <ele>202.607169</ele>
        <time>2023-01-04T14:55:12.094Z</time>
      </trkpt>
      <trkpt lat="43.30265" lon="1.9825">
        <ele>202.604752</ele>
        <time>2023-01-04T14:55:15.089Z</time>
      </trkpt>
      <trkpt lat="43.30258" lon="1.98262">
        <ele>202.602314</ele>
        <time>2023-01-04T14:55:18.093Z</time>
      </trkpt>
      <trkpt lat="43.3025" lon="1.98273">
        <ele>202.604185</ele>
        <time>2023-01-04T14:55:21.097Z</time>
      </trkpt>
      <trkpt lat="43.30243" lon="1.98285">
        <ele>202.621049</ele>
        <time>2023-01-04T14:55:24.100Z</time>
      </trkpt>
      <trkpt lat="43.30235" lon="1.98297">
        <ele>202.637599</ele>
        <time>2023-01-04T14:55:27.087Z</time>
      </trkpt>
      <trkpt lat="43.30227" lon="1.98309">
        <ele>202.654541</ele>
        <time>2023-01-04T14:55:30.095Z</time>
      </trkpt>
      <trkpt lat="43.3022" lon="1.98321">
        <ele>202.671089</ele>
        <time>2023-01-04T14:55:33.099Z</time>
      </trkpt>
      <trkpt lat="43.30212" lon="1.98334">
        <ele>202.688396</ele>
        <time>2023-01-04T14:55:36.097Z</time>
      </trkpt>
      <trkpt lat="43.30204" lon="1.98346">
        <ele>202.705645</ele>
        <time>2023-01-04T14:55:39.092Z</time>
      </trkpt>
      <trkpt lat="43.30196" lon="1.98359">
        <ele>202.723068</ele>
        <time>2023-01-04T14:55:42.097Z</time>
      </trkpt>
      <trkpt lat="43.30189" lon="1.9837">
        <ele>202.739774</ele>
        <time>2023-01-04T14:55:45.099Z</time>
      </trkpt>
      <trkpt lat="43.30181" lon="1.98382">
        <ele>202.75619</ele>
        <time>2023-01-04T14:55:48.094Z</time>
      </trkpt>
      <trkpt lat="43.30173" lon="1.98393">
        <ele>202.772585</ele>
        <time>2023-01-04T14:55:51.094Z</time>
      </trkpt>
      <trkpt lat="43.30165" lon="1.98405">
        <ele>202.789544</ele>
        <time>2023-01-04T14:55:54.103Z</time>
      </trkpt>
      <trkpt lat="43.30159" lon="1.98418">
        <ele>202.80634</ele>
        <time>2023-01-04T14:55:57.093Z</time>
      </trkpt>
      <trkpt lat="43.30152" lon="1.98432">
        <ele>202.822989</ele>
        <time>2023-01-04T14:56:00.093Z</time>
      </trkpt>
      <trkpt lat="43.30147" lon="1.98446">
        <ele>202.840201</ele>
        <time>2023-01-04T14:56:03.104Z</time>
      </trkpt>
      <trkpt lat="43.30142" lon="1.9846">
        <ele>202.856126</ele>
        <time>2023-01-04T14:56:06.099Z</time>
      </trkpt>
      <trkpt lat="43.30137" lon="1.98473">
        <ele>202.887351</ele>
        <time>2023-01-04T14:56:09.095Z</time>
      </trkpt>
      <trkpt lat="43.30133" lon="1.98487">
        <ele>202.922836</ele>
        <time>2023-01-04T14:56:12.099Z</time>
      </trkpt>
      <trkpt lat="43.30129" lon="1.98499">
        <ele>202.954574</ele>
        <time>2023-01-04T14:56:15.094Z</time>
      </trkpt>
      <trkpt lat="43.30125" lon="1.98513">
        <ele>202.990806</ele>
        <time>2023-01-04T14:56:18.119Z</time>
      </trkpt>
      <trkpt lat="43.3012" lon="1.98527">
        <ele>203.028183</ele>
        <time>2023-01-04T14:56:21.091Z</time>
      </trkpt>
      <trkpt lat="43.30115" lon="1.98541">
        <ele>203.066498</ele>
        <time>2023-01-04T14:56:24.114Z</time>
      </trkpt>
      <trkpt lat="43.30111" lon="1.98555">
        <ele>203.103746</ele>
        <time>2023-01-04T14:56:27.101Z</time>
      </trkpt>
      <trkpt lat="43.30106" lon="1.9857">
        <ele>203.140949</ele>
        <time>2023-01-04T14:56:30.110Z</time>
      </trkpt>
      <trkpt lat="43.30102" lon="1.98582">
        <ele>203.174715</ele>
        <time>2023-01-04T14:56:33.112Z</time>
      </trkpt>
      <trkpt lat="43.30097" lon="1.98593">
        <ele>203.20524</ele>
        <time>2023-01-04T14:56:36.103Z</time>
      </trkpt>
      <trkpt lat="43.30093" lon="1.98605">
        <ele>203.235677</ele>
        <time>2023-01-04T14:56:41.100Z</time>
      </trkpt>
      <trkpt lat="43.30088" lon="1.98616">
        <ele>203.269103</ele>
        <time>2023-01-04T14:56:51.094Z</time>
      </trkpt>
      <trkpt lat="43.30082" lon="1.98628">
        <ele>203.304967</ele>
        <time>2023-01-04T14:56:55.119Z</time>
      </trkpt>
      <trkpt lat="43.30075" lon="1.98639">
        <ele>203.337937</ele>
        <time>2023-01-04T14:56:58.106Z</time>
      </trkpt>
      <trkpt lat="43.30068" lon="1.9865">
        <ele>203.37298</ele>
        <time>2023-01-04T14:57:01.111Z</time>
      </trkpt>
      <trkpt lat="43.30061" lon="1.98661">
        <ele>203.409267</ele>
        <time>2023-01-04T14:57:04.111Z</time>
      </trkpt>
      <trkpt lat="43.30054" lon="1.98673">
        <ele>203.446091</ele>
        <time>2023-01-04T14:57:07.112Z</time>
      </trkpt>
      <trkpt lat="43.30046" lon="1.98684">
        <ele>203.430662</ele>
        <time>2023-01-04T14:57:10.114Z</time>
      </trkpt>
      <trkpt lat="43.30039" lon="1.98695">
        <ele>203.398944</ele>
        <time>2023-01-04T14:57:13.120Z</time>
      </trkpt>
      <trkpt lat="43.30031" lon="1.98705">
        <ele>203.368911</ele>
        <time>2023-01-04T14:57:16.114Z</time>
      </trkpt>
      <trkpt lat="43.30024" lon="1.98717">
        <ele>203.335632</ele>
        <time>2023-01-04T14:57:19.117Z</time>
      </trkpt>
      <trkpt lat="43.30016" lon="1.98729">
        <ele>203.302067</ele>
        <time>2023-01-04T14:57:22.111Z</time>
      </trkpt>
      <trkpt lat="43.30009" lon="1.9874">
        <ele>203.268617</ele>
        <time>2023-01-04T14:57:25.096Z</time>
      </trkpt>
      <trkpt lat="43.3" lon="1.98751">
        <ele>203.234543</ele>
        <time>2023-01-04T14:57:28.116Z</time>
      </trkpt>
      <trkpt lat="43.29991" lon="1.98763">
        <ele>203.198444</ele>
        <time>2023-01-04T14:57:31.100Z</time>
      </trkpt>
      <trkpt lat="43.29983" lon="1.98775">
        <ele>203.164084</ele>
        <time>2023-01-04T14:57:34.104Z</time>
      </trkpt>
      <trkpt lat="43.29975" lon="1.98787">
        <ele>203.128299</ele>
        <time>2023-01-04T14:57:37.102Z</time>
      </trkpt>
      <trkpt lat="43.29967" lon="1.988">
        <ele>203.092014</ele>
        <time>2023-01-04T14:57:40.101Z</time>
      </trkpt>
      <trkpt lat="43.29958" lon="1.98812">
        <ele>203.055285</ele>
        <time>2023-01-04T14:57:43.094Z</time>
      </trkpt>
      <trkpt lat="43.29949" lon="1.98824">
        <ele>203.01787</ele>
        <time>2023-01-04T14:57:46.099Z</time>
      </trkpt>
      <trkpt lat="43.2994" lon="1.98836">
        <ele>202.983104</ele>
        <time>2023-01-04T14:57:49.093Z</time>
      </trkpt>
      <trkpt lat="43.29932" lon="1.98847">
        <ele>202.948882</ele>
        <time>2023-01-04T14:57:52.093Z</time>
      </trkpt>
      <trkpt lat="43.29925" lon="1.98858">
        <ele>202.906774</ele>
        <time>2023-01-04T14:57:55.096Z</time>
      </trkpt>
      <trkpt lat="43.29919" lon="1.98867">
        <ele>202.849842</ele>
        <time>2023-01-04T14:57:58.124Z</time>
      </trkpt>
      <trkpt lat="43.29913" lon="1.98879">
        <ele>202.780837</ele>
        <time>2023-01-04T14:58:02.093Z</time>
      </trkpt>
      <trkpt lat="43.29907" lon="1.98889">
        <ele>202.723354</ele>
        <time>2023-01-04T14:58:05.093Z</time>
      </trkpt>
      <trkpt lat="43.29901" lon="1.98901">
        <ele>202.657293</ele>
        <time>2023-01-04T14:58:08.097Z</time>
      </trkpt>
      <trkpt lat="43.29894" lon="1.98911">
        <ele>202.590881</ele>
        <time>2023-01-04T14:58:11.091Z</time>
      </trkpt>
      <trkpt lat="43.29887" lon="1.98923">
        <ele>202.523735</ele>
        <time>2023-01-04T14:58:14.100Z</time>
      </trkpt>
      <trkpt lat="43.29881" lon="1.98936">
        <ele>202.4553</ele>
        <time>2023-01-04T14:58:17.115Z</time>
      </trkpt>
      <trkpt lat="43.29875" lon="1.98949">
        <ele>202.382357</ele>
        <time>2023-01-04T14:58:20.106Z</time>
      </trkpt>
      <trkpt lat="43.2987" lon="1.98964">
        <ele>202.307115</ele>
        <time>2023-01-04T14:58:23.098Z</time>
      </trkpt>
      <trkpt lat="43.29867" lon="1.98979">
        <ele>202.232777</ele>
        <time>2023-01-04T14:58:26.106Z</time>
      </trkpt>
      <trkpt lat="43.29865" lon="1.98995">
        <ele>202.159323</ele>
        <time>2023-01-04T14:58:29.100Z</time>
      </trkpt>
      <trkpt lat="43.29863" lon="1.99009">
        <ele>202.096136</ele>
        <time>2023-01-04T14:58:32.102Z</time>
      </trkpt>
      <trkpt lat="43.29862" lon="1.99022">
        <ele>202.034013</ele>
        <time>2023-01-04T14:58:35.120Z</time>
      </trkpt>
      <trkpt lat="43.29861" lon="1.99035">
        <ele>201.973662</ele>
        <time>2023-01-04T14:58:38.100Z</time>
      </trkpt>
      <trkpt lat="43.29862" lon="1.9905">
        <ele>201.906591</ele>
        <time>2023-01-04T14:58:41.092Z</time>
      </trkpt>
      <trkpt lat="43.29862" lon="1.99066">
        <ele>201.83364</ele>
        <time>2023-01-04T14:58:44.099Z</time>
      </trkpt>
      <trkpt lat="43.29863" lon="1.99083">
        <ele>201.783351</ele>
        <time>2023-01-04T14:58:47.108Z</time>
      </trkpt>
      <trkpt lat="43.29861" lon="1.99096">
        <ele>201.763309</ele>
        <time>2023-01-04T14:58:50.089Z</time>
      </trkpt>
      <trkpt lat="43.29859" lon="1.99113">
        <ele>201.73797</ele>
        <time>2023-01-04T14:58:53.094Z</time>
      </trkpt>
      <trkpt lat="43.29855" lon="1.9913">
        <ele>201.712097</ele>
        <time>2023-01-04T14:58:56.097Z</time>
      </trkpt>
      <trkpt lat="43.2985" lon="1.99145">
        <ele>201.687478</ele>
        <time>2023-01-04T14:58:59.109Z</time>
      </trkpt>
      <trkpt lat="43.29844" lon="1.9916">
        <ele>201.662465</ele>
        <time>2023-01-04T14:59:02.107Z</time>
      </trkpt>
      <trkpt lat="43.29838" lon="1.99174">
        <ele>201.63783</ele>
        <time>2023-01-04T14:59:05.097Z</time>
      </trkpt>
      <trkpt lat="43.29832" lon="1.99188">
        <ele>201.614183</ele>
        <time>2023-01-04T14:59:08.112Z</time>
      </trkpt>
      <trkpt lat="43.29827" lon="1.99201">
        <ele>201.592371</ele>
        <time>2023-01-04T14:59:11.101Z</time>
      </trkpt>
      <trkpt lat="43.29823" lon="1.99212">
        <ele>201.573776</ele>
        <time>2023-01-04T14:59:14.116Z</time>
      </trkpt>
      <trkpt lat="43.29817" lon="1.99224">
        <ele>201.552984</ele>
        <time>2023-01-04T14:59:17.116Z</time>
      </trkpt>
      <trkpt lat="43.29812" lon="1.99238">
        <ele>201.530272</ele>
        <time>2023-01-04T14:59:20.100Z</time>
      </trkpt>
      <trkpt lat="43.29807" lon="1.99252">
        <ele>201.506901</ele>
        <time>2023-01-04T14:59:23.101Z</time>
      </trkpt>
      <trkpt lat="43.29803" lon="1.99267">
        <ele>201.483251</ele>
        <time>2023-01-04T14:59:26.104Z</time>
      </trkpt>
      <trkpt lat="43.29798" lon="1.99282">
        <ele>201.459227</ele>
        <time>2023-01-04T14:59:29.104Z</time>
      </trkpt>
      <trkpt lat="43.29794" lon="1.99297">
        <ele>201.43522</ele>
        <time>2023-01-04T14:59:32.101Z</time>
      </trkpt>
      <trkpt lat="43.29791" lon="1.99312">
        <ele>201.208464</ele>
        <time>2023-01-04T14:59:35.101Z</time>
      </trkpt>
      <trkpt lat="43.29787" lon="1.99325">
        <ele>200.966554</ele>
        <time>2023-01-04T14:59:38.120Z</time>
      </trkpt>
      <trkpt lat="43.29784" lon="1.99339">
        <ele>200.713827</ele>
        <time>2023-01-04T14:59:42.100Z</time>
      </trkpt>
      <trkpt lat="43.29783" lon="1.99352">
        <ele>200.489393</ele>
        <time>2023-01-04T14:59:52.099Z</time>
      </trkpt>
      <trkpt lat="43.29776" lon="1.99361">
        <ele>200.243499</ele>
        <time>2023-01-04T15:00:01.101Z</time>
      </trkpt>
      <trkpt lat="43.29772" lon="1.99375">
        <ele>199.993336</ele>
        <time>2023-01-04T15:00:05.099Z</time>
      </trkpt>
      <trkpt lat="43.2977" lon="1.99389">
        <ele>199.739964</ele>
        <time>2023-01-04T15:00:09.108Z</time>
      </trkpt>
      <trkpt lat="43.29767" lon="1.99402">
        <ele>199.512269</ele>
        <time>2023-01-04T15:00:12.092Z</time>
      </trkpt>
      <trkpt lat="43.29764" lon="1.99416">
        <ele>199.250808</ele>
        <time>2023-01-04T15:00:15.093Z</time>
      </trkpt>
      <trkpt lat="43.2976" lon="1.99431">
        <ele>198.980383</ele>
        <time>2023-01-04T15:00:18.118Z</time>
      </trkpt>
      <trkpt lat="43.29755" lon="1.99447">
        <ele>198.685384</ele>
        <time>2023-01-04T15:00:21.092Z</time>
      </trkpt>
      <trkpt lat="43.29752" lon="1.99462">
        <ele>198.400955</ele>
        <time>2023-01-04T15:00:24.114Z</time>
      </trkpt>
      <trkpt lat="43.2975" lon="1.99475">
        <ele>198.174007</ele>
        <time>2023-01-04T15:00:28.109Z</time>
      </trkpt>
      <trkpt lat="43.29749" lon="1.99501">
        <ele>197.729585</ele>
        <time>2023-01-04T15:01:30.094Z</time>
      </trkpt>
      <trkpt lat="43.29746" lon="1.99515">
        <ele>197.475184</ele>
        <time>2023-01-04T15:01:33.103Z</time>
      </trkpt>
      <trkpt lat="43.29743" lon="1.99526">
        <ele>197.256575</ele>
        <time>2023-01-04T15:01:36.088Z</time>
      </trkpt>
      <trkpt lat="43.29738" lon="1.9954">
        <ele>197.079607</ele>
        <time>2023-01-04T15:01:39.111Z</time>
      </trkpt>
      <trkpt lat="43.29734" lon="1.99555">
        <ele>196.947905</ele>
        <time>2023-01-04T15:01:42.113Z</time>
      </trkpt>
      <trkpt lat="43.2973" lon="1.99572">
        <ele>196.795827</ele>
        <time>2023-01-04T15:01:45.112Z</time>
      </trkpt>
      <trkpt lat="43.29727" lon="1.99585">
        <ele>196.680476</ele>
        <time>2023-01-04T15:01:47.104Z</time>
      </trkpt>
      <trkpt lat="43.29724" lon="1.99598">
        <ele>196.568409</ele>
        <time>2023-01-04T15:01:49.104Z</time>
      </trkpt>
      <trkpt lat="43.2972" lon="1.99612">
        <ele>196.450217</ele>
        <time>2023-01-04T15:01:51.098Z</time>
      </trkpt>
      <trkpt lat="43.29717" lon="1.99625">
        <ele>196.336877</ele>
        <time>2023-01-04T15:01:53.101Z</time>
      </trkpt>
      <trkpt lat="43.29714" lon="1.99638">
        <ele>196.219971</ele>
        <time>2023-01-04T15:01:55.094Z</time>
      </trkpt>
      <trkpt lat="43.29711" lon="1.99652">
        <ele>196.100444</ele>
        <time>2023-01-04T15:01:57.120Z</time>
      </trkpt>
      <trkpt lat="43.29707" lon="1.99666">
        <ele>195.977233</ele>
        <time>2023-01-04T15:01:59.098Z</time>
      </trkpt>
      <trkpt lat="43.29703" lon="1.9968">
        <ele>195.85332</ele>
        <time>2023-01-04T15:02:01.101Z</time>
      </trkpt>
      <trkpt lat="43.297" lon="1.99694">
        <ele>195.730889</ele>
        <time>2023-01-04T15:02:03.101Z</time>
      </trkpt>
      <trkpt lat="43.29696" lon="1.99708">
        <ele>195.608925</ele>
        <time>2023-01-04T15:02:05.107Z</time>
      </trkpt>
      <trkpt lat="43.29692" lon="1.99721">
        <ele>195.491628</ele>
        <time>2023-01-04T15:02:07.118Z</time>
      </trkpt>
      <trkpt lat="43.29689" lon="1.99735">
        <ele>195.372004</ele>
        <time>2023-01-04T15:02:09.102Z</time>
      </trkpt>
      <trkpt lat="43.29685" lon="1.99747">
        <ele>195.260342</ele>
        <time>2023-01-04T15:02:11.103Z</time>
      </trkpt>
      <trkpt lat="43.29682" lon="1.99759">
        <ele>195.157638</ele>
        <time>2023-01-04T15:02:13.120Z</time>
      </trkpt>
      <trkpt lat="43.29679" lon="1.99771">
        <ele>195.061723</ele>
        <time>2023-01-04T15:02:15.114Z</time>
      </trkpt>
      <trkpt lat="43.29675" lon="1.99788">
        <ele>194.940201</ele>
        <time>2023-01-04T15:02:18.096Z</time>
      </trkpt>
      <trkpt lat="43.29672" lon="1.998">
        <ele>194.854175</ele>
        <time>2023-01-04T15:02:20.103Z</time>
      </trkpt>
      <trkpt lat="43.29669" lon="1.99812">
        <ele>194.763072</ele>
        <time>2023-01-04T15:02:22.098Z</time>
      </trkpt>
      <trkpt lat="43.29667" lon="1.99825">
        <ele>194.674819</ele>
        <time>2023-01-04T15:02:24.129Z</time>
      </trkpt>
      <trkpt lat="43.29663" lon="1.99838">
        <ele>194.581433</ele>
        <time>2023-01-04T15:02:26.119Z</time>
      </trkpt>
      <trkpt lat="43.2966" lon="1.9985">
        <ele>194.488692</ele>
        <time>2023-01-04T15:02:28.121Z</time>
      </trkpt>
      <trkpt lat="43.29656" lon="1.99863">
        <ele>194.392341</ele>
        <time>2023-01-04T15:02:30.107Z</time>
      </trkpt>
      <trkpt lat="43.29653" lon="1.99875">
        <ele>194.306023</ele>
        <time>2023-01-04T15:02:32.100Z</time>
      </trkpt>
      <trkpt lat="43.2965" lon="1.99888">
        <ele>194.212344</ele>
        <time>2023-01-04T15:02:34.135Z</time>
      </trkpt>
      <trkpt lat="43.29645" lon="1.99901">
        <ele>194.116901</ele>
        <time>2023-01-04T15:02:36.120Z</time>
      </trkpt>
      <trkpt lat="43.2964" lon="1.99912">
        <ele>194.027917</ele>
        <time>2023-01-04T15:02:38.120Z</time>
      </trkpt>
      <trkpt lat="43.29637" lon="1.99924">
        <ele>193.942893</ele>
        <time>2023-01-04T15:02:40.120Z</time>
      </trkpt>
      <trkpt lat="43.29633" lon="1.9994">
        <ele>193.825027</ele>
        <time>2023-01-04T15:02:43.102Z</time>
      </trkpt>
      <trkpt lat="43.2963" lon="1.99958">
        <ele>193.699631</ele>
        <time>2023-01-04T15:02:46.123Z</time>
      </trkpt>
      <trkpt lat="43.29627" lon="1.99971">
        <ele>193.609416</ele>
        <time>2023-01-04T15:02:48.103Z</time>
      </trkpt>
      <trkpt lat="43.29624" lon="1.99982">
        <ele>193.524688</ele>
        <time>2023-01-04T15:02:50.107Z</time>
      </trkpt>
      <trkpt lat="43.29621" lon="1.99995">
        <ele>193.43613</ele>
        <time>2023-01-04T15:02:52.120Z</time>
      </trkpt>
      <trkpt lat="43.29617" lon="2.00012">
        <ele>193.464043</ele>
        <time>2023-01-04T15:02:55.127Z</time>
      </trkpt>
      <trkpt lat="43.29614" lon="2.00025">
        <ele>193.503234</ele>
        <time>2023-01-04T15:02:57.111Z</time>
      </trkpt>
      <trkpt lat="43.29611" lon="2.00037">
        <ele>193.541259</ele>
        <time>2023-01-04T15:02:59.116Z</time>
      </trkpt>
      <trkpt lat="43.29607" lon="2.0005">
        <ele>193.580132</ele>
        <time>2023-01-04T15:03:01.096Z</time>
      </trkpt>
      <trkpt lat="43.29605" lon="2.00062">
        <ele>193.616844</ele>
        <time>2023-01-04T15:03:03.118Z</time>
      </trkpt>
      <trkpt lat="43.29602" lon="2.00079">
        <ele>193.669471</ele>
        <time>2023-01-04T15:03:06.112Z</time>
      </trkpt>
      <trkpt lat="43.29598" lon="2.00091">
        <ele>193.707378</ele>
        <time>2023-01-04T15:03:08.104Z</time>
      </trkpt>
      <trkpt lat="43.29595" lon="2.00103">
        <ele>193.744582</ele>
        <time>2023-01-04T15:03:10.101Z</time>
      </trkpt>
      <trkpt lat="43.29591" lon="2.00116">
        <ele>193.785122</ele>
        <time>2023-01-04T15:03:12.101Z</time>
      </trkpt>
      <trkpt lat="43.29588" lon="2.00128">
        <ele>193.824664</ele>
        <time>2023-01-04T15:03:14.092Z</time>
      </trkpt>
      <trkpt lat="43.29582" lon="2.00146">
        <ele>193.882982</ele>
        <time>2023-01-04T15:03:17.116Z</time>
      </trkpt>
      <trkpt lat="43.29574" lon="2.00165">
        <ele>193.944309</ele>
        <time>2023-01-04T15:03:20.119Z</time>
      </trkpt>
      <trkpt lat="43.29569" lon="2.00177">
        <ele>193.985619</ele>
        <time>2023-01-04T15:03:22.099Z</time>
      </trkpt>
      <trkpt lat="43.29565" lon="2.00189">
        <ele>194.024663</ele>
        <time>2023-01-04T15:03:24.121Z</time>
      </trkpt>
      <trkpt lat="43.29558" lon="2.002">
        <ele>194.066666</ele>
        <time>2023-01-04T15:03:26.121Z</time>
      </trkpt>
      <trkpt lat="43.29552" lon="2.0021">
        <ele>194.105893</ele>
        <time>2023-01-04T15:03:28.100Z</time>
      </trkpt>
      <trkpt lat="43.29544" lon="2.00221">
        <ele>194.161045</ele>
        <time>2023-01-04T15:03:30.094Z</time>
      </trkpt>
      <trkpt lat="43.29537" lon="2.0023">
        <ele>194.255923</ele>
        <time>2023-01-04T15:03:32.098Z</time>
      </trkpt>
      <trkpt lat="43.29529" lon="2.00239">
        <ele>194.358788</ele>
        <time>2023-01-04T15:03:34.119Z</time>
      </trkpt>
      <trkpt lat="43.29522" lon="2.00247">
        <ele>194.447707</ele>
        <time>2023-01-04T15:03:36.118Z</time>
      </trkpt>
      <trkpt lat="43.29515" lon="2.00257">
        <ele>194.550507</ele>
        <time>2023-01-04T15:03:38.095Z</time>
      </trkpt>
      <trkpt lat="43.29506" lon="2.00266">
        <ele>194.654296</ele>
        <time>2023-01-04T15:03:40.120Z</time>
      </trkpt>
      <trkpt lat="43.29498" lon="2.00274">
        <ele>194.753015</ele>
        <time>2023-01-04T15:03:42.112Z</time>
      </trkpt>
      <trkpt lat="43.29491" lon="2.00283">
        <ele>194.848814</ele>
        <time>2023-01-04T15:03:44.103Z</time>
      </trkpt>
      <trkpt lat="43.29484" lon="2.00292">
        <ele>194.942919</ele>
        <time>2023-01-04T15:03:46.107Z</time>
      </trkpt>
      <trkpt lat="43.29476" lon="2.00301">
        <ele>195.046176</ele>
        <time>2023-01-04T15:03:48.100Z</time>
      </trkpt>
      <trkpt lat="43.29467" lon="2.00309">
        <ele>195.14779</ele>
        <time>2023-01-04T15:03:50.099Z</time>
      </trkpt>
      <trkpt lat="43.2946" lon="2.00319">
        <ele>195.248898</ele>
        <time>2023-01-04T15:03:52.110Z</time>
      </trkpt>
      <trkpt lat="43.29452" lon="2.00327">
        <ele>195.344225</ele>
        <time>2023-01-04T15:03:54.123Z</time>
      </trkpt>
      <trkpt lat="43.29445" lon="2.00336">
        <ele>195.435732</ele>
        <time>2023-01-04T15:03:56.140Z</time>
      </trkpt>
      <trkpt lat="43.29437" lon="2.00347">
        <ele>195.553836</ele>
        <time>2023-01-04T15:03:59.114Z</time>
      </trkpt>
      <trkpt lat="43.29429" lon="2.00355">
        <ele>195.643311</ele>
        <time>2023-01-04T15:04:01.098Z</time>
      </trkpt>
      <trkpt lat="43.29422" lon="2.00363">
        <ele>195.737702</ele>
        <time>2023-01-04T15:04:03.102Z</time>
      </trkpt>
      <trkpt lat="43.29415" lon="2.00372">
        <ele>195.83303</ele>
        <time>2023-01-04T15:04:05.108Z</time>
      </trkpt>
      <trkpt lat="43.29407" lon="2.0038">
        <ele>195.897369</ele>
        <time>2023-01-04T15:04:07.102Z</time>
      </trkpt>
      <trkpt lat="43.294" lon="2.00388">
        <ele>195.844511</ele>
        <time>2023-01-04T15:04:09.095Z</time>
      </trkpt>
      <trkpt lat="43.2939" lon="2.004">
        <ele>195.770619</ele>
        <time>2023-01-04T15:04:12.096Z</time>
      </trkpt>
      <trkpt lat="43.29382" lon="2.00412">
        <ele>195.702399</ele>
        <time>2023-01-04T15:04:15.124Z</time>
      </trkpt>
      <trkpt lat="43.29373" lon="2.00425">
        <ele>195.629763</ele>
        <time>2023-01-04T15:04:18.103Z</time>
      </trkpt>
      <trkpt lat="43.29365" lon="2.0044">
        <ele>195.553138</ele>
        <time>2023-01-04T15:04:21.093Z</time>
      </trkpt>
      <trkpt lat="43.29361" lon="2.00451">
        <ele>195.500996</ele>
        <time>2023-01-04T15:04:23.107Z</time>
      </trkpt>
      <trkpt lat="43.29355" lon="2.00467">
        <ele>195.424506</ele>
        <time>2023-01-04T15:04:26.093Z</time>
      </trkpt>
      <trkpt lat="43.29348" lon="2.00483">
        <ele>195.352157</ele>
        <time>2023-01-04T15:04:29.106Z</time>
      </trkpt>
      <trkpt lat="43.2934" lon="2.00496">
        <ele>195.280599</ele>
        <time>2023-01-04T15:04:32.118Z</time>
      </trkpt>
      <trkpt lat="43.29333" lon="2.00509">
        <ele>195.213633</ele>
        <time>2023-01-04T15:04:35.110Z</time>
      </trkpt>
      <trkpt lat="43.29329" lon="2.00522">
        <ele>195.156997</ele>
        <time>2023-01-04T15:04:38.106Z</time>
      </trkpt>
      <trkpt lat="43.29326" lon="2.00535">
        <ele>195.097574</ele>
        <time>2023-01-04T15:04:42.103Z</time>
      </trkpt>
      <trkpt lat="43.29323" lon="2.00551">
        <ele>195.033085</ele>
        <time>2023-01-04T15:04:47.100Z</time>
      </trkpt>
      <trkpt lat="43.29319" lon="2.00565">
        <ele>194.967046</ele>
        <time>2023-01-04T15:04:50.139Z</time>
      </trkpt>
      <trkpt lat="43.29315" lon="2.00577">
        <ele>194.914259</ele>
        <time>2023-01-04T15:04:52.113Z</time>
      </trkpt>
      <trkpt lat="43.29311" lon="2.0059">
        <ele>194.803758</ele>
        <time>2023-01-04T15:04:54.114Z</time>
      </trkpt>
      <trkpt lat="43.29308" lon="2.00603">
        <ele>194.655208</ele>
        <time>2023-01-04T15:04:56.104Z</time>
      </trkpt>
      <trkpt lat="43.29303" lon="2.00616">
        <ele>194.500853</ele>
        <time>2023-01-04T15:04:58.116Z</time>
      </trkpt>
      <trkpt lat="43.29298" lon="2.00628">
        <ele>194.347894</ele>
        <time>2023-01-04T15:05:00.100Z</time>
      </trkpt>
      <trkpt lat="43.29294" lon="2.0064">
        <ele>194.20001</ele>
        <time>2023-01-04T15:05:02.101Z</time>
      </trkpt>
      <trkpt lat="43.29289" lon="2.00653">
        <ele>194.053392</ele>
        <time>2023-01-04T15:05:04.118Z</time>
      </trkpt>
      <trkpt lat="43.29282" lon="2.00669">
        <ele>193.848577</ele>
        <time>2023-01-04T15:05:07.112Z</time>
      </trkpt>
      <trkpt lat="43.29279" lon="2.00681">
        <ele>193.710085</ele>
        <time>2023-01-04T15:05:09.102Z</time>
      </trkpt>
      <trkpt lat="43.29274" lon="2.00693">
        <ele>193.561829</ele>
        <time>2023-01-04T15:05:11.102Z</time>
      </trkpt>
      <trkpt lat="43.2927" lon="2.00706">
        <ele>193.41232</ele>
        <time>2023-01-04T15:05:13.096Z</time>
      </trkpt>
      <trkpt lat="43.29266" lon="2.00718">
        <ele>193.27269</ele>
        <time>2023-01-04T15:05:15.109Z</time>
      </trkpt>
      <trkpt lat="43.29261" lon="2.00729">
        <ele>193.131318</ele>
        <time>2023-01-04T15:05:17.115Z</time>
      </trkpt>
      <trkpt lat="43.29257" lon="2.0074">
        <ele>192.993788</ele>
        <time>2023-01-04T15:05:19.104Z</time>
      </trkpt>
      <trkpt lat="43.29253" lon="2.00752">
        <ele>192.853331</ele>
        <time>2023-01-04T15:05:21.102Z</time>
      </trkpt>
      <trkpt lat="43.29249" lon="2.00763">
        <ele>192.715865</ele>
        <time>2023-01-04T15:05:23.092Z</time>
      </trkpt>
      <trkpt lat="43.29244" lon="2.00775">
        <ele>192.57413</ele>
        <time>2023-01-04T15:05:25.100Z</time>
      </trkpt>
      <trkpt lat="43.2924" lon="2.00787">
        <ele>192.429144</ele>
        <time>2023-01-04T15:05:27.100Z</time>
      </trkpt>
      <trkpt lat="43.29236" lon="2.00799">
        <ele>192.282227</ele>
        <time>2023-01-04T15:05:29.112Z</time>
      </trkpt>
      <trkpt lat="43.29231" lon="2.00811">
        <ele>192.254673</ele>
        <time>2023-01-04T15:05:31.112Z</time>
      </trkpt>
      <trkpt lat="43.29227" lon="2.00825">
        <ele>192.309558</ele>
        <time>2023-01-04T15:05:33.117Z</time>
      </trkpt>
      <trkpt lat="43.29222" lon="2.00838">
        <ele>192.364539</ele>
        <time>2023-01-04T15:05:35.120Z</time>
      </trkpt>
      <trkpt lat="43.29218" lon="2.0085">
        <ele>192.416775</ele>
        <time>2023-01-04T15:05:37.101Z</time>
      </trkpt>
      <trkpt lat="43.29214" lon="2.00861">
        <ele>192.464237</ele>
        <time>2023-01-04T15:05:39.099Z</time>
      </trkpt>
      <trkpt lat="43.29211" lon="2.00873">
        <ele>192.512609</ele>
        <time>2023-01-04T15:05:41.121Z</time>
      </trkpt>
      <trkpt lat="43.29207" lon="2.00884">
        <ele>192.560498</ele>
        <time>2023-01-04T15:05:43.120Z</time>
      </trkpt>
      <trkpt lat="43.29203" lon="2.00896">
        <ele>192.608834</ele>
        <time>2023-01-04T15:05:45.111Z</time>
      </trkpt>
      <trkpt lat="43.29199" lon="2.00908">
        <ele>192.658331</ele>
        <time>2023-01-04T15:05:47.111Z</time>
      </trkpt>
      <trkpt lat="43.29195" lon="2.0092">
        <ele>192.710349</ele>
        <time>2023-01-04T15:05:49.118Z</time>
      </trkpt>
      <trkpt lat="43.29191" lon="2.00932">
        <ele>192.760629</ele>
        <time>2023-01-04T15:05:51.105Z</time>
      </trkpt>
      <trkpt lat="43.29188" lon="2.00944">
        <ele>192.809812</ele>
        <time>2023-01-04T15:05:53.101Z</time>
      </trkpt>
      <trkpt lat="43.29186" lon="2.00957">
        <ele>192.859465</ele>
        <time>2023-01-04T15:05:55.101Z</time>
      </trkpt>
      <trkpt lat="43.29183" lon="2.0097">
        <ele>192.911714</ele>
        <time>2023-01-04T15:05:57.105Z</time>
      </trkpt>
      <trkpt lat="43.29179" lon="2.00987">
        <ele>192.980259</ele>
        <time>2023-01-04T15:06:00.120Z</time>
      </trkpt>
      <trkpt lat="43.29176" lon="2.01004">
        <ele>193.047736</ele>
        <time>2023-01-04T15:06:03.102Z</time>
      </trkpt>
      <trkpt lat="43.29173" lon="2.01016">
        <ele>193.09709</ele>
        <time>2023-01-04T15:06:05.106Z</time>
      </trkpt>
      <trkpt lat="43.2917" lon="2.0103">
        <ele>193.150295</ele>
        <time>2023-01-04T15:06:07.121Z</time>
      </trkpt>
      <trkpt lat="43.29168" lon="2.01042">
        <ele>193.145526</ele>
        <time>2023-01-04T15:06:09.113Z</time>
      </trkpt>
      <trkpt lat="43.29165" lon="2.01056">
        <ele>193.111185</ele>
        <time>2023-01-04T15:06:11.109Z</time>
      </trkpt>
      <trkpt lat="43.29162" lon="2.01069">
        <ele>193.07657</ele>
        <time>2023-01-04T15:06:13.120Z</time>
      </trkpt>
      <trkpt lat="43.2916" lon="2.01082">
        <ele>193.043979</ele>
        <time>2023-01-04T15:06:15.116Z</time>
      </trkpt>
      <trkpt lat="43.29157" lon="2.01095">
        <ele>193.011443</ele>
        <time>2023-01-04T15:06:17.124Z</time>
      </trkpt>
      <trkpt lat="43.29154" lon="2.01107">
        <ele>192.97881</ele>
        <time>2023-01-04T15:06:19.097Z</time>
      </trkpt>
      <trkpt lat="43.29151" lon="2.01124">
        <ele>192.936427</ele>
        <time>2023-01-04T15:06:22.122Z</time>
      </trkpt>
      <trkpt lat="43.29148" lon="2.01139">
        <ele>192.898269</ele>
        <time>2023-01-04T15:06:25.118Z</time>
      </trkpt>
      <trkpt lat="43.29145" lon="2.01156">
        <ele>192.855013</ele>
        <time>2023-01-04T15:06:28.123Z</time>
      </trkpt>
      <trkpt lat="43.29143" lon="2.01168">
        <ele>192.824023</ele>
        <time>2023-01-04T15:06:30.112Z</time>
      </trkpt>
      <trkpt lat="43.2914" lon="2.01181">
        <ele>192.792707</ele>
        <time>2023-01-04T15:06:32.105Z</time>
      </trkpt>
      <trkpt lat="43.29138" lon="2.01193">
        <ele>192.760285</ele>
        <time>2023-01-04T15:06:34.122Z</time>
      </trkpt>
      <trkpt lat="43.29135" lon="2.01205">
        <ele>192.729763</ele>
        <time>2023-01-04T15:06:36.108Z</time>
      </trkpt>
      <trkpt lat="43.29132" lon="2.01218">
        <ele>192.69817</ele>
        <time>2023-01-04T15:06:38.102Z</time>
      </trkpt>
      <trkpt lat="43.29129" lon="2.01235">
        <ele>192.654158</ele>
        <time>2023-01-04T15:06:41.095Z</time>
      </trkpt>
      <trkpt lat="43.29125" lon="2.01251">
        <ele>192.612793</ele>
        <time>2023-01-04T15:06:44.119Z</time>
      </trkpt>
      <trkpt lat="43.2912" lon="2.01268">
        <ele>192.567711</ele>
        <time>2023-01-04T15:06:47.119Z</time>
      </trkpt>
      <trkpt lat="43.29117" lon="2.0128">
        <ele>192.494423</ele>
        <time>2023-01-04T15:06:49.120Z</time>
      </trkpt>
      <trkpt lat="43.29114" lon="2.01291">
        <ele>192.404239</ele>
        <time>2023-01-04T15:06:51.089Z</time>
      </trkpt>
      <trkpt lat="43.2911" lon="2.01303">
        <ele>192.307318</ele>
        <time>2023-01-04T15:06:53.093Z</time>
      </trkpt>
      <trkpt lat="43.29106" lon="2.01315">
        <ele>192.216821</ele>
        <time>2023-01-04T15:06:55.120Z</time>
      </trkpt>
      <trkpt lat="43.29103" lon="2.01327">
        <ele>192.120924</ele>
        <time>2023-01-04T15:06:57.104Z</time>
      </trkpt>
      <trkpt lat="43.291" lon="2.01339">
        <ele>192.026603</ele>
        <time>2023-01-04T15:06:59.098Z</time>
      </trkpt>
      <trkpt lat="43.29096" lon="2.01351">
        <ele>191.929479</ele>
        <time>2023-01-04T15:07:01.092Z</time>
      </trkpt>
      <trkpt lat="43.29092" lon="2.01363">
        <ele>191.837233</ele>
        <time>2023-01-04T15:07:03.106Z</time>
      </trkpt>
      <trkpt lat="43.29088" lon="2.01374">
        <ele>191.745586</ele>
        <time>2023-01-04T15:07:05.120Z</time>
      </trkpt>
      <trkpt lat="43.29085" lon="2.01386">
        <ele>191.653422</ele>
        <time>2023-01-04T15:07:07.121Z</time>
      </trkpt>
      <trkpt lat="43.29082" lon="2.01398">
        <ele>191.558545</ele>
        <time>2023-01-04T15:07:09.098Z</time>
      </trkpt>
      <trkpt lat="43.29078" lon="2.0141">
        <ele>191.467967</ele>
        <time>2023-01-04T15:07:11.099Z</time>
      </trkpt>
      <trkpt lat="43.29073" lon="2.01427">
        <ele>191.331976</ele>
        <time>2023-01-04T15:07:14.121Z</time>
      </trkpt>
      <trkpt lat="43.29069" lon="2.01444">
        <ele>191.199066</ele>
        <time>2023-01-04T15:07:17.118Z</time>
      </trkpt>
      <trkpt lat="43.29065" lon="2.01457">
        <ele>191.10283</ele>
        <time>2023-01-04T15:07:19.102Z</time>
      </trkpt>
      <trkpt lat="43.29062" lon="2.01468">
        <ele>191.00811</ele>
        <time>2023-01-04T15:07:21.098Z</time>
      </trkpt>
      <trkpt lat="43.29057" lon="2.01486">
        <ele>190.873859</ele>
        <time>2023-01-04T15:07:24.119Z</time>
      </trkpt>
      <trkpt lat="43.29051" lon="2.01502">
        <ele>190.736466</ele>
        <time>2023-01-04T15:07:27.119Z</time>
      </trkpt>
      <trkpt lat="43.29048" lon="2.01514">
        <ele>190.603765</ele>
        <time>2023-01-04T15:07:30.095Z</time>
      </trkpt>
      <trkpt lat="43.29043" lon="2.01527">
        <ele>190.452369</ele>
        <time>2023-01-04T15:07:33.098Z</time>
      </trkpt>
      <trkpt lat="43.29039" lon="2.01542">
        <ele>190.285716</ele>
        <time>2023-01-04T15:07:36.116Z</time>
      </trkpt>
      <trkpt lat="43.29033" lon="2.01558">
        <ele>190.106903</ele>
        <time>2023-01-04T15:07:39.102Z</time>
      </trkpt>
      <trkpt lat="43.29028" lon="2.01569">
        <ele>189.972492</ele>
        <time>2023-01-04T15:07:41.091Z</time>
      </trkpt>
      <trkpt lat="43.29022" lon="2.01585">
        <ele>189.790916</ele>
        <time>2023-01-04T15:07:44.102Z</time>
      </trkpt>
      <trkpt lat="43.29019" lon="2.016">
        <ele>189.626764</ele>
        <time>2023-01-04T15:07:47.119Z</time>
      </trkpt>
      <trkpt lat="43.29019" lon="2.01614">
        <ele>189.483072</ele>
        <time>2023-01-04T15:07:51.108Z</time>
      </trkpt>
      <trkpt lat="43.29015" lon="2.01627">
        <ele>189.341233</ele>
        <time>2023-01-04T15:07:54.110Z</time>
      </trkpt>
      <trkpt lat="43.29011" lon="2.01644">
        <ele>189.153919</ele>
        <time>2023-01-04T15:07:57.095Z</time>
      </trkpt>
      <trkpt lat="43.29007" lon="2.01657">
        <ele>189.015066</ele>
        <time>2023-01-04T15:07:59.123Z</time>
      </trkpt>
      <trkpt lat="43.29003" lon="2.0167">
        <ele>188.868613</ele>
        <time>2023-01-04T15:08:01.096Z</time>
      </trkpt>
      <trkpt lat="43.28999" lon="2.01683">
        <ele>188.720533</ele>
        <time>2023-01-04T15:08:03.119Z</time>
      </trkpt>
      <trkpt lat="43.28995" lon="2.01697">
        <ele>188.561361</ele>
        <time>2023-01-04T15:08:05.102Z</time>
      </trkpt>
      <trkpt lat="43.28992" lon="2.0171">
        <ele>188.42472</ele>
        <time>2023-01-04T15:08:07.091Z</time>
      </trkpt>
      <trkpt lat="43.28989" lon="2.01722">
        <ele>188.287665</ele>
        <time>2023-01-04T15:08:09.100Z</time>
      </trkpt>
      <trkpt lat="43.28986" lon="2.01734">
        <ele>188.1865</ele>
        <time>2023-01-04T15:08:11.110Z</time>
      </trkpt>
      <trkpt lat="43.2898" lon="2.0175">
        <ele>188.099774</ele>
        <time>2023-01-04T15:08:14.098Z</time>
      </trkpt>
      <trkpt lat="43.28976" lon="2.01766">
        <ele>188.015064</ele>
        <time>2023-01-04T15:08:17.098Z</time>
      </trkpt>
      <trkpt lat="43.2897" lon="2.0178">
        <ele>187.933769</ele>
        <time>2023-01-04T15:08:20.118Z</time>
      </trkpt>
      <trkpt lat="43.28967" lon="2.01794">
        <ele>187.861375</ele>
        <time>2023-01-04T15:08:23.106Z</time>
      </trkpt>
      <trkpt lat="43.28963" lon="2.01807">
        <ele>187.79111</ele>
        <time>2023-01-04T15:08:26.116Z</time>
      </trkpt>
      <trkpt lat="43.28959" lon="2.01819">
        <ele>187.726458</ele>
        <time>2023-01-04T15:08:29.098Z</time>
      </trkpt>
      <trkpt lat="43.28955" lon="2.01832">
        <ele>187.655495</ele>
        <time>2023-01-04T15:08:32.119Z</time>
      </trkpt>
      <trkpt lat="43.28951" lon="2.01845">
        <ele>187.584443</ele>
        <time>2023-01-04T15:08:35.097Z</time>
      </trkpt>
      <trkpt lat="43.28947" lon="2.01858">
        <ele>187.511472</ele>
        <time>2023-01-04T15:08:38.108Z</time>
      </trkpt>
      <trkpt lat="43.28942" lon="2.01872">
        <ele>187.432819</ele>
        <time>2023-01-04T15:08:41.110Z</time>
      </trkpt>
      <trkpt lat="43.28937" lon="2.01888">
        <ele>187.34956</ele>
        <time>2023-01-04T15:08:44.117Z</time>
      </trkpt>
      <trkpt lat="43.28932" lon="2.01903">
        <ele>187.263929</ele>
        <time>2023-01-04T15:08:47.105Z</time>
      </trkpt>
      <trkpt lat="43.28927" lon="2.01919">
        <ele>187.17803</ele>
        <time>2023-01-04T15:08:50.118Z</time>
      </trkpt>
      <trkpt lat="43.28922" lon="2.01936">
        <ele>187.088831</ele>
        <time>2023-01-04T15:08:53.114Z</time>
      </trkpt>
      <trkpt lat="43.28917" lon="2.01952">
        <ele>187.000909</ele>
        <time>2023-01-04T15:08:56.109Z</time>
      </trkpt>
      <trkpt lat="43.28912" lon="2.01968">
        <ele>186.876344</ele>
        <time>2023-01-04T15:08:59.113Z</time>
      </trkpt>
      <trkpt lat="43.28907" lon="2.01985">
        <ele>186.740788</ele>
        <time>2023-01-04T15:09:02.102Z</time>
      </trkpt>
      <trkpt lat="43.28903" lon="2.02">
        <ele>186.617947</ele>
        <time>2023-01-04T15:09:05.106Z</time>
      </trkpt>
      <trkpt lat="43.289" lon="2.02012">
        <ele>186.520007</ele>
        <time>2023-01-04T15:09:08.097Z</time>
      </trkpt>
      <trkpt lat="43.28895" lon="2.02028">
        <ele>186.395683</ele>
        <time>2023-01-04T15:09:12.120Z</time>
      </trkpt>
      <trkpt lat="43.28891" lon="2.02041">
        <ele>186.28669</ele>
        <time>2023-01-04T15:09:15.098Z</time>
      </trkpt>
      <trkpt lat="43.28887" lon="2.02057">
        <ele>186.160618</ele>
        <time>2023-01-04T15:09:18.108Z</time>
      </trkpt>
      <trkpt lat="43.28884" lon="2.02072">
        <ele>186.041546</ele>
        <time>2023-01-04T15:09:21.099Z</time>
      </trkpt>
      <trkpt lat="43.2888" lon="2.02089">
        <ele>185.90599</ele>
        <time>2023-01-04T15:09:24.108Z</time>
      </trkpt>
      <trkpt lat="43.28877" lon="2.02101">
        <ele>185.812304</ele>
        <time>2023-01-04T15:09:26.094Z</time>
      </trkpt>
      <trkpt lat="43.28873" lon="2.02112">
        <ele>185.718723</ele>
        <time>2023-01-04T15:09:28.105Z</time>
      </trkpt>
      <trkpt lat="43.28869" lon="2.02124">
        <ele>185.617111</ele>
        <time>2023-01-04T15:09:30.097Z</time>
      </trkpt>
      <trkpt lat="43.28866" lon="2.02137">
        <ele>185.514549</ele>
        <time>2023-01-04T15:09:32.105Z</time>
      </trkpt>
      <trkpt lat="43.28862" lon="2.02151">
        <ele>185.402278</ele>
        <time>2023-01-04T15:09:34.091Z</time>
      </trkpt>
      <trkpt lat="43.28857" lon="2.02164">
        <ele>185.291396</ele>
        <time>2023-01-04T15:09:36.101Z</time>
      </trkpt>
      <trkpt lat="43.28854" lon="2.02177">
        <ele>185.187068</ele>
        <time>2023-01-04T15:09:38.093Z</time>
      </trkpt>
      <trkpt lat="43.2885" lon="2.0219">
        <ele>185.149084</ele>
        <time>2023-01-04T15:09:40.097Z</time>
      </trkpt>
      <trkpt lat="43.28847" lon="2.02203">
        <ele>185.274782</ele>
        <time>2023-01-04T15:09:42.114Z</time>
      </trkpt>
      <trkpt lat="43.28844" lon="2.02215">
        <ele>185.399549</ele>
        <time>2023-01-04T15:09:44.111Z</time>
      </trkpt>
      <trkpt lat="43.28841" lon="2.02227">
        <ele>185.524335</ele>
        <time>2023-01-04T15:09:46.096Z</time>
      </trkpt>
      <trkpt lat="43.28837" lon="2.02239">
        <ele>185.652754</ele>
        <time>2023-01-04T15:09:48.106Z</time>
      </trkpt>
      <trkpt lat="43.28834" lon="2.02252">
        <ele>185.780662</ele>
        <time>2023-01-04T15:09:50.098Z</time>
      </trkpt>
      <trkpt lat="43.28831" lon="2.02265">
        <ele>185.910428</ele>
        <time>2023-01-04T15:09:52.096Z</time>
      </trkpt>
      <trkpt lat="43.28828" lon="2.02278">
        <ele>186.040195</ele>
        <time>2023-01-04T15:09:54.104Z</time>
      </trkpt>
      <trkpt lat="43.28825" lon="2.0229">
        <ele>186.167844</ele>
        <time>2023-01-04T15:09:56.102Z</time>
      </trkpt>
      <trkpt lat="43.28822" lon="2.02303">
        <ele>186.292348</ele>
        <time>2023-01-04T15:09:58.101Z</time>
      </trkpt>
      <trkpt lat="43.28819" lon="2.02314">
        <ele>186.413297</ele>
        <time>2023-01-04T15:10:00.107Z</time>
      </trkpt>
      <trkpt lat="43.28817" lon="2.02326">
        <ele>186.5321</ele>
        <time>2023-01-04T15:10:02.111Z</time>
      </trkpt>
      <trkpt lat="43.28814" lon="2.02344">
        <ele>186.711592</ele>
        <time>2023-01-04T15:10:05.102Z</time>
      </trkpt>
      <trkpt lat="43.28811" lon="2.02358">
        <ele>186.841856</ele>
        <time>2023-01-04T15:10:07.098Z</time>
      </trkpt>
      <trkpt lat="43.2881" lon="2.0237">
        <ele>186.963724</ele>
        <time>2023-01-04T15:10:09.107Z</time>
      </trkpt>
      <trkpt lat="43.28809" lon="2.02383">
        <ele>187.089188</ele>
        <time>2023-01-04T15:10:11.097Z</time>
      </trkpt>
      <trkpt lat="43.28807" lon="2.02396">
        <ele>187.216017</ele>
        <time>2023-01-04T15:10:13.104Z</time>
      </trkpt>
      <trkpt lat="43.28805" lon="2.02408">
        <ele>187.337159</ele>
        <time>2023-01-04T15:10:15.109Z</time>
      </trkpt>
      <trkpt lat="43.28803" lon="2.0242">
        <ele>187.456199</ele>
        <time>2023-01-04T15:10:17.109Z</time>
      </trkpt>
      <trkpt lat="43.28801" lon="2.02437">
        <ele>187.508226</ele>
        <time>2023-01-04T15:10:20.114Z</time>
      </trkpt>
      <trkpt lat="43.28801" lon="2.02451">
        <ele>187.528584</ele>
        <time>2023-01-04T15:10:23.102Z</time>
      </trkpt>
      <trkpt lat="43.288" lon="2.02465">
        <ele>187.547963</ele>
        <time>2023-01-04T15:10:26.115Z</time>
      </trkpt>
      <trkpt lat="43.28798" lon="2.02478">
        <ele>187.567746</ele>
        <time>2023-01-04T15:10:29.099Z</time>
      </trkpt>
      <trkpt lat="43.28795" lon="2.02493">
        <ele>187.58909</ele>
        <time>2023-01-04T15:10:32.105Z</time>
      </trkpt>
      <trkpt lat="43.28792" lon="2.02507">
        <ele>187.610713</ele>
        <time>2023-01-04T15:10:35.104Z</time>
      </trkpt>
      <trkpt lat="43.28788" lon="2.02521">
        <ele>187.632588</ele>
        <time>2023-01-04T15:10:38.114Z</time>
      </trkpt>
      <trkpt lat="43.28785" lon="2.02534">
        <ele>187.652186</ele>
        <time>2023-01-04T15:10:41.097Z</time>
      </trkpt>
      <trkpt lat="43.2878" lon="2.02548">
        <ele>187.674906</ele>
        <time>2023-01-04T15:10:44.116Z</time>
      </trkpt>
      <trkpt lat="43.28773" lon="2.02561">
        <ele>187.697289</ele>
        <time>2023-01-04T15:10:47.116Z</time>
      </trkpt>
      <trkpt lat="43.28766" lon="2.02575">
        <ele>187.722928</ele>
        <time>2023-01-04T15:10:50.103Z</time>
      </trkpt>
      <trkpt lat="43.28759" lon="2.0259">
        <ele>187.748338</ele>
        <time>2023-01-04T15:10:53.119Z</time>
      </trkpt>
      <trkpt lat="43.28752" lon="2.02606">
        <ele>187.774696</ele>
        <time>2023-01-04T15:10:56.113Z</time>
      </trkpt>
      <trkpt lat="43.28745" lon="2.0262">
        <ele>187.799558</ele>
        <time>2023-01-04T15:10:59.094Z</time>
      </trkpt>
      <trkpt lat="43.28739" lon="2.02634">
        <ele>187.822875</ele>
        <time>2023-01-04T15:11:02.103Z</time>
      </trkpt>
      <trkpt lat="43.28734" lon="2.02647">
        <ele>187.844176</ele>
        <time>2023-01-04T15:11:05.112Z</time>
      </trkpt>
      <trkpt lat="43.28729" lon="2.02661">
        <ele>187.911859</ele>
        <time>2023-01-04T15:11:08.115Z</time>
      </trkpt>
      <trkpt lat="43.28724" lon="2.02675">
        <ele>187.983909</ele>
        <time>2023-01-04T15:11:11.113Z</time>
      </trkpt>
      <trkpt lat="43.28719" lon="2.02691">
        <ele>188.058543</ele>
        <time>2023-01-04T15:11:14.116Z</time>
      </trkpt>
      <trkpt lat="43.28715" lon="2.02707">
        <ele>188.134125</ele>
        <time>2023-01-04T15:11:17.118Z</time>
      </trkpt>
      <trkpt lat="43.28711" lon="2.02723">
        <ele>188.207747</ele>
        <time>2023-01-04T15:11:20.101Z</time>
      </trkpt>
      <trkpt lat="43.28708" lon="2.0274">
        <ele>188.285014</ele>
        <time>2023-01-04T15:11:23.120Z</time>
      </trkpt>
      <trkpt lat="43.28704" lon="2.02756">
        <ele>188.356711</ele>
        <time>2023-01-04T15:11:26.118Z</time>
      </trkpt>
      <trkpt lat="43.28701" lon="2.02769">
        <ele>188.419512</ele>
        <time>2023-01-04T15:11:29.105Z</time>
      </trkpt>
      <trkpt lat="43.28698" lon="2.02782">
        <ele>188.479352</ele>
        <time>2023-01-04T15:11:32.112Z</time>
      </trkpt>
      <trkpt lat="43.28694" lon="2.02794">
        <ele>188.538409</ele>
        <time>2023-01-04T15:11:35.116Z</time>
      </trkpt>
      <trkpt lat="43.2869" lon="2.02806">
        <ele>188.595501</ele>
        <time>2023-01-04T15:11:38.105Z</time>
      </trkpt>
      <trkpt lat="43.28685" lon="2.02817">
        <ele>188.654414</ele>
        <time>2023-01-04T15:11:41.099Z</time>
      </trkpt>
      <trkpt lat="43.28682" lon="2.02829">
        <ele>188.71001</ele>
        <time>2023-01-04T15:11:44.119Z</time>
      </trkpt>
      <trkpt lat="43.2868" lon="2.02844">
        <ele>188.776399</ele>
        <time>2023-01-04T15:11:48.116Z</time>
      </trkpt>
      <trkpt lat="43.28679" lon="2.02857">
        <ele>188.831816</ele>
        <time>2023-01-04T15:11:51.105Z</time>
      </trkpt>
      <trkpt lat="43.28678" lon="2.02872">
        <ele>188.900145</ele>
        <time>2023-01-04T15:11:55.097Z</time>
      </trkpt>
      <trkpt lat="43.28678" lon="2.02886">
        <ele>188.887868</ele>
        <time>2023-01-04T15:11:58.110Z</time>
      </trkpt>
      <trkpt lat="43.28674" lon="2.02901">
        <ele>188.764716</ele>
        <time>2023-01-04T15:12:01.100Z</time>
      </trkpt>
      <trkpt lat="43.2867" lon="2.02918">
        <ele>188.628944</ele>
        <time>2023-01-04T15:12:04.122Z</time>
      </trkpt>
      <trkpt lat="43.28667" lon="2.0293">
        <ele>188.532122</ele>
        <time>2023-01-04T15:12:06.106Z</time>
      </trkpt>
      <trkpt lat="43.28664" lon="2.02948">
        <ele>188.395997</ele>
        <time>2023-01-04T15:12:09.117Z</time>
      </trkpt>
      <trkpt lat="43.2866" lon="2.02964">
        <ele>188.270133</ele>
        <time>2023-01-04T15:12:12.116Z</time>
      </trkpt>
      <trkpt lat="43.28657" lon="2.02979">
        <ele>188.147676</ele>
        <time>2023-01-04T15:12:15.118Z</time>
      </trkpt>
      <trkpt lat="43.28653" lon="2.02995">
        <ele>188.023803</ele>
        <time>2023-01-04T15:12:18.119Z</time>
      </trkpt>
      <trkpt lat="43.2865" lon="2.03011">
        <ele>187.897618</ele>
        <time>2023-01-04T15:12:21.100Z</time>
      </trkpt>
      <trkpt lat="43.28647" lon="2.03028">
        <ele>187.769699</ele>
        <time>2023-01-04T15:12:24.121Z</time>
      </trkpt>
      <trkpt lat="43.28644" lon="2.03044">
        <ele>187.645791</ele>
        <time>2023-01-04T15:12:27.099Z</time>
      </trkpt>
      <trkpt lat="43.28641" lon="2.0306">
        <ele>187.520152</ele>
        <time>2023-01-04T15:12:30.102Z</time>
      </trkpt>
      <trkpt lat="43.28637" lon="2.03077">
        <ele>187.385568</ele>
        <time>2023-01-04T15:12:33.111Z</time>
      </trkpt>
      <trkpt lat="43.28633" lon="2.03094">
        <ele>187.250783</ele>
        <time>2023-01-04T15:12:36.101Z</time>
      </trkpt>
      <trkpt lat="43.28629" lon="2.03111">
        <ele>187.11606</ele>
        <time>2023-01-04T15:12:39.118Z</time>
      </trkpt>
      <trkpt lat="43.28626" lon="2.03123">
        <ele>187.127171</ele>
        <time>2023-01-04T15:12:41.100Z</time>
      </trkpt>
      <trkpt lat="43.28623" lon="2.0314">
        <ele>187.295434</ele>
        <time>2023-01-04T15:12:44.119Z</time>
      </trkpt>
      <trkpt lat="43.2862" lon="2.03158">
        <ele>187.464026</ele>
        <time>2023-01-04T15:12:47.119Z</time>
      </trkpt>
      <trkpt lat="43.28617" lon="2.03175">
        <ele>187.62926</ele>
        <time>2023-01-04T15:12:50.113Z</time>
      </trkpt>
      <trkpt lat="43.28612" lon="2.0319">
        <ele>187.779494</ele>
        <time>2023-01-04T15:12:53.095Z</time>
      </trkpt>
      <trkpt lat="43.28608" lon="2.03206">
        <ele>187.935793</ele>
        <time>2023-01-04T15:12:56.131Z</time>
      </trkpt>
      <trkpt lat="43.28604" lon="2.03224">
        <ele>188.106315</ele>
        <time>2023-01-04T15:12:59.101Z</time>
      </trkpt>
      <trkpt lat="43.28601" lon="2.03236">
        <ele>188.223124</ele>
        <time>2023-01-04T15:13:01.110Z</time>
      </trkpt>
      <trkpt lat="43.28598" lon="2.03248">
        <ele>188.337932</ele>
        <time>2023-01-04T15:13:03.115Z</time>
      </trkpt>
      <trkpt lat="43.28596" lon="2.0326">
        <ele>188.453995</ele>
        <time>2023-01-04T15:13:05.108Z</time>
      </trkpt>
      <trkpt lat="43.28593" lon="2.03272">
        <ele>188.56908</ele>
        <time>2023-01-04T15:13:07.117Z</time>
      </trkpt>
      <trkpt lat="43.28589" lon="2.03284">
        <ele>188.688536</ele>
        <time>2023-01-04T15:13:09.109Z</time>
      </trkpt>
      <trkpt lat="43.28587" lon="2.03296">
        <ele>188.803532</ele>
        <time>2023-01-04T15:13:11.107Z</time>
      </trkpt>
      <trkpt lat="43.28585" lon="2.03308">
        <ele>188.918528</ele>
        <time>2023-01-04T15:13:13.119Z</time>
      </trkpt>
      <trkpt lat="43.2858" lon="2.03324">
        <ele>189.078929</ele>
        <time>2023-01-04T15:13:16.120Z</time>
      </trkpt>
      <trkpt lat="43.28574" lon="2.03339">
        <ele>189.23439</ele>
        <time>2023-01-04T15:13:19.106Z</time>
      </trkpt>
      <trkpt lat="43.2857" lon="2.03353">
        <ele>189.287752</ele>
        <time>2023-01-04T15:13:22.100Z</time>
      </trkpt>
      <trkpt lat="43.28564" lon="2.03369">
        <ele>188.892259</ele>
        <time>2023-01-04T15:13:25.113Z</time>
      </trkpt>
      <trkpt lat="43.28559" lon="2.03384">
        <ele>188.511009</ele>
        <time>2023-01-04T15:13:28.107Z</time>
      </trkpt>
      <trkpt lat="43.28553" lon="2.03394">
        <ele>188.230725</ele>
        <time>2023-01-04T15:13:30.097Z</time>
      </trkpt>
      <trkpt lat="43.28547" lon="2.03403">
        <ele>187.950276</ele>
        <time>2023-01-04T15:13:32.104Z</time>
      </trkpt>
      <trkpt lat="43.28544" lon="2.03415">
        <ele>187.662678</ele>
        <time>2023-01-04T15:13:34.121Z</time>
      </trkpt>
      <trkpt lat="43.28542" lon="2.03432">
        <ele>187.291938</ele>
        <time>2023-01-04T15:13:37.102Z</time>
      </trkpt>
      <trkpt lat="43.28539" lon="2.03446">
        <ele>186.949794</ele>
        <time>2023-01-04T15:13:40.097Z</time>
      </trkpt>
      <trkpt lat="43.28537" lon="2.03462">
        <ele>186.593439</ele>
        <time>2023-01-04T15:13:43.107Z</time>
      </trkpt>
      <trkpt lat="43.28533" lon="2.03474">
        <ele>186.299548</ele>
        <time>2023-01-04T15:13:45.098Z</time>
      </trkpt>
      <trkpt lat="43.28529" lon="2.03487">
        <ele>185.982434</ele>
        <time>2023-01-04T15:13:47.105Z</time>
      </trkpt>
      <trkpt lat="43.28524" lon="2.035">
        <ele>185.651167</ele>
        <time>2023-01-04T15:13:49.100Z</time>
      </trkpt>
      <trkpt lat="43.2852" lon="2.03515">
        <ele>185.293594</ele>
        <time>2023-01-04T15:13:51.099Z</time>
      </trkpt>
      <trkpt lat="43.28516" lon="2.03528">
        <ele>184.979659</ele>
        <time>2023-01-04T15:13:53.107Z</time>
      </trkpt>
      <trkpt lat="43.28513" lon="2.03542">
        <ele>184.647634</ele>
        <time>2023-01-04T15:13:55.111Z</time>
      </trkpt>
      <trkpt lat="43.28509" lon="2.03554">
        <ele>184.35356</ele>
        <time>2023-01-04T15:13:57.103Z</time>
      </trkpt>
      <trkpt lat="43.28505" lon="2.03566">
        <ele>184.056036</ele>
        <time>2023-01-04T15:13:59.119Z</time>
      </trkpt>
      <trkpt lat="43.28502" lon="2.03577">
        <ele>183.788337</ele>
        <time>2023-01-04T15:14:01.105Z</time>
      </trkpt>
      <trkpt lat="43.28498" lon="2.03589">
        <ele>183.705647</ele>
        <time>2023-01-04T15:14:03.104Z</time>
      </trkpt>
      <trkpt lat="43.28495" lon="2.03601">
        <ele>183.621853</ele>
        <time>2023-01-04T15:14:05.100Z</time>
      </trkpt>
      <trkpt lat="43.28492" lon="2.03614">
        <ele>183.536825</ele>
        <time>2023-01-04T15:14:07.117Z</time>
      </trkpt>
      <trkpt lat="43.28488" lon="2.03626">
        <ele>183.451267</ele>
        <time>2023-01-04T15:14:09.101Z</time>
      </trkpt>
      <trkpt lat="43.28485" lon="2.03638">
        <ele>183.370884</ele>
        <time>2023-01-04T15:14:11.111Z</time>
      </trkpt>
      <trkpt lat="43.28481" lon="2.0365">
        <ele>183.281572</ele>
        <time>2023-01-04T15:14:13.118Z</time>
      </trkpt>
      <trkpt lat="43.28477" lon="2.03662">
        <ele>183.197802</ele>
        <time>2023-01-04T15:14:15.102Z</time>
      </trkpt>
      <trkpt lat="43.28472" lon="2.03679">
        <ele>183.080991</ele>
        <time>2023-01-04T15:14:18.120Z</time>
      </trkpt>
      <trkpt lat="43.28468" lon="2.03695">
        <ele>182.971806</ele>
        <time>2023-01-04T15:14:21.100Z</time>
      </trkpt>
      <trkpt lat="43.28463" lon="2.03711">
        <ele>182.859933</ele>
        <time>2023-01-04T15:14:24.125Z</time>
      </trkpt>
      <trkpt lat="43.28457" lon="2.03728">
        <ele>182.738193</ele>
        <time>2023-01-04T15:14:27.118Z</time>
      </trkpt>
      <trkpt lat="43.28454" lon="2.0374">
        <ele>182.654796</ele>
        <time>2023-01-04T15:14:29.107Z</time>
      </trkpt>
      <trkpt lat="43.28451" lon="2.03753">
        <ele>182.568976</ele>
        <time>2023-01-04T15:14:31.107Z</time>
      </trkpt>
      <trkpt lat="43.28446" lon="2.03765">
        <ele>182.480118</ele>
        <time>2023-01-04T15:14:33.102Z</time>
      </trkpt>
      <trkpt lat="43.28442" lon="2.03777">
        <ele>182.392803</ele>
        <time>2023-01-04T15:14:35.114Z</time>
      </trkpt>
      <trkpt lat="43.28439" lon="2.03791">
        <ele>182.299095</ele>
        <time>2023-01-04T15:14:37.113Z</time>
      </trkpt>
      <trkpt lat="43.28435" lon="2.03804">
        <ele>182.209875</ele>
        <time>2023-01-04T15:14:39.105Z</time>
      </trkpt>
      <trkpt lat="43.28431" lon="2.03817">
        <ele>182.19471</ele>
        <time>2023-01-04T15:14:41.106Z</time>
      </trkpt>
      <trkpt lat="43.28426" lon="2.0383">
        <ele>182.19002</ele>
        <time>2023-01-04T15:14:43.101Z</time>
      </trkpt>
      <trkpt lat="43.28423" lon="2.03842">
        <ele>182.185565</ele>
        <time>2023-01-04T15:14:45.122Z</time>
      </trkpt>
      <trkpt lat="43.28419" lon="2.03854">
        <ele>182.180944</ele>
        <time>2023-01-04T15:14:47.100Z</time>
      </trkpt>
      <trkpt lat="43.28415" lon="2.03866">
        <ele>182.176488</ele>
        <time>2023-01-04T15:14:49.121Z</time>
      </trkpt>
      <trkpt lat="43.28411" lon="2.03878">
        <ele>182.17196</ele>
        <time>2023-01-04T15:14:51.105Z</time>
      </trkpt>
      <trkpt lat="43.28406" lon="2.03891">
        <ele>182.16719</ele>
        <time>2023-01-04T15:14:53.098Z</time>
      </trkpt>
      <trkpt lat="43.28402" lon="2.03904">
        <ele>182.162338</ele>
        <time>2023-01-04T15:14:55.099Z</time>
      </trkpt>
      <trkpt lat="43.28397" lon="2.03918">
        <ele>182.157339</ele>
        <time>2023-01-04T15:14:57.105Z</time>
      </trkpt>
      <trkpt lat="43.28393" lon="2.0393">
        <ele>182.152718</ele>
        <time>2023-01-04T15:14:59.106Z</time>
      </trkpt>
      <trkpt lat="43.2839" lon="2.03943">
        <ele>182.147834</ele>
        <time>2023-01-04T15:15:01.099Z</time>
      </trkpt>
      <trkpt lat="43.28385" lon="2.03957">
        <ele>182.142928</ele>
        <time>2023-01-04T15:15:03.117Z</time>
      </trkpt>
      <trkpt lat="43.28381" lon="2.0397">
        <ele>182.137933</ele>
        <time>2023-01-04T15:15:05.103Z</time>
      </trkpt>
      <trkpt lat="43.28377" lon="2.03983">
        <ele>182.133175</ele>
        <time>2023-01-04T15:15:07.125Z</time>
      </trkpt>
      <trkpt lat="43.28373" lon="2.03997">
        <ele>182.128207</ele>
        <time>2023-01-04T15:15:09.095Z</time>
      </trkpt>
      <trkpt lat="43.28368" lon="2.0401">
        <ele>182.123252</ele>
        <time>2023-01-04T15:15:11.093Z</time>
      </trkpt>
      <trkpt lat="43.28363" lon="2.04023">
        <ele>182.118289</ele>
        <time>2023-01-04T15:15:13.119Z</time>
      </trkpt>
      <trkpt lat="43.28359" lon="2.04035">
        <ele>182.142398</ele>
        <time>2023-01-04T15:15:15.109Z</time>
      </trkpt>
      <trkpt lat="43.28356" lon="2.04049">
        <ele>182.214107</ele>
        <time>2023-01-04T15:15:17.098Z</time>
      </trkpt>
      <trkpt lat="43.28352" lon="2.04061">
        <ele>182.283904</ele>
        <time>2023-01-04T15:15:19.109Z</time>
      </trkpt>
      <trkpt lat="43.28347" lon="2.04074">
        <ele>182.356311</ele>
        <time>2023-01-04T15:15:21.103Z</time>
      </trkpt>
      <trkpt lat="43.28343" lon="2.04087">
        <ele>182.429486</ele>
        <time>2023-01-04T15:15:23.119Z</time>
      </trkpt>
      <trkpt lat="43.28338" lon="2.041">
        <ele>182.506063</ele>
        <time>2023-01-04T15:15:25.130Z</time>
      </trkpt>
      <trkpt lat="43.28333" lon="2.04114">
        <ele>182.583683</ele>
        <time>2023-01-04T15:15:27.104Z</time>
      </trkpt>
      <trkpt lat="43.28328" lon="2.04126">
        <ele>182.656711</ele>
        <time>2023-01-04T15:15:29.121Z</time>
      </trkpt>
      <trkpt lat="43.28324" lon="2.04138">
        <ele>182.723745</ele>
        <time>2023-01-04T15:15:31.095Z</time>
      </trkpt>
      <trkpt lat="43.28318" lon="2.04154">
        <ele>182.811139</ele>
        <time>2023-01-04T15:15:34.094Z</time>
      </trkpt>
      <trkpt lat="43.28313" lon="2.04169">
        <ele>182.89717</ele>
        <time>2023-01-04T15:15:37.120Z</time>
      </trkpt>
      <trkpt lat="43.28307" lon="2.04184">
        <ele>182.984406</ele>
        <time>2023-01-04T15:15:40.100Z</time>
      </trkpt>
      <trkpt lat="43.28302" lon="2.042">
        <ele>183.076232</ele>
        <time>2023-01-04T15:15:43.115Z</time>
      </trkpt>
      <trkpt lat="43.28296" lon="2.04216">
        <ele>183.165311</ele>
        <time>2023-01-04T15:15:46.120Z</time>
      </trkpt>
      <trkpt lat="43.28291" lon="2.04231">
        <ele>183.247908</ele>
        <time>2023-01-04T15:15:49.105Z</time>
      </trkpt>
      <trkpt lat="43.28287" lon="2.04244">
        <ele>183.323111</ele>
        <time>2023-01-04T15:15:52.117Z</time>
      </trkpt>
      <trkpt lat="43.28283" lon="2.04256">
        <ele>183.37913</ele>
        <time>2023-01-04T15:15:55.097Z</time>
      </trkpt>
      <trkpt lat="43.2828" lon="2.04271">
        <ele>183.396207</ele>
        <time>2023-01-04T15:15:59.098Z</time>
      </trkpt>
      <trkpt lat="43.28279" lon="2.04284">
        <ele>183.41046</ele>
        <time>2023-01-04T15:16:02.115Z</time>
      </trkpt>
      <trkpt lat="43.28276" lon="2.04299">
        <ele>183.426904</ele>
        <time>2023-01-04T15:16:05.116Z</time>
      </trkpt>
      <trkpt lat="43.2827" lon="2.04311">
        <ele>183.443613</ele>
        <time>2023-01-04T15:16:08.116Z</time>
      </trkpt>
      <trkpt lat="43.28263" lon="2.04324">
        <ele>183.460738</ele>
        <time>2023-01-04T15:16:11.110Z</time>
      </trkpt>
      <trkpt lat="43.28257" lon="2.04339">
        <ele>183.478376</ele>
        <time>2023-01-04T15:16:14.106Z</time>
      </trkpt>
      <trkpt lat="43.28253" lon="2.04354">
        <ele>183.496495</ele>
        <time>2023-01-04T15:16:17.110Z</time>
      </trkpt>
      <trkpt lat="43.28248" lon="2.04369">
        <ele>183.513958</ele>
        <time>2023-01-04T15:16:20.104Z</time>
      </trkpt>
      <trkpt lat="43.28244" lon="2.04383">
        <ele>183.531058</ele>
        <time>2023-01-04T15:16:23.110Z</time>
      </trkpt>
      <trkpt lat="43.28239" lon="2.04398">
        <ele>183.548486</ele>
        <time>2023-01-04T15:16:26.103Z</time>
      </trkpt>
      <trkpt lat="43.28234" lon="2.04414">
        <ele>183.567642</ele>
        <time>2023-01-04T15:16:29.103Z</time>
      </trkpt>
      <trkpt lat="43.28227" lon="2.0443">
        <ele>183.587715</ele>
        <time>2023-01-04T15:16:32.110Z</time>
      </trkpt>
      <trkpt lat="43.28223" lon="2.04442">
        <ele>183.601855</ele>
        <time>2023-01-04T15:16:34.110Z</time>
      </trkpt>
      <trkpt lat="43.28219" lon="2.04455">
        <ele>183.617034</ele>
        <time>2023-01-04T15:16:36.101Z</time>
      </trkpt>
      <trkpt lat="43.28215" lon="2.04467">
        <ele>183.631828</ele>
        <time>2023-01-04T15:16:38.100Z</time>
      </trkpt>
      <trkpt lat="43.28211" lon="2.0448">
        <ele>183.645579</ele>
        <time>2023-01-04T15:16:40.124Z</time>
      </trkpt>
      <trkpt lat="43.28206" lon="2.04494">
        <ele>183.650671</ele>
        <time>2023-01-04T15:16:42.105Z</time>
      </trkpt>
      <trkpt lat="43.28202" lon="2.04508">
        <ele>183.655863</ele>
        <time>2023-01-04T15:16:44.107Z</time>
      </trkpt>
      <trkpt lat="43.28197" lon="2.04522">
        <ele>183.661117</ele>
        <time>2023-01-04T15:16:46.104Z</time>
      </trkpt>
      <trkpt lat="43.28193" lon="2.04536">
        <ele>183.666515</ele>
        <time>2023-01-04T15:16:48.101Z</time>
      </trkpt>
      <trkpt lat="43.28188" lon="2.04551">
        <ele>183.672107</ele>
        <time>2023-01-04T15:16:50.106Z</time>
      </trkpt>
      <trkpt lat="43.28183" lon="2.04566">
        <ele>183.677637</ele>
        <time>2023-01-04T15:16:52.102Z</time>
      </trkpt>
      <trkpt lat="43.28178" lon="2.04581">
        <ele>183.683229</ele>
        <time>2023-01-04T15:16:54.115Z</time>
      </trkpt>
      <trkpt lat="43.28172" lon="2.04595">
        <ele>183.688727</ele>
        <time>2023-01-04T15:16:56.100Z</time>
      </trkpt>
      <trkpt lat="43.28167" lon="2.0461">
        <ele>183.694408</ele>
        <time>2023-01-04T15:16:58.097Z</time>
      </trkpt>
      <trkpt lat="43.28162" lon="2.04625">
        <ele>183.700183</ele>
        <time>2023-01-04T15:17:00.112Z</time>
      </trkpt>
      <trkpt lat="43.28156" lon="2.0464">
        <ele>183.705854</ele>
        <time>2023-01-04T15:17:02.100Z</time>
      </trkpt>
      <trkpt lat="43.28151" lon="2.04654">
        <ele>183.711186</ele>
        <time>2023-01-04T15:17:04.102Z</time>
      </trkpt>
      <trkpt lat="43.28147" lon="2.04669">
        <ele>183.716691</ele>
        <time>2023-01-04T15:17:06.102Z</time>
      </trkpt>
      <trkpt lat="43.28142" lon="2.04684">
        <ele>183.722269</ele>
        <time>2023-01-04T15:17:08.106Z</time>
      </trkpt>
      <trkpt lat="43.28136" lon="2.04699">
        <ele>183.727827</ele>
        <time>2023-01-04T15:17:10.112Z</time>
      </trkpt>
      <trkpt lat="43.28131" lon="2.04713">
        <ele>183.764467</ele>
        <time>2023-01-04T15:17:12.101Z</time>
      </trkpt>
      <trkpt lat="43.28126" lon="2.04728">
        <ele>183.811186</ele>
        <time>2023-01-04T15:17:14.118Z</time>
      </trkpt>
      <trkpt lat="43.28121" lon="2.04742">
        <ele>183.855141</ele>
        <time>2023-01-04T15:17:16.106Z</time>
      </trkpt>
      <trkpt lat="43.28116" lon="2.04756">
        <ele>183.899097</ele>
        <time>2023-01-04T15:17:18.122Z</time>
      </trkpt>
      <trkpt lat="43.28112" lon="2.0477">
        <ele>183.940358</ele>
        <time>2023-01-04T15:17:20.118Z</time>
      </trkpt>
      <trkpt lat="43.28107" lon="2.04783">
        <ele>183.981874</ele>
        <time>2023-01-04T15:17:22.118Z</time>
      </trkpt>
      <trkpt lat="43.28103" lon="2.04795">
        <ele>184.018913</ele>
        <time>2023-01-04T15:17:24.118Z</time>
      </trkpt>
      <trkpt lat="43.28097" lon="2.04811">
        <ele>184.069347</ele>
        <time>2023-01-04T15:17:27.124Z</time>
      </trkpt>
      <trkpt lat="43.28091" lon="2.04826">
        <ele>184.11695</ele>
        <time>2023-01-04T15:17:30.105Z</time>
      </trkpt>
      <trkpt lat="43.28086" lon="2.04839">
        <ele>184.15949</ele>
        <time>2023-01-04T15:17:33.118Z</time>
      </trkpt>
      <trkpt lat="43.28081" lon="2.04852">
        <ele>184.200624</ele>
        <time>2023-01-04T15:17:36.097Z</time>
      </trkpt>
      <trkpt lat="43.28076" lon="2.04866">
        <ele>184.243837</ele>
        <time>2023-01-04T15:17:39.120Z</time>
      </trkpt>
      <trkpt lat="43.28071" lon="2.04882">
        <ele>184.294317</ele>
        <time>2023-01-04T15:17:42.119Z</time>
      </trkpt>
      <trkpt lat="43.28067" lon="2.04894">
        <ele>184.331441</ele>
        <time>2023-01-04T15:17:44.119Z</time>
      </trkpt>
      <trkpt lat="43.28063" lon="2.04907">
        <ele>184.36925</ele>
        <time>2023-01-04T15:17:46.119Z</time>
      </trkpt>
      <trkpt lat="43.28059" lon="2.0492">
        <ele>184.410192</ele>
        <time>2023-01-04T15:17:48.120Z</time>
      </trkpt>
      <trkpt lat="43.28056" lon="2.04934">
        <ele>184.261557</ele>
        <time>2023-01-04T15:17:50.110Z</time>
      </trkpt>
      <trkpt lat="43.28052" lon="2.04948">
        <ele>184.005272</ele>
        <time>2023-01-04T15:17:52.093Z</time>
      </trkpt>
      <trkpt lat="43.28052" lon="2.04962">
        <ele>183.76299</ele>
        <time>2023-01-04T15:17:54.097Z</time>
      </trkpt>
      <trkpt lat="43.28052" lon="2.04976">
        <ele>183.524448</ele>
        <time>2023-01-04T15:17:56.109Z</time>
      </trkpt>
      <trkpt lat="43.28051" lon="2.0499">
        <ele>183.293658</ele>
        <time>2023-01-04T15:17:58.102Z</time>
      </trkpt>
      <trkpt lat="43.28048" lon="2.05003">
        <ele>183.065967</ele>
        <time>2023-01-04T15:18:00.104Z</time>
      </trkpt>
      <trkpt lat="43.28041" lon="2.05012">
        <ele>182.84835</ele>
        <time>2023-01-04T15:18:02.105Z</time>
      </trkpt>
      <trkpt lat="43.2803" lon="2.05014">
        <ele>182.588015</ele>
        <time>2023-01-04T15:18:05.120Z</time>
      </trkpt>
      <trkpt lat="43.28022" lon="2.05024">
        <ele>182.325232</ele>
        <time>2023-01-04T15:18:10.119Z</time>
      </trkpt>
      <trkpt lat="43.28017" lon="2.05037">
        <ele>182.082111</ele>
        <time>2023-01-04T15:18:13.124Z</time>
      </trkpt>
      <trkpt lat="43.28012" lon="2.05054">
        <ele>181.776435</ele>
        <time>2023-01-04T15:18:16.117Z</time>
      </trkpt>
      <trkpt lat="43.28008" lon="2.05066">
        <ele>181.554444</ele>
        <time>2023-01-04T15:18:18.120Z</time>
      </trkpt>
      <trkpt lat="43.28004" lon="2.05079">
        <ele>181.311914</ele>
        <time>2023-01-04T15:18:20.121Z</time>
      </trkpt>
      <trkpt lat="43.28" lon="2.05092">
        <ele>181.077207</ele>
        <time>2023-01-04T15:18:22.115Z</time>
      </trkpt>
      <trkpt lat="43.27996" lon="2.05105">
        <ele>180.837108</ele>
        <time>2023-01-04T15:18:24.111Z</time>
      </trkpt>
      <trkpt lat="43.27992" lon="2.05116">
        <ele>180.625579</ele>
        <time>2023-01-04T15:18:26.108Z</time>
      </trkpt>
      <trkpt lat="43.27987" lon="2.05133">
        <ele>180.31862</ele>
        <time>2023-01-04T15:18:29.119Z</time>
      </trkpt>
      <trkpt lat="43.27982" lon="2.05149">
        <ele>180.235267</ele>
        <time>2023-01-04T15:18:32.096Z</time>
      </trkpt>
      <trkpt lat="43.27978" lon="2.05161">
        <ele>180.225325</ele>
        <time>2023-01-04T15:18:34.118Z</time>
      </trkpt>
      <trkpt lat="43.27974" lon="2.05172">
        <ele>180.215464</ele>
        <time>2023-01-04T15:18:36.101Z</time>
      </trkpt>
      <trkpt lat="43.27969" lon="2.05185">
        <ele>180.205127</ele>
        <time>2023-01-04T15:18:38.117Z</time>
      </trkpt>
      <trkpt lat="43.27965" lon="2.05197">
        <ele>180.194927</ele>
        <time>2023-01-04T15:18:40.102Z</time>
      </trkpt>
      <trkpt lat="43.27961" lon="2.05209">
        <ele>180.184613</ele>
        <time>2023-01-04T15:18:42.116Z</time>
      </trkpt>
      <trkpt lat="43.27957" lon="2.05221">
        <ele>180.174408</ele>
        <time>2023-01-04T15:18:44.112Z</time>
      </trkpt>
      <trkpt lat="43.27953" lon="2.05233">
        <ele>180.164503</ele>
        <time>2023-01-04T15:18:46.124Z</time>
      </trkpt>
      <trkpt lat="43.27948" lon="2.0525">
        <ele>180.150854</ele>
        <time>2023-01-04T15:18:49.095Z</time>
      </trkpt>
      <trkpt lat="43.27942" lon="2.05266">
        <ele>180.137469</ele>
        <time>2023-01-04T15:18:52.098Z</time>
      </trkpt>
      <trkpt lat="43.27937" lon="2.05282">
        <ele>180.124306</ele>
        <time>2023-01-04T15:18:55.116Z</time>
      </trkpt>
      <trkpt lat="43.27932" lon="2.05298">
        <ele>180.110971</ele>
        <time>2023-01-04T15:18:58.121Z</time>
      </trkpt>
      <trkpt lat="43.27928" lon="2.05309">
        <ele>180.101404</ele>
        <time>2023-01-04T15:19:00.103Z</time>
      </trkpt>
      <trkpt lat="43.27924" lon="2.05321">
        <ele>180.091771</ele>
        <time>2023-01-04T15:19:02.095Z</time>
      </trkpt>
      <trkpt lat="43.2792" lon="2.05332">
        <ele>180.081753</ele>
        <time>2023-01-04T15:19:04.101Z</time>
      </trkpt>
      <trkpt lat="43.27916" lon="2.05344">
        <ele>180.071755</ele>
        <time>2023-01-04T15:19:06.097Z</time>
      </trkpt>
      <trkpt lat="43.27911" lon="2.05356">
        <ele>180.062211</ele>
        <time>2023-01-04T15:19:08.100Z</time>
      </trkpt>
      <trkpt lat="43.27907" lon="2.05367">
        <ele>180.060996</ele>
        <time>2023-01-04T15:19:10.101Z</time>
      </trkpt>
      <trkpt lat="43.27903" lon="2.0538">
        <ele>180.066385</ele>
        <time>2023-01-04T15:19:12.106Z</time>
      </trkpt>
      <trkpt lat="43.27898" lon="2.05395">
        <ele>180.073136</ele>
        <time>2023-01-04T15:19:15.118Z</time>
      </trkpt>
      <trkpt lat="43.27894" lon="2.0541">
        <ele>180.079401</ele>
        <time>2023-01-04T15:19:18.096Z</time>
      </trkpt>
      <trkpt lat="43.27889" lon="2.05423">
        <ele>180.085106</ele>
        <time>2023-01-04T15:19:21.098Z</time>
      </trkpt>
      <trkpt lat="43.27885" lon="2.05434">
        <ele>180.089997</ele>
        <time>2023-01-04T15:19:24.114Z</time>
      </trkpt>
      <trkpt lat="43.27881" lon="2.05449">
        <ele>180.096301</ele>
        <time>2023-01-04T15:19:27.118Z</time>
      </trkpt>
      <trkpt lat="43.27876" lon="2.05464">
        <ele>180.102783</ele>
        <time>2023-01-04T15:19:30.103Z</time>
      </trkpt>
      <trkpt lat="43.27872" lon="2.05479">
        <ele>180.109366</ele>
        <time>2023-01-04T15:19:33.118Z</time>
      </trkpt>
      <trkpt lat="43.27867" lon="2.05496">
        <ele>180.116554</ele>
        <time>2023-01-04T15:19:36.104Z</time>
      </trkpt>
      <trkpt lat="43.27862" lon="2.05512">
        <ele>180.123435</ele>
        <time>2023-01-04T15:19:39.098Z</time>
      </trkpt>
      <trkpt lat="43.27857" lon="2.05527">
        <ele>180.130021</ele>
        <time>2023-01-04T15:19:42.102Z</time>
      </trkpt>
      <trkpt lat="43.27853" lon="2.05544">
        <ele>180.136939</ele>
        <time>2023-01-04T15:19:45.116Z</time>
      </trkpt>
      <trkpt lat="43.27849" lon="2.05555">
        <ele>180.141869</ele>
        <time>2023-01-04T15:19:47.111Z</time>
      </trkpt>
      <trkpt lat="43.27845" lon="2.05566">
        <ele>180.146859</ele>
        <time>2023-01-04T15:19:49.098Z</time>
      </trkpt>
      <trkpt lat="43.27841" lon="2.05577">
        <ele>180.151777</ele>
        <time>2023-01-04T15:19:51.096Z</time>
      </trkpt>
      <trkpt lat="43.27835" lon="2.05594">
        <ele>180.225874</ele>
        <time>2023-01-04T15:19:54.099Z</time>
      </trkpt>
      <trkpt lat="43.27831" lon="2.05612">
        <ele>180.396509</ele>
        <time>2023-01-04T15:19:57.115Z</time>
      </trkpt>
      <trkpt lat="43.27827" lon="2.05627">
        <ele>180.546864</ele>
        <time>2023-01-04T15:20:00.102Z</time>
      </trkpt>
      <trkpt lat="43.27821" lon="2.05643">
        <ele>180.701863</ele>
        <time>2023-01-04T15:20:03.101Z</time>
      </trkpt>
      <trkpt lat="43.27817" lon="2.05658">
        <ele>180.840428</ele>
        <time>2023-01-04T15:20:06.117Z</time>
      </trkpt>
      <trkpt lat="43.27814" lon="2.05671">
        <ele>180.967139</ele>
        <time>2023-01-04T15:20:09.117Z</time>
      </trkpt>
      <trkpt lat="43.2781" lon="2.05685">
        <ele>181.106967</ele>
        <time>2023-01-04T15:20:13.103Z</time>
      </trkpt>
      <trkpt lat="43.27807" lon="2.05698">
        <ele>181.223827</ele>
        <time>2023-01-04T15:20:16.107Z</time>
      </trkpt>
      <trkpt lat="43.27804" lon="2.05714">
        <ele>181.376137</ele>
        <time>2023-01-04T15:20:20.124Z</time>
      </trkpt>
      <trkpt lat="43.278" lon="2.0573">
        <ele>181.529042</ele>
        <time>2023-01-04T15:20:23.091Z</time>
      </trkpt>
      <trkpt lat="43.27797" lon="2.05746">
        <ele>181.67733</ele>
        <time>2023-01-04T15:20:26.096Z</time>
      </trkpt>
      <trkpt lat="43.27794" lon="2.05762">
        <ele>181.822691</ele>
        <time>2023-01-04T15:20:29.100Z</time>
      </trkpt>
      <trkpt lat="43.27791" lon="2.05777">
        <ele>181.967704</ele>
        <time>2023-01-04T15:20:32.095Z</time>
      </trkpt>
      <trkpt lat="43.27787" lon="2.05794">
        <ele>182.119962</ele>
        <time>2023-01-04T15:20:35.104Z</time>
      </trkpt>
      <trkpt lat="43.27785" lon="2.0581">
        <ele>182.275234</ele>
        <time>2023-01-04T15:20:38.108Z</time>
      </trkpt>
      <trkpt lat="43.27781" lon="2.05828">
        <ele>182.314297</ele>
        <time>2023-01-04T15:20:41.105Z</time>
      </trkpt>
      <trkpt lat="43.27778" lon="2.05845">
        <ele>182.144468</ele>
        <time>2023-01-04T15:20:44.110Z</time>
      </trkpt>
      <trkpt lat="43.27776" lon="2.05862">
        <ele>181.983003</ele>
        <time>2023-01-04T15:20:47.097Z</time>
      </trkpt>
      <trkpt lat="43.27774" lon="2.05877">
        <ele>181.832981</ele>
        <time>2023-01-04T15:20:50.111Z</time>
      </trkpt>
      <trkpt lat="43.27771" lon="2.05893">
        <ele>181.67516</ele>
        <time>2023-01-04T15:20:53.116Z</time>
      </trkpt>
      <trkpt lat="43.27769" lon="2.05905">
        <ele>181.556302</ele>
        <time>2023-01-04T15:20:55.101Z</time>
      </trkpt>
      <trkpt lat="43.27767" lon="2.05921">
        <ele>181.408606</ele>
        <time>2023-01-04T15:20:58.120Z</time>
      </trkpt>
      <trkpt lat="43.27765" lon="2.05937">
        <ele>181.253745</ele>
        <time>2023-01-04T15:21:01.091Z</time>
      </trkpt>
      <trkpt lat="43.27763" lon="2.05953">
        <ele>181.09388</ele>
        <time>2023-01-04T15:21:04.111Z</time>
      </trkpt>
      <trkpt lat="43.27761" lon="2.0597">
        <ele>180.927216</ele>
        <time>2023-01-04T15:21:07.104Z</time>
      </trkpt>
      <trkpt lat="43.27758" lon="2.0599">
        <ele>180.740617</ele>
        <time>2023-01-04T15:21:10.101Z</time>
      </trkpt>
      <trkpt lat="43.27756" lon="2.06007">
        <ele>180.575192</ele>
        <time>2023-01-04T15:21:13.119Z</time>
      </trkpt>
      <trkpt lat="43.27755" lon="2.06024">
        <ele>180.410883</ele>
        <time>2023-01-04T15:21:16.103Z</time>
      </trkpt>
      <trkpt lat="43.27753" lon="2.06042">
        <ele>180.235466</ele>
        <time>2023-01-04T15:21:19.104Z</time>
      </trkpt>
      <trkpt lat="43.2775" lon="2.0606">
        <ele>180.060317</ele>
        <time>2023-01-04T15:21:22.110Z</time>
      </trkpt>
      <trkpt lat="43.27748" lon="2.06073">
        <ele>180.016088</ele>
        <time>2023-01-04T15:21:24.122Z</time>
      </trkpt>
      <trkpt lat="43.27746" lon="2.06085">
        <ele>180.007633</ele>
        <time>2023-01-04T15:21:26.116Z</time>
      </trkpt>
      <trkpt lat="43.27744" lon="2.06098">
        <ele>179.998768</ele>
        <time>2023-01-04T15:21:28.107Z</time>
      </trkpt>
      <trkpt lat="43.27741" lon="2.0611">
        <ele>179.990132</ele>
        <time>2023-01-04T15:21:30.119Z</time>
      </trkpt>
      <trkpt lat="43.2774" lon="2.06128">
        <ele>179.97849</ele>
        <time>2023-01-04T15:21:33.137Z</time>
      </trkpt>
      <trkpt lat="43.27739" lon="2.0614">
        <ele>179.969893</ele>
        <time>2023-01-04T15:21:35.110Z</time>
      </trkpt>
      <trkpt lat="43.27736" lon="2.06158">
        <ele>179.957809</ele>
        <time>2023-01-04T15:21:38.115Z</time>
      </trkpt>
      <trkpt lat="43.27735" lon="2.06175">
        <ele>179.946486</ele>
        <time>2023-01-04T15:21:41.105Z</time>
      </trkpt>
      <trkpt lat="43.27732" lon="2.06188">
        <ele>179.936986</ele>
        <time>2023-01-04T15:21:44.102Z</time>
      </trkpt>
      <trkpt lat="43.2773" lon="2.06201">
        <ele>179.927989</ele>
        <time>2023-01-04T15:21:47.091Z</time>
      </trkpt>
      <trkpt lat="43.27728" lon="2.06217">
        <ele>179.917554</ele>
        <time>2023-01-04T15:21:50.110Z</time>
      </trkpt>
      <trkpt lat="43.27726" lon="2.06232">
        <ele>179.907388</ele>
        <time>2023-01-04T15:21:53.106Z</time>
      </trkpt>
      <trkpt lat="43.27725" lon="2.06249">
        <ele>179.89564</ele>
        <time>2023-01-04T15:21:56.106Z</time>
      </trkpt>
      <trkpt lat="43.27724" lon="2.06262">
        <ele>179.887072</ele>
        <time>2023-01-04T15:21:58.091Z</time>
      </trkpt>
      <trkpt lat="43.27722" lon="2.06274">
        <ele>179.878535</ele>
        <time>2023-01-04T15:22:00.113Z</time>
      </trkpt>
      <trkpt lat="43.27722" lon="2.06287">
        <ele>179.869931</ele>
        <time>2023-01-04T15:22:03.102Z</time>
      </trkpt>
      <trkpt lat="43.27718" lon="2.06302">
        <ele>179.85945</ele>
        <time>2023-01-04T15:22:06.120Z</time>
      </trkpt>
      <trkpt lat="43.27716" lon="2.06319">
        <ele>179.851983</ele>
        <time>2023-01-04T15:22:09.102Z</time>
      </trkpt>
      <trkpt lat="43.27714" lon="2.06336">
        <ele>179.845888</ele>
        <time>2023-01-04T15:22:12.101Z</time>
      </trkpt>
      <trkpt lat="43.27712" lon="2.06351">
        <ele>179.840407</ele>
        <time>2023-01-04T15:22:15.103Z</time>
      </trkpt>
      <trkpt lat="43.27709" lon="2.06369">
        <ele>179.834269</ele>
        <time>2023-01-04T15:22:18.102Z</time>
      </trkpt>
      <trkpt lat="43.27707" lon="2.06385">
        <ele>179.828447</ele>
        <time>2023-01-04T15:22:21.103Z</time>
      </trkpt>
      <trkpt lat="43.27705" lon="2.06402">
        <ele>179.82237</ele>
        <time>2023-01-04T15:22:24.119Z</time>
      </trkpt>
      <trkpt lat="43.27703" lon="2.06414">
        <ele>179.818077</ele>
        <time>2023-01-04T15:22:26.099Z</time>
      </trkpt>
      <trkpt lat="43.27701" lon="2.06427">
        <ele>179.813738</ele>
        <time>2023-01-04T15:22:28.117Z</time>
      </trkpt>
      <trkpt lat="43.27699" lon="2.06444">
        <ele>179.807524</ele>
        <time>2023-01-04T15:22:31.099Z</time>
      </trkpt>
      <trkpt lat="43.27698" lon="2.0646">
        <ele>179.802095</ele>
        <time>2023-01-04T15:22:34.118Z</time>
      </trkpt>
      <trkpt lat="43.27696" lon="2.06474">
        <ele>179.796992</ele>
        <time>2023-01-04T15:22:37.097Z</time>
      </trkpt>
      <trkpt lat="43.27694" lon="2.06489">
        <ele>179.79163</ele>
        <time>2023-01-04T15:22:40.101Z</time>
      </trkpt>
      <trkpt lat="43.27691" lon="2.06506">
        <ele>179.785715</ele>
        <time>2023-01-04T15:22:43.121Z</time>
      </trkpt>
      <trkpt lat="43.27689" lon="2.06522">
        <ele>179.779964</ele>
        <time>2023-01-04T15:22:46.106Z</time>
      </trkpt>
      <trkpt lat="43.27685" lon="2.06539">
        <ele>179.773935</ele>
        <time>2023-01-04T15:22:49.119Z</time>
      </trkpt>
      <trkpt lat="43.27685" lon="2.06552">
        <ele>179.751529</ele>
        <time>2023-01-04T15:22:51.107Z</time>
      </trkpt>
      <trkpt lat="43.27682" lon="2.06569">
        <ele>179.635036</ele>
        <time>2023-01-04T15:22:54.115Z</time>
      </trkpt>
      <trkpt lat="43.2768" lon="2.06582">
        <ele>179.549923</ele>
        <time>2023-01-04T15:22:56.111Z</time>
      </trkpt>
      <trkpt lat="43.27678" lon="2.06599">
        <ele>179.442408</ele>
        <time>2023-01-04T15:22:59.120Z</time>
      </trkpt>
      <trkpt lat="43.27676" lon="2.06612">
        <ele>179.359032</ele>
        <time>2023-01-04T15:23:01.113Z</time>
      </trkpt>
      <trkpt lat="43.27675" lon="2.06625">
        <ele>179.273072</ele>
        <time>2023-01-04T15:23:03.120Z</time>
      </trkpt>
      <trkpt lat="43.27672" lon="2.06637">
        <ele>179.191626</ele>
        <time>2023-01-04T15:23:05.103Z</time>
      </trkpt>
      <trkpt lat="43.27671" lon="2.06653">
        <ele>179.083939</ele>
        <time>2023-01-04T15:23:08.096Z</time>
      </trkpt>
      <trkpt lat="43.27668" lon="2.06668">
        <ele>178.988037</ele>
        <time>2023-01-04T15:23:11.108Z</time>
      </trkpt>
      <trkpt lat="43.27667" lon="2.06684">
        <ele>178.884601</ele>
        <time>2023-01-04T15:23:14.117Z</time>
      </trkpt>
      <trkpt lat="43.27665" lon="2.067">
        <ele>178.781166</ele>
        <time>2023-01-04T15:23:17.114Z</time>
      </trkpt>
      <trkpt lat="43.27663" lon="2.06717">
        <ele>178.665998</ele>
        <time>2023-01-04T15:23:20.119Z</time>
      </trkpt>
      <trkpt lat="43.27662" lon="2.06735">
        <ele>178.549554</ele>
        <time>2023-01-04T15:23:23.117Z</time>
      </trkpt>
      <trkpt lat="43.2766" lon="2.06748">
        <ele>178.466342</ele>
        <time>2023-01-04T15:23:25.120Z</time>
      </trkpt>
      <trkpt lat="43.27658" lon="2.0676">
        <ele>178.384053</ele>
        <time>2023-01-04T15:23:27.118Z</time>
      </trkpt>
      <trkpt lat="43.27655" lon="2.06777">
        <ele>178.27613</ele>
        <time>2023-01-04T15:23:30.106Z</time>
      </trkpt>
      <trkpt lat="43.27652" lon="2.06792">
        <ele>178.180115</ele>
        <time>2023-01-04T15:23:33.118Z</time>
      </trkpt>
      <trkpt lat="43.2765" lon="2.06808">
        <ele>178.224996</ele>
        <time>2023-01-04T15:23:36.101Z</time>
      </trkpt>
      <trkpt lat="43.27648" lon="2.06823">
        <ele>178.268806</ele>
        <time>2023-01-04T15:23:39.119Z</time>
      </trkpt>
      <trkpt lat="43.27646" lon="2.0684">
        <ele>178.314637</ele>
        <time>2023-01-04T15:23:42.099Z</time>
      </trkpt>
      <trkpt lat="43.27642" lon="2.06857">
        <ele>178.365763</ele>
        <time>2023-01-04T15:23:45.119Z</time>
      </trkpt>
      <trkpt lat="43.27638" lon="2.06875">
        <ele>178.416837</ele>
        <time>2023-01-04T15:23:48.120Z</time>
      </trkpt>
      <trkpt lat="43.27635" lon="2.06894">
        <ele>178.469948</ele>
        <time>2023-01-04T15:23:51.105Z</time>
      </trkpt>
      <trkpt lat="43.27633" lon="2.06907">
        <ele>178.506682</ele>
        <time>2023-01-04T15:23:53.101Z</time>
      </trkpt>
      <trkpt lat="43.27629" lon="2.06919">
        <ele>178.542965</ele>
        <time>2023-01-04T15:23:55.101Z</time>
      </trkpt>
      <trkpt lat="43.27625" lon="2.06931">
        <ele>178.579143</ele>
        <time>2023-01-04T15:23:57.098Z</time>
      </trkpt>
      <trkpt lat="43.27621" lon="2.06947">
        <ele>178.627343</ele>
        <time>2023-01-04T15:24:00.098Z</time>
      </trkpt>
      <trkpt lat="43.27615" lon="2.06963">
        <ele>178.674612</ele>
        <time>2023-01-04T15:24:03.104Z</time>
      </trkpt>
      <trkpt lat="43.27609" lon="2.06976">
        <ele>178.718866</ele>
        <time>2023-01-04T15:24:06.100Z</time>
      </trkpt>
      <trkpt lat="43.27604" lon="2.06988">
        <ele>178.75643</ele>
        <time>2023-01-04T15:24:09.096Z</time>
      </trkpt>
      <trkpt lat="43.27599" lon="2.07001">
        <ele>178.797146</ele>
        <time>2023-01-04T15:24:12.100Z</time>
      </trkpt>
      <trkpt lat="43.27595" lon="2.07013">
        <ele>178.833634</ele>
        <time>2023-01-04T15:24:15.111Z</time>
      </trkpt>
      <trkpt lat="43.2759" lon="2.07027">
        <ele>178.904292</ele>
        <time>2023-01-04T15:24:18.108Z</time>
      </trkpt>
      <trkpt lat="43.27583" lon="2.07042">
        <ele>179.014018</ele>
        <time>2023-01-04T15:24:21.119Z</time>
      </trkpt>
      <trkpt lat="43.27579" lon="2.07052">
        <ele>179.095746</ele>
        <time>2023-01-04T15:24:23.118Z</time>
      </trkpt>
      <trkpt lat="43.27572" lon="2.07067">
        <ele>179.209796</ele>
        <time>2023-01-04T15:24:25.119Z</time>
      </trkpt>
      <trkpt lat="43.27568" lon="2.07079">
        <ele>179.29913</ele>
        <time>2023-01-04T15:24:27.099Z</time>
      </trkpt>
      <trkpt lat="43.27563" lon="2.07092">
        <ele>179.392882</ele>
        <time>2023-01-04T15:24:29.119Z</time>
      </trkpt>
      <trkpt lat="43.27558" lon="2.07102">
        <ele>179.476701</ele>
        <time>2023-01-04T15:24:31.098Z</time>
      </trkpt>
      <trkpt lat="43.27552" lon="2.07119">
        <ele>179.599282</ele>
        <time>2023-01-04T15:24:34.111Z</time>
      </trkpt>
      <trkpt lat="43.27547" lon="2.07129">
        <ele>179.680996</ele>
        <time>2023-01-04T15:24:36.118Z</time>
      </trkpt>
      <trkpt lat="43.27542" lon="2.07141">
        <ele>179.770905</ele>
        <time>2023-01-04T15:24:38.102Z</time>
      </trkpt>
      <trkpt lat="43.27537" lon="2.07157">
        <ele>179.886358</ele>
        <time>2023-01-04T15:24:41.104Z</time>
      </trkpt>
      <trkpt lat="43.27532" lon="2.07169">
        <ele>179.977664</ele>
        <time>2023-01-04T15:24:43.097Z</time>
      </trkpt>
      <trkpt lat="43.27528" lon="2.0718">
        <ele>180.059689</ele>
        <time>2023-01-04T15:24:45.099Z</time>
      </trkpt>
      <trkpt lat="43.27522" lon="2.07191">
        <ele>180.146754</ele>
        <time>2023-01-04T15:24:47.106Z</time>
      </trkpt>
      <trkpt lat="43.27517" lon="2.07208">
        <ele>180.268446</ele>
        <time>2023-01-04T15:24:50.117Z</time>
      </trkpt>
      <trkpt lat="43.27514" lon="2.07225">
        <ele>180.383962</ele>
        <time>2023-01-04T15:24:53.111Z</time>
      </trkpt>
      <trkpt lat="43.27513" lon="2.0724">
        <ele>180.48252</ele>
        <time>2023-01-04T15:24:56.120Z</time>
      </trkpt>
      <trkpt lat="43.27513" lon="2.07253">
        <ele>180.557445</ele>
        <time>2023-01-04T15:24:59.116Z</time>
      </trkpt>
      <trkpt lat="43.27515" lon="2.07266">
        <ele>180.631634</ele>
        <time>2023-01-04T15:25:02.119Z</time>
      </trkpt>
      <trkpt lat="43.27518" lon="2.0728">
        <ele>180.710228</ele>
        <time>2023-01-04T15:25:05.105Z</time>
      </trkpt>
      <trkpt lat="43.27521" lon="2.07295">
        <ele>180.79525</ele>
        <time>2023-01-04T15:25:08.103Z</time>
      </trkpt>
      <trkpt lat="43.27525" lon="2.0731">
        <ele>180.882157</ele>
        <time>2023-01-04T15:25:11.108Z</time>
      </trkpt>
      <trkpt lat="43.27529" lon="2.07324">
        <ele>180.966212</ele>
        <time>2023-01-04T15:25:14.120Z</time>
      </trkpt>
      <trkpt lat="43.27533" lon="2.07338">
        <ele>181.049459</ele>
        <time>2023-01-04T15:25:17.118Z</time>
      </trkpt>
      <trkpt lat="43.27537" lon="2.07351">
        <ele>181.128992</ele>
        <time>2023-01-04T15:25:20.106Z</time>
      </trkpt>
      <trkpt lat="43.27542" lon="2.07366">
        <ele>181.217641</ele>
        <time>2023-01-04T15:25:23.123Z</time>
      </trkpt>
      <trkpt lat="43.27547" lon="2.0738">
        <ele>181.303973</ele>
        <time>2023-01-04T15:25:26.113Z</time>
      </trkpt>
      <trkpt lat="43.27552" lon="2.07393">
        <ele>181.38559</ele>
        <time>2023-01-04T15:25:29.103Z</time>
      </trkpt>
      <trkpt lat="43.27558" lon="2.07407">
        <ele>181.472701</ele>
        <time>2023-01-04T15:25:32.120Z</time>
      </trkpt>
      <trkpt lat="43.27564" lon="2.07422">
        <ele>181.568279</ele>
        <time>2023-01-04T15:25:35.111Z</time>
      </trkpt>
      <trkpt lat="43.2757" lon="2.07435">
        <ele>181.657039</ele>
        <time>2023-01-04T15:25:38.121Z</time>
      </trkpt>
      <trkpt lat="43.27578" lon="2.07449">
        <ele>181.752708</ele>
        <time>2023-01-04T15:25:41.106Z</time>
      </trkpt>
      <trkpt lat="43.27586" lon="2.07462">
        <ele>181.842318</ele>
        <time>2023-01-04T15:25:44.114Z</time>
      </trkpt>
      <trkpt lat="43.27591" lon="2.07472">
        <ele>181.945428</ele>
        <time>2023-01-04T15:25:46.117Z</time>
      </trkpt>
      <trkpt lat="43.27597" lon="2.07482">
        <ele>182.057139</ele>
        <time>2023-01-04T15:25:48.122Z</time>
      </trkpt>
      <trkpt lat="43.27602" lon="2.07497">
        <ele>182.207049</ele>
        <time>2023-01-04T15:25:51.101Z</time>
      </trkpt>
      <trkpt lat="43.27608" lon="2.07513">
        <ele>182.358078</ele>
        <time>2023-01-04T15:25:54.121Z</time>
      </trkpt>
      <trkpt lat="43.27612" lon="2.07529">
        <ele>182.506785</ele>
        <time>2023-01-04T15:25:57.106Z</time>
      </trkpt>
      <trkpt lat="43.27614" lon="2.07543">
        <ele>182.625661</ele>
        <time>2023-01-04T15:26:00.096Z</time>
      </trkpt>
      <trkpt lat="43.27616" lon="2.07555">
        <ele>182.735785</ele>
        <time>2023-01-04T15:26:03.100Z</time>
      </trkpt>
      <trkpt lat="43.27617" lon="2.07569">
        <ele>182.855059</ele>
        <time>2023-01-04T15:26:06.131Z</time>
      </trkpt>
      <trkpt lat="43.27618" lon="2.07583">
        <ele>182.985098</ele>
        <time>2023-01-04T15:26:09.103Z</time>
      </trkpt>
      <trkpt lat="43.27619" lon="2.07598">
        <ele>183.10958</ele>
        <time>2023-01-04T15:26:12.102Z</time>
      </trkpt>
      <trkpt lat="43.27616" lon="2.07612">
        <ele>183.236913</ele>
        <time>2023-01-04T15:26:15.106Z</time>
      </trkpt>
      <trkpt lat="43.27613" lon="2.07626">
        <ele>183.366454</ele>
        <time>2023-01-04T15:34:11.107Z</time>
      </trkpt>
      <trkpt lat="43.27613" lon="2.07641">
        <ele>183.496819</ele>
        <time>2023-01-04T15:34:15.107Z</time>
      </trkpt>
      <trkpt lat="43.27613" lon="2.07654">
        <ele>183.612404</ele>
        <time>2023-01-04T15:34:18.106Z</time>
      </trkpt>
      <trkpt lat="43.27612" lon="2.07668">
        <ele>183.73358</ele>
        <time>2023-01-04T15:34:21.101Z</time>
      </trkpt>
      <trkpt lat="43.27611" lon="2.07681">
        <ele>183.846961</ele>
        <time>2023-01-04T15:34:24.119Z</time>
      </trkpt>
      <trkpt lat="43.2761" lon="2.07695">
        <ele>183.96947</ele>
        <time>2023-01-04T15:34:27.111Z</time>
      </trkpt>
      <trkpt lat="43.27609" lon="2.07709">
        <ele>183.950373</ele>
        <time>2023-01-04T15:34:30.108Z</time>
      </trkpt>
      <trkpt lat="43.27607" lon="2.07721">
        <ele>183.889526</ele>
        <time>2023-01-04T15:34:33.103Z</time>
      </trkpt>
      <trkpt lat="43.27606" lon="2.07736">
        <ele>183.821792</ele>
        <time>2023-01-04T15:34:36.120Z</time>
      </trkpt>
      <trkpt lat="43.27604" lon="2.07752">
        <ele>183.744517</ele>
        <time>2023-01-04T15:34:39.113Z</time>
      </trkpt>
      <trkpt lat="43.27603" lon="2.07767">
        <ele>183.672599</ele>
        <time>2023-01-04T15:34:42.105Z</time>
      </trkpt>
      <trkpt lat="43.27603" lon="2.07782">
        <ele>183.598703</ele>
        <time>2023-01-04T15:34:45.111Z</time>
      </trkpt>
      <trkpt lat="43.27602" lon="2.07796">
        <ele>183.53261</ele>
        <time>2023-01-04T15:34:48.110Z</time>
      </trkpt>
      <trkpt lat="43.27601" lon="2.0781">
        <ele>183.467239</ele>
        <time>2023-01-04T15:34:51.106Z</time>
      </trkpt>
      <trkpt lat="43.276" lon="2.07822">
        <ele>183.408586</ele>
        <time>2023-01-04T15:34:54.121Z</time>
      </trkpt>
      <trkpt lat="43.27601" lon="2.07838">
        <ele>183.332322</ele>
        <time>2023-01-04T15:34:58.123Z</time>
      </trkpt>
      <trkpt lat="43.27601" lon="2.07853">
        <ele>183.258882</ele>
        <time>2023-01-04T15:35:02.104Z</time>
      </trkpt>
      <trkpt lat="43.27602" lon="2.07868">
        <ele>183.186728</ele>
        <time>2023-01-04T15:35:06.101Z</time>
      </trkpt>
      <trkpt lat="43.27602" lon="2.07883">
        <ele>183.115642</ele>
        <time>2023-01-04T15:35:10.104Z</time>
      </trkpt>
      <trkpt lat="43.27602" lon="2.07896">
        <ele>183.056066</ele>
        <time>2023-01-04T15:35:15.110Z</time>
      </trkpt>
      <trkpt lat="43.27598" lon="2.07912">
        <ele>182.976311</ele>
        <time>2023-01-04T15:35:19.101Z</time>
      </trkpt>
      <trkpt lat="43.27597" lon="2.07926">
        <ele>182.90574</ele>
        <time>2023-01-04T15:35:21.111Z</time>
      </trkpt>
      <trkpt lat="43.27595" lon="2.07942">
        <ele>182.828111</ele>
        <time>2023-01-04T15:35:23.111Z</time>
      </trkpt>
      <trkpt lat="43.27593" lon="2.07959">
        <ele>182.753492</ele>
        <time>2023-01-04T15:35:25.100Z</time>
      </trkpt>
      <trkpt lat="43.27592" lon="2.07975">
        <ele>182.684664</ele>
        <time>2023-01-04T15:35:27.134Z</time>
      </trkpt>
      <trkpt lat="43.27592" lon="2.07989">
        <ele>182.622919</ele>
        <time>2023-01-04T15:35:29.115Z</time>
      </trkpt>
      <trkpt lat="43.27592" lon="2.08002">
        <ele>182.565105</ele>
        <time>2023-01-04T15:35:31.100Z</time>
      </trkpt>
      <trkpt lat="43.27591" lon="2.08015">
        <ele>182.510316</ele>
        <time>2023-01-04T15:35:33.105Z</time>
      </trkpt>
      <trkpt lat="43.27591" lon="2.08031">
        <ele>182.437624</ele>
        <time>2023-01-04T15:35:36.102Z</time>
      </trkpt>
      <trkpt lat="43.27591" lon="2.08045">
        <ele>182.375879</ele>
        <time>2023-01-04T15:35:39.097Z</time>
      </trkpt>
      <trkpt lat="43.2759" lon="2.08058">
        <ele>182.320587</ele>
        <time>2023-01-04T15:35:42.123Z</time>
      </trkpt>
      <trkpt lat="43.2759" lon="2.0807">
        <ele>182.265769</ele>
        <time>2023-01-04T15:35:45.114Z</time>
      </trkpt>
      <trkpt lat="43.2759" lon="2.08087">
        <ele>182.192579</ele>
        <time>2023-01-04T15:35:49.103Z</time>
      </trkpt>
      <trkpt lat="43.2759" lon="2.081">
        <ele>182.13434</ele>
        <time>2023-01-04T15:35:52.102Z</time>
      </trkpt>
      <trkpt lat="43.2759" lon="2.08114">
        <ele>182.075222</ele>
        <time>2023-01-04T15:35:55.117Z</time>
      </trkpt>
      <trkpt lat="43.2759" lon="2.08128">
        <ele>182.0125</ele>
        <time>2023-01-04T15:35:58.100Z</time>
      </trkpt>
      <trkpt lat="43.2759" lon="2.08143">
        <ele>181.94813</ele>
        <time>2023-01-04T15:36:01.097Z</time>
      </trkpt>
      <trkpt lat="43.27589" lon="2.08159">
        <ele>181.878921</ele>
        <time>2023-01-04T15:36:04.119Z</time>
      </trkpt>
      <trkpt lat="43.27589" lon="2.08174">
        <ele>181.811389</ele>
        <time>2023-01-04T15:36:07.104Z</time>
      </trkpt>
      <trkpt lat="43.27589" lon="2.08188">
        <ele>181.751836</ele>
        <time>2023-01-04T15:36:10.105Z</time>
      </trkpt>
      <trkpt lat="43.27589" lon="2.08201">
        <ele>181.744806</ele>
        <time>2023-01-04T15:36:13.099Z</time>
      </trkpt>
      <trkpt lat="43.27589" lon="2.08214">
        <ele>181.750901</ele>
        <time>2023-01-04T15:36:16.098Z</time>
      </trkpt>
      <trkpt lat="43.27589" lon="2.08229">
        <ele>181.757764</ele>
        <time>2023-01-04T15:36:19.116Z</time>
      </trkpt>
      <trkpt lat="43.27589" lon="2.08245">
        <ele>181.764764</ele>
        <time>2023-01-04T15:36:22.127Z</time>
      </trkpt>
      <trkpt lat="43.27589" lon="2.08261">
        <ele>181.772034</ele>
        <time>2023-01-04T15:36:25.101Z</time>
      </trkpt>
      <trkpt lat="43.27588" lon="2.08277">
        <ele>181.779261</ele>
        <time>2023-01-04T15:36:28.102Z</time>
      </trkpt>
      <trkpt lat="43.27588" lon="2.08291">
        <ele>181.785807</ele>
        <time>2023-01-04T15:36:31.109Z</time>
      </trkpt>
      <trkpt lat="43.27587" lon="2.08304">
        <ele>181.79162</ele>
        <time>2023-01-04T15:36:34.116Z</time>
      </trkpt>
      <trkpt lat="43.27587" lon="2.08317">
        <ele>181.797399</ele>
        <time>2023-01-04T15:36:37.104Z</time>
      </trkpt>
      <trkpt lat="43.27587" lon="2.08331">
        <ele>181.803633</ele>
        <time>2023-01-04T15:36:40.101Z</time>
      </trkpt>
      <trkpt lat="43.27587" lon="2.08345">
        <ele>181.810137</ele>
        <time>2023-01-04T15:36:43.107Z</time>
      </trkpt>
      <trkpt lat="43.27586" lon="2.08358">
        <ele>181.816053</ele>
        <time>2023-01-04T15:36:46.098Z</time>
      </trkpt>
      <trkpt lat="43.27586" lon="2.08371">
        <ele>181.821923</ele>
        <time>2023-01-04T15:36:49.093Z</time>
      </trkpt>
      <trkpt lat="43.27586" lon="2.08386">
        <ele>181.828615</ele>
        <time>2023-01-04T15:36:52.102Z</time>
      </trkpt>
      <trkpt lat="43.27586" lon="2.08401">
        <ele>181.835479</ele>
        <time>2023-01-04T15:36:55.118Z</time>
      </trkpt>
      <trkpt lat="43.27586" lon="2.08417">
        <ele>181.842703</ele>
        <time>2023-01-04T15:36:58.099Z</time>
      </trkpt>
      <trkpt lat="43.27585" lon="2.08433">
        <ele>181.849883</ele>
        <time>2023-01-04T15:37:01.103Z</time>
      </trkpt>
      <trkpt lat="43.27585" lon="2.08449">
        <ele>181.832742</ele>
        <time>2023-01-04T15:37:04.101Z</time>
      </trkpt>
      <trkpt lat="43.27585" lon="2.08464">
        <ele>181.809135</ele>
        <time>2023-01-04T15:37:07.111Z</time>
      </trkpt>
      <trkpt lat="43.27585" lon="2.0848">
        <ele>181.783274</ele>
        <time>2023-01-04T15:37:11.101Z</time>
      </trkpt>
      <trkpt lat="43.27584" lon="2.08493">
        <ele>181.761598</ele>
        <time>2023-01-04T15:37:14.107Z</time>
      </trkpt>
      <trkpt lat="43.27584" lon="2.08509">
        <ele>181.736385</ele>
        <time>2023-01-04T15:37:17.102Z</time>
      </trkpt>
      <trkpt lat="43.27584" lon="2.08523">
        <ele>181.712301</ele>
        <time>2023-01-04T15:37:20.105Z</time>
      </trkpt>
      <trkpt lat="43.27584" lon="2.08539">
        <ele>181.687572</ele>
        <time>2023-01-04T15:37:23.110Z</time>
      </trkpt>
      <trkpt lat="43.27584" lon="2.08554">
        <ele>181.662968</ele>
        <time>2023-01-04T15:37:26.111Z</time>
      </trkpt>
      <trkpt lat="43.27583" lon="2.08567">
        <ele>181.641121</ele>
        <time>2023-01-04T15:37:29.117Z</time>
      </trkpt>
      <trkpt lat="43.27581" lon="2.08584">
        <ele>181.613675</ele>
        <time>2023-01-04T15:37:33.119Z</time>
      </trkpt>
      <trkpt lat="43.27581" lon="2.08597">
        <ele>181.593695</ele>
        <time>2023-01-04T15:37:36.110Z</time>
      </trkpt>
      <trkpt lat="43.2758" lon="2.0861">
        <ele>181.572503</ele>
        <time>2023-01-04T15:37:39.119Z</time>
      </trkpt>
      <trkpt lat="43.2758" lon="2.08624">
        <ele>181.549513</ele>
        <time>2023-01-04T15:37:42.117Z</time>
      </trkpt>
      <trkpt lat="43.2758" lon="2.08637">
        <ele>181.527528</ele>
        <time>2023-01-04T15:37:45.101Z</time>
      </trkpt>
      <trkpt lat="43.2758" lon="2.08651">
        <ele>181.505223</ele>
        <time>2023-01-04T15:37:48.103Z</time>
      </trkpt>
      <trkpt lat="43.2758" lon="2.08665">
        <ele>181.482272</ele>
        <time>2023-01-04T15:37:51.111Z</time>
      </trkpt>
      <trkpt lat="43.2758" lon="2.08679">
        <ele>181.459606</ele>
        <time>2023-01-04T15:37:54.106Z</time>
      </trkpt>
      <trkpt lat="43.2758" lon="2.08694">
        <ele>181.430487</ele>
        <time>2023-01-04T15:37:57.105Z</time>
      </trkpt>
      <trkpt lat="43.2758" lon="2.08708">
        <ele>181.401474</ele>
        <time>2023-01-04T15:38:00.098Z</time>
      </trkpt>
      <trkpt lat="43.2758" lon="2.08723">
        <ele>181.369689</ele>
        <time>2023-01-04T15:38:03.106Z</time>
      </trkpt>
      <trkpt lat="43.2758" lon="2.08738">
        <ele>181.336196</ele>
        <time>2023-01-04T15:38:06.108Z</time>
      </trkpt>
      <trkpt lat="43.2758" lon="2.08754">
        <ele>181.302487</ele>
        <time>2023-01-04T15:38:09.100Z</time>
      </trkpt>
      <trkpt lat="43.27579" lon="2.0877">
        <ele>181.269417</ele>
        <time>2023-01-04T15:38:12.101Z</time>
      </trkpt>
      <trkpt lat="43.27579" lon="2.08784">
        <ele>181.238907</ele>
        <time>2023-01-04T15:38:15.106Z</time>
      </trkpt>
      <trkpt lat="43.2758" lon="2.08798">
        <ele>181.20902</ele>
        <time>2023-01-04T15:38:18.106Z</time>
      </trkpt>
      <trkpt lat="43.27579" lon="2.08812">
        <ele>181.178289</ele>
        <time>2023-01-04T15:38:21.112Z</time>
      </trkpt>
      <trkpt lat="43.2758" lon="2.08826">
        <ele>181.148625</ele>
        <time>2023-01-04T15:38:24.118Z</time>
      </trkpt>
      <trkpt lat="43.2758" lon="2.08841">
        <ele>181.117907</ele>
        <time>2023-01-04T15:38:27.126Z</time>
      </trkpt>
      <trkpt lat="43.27579" lon="2.08853">
        <ele>181.091022</ele>
        <time>2023-01-04T15:38:30.104Z</time>
      </trkpt>
      <trkpt lat="43.27579" lon="2.08867">
        <ele>181.062218</ele>
        <time>2023-01-04T15:38:33.105Z</time>
      </trkpt>
      <trkpt lat="43.27579" lon="2.08881">
        <ele>181.031927</ele>
        <time>2023-01-04T15:38:36.109Z</time>
      </trkpt>
      <trkpt lat="43.27579" lon="2.08895">
        <ele>181.001204</ele>
        <time>2023-01-04T15:38:39.112Z</time>
      </trkpt>
      <trkpt lat="43.27579" lon="2.0891">
        <ele>180.969194</ele>
        <time>2023-01-04T15:38:42.121Z</time>
      </trkpt>
      <trkpt lat="43.27579" lon="2.08925">
        <ele>180.936982</ele>
        <time>2023-01-04T15:38:45.109Z</time>
      </trkpt>
      <trkpt lat="43.27578" lon="2.08941">
        <ele>180.95309</ele>
        <time>2023-01-04T15:38:48.115Z</time>
      </trkpt>
      <trkpt lat="43.27579" lon="2.08956">
        <ele>180.996757</ele>
        <time>2023-01-04T15:38:51.099Z</time>
      </trkpt>
      <trkpt lat="43.27579" lon="2.08972">
        <ele>181.04013</ele>
        <time>2023-01-04T15:38:54.123Z</time>
      </trkpt>
      <trkpt lat="43.2758" lon="2.08988">
        <ele>181.085168</ele>
        <time>2023-01-04T15:38:57.120Z</time>
      </trkpt>
      <trkpt lat="43.27581" lon="2.09004">
        <ele>181.12924</ele>
        <time>2023-01-04T15:39:00.099Z</time>
      </trkpt>
      <trkpt lat="43.27582" lon="2.09019">
        <ele>181.17192</ele>
        <time>2023-01-04T15:39:03.122Z</time>
      </trkpt>
      <trkpt lat="43.27583" lon="2.09034">
        <ele>181.214315</ele>
        <time>2023-01-04T15:39:06.117Z</time>
      </trkpt>
      <trkpt lat="43.27585" lon="2.09047">
        <ele>181.252904</ele>
        <time>2023-01-04T15:39:09.106Z</time>
      </trkpt>
      <trkpt lat="43.27586" lon="2.09061">
        <ele>181.289988</ele>
        <time>2023-01-04T15:39:12.107Z</time>
      </trkpt>
      <trkpt lat="43.27588" lon="2.09075">
        <ele>181.329885</ele>
        <time>2023-01-04T15:39:15.103Z</time>
      </trkpt>
      <trkpt lat="43.27591" lon="2.09089">
        <ele>181.371503</ele>
        <time>2023-01-04T15:39:18.108Z</time>
      </trkpt>
      <trkpt lat="43.27592" lon="2.09104">
        <ele>181.414016</ele>
        <time>2023-01-04T15:39:21.113Z</time>
      </trkpt>
      <trkpt lat="43.27593" lon="2.0912">
        <ele>181.458089</ele>
        <time>2023-01-04T15:39:24.122Z</time>
      </trkpt>
      <trkpt lat="43.27592" lon="2.09134">
        <ele>181.497442</ele>
        <time>2023-01-04T15:39:27.108Z</time>
      </trkpt>
      <trkpt lat="43.27588" lon="2.09148">
        <ele>181.538568</ele>
        <time>2023-01-04T15:39:30.104Z</time>
      </trkpt>
      <trkpt lat="43.27583" lon="2.0916">
        <ele>181.58018</ele>
        <time>2023-01-04T15:39:33.130Z</time>
      </trkpt>
      <trkpt lat="43.27577" lon="2.09173">
        <ele>181.611755</ele>
        <time>2023-01-04T15:39:36.104Z</time>
      </trkpt>
      <trkpt lat="43.27571" lon="2.09185">
        <ele>181.563122</ele>
        <time>2023-01-04T15:39:39.112Z</time>
      </trkpt>
      <trkpt lat="43.27564" lon="2.09199">
        <ele>181.50985</ele>
        <time>2023-01-04T15:39:42.099Z</time>
      </trkpt>
      <trkpt lat="43.27557" lon="2.09213">
        <ele>181.456577</ele>
        <time>2023-01-04T15:39:45.121Z</time>
      </trkpt>
      <trkpt lat="43.27551" lon="2.09225">
        <ele>181.408724</ele>
        <time>2023-01-04T15:39:48.106Z</time>
      </trkpt>
      <trkpt lat="43.27544" lon="2.09236">
        <ele>181.361913</ele>
        <time>2023-01-04T15:39:51.108Z</time>
      </trkpt>
      <trkpt lat="43.27537" lon="2.09248">
        <ele>181.312302</ele>
        <time>2023-01-04T15:39:54.121Z</time>
      </trkpt>
      <trkpt lat="43.27528" lon="2.09261">
        <ele>181.25577</ele>
        <time>2023-01-04T15:39:57.108Z</time>
      </trkpt>
      <trkpt lat="43.27519" lon="2.09273">
        <ele>181.198616</ele>
        <time>2023-01-04T15:40:00.104Z</time>
      </trkpt>
      <trkpt lat="43.27512" lon="2.09282">
        <ele>181.15892</ele>
        <time>2023-01-04T15:40:02.102Z</time>
      </trkpt>
      <trkpt lat="43.27506" lon="2.09292">
        <ele>181.116229</ele>
        <time>2023-01-04T15:40:04.103Z</time>
      </trkpt>
      <trkpt lat="43.27499" lon="2.09301">
        <ele>181.073252</ele>
        <time>2023-01-04T15:40:06.104Z</time>
      </trkpt>
      <trkpt lat="43.27491" lon="2.09311">
        <ele>181.027878</ele>
        <time>2023-01-04T15:40:08.105Z</time>
      </trkpt>
      <trkpt lat="43.27485" lon="2.09321">
        <ele>180.985589</ele>
        <time>2023-01-04T15:40:10.120Z</time>
      </trkpt>
      <trkpt lat="43.27478" lon="2.09331">
        <ele>180.942527</ele>
        <time>2023-01-04T15:40:12.110Z</time>
      </trkpt>
      <trkpt lat="43.27471" lon="2.09341">
        <ele>180.899302</ele>
        <time>2023-01-04T15:40:14.118Z</time>
      </trkpt>
      <trkpt lat="43.27465" lon="2.0935">
        <ele>180.856375</ele>
        <time>2023-01-04T15:40:16.112Z</time>
      </trkpt>
      <trkpt lat="43.27458" lon="2.0936">
        <ele>180.787886</ele>
        <time>2023-01-04T15:40:18.127Z</time>
      </trkpt>
      <trkpt lat="43.2745" lon="2.09372">
        <ele>180.581482</ele>
        <time>2023-01-04T15:40:21.101Z</time>
      </trkpt>
      <trkpt lat="43.27442" lon="2.09384">
        <ele>180.388031</ele>
        <time>2023-01-04T15:40:24.129Z</time>
      </trkpt>
      <trkpt lat="43.27435" lon="2.09395">
        <ele>180.212143</ele>
        <time>2023-01-04T15:40:27.106Z</time>
      </trkpt>
      <trkpt lat="43.27427" lon="2.09404">
        <ele>180.047307</ele>
        <time>2023-01-04T15:40:30.111Z</time>
      </trkpt>
      <trkpt lat="43.2742" lon="2.09411">
        <ele>179.899614</ele>
        <time>2023-01-04T15:40:33.108Z</time>
      </trkpt>
      <trkpt lat="43.27413" lon="2.0942">
        <ele>179.743361</ele>
        <time>2023-01-04T15:40:36.107Z</time>
      </trkpt>
      <trkpt lat="43.27404" lon="2.09431">
        <ele>179.548219</ele>
        <time>2023-01-04T15:40:39.104Z</time>
      </trkpt>
      <trkpt lat="43.27397" lon="2.09445">
        <ele>179.349756</ele>
        <time>2023-01-04T15:40:42.105Z</time>
      </trkpt>
      <trkpt lat="43.27388" lon="2.09459">
        <ele>179.123001</ele>
        <time>2023-01-04T15:40:45.113Z</time>
      </trkpt>
      <trkpt lat="43.2738" lon="2.09469">
        <ele>178.942423</ele>
        <time>2023-01-04T15:40:47.113Z</time>
      </trkpt>
      <trkpt lat="43.27371" lon="2.09481">
        <ele>178.743628</ele>
        <time>2023-01-04T15:40:49.116Z</time>
      </trkpt>
      <trkpt lat="43.27362" lon="2.09492">
        <ele>178.546435</ele>
        <time>2023-01-04T15:40:51.113Z</time>
      </trkpt>
      <trkpt lat="43.27353" lon="2.09503">
        <ele>178.346851</ele>
        <time>2023-01-04T15:40:53.108Z</time>
      </trkpt>
      <trkpt lat="43.27345" lon="2.09513">
        <ele>178.162444</ele>
        <time>2023-01-04T15:40:55.120Z</time>
      </trkpt>
      <trkpt lat="43.27337" lon="2.09523">
        <ele>177.977002</ele>
        <time>2023-01-04T15:40:57.108Z</time>
      </trkpt>
      <trkpt lat="43.27329" lon="2.09533">
        <ele>177.909738</ele>
        <time>2023-01-04T15:40:59.134Z</time>
      </trkpt>
      <trkpt lat="43.27322" lon="2.09543">
        <ele>178.011107</ele>
        <time>2023-01-04T15:41:01.123Z</time>
      </trkpt>
      <trkpt lat="43.27316" lon="2.09556">
        <ele>178.118305</ele>
        <time>2023-01-04T15:41:05.107Z</time>
      </trkpt>
      <trkpt lat="43.27306" lon="2.09566">
        <ele>178.240227</ele>
        <time>2023-01-04T15:42:25.122Z</time>
      </trkpt>
      <trkpt lat="43.27299" lon="2.09574">
        <ele>178.331066</ele>
        <time>2023-01-04T15:42:29.103Z</time>
      </trkpt>
      <trkpt lat="43.27291" lon="2.09585">
        <ele>178.439644</ele>
        <time>2023-01-04T15:42:33.106Z</time>
      </trkpt>
      <trkpt lat="43.27283" lon="2.09594">
        <ele>178.536181</ele>
        <time>2023-01-04T15:42:36.104Z</time>
      </trkpt>
      <trkpt lat="43.27276" lon="2.09605">
        <ele>178.643443</ele>
        <time>2023-01-04T15:42:39.118Z</time>
      </trkpt>
      <trkpt lat="43.27267" lon="2.09615">
        <ele>178.754916</ele>
        <time>2023-01-04T15:42:42.115Z</time>
      </trkpt>
      <trkpt lat="43.27259" lon="2.09627">
        <ele>178.867642</ele>
        <time>2023-01-04T15:42:45.113Z</time>
      </trkpt>
      <trkpt lat="43.27251" lon="2.09638">
        <ele>178.983979</ele>
        <time>2023-01-04T15:42:48.103Z</time>
      </trkpt>
      <trkpt lat="43.27242" lon="2.0965">
        <ele>179.106274</ele>
        <time>2023-01-04T15:42:51.104Z</time>
      </trkpt>
      <trkpt lat="43.27233" lon="2.09661">
        <ele>179.22207</ele>
        <time>2023-01-04T15:42:54.114Z</time>
      </trkpt>
      <trkpt lat="43.27225" lon="2.0967">
        <ele>179.323904</ele>
        <time>2023-01-04T15:42:57.119Z</time>
      </trkpt>
      <trkpt lat="43.27218" lon="2.0968">
        <ele>179.427958</ele>
        <time>2023-01-04T15:43:00.106Z</time>
      </trkpt>
      <trkpt lat="43.27209" lon="2.09692">
        <ele>179.548106</ele>
        <time>2023-01-04T15:43:03.111Z</time>
      </trkpt>
      <trkpt lat="43.272" lon="2.09704">
        <ele>179.609628</ele>
        <time>2023-01-04T15:43:06.101Z</time>
      </trkpt>
      <trkpt lat="43.2719" lon="2.09716">
        <ele>179.53831</ele>
        <time>2023-01-04T15:43:09.110Z</time>
      </trkpt>
      <trkpt lat="43.27181" lon="2.09729">
        <ele>179.46591</ele>
        <time>2023-01-04T15:43:12.099Z</time>
      </trkpt>
      <trkpt lat="43.27175" lon="2.09738">
        <ele>179.41682</ele>
        <time>2023-01-04T15:43:14.099Z</time>
      </trkpt>
      <trkpt lat="43.27168" lon="2.09748">
        <ele>179.366859</ele>
        <time>2023-01-04T15:43:16.103Z</time>
      </trkpt>
      <trkpt lat="43.27162" lon="2.09757">
        <ele>179.314335</ele>
        <time>2023-01-04T15:43:18.107Z</time>
      </trkpt>
      <trkpt lat="43.27156" lon="2.09767">
        <ele>179.264005</ele>
        <time>2023-01-04T15:43:20.102Z</time>
      </trkpt>
      <trkpt lat="43.27149" lon="2.09776">
        <ele>179.211397</ele>
        <time>2023-01-04T15:43:22.103Z</time>
      </trkpt>
      <trkpt lat="43.27143" lon="2.09786">
        <ele>179.159442</ele>
        <time>2023-01-04T15:43:24.114Z</time>
      </trkpt>
      <trkpt lat="43.27137" lon="2.09797">
        <ele>179.105617</ele>
        <time>2023-01-04T15:43:26.112Z</time>
      </trkpt>
      <trkpt lat="43.27131" lon="2.09807">
        <ele>179.055649</ele>
        <time>2023-01-04T15:43:28.100Z</time>
      </trkpt>
      <trkpt lat="43.27127" lon="2.09819">
        <ele>179.002965</ele>
        <time>2023-01-04T15:43:30.102Z</time>
      </trkpt>
      <trkpt lat="43.27122" lon="2.0983">
        <ele>178.951058</ele>
        <time>2023-01-04T15:43:32.100Z</time>
      </trkpt>
      <trkpt lat="43.27118" lon="2.09842">
        <ele>178.899329</ele>
        <time>2023-01-04T15:43:34.104Z</time>
      </trkpt>
      <trkpt lat="43.27113" lon="2.09854">
        <ele>178.84573</ele>
        <time>2023-01-04T15:43:36.103Z</time>
      </trkpt>
      <trkpt lat="43.27109" lon="2.09867">
        <ele>178.789636</ele>
        <time>2023-01-04T15:43:38.103Z</time>
      </trkpt>
      <trkpt lat="43.27104" lon="2.09879">
        <ele>178.735552</ele>
        <time>2023-01-04T15:43:40.106Z</time>
      </trkpt>
      <trkpt lat="43.271" lon="2.09891">
        <ele>178.683867</ele>
        <time>2023-01-04T15:43:42.106Z</time>
      </trkpt>
      <trkpt lat="43.27096" lon="2.09902">
        <ele>178.632097</ele>
        <time>2023-01-04T15:43:44.108Z</time>
      </trkpt>
      <trkpt lat="43.27091" lon="2.09915">
        <ele>178.577389</ele>
        <time>2023-01-04T15:43:46.106Z</time>
      </trkpt>
      <trkpt lat="43.27086" lon="2.09927">
        <ele>178.524443</ele>
        <time>2023-01-04T15:43:48.102Z</time>
      </trkpt>
      <trkpt lat="43.27082" lon="2.09939">
        <ele>178.472137</ele>
        <time>2023-01-04T15:43:50.103Z</time>
      </trkpt>
      <trkpt lat="43.27077" lon="2.09951">
        <ele>178.418953</ele>
        <time>2023-01-04T15:43:52.106Z</time>
      </trkpt>
      <trkpt lat="43.27072" lon="2.09963">
        <ele>178.364918</ele>
        <time>2023-01-04T15:43:54.111Z</time>
      </trkpt>
      <trkpt lat="43.27068" lon="2.09976">
        <ele>178.309609</ele>
        <time>2023-01-04T15:43:56.120Z</time>
      </trkpt>
      <trkpt lat="43.27063" lon="2.09988">
        <ele>178.256705</ele>
        <time>2023-01-04T15:43:58.106Z</time>
      </trkpt>
      <trkpt lat="43.27059" lon="2.1">
        <ele>178.202476</ele>
        <time>2023-01-04T15:44:00.105Z</time>
      </trkpt>
      <trkpt lat="43.27054" lon="2.10012">
        <ele>178.149486</ele>
        <time>2023-01-04T15:44:02.101Z</time>
      </trkpt>
      <trkpt lat="43.2705" lon="2.10024">
        <ele>178.098518</ele>
        <time>2023-01-04T15:44:04.110Z</time>
      </trkpt>
      <trkpt lat="43.27046" lon="2.10037">
        <ele>178.045106</ele>
        <time>2023-01-04T15:44:06.114Z</time>
      </trkpt>
      <trkpt lat="43.27041" lon="2.10048">
        <ele>177.993203</ele>
        <time>2023-01-04T15:44:08.107Z</time>
      </trkpt>
      <trkpt lat="43.27037" lon="2.10061">
        <ele>177.938626</ele>
        <time>2023-01-04T15:44:10.108Z</time>
      </trkpt>
      <trkpt lat="43.27032" lon="2.10073">
        <ele>177.885121</ele>
        <time>2023-01-04T15:44:12.109Z</time>
      </trkpt>
      <trkpt lat="43.27027" lon="2.10086">
        <ele>177.828664</ele>
        <time>2023-01-04T15:44:14.106Z</time>
      </trkpt>
      <trkpt lat="43.27023" lon="2.10099">
        <ele>177.773953</ele>
        <time>2023-01-04T15:44:16.134Z</time>
      </trkpt>
      <trkpt lat="43.27018" lon="2.10111">
        <ele>177.721305</ele>
        <time>2023-01-04T15:44:18.106Z</time>
      </trkpt>
      <trkpt lat="43.27013" lon="2.10122">
        <ele>177.670268</ele>
        <time>2023-01-04T15:44:20.104Z</time>
      </trkpt>
      <trkpt lat="43.27007" lon="2.10138">
        <ele>177.603309</ele>
        <time>2023-01-04T15:44:23.107Z</time>
      </trkpt>
      <trkpt lat="43.27" lon="2.10154">
        <ele>177.533683</ele>
        <time>2023-01-04T15:44:26.111Z</time>
      </trkpt>
      <trkpt lat="43.26995" lon="2.10166">
        <ele>177.482305</ele>
        <time>2023-01-04T15:44:28.130Z</time>
      </trkpt>
      <trkpt lat="43.2699" lon="2.10178">
        <ele>177.430626</ele>
        <time>2023-01-04T15:44:30.114Z</time>
      </trkpt>
      <trkpt lat="43.26985" lon="2.1019">
        <ele>177.378228</ele>
        <time>2023-01-04T15:44:32.115Z</time>
      </trkpt>
      <trkpt lat="43.26979" lon="2.10201">
        <ele>177.326141</ele>
        <time>2023-01-04T15:44:34.124Z</time>
      </trkpt>
      <trkpt lat="43.26974" lon="2.10213">
        <ele>177.275205</ele>
        <time>2023-01-04T15:44:36.110Z</time>
      </trkpt>
      <trkpt lat="43.26968" lon="2.10224">
        <ele>177.223426</ele>
        <time>2023-01-04T15:44:38.117Z</time>
      </trkpt>
      <trkpt lat="43.26963" lon="2.10235">
        <ele>177.173172</ele>
        <time>2023-01-04T15:44:40.103Z</time>
      </trkpt>
      <trkpt lat="43.26955" lon="2.1025">
        <ele>177.102632</ele>
        <time>2023-01-04T15:44:43.120Z</time>
      </trkpt>
      <trkpt lat="43.26947" lon="2.10266">
        <ele>177.031468</ele>
        <time>2023-01-04T15:44:46.110Z</time>
      </trkpt>
      <trkpt lat="43.26941" lon="2.10277">
        <ele>176.982105</ele>
        <time>2023-01-04T15:44:48.118Z</time>
      </trkpt>
      <trkpt lat="43.26936" lon="2.10288">
        <ele>176.93034</ele>
        <time>2023-01-04T15:44:50.106Z</time>
      </trkpt>
      <trkpt lat="43.2693" lon="2.103">
        <ele>176.878961</ele>
        <time>2023-01-04T15:44:52.106Z</time>
      </trkpt>
      <trkpt lat="43.26925" lon="2.10313">
        <ele>176.824244</ele>
        <time>2023-01-04T15:44:54.120Z</time>
      </trkpt>
      <trkpt lat="43.26923" lon="2.10326">
        <ele>176.773987</ele>
        <time>2023-01-04T15:44:56.125Z</time>
      </trkpt>
      <trkpt lat="43.26921" lon="2.10339">
        <ele>176.781198</ele>
        <time>2023-01-04T15:44:58.112Z</time>
      </trkpt>
      <trkpt lat="43.26919" lon="2.10357">
        <ele>176.80343</ele>
        <time>2023-01-04T15:45:01.105Z</time>
      </trkpt>
      <trkpt lat="43.26919" lon="2.10374">
        <ele>176.824566</ele>
        <time>2023-01-04T15:45:04.126Z</time>
      </trkpt>
      <trkpt lat="43.26919" lon="2.10393">
        <ele>176.84654</ele>
        <time>2023-01-04T15:45:07.103Z</time>
      </trkpt>
      <trkpt lat="43.26919" lon="2.10405">
        <ele>176.861595</ele>
        <time>2023-01-04T15:45:09.100Z</time>
      </trkpt>
      <trkpt lat="43.26918" lon="2.10418">
        <ele>176.877174</ele>
        <time>2023-01-04T15:45:11.123Z</time>
      </trkpt>
      <trkpt lat="43.26918" lon="2.1043">
        <ele>176.892597</ele>
        <time>2023-01-04T15:45:13.110Z</time>
      </trkpt>
      <trkpt lat="43.26918" lon="2.10443">
        <ele>176.907773</ele>
        <time>2023-01-04T15:45:15.123Z</time>
      </trkpt>
      <trkpt lat="43.26917" lon="2.10456">
        <ele>176.924172</ele>
        <time>2023-01-04T15:45:17.115Z</time>
      </trkpt>
      <trkpt lat="43.26917" lon="2.10475">
        <ele>176.946508</ele>
        <time>2023-01-04T15:45:20.102Z</time>
      </trkpt>
      <trkpt lat="43.26917" lon="2.10488">
        <ele>176.962776</ele>
        <time>2023-01-04T15:45:22.108Z</time>
      </trkpt>
      <trkpt lat="43.26917" lon="2.10501">
        <ele>176.978798</ele>
        <time>2023-01-04T15:45:24.109Z</time>
      </trkpt>
      <trkpt lat="43.26917" lon="2.10515">
        <ele>176.994698</ele>
        <time>2023-01-04T15:45:26.116Z</time>
      </trkpt>
      <trkpt lat="43.26916" lon="2.10528">
        <ele>177.010485</ele>
        <time>2023-01-04T15:45:28.123Z</time>
      </trkpt>
      <trkpt lat="43.26916" lon="2.10542">
        <ele>177.027481</ele>
        <time>2023-01-04T15:45:30.114Z</time>
      </trkpt>
      <trkpt lat="43.26916" lon="2.10554">
        <ele>177.043139</ele>
        <time>2023-01-04T15:45:32.106Z</time>
      </trkpt>
      <trkpt lat="43.26916" lon="2.10567">
        <ele>177.058675</ele>
        <time>2023-01-04T15:45:34.112Z</time>
      </trkpt>
      <trkpt lat="43.26915" lon="2.10581">
        <ele>177.0781</ele>
        <time>2023-01-04T15:45:36.108Z</time>
      </trkpt>
      <trkpt lat="43.26915" lon="2.10593">
        <ele>177.099024</ele>
        <time>2023-01-04T15:45:38.124Z</time>
      </trkpt>
      <trkpt lat="43.26914" lon="2.1061">
        <ele>177.127634</ele>
        <time>2023-01-04T15:45:41.109Z</time>
      </trkpt>
      <trkpt lat="43.26912" lon="2.10627">
        <ele>177.156863</ele>
        <time>2023-01-04T15:45:44.102Z</time>
      </trkpt>
      <trkpt lat="43.26909" lon="2.10645">
        <ele>177.187388</ele>
        <time>2023-01-04T15:45:47.105Z</time>
      </trkpt>
      <trkpt lat="43.26905" lon="2.10663">
        <ele>177.218248</ele>
        <time>2023-01-04T15:45:50.103Z</time>
      </trkpt>
      <trkpt lat="43.26901" lon="2.10675">
        <ele>177.24089</ele>
        <time>2023-01-04T15:45:52.113Z</time>
      </trkpt>
      <trkpt lat="43.26896" lon="2.10687">
        <ele>177.263379</ele>
        <time>2023-01-04T15:45:54.107Z</time>
      </trkpt>
      <trkpt lat="43.26892" lon="2.10699">
        <ele>177.286296</ele>
        <time>2023-01-04T15:45:56.102Z</time>
      </trkpt>
      <trkpt lat="43.26887" lon="2.10712">
        <ele>177.309987</ele>
        <time>2023-01-04T15:45:58.110Z</time>
      </trkpt>
      <trkpt lat="43.26882" lon="2.10724">
        <ele>177.332877</ele>
        <time>2023-01-04T15:46:00.121Z</time>
      </trkpt>
      <trkpt lat="43.26877" lon="2.10737">
        <ele>177.358187</ele>
        <time>2023-01-04T15:46:02.108Z</time>
      </trkpt>
      <trkpt lat="43.26872" lon="2.1075">
        <ele>177.382781</ele>
        <time>2023-01-04T15:46:04.120Z</time>
      </trkpt>
      <trkpt lat="43.26866" lon="2.10762">
        <ele>177.406231</ele>
        <time>2023-01-04T15:46:06.103Z</time>
      </trkpt>
      <trkpt lat="43.26861" lon="2.10773">
        <ele>177.42803</ele>
        <time>2023-01-04T15:46:08.102Z</time>
      </trkpt>
      <trkpt lat="43.26856" lon="2.10783">
        <ele>177.449003</ele>
        <time>2023-01-04T15:46:10.133Z</time>
      </trkpt>
      <trkpt lat="43.26847" lon="2.10796">
        <ele>177.479148</ele>
        <time>2023-01-04T15:46:13.113Z</time>
      </trkpt>
      <trkpt lat="43.26838" lon="2.10807">
        <ele>177.609378</ele>
        <time>2023-01-04T15:46:16.121Z</time>
      </trkpt>
      <trkpt lat="43.26827" lon="2.10818">
        <ele>177.746526</ele>
        <time>2023-01-04T15:46:19.109Z</time>
      </trkpt>
      <trkpt lat="43.26816" lon="2.10826">
        <ele>177.887913</ele>
        <time>2023-01-04T15:46:22.124Z</time>
      </trkpt>
      <trkpt lat="43.26804" lon="2.10833">
        <ele>178.031859</ele>
        <time>2023-01-04T15:46:25.124Z</time>
      </trkpt>
      <trkpt lat="43.26795" lon="2.10837">
        <ele>178.132774</ele>
        <time>2023-01-04T15:46:27.125Z</time>
      </trkpt>
      <trkpt lat="43.26786" lon="2.1084">
        <ele>178.234734</ele>
        <time>2023-01-04T15:46:29.103Z</time>
      </trkpt>
      <trkpt lat="43.26774" lon="2.10847">
        <ele>178.380387</ele>
        <time>2023-01-04T15:46:32.108Z</time>
      </trkpt>
      <trkpt lat="43.26765" lon="2.10852">
        <ele>178.481941</ele>
        <time>2023-01-04T15:46:34.103Z</time>
      </trkpt>
      <trkpt lat="43.26753" lon="2.10859">
        <ele>178.625269</ele>
        <time>2023-01-04T15:46:37.113Z</time>
      </trkpt>
      <trkpt lat="43.26745" lon="2.10865">
        <ele>178.727723</ele>
        <time>2023-01-04T15:46:39.102Z</time>
      </trkpt>
      <trkpt lat="43.26736" lon="2.10869">
        <ele>178.827669</ele>
        <time>2023-01-04T15:46:41.101Z</time>
      </trkpt>
      <trkpt lat="43.26727" lon="2.10874">
        <ele>178.932564</ele>
        <time>2023-01-04T15:46:43.123Z</time>
      </trkpt>
      <trkpt lat="43.26719" lon="2.10879">
        <ele>179.030394</ele>
        <time>2023-01-04T15:46:45.121Z</time>
      </trkpt>
      <trkpt lat="43.26706" lon="2.10885">
        <ele>179.178662</ele>
        <time>2023-01-04T15:46:48.110Z</time>
      </trkpt>
      <trkpt lat="43.26695" lon="2.10892">
        <ele>179.317033</ele>
        <time>2023-01-04T15:46:51.101Z</time>
      </trkpt>
      <trkpt lat="43.26683" lon="2.10899">
        <ele>179.444462</ele>
        <time>2023-01-04T15:46:54.108Z</time>
      </trkpt>
      <trkpt lat="43.26675" lon="2.10904">
        <ele>179.405171</ele>
        <time>2023-01-04T15:46:56.100Z</time>
      </trkpt>
      <trkpt lat="43.26666" lon="2.1091">
        <ele>179.364044</ele>
        <time>2023-01-04T15:46:58.112Z</time>
      </trkpt>
      <trkpt lat="43.26658" lon="2.10915">
        <ele>179.324731</ele>
        <time>2023-01-04T15:47:00.110Z</time>
      </trkpt>
      <trkpt lat="43.26645" lon="2.10922">
        <ele>179.268118</ele>
        <time>2023-01-04T15:47:03.118Z</time>
      </trkpt>
      <trkpt lat="43.26633" lon="2.10929">
        <ele>179.210985</ele>
        <time>2023-01-04T15:47:06.104Z</time>
      </trkpt>
      <trkpt lat="43.26621" lon="2.10935">
        <ele>179.154771</ele>
        <time>2023-01-04T15:47:09.107Z</time>
      </trkpt>
      <trkpt lat="43.2661" lon="2.10943">
        <ele>179.100288</ele>
        <time>2023-01-04T15:47:12.115Z</time>
      </trkpt>
      <trkpt lat="43.26598" lon="2.10949">
        <ele>179.047306</ele>
        <time>2023-01-04T15:47:15.119Z</time>
      </trkpt>
      <trkpt lat="43.26588" lon="2.10955">
        <ele>178.998837</ele>
        <time>2023-01-04T15:47:18.111Z</time>
      </trkpt>
      <trkpt lat="43.26579" lon="2.1096">
        <ele>178.955164</ele>
        <time>2023-01-04T15:47:21.106Z</time>
      </trkpt>
      <trkpt lat="43.26568" lon="2.10965">
        <ele>178.904587</ele>
        <time>2023-01-04T15:47:25.124Z</time>
      </trkpt>
      <trkpt lat="43.26558" lon="2.10968">
        <ele>178.863869</ele>
        <time>2023-01-04T15:47:28.112Z</time>
      </trkpt>
      <trkpt lat="43.26549" lon="2.10973">
        <ele>178.82123</ele>
        <time>2023-01-04T15:47:31.121Z</time>
      </trkpt>
      <trkpt lat="43.2654" lon="2.1098">
        <ele>178.776642</ele>
        <time>2023-01-04T15:47:34.110Z</time>
      </trkpt>
      <trkpt lat="43.26533" lon="2.10987">
        <ele>178.736031</ele>
        <time>2023-01-04T15:47:37.134Z</time>
      </trkpt>
      <trkpt lat="43.26524" lon="2.10994">
        <ele>178.693384</ele>
        <time>2023-01-04T15:47:41.112Z</time>
      </trkpt>
      <trkpt lat="43.26515" lon="2.10998">
        <ele>178.63657</ele>
        <time>2023-01-04T15:47:44.106Z</time>
      </trkpt>
      <trkpt lat="43.26502" lon="2.11005">
        <ele>178.541842</ele>
        <time>2023-01-04T15:47:47.112Z</time>
      </trkpt>
      <trkpt lat="43.26494" lon="2.1101">
        <ele>178.473025</ele>
        <time>2023-01-04T15:47:49.122Z</time>
      </trkpt>
      <trkpt lat="43.26485" lon="2.11014">
        <ele>178.403724</ele>
        <time>2023-01-04T15:47:51.112Z</time>
      </trkpt>
      <trkpt lat="43.26473" lon="2.11021">
        <ele>178.312669</ele>
        <time>2023-01-04T15:47:54.126Z</time>
      </trkpt>
      <trkpt lat="43.26463" lon="2.11028">
        <ele>178.228298</ele>
        <time>2023-01-04T15:47:57.113Z</time>
      </trkpt>
      <trkpt lat="43.26451" lon="2.11034">
        <ele>178.139662</ele>
        <time>2023-01-04T15:48:00.106Z</time>
      </trkpt>
      <trkpt lat="43.2644" lon="2.11041">
        <ele>178.049783</ele>
        <time>2023-01-04T15:48:03.123Z</time>
      </trkpt>
      <trkpt lat="43.26429" lon="2.11046">
        <ele>177.963336</ele>
        <time>2023-01-04T15:48:06.105Z</time>
      </trkpt>
      <trkpt lat="43.26418" lon="2.11052">
        <ele>177.877573</ele>
        <time>2023-01-04T15:48:09.120Z</time>
      </trkpt>
      <trkpt lat="43.26407" lon="2.11058">
        <ele>177.794246</ele>
        <time>2023-01-04T15:48:12.110Z</time>
      </trkpt>
      <trkpt lat="43.26396" lon="2.11063">
        <ele>177.710345</ele>
        <time>2023-01-04T15:48:15.115Z</time>
      </trkpt>
      <trkpt lat="43.26386" lon="2.11069">
        <ele>177.629031</ele>
        <time>2023-01-04T15:48:18.107Z</time>
      </trkpt>
      <trkpt lat="43.26375" lon="2.11076">
        <ele>177.543081</ele>
        <time>2023-01-04T15:48:21.122Z</time>
      </trkpt>
      <trkpt lat="43.26365" lon="2.11082">
        <ele>177.459803</ele>
        <time>2023-01-04T15:48:24.125Z</time>
      </trkpt>
      <trkpt lat="43.26354" lon="2.11088">
        <ele>177.375859</ele>
        <time>2023-01-04T15:48:27.123Z</time>
      </trkpt>
      <trkpt lat="43.26343" lon="2.11094">
        <ele>177.254241</ele>
        <time>2023-01-04T15:48:30.110Z</time>
      </trkpt>
      <trkpt lat="43.26333" lon="2.111">
        <ele>177.136869</ele>
        <time>2023-01-04T15:48:33.103Z</time>
      </trkpt>
      <trkpt lat="43.26322" lon="2.11107">
        <ele>177.00766</ele>
        <time>2023-01-04T15:48:36.102Z</time>
      </trkpt>
      <trkpt lat="43.26311" lon="2.11113">
        <ele>176.875829</ele>
        <time>2023-01-04T15:48:39.103Z</time>
      </trkpt>
      <trkpt lat="43.263" lon="2.1112">
        <ele>176.74485</ele>
        <time>2023-01-04T15:48:42.111Z</time>
      </trkpt>
      <trkpt lat="43.2629" lon="2.11125">
        <ele>176.625267</ele>
        <time>2023-01-04T15:48:45.113Z</time>
      </trkpt>
      <trkpt lat="43.26279" lon="2.11131">
        <ele>176.501331</ele>
        <time>2023-01-04T15:48:48.101Z</time>
      </trkpt>
      <trkpt lat="43.26268" lon="2.11138">
        <ele>176.36603</ele>
        <time>2023-01-04T15:48:51.115Z</time>
      </trkpt>
      <trkpt lat="43.26257" lon="2.11144">
        <ele>176.23996</ele>
        <time>2023-01-04T15:48:54.102Z</time>
      </trkpt>
      <trkpt lat="43.26246" lon="2.11152">
        <ele>176.111997</ele>
        <time>2023-01-04T15:48:57.100Z</time>
      </trkpt>
      <trkpt lat="43.26236" lon="2.11159">
        <ele>175.983729</ele>
        <time>2023-01-04T15:49:00.116Z</time>
      </trkpt>
      <trkpt lat="43.26226" lon="2.11167">
        <ele>175.859666</ele>
        <time>2023-01-04T15:49:03.104Z</time>
      </trkpt>
      <trkpt lat="43.26217" lon="2.11175">
        <ele>175.742894</ele>
        <time>2023-01-04T15:49:06.106Z</time>
      </trkpt>
      <trkpt lat="43.26206" lon="2.11181">
        <ele>175.616655</ele>
        <time>2023-01-04T15:49:09.111Z</time>
      </trkpt>
      <trkpt lat="43.26196" lon="2.11189">
        <ele>175.488125</ele>
        <time>2023-01-04T15:49:12.105Z</time>
      </trkpt>
      <trkpt lat="43.26186" lon="2.11198">
        <ele>175.44526</ele>
        <time>2023-01-04T15:49:15.099Z</time>
      </trkpt>
      <trkpt lat="43.26175" lon="2.11207">
        <ele>175.525807</ele>
        <time>2023-01-04T15:49:18.100Z</time>
      </trkpt>
      <trkpt lat="43.26167" lon="2.11218">
        <ele>175.599147</ele>
        <time>2023-01-04T15:49:21.103Z</time>
      </trkpt>
      <trkpt lat="43.26159" lon="2.11229">
        <ele>175.669034</ele>
        <time>2023-01-04T15:49:24.106Z</time>
      </trkpt>
      <trkpt lat="43.26152" lon="2.11241">
        <ele>175.743491</ele>
        <time>2023-01-04T15:49:27.101Z</time>
      </trkpt>
      <trkpt lat="43.26146" lon="2.11255">
        <ele>175.814937</ele>
        <time>2023-01-04T15:49:30.103Z</time>
      </trkpt>
      <trkpt lat="43.2614" lon="2.11269">
        <ele>175.891774</ele>
        <time>2023-01-04T15:49:33.113Z</time>
      </trkpt>
      <trkpt lat="43.26134" lon="2.11283">
        <ele>175.970851</ele>
        <time>2023-01-04T15:49:36.107Z</time>
      </trkpt>
      <trkpt lat="43.26127" lon="2.11298">
        <ele>176.051699</ele>
        <time>2023-01-04T15:49:39.103Z</time>
      </trkpt>
      <trkpt lat="43.26121" lon="2.11313">
        <ele>176.132948</ele>
        <time>2023-01-04T15:49:42.106Z</time>
      </trkpt>
      <trkpt lat="43.26116" lon="2.11324">
        <ele>176.19041</ele>
        <time>2023-01-04T15:49:44.102Z</time>
      </trkpt>
      <trkpt lat="43.26112" lon="2.11335">
        <ele>176.24806</ele>
        <time>2023-01-04T15:49:46.111Z</time>
      </trkpt>
      <trkpt lat="43.26108" lon="2.11346">
        <ele>176.305844</ele>
        <time>2023-01-04T15:49:48.108Z</time>
      </trkpt>
      <trkpt lat="43.26103" lon="2.11357">
        <ele>176.363604</ele>
        <time>2023-01-04T15:49:50.104Z</time>
      </trkpt>
      <trkpt lat="43.26098" lon="2.11368">
        <ele>176.423174</ele>
        <time>2023-01-04T15:49:52.104Z</time>
      </trkpt>
      <trkpt lat="43.26094" lon="2.11379">
        <ele>176.481234</ele>
        <time>2023-01-04T15:49:54.117Z</time>
      </trkpt>
      <trkpt lat="43.2609" lon="2.1139">
        <ele>176.540233</ele>
        <time>2023-01-04T15:49:56.120Z</time>
      </trkpt>
      <trkpt lat="43.26086" lon="2.11401">
        <ele>176.555697</ele>
        <time>2023-01-04T15:49:58.124Z</time>
      </trkpt>
      <trkpt lat="43.26081" lon="2.11413">
        <ele>176.545764</ele>
        <time>2023-01-04T15:50:00.101Z</time>
      </trkpt>
      <trkpt lat="43.26077" lon="2.11423">
        <ele>176.536174</ele>
        <time>2023-01-04T15:50:02.110Z</time>
      </trkpt>
      <trkpt lat="43.26072" lon="2.11434">
        <ele>176.526366</ele>
        <time>2023-01-04T15:50:04.122Z</time>
      </trkpt>
      <trkpt lat="43.26067" lon="2.11446">
        <ele>176.516433</ele>
        <time>2023-01-04T15:50:06.117Z</time>
      </trkpt>
      <trkpt lat="43.26063" lon="2.11458">
        <ele>176.50633</ele>
        <time>2023-01-04T15:50:08.135Z</time>
      </trkpt>
      <trkpt lat="43.26058" lon="2.11469">
        <ele>176.496712</ele>
        <time>2023-01-04T15:50:10.115Z</time>
      </trkpt>
      <trkpt lat="43.26054" lon="2.1148">
        <ele>176.487078</ele>
        <time>2023-01-04T15:50:12.111Z</time>
      </trkpt>
      <trkpt lat="43.26048" lon="2.11495">
        <ele>176.474087</ele>
        <time>2023-01-04T15:50:15.123Z</time>
      </trkpt>
      <trkpt lat="43.26041" lon="2.1151">
        <ele>176.461023</ele>
        <time>2023-01-04T15:50:18.119Z</time>
      </trkpt>
      <trkpt lat="43.26037" lon="2.11521">
        <ele>176.451616</ele>
        <time>2023-01-04T15:50:20.133Z</time>
      </trkpt>
      <trkpt lat="43.26032" lon="2.11531">
        <ele>176.442197</ele>
        <time>2023-01-04T15:50:22.110Z</time>
      </trkpt>
      <trkpt lat="43.26028" lon="2.11543">
        <ele>176.432447</ele>
        <time>2023-01-04T15:50:24.126Z</time>
      </trkpt>
      <trkpt lat="43.26023" lon="2.11554">
        <ele>176.422707</ele>
        <time>2023-01-04T15:50:26.111Z</time>
      </trkpt>
      <trkpt lat="43.26019" lon="2.11565">
        <ele>176.412921</ele>
        <time>2023-01-04T15:50:28.100Z</time>
      </trkpt>
      <trkpt lat="43.26013" lon="2.11576">
        <ele>176.402579</ele>
        <time>2023-01-04T15:50:30.108Z</time>
      </trkpt>
      <trkpt lat="43.26006" lon="2.11592">
        <ele>176.388933</ele>
        <time>2023-01-04T15:50:33.113Z</time>
      </trkpt>
      <trkpt lat="43.26002" lon="2.11604">
        <ele>176.379079</ele>
        <time>2023-01-04T15:50:35.110Z</time>
      </trkpt>
      <trkpt lat="43.25997" lon="2.11615">
        <ele>176.373307</ele>
        <time>2023-01-04T15:50:37.109Z</time>
      </trkpt>
      <trkpt lat="43.25992" lon="2.11628">
        <ele>176.370842</ele>
        <time>2023-01-04T15:50:39.110Z</time>
      </trkpt>
      <trkpt lat="43.25987" lon="2.1164">
        <ele>176.36853</ele>
        <time>2023-01-04T15:50:41.117Z</time>
      </trkpt>
      <trkpt lat="43.25983" lon="2.11651">
        <ele>176.366286</ele>
        <time>2023-01-04T15:50:43.127Z</time>
      </trkpt>
      <trkpt lat="43.25978" lon="2.11663">
        <ele>176.364077</ele>
        <time>2023-01-04T15:50:45.113Z</time>
      </trkpt>
      <trkpt lat="43.25974" lon="2.11674">
        <ele>176.361906</ele>
        <time>2023-01-04T15:50:47.101Z</time>
      </trkpt>
      <trkpt lat="43.25967" lon="2.11688">
        <ele>176.358987</ele>
        <time>2023-01-04T15:50:50.106Z</time>
      </trkpt>
      <trkpt lat="43.25962" lon="2.11703">
        <ele>176.356235</ele>
        <time>2023-01-04T15:50:53.110Z</time>
      </trkpt>
      <trkpt lat="43.25955" lon="2.11718">
        <ele>176.353152</ele>
        <time>2023-01-04T15:50:56.106Z</time>
      </trkpt>
      <trkpt lat="43.2595" lon="2.11729">
        <ele>176.350919</ele>
        <time>2023-01-04T15:50:58.111Z</time>
      </trkpt>
      <trkpt lat="43.25945" lon="2.1174">
        <ele>176.348788</ele>
        <time>2023-01-04T15:51:00.107Z</time>
      </trkpt>
      <trkpt lat="43.25941" lon="2.11751">
        <ele>176.346553</ele>
        <time>2023-01-04T15:51:02.114Z</time>
      </trkpt>
      <trkpt lat="43.25936" lon="2.11763">
        <ele>176.344367</ele>
        <time>2023-01-04T15:51:04.134Z</time>
      </trkpt>
      <trkpt lat="43.25931" lon="2.11774">
        <ele>176.342066</ele>
        <time>2023-01-04T15:51:06.111Z</time>
      </trkpt>
      <trkpt lat="43.25926" lon="2.11785">
        <ele>176.33986</ele>
        <time>2023-01-04T15:51:08.136Z</time>
      </trkpt>
      <trkpt lat="43.2592" lon="2.11801">
        <ele>176.336841</ele>
        <time>2023-01-04T15:51:11.108Z</time>
      </trkpt>
      <trkpt lat="43.25914" lon="2.11816">
        <ele>176.333802</ele>
        <time>2023-01-04T15:51:14.106Z</time>
      </trkpt>
      <trkpt lat="43.25907" lon="2.11832">
        <ele>176.194666</ele>
        <time>2023-01-04T15:51:17.110Z</time>
      </trkpt>
      <trkpt lat="43.259" lon="2.11848">
        <ele>175.96017</ele>
        <time>2023-01-04T15:51:20.110Z</time>
      </trkpt>
      <trkpt lat="43.25893" lon="2.11863">
        <ele>175.738887</ele>
        <time>2023-01-04T15:51:23.119Z</time>
      </trkpt>
      <trkpt lat="43.25886" lon="2.11878">
        <ele>175.508147</ele>
        <time>2023-01-04T15:51:26.104Z</time>
      </trkpt>
      <trkpt lat="43.25881" lon="2.11889">
        <ele>175.348895</ele>
        <time>2023-01-04T15:51:28.123Z</time>
      </trkpt>
      <trkpt lat="43.25875" lon="2.11905">
        <ele>175.112353</ele>
        <time>2023-01-04T15:51:31.110Z</time>
      </trkpt>
      <trkpt lat="43.25869" lon="2.11921">
        <ele>174.886399</ele>
        <time>2023-01-04T15:51:34.117Z</time>
      </trkpt>
      <trkpt lat="43.25864" lon="2.11937">
        <ele>174.668078</ele>
        <time>2023-01-04T15:51:37.105Z</time>
      </trkpt>
      <trkpt lat="43.25858" lon="2.1195">
        <ele>174.466373</ele>
        <time>2023-01-04T15:51:40.117Z</time>
      </trkpt>
      <trkpt lat="43.25852" lon="2.11964">
        <ele>174.266443</ele>
        <time>2023-01-04T15:51:43.123Z</time>
      </trkpt>
      <trkpt lat="43.25851" lon="2.11976">
        <ele>174.105721</ele>
        <time>2023-01-04T15:51:46.134Z</time>
      </trkpt>
      <trkpt lat="43.25853" lon="2.11992">
        <ele>173.900907</ele>
        <time>2023-01-04T15:51:49.135Z</time>
      </trkpt>
      <trkpt lat="43.2585" lon="2.12004">
        <ele>173.738198</ele>
        <time>2023-01-04T15:51:51.107Z</time>
      </trkpt>
      <trkpt lat="43.25843" lon="2.12019">
        <ele>173.514715</ele>
        <time>2023-01-04T15:51:54.122Z</time>
      </trkpt>
      <trkpt lat="43.25838" lon="2.12034">
        <ele>173.304012</ele>
        <time>2023-01-04T15:51:57.103Z</time>
      </trkpt>
      <trkpt lat="43.25831" lon="2.12047">
        <ele>173.144661</ele>
        <time>2023-01-04T15:52:00.101Z</time>
      </trkpt>
      <trkpt lat="43.25823" lon="2.12056">
        <ele>173.050818</ele>
        <time>2023-01-04T15:52:03.114Z</time>
      </trkpt>
      <trkpt lat="43.25813" lon="2.1206">
        <ele>172.961796</ele>
        <time>2023-01-04T15:52:06.135Z</time>
      </trkpt>
      <trkpt lat="43.25807" lon="2.1207">
        <ele>172.881258</ele>
        <time>2023-01-04T15:52:08.135Z</time>
      </trkpt>
      <trkpt lat="43.25802" lon="2.12081">
        <ele>172.79945</ele>
        <time>2023-01-04T15:52:10.135Z</time>
      </trkpt>
      <trkpt lat="43.25797" lon="2.12093">
        <ele>172.709552</ele>
        <time>2023-01-04T15:52:12.108Z</time>
      </trkpt>
      <trkpt lat="43.25792" lon="2.12105">
        <ele>172.623883</ele>
        <time>2023-01-04T15:52:14.122Z</time>
      </trkpt>
      <trkpt lat="43.25787" lon="2.12117">
        <ele>172.539216</ele>
        <time>2023-01-04T15:52:16.110Z</time>
      </trkpt>
      <trkpt lat="43.25782" lon="2.12129">
        <ele>172.451175</ele>
        <time>2023-01-04T15:52:18.112Z</time>
      </trkpt>
      <trkpt lat="43.25777" lon="2.12141">
        <ele>172.363007</ele>
        <time>2023-01-04T15:52:20.119Z</time>
      </trkpt>
      <trkpt lat="43.25772" lon="2.12153">
        <ele>172.276806</ele>
        <time>2023-01-04T15:52:22.121Z</time>
      </trkpt>
      <trkpt lat="43.25767" lon="2.12165">
        <ele>172.185272</ele>
        <time>2023-01-04T15:52:24.100Z</time>
      </trkpt>
      <trkpt lat="43.25762" lon="2.12178">
        <ele>172.093493</ele>
        <time>2023-01-04T15:52:26.106Z</time>
      </trkpt>
      <trkpt lat="43.25756" lon="2.1219">
        <ele>172.000973</ele>
        <time>2023-01-04T15:52:28.114Z</time>
      </trkpt>
      <trkpt lat="43.25751" lon="2.12203">
        <ele>171.906477</ele>
        <time>2023-01-04T15:52:30.133Z</time>
      </trkpt>
      <trkpt lat="43.25746" lon="2.12216">
        <ele>171.811505</ele>
        <time>2023-01-04T15:52:32.121Z</time>
      </trkpt>
      <trkpt lat="43.2574" lon="2.12229">
        <ele>171.718439</ele>
        <time>2023-01-04T15:52:34.123Z</time>
      </trkpt>
      <trkpt lat="43.25736" lon="2.12241">
        <ele>171.633326</ele>
        <time>2023-01-04T15:52:36.135Z</time>
      </trkpt>
      <trkpt lat="43.25731" lon="2.12252">
        <ele>171.663844</ele>
        <time>2023-01-04T15:52:38.113Z</time>
      </trkpt>
      <trkpt lat="43.25726" lon="2.12264">
        <ele>171.707668</ele>
        <time>2023-01-04T15:52:40.124Z</time>
      </trkpt>
      <trkpt lat="43.2572" lon="2.12275">
        <ele>171.753387</ele>
        <time>2023-01-04T15:52:42.126Z</time>
      </trkpt>
      <trkpt lat="43.25716" lon="2.12287">
        <ele>171.796993</ele>
        <time>2023-01-04T15:52:44.111Z</time>
      </trkpt>
      <trkpt lat="43.25711" lon="2.123">
        <ele>171.843971</ele>
        <time>2023-01-04T15:52:46.107Z</time>
      </trkpt>
      <trkpt lat="43.25705" lon="2.12311">
        <ele>171.88819</ele>
        <time>2023-01-04T15:52:48.098Z</time>
      </trkpt>
      <trkpt lat="43.257" lon="2.12324">
        <ele>171.935592</ele>
        <time>2023-01-04T15:52:50.125Z</time>
      </trkpt>
      <trkpt lat="43.25695" lon="2.12336">
        <ele>171.983929</ele>
        <time>2023-01-04T15:52:52.136Z</time>
      </trkpt>
      <trkpt lat="43.2569" lon="2.12349">
        <ele>172.031907</ele>
        <time>2023-01-04T15:52:54.103Z</time>
      </trkpt>
      <trkpt lat="43.25684" lon="2.12363">
        <ele>172.080882</ele>
        <time>2023-01-04T15:52:56.106Z</time>
      </trkpt>
      <trkpt lat="43.25679" lon="2.12375">
        <ele>172.126961</ele>
        <time>2023-01-04T15:52:58.114Z</time>
      </trkpt>
      <trkpt lat="43.25674" lon="2.12387">
        <ele>172.174621</ele>
        <time>2023-01-04T15:53:00.104Z</time>
      </trkpt>
      <trkpt lat="43.25669" lon="2.124">
        <ele>172.221202</ele>
        <time>2023-01-04T15:53:02.115Z</time>
      </trkpt>
      <trkpt lat="43.25664" lon="2.12412">
        <ele>172.267961</ele>
        <time>2023-01-04T15:53:04.103Z</time>
      </trkpt>
      <trkpt lat="43.25659" lon="2.12425">
        <ele>172.315729</ele>
        <time>2023-01-04T15:53:06.103Z</time>
      </trkpt>
      <trkpt lat="43.25653" lon="2.12437">
        <ele>172.360933</ele>
        <time>2023-01-04T15:53:08.108Z</time>
      </trkpt>
      <trkpt lat="43.25649" lon="2.12449">
        <ele>172.405271</ele>
        <time>2023-01-04T15:53:10.101Z</time>
      </trkpt>
      <trkpt lat="43.25644" lon="2.12461">
        <ele>172.445105</ele>
        <time>2023-01-04T15:53:12.110Z</time>
      </trkpt>
      <trkpt lat="43.25639" lon="2.12473">
        <ele>172.479824</ele>
        <time>2023-01-04T15:53:14.107Z</time>
      </trkpt>
      <trkpt lat="43.25634" lon="2.12485">
        <ele>172.513511</ele>
        <time>2023-01-04T15:53:16.107Z</time>
      </trkpt>
      <trkpt lat="43.25629" lon="2.12497">
        <ele>172.545854</ele>
        <time>2023-01-04T15:53:18.099Z</time>
      </trkpt>
      <trkpt lat="43.25624" lon="2.12508">
        <ele>172.579328</ele>
        <time>2023-01-04T15:53:20.109Z</time>
      </trkpt>
      <trkpt lat="43.2562" lon="2.1252">
        <ele>172.612007</ele>
        <time>2023-01-04T15:53:22.104Z</time>
      </trkpt>
      <trkpt lat="43.25613" lon="2.12537">
        <ele>172.657675</ele>
        <time>2023-01-04T15:53:25.106Z</time>
      </trkpt>
      <trkpt lat="43.25607" lon="2.12551">
        <ele>172.698306</ele>
        <time>2023-01-04T15:53:28.121Z</time>
      </trkpt>
      <trkpt lat="43.25602" lon="2.12564">
        <ele>172.734367</ele>
        <time>2023-01-04T15:53:31.111Z</time>
      </trkpt>
      <trkpt lat="43.25597" lon="2.12577">
        <ele>172.770525</ele>
        <time>2023-01-04T15:53:34.107Z</time>
      </trkpt>
      <trkpt lat="43.25591" lon="2.1259">
        <ele>172.808355</ele>
        <time>2023-01-04T15:53:37.125Z</time>
      </trkpt>
      <trkpt lat="43.25586" lon="2.12604">
        <ele>172.846772</ele>
        <time>2023-01-04T15:53:40.105Z</time>
      </trkpt>
      <trkpt lat="43.25582" lon="2.12618">
        <ele>172.882008</ele>
        <time>2023-01-04T15:53:43.103Z</time>
      </trkpt>
      <trkpt lat="43.25578" lon="2.1263">
        <ele>172.916004</ele>
        <time>2023-01-04T15:53:46.110Z</time>
      </trkpt>
      <trkpt lat="43.25573" lon="2.12641">
        <ele>172.947326</ele>
        <time>2023-01-04T15:53:49.108Z</time>
      </trkpt>
      <trkpt lat="43.25569" lon="2.12655">
        <ele>172.983801</ele>
        <time>2023-01-04T15:53:53.122Z</time>
      </trkpt>
      <trkpt lat="43.25564" lon="2.1267">
        <ele>173.023751</ele>
        <time>2023-01-04T15:55:23.136Z</time>
      </trkpt>
      <trkpt lat="43.25559" lon="2.12684">
        <ele>173.024423</ele>
        <time>2023-01-04T15:55:32.113Z</time>
      </trkpt>
      <trkpt lat="43.25554" lon="2.12694">
        <ele>173.009563</ele>
        <time>2023-01-04T15:55:36.105Z</time>
      </trkpt>
      <trkpt lat="43.25549" lon="2.12707">
        <ele>172.992311</ele>
        <time>2023-01-04T15:55:39.101Z</time>
      </trkpt>
      <trkpt lat="43.25543" lon="2.12723">
        <ele>172.97061</ele>
        <time>2023-01-04T15:55:42.105Z</time>
      </trkpt>
      <trkpt lat="43.25538" lon="2.12734">
        <ele>172.955006</ele>
        <time>2023-01-04T15:55:44.110Z</time>
      </trkpt>
      <trkpt lat="43.25531" lon="2.12748">
        <ele>172.935231</ele>
        <time>2023-01-04T15:55:47.103Z</time>
      </trkpt>
      <trkpt lat="43.25527" lon="2.12761">
        <ele>172.917664</ele>
        <time>2023-01-04T15:55:50.114Z</time>
      </trkpt>
      <trkpt lat="43.25522" lon="2.12772">
        <ele>172.901817</ele>
        <time>2023-01-04T15:55:53.104Z</time>
      </trkpt>
      <trkpt lat="43.25517" lon="2.12785">
        <ele>172.884501</ele>
        <time>2023-01-04T15:55:57.105Z</time>
      </trkpt>
      <trkpt lat="43.25511" lon="2.12798">
        <ele>172.866251</ele>
        <time>2023-01-04T15:56:02.107Z</time>
      </trkpt>
      <trkpt lat="43.25506" lon="2.12811">
        <ele>172.848268</ele>
        <time>2023-01-04T15:56:06.118Z</time>
      </trkpt>
      <trkpt lat="43.255" lon="2.12823">
        <ele>172.831564</ele>
        <time>2023-01-04T15:56:09.109Z</time>
      </trkpt>
      <trkpt lat="43.25495" lon="2.12835">
        <ele>172.815226</ele>
        <time>2023-01-04T15:56:12.104Z</time>
      </trkpt>
      <trkpt lat="43.25489" lon="2.12845">
        <ele>172.799596</ele>
        <time>2023-01-04T15:56:15.113Z</time>
      </trkpt>
      <trkpt lat="43.25485" lon="2.12857">
        <ele>172.784141</ele>
        <time>2023-01-04T15:56:18.105Z</time>
      </trkpt>
      <trkpt lat="43.2548" lon="2.1287">
        <ele>172.767046</ele>
        <time>2023-01-04T15:56:21.105Z</time>
      </trkpt>
      <trkpt lat="43.25475" lon="2.1288">
        <ele>172.751849</ele>
        <time>2023-01-04T15:56:24.122Z</time>
      </trkpt>
      <trkpt lat="43.2547" lon="2.12893">
        <ele>172.685425</ele>
        <time>2023-01-04T15:56:27.124Z</time>
      </trkpt>
      <trkpt lat="43.25465" lon="2.12905">
        <ele>172.542491</ele>
        <time>2023-01-04T15:56:30.108Z</time>
      </trkpt>
      <trkpt lat="43.2546" lon="2.12917">
        <ele>172.414349</ele>
        <time>2023-01-04T15:56:33.120Z</time>
      </trkpt>
      <trkpt lat="43.25456" lon="2.12931">
        <ele>172.260083</ele>
        <time>2023-01-04T15:56:37.116Z</time>
      </trkpt>
      <trkpt lat="43.25451" lon="2.12943">
        <ele>172.125145</ele>
        <time>2023-01-04T15:56:41.104Z</time>
      </trkpt>
      <trkpt lat="43.25443" lon="2.12955">
        <ele>171.966699</ele>
        <time>2023-01-04T15:56:45.118Z</time>
      </trkpt>
      <trkpt lat="43.25439" lon="2.12968">
        <ele>171.824995</ele>
        <time>2023-01-04T15:56:48.108Z</time>
      </trkpt>
      <trkpt lat="43.25434" lon="2.12979">
        <ele>171.702112</ele>
        <time>2023-01-04T15:56:51.112Z</time>
      </trkpt>
      <trkpt lat="43.25428" lon="2.1299">
        <ele>171.570805</ele>
        <time>2023-01-04T15:56:54.135Z</time>
      </trkpt>
      <trkpt lat="43.25425" lon="2.13002">
        <ele>171.439267</ele>
        <time>2023-01-04T15:56:57.105Z</time>
      </trkpt>
      <trkpt lat="43.2542" lon="2.13013">
        <ele>171.311156</ele>
        <time>2023-01-04T15:57:00.109Z</time>
      </trkpt>
      <trkpt lat="43.25415" lon="2.13026">
        <ele>171.175508</ele>
        <time>2023-01-04T15:57:03.113Z</time>
      </trkpt>
      <trkpt lat="43.2541" lon="2.13037">
        <ele>171.041781</ele>
        <time>2023-01-04T15:57:06.100Z</time>
      </trkpt>
      <trkpt lat="43.25405" lon="2.13049">
        <ele>170.906695</ele>
        <time>2023-01-04T15:57:09.115Z</time>
      </trkpt>
      <trkpt lat="43.25401" lon="2.1306">
        <ele>170.782486</ele>
        <time>2023-01-04T15:57:12.113Z</time>
      </trkpt>
      <trkpt lat="43.25395" lon="2.13073">
        <ele>170.630967</ele>
        <time>2023-01-04T15:57:16.119Z</time>
      </trkpt>
      <trkpt lat="43.2539" lon="2.13084">
        <ele>170.505037</ele>
        <time>2023-01-04T15:57:19.103Z</time>
      </trkpt>
      <trkpt lat="43.25384" lon="2.131">
        <ele>170.331982</ele>
        <time>2023-01-04T15:57:23.108Z</time>
      </trkpt>
      <trkpt lat="43.25378" lon="2.13114">
        <ele>170.296039</ele>
        <time>2023-01-04T15:57:26.108Z</time>
      </trkpt>
      <trkpt lat="43.25373" lon="2.13126">
        <ele>170.280685</ele>
        <time>2023-01-04T15:57:29.115Z</time>
      </trkpt>
      <trkpt lat="43.25367" lon="2.1314">
        <ele>170.263859</ele>
        <time>2023-01-04T15:57:32.134Z</time>
      </trkpt>
      <trkpt lat="43.25361" lon="2.13154">
        <ele>170.246521</ele>
        <time>2023-01-04T15:57:35.112Z</time>
      </trkpt>
      <trkpt lat="43.25356" lon="2.13167">
        <ele>170.230704</ele>
        <time>2023-01-04T15:57:38.112Z</time>
      </trkpt>
      <trkpt lat="43.2535" lon="2.13177">
        <ele>170.216656</ele>
        <time>2023-01-04T15:57:41.116Z</time>
      </trkpt>
      <trkpt lat="43.25346" lon="2.13189">
        <ele>170.20341</ele>
        <time>2023-01-04T15:57:44.110Z</time>
      </trkpt>
      <trkpt lat="43.25341" lon="2.13201">
        <ele>170.188858</ele>
        <time>2023-01-04T15:57:48.135Z</time>
      </trkpt>
      <trkpt lat="43.25336" lon="2.13211">
        <ele>170.175456</ele>
        <time>2023-01-04T15:57:52.114Z</time>
      </trkpt>
      <trkpt lat="43.2533" lon="2.13225">
        <ele>170.159018</ele>
        <time>2023-01-04T15:57:56.112Z</time>
      </trkpt>
      <trkpt lat="43.25326" lon="2.13236">
        <ele>170.146002</ele>
        <time>2023-01-04T15:57:59.112Z</time>
      </trkpt>
      <trkpt lat="43.25321" lon="2.13249">
        <ele>170.130628</ele>
        <time>2023-01-04T15:58:02.109Z</time>
      </trkpt>
      <trkpt lat="43.25316" lon="2.13261">
        <ele>170.115123</ele>
        <time>2023-01-04T15:58:05.120Z</time>
      </trkpt>
      <trkpt lat="43.2531" lon="2.13274">
        <ele>170.098941</ele>
        <time>2023-01-04T15:58:08.106Z</time>
      </trkpt>
      <trkpt lat="43.25305" lon="2.13289">
        <ele>170.081581</ele>
        <time>2023-01-04T15:58:11.118Z</time>
      </trkpt>
      <trkpt lat="43.25299" lon="2.13303">
        <ele>170.064775</ele>
        <time>2023-01-04T15:58:14.109Z</time>
      </trkpt>
      <trkpt lat="43.25293" lon="2.13315">
        <ele>170.049756</ele>
        <time>2023-01-04T15:58:17.101Z</time>
      </trkpt>
      <trkpt lat="43.25287" lon="2.13328">
        <ele>170.008824</ele>
        <time>2023-01-04T15:58:20.114Z</time>
      </trkpt>
      <trkpt lat="43.25281" lon="2.13343">
        <ele>169.964968</ele>
        <time>2023-01-04T15:58:23.102Z</time>
      </trkpt>
      <trkpt lat="43.25275" lon="2.13357">
        <ele>169.923466</ele>
        <time>2023-01-04T15:58:26.101Z</time>
      </trkpt>
      <trkpt lat="43.25269" lon="2.1337">
        <ele>169.883987</ele>
        <time>2023-01-04T15:58:29.106Z</time>
      </trkpt>
      <trkpt lat="43.25264" lon="2.13382">
        <ele>169.847566</ele>
        <time>2023-01-04T15:58:32.105Z</time>
      </trkpt>
      <trkpt lat="43.25259" lon="2.13396">
        <ele>169.805821</ele>
        <time>2023-01-04T15:58:35.107Z</time>
      </trkpt>
      <trkpt lat="43.25254" lon="2.13409">
        <ele>169.767233</ele>
        <time>2023-01-04T15:58:38.100Z</time>
      </trkpt>
      <trkpt lat="43.25249" lon="2.13423">
        <ele>169.726873</ele>
        <time>2023-01-04T15:58:41.107Z</time>
      </trkpt>
      <trkpt lat="43.25245" lon="2.13436">
        <ele>169.689916</ele>
        <time>2023-01-04T15:58:44.112Z</time>
      </trkpt>
      <trkpt lat="43.25243" lon="2.13449">
        <ele>169.655552</ele>
        <time>2023-01-04T15:58:48.112Z</time>
      </trkpt>
      <trkpt lat="43.2524" lon="2.13461">
        <ele>169.622052</ele>
        <time>2023-01-04T15:58:58.113Z</time>
      </trkpt>
      <trkpt lat="43.25231" lon="2.13466">
        <ele>169.587946</ele>
        <time>2023-01-04T15:59:10.133Z</time>
      </trkpt>
      <trkpt lat="43.25223" lon="2.13475">
        <ele>169.553371</ele>
        <time>2023-01-04T15:59:15.117Z</time>
      </trkpt>
      <trkpt lat="43.2522" lon="2.13489">
        <ele>169.514986</ele>
        <time>2023-01-04T15:59:20.102Z</time>
      </trkpt>
      <trkpt lat="43.25214" lon="2.13501">
        <ele>169.477174</ele>
        <time>2023-01-04T15:59:24.106Z</time>
      </trkpt>
      <trkpt lat="43.2521" lon="2.13513">
        <ele>169.441361</ele>
        <time>2023-01-04T15:59:29.136Z</time>
      </trkpt>
      <trkpt lat="43.25204" lon="2.13526">
        <ele>169.403848</ele>
        <time>2023-01-04T15:59:34.106Z</time>
      </trkpt>
      <trkpt lat="43.25199" lon="2.13541">
        <ele>169.3705</ele>
        <time>2023-01-04T15:59:38.113Z</time>
      </trkpt>
      <trkpt lat="43.25194" lon="2.13552">
        <ele>169.344646</ele>
        <time>2023-01-04T15:59:41.106Z</time>
      </trkpt>
      <trkpt lat="43.25189" lon="2.13566">
        <ele>169.313841</ele>
        <time>2023-01-04T15:59:45.112Z</time>
      </trkpt>
      <trkpt lat="43.25183" lon="2.13577">
        <ele>169.285962</ele>
        <time>2023-01-04T15:59:50.101Z</time>
      </trkpt>
      <trkpt lat="43.25178" lon="2.13591">
        <ele>169.254868</ele>
        <time>2023-01-04T15:59:54.116Z</time>
      </trkpt>
      <trkpt lat="43.25174" lon="2.13603">
        <ele>169.227016</ele>
        <time>2023-01-04T15:59:58.106Z</time>
      </trkpt>
      <trkpt lat="43.25167" lon="2.13615">
        <ele>169.197183</ele>
        <time>2023-01-04T16:00:02.110Z</time>
      </trkpt>
      <trkpt lat="43.25162" lon="2.13625">
        <ele>169.172209</ele>
        <time>2023-01-04T16:00:05.117Z</time>
      </trkpt>
      <trkpt lat="43.25157" lon="2.13636">
        <ele>169.145913</ele>
        <time>2023-01-04T16:00:08.104Z</time>
      </trkpt>
      <trkpt lat="43.25152" lon="2.13648">
        <ele>169.119994</ele>
        <time>2023-01-04T16:00:11.117Z</time>
      </trkpt>
      <trkpt lat="43.25146" lon="2.13662">
        <ele>169.087734</ele>
        <time>2023-01-04T16:00:15.118Z</time>
      </trkpt>
      <trkpt lat="43.2514" lon="2.13673">
        <ele>169.059188</ele>
        <time>2023-01-04T16:00:18.117Z</time>
      </trkpt>
      <trkpt lat="43.25135" lon="2.13684">
        <ele>169.033844</ele>
        <time>2023-01-04T16:00:21.115Z</time>
      </trkpt>
      <trkpt lat="43.25131" lon="2.13699">
        <ele>169.001469</ele>
        <time>2023-01-04T16:00:25.104Z</time>
      </trkpt>
      <trkpt lat="43.25126" lon="2.13711">
        <ele>168.974324</ele>
        <time>2023-01-04T16:00:28.122Z</time>
      </trkpt>
      <trkpt lat="43.25121" lon="2.13723">
        <ele>168.946291</ele>
        <time>2023-01-04T16:00:31.114Z</time>
      </trkpt>
      <trkpt lat="43.25116" lon="2.13735">
        <ele>168.917461</ele>
        <time>2023-01-04T16:00:34.132Z</time>
      </trkpt>
      <trkpt lat="43.2511" lon="2.13749">
        <ele>168.916459</ele>
        <time>2023-01-04T16:00:37.111Z</time>
      </trkpt>
      <trkpt lat="43.25104" lon="2.13761">
        <ele>168.922124</ele>
        <time>2023-01-04T16:00:40.102Z</time>
      </trkpt>
      <trkpt lat="43.25098" lon="2.13774">
        <ele>168.928637</ele>
        <time>2023-01-04T16:00:44.112Z</time>
      </trkpt>
      <trkpt lat="43.25092" lon="2.13785">
        <ele>168.933659</ele>
        <time>2023-01-04T16:00:47.102Z</time>
      </trkpt>
      <trkpt lat="43.25087" lon="2.13796">
        <ele>168.939266</ele>
        <time>2023-01-04T16:00:50.104Z</time>
      </trkpt>
      <trkpt lat="43.25081" lon="2.13809">
        <ele>168.945236</ele>
        <time>2023-01-04T16:00:53.121Z</time>
      </trkpt>
      <trkpt lat="43.25075" lon="2.13822">
        <ele>168.951638</ele>
        <time>2023-01-04T16:00:56.106Z</time>
      </trkpt>
      <trkpt lat="43.25069" lon="2.13834">
        <ele>168.957311</ele>
        <time>2023-01-04T16:00:59.105Z</time>
      </trkpt>
      <trkpt lat="43.25065" lon="2.13847">
        <ele>168.962815</ele>
        <time>2023-01-04T16:01:02.104Z</time>
      </trkpt>
      <trkpt lat="43.25061" lon="2.13862">
        <ele>168.969297</ele>
        <time>2023-01-04T16:01:06.102Z</time>
      </trkpt>
      <trkpt lat="43.25055" lon="2.13875">
        <ele>168.975402</ele>
        <time>2023-01-04T16:01:09.111Z</time>
      </trkpt>
      <trkpt lat="43.25049" lon="2.13886">
        <ele>168.98098</ele>
        <time>2023-01-04T16:01:12.114Z</time>
      </trkpt>
      <trkpt lat="43.25043" lon="2.13899">
        <ele>168.987078</ele>
        <time>2023-01-04T16:01:15.109Z</time>
      </trkpt>
      <trkpt lat="43.25035" lon="2.13912">
        <ele>168.993891</ele>
        <time>2023-01-04T16:01:19.105Z</time>
      </trkpt>
      <trkpt lat="43.2503" lon="2.13925">
        <ele>168.999827</ele>
        <time>2023-01-04T16:01:22.111Z</time>
      </trkpt>
      <trkpt lat="43.25026" lon="2.13938">
        <ele>169.005516</ele>
        <time>2023-01-04T16:01:25.113Z</time>
      </trkpt>
      <trkpt lat="43.25022" lon="2.13951">
        <ele>169.019251</ele>
        <time>2023-01-04T16:01:28.112Z</time>
      </trkpt>
      <trkpt lat="43.25016" lon="2.13962">
        <ele>169.074489</ele>
        <time>2023-01-04T16:01:31.111Z</time>
      </trkpt>
      <trkpt lat="43.25011" lon="2.13973">
        <ele>169.131052</ele>
        <time>2023-01-04T16:01:34.127Z</time>
      </trkpt>
      <trkpt lat="43.25006" lon="2.13984">
        <ele>169.183961</ele>
        <time>2023-01-04T16:01:37.105Z</time>
      </trkpt>
      <trkpt lat="43.25" lon="2.13995">
        <ele>169.239475</ele>
        <time>2023-01-04T16:01:40.123Z</time>
      </trkpt>
      <trkpt lat="43.24995" lon="2.14008">
        <ele>169.302923</ele>
        <time>2023-01-04T16:01:43.111Z</time>
      </trkpt>
      <trkpt lat="43.2499" lon="2.1402">
        <ele>169.359706</ele>
        <time>2023-01-04T16:01:48.119Z</time>
      </trkpt>
      <trkpt lat="43.24985" lon="2.14034">
        <ele>169.42618</ele>
        <time>2023-01-04T16:01:52.148Z</time>
      </trkpt>
      <trkpt lat="43.24978" lon="2.14047">
        <ele>169.489102</ele>
        <time>2023-01-04T16:01:56.102Z</time>
      </trkpt>
      <trkpt lat="43.24971" lon="2.14059">
        <ele>169.556435</ele>
        <time>2023-01-04T16:02:00.122Z</time>
      </trkpt>
      <trkpt lat="43.24967" lon="2.14072">
        <ele>169.614966</ele>
        <time>2023-01-04T16:02:03.115Z</time>
      </trkpt>
      <trkpt lat="43.24961" lon="2.14084">
        <ele>169.673974</ele>
        <time>2023-01-04T16:02:06.105Z</time>
      </trkpt>
      <trkpt lat="43.24955" lon="2.14097">
        <ele>169.738574</ele>
        <time>2023-01-04T16:02:09.116Z</time>
      </trkpt>
      <trkpt lat="43.24948" lon="2.14109">
        <ele>169.804547</ele>
        <time>2023-01-04T16:02:12.112Z</time>
      </trkpt>
      <trkpt lat="43.24941" lon="2.14122">
        <ele>169.869161</ele>
        <time>2023-01-04T16:02:15.109Z</time>
      </trkpt>
      <trkpt lat="43.24933" lon="2.14134">
        <ele>169.937614</ele>
        <time>2023-01-04T16:02:18.111Z</time>
      </trkpt>
      <trkpt lat="43.24926" lon="2.14144">
        <ele>169.997531</ele>
        <time>2023-01-04T16:02:21.103Z</time>
      </trkpt>
      <trkpt lat="43.24919" lon="2.14154">
        <ele>170.033147</ele>
        <time>2023-01-04T16:02:24.117Z</time>
      </trkpt>
      <trkpt lat="43.24913" lon="2.14166">
        <ele>170.011868</ele>
        <time>2023-01-04T16:02:27.109Z</time>
      </trkpt>
      <trkpt lat="43.24906" lon="2.14179">
        <ele>169.989843</ele>
        <time>2023-01-04T16:02:30.102Z</time>
      </trkpt>
      <trkpt lat="43.24901" lon="2.14189">
        <ele>169.971623</ele>
        <time>2023-01-04T16:02:33.102Z</time>
      </trkpt>
      <trkpt lat="43.24894" lon="2.14202">
        <ele>169.949247</ele>
        <time>2023-01-04T16:02:37.101Z</time>
      </trkpt>
      <trkpt lat="43.24888" lon="2.14213">
        <ele>169.928837</ele>
        <time>2023-01-04T16:02:41.104Z</time>
      </trkpt>
      <trkpt lat="43.24882" lon="2.14225">
        <ele>169.908884</ele>
        <time>2023-01-04T16:02:44.112Z</time>
      </trkpt>
      <trkpt lat="43.24875" lon="2.14237">
        <ele>169.885906</ele>
        <time>2023-01-04T16:02:47.106Z</time>
      </trkpt>
      <trkpt lat="43.24869" lon="2.14247">
        <ele>169.867879</ele>
        <time>2023-01-04T16:02:50.107Z</time>
      </trkpt>
      <trkpt lat="43.24863" lon="2.14259">
        <ele>169.847203</ele>
        <time>2023-01-04T16:02:53.113Z</time>
      </trkpt>
      <trkpt lat="43.24857" lon="2.14269">
        <ele>169.828106</ele>
        <time>2023-01-04T16:02:56.108Z</time>
      </trkpt>
      <trkpt lat="43.2485" lon="2.14281">
        <ele>169.80613</ele>
        <time>2023-01-04T16:03:00.108Z</time>
      </trkpt>
      <trkpt lat="43.24843" lon="2.14292">
        <ele>169.786255</ele>
        <time>2023-01-04T16:03:03.116Z</time>
      </trkpt>
      <trkpt lat="43.24837" lon="2.14304">
        <ele>169.764462</ele>
        <time>2023-01-04T16:03:06.107Z</time>
      </trkpt>
      <trkpt lat="43.24829" lon="2.14317">
        <ele>169.741704</ele>
        <time>2023-01-04T16:03:09.107Z</time>
      </trkpt>
      <trkpt lat="43.24823" lon="2.14328">
        <ele>169.721295</ele>
        <time>2023-01-04T16:03:12.108Z</time>
      </trkpt>
      <trkpt lat="43.24817" lon="2.14339">
        <ele>169.7011</ele>
        <time>2023-01-04T16:03:15.120Z</time>
      </trkpt>
      <trkpt lat="43.2481" lon="2.14349">
        <ele>169.682133</ele>
        <time>2023-01-04T16:03:18.110Z</time>
      </trkpt>
      <trkpt lat="43.24803" lon="2.14359">
        <ele>169.664254</ele>
        <time>2023-01-04T16:03:21.117Z</time>
      </trkpt>
      <trkpt lat="43.24797" lon="2.14369">
        <ele>169.646441</ele>
        <time>2023-01-04T16:03:24.117Z</time>
      </trkpt>
      <trkpt lat="43.24791" lon="2.14381">
        <ele>169.626346</ele>
        <time>2023-01-04T16:03:28.120Z</time>
      </trkpt>
      <trkpt lat="43.24785" lon="2.14391">
        <ele>169.60852</ele>
        <time>2023-01-04T16:03:31.110Z</time>
      </trkpt>
      <trkpt lat="43.24778" lon="2.14405">
        <ele>169.585921</ele>
        <time>2023-01-04T16:03:34.107Z</time>
      </trkpt>
      <trkpt lat="43.2477" lon="2.14418">
        <ele>169.562868</ele>
        <time>2023-01-04T16:03:37.103Z</time>
      </trkpt>
      <trkpt lat="43.24761" lon="2.14432">
        <ele>169.538251</ele>
        <time>2023-01-04T16:03:40.136Z</time>
      </trkpt>
      <trkpt lat="43.24753" lon="2.14444">
        <ele>169.516515</ele>
        <time>2023-01-04T16:03:43.112Z</time>
      </trkpt>
      <trkpt lat="43.24747" lon="2.14456">
        <ele>169.496416</ele>
        <time>2023-01-04T16:03:46.115Z</time>
      </trkpt>
      <trkpt lat="43.2474" lon="2.14468">
        <ele>169.475671</ele>
        <time>2023-01-04T16:03:49.113Z</time>
      </trkpt>
      <trkpt lat="43.24733" lon="2.14483">
        <ele>169.451652</ele>
        <time>2023-01-04T16:03:52.109Z</time>
      </trkpt>
      <trkpt lat="43.24726" lon="2.14496">
        <ele>169.429708</ele>
        <time>2023-01-04T16:03:55.133Z</time>
      </trkpt>
      <trkpt lat="43.2472" lon="2.14507">
        <ele>169.411148</ele>
        <time>2023-01-04T16:03:58.118Z</time>
      </trkpt>
      <trkpt lat="43.24713" lon="2.14518">
        <ele>169.391128</ele>
        <time>2023-01-04T16:04:01.105Z</time>
      </trkpt>
      <trkpt lat="43.24706" lon="2.14531">
        <ele>169.369284</ele>
        <time>2023-01-04T16:04:04.115Z</time>
      </trkpt>
      <trkpt lat="43.24701" lon="2.14542">
        <ele>169.352298</ele>
        <time>2023-01-04T16:04:07.120Z</time>
      </trkpt>
      <trkpt lat="43.24695" lon="2.14554">
        <ele>169.40305</ele>
        <time>2023-01-04T16:04:11.134Z</time>
      </trkpt>
      <trkpt lat="43.24689" lon="2.14564">
        <ele>169.447027</ele>
        <time>2023-01-04T16:04:14.117Z</time>
      </trkpt>
      <trkpt lat="43.24683" lon="2.14575">
        <ele>169.493195</ele>
        <time>2023-01-04T16:04:17.104Z</time>
      </trkpt>
      <trkpt lat="43.24675" lon="2.14587">
        <ele>169.546838</ele>
        <time>2023-01-04T16:04:20.116Z</time>
      </trkpt>
      <trkpt lat="43.24668" lon="2.14599">
        <ele>169.597618</ele>
        <time>2023-01-04T16:04:23.118Z</time>
      </trkpt>
      <trkpt lat="43.24662" lon="2.1461">
        <ele>169.645116</ele>
        <time>2023-01-04T16:04:26.120Z</time>
      </trkpt>
      <trkpt lat="43.24656" lon="2.14621">
        <ele>169.68964</ele>
        <time>2023-01-04T16:04:29.109Z</time>
      </trkpt>
      <trkpt lat="43.24649" lon="2.14634">
        <ele>169.743408</ele>
        <time>2023-01-04T16:04:32.113Z</time>
      </trkpt>
      <trkpt lat="43.24642" lon="2.14646">
        <ele>169.79555</ele>
        <time>2023-01-04T16:04:35.107Z</time>
      </trkpt>
      <trkpt lat="43.24635" lon="2.14658">
        <ele>169.846596</ele>
        <time>2023-01-04T16:04:38.120Z</time>
      </trkpt>
      <trkpt lat="43.24629" lon="2.14669">
        <ele>169.893601</ele>
        <time>2023-01-04T16:04:41.110Z</time>
      </trkpt>
      <trkpt lat="43.24622" lon="2.1468">
        <ele>169.943108</ele>
        <time>2023-01-04T16:04:44.122Z</time>
      </trkpt>
      <trkpt lat="43.24614" lon="2.14693">
        <ele>169.998292</ele>
        <time>2023-01-04T16:04:47.106Z</time>
      </trkpt>
      <trkpt lat="43.24607" lon="2.14706">
        <ele>170.054784</ele>
        <time>2023-01-04T16:04:50.110Z</time>
      </trkpt>
      <trkpt lat="43.24599" lon="2.14719">
        <ele>170.109895</ele>
        <time>2023-01-04T16:04:53.107Z</time>
      </trkpt>
      <trkpt lat="43.24592" lon="2.14733">
        <ele>170.167157</ele>
        <time>2023-01-04T16:04:56.108Z</time>
      </trkpt>
      <trkpt lat="43.24585" lon="2.14746">
        <ele>170.223329</ele>
        <time>2023-01-04T16:04:59.121Z</time>
      </trkpt>
      <trkpt lat="43.24578" lon="2.14758">
        <ele>170.274323</ele>
        <time>2023-01-04T16:05:02.106Z</time>
      </trkpt>
      <trkpt lat="43.24571" lon="2.1477">
        <ele>170.328599</ele>
        <time>2023-01-04T16:05:05.106Z</time>
      </trkpt>
      <trkpt lat="43.24564" lon="2.14783">
        <ele>170.384224</ele>
        <time>2023-01-04T16:05:08.134Z</time>
      </trkpt>
      <trkpt lat="43.24558" lon="2.14794">
        <ele>170.4321</ele>
        <time>2023-01-04T16:05:11.110Z</time>
      </trkpt>
      <trkpt lat="43.24551" lon="2.14806">
        <ele>170.483095</ele>
        <time>2023-01-04T16:05:14.114Z</time>
      </trkpt>
      <trkpt lat="43.24543" lon="2.14818">
        <ele>170.539914</ele>
        <time>2023-01-04T16:05:17.114Z</time>
      </trkpt>
      <trkpt lat="43.24536" lon="2.14832">
        <ele>170.596632</ele>
        <time>2023-01-04T16:05:20.112Z</time>
      </trkpt>
      <trkpt lat="43.24529" lon="2.14842">
        <ele>170.644057</ele>
        <time>2023-01-04T16:05:23.106Z</time>
      </trkpt>
      <trkpt lat="43.24522" lon="2.14851">
        <ele>170.691575</ele>
        <time>2023-01-04T16:05:26.124Z</time>
      </trkpt>
      <trkpt lat="43.24515" lon="2.14865">
        <ele>170.749133</ele>
        <time>2023-01-04T16:05:29.135Z</time>
      </trkpt>
      <trkpt lat="43.24509" lon="2.14879">
        <ele>170.80253</ele>
        <time>2023-01-04T16:05:32.135Z</time>
      </trkpt>
      <trkpt lat="43.24505" lon="2.14891">
        <ele>170.847388</ele>
        <time>2023-01-04T16:05:35.129Z</time>
      </trkpt>
      <trkpt lat="43.245" lon="2.14903">
        <ele>170.897286</ele>
        <time>2023-01-04T16:05:39.108Z</time>
      </trkpt>
      <trkpt lat="43.24494" lon="2.14918">
        <ele>170.956018</ele>
        <time>2023-01-04T16:05:43.102Z</time>
      </trkpt>
      <trkpt lat="43.24489" lon="2.14931">
        <ele>171.006033</ele>
        <time>2023-01-04T16:05:46.137Z</time>
      </trkpt>
      <trkpt lat="43.24484" lon="2.14944">
        <ele>170.92556</ele>
        <time>2023-01-04T16:05:51.117Z</time>
      </trkpt>
      <trkpt lat="43.2448" lon="2.14956">
        <ele>170.780475</ele>
        <time>2023-01-04T16:05:54.105Z</time>
      </trkpt>
      <trkpt lat="43.24477" lon="2.1497">
        <ele>170.609246</ele>
        <time>2023-01-04T16:05:57.111Z</time>
      </trkpt>
      <trkpt lat="43.24475" lon="2.14984">
        <ele>170.44138</ele>
        <time>2023-01-04T16:06:00.109Z</time>
      </trkpt>
      <trkpt lat="43.24473" lon="2.14997">
        <ele>170.286238</ele>
        <time>2023-01-04T16:06:03.116Z</time>
      </trkpt>
      <trkpt lat="43.2447" lon="2.1501">
        <ele>170.132632</ele>
        <time>2023-01-04T16:06:06.108Z</time>
      </trkpt>
      <trkpt lat="43.24469" lon="2.15023">
        <ele>169.977293</ele>
        <time>2023-01-04T16:06:11.112Z</time>
      </trkpt>
      <trkpt lat="43.24467" lon="2.15036">
        <ele>169.819882</ele>
        <time>2023-01-04T16:06:15.103Z</time>
      </trkpt>
      <trkpt lat="43.24466" lon="2.15049">
        <ele>169.671442</ele>
        <time>2023-01-04T16:06:18.103Z</time>
      </trkpt>
      <trkpt lat="43.24464" lon="2.15063">
        <ele>169.511222</ele>
        <time>2023-01-04T16:06:21.102Z</time>
      </trkpt>
      <trkpt lat="43.24462" lon="2.15076">
        <ele>169.356116</ele>
        <time>2023-01-04T16:06:24.109Z</time>
      </trkpt>
      <trkpt lat="43.24461" lon="2.15089">
        <ele>169.206088</ele>
        <time>2023-01-04T16:06:27.107Z</time>
      </trkpt>
      <trkpt lat="43.24459" lon="2.15102">
        <ele>169.051235</ele>
        <time>2023-01-04T16:06:30.113Z</time>
      </trkpt>
      <trkpt lat="43.24457" lon="2.15115">
        <ele>168.898033</ele>
        <time>2023-01-04T16:06:33.112Z</time>
      </trkpt>
      <trkpt lat="43.24456" lon="2.1513">
        <ele>168.719828</ele>
        <time>2023-01-04T16:06:36.106Z</time>
      </trkpt>
      <trkpt lat="43.24453" lon="2.15156">
        <ele>168.410099</ele>
        <time>2023-01-04T16:06:38.106Z</time>
      </trkpt>
      <trkpt lat="43.24452" lon="2.15171">
        <ele>168.23711</ele>
        <time>2023-01-04T16:06:41.115Z</time>
      </trkpt>
      <trkpt lat="43.24451" lon="2.15185">
        <ele>168.366662</ele>
        <time>2023-01-04T16:06:44.106Z</time>
      </trkpt>
      <trkpt lat="43.24451" lon="2.15198">
        <ele>168.704853</ele>
        <time>2023-01-04T16:06:48.112Z</time>
      </trkpt>
      <trkpt lat="43.2445" lon="2.15212">
        <ele>169.044454</ele>
        <time>2023-01-04T16:06:52.107Z</time>
      </trkpt>
      <trkpt lat="43.24448" lon="2.15228">
        <ele>169.474107</ele>
        <time>2023-01-04T16:06:56.117Z</time>
      </trkpt>
      <trkpt lat="43.24446" lon="2.15243">
        <ele>169.855046</ele>
        <time>2023-01-04T16:07:00.108Z</time>
      </trkpt>
      <trkpt lat="43.24447" lon="2.15263">
        <ele>170.383184</ele>
        <time>2023-01-04T16:07:03.135Z</time>
      </trkpt>
      <trkpt lat="43.24447" lon="2.15277">
        <ele>170.7357</ele>
        <time>2023-01-04T16:07:05.120Z</time>
      </trkpt>
      <trkpt lat="43.24447" lon="2.15289">
        <ele>171.052306</ele>
        <time>2023-01-04T16:07:07.134Z</time>
      </trkpt>
      <trkpt lat="43.24446" lon="2.15303">
        <ele>171.419317</ele>
        <time>2023-01-04T16:07:10.108Z</time>
      </trkpt>
      <trkpt lat="43.24447" lon="2.15316">
        <ele>171.741588</ele>
        <time>2023-01-04T16:07:13.112Z</time>
      </trkpt>
      <trkpt lat="43.24448" lon="2.15329">
        <ele>172.093611</ele>
        <time>2023-01-04T16:07:16.119Z</time>
      </trkpt>
      <trkpt lat="43.24449" lon="2.15344">
        <ele>172.482221</ele>
        <time>2023-01-04T16:07:20.104Z</time>
      </trkpt>
      <trkpt lat="43.2445" lon="2.1536">
        <ele>172.886873</ele>
        <time>2023-01-04T16:07:24.110Z</time>
      </trkpt>
      <trkpt lat="43.24451" lon="2.15374">
        <ele>173.235128</ele>
        <time>2023-01-04T16:07:29.129Z</time>
      </trkpt>
      <trkpt lat="43.24454" lon="2.15386">
        <ele>173.566802</ele>
        <time>2023-01-04T16:07:33.133Z</time>
      </trkpt>
      <trkpt lat="43.24456" lon="2.154">
        <ele>173.933162</ele>
        <time>2023-01-04T16:07:36.119Z</time>
      </trkpt>
      <trkpt lat="43.24456" lon="2.15415">
        <ele>174.324259</ele>
        <time>2023-01-04T16:07:39.108Z</time>
      </trkpt>
      <trkpt lat="43.24456" lon="2.1543">
        <ele>174.504163</ele>
        <time>2023-01-04T16:07:42.108Z</time>
      </trkpt>
      <trkpt lat="43.24456" lon="2.15444">
        <ele>174.481569</ele>
        <time>2023-01-04T16:07:45.116Z</time>
      </trkpt>
      <trkpt lat="43.24456" lon="2.15458">
        <ele>174.45745</ele>
        <time>2023-01-04T16:07:48.121Z</time>
      </trkpt>
      <trkpt lat="43.24455" lon="2.15471">
        <ele>174.435761</ele>
        <time>2023-01-04T16:07:51.132Z</time>
      </trkpt>
      <trkpt lat="43.24454" lon="2.15484">
        <ele>174.414641</ele>
        <time>2023-01-04T16:07:54.122Z</time>
      </trkpt>
      <trkpt lat="43.24454" lon="2.15498">
        <ele>174.391138</ele>
        <time>2023-01-04T16:07:58.116Z</time>
      </trkpt>
      <trkpt lat="43.24453" lon="2.15511">
        <ele>174.368859</ele>
        <time>2023-01-04T16:08:01.115Z</time>
      </trkpt>
      <trkpt lat="43.24452" lon="2.15523">
        <ele>174.347821</ele>
        <time>2023-01-04T16:08:04.110Z</time>
      </trkpt>
      <trkpt lat="43.24449" lon="2.1554">
        <ele>174.319629</ele>
        <time>2023-01-04T16:08:08.136Z</time>
      </trkpt>
      <trkpt lat="43.24447" lon="2.15552">
        <ele>174.298974</ele>
        <time>2023-01-04T16:08:11.105Z</time>
      </trkpt>
      <trkpt lat="43.24444" lon="2.15564">
        <ele>174.277216</ele>
        <time>2023-01-04T16:08:15.131Z</time>
      </trkpt>
      <trkpt lat="43.24442" lon="2.15578">
        <ele>174.253667</ele>
        <time>2023-01-04T16:08:19.116Z</time>
      </trkpt>
      <trkpt lat="43.24439" lon="2.1559">
        <ele>174.232506</ele>
        <time>2023-01-04T16:08:23.107Z</time>
      </trkpt>
      <trkpt lat="43.24435" lon="2.15602">
        <ele>174.209521</ele>
        <time>2023-01-04T16:08:28.115Z</time>
      </trkpt>
      <trkpt lat="43.24429" lon="2.15614">
        <ele>174.185423</ele>
        <time>2023-01-04T16:08:32.125Z</time>
      </trkpt>
      <trkpt lat="43.24421" lon="2.15624">
        <ele>174.160223</ele>
        <time>2023-01-04T16:08:35.122Z</time>
      </trkpt>
      <trkpt lat="43.24417" lon="2.15636">
        <ele>174.138984</ele>
        <time>2023-01-04T16:08:38.134Z</time>
      </trkpt>
      <trkpt lat="43.24416" lon="2.15651">
        <ele>174.112896</ele>
        <time>2023-01-04T16:08:42.133Z</time>
      </trkpt>
      <trkpt lat="43.24416" lon="2.15666">
        <ele>174.208323</ele>
        <time>2023-01-04T16:08:46.117Z</time>
      </trkpt>
      <trkpt lat="43.24415" lon="2.15653">
        <ele>174.355972</ele>
        <time>2023-01-04T16:09:42.118Z</time>
      </trkpt>
      <trkpt lat="43.24416" lon="2.15641">
        <ele>174.495996</ele>
        <time>2023-01-04T16:09:46.117Z</time>
      </trkpt>
      <trkpt lat="43.24421" lon="2.1563">
        <ele>174.641839</ele>
        <time>2023-01-04T16:09:50.109Z</time>
      </trkpt>
      <trkpt lat="43.24424" lon="2.15618">
        <ele>174.782923</ele>
        <time>2023-01-04T16:10:09.110Z</time>
      </trkpt>
      <trkpt lat="43.24419" lon="2.15631">
        <ele>174.946679</ele>
        <time>2023-01-04T16:10:23.123Z</time>
      </trkpt>
      <trkpt lat="43.24417" lon="2.15644">
        <ele>175.098027</ele>
        <time>2023-01-04T16:10:27.107Z</time>
      </trkpt>
      <trkpt lat="43.24418" lon="2.1566">
        <ele>175.280222</ele>
        <time>2023-01-04T16:10:31.109Z</time>
      </trkpt>
      <trkpt lat="43.24415" lon="2.15674">
        <ele>175.443631</ele>
        <time>2023-01-04T16:10:35.115Z</time>
      </trkpt>
      <trkpt lat="43.24411" lon="2.15688">
        <ele>175.609597</ele>
        <time>2023-01-04T16:10:39.112Z</time>
      </trkpt>
      <trkpt lat="43.24409" lon="2.15701">
        <ele>175.761641</ele>
        <time>2023-01-04T16:10:42.117Z</time>
      </trkpt>
      <trkpt lat="43.24406" lon="2.15713">
        <ele>175.903227</ele>
        <time>2023-01-04T16:10:45.114Z</time>
      </trkpt>
      <trkpt lat="43.24403" lon="2.15727">
        <ele>176.071811</ele>
        <time>2023-01-04T16:10:48.106Z</time>
      </trkpt>
      <trkpt lat="43.24399" lon="2.1574">
        <ele>176.225099</ele>
        <time>2023-01-04T16:10:51.134Z</time>
      </trkpt>
      <trkpt lat="43.24396" lon="2.15752">
        <ele>176.367184</ele>
        <time>2023-01-04T16:10:54.134Z</time>
      </trkpt>
      <trkpt lat="43.24391" lon="2.15766">
        <ele>176.546161</ele>
        <time>2023-01-04T16:10:58.108Z</time>
      </trkpt>
      <trkpt lat="43.24384" lon="2.15778">
        <ele>176.719444</ele>
        <time>2023-01-04T16:11:01.108Z</time>
      </trkpt>
      <trkpt lat="43.24379" lon="2.15792">
        <ele>176.884622</ele>
        <time>2023-01-04T16:11:04.107Z</time>
      </trkpt>
      <trkpt lat="43.24374" lon="2.15804">
        <ele>176.796198</ele>
        <time>2023-01-04T16:11:07.107Z</time>
      </trkpt>
      <trkpt lat="43.24368" lon="2.15815">
        <ele>176.714196</ele>
        <time>2023-01-04T16:11:10.104Z</time>
      </trkpt>
      <trkpt lat="43.24362" lon="2.15826">
        <ele>176.62759</ele>
        <time>2023-01-04T16:11:13.113Z</time>
      </trkpt>
      <trkpt lat="43.24357" lon="2.15837">
        <ele>176.545051</ele>
        <time>2023-01-04T16:11:16.126Z</time>
      </trkpt>
      <trkpt lat="43.24351" lon="2.15848">
        <ele>176.463561</ele>
        <time>2023-01-04T16:11:19.112Z</time>
      </trkpt>
      <trkpt lat="43.24344" lon="2.15858">
        <ele>176.371624</ele>
        <time>2023-01-04T16:11:22.134Z</time>
      </trkpt>
      <trkpt lat="43.24338" lon="2.1587">
        <ele>176.276857</ele>
        <time>2023-01-04T16:11:25.136Z</time>
      </trkpt>
      <trkpt lat="43.2433" lon="2.15882">
        <ele>176.181308</ele>
        <time>2023-01-04T16:11:28.117Z</time>
      </trkpt>
      <trkpt lat="43.24323" lon="2.15894">
        <ele>176.077194</ele>
        <time>2023-01-04T16:11:31.116Z</time>
      </trkpt>
      <trkpt lat="43.24315" lon="2.15907">
        <ele>175.976122</ele>
        <time>2023-01-04T16:11:34.113Z</time>
      </trkpt>
      <trkpt lat="43.24309" lon="2.15918">
        <ele>175.886384</ele>
        <time>2023-01-04T16:11:37.136Z</time>
      </trkpt>
      <trkpt lat="43.24302" lon="2.15927">
        <ele>175.804679</ele>
        <time>2023-01-04T16:11:41.115Z</time>
      </trkpt>
      <trkpt lat="43.24294" lon="2.15933">
        <ele>175.723087</ele>
        <time>2023-01-04T16:12:05.108Z</time>
      </trkpt>
      <trkpt lat="43.24284" lon="2.15933">
        <ele>175.638233</ele>
        <time>2023-01-04T16:12:43.135Z</time>
      </trkpt>
      <trkpt lat="43.2428" lon="2.15944">
        <ele>175.559942</ele>
        <time>2023-01-04T16:12:51.136Z</time>
      </trkpt>
      <trkpt lat="43.24281" lon="2.15958">
        <ele>175.470449</ele>
        <time>2023-01-04T16:12:56.125Z</time>
      </trkpt>
      <trkpt lat="43.24281" lon="2.15972">
        <ele>175.384685</ele>
        <time>2023-01-04T16:13:01.124Z</time>
      </trkpt>
      <trkpt lat="43.24277" lon="2.15984">
        <ele>175.367856</ele>
        <time>2023-01-04T16:13:07.123Z</time>
      </trkpt>
      <trkpt lat="43.24269" lon="2.15992">
        <ele>175.452699</ele>
        <time>2023-01-04T16:13:11.131Z</time>
      </trkpt>
      <trkpt lat="43.2426" lon="2.16001">
        <ele>175.550557</ele>
        <time>2023-01-04T16:13:16.111Z</time>
      </trkpt>
      <trkpt lat="43.24253" lon="2.16012">
        <ele>175.644634</ele>
        <time>2023-01-04T16:13:20.134Z</time>
      </trkpt>
      <trkpt lat="43.24245" lon="2.16022">
        <ele>175.740866</ele>
        <time>2023-01-04T16:13:24.137Z</time>
      </trkpt>
      <trkpt lat="43.24236" lon="2.16032">
        <ele>175.840547</ele>
        <time>2023-01-04T16:13:28.120Z</time>
      </trkpt>
      <trkpt lat="43.24228" lon="2.16044">
        <ele>175.944227</ele>
        <time>2023-01-04T16:13:32.113Z</time>
      </trkpt>
      <trkpt lat="43.24221" lon="2.16053">
        <ele>176.029873</ele>
        <time>2023-01-04T16:13:35.103Z</time>
      </trkpt>
      <trkpt lat="43.24214" lon="2.16062">
        <ele>176.113115</ele>
        <time>2023-01-04T16:13:38.121Z</time>
      </trkpt>
      <trkpt lat="43.24207" lon="2.16072">
        <ele>176.205612</ele>
        <time>2023-01-04T16:13:42.116Z</time>
      </trkpt>
      <trkpt lat="43.24199" lon="2.16084">
        <ele>176.303788</ele>
        <time>2023-01-04T16:13:46.108Z</time>
      </trkpt>
      <trkpt lat="43.24193" lon="2.16093">
        <ele>176.385124</ele>
        <time>2023-01-04T16:13:49.118Z</time>
      </trkpt>
      <trkpt lat="43.24185" lon="2.16105">
        <ele>176.486482</ele>
        <time>2023-01-04T16:13:53.113Z</time>
      </trkpt>
      <trkpt lat="43.24178" lon="2.16115">
        <ele>176.576838</ele>
        <time>2023-01-04T16:13:56.134Z</time>
      </trkpt>
      <trkpt lat="43.24172" lon="2.16126">
        <ele>176.666719</ele>
        <time>2023-01-04T16:13:59.135Z</time>
      </trkpt>
      <trkpt lat="43.24166" lon="2.16137">
        <ele>176.755759</ele>
        <time>2023-01-04T16:14:02.110Z</time>
      </trkpt>
      <trkpt lat="43.2416" lon="2.16151">
        <ele>176.856931</ele>
        <time>2023-01-04T16:14:06.111Z</time>
      </trkpt>
      <trkpt lat="43.24154" lon="2.16165">
        <ele>176.908996</ele>
        <time>2023-01-04T16:14:10.108Z</time>
      </trkpt>
      <trkpt lat="43.24148" lon="2.16175">
        <ele>176.898121</ele>
        <time>2023-01-04T16:14:14.113Z</time>
      </trkpt>
      <trkpt lat="43.24143" lon="2.16188">
        <ele>176.886185</ele>
        <time>2023-01-04T16:14:18.104Z</time>
      </trkpt>
      <trkpt lat="43.24137" lon="2.16203">
        <ele>176.872656</ele>
        <time>2023-01-04T16:14:22.108Z</time>
      </trkpt>
      <trkpt lat="43.24134" lon="2.16215">
        <ele>176.861847</ele>
        <time>2023-01-04T16:14:25.106Z</time>
      </trkpt>
      <trkpt lat="43.24129" lon="2.16229">
        <ele>176.849458</ele>
        <time>2023-01-04T16:14:29.113Z</time>
      </trkpt>
      <trkpt lat="43.24124" lon="2.16243">
        <ele>176.836544</ele>
        <time>2023-01-04T16:14:33.123Z</time>
      </trkpt>
      <trkpt lat="43.2412" lon="2.16257">
        <ele>176.823524</ele>
        <time>2023-01-04T16:14:37.110Z</time>
      </trkpt>
      <trkpt lat="43.24115" lon="2.16271">
        <ele>176.811783</ele>
        <time>2023-01-04T16:14:41.114Z</time>
      </trkpt>
      <trkpt lat="43.24113" lon="2.16286">
        <ele>176.798709</ele>
        <time>2023-01-04T16:14:45.120Z</time>
      </trkpt>
      <trkpt lat="43.2411" lon="2.16298">
        <ele>176.788291</ele>
        <time>2023-01-04T16:14:48.117Z</time>
      </trkpt>
      <trkpt lat="43.24108" lon="2.1631">
        <ele>176.778003</ele>
        <time>2023-01-04T16:14:51.121Z</time>
      </trkpt>
      <trkpt lat="43.24106" lon="2.16325">
        <ele>176.765565</ele>
        <time>2023-01-04T16:14:55.132Z</time>
      </trkpt>
      <trkpt lat="43.24103" lon="2.16339">
        <ele>176.754058</ele>
        <time>2023-01-04T16:14:59.116Z</time>
      </trkpt>
      <trkpt lat="43.24101" lon="2.16351">
        <ele>176.743559</ele>
        <time>2023-01-04T16:15:03.121Z</time>
      </trkpt>
      <trkpt lat="43.24099" lon="2.16365">
        <ele>176.731654</ele>
        <time>2023-01-04T16:15:07.133Z</time>
      </trkpt>
      <trkpt lat="43.24096" lon="2.1638">
        <ele>176.719456</ele>
        <time>2023-01-04T16:15:11.135Z</time>
      </trkpt>
      <trkpt lat="43.24093" lon="2.16395">
        <ele>176.786476</ele>
        <time>2023-01-04T16:15:15.109Z</time>
      </trkpt>
      <trkpt lat="43.2409" lon="2.16407">
        <ele>176.915453</ele>
        <time>2023-01-04T16:15:18.119Z</time>
      </trkpt>
      <trkpt lat="43.24088" lon="2.1642">
        <ele>177.054569</ele>
        <time>2023-01-04T16:15:21.136Z</time>
      </trkpt>
      <trkpt lat="43.24085" lon="2.16432">
        <ele>177.182062</ele>
        <time>2023-01-04T16:15:24.114Z</time>
      </trkpt>
      <trkpt lat="43.24082" lon="2.16445">
        <ele>177.31712</ele>
        <time>2023-01-04T16:15:28.119Z</time>
      </trkpt>
      <trkpt lat="43.24079" lon="2.16458">
        <ele>177.457083</ele>
        <time>2023-01-04T16:15:33.108Z</time>
      </trkpt>
      <trkpt lat="43.24076" lon="2.16471">
        <ele>177.60326</ele>
        <time>2023-01-04T16:15:38.108Z</time>
      </trkpt>
      <trkpt lat="43.24072" lon="2.16484">
        <ele>177.749359</ele>
        <time>2023-01-04T16:15:43.115Z</time>
      </trkpt>
      <trkpt lat="43.24068" lon="2.16496">
        <ele>177.887518</ele>
        <time>2023-01-04T16:15:47.136Z</time>
      </trkpt>
      <trkpt lat="43.24063" lon="2.1651">
        <ele>178.040462</ele>
        <time>2023-01-04T16:15:51.112Z</time>
      </trkpt>
      <trkpt lat="43.24059" lon="2.16521">
        <ele>178.168362</ele>
        <time>2023-01-04T16:15:55.116Z</time>
      </trkpt>
      <trkpt lat="43.24057" lon="2.16534">
        <ele>178.299627</ele>
        <time>2023-01-04T16:15:59.105Z</time>
      </trkpt>
      <trkpt lat="43.24052" lon="2.16546">
        <ele>178.437785</ele>
        <time>2023-01-04T16:16:03.108Z</time>
      </trkpt>
      <trkpt lat="43.24047" lon="2.1656">
        <ele>178.595952</ele>
        <time>2023-01-04T16:16:07.115Z</time>
      </trkpt>
      <trkpt lat="43.24043" lon="2.16573">
        <ele>178.752047</ele>
        <time>2023-01-04T16:16:12.113Z</time>
      </trkpt>
      <trkpt lat="43.24038" lon="2.16587">
        <ele>178.903745</ele>
        <time>2023-01-04T16:16:16.116Z</time>
      </trkpt>
      <trkpt lat="43.24034" lon="2.16598">
        <ele>179.035903</ele>
        <time>2023-01-04T16:16:23.121Z</time>
      </trkpt>
      <trkpt lat="43.24029" lon="2.16609">
        <ele>179.164288</ele>
        <time>2023-01-04T16:16:38.105Z</time>
      </trkpt>
      <trkpt lat="43.24025" lon="2.1662">
        <ele>179.164288</ele>
        <time>2023-01-04T16:16:44.136Z</time>
      </trkpt>
      <trkpt lat="43.24021" lon="2.16631">
        <ele>178.934578</ele>
        <time>2023-01-04T16:16:49.119Z</time>
      </trkpt>
      <trkpt lat="43.24015" lon="2.16644">
        <ele>178.672896</ele>
        <time>2023-01-04T16:16:54.112Z</time>
      </trkpt>
      <trkpt lat="43.2401" lon="2.16657">
        <ele>178.414631</ele>
        <time>2023-01-04T16:16:58.106Z</time>
      </trkpt>
      <trkpt lat="43.24006" lon="2.16669">
        <ele>178.179187</ele>
        <time>2023-01-04T16:17:02.106Z</time>
      </trkpt>
      <trkpt lat="43.24002" lon="2.16681">
        <ele>177.936402</ele>
        <time>2023-01-04T16:17:06.130Z</time>
      </trkpt>
      <trkpt lat="43.23997" lon="2.16694">
        <ele>177.687187</ele>
        <time>2023-01-04T16:17:10.116Z</time>
      </trkpt>
      <trkpt lat="43.23992" lon="2.16705">
        <ele>177.442009</ele>
        <time>2023-01-04T16:17:14.109Z</time>
      </trkpt>
      <trkpt lat="43.23987" lon="2.16718">
        <ele>177.185818</ele>
        <time>2023-01-04T16:17:18.127Z</time>
      </trkpt>
      <trkpt lat="43.23983" lon="2.16731">
        <ele>176.948274</ele>
        <time>2023-01-04T16:17:22.134Z</time>
      </trkpt>
      <trkpt lat="43.23978" lon="2.16743">
        <ele>176.687466</ele>
        <time>2023-01-04T16:17:26.114Z</time>
      </trkpt>
      <trkpt lat="43.23973" lon="2.16754">
        <ele>176.458677</ele>
        <time>2023-01-04T16:17:30.115Z</time>
      </trkpt>
      <trkpt lat="43.23968" lon="2.16766">
        <ele>176.211507</ele>
        <time>2023-01-04T16:17:37.112Z</time>
      </trkpt>
      <trkpt lat="43.23961" lon="2.16774">
        <ele>175.987122</ele>
        <time>2023-01-04T16:17:42.113Z</time>
      </trkpt>
      <trkpt lat="43.23957" lon="2.16786">
        <ele>175.761946</ele>
        <time>2023-01-04T16:17:46.119Z</time>
      </trkpt>
      <trkpt lat="43.23958" lon="2.16798">
        <ele>175.535128</ele>
        <time>2023-01-04T16:17:53.116Z</time>
      </trkpt>
      <trkpt lat="43.23954" lon="2.16812">
        <ele>175.268261</ele>
        <time>2023-01-04T16:17:58.133Z</time>
      </trkpt>
      <trkpt lat="43.23953" lon="2.16826">
        <ele>175.020949</ele>
        <time>2023-01-04T16:18:01.104Z</time>
      </trkpt>
      <trkpt lat="43.23952" lon="2.16839">
        <ele>174.779379</ele>
        <time>2023-01-04T16:18:04.116Z</time>
      </trkpt>
      <trkpt lat="43.23951" lon="2.16852">
        <ele>174.542103</ele>
        <time>2023-01-04T16:18:07.115Z</time>
      </trkpt>
      <trkpt lat="43.2395" lon="2.16865">
        <ele>174.293935</ele>
        <time>2023-01-04T16:18:10.119Z</time>
      </trkpt>
      <trkpt lat="43.23949" lon="2.16879">
        <ele>174.036165</ele>
        <time>2023-01-04T16:18:13.114Z</time>
      </trkpt>
      <trkpt lat="43.23943" lon="2.16893">
        <ele>173.718773</ele>
        <time>2023-01-04T16:19:49.123Z</time>
      </trkpt>
      <trkpt lat="43.23936" lon="2.16904">
        <ele>173.453576</ele>
        <time>2023-01-04T16:20:03.110Z</time>
      </trkpt>
      <trkpt lat="43.23935" lon="2.16918">
        <ele>173.184734</ele>
        <time>2023-01-04T16:20:06.120Z</time>
      </trkpt>
      <trkpt lat="43.23935" lon="2.16936">
        <ele>172.857763</ele>
        <time>2023-01-04T16:20:09.114Z</time>
      </trkpt>
      <trkpt lat="43.23934" lon="2.16949">
        <ele>172.603719</ele>
        <time>2023-01-04T16:20:11.112Z</time>
      </trkpt>
      <trkpt lat="43.23933" lon="2.16964">
        <ele>172.335174</ele>
        <time>2023-01-04T16:20:13.116Z</time>
      </trkpt>
      <trkpt lat="43.23932" lon="2.16978">
        <ele>172.064776</ele>
        <time>2023-01-04T16:20:15.111Z</time>
      </trkpt>
      <trkpt lat="43.23931" lon="2.16993">
        <ele>171.776551</ele>
        <time>2023-01-04T16:20:17.125Z</time>
      </trkpt>
      <trkpt lat="43.2393" lon="2.1701">
        <ele>171.457914</ele>
        <time>2023-01-04T16:20:19.136Z</time>
      </trkpt>
      <trkpt lat="43.23929" lon="2.17027">
        <ele>171.141134</ele>
        <time>2023-01-04T16:20:21.114Z</time>
      </trkpt>
      <trkpt lat="43.23928" lon="2.17045">
        <ele>170.808425</ele>
        <time>2023-01-04T16:20:23.124Z</time>
      </trkpt>
      <trkpt lat="43.23927" lon="2.17063">
        <ele>170.469782</ele>
        <time>2023-01-04T16:20:25.134Z</time>
      </trkpt>
      <trkpt lat="43.23925" lon="2.17083">
        <ele>170.222234</ele>
        <time>2023-01-04T16:20:27.127Z</time>
      </trkpt>
      <trkpt lat="43.23924" lon="2.17102">
        <ele>170.15905</ele>
        <time>2023-01-04T16:20:29.121Z</time>
      </trkpt>
      <trkpt lat="43.23923" lon="2.17121">
        <ele>170.095473</ele>
        <time>2023-01-04T16:20:31.136Z</time>
      </trkpt>
      <trkpt lat="43.23922" lon="2.17142">
        <ele>170.029629</ele>
        <time>2023-01-04T16:20:33.137Z</time>
      </trkpt>
      <trkpt lat="43.23921" lon="2.1716">
        <ele>169.970298</ele>
        <time>2023-01-04T16:20:35.138Z</time>
      </trkpt>
      <trkpt lat="43.2392" lon="2.17178">
        <ele>169.909765</ele>
        <time>2023-01-04T16:20:37.136Z</time>
      </trkpt>
      <trkpt lat="43.23919" lon="2.17197">
        <ele>169.850433</ele>
        <time>2023-01-04T16:20:39.136Z</time>
      </trkpt>
      <trkpt lat="43.23918" lon="2.17214">
        <ele>169.792638</ele>
        <time>2023-01-04T16:20:41.123Z</time>
      </trkpt>
      <trkpt lat="43.23917" lon="2.17231">
        <ele>169.73715</ele>
        <time>2023-01-04T16:20:43.136Z</time>
      </trkpt>
      <trkpt lat="43.23916" lon="2.17247">
        <ele>169.685338</ele>
        <time>2023-01-04T16:20:45.135Z</time>
      </trkpt>
      <trkpt lat="43.23915" lon="2.17263">
        <ele>169.63345</ele>
        <time>2023-01-04T16:20:47.112Z</time>
      </trkpt>
      <trkpt lat="43.23914" lon="2.17278">
        <ele>169.585559</ele>
        <time>2023-01-04T16:20:49.127Z</time>
      </trkpt>
      <trkpt lat="43.23912" lon="2.17293">
        <ele>169.535193</ele>
        <time>2023-01-04T16:20:51.118Z</time>
      </trkpt>
      <trkpt lat="43.23911" lon="2.17308">
        <ele>169.487995</ele>
        <time>2023-01-04T16:20:53.104Z</time>
      </trkpt>
      <trkpt lat="43.2391" lon="2.17322">
        <ele>169.446536</ele>
        <time>2023-01-04T16:20:55.127Z</time>
      </trkpt>
      <trkpt lat="43.23908" lon="2.17335">
        <ele>169.508622</ele>
        <time>2023-01-04T16:20:57.137Z</time>
      </trkpt>
      <trkpt lat="43.23907" lon="2.17347">
        <ele>169.56821</ele>
        <time>2023-01-04T16:20:59.111Z</time>
      </trkpt>
      <trkpt lat="43.23906" lon="2.1736">
        <ele>169.629445</ele>
        <time>2023-01-04T16:21:01.138Z</time>
      </trkpt>
      <trkpt lat="43.23905" lon="2.17373">
        <ele>169.689535</ele>
        <time>2023-01-04T16:21:03.121Z</time>
      </trkpt>
      <trkpt lat="43.23902" lon="2.17385">
        <ele>169.748926</ele>
        <time>2023-01-04T16:21:05.115Z</time>
      </trkpt>
      <trkpt lat="43.23899" lon="2.17402">
        <ele>169.831943</ele>
        <time>2023-01-04T16:21:08.120Z</time>
      </trkpt>
      <trkpt lat="43.23895" lon="2.17418">
        <ele>169.91192</ele>
        <time>2023-01-04T16:21:11.128Z</time>
      </trkpt>
      <trkpt lat="43.23891" lon="2.17433">
        <ele>169.985944</ele>
        <time>2023-01-04T16:21:14.118Z</time>
      </trkpt>
      <trkpt lat="43.23888" lon="2.17445">
        <ele>170.046001</ele>
        <time>2023-01-04T16:21:17.126Z</time>
      </trkpt>
      <trkpt lat="43.23886" lon="2.17461">
        <ele>170.122416</ele>
        <time>2023-01-04T16:21:21.121Z</time>
      </trkpt>
      <trkpt lat="43.23885" lon="2.17475">
        <ele>170.184946</ele>
        <time>2023-01-04T16:21:25.117Z</time>
      </trkpt>
      <trkpt lat="43.23887" lon="2.17488">
        <ele>170.248303</ele>
        <time>2023-01-04T16:21:37.120Z</time>
      </trkpt>
      <trkpt lat="43.23895" lon="2.17497">
        <ele>170.314883</ele>
        <time>2023-01-04T16:21:51.116Z</time>
      </trkpt>
      <trkpt lat="43.23905" lon="2.17504">
        <ele>170.389816</ele>
        <time>2023-01-04T16:21:56.122Z</time>
      </trkpt>
      <trkpt lat="43.23916" lon="2.17507">
        <ele>170.457608</ele>
        <time>2023-01-04T16:21:59.124Z</time>
      </trkpt>
      <trkpt lat="43.23926" lon="2.17511">
        <ele>170.527504</ele>
        <time>2023-01-04T16:22:02.114Z</time>
      </trkpt>
      <trkpt lat="43.23937" lon="2.17516">
        <ele>170.59843</ele>
        <time>2023-01-04T16:22:05.137Z</time>
      </trkpt>
      <trkpt lat="43.23949" lon="2.1752">
        <ele>170.384146</ele>
        <time>2023-01-04T16:22:08.116Z</time>
      </trkpt>
      <trkpt lat="43.23962" lon="2.17524">
        <ele>170.155467</ele>
        <time>2023-01-04T16:22:11.118Z</time>
      </trkpt>
      <trkpt lat="43.23975" lon="2.17529">
        <ele>169.926506</ele>
        <time>2023-01-04T16:22:14.112Z</time>
      </trkpt>
      <trkpt lat="43.23984" lon="2.17531">
        <ele>169.771916</ele>
        <time>2023-01-04T16:22:16.122Z</time>
      </trkpt>
      <trkpt lat="43.23993" lon="2.17535">
        <ele>169.61552</ele>
        <time>2023-01-04T16:22:18.105Z</time>
      </trkpt>
      <trkpt lat="43.24002" lon="2.17538">
        <ele>169.455074</ele>
        <time>2023-01-04T16:22:20.115Z</time>
      </trkpt>
      <trkpt lat="43.24011" lon="2.17541">
        <ele>169.296694</ele>
        <time>2023-01-04T16:22:22.110Z</time>
      </trkpt>
      <trkpt lat="43.2402" lon="2.17544">
        <ele>169.138485</ele>
        <time>2023-01-04T16:22:24.118Z</time>
      </trkpt>
      <trkpt lat="43.24033" lon="2.17548">
        <ele>168.911755</ele>
        <time>2023-01-04T16:22:27.114Z</time>
      </trkpt>
      <trkpt lat="43.24046" lon="2.17551">
        <ele>168.686319</ele>
        <time>2023-01-04T16:22:30.112Z</time>
      </trkpt>
      <trkpt lat="43.24058" lon="2.17556">
        <ele>168.478989</ele>
        <time>2023-01-04T16:22:33.112Z</time>
      </trkpt>
      <trkpt lat="43.24068" lon="2.1756">
        <ele>168.289494</ele>
        <time>2023-01-04T16:22:36.106Z</time>
      </trkpt>
      <trkpt lat="43.24078" lon="2.17564">
        <ele>168.117497</ele>
        <time>2023-01-04T16:22:50.130Z</time>
      </trkpt>
      <trkpt lat="43.24089" lon="2.17567">
        <ele>167.928337</ele>
        <time>2023-01-04T16:22:54.113Z</time>
      </trkpt>
      <trkpt lat="43.24099" lon="2.17571">
        <ele>167.740197</ele>
        <time>2023-01-04T16:22:57.117Z</time>
      </trkpt>
      <trkpt lat="43.24111" lon="2.17575">
        <ele>167.527395</ele>
        <time>2023-01-04T16:23:00.106Z</time>
      </trkpt>
      <trkpt lat="43.24124" lon="2.17578">
        <ele>167.439259</ele>
        <time>2023-01-04T16:23:03.109Z</time>
      </trkpt>
      <trkpt lat="43.24133" lon="2.1758">
        <ele>167.384105</ele>
        <time>2023-01-04T16:23:05.135Z</time>
      </trkpt>
      <trkpt lat="43.24143" lon="2.17583">
        <ele>167.324974</ele>
        <time>2023-01-04T16:23:07.135Z</time>
      </trkpt>
      <trkpt lat="43.24153" lon="2.17585">
        <ele>167.26325</ele>
        <time>2023-01-04T16:23:09.111Z</time>
      </trkpt>
      <trkpt lat="43.24163" lon="2.17588">
        <ele>167.199474</ele>
        <time>2023-01-04T16:23:11.135Z</time>
      </trkpt>
      <trkpt lat="43.24172" lon="2.1759">
        <ele>167.138961</ele>
        <time>2023-01-04T16:23:13.119Z</time>
      </trkpt>
      <trkpt lat="43.24183" lon="2.17592">
        <ele>167.076557</ele>
        <time>2023-01-04T16:23:15.109Z</time>
      </trkpt>
      <trkpt lat="43.24192" lon="2.17592">
        <ele>167.015657</ele>
        <time>2023-01-04T16:23:17.138Z</time>
      </trkpt>
      <trkpt lat="43.24203" lon="2.1759">
        <ele>166.951934</ele>
        <time>2023-01-04T16:23:19.136Z</time>
      </trkpt>
      <trkpt lat="43.24212" lon="2.17587">
        <ele>166.892285</ele>
        <time>2023-01-04T16:23:21.111Z</time>
      </trkpt>
      <trkpt lat="43.24221" lon="2.17581">
        <ele>166.83223</ele>
        <time>2023-01-04T16:23:23.115Z</time>
      </trkpt>
      <trkpt lat="43.2423" lon="2.17573">
        <ele>166.76879</ele>
        <time>2023-01-04T16:23:25.135Z</time>
      </trkpt>
      <trkpt lat="43.24238" lon="2.17566">
        <ele>166.706108</ele>
        <time>2023-01-04T16:23:27.137Z</time>
      </trkpt>
      <trkpt lat="43.24247" lon="2.17558">
        <ele>166.641385</ele>
        <time>2023-01-04T16:23:29.121Z</time>
      </trkpt>
      <trkpt lat="43.24257" lon="2.17552">
        <ele>166.575779</ele>
        <time>2023-01-04T16:23:31.112Z</time>
      </trkpt>
      <trkpt lat="43.24267" lon="2.17549">
        <ele>166.512553</ele>
        <time>2023-01-04T16:23:33.111Z</time>
      </trkpt>
      <trkpt lat="43.24277" lon="2.17548">
        <ele>166.448614</ele>
        <time>2023-01-04T16:23:35.114Z</time>
      </trkpt>
      <trkpt lat="43.24288" lon="2.1755">
        <ele>166.409228</ele>
        <time>2023-01-04T16:23:37.109Z</time>
      </trkpt>
      <trkpt lat="43.24297" lon="2.17552">
        <ele>166.401633</ele>
        <time>2023-01-04T16:23:39.111Z</time>
      </trkpt>
      <trkpt lat="43.24307" lon="2.17554">
        <ele>166.394334</ele>
        <time>2023-01-04T16:23:41.117Z</time>
      </trkpt>
      <trkpt lat="43.24317" lon="2.17557">
        <ele>166.386993</ele>
        <time>2023-01-04T16:23:43.116Z</time>
      </trkpt>
      <trkpt lat="43.24328" lon="2.1756">
        <ele>166.377907</ele>
        <time>2023-01-04T16:23:46.137Z</time>
      </trkpt>
      <trkpt lat="43.24338" lon="2.17561">
        <ele>166.370839</ele>
        <time>2023-01-04T16:23:48.111Z</time>
      </trkpt>
      <trkpt lat="43.24351" lon="2.17563">
        <ele>166.360694</ele>
        <time>2023-01-04T16:23:51.111Z</time>
      </trkpt>
      <trkpt lat="43.24361" lon="2.17561">
        <ele>166.353261</ele>
        <time>2023-01-04T16:23:53.135Z</time>
      </trkpt>
      <trkpt lat="43.24371" lon="2.17561">
        <ele>166.345923</ele>
        <time>2023-01-04T16:23:55.127Z</time>
      </trkpt>
      <trkpt lat="43.2438" lon="2.17559">
        <ele>166.338549</ele>
        <time>2023-01-04T16:23:57.110Z</time>
      </trkpt>
      <trkpt lat="43.2439" lon="2.17557">
        <ele>166.331363</ele>
        <time>2023-01-04T16:23:59.124Z</time>
      </trkpt>
      <trkpt lat="43.24399" lon="2.17555">
        <ele>166.324224</ele>
        <time>2023-01-04T16:24:01.129Z</time>
      </trkpt>
      <trkpt lat="43.24411" lon="2.17553">
        <ele>166.314799</ele>
        <time>2023-01-04T16:24:04.105Z</time>
      </trkpt>
      <trkpt lat="43.24423" lon="2.17552">
        <ele>166.306172</ele>
        <time>2023-01-04T16:24:07.111Z</time>
      </trkpt>
      <trkpt lat="43.24433" lon="2.17552">
        <ele>166.298312</ele>
        <time>2023-01-04T16:24:10.111Z</time>
      </trkpt>
      <trkpt lat="43.24444" lon="2.17551">
        <ele>166.290373</ele>
        <time>2023-01-04T16:24:13.135Z</time>
      </trkpt>
      <trkpt lat="43.24455" lon="2.17552">
        <ele>166.281677</ele>
        <time>2023-01-04T16:24:16.136Z</time>
      </trkpt>
      <trkpt lat="43.24468" lon="2.17553">
        <ele>166.322214</ele>
        <time>2023-01-04T16:24:19.120Z</time>
      </trkpt>
      <trkpt lat="43.24477" lon="2.17554">
        <ele>166.387294</ele>
        <time>2023-01-04T16:24:21.111Z</time>
      </trkpt>
      <trkpt lat="43.24487" lon="2.17554">
        <ele>166.454464</ele>
        <time>2023-01-04T16:24:23.133Z</time>
      </trkpt>
      <trkpt lat="43.24496" lon="2.17554">
        <ele>166.52164</ele>
        <time>2023-01-04T16:24:25.137Z</time>
      </trkpt>
      <trkpt lat="43.24505" lon="2.17555">
        <ele>166.585625</ele>
        <time>2023-01-04T16:24:27.111Z</time>
      </trkpt>
      <trkpt lat="43.24515" lon="2.17556">
        <ele>166.653695</ele>
        <time>2023-01-04T16:24:29.117Z</time>
      </trkpt>
      <trkpt lat="43.24525" lon="2.17557">
        <ele>166.723216</ele>
        <time>2023-01-04T16:24:31.142Z</time>
      </trkpt>
      <trkpt lat="43.24534" lon="2.17558">
        <ele>166.792736</ele>
        <time>2023-01-04T16:24:33.115Z</time>
      </trkpt>
      <trkpt lat="43.24544" lon="2.1756">
        <ele>166.86069</ele>
        <time>2023-01-04T16:24:35.138Z</time>
      </trkpt>
      <trkpt lat="43.24553" lon="2.17562">
        <ele>166.925235</ele>
        <time>2023-01-04T16:24:37.138Z</time>
      </trkpt>
      <trkpt lat="43.24562" lon="2.17565">
        <ele>166.993269</ele>
        <time>2023-01-04T16:24:39.109Z</time>
      </trkpt>
      <trkpt lat="43.24571" lon="2.17568">
        <ele>167.058874</ele>
        <time>2023-01-04T16:24:41.117Z</time>
      </trkpt>
      <trkpt lat="43.24581" lon="2.1757">
        <ele>167.125085</ele>
        <time>2023-01-04T16:24:43.117Z</time>
      </trkpt>
      <trkpt lat="43.24589" lon="2.17574">
        <ele>167.188654</ele>
        <time>2023-01-04T16:24:45.112Z</time>
      </trkpt>
      <trkpt lat="43.24598" lon="2.17577">
        <ele>167.253703</ele>
        <time>2023-01-04T16:24:47.115Z</time>
      </trkpt>
      <trkpt lat="43.24607" lon="2.17581">
        <ele>167.320243</ele>
        <time>2023-01-04T16:24:49.137Z</time>
      </trkpt>
      <trkpt lat="43.24616" lon="2.17585">
        <ele>167.385447</ele>
        <time>2023-01-04T16:24:51.114Z</time>
      </trkpt>
      <trkpt lat="43.24625" lon="2.17589">
        <ele>167.454176</ele>
        <time>2023-01-04T16:24:53.136Z</time>
      </trkpt>
      <trkpt lat="43.24635" lon="2.17592">
        <ele>167.525971</ele>
        <time>2023-01-04T16:24:55.124Z</time>
      </trkpt>
      <trkpt lat="43.24644" lon="2.17596">
        <ele>167.552277</ele>
        <time>2023-01-04T16:24:57.111Z</time>
      </trkpt>
      <trkpt lat="43.24653" lon="2.17601">
        <ele>167.557601</ele>
        <time>2023-01-04T16:24:59.136Z</time>
      </trkpt>
      <trkpt lat="43.24663" lon="2.17605">
        <ele>167.563406</ele>
        <time>2023-01-04T16:25:01.135Z</time>
      </trkpt>
      <trkpt lat="43.24673" lon="2.17609">
        <ele>167.569194</ele>
        <time>2023-01-04T16:25:03.110Z</time>
      </trkpt>
      <trkpt lat="43.24683" lon="2.17612">
        <ele>167.574711</ele>
        <time>2023-01-04T16:25:05.137Z</time>
      </trkpt>
      <trkpt lat="43.24692" lon="2.17614">
        <ele>167.580145</ele>
        <time>2023-01-04T16:25:07.133Z</time>
      </trkpt>
      <trkpt lat="43.24705" lon="2.17616">
        <ele>167.587391</ele>
        <time>2023-01-04T16:25:10.113Z</time>
      </trkpt>
      <trkpt lat="43.24717" lon="2.17618">
        <ele>167.594099</ele>
        <time>2023-01-04T16:25:13.114Z</time>
      </trkpt>
      <trkpt lat="43.2473" lon="2.1762">
        <ele>167.601438</ele>
        <time>2023-01-04T16:25:16.118Z</time>
      </trkpt>
      <trkpt lat="43.24742" lon="2.17621">
        <ele>167.608373</ele>
        <time>2023-01-04T16:25:19.116Z</time>
      </trkpt>
      <trkpt lat="43.24755" lon="2.17624">
        <ele>167.615692</ele>
        <time>2023-01-04T16:25:22.114Z</time>
      </trkpt>
      <trkpt lat="43.24764" lon="2.17625">
        <ele>167.620929</ele>
        <time>2023-01-04T16:25:24.111Z</time>
      </trkpt>
      <trkpt lat="43.24774" lon="2.17625">
        <ele>167.626264</ele>
        <time>2023-01-04T16:25:26.115Z</time>
      </trkpt>
      <trkpt lat="43.24783" lon="2.17626">
        <ele>167.631616</ele>
        <time>2023-01-04T16:25:28.111Z</time>
      </trkpt>
      <trkpt lat="43.24794" lon="2.17628">
        <ele>167.637439</ele>
        <time>2023-01-04T16:25:30.114Z</time>
      </trkpt>
      <trkpt lat="43.24807" lon="2.17632">
        <ele>167.644955</ele>
        <time>2023-01-04T16:25:33.110Z</time>
      </trkpt>
      <trkpt lat="43.24818" lon="2.17633">
        <ele>167.657487</ele>
        <time>2023-01-04T16:25:35.119Z</time>
      </trkpt>
      <trkpt lat="43.24827" lon="2.17635">
        <ele>167.684933</ele>
        <time>2023-01-04T16:25:37.121Z</time>
      </trkpt>
      <trkpt lat="43.2484" lon="2.17637">
        <ele>167.724216</ele>
        <time>2023-01-04T16:25:40.120Z</time>
      </trkpt>
      <trkpt lat="43.24853" lon="2.17641">
        <ele>167.761573</ele>
        <time>2023-01-04T16:25:43.109Z</time>
      </trkpt>
      <trkpt lat="43.24866" lon="2.17643">
        <ele>167.79942</ele>
        <time>2023-01-04T16:25:46.128Z</time>
      </trkpt>
      <trkpt lat="43.24879" lon="2.17646">
        <ele>167.837207</ele>
        <time>2023-01-04T16:25:49.115Z</time>
      </trkpt>
      <trkpt lat="43.24888" lon="2.17649">
        <ele>167.865269</ele>
        <time>2023-01-04T16:25:51.107Z</time>
      </trkpt>
      <trkpt lat="43.24897" lon="2.17651">
        <ele>167.892593</ele>
        <time>2023-01-04T16:25:53.114Z</time>
      </trkpt>
      <trkpt lat="43.2491" lon="2.17652">
        <ele>167.930155</ele>
        <time>2023-01-04T16:25:56.104Z</time>
      </trkpt>
      <trkpt lat="43.24922" lon="2.17653">
        <ele>167.963263</ele>
        <time>2023-01-04T16:25:59.107Z</time>
      </trkpt>
      <trkpt lat="43.24934" lon="2.17652">
        <ele>167.998426</ele>
        <time>2023-01-04T16:26:02.115Z</time>
      </trkpt>
      <trkpt lat="43.24946" lon="2.17651">
        <ele>168.03271</ele>
        <time>2023-01-04T16:26:05.107Z</time>
      </trkpt>
      <trkpt lat="43.24957" lon="2.17651">
        <ele>168.064643</ele>
        <time>2023-01-04T16:26:08.111Z</time>
      </trkpt>
      <trkpt lat="43.24968" lon="2.17652">
        <ele>168.097197</ele>
        <time>2023-01-04T16:26:11.120Z</time>
      </trkpt>
      <trkpt lat="43.24979" lon="2.17654">
        <ele>168.128489</ele>
        <time>2023-01-04T16:26:14.108Z</time>
      </trkpt>
      <trkpt lat="43.2499" lon="2.17655">
        <ele>168.161966</ele>
        <time>2023-01-04T16:26:18.110Z</time>
      </trkpt>
      <trkpt lat="43.25" lon="2.17656">
        <ele>168.1548</ele>
        <time>2023-01-04T16:26:22.134Z</time>
      </trkpt>
      <trkpt lat="43.25012" lon="2.17657">
        <ele>168.124127</ele>
        <time>2023-01-04T16:26:26.127Z</time>
      </trkpt>
      <trkpt lat="43.25023" lon="2.17657">
        <ele>168.095098</ele>
        <time>2023-01-04T16:26:29.131Z</time>
      </trkpt>
      <trkpt lat="43.25037" lon="2.17659">
        <ele>168.059696</ele>
        <time>2023-01-04T16:26:32.135Z</time>
      </trkpt>
      <trkpt lat="43.25047" lon="2.17661">
        <ele>168.032637</ele>
        <time>2023-01-04T16:26:34.139Z</time>
      </trkpt>
      <trkpt lat="43.25058" lon="2.17664">
        <ele>168.004124</ele>
        <time>2023-01-04T16:26:36.132Z</time>
      </trkpt>
      <trkpt lat="43.25069" lon="2.17667">
        <ele>167.974201</ele>
        <time>2023-01-04T16:26:38.125Z</time>
      </trkpt>
      <trkpt lat="43.2508" lon="2.17671">
        <ele>167.945117</ele>
        <time>2023-01-04T16:26:40.138Z</time>
      </trkpt>
      <trkpt lat="43.25091" lon="2.17676">
        <ele>167.916818</ele>
        <time>2023-01-04T16:26:42.136Z</time>
      </trkpt>
      <trkpt lat="43.25101" lon="2.17681">
        <ele>167.889969</ele>
        <time>2023-01-04T16:26:44.135Z</time>
      </trkpt>
      <trkpt lat="43.2511" lon="2.17686">
        <ele>167.863054</ele>
        <time>2023-01-04T16:26:46.137Z</time>
      </trkpt>
      <trkpt lat="43.2512" lon="2.17692">
        <ele>167.836353</ele>
        <time>2023-01-04T16:26:48.133Z</time>
      </trkpt>
      <trkpt lat="43.25129" lon="2.17697">
        <ele>167.811181</ele>
        <time>2023-01-04T16:26:50.118Z</time>
      </trkpt>
      <trkpt lat="43.25139" lon="2.17703">
        <ele>167.783539</ele>
        <time>2023-01-04T16:26:52.115Z</time>
      </trkpt>
      <trkpt lat="43.25148" lon="2.17707">
        <ele>167.7587</ele>
        <time>2023-01-04T16:26:54.114Z</time>
      </trkpt>
      <trkpt lat="43.25157" lon="2.17712">
        <ele>167.732743</ele>
        <time>2023-01-04T16:26:56.123Z</time>
      </trkpt>
      <trkpt lat="43.25166" lon="2.17718">
        <ele>167.714267</ele>
        <time>2023-01-04T16:26:58.109Z</time>
      </trkpt>
      <trkpt lat="43.25178" lon="2.17722">
        <ele>167.990636</ele>
        <time>2023-01-04T16:27:01.110Z</time>
      </trkpt>
      <trkpt lat="43.25188" lon="2.17727">
        <ele>168.241527</ele>
        <time>2023-01-04T16:27:04.120Z</time>
      </trkpt>
      <trkpt lat="43.25199" lon="2.17731">
        <ele>168.496481</ele>
        <time>2023-01-04T16:27:07.109Z</time>
      </trkpt>
      <trkpt lat="43.25209" lon="2.17735">
        <ele>168.728078</ele>
        <time>2023-01-04T16:27:10.132Z</time>
      </trkpt>
      <trkpt lat="43.25218" lon="2.1774">
        <ele>168.958591</ele>
        <time>2023-01-04T16:27:13.115Z</time>
      </trkpt>
      <trkpt lat="43.25226" lon="2.17746">
        <ele>169.169643</ele>
        <time>2023-01-04T16:27:16.136Z</time>
      </trkpt>
      <trkpt lat="43.25236" lon="2.17755">
        <ele>169.442616</ele>
        <time>2023-01-04T16:27:20.111Z</time>
      </trkpt>
      <trkpt lat="43.25246" lon="2.1776">
        <ele>169.666074</ele>
        <time>2023-01-04T16:27:23.116Z</time>
      </trkpt>
      <trkpt lat="43.25255" lon="2.17765">
        <ele>169.895003</ele>
        <time>2023-01-04T16:27:26.135Z</time>
      </trkpt>
      <trkpt lat="43.25264" lon="2.17769">
        <ele>170.106304</ele>
        <time>2023-01-04T16:27:29.138Z</time>
      </trkpt>
      <trkpt lat="43.25273" lon="2.17774">
        <ele>170.325194</ele>
        <time>2023-01-04T16:27:32.122Z</time>
      </trkpt>
      <trkpt lat="43.25283" lon="2.17776">
        <ele>170.560387</ele>
        <time>2023-01-04T16:27:35.107Z</time>
      </trkpt>
      <trkpt lat="43.25293" lon="2.17781">
        <ele>170.801117</ele>
        <time>2023-01-04T16:27:38.137Z</time>
      </trkpt>
      <trkpt lat="43.25303" lon="2.17785">
        <ele>171.029538</ele>
        <time>2023-01-04T16:27:41.138Z</time>
      </trkpt>
      <trkpt lat="43.25313" lon="2.17789">
        <ele>171.270907</ele>
        <time>2023-01-04T16:27:44.116Z</time>
      </trkpt>
      <trkpt lat="43.25323" lon="2.17795">
        <ele>171.513501</ele>
        <time>2023-01-04T16:27:47.114Z</time>
      </trkpt>
      <trkpt lat="43.25333" lon="2.178">
        <ele>171.757722</ele>
        <time>2023-01-04T16:27:50.143Z</time>
      </trkpt>
      <trkpt lat="43.25342" lon="2.17804">
        <ele>171.64677</ele>
        <time>2023-01-04T16:27:53.116Z</time>
      </trkpt>
      <trkpt lat="43.25353" lon="2.17809">
        <ele>171.440137</ele>
        <time>2023-01-04T16:27:58.113Z</time>
      </trkpt>
      <trkpt lat="43.25362" lon="2.1782">
        <ele>171.224784</ele>
        <time>2023-01-04T16:28:02.110Z</time>
      </trkpt>
      <trkpt lat="43.25367" lon="2.17834">
        <ele>171.023429</ele>
        <time>2023-01-04T16:28:05.130Z</time>
      </trkpt>
      <trkpt lat="43.25371" lon="2.17846">
        <ele>170.851784</ele>
        <time>2023-01-04T16:28:07.120Z</time>
      </trkpt>
      <trkpt lat="43.25375" lon="2.17858">
        <ele>170.679248</ele>
        <time>2023-01-04T16:28:09.115Z</time>
      </trkpt>
      <trkpt lat="43.2538" lon="2.17871">
        <ele>170.480621</ele>
        <time>2023-01-04T16:28:11.127Z</time>
      </trkpt>
      <trkpt lat="43.25385" lon="2.17884">
        <ele>170.288496</ele>
        <time>2023-01-04T16:28:13.123Z</time>
      </trkpt>
      <trkpt lat="43.25391" lon="2.17896">
        <ele>170.102522</ele>
        <time>2023-01-04T16:28:15.124Z</time>
      </trkpt>
      <trkpt lat="43.25398" lon="2.17908">
        <ele>169.907998</ele>
        <time>2023-01-04T16:28:17.117Z</time>
      </trkpt>
      <trkpt lat="43.25406" lon="2.17918">
        <ele>169.711119</ele>
        <time>2023-01-04T16:28:19.119Z</time>
      </trkpt>
      <trkpt lat="43.25415" lon="2.17927">
        <ele>169.511026</ele>
        <time>2023-01-04T16:28:21.132Z</time>
      </trkpt>
      <trkpt lat="43.25425" lon="2.17937">
        <ele>169.299301</ele>
        <time>2023-01-04T16:28:23.126Z</time>
      </trkpt>
      <trkpt lat="43.25433" lon="2.17946">
        <ele>169.100261</ele>
        <time>2023-01-04T16:28:25.147Z</time>
      </trkpt>
      <trkpt lat="43.2544" lon="2.17957">
        <ele>168.911299</ele>
        <time>2023-01-04T16:28:27.134Z</time>
      </trkpt>
      <trkpt lat="43.25446" lon="2.1797">
        <ele>168.709207</ele>
        <time>2023-01-04T16:28:29.136Z</time>
      </trkpt>
      <trkpt lat="43.25453" lon="2.17983">
        <ele>168.551589</ele>
        <time>2023-01-04T16:28:31.137Z</time>
      </trkpt>
      <trkpt lat="43.25458" lon="2.17998">
        <ele>168.479737</ele>
        <time>2023-01-04T16:28:33.135Z</time>
      </trkpt>
      <trkpt lat="43.25464" lon="2.18012">
        <ele>168.407595</ele>
        <time>2023-01-04T16:28:35.126Z</time>
      </trkpt>
      <trkpt lat="43.25468" lon="2.18027">
        <ele>168.334924</ele>
        <time>2023-01-04T16:28:37.137Z</time>
      </trkpt>
      <trkpt lat="43.25473" lon="2.18042">
        <ele>168.262001</ele>
        <time>2023-01-04T16:28:39.139Z</time>
      </trkpt>
      <trkpt lat="43.25478" lon="2.18057">
        <ele>168.18974</ele>
        <time>2023-01-04T16:28:41.141Z</time>
      </trkpt>
      <trkpt lat="43.25484" lon="2.18071">
        <ele>168.117404</ele>
        <time>2023-01-04T16:28:43.126Z</time>
      </trkpt>
      <trkpt lat="43.25488" lon="2.18084">
        <ele>168.049832</ele>
        <time>2023-01-04T16:28:45.130Z</time>
      </trkpt>
      <trkpt lat="43.25492" lon="2.18098">
        <ele>167.981916</ele>
        <time>2023-01-04T16:28:47.136Z</time>
      </trkpt>
      <trkpt lat="43.25497" lon="2.18112">
        <ele>167.915242</ele>
        <time>2023-01-04T16:28:49.141Z</time>
      </trkpt>
      <trkpt lat="43.25501" lon="2.18126">
        <ele>167.848155</ele>
        <time>2023-01-04T16:28:51.118Z</time>
      </trkpt>
      <trkpt lat="43.25506" lon="2.18138">
        <ele>167.787921</ele>
        <time>2023-01-04T16:28:53.132Z</time>
      </trkpt>
      <trkpt lat="43.2551" lon="2.18151">
        <ele>167.720263</ele>
        <time>2023-01-04T16:28:55.121Z</time>
      </trkpt>
      <trkpt lat="43.25515" lon="2.18165">
        <ele>167.650801</ele>
        <time>2023-01-04T16:28:57.137Z</time>
      </trkpt>
      <trkpt lat="43.25519" lon="2.1818">
        <ele>167.581222</ele>
        <time>2023-01-04T16:28:59.137Z</time>
      </trkpt>
      <trkpt lat="43.25523" lon="2.18194">
        <ele>167.5146</ele>
        <time>2023-01-04T16:29:01.136Z</time>
      </trkpt>
      <trkpt lat="43.25527" lon="2.18208">
        <ele>167.506222</ele>
        <time>2023-01-04T16:29:03.135Z</time>
      </trkpt>
      <trkpt lat="43.25531" lon="2.18222">
        <ele>167.601446</ele>
        <time>2023-01-04T16:29:05.138Z</time>
      </trkpt>
      <trkpt lat="43.25535" lon="2.18236">
        <ele>167.695498</ele>
        <time>2023-01-04T16:29:07.137Z</time>
      </trkpt>
      <trkpt lat="43.25539" lon="2.18251">
        <ele>167.790427</ele>
        <time>2023-01-04T16:29:09.117Z</time>
      </trkpt>
      <trkpt lat="43.25543" lon="2.18266">
        <ele>167.889704</ele>
        <time>2023-01-04T16:29:11.136Z</time>
      </trkpt>
      <trkpt lat="43.25547" lon="2.1828">
        <ele>167.985865</ele>
        <time>2023-01-04T16:29:13.117Z</time>
      </trkpt>
      <trkpt lat="43.2555" lon="2.18295">
        <ele>168.082438</ele>
        <time>2023-01-04T16:29:15.112Z</time>
      </trkpt>
      <trkpt lat="43.25553" lon="2.18311">
        <ele>168.184311</ele>
        <time>2023-01-04T16:29:17.107Z</time>
      </trkpt>
      <trkpt lat="43.25556" lon="2.18326">
        <ele>168.279107</ele>
        <time>2023-01-04T16:29:19.110Z</time>
      </trkpt>
      <trkpt lat="43.25559" lon="2.18339">
        <ele>168.363365</ele>
        <time>2023-01-04T16:29:21.125Z</time>
      </trkpt>
      <trkpt lat="43.25563" lon="2.18353">
        <ele>168.453652</ele>
        <time>2023-01-04T16:29:23.110Z</time>
      </trkpt>
      <trkpt lat="43.25566" lon="2.18365">
        <ele>168.53497</ele>
        <time>2023-01-04T16:29:25.138Z</time>
      </trkpt>
      <trkpt lat="43.25569" lon="2.18378">
        <ele>168.620075</ele>
        <time>2023-01-04T16:29:27.126Z</time>
      </trkpt>
      <trkpt lat="43.25571" lon="2.18391">
        <ele>168.699531</ele>
        <time>2023-01-04T16:29:29.138Z</time>
      </trkpt>
      <trkpt lat="43.25574" lon="2.18408">
        <ele>168.812034</ele>
        <time>2023-01-04T16:29:32.137Z</time>
      </trkpt>
      <trkpt lat="43.25577" lon="2.1842">
        <ele>168.88989</ele>
        <time>2023-01-04T16:29:34.117Z</time>
      </trkpt>
      <trkpt lat="43.25579" lon="2.18433">
        <ele>168.967155</ele>
        <time>2023-01-04T16:29:36.133Z</time>
      </trkpt>
      <trkpt lat="43.25582" lon="2.18445">
        <ele>168.994818</ele>
        <time>2023-01-04T16:29:38.136Z</time>
      </trkpt>
      <trkpt lat="43.25585" lon="2.18458">
        <ele>168.989691</ele>
        <time>2023-01-04T16:29:40.136Z</time>
      </trkpt>
      <trkpt lat="43.25588" lon="2.18469">
        <ele>168.984723</ele>
        <time>2023-01-04T16:29:42.136Z</time>
      </trkpt>
      <trkpt lat="43.25592" lon="2.18483">
        <ele>168.979225</ele>
        <time>2023-01-04T16:29:44.116Z</time>
      </trkpt>
      <trkpt lat="43.25595" lon="2.18496">
        <ele>168.973818</ele>
        <time>2023-01-04T16:29:46.136Z</time>
      </trkpt>
      <trkpt lat="43.25598" lon="2.1851">
        <ele>168.968263</ele>
        <time>2023-01-04T16:29:48.132Z</time>
      </trkpt>
      <trkpt lat="43.25601" lon="2.18524">
        <ele>168.962322</ele>
        <time>2023-01-04T16:29:50.135Z</time>
      </trkpt>
      <trkpt lat="43.25604" lon="2.18539">
        <ele>168.956314</ele>
        <time>2023-01-04T16:29:52.132Z</time>
      </trkpt>
      <trkpt lat="43.25607" lon="2.18555">
        <ele>168.949992</ele>
        <time>2023-01-04T16:29:54.111Z</time>
      </trkpt>
      <trkpt lat="43.2561" lon="2.18569">
        <ele>168.944162</ele>
        <time>2023-01-04T16:29:56.114Z</time>
      </trkpt>
      <trkpt lat="43.25615" lon="2.18584">
        <ele>168.938092</ele>
        <time>2023-01-04T16:29:58.119Z</time>
      </trkpt>
      <trkpt lat="43.25618" lon="2.18598">
        <ele>168.932267</ele>
        <time>2023-01-04T16:30:00.119Z</time>
      </trkpt>
      <trkpt lat="43.25622" lon="2.18612">
        <ele>168.926548</ele>
        <time>2023-01-04T16:30:02.120Z</time>
      </trkpt>
      <trkpt lat="43.25625" lon="2.18627">
        <ele>168.920495</ele>
        <time>2023-01-04T16:30:04.117Z</time>
      </trkpt>
      <trkpt lat="43.25628" lon="2.18642">
        <ele>168.914435</ele>
        <time>2023-01-04T16:30:06.118Z</time>
      </trkpt>
      <trkpt lat="43.25631" lon="2.18656">
        <ele>168.908568</ele>
        <time>2023-01-04T16:30:08.109Z</time>
      </trkpt>
      <trkpt lat="43.25634" lon="2.1867">
        <ele>168.902859</ele>
        <time>2023-01-04T16:30:10.115Z</time>
      </trkpt>
      <trkpt lat="43.25638" lon="2.18684">
        <ele>169.142745</ele>
        <time>2023-01-04T16:30:12.108Z</time>
      </trkpt>
      <trkpt lat="43.25642" lon="2.18697">
        <ele>169.41509</ele>
        <time>2023-01-04T16:30:14.118Z</time>
      </trkpt>
      <trkpt lat="43.25646" lon="2.18709">
        <ele>169.676412</ele>
        <time>2023-01-04T16:30:16.112Z</time>
      </trkpt>
      <trkpt lat="43.25651" lon="2.18721">
        <ele>169.93392</ele>
        <time>2023-01-04T16:30:18.113Z</time>
      </trkpt>
      <trkpt lat="43.25655" lon="2.18733">
        <ele>170.183227</ele>
        <time>2023-01-04T16:30:20.109Z</time>
      </trkpt>
      <trkpt lat="43.25659" lon="2.18744">
        <ele>170.443711</ele>
        <time>2023-01-04T16:30:22.120Z</time>
      </trkpt>
      <trkpt lat="43.25664" lon="2.18757">
        <ele>170.716969</ele>
        <time>2023-01-04T16:30:24.113Z</time>
      </trkpt>
      <trkpt lat="43.25669" lon="2.1877">
        <ele>170.999111</ele>
        <time>2023-01-04T16:30:26.110Z</time>
      </trkpt>
      <trkpt lat="43.25674" lon="2.18782">
        <ele>171.282523</ele>
        <time>2023-01-04T16:30:28.111Z</time>
      </trkpt>
      <trkpt lat="43.2568" lon="2.18794">
        <ele>171.550167</ele>
        <time>2023-01-04T16:30:30.131Z</time>
      </trkpt>
      <trkpt lat="43.25684" lon="2.18805">
        <ele>171.790175</ele>
        <time>2023-01-04T16:30:32.117Z</time>
      </trkpt>
      <trkpt lat="43.25689" lon="2.18816">
        <ele>172.036565</ele>
        <time>2023-01-04T16:30:34.125Z</time>
      </trkpt>
      <trkpt lat="43.25695" lon="2.18832">
        <ele>172.391149</ele>
        <time>2023-01-04T16:30:37.125Z</time>
      </trkpt>
      <trkpt lat="43.257" lon="2.18843">
        <ele>172.63453</ele>
        <time>2023-01-04T16:30:39.110Z</time>
      </trkpt>
      <trkpt lat="43.25706" lon="2.18857">
        <ele>172.968871</ele>
        <time>2023-01-04T16:30:42.134Z</time>
      </trkpt>
      <trkpt lat="43.25712" lon="2.18872">
        <ele>173.283822</ele>
        <time>2023-01-04T16:30:45.120Z</time>
      </trkpt>
      <trkpt lat="43.25717" lon="2.18884">
        <ele>173.562797</ele>
        <time>2023-01-04T16:30:48.111Z</time>
      </trkpt>
      <trkpt lat="43.25722" lon="2.18895">
        <ele>173.823067</ele>
        <time>2023-01-04T16:30:51.111Z</time>
      </trkpt>
      <trkpt lat="43.25726" lon="2.18907">
        <ele>174.093252</ele>
        <time>2023-01-04T16:30:54.129Z</time>
      </trkpt>
      <trkpt lat="43.25731" lon="2.18918">
        <ele>174.364031</ele>
        <time>2023-01-04T16:30:57.120Z</time>
      </trkpt>
      <trkpt lat="43.25736" lon="2.18929">
        <ele>174.636272</ele>
        <time>2023-01-04T16:31:00.113Z</time>
      </trkpt>
      <trkpt lat="43.25742" lon="2.18943">
        <ele>174.982221</ele>
        <time>2023-01-04T16:31:04.118Z</time>
      </trkpt>
      <trkpt lat="43.25747" lon="2.18954">
        <ele>175.240315</ele>
        <time>2023-01-04T16:31:07.126Z</time>
      </trkpt>
      <trkpt lat="43.25752" lon="2.18965">
        <ele>175.515088</ele>
        <time>2023-01-04T16:31:10.126Z</time>
      </trkpt>
      <trkpt lat="43.25756" lon="2.18976">
        <ele>175.777577</ele>
        <time>2023-01-04T16:31:13.117Z</time>
      </trkpt>
      <trkpt lat="43.2576" lon="2.18987">
        <ele>176.036368</ele>
        <time>2023-01-04T16:31:16.128Z</time>
      </trkpt>
      <trkpt lat="43.25766" lon="2.19001">
        <ele>176.366466</ele>
        <time>2023-01-04T16:31:20.108Z</time>
      </trkpt>
      <trkpt lat="43.25772" lon="2.19014">
        <ele>176.679792</ele>
        <time>2023-01-04T16:31:24.115Z</time>
      </trkpt>
      <trkpt lat="43.25777" lon="2.19028">
        <ele>177.012194</ele>
        <time>2023-01-04T16:31:28.107Z</time>
      </trkpt>
      <trkpt lat="43.25782" lon="2.19042">
        <ele>177.340451</ele>
        <time>2023-01-04T16:31:32.117Z</time>
      </trkpt>
      <trkpt lat="43.25787" lon="2.19053">
        <ele>177.612468</ele>
        <time>2023-01-04T16:31:35.113Z</time>
      </trkpt>
      <trkpt lat="43.25792" lon="2.19066">
        <ele>177.910604</ele>
        <time>2023-01-04T16:31:38.114Z</time>
      </trkpt>
      <trkpt lat="43.25797" lon="2.1908">
        <ele>178.234252</ele>
        <time>2023-01-04T16:31:41.118Z</time>
      </trkpt>
      <trkpt lat="43.25801" lon="2.19096">
        <ele>178.586016</ele>
        <time>2023-01-04T16:31:44.111Z</time>
      </trkpt>
      <trkpt lat="43.25806" lon="2.1911">
        <ele>178.872854</ele>
        <time>2023-01-04T16:31:47.118Z</time>
      </trkpt>
      <trkpt lat="43.25811" lon="2.19126">
        <ele>178.997762</ele>
        <time>2023-01-04T16:31:50.112Z</time>
      </trkpt>
      <trkpt lat="43.25817" lon="2.19143">
        <ele>179.13269</ele>
        <time>2023-01-04T16:31:53.118Z</time>
      </trkpt>
      <trkpt lat="43.25821" lon="2.19154">
        <ele>179.223373</ele>
        <time>2023-01-04T16:31:55.118Z</time>
      </trkpt>
      <trkpt lat="43.25825" lon="2.19165">
        <ele>179.31539</ele>
        <time>2023-01-04T16:31:57.115Z</time>
      </trkpt>
      <trkpt lat="43.25828" lon="2.19177">
        <ele>179.409381</ele>
        <time>2023-01-04T16:31:59.114Z</time>
      </trkpt>
      <trkpt lat="43.25833" lon="2.1919">
        <ele>179.509703</ele>
        <time>2023-01-04T16:32:01.122Z</time>
      </trkpt>
      <trkpt lat="43.25837" lon="2.19202">
        <ele>179.605957</ele>
        <time>2023-01-04T16:32:03.117Z</time>
      </trkpt>
      <trkpt lat="43.25841" lon="2.19213">
        <ele>179.703561</ele>
        <time>2023-01-04T16:32:05.105Z</time>
      </trkpt>
      <trkpt lat="43.25845" lon="2.19226">
        <ele>179.805588</ele>
        <time>2023-01-04T16:32:07.116Z</time>
      </trkpt>
      <trkpt lat="43.25849" lon="2.1924">
        <ele>179.91322</ele>
        <time>2023-01-04T16:32:09.121Z</time>
      </trkpt>
      <trkpt lat="43.25854" lon="2.19253">
        <ele>180.018139</ele>
        <time>2023-01-04T16:32:11.115Z</time>
      </trkpt>
      <trkpt lat="43.25859" lon="2.19266">
        <ele>180.124601</ele>
        <time>2023-01-04T16:32:13.121Z</time>
      </trkpt>
      <trkpt lat="43.25863" lon="2.1928">
        <ele>180.237872</ele>
        <time>2023-01-04T16:32:15.123Z</time>
      </trkpt>
      <trkpt lat="43.25868" lon="2.19294">
        <ele>180.349398</ele>
        <time>2023-01-04T16:32:17.119Z</time>
      </trkpt>
      <trkpt lat="43.25873" lon="2.19308">
        <ele>180.461334</ele>
        <time>2023-01-04T16:32:19.118Z</time>
      </trkpt>
      <trkpt lat="43.25877" lon="2.19321">
        <ele>180.569635</ele>
        <time>2023-01-04T16:32:21.117Z</time>
      </trkpt>
      <trkpt lat="43.25882" lon="2.19335">
        <ele>180.67491</ele>
        <time>2023-01-04T16:32:23.124Z</time>
      </trkpt>
      <trkpt lat="43.25887" lon="2.19349">
        <ele>180.763653</ele>
        <time>2023-01-04T16:32:25.116Z</time>
      </trkpt>
      <trkpt lat="43.25892" lon="2.19363">
        <ele>180.850011</ele>
        <time>2023-01-04T16:32:27.115Z</time>
      </trkpt>
      <trkpt lat="43.25896" lon="2.19377">
        <ele>180.937219</ele>
        <time>2023-01-04T16:32:29.123Z</time>
      </trkpt>
      <trkpt lat="43.25901" lon="2.19391">
        <ele>181.023751</ele>
        <time>2023-01-04T16:32:31.137Z</time>
      </trkpt>
      <trkpt lat="43.25905" lon="2.19406">
        <ele>181.114944</ele>
        <time>2023-01-04T16:32:33.131Z</time>
      </trkpt>
      <trkpt lat="43.2591" lon="2.1942">
        <ele>181.207177</ele>
        <time>2023-01-04T16:32:35.135Z</time>
      </trkpt>
      <trkpt lat="43.25915" lon="2.19435">
        <ele>181.296618</ele>
        <time>2023-01-04T16:32:37.130Z</time>
      </trkpt>
      <trkpt lat="43.2592" lon="2.1945">
        <ele>181.388645</ele>
        <time>2023-01-04T16:32:39.115Z</time>
      </trkpt>
      <trkpt lat="43.25924" lon="2.19464">
        <ele>181.478085</ele>
        <time>2023-01-04T16:32:41.112Z</time>
      </trkpt>
      <trkpt lat="43.25929" lon="2.19478">
        <ele>181.566657</ele>
        <time>2023-01-04T16:32:43.111Z</time>
      </trkpt>
      <trkpt lat="43.25933" lon="2.19492">
        <ele>181.653393</ele>
        <time>2023-01-04T16:32:45.114Z</time>
      </trkpt>
      <trkpt lat="43.25938" lon="2.19506">
        <ele>181.741358</ele>
        <time>2023-01-04T16:32:47.113Z</time>
      </trkpt>
      <trkpt lat="43.25943" lon="2.19522">
        <ele>181.835681</ele>
        <time>2023-01-04T16:32:49.138Z</time>
      </trkpt>
      <trkpt lat="43.25947" lon="2.19537">
        <ele>181.930706</ele>
        <time>2023-01-04T16:32:51.129Z</time>
      </trkpt>
      <trkpt lat="43.25952" lon="2.19553">
        <ele>182.026076</ele>
        <time>2023-01-04T16:32:53.135Z</time>
      </trkpt>
      <trkpt lat="43.25956" lon="2.19568">
        <ele>181.992314</ele>
        <time>2023-01-04T16:32:55.128Z</time>
      </trkpt>
      <trkpt lat="43.2596" lon="2.19582">
        <ele>181.908588</ele>
        <time>2023-01-04T16:32:57.122Z</time>
      </trkpt>
      <trkpt lat="43.25964" lon="2.19597">
        <ele>181.825299</ele>
        <time>2023-01-04T16:32:59.136Z</time>
      </trkpt>
      <trkpt lat="43.25968" lon="2.1961">
        <ele>181.748321</ele>
        <time>2023-01-04T16:33:01.114Z</time>
      </trkpt>
      <trkpt lat="43.25972" lon="2.19624">
        <ele>181.669995</ele>
        <time>2023-01-04T16:33:03.138Z</time>
      </trkpt>
      <trkpt lat="43.25975" lon="2.19637">
        <ele>181.595495</ele>
        <time>2023-01-04T16:33:05.130Z</time>
      </trkpt>
      <trkpt lat="43.25979" lon="2.1965">
        <ele>181.523497</ele>
        <time>2023-01-04T16:33:07.126Z</time>
      </trkpt>
      <trkpt lat="43.25983" lon="2.19661">
        <ele>181.457021</ele>
        <time>2023-01-04T16:33:09.119Z</time>
      </trkpt>
      <trkpt lat="43.25987" lon="2.19674">
        <ele>181.38595</ele>
        <time>2023-01-04T16:33:11.127Z</time>
      </trkpt>
      <trkpt lat="43.25991" lon="2.19686">
        <ele>181.312584</ele>
        <time>2023-01-04T16:33:13.135Z</time>
      </trkpt>
      <trkpt lat="43.25996" lon="2.19699">
        <ele>181.237523</ele>
        <time>2023-01-04T16:33:15.129Z</time>
      </trkpt>
      <trkpt lat="43.26" lon="2.19712">
        <ele>181.158015</ele>
        <time>2023-01-04T16:33:17.121Z</time>
      </trkpt>
      <trkpt lat="43.26004" lon="2.19726">
        <ele>181.079755</ele>
        <time>2023-01-04T16:33:19.122Z</time>
      </trkpt>
      <trkpt lat="43.26009" lon="2.1974">
        <ele>180.998419</ele>
        <time>2023-01-04T16:33:21.134Z</time>
      </trkpt>
      <trkpt lat="43.26013" lon="2.19755">
        <ele>180.914641</ele>
        <time>2023-01-04T16:33:23.132Z</time>
      </trkpt>
      <trkpt lat="43.26018" lon="2.19769">
        <ele>180.834471</ele>
        <time>2023-01-04T16:33:25.122Z</time>
      </trkpt>
      <trkpt lat="43.26022" lon="2.19783">
        <ele>180.749638</ele>
        <time>2023-01-04T16:33:27.118Z</time>
      </trkpt>
      <trkpt lat="43.26026" lon="2.19798">
        <ele>180.733589</ele>
        <time>2023-01-04T16:33:29.113Z</time>
      </trkpt>
      <trkpt lat="43.26031" lon="2.19812">
        <ele>180.723159</ele>
        <time>2023-01-04T16:33:31.128Z</time>
      </trkpt>
      <trkpt lat="43.26037" lon="2.19828">
        <ele>180.712049</ele>
        <time>2023-01-04T16:33:33.111Z</time>
      </trkpt>
      <trkpt lat="43.26041" lon="2.19843">
        <ele>180.701246</ele>
        <time>2023-01-04T16:33:35.122Z</time>
      </trkpt>
      <trkpt lat="43.26046" lon="2.19859">
        <ele>180.690537</ele>
        <time>2023-01-04T16:33:37.120Z</time>
      </trkpt>
      <trkpt lat="43.26051" lon="2.19874">
        <ele>180.680004</ele>
        <time>2023-01-04T16:33:39.137Z</time>
      </trkpt>
      <trkpt lat="43.26056" lon="2.19888">
        <ele>180.669896</ele>
        <time>2023-01-04T16:33:41.124Z</time>
      </trkpt>
      <trkpt lat="43.2606" lon="2.19902">
        <ele>180.660494</ele>
        <time>2023-01-04T16:33:43.134Z</time>
      </trkpt>
      <trkpt lat="43.26064" lon="2.19915">
        <ele>180.651145</ele>
        <time>2023-01-04T16:33:45.132Z</time>
      </trkpt>
      <trkpt lat="43.26068" lon="2.19929">
        <ele>180.641389</ele>
        <time>2023-01-04T16:33:47.109Z</time>
      </trkpt>
      <trkpt lat="43.26072" lon="2.19943">
        <ele>180.631602</ele>
        <time>2023-01-04T16:33:49.133Z</time>
      </trkpt>
      <trkpt lat="43.26077" lon="2.19958">
        <ele>180.621351</ele>
        <time>2023-01-04T16:33:51.118Z</time>
      </trkpt>
      <trkpt lat="43.26081" lon="2.19973">
        <ele>180.6111</ele>
        <time>2023-01-04T16:33:53.140Z</time>
      </trkpt>
      <trkpt lat="43.26086" lon="2.19988">
        <ele>180.60046</ele>
        <time>2023-01-04T16:33:55.120Z</time>
      </trkpt>
      <trkpt lat="43.26089" lon="2.20004">
        <ele>180.589659</ele>
        <time>2023-01-04T16:33:57.144Z</time>
      </trkpt>
      <trkpt lat="43.26092" lon="2.2002">
        <ele>180.624864</ele>
        <time>2023-01-04T16:33:59.148Z</time>
      </trkpt>
      <trkpt lat="43.26095" lon="2.20037">
        <ele>180.718583</ele>
        <time>2023-01-04T16:34:01.138Z</time>
      </trkpt>
      <trkpt lat="43.26098" lon="2.20054">
        <ele>180.812998</ele>
        <time>2023-01-04T16:34:03.138Z</time>
      </trkpt>
      <trkpt lat="43.261" lon="2.20071">
        <ele>180.909495</ele>
        <time>2023-01-04T16:34:05.126Z</time>
      </trkpt>
      <trkpt lat="43.26102" lon="2.20089">
        <ele>181.00653</ele>
        <time>2023-01-04T16:34:07.136Z</time>
      </trkpt>
      <trkpt lat="43.26103" lon="2.20106">
        <ele>181.102434</ele>
        <time>2023-01-04T16:34:09.113Z</time>
      </trkpt>
      <trkpt lat="43.26105" lon="2.20125">
        <ele>181.204838</ele>
        <time>2023-01-04T16:34:11.130Z</time>
      </trkpt>
      <trkpt lat="43.26107" lon="2.20143">
        <ele>181.304456</ele>
        <time>2023-01-04T16:34:13.121Z</time>
      </trkpt>
      <trkpt lat="43.26108" lon="2.20161">
        <ele>181.401272</ele>
        <time>2023-01-04T16:34:15.131Z</time>
      </trkpt>
      <trkpt lat="43.2611" lon="2.20178">
        <ele>181.495471</ele>
        <time>2023-01-04T16:34:17.128Z</time>
      </trkpt>
      <trkpt lat="43.26111" lon="2.20195">
        <ele>181.589487</ele>
        <time>2023-01-04T16:34:19.130Z</time>
      </trkpt>
      <trkpt lat="43.26113" lon="2.20211">
        <ele>181.679725</ele>
        <time>2023-01-04T16:34:21.120Z</time>
      </trkpt>
      <trkpt lat="43.26115" lon="2.2023">
        <ele>181.77942</ele>
        <time>2023-01-04T16:34:23.115Z</time>
      </trkpt>
      <trkpt lat="43.26116" lon="2.20247">
        <ele>181.877661</ele>
        <time>2023-01-04T16:34:25.134Z</time>
      </trkpt>
      <trkpt lat="43.26117" lon="2.20266">
        <ele>181.938517</ele>
        <time>2023-01-04T16:34:27.138Z</time>
      </trkpt>
      <trkpt lat="43.26118" lon="2.20283">
        <ele>181.957591</ele>
        <time>2023-01-04T16:34:29.140Z</time>
      </trkpt>
      <trkpt lat="43.26118" lon="2.20302">
        <ele>181.97753</ele>
        <time>2023-01-04T16:34:31.120Z</time>
      </trkpt>
      <trkpt lat="43.26119" lon="2.20321">
        <ele>181.998087</ele>
        <time>2023-01-04T16:34:33.121Z</time>
      </trkpt>
      <trkpt lat="43.2612" lon="2.20341">
        <ele>182.019107</ele>
        <time>2023-01-04T16:34:35.112Z</time>
      </trkpt>
      <trkpt lat="43.2612" lon="2.2036">
        <ele>182.039439</ele>
        <time>2023-01-04T16:34:37.134Z</time>
      </trkpt>
      <trkpt lat="43.2612" lon="2.2038">
        <ele>182.059991</ele>
        <time>2023-01-04T16:34:39.123Z</time>
      </trkpt>
      <trkpt lat="43.26121" lon="2.20399">
        <ele>182.080858</ele>
        <time>2023-01-04T16:34:41.139Z</time>
      </trkpt>
      <trkpt lat="43.26121" lon="2.20419">
        <ele>182.10162</ele>
        <time>2023-01-04T16:34:43.137Z</time>
      </trkpt>
      <trkpt lat="43.26121" lon="2.20438">
        <ele>182.122058</ele>
        <time>2023-01-04T16:34:45.138Z</time>
      </trkpt>
      <trkpt lat="43.26121" lon="2.20457">
        <ele>182.142071</ele>
        <time>2023-01-04T16:34:47.135Z</time>
      </trkpt>
      <trkpt lat="43.2612" lon="2.20476">
        <ele>182.162315</ele>
        <time>2023-01-04T16:34:49.130Z</time>
      </trkpt>
      <trkpt lat="43.2612" lon="2.20494">
        <ele>182.182352</ele>
        <time>2023-01-04T16:34:51.119Z</time>
      </trkpt>
      <trkpt lat="43.26119" lon="2.20513">
        <ele>182.159868</ele>
        <time>2023-01-04T16:34:53.137Z</time>
      </trkpt>
      <trkpt lat="43.26119" lon="2.20532">
        <ele>182.099151</ele>
        <time>2023-01-04T16:34:55.130Z</time>
      </trkpt>
      <trkpt lat="43.26118" lon="2.2055">
        <ele>182.039097</ele>
        <time>2023-01-04T16:34:57.112Z</time>
      </trkpt>
      <trkpt lat="43.26118" lon="2.20569">
        <ele>181.975632</ele>
        <time>2023-01-04T16:34:59.138Z</time>
      </trkpt>
      <trkpt lat="43.26117" lon="2.20588">
        <ele>181.912221</ele>
        <time>2023-01-04T16:35:01.114Z</time>
      </trkpt>
      <trkpt lat="43.26117" lon="2.20605">
        <ele>181.854173</ele>
        <time>2023-01-04T16:35:03.139Z</time>
      </trkpt>
      <trkpt lat="43.26118" lon="2.20624">
        <ele>181.791108</ele>
        <time>2023-01-04T16:35:05.138Z</time>
      </trkpt>
      <trkpt lat="43.26117" lon="2.20643">
        <ele>181.728376</ele>
        <time>2023-01-04T16:35:07.117Z</time>
      </trkpt>
      <trkpt lat="43.26118" lon="2.2066">
        <ele>181.669185</ele>
        <time>2023-01-04T16:35:09.120Z</time>
      </trkpt>
      <trkpt lat="43.26119" lon="2.20679">
        <ele>181.606075</ele>
        <time>2023-01-04T16:35:11.130Z</time>
      </trkpt>
      <trkpt lat="43.26119" lon="2.20698">
        <ele>181.541998</ele>
        <time>2023-01-04T16:35:13.117Z</time>
      </trkpt>
      <trkpt lat="43.2612" lon="2.20716">
        <ele>181.481699</ele>
        <time>2023-01-04T16:35:15.136Z</time>
      </trkpt>
      <trkpt lat="43.26121" lon="2.20735">
        <ele>181.420635</ele>
        <time>2023-01-04T16:35:17.116Z</time>
      </trkpt>
      <trkpt lat="43.26121" lon="2.20752">
        <ele>181.368432</ele>
        <time>2023-01-04T16:35:19.119Z</time>
      </trkpt>
      <trkpt lat="43.26122" lon="2.2077">
        <ele>181.370042</ele>
        <time>2023-01-04T16:35:21.153Z</time>
      </trkpt>
      <trkpt lat="43.26123" lon="2.20787">
        <ele>181.37163</ele>
        <time>2023-01-04T16:35:23.115Z</time>
      </trkpt>
      <trkpt lat="43.26123" lon="2.20803">
        <ele>181.373175</ele>
        <time>2023-01-04T16:35:25.135Z</time>
      </trkpt>
      <trkpt lat="43.26124" lon="2.20821">
        <ele>181.374795</ele>
        <time>2023-01-04T16:35:27.129Z</time>
      </trkpt>
      <trkpt lat="43.26125" lon="2.20838">
        <ele>181.376412</ele>
        <time>2023-01-04T16:35:29.130Z</time>
      </trkpt>
      <trkpt lat="43.26126" lon="2.20856">
        <ele>181.378064</ele>
        <time>2023-01-04T16:35:31.140Z</time>
      </trkpt>
      <trkpt lat="43.26128" lon="2.20873">
        <ele>181.379706</ele>
        <time>2023-01-04T16:35:33.118Z</time>
      </trkpt>
      <trkpt lat="43.2613" lon="2.20892">
        <ele>181.38145</ele>
        <time>2023-01-04T16:35:35.117Z</time>
      </trkpt>
      <trkpt lat="43.26131" lon="2.2091">
        <ele>181.383166</ele>
        <time>2023-01-04T16:35:37.123Z</time>
      </trkpt>
      <trkpt lat="43.26133" lon="2.20928">
        <ele>181.384881</ele>
        <time>2023-01-04T16:35:39.114Z</time>
      </trkpt>
      <trkpt lat="43.26135" lon="2.20947">
        <ele>181.386645</ele>
        <time>2023-01-04T16:35:41.139Z</time>
      </trkpt>
      <trkpt lat="43.26138" lon="2.20965">
        <ele>181.38837</ele>
        <time>2023-01-04T16:35:43.121Z</time>
      </trkpt>
      <trkpt lat="43.26139" lon="2.20984">
        <ele>181.390099</ele>
        <time>2023-01-04T16:35:45.121Z</time>
      </trkpt>
      <trkpt lat="43.2614" lon="2.21003">
        <ele>181.349626</ele>
        <time>2023-01-04T16:35:47.121Z</time>
      </trkpt>
      <trkpt lat="43.26142" lon="2.21022">
        <ele>181.234208</ele>
        <time>2023-01-04T16:35:49.118Z</time>
      </trkpt>
      <trkpt lat="43.26144" lon="2.21042">
        <ele>181.113125</ele>
        <time>2023-01-04T16:35:51.120Z</time>
      </trkpt>
      <trkpt lat="43.26146" lon="2.21063">
        <ele>180.986683</ele>
        <time>2023-01-04T16:35:53.138Z</time>
      </trkpt>
      <trkpt lat="43.26147" lon="2.21085">
        <ele>180.855149</ele>
        <time>2023-01-04T16:35:55.135Z</time>
      </trkpt>
      <trkpt lat="43.2615" lon="2.21106">
        <ele>180.722543</ele>
        <time>2023-01-04T16:35:57.119Z</time>
      </trkpt>
      <trkpt lat="43.26151" lon="2.21129">
        <ele>180.58895</ele>
        <time>2023-01-04T16:35:59.114Z</time>
      </trkpt>
      <trkpt lat="43.26153" lon="2.2115">
        <ele>180.459805</ele>
        <time>2023-01-04T16:36:01.136Z</time>
      </trkpt>
      <trkpt lat="43.26155" lon="2.21171">
        <ele>180.331673</ele>
        <time>2023-01-04T16:36:03.113Z</time>
      </trkpt>
      <trkpt lat="43.26156" lon="2.21192">
        <ele>180.203723</ele>
        <time>2023-01-04T16:36:05.111Z</time>
      </trkpt>
      <trkpt lat="43.26157" lon="2.21213">
        <ele>180.078082</ele>
        <time>2023-01-04T16:36:07.121Z</time>
      </trkpt>
      <trkpt lat="43.26158" lon="2.21234">
        <ele>179.951389</ele>
        <time>2023-01-04T16:36:09.112Z</time>
      </trkpt>
      <trkpt lat="43.26157" lon="2.21256">
        <ele>179.97182</ele>
        <time>2023-01-04T16:36:11.121Z</time>
      </trkpt>
      <trkpt lat="43.26156" lon="2.21276">
        <ele>180.06425</ele>
        <time>2023-01-04T16:36:13.117Z</time>
      </trkpt>
      <trkpt lat="43.26154" lon="2.21296">
        <ele>180.153296</ele>
        <time>2023-01-04T16:36:15.117Z</time>
      </trkpt>
      <trkpt lat="43.26154" lon="2.21314">
        <ele>180.234781</ele>
        <time>2023-01-04T16:36:17.123Z</time>
      </trkpt>
      <trkpt lat="43.26153" lon="2.21332">
        <ele>180.317256</ele>
        <time>2023-01-04T16:36:19.118Z</time>
      </trkpt>
      <trkpt lat="43.26153" lon="2.2135">
        <ele>180.396455</ele>
        <time>2023-01-04T16:36:21.118Z</time>
      </trkpt>
      <trkpt lat="43.26152" lon="2.21368">
        <ele>180.476649</ele>
        <time>2023-01-04T16:36:23.116Z</time>
      </trkpt>
      <trkpt lat="43.26151" lon="2.21385">
        <ele>180.556621</ele>
        <time>2023-01-04T16:36:25.119Z</time>
      </trkpt>
      <trkpt lat="43.26149" lon="2.21404">
        <ele>180.641033</ele>
        <time>2023-01-04T16:36:27.119Z</time>
      </trkpt>
      <trkpt lat="43.26147" lon="2.21422">
        <ele>180.724375</ele>
        <time>2023-01-04T16:36:29.118Z</time>
      </trkpt>
      <trkpt lat="43.26145" lon="2.2144">
        <ele>180.807254</ele>
        <time>2023-01-04T16:36:31.118Z</time>
      </trkpt>
      <trkpt lat="43.26143" lon="2.21459">
        <ele>180.890694</ele>
        <time>2023-01-04T16:36:33.130Z</time>
      </trkpt>
      <trkpt lat="43.26141" lon="2.21477">
        <ele>180.97537</ele>
        <time>2023-01-04T16:36:35.129Z</time>
      </trkpt>
      <trkpt lat="43.26139" lon="2.21495">
        <ele>181.111031</ele>
        <time>2023-01-04T16:36:37.140Z</time>
      </trkpt>
      <trkpt lat="43.26136" lon="2.21513">
        <ele>181.297179</ele>
        <time>2023-01-04T16:36:39.120Z</time>
      </trkpt>
      <trkpt lat="43.26134" lon="2.21529">
        <ele>181.473971</ele>
        <time>2023-01-04T16:36:41.108Z</time>
      </trkpt>
      <trkpt lat="43.26131" lon="2.21545">
        <ele>181.64887</ele>
        <time>2023-01-04T16:36:43.113Z</time>
      </trkpt>
      <trkpt lat="43.26129" lon="2.21561">
        <ele>181.822859</ele>
        <time>2023-01-04T16:36:45.121Z</time>
      </trkpt>
      <trkpt lat="43.26127" lon="2.21577">
        <ele>181.994915</ele>
        <time>2023-01-04T16:36:47.114Z</time>
      </trkpt>
      <trkpt lat="43.26125" lon="2.21592">
        <ele>182.153368</ele>
        <time>2023-01-04T16:36:49.115Z</time>
      </trkpt>
      <trkpt lat="43.26123" lon="2.21607">
        <ele>182.320779</ele>
        <time>2023-01-04T16:36:51.132Z</time>
      </trkpt>
      <trkpt lat="43.26121" lon="2.21624">
        <ele>182.49716</ele>
        <time>2023-01-04T16:36:53.121Z</time>
      </trkpt>
      <trkpt lat="43.26118" lon="2.21641">
        <ele>182.68331</ele>
        <time>2023-01-04T16:36:55.130Z</time>
      </trkpt>
      <trkpt lat="43.26115" lon="2.21659">
        <ele>182.875989</ele>
        <time>2023-01-04T16:36:57.117Z</time>
      </trkpt>
      <trkpt lat="43.26113" lon="2.21675">
        <ele>183.053763</ele>
        <time>2023-01-04T16:36:59.128Z</time>
      </trkpt>
      <trkpt lat="43.26111" lon="2.21692">
        <ele>183.237832</ele>
        <time>2023-01-04T16:37:01.117Z</time>
      </trkpt>
      <trkpt lat="43.26109" lon="2.2171">
        <ele>183.425521</ele>
        <time>2023-01-04T16:37:03.118Z</time>
      </trkpt>
      <trkpt lat="43.26106" lon="2.21727">
        <ele>183.611391</ele>
        <time>2023-01-04T16:37:05.129Z</time>
      </trkpt>
      <trkpt lat="43.26104" lon="2.21744">
        <ele>183.529944</ele>
        <time>2023-01-04T16:37:07.115Z</time>
      </trkpt>
      <trkpt lat="43.26101" lon="2.21761">
        <ele>183.393725</ele>
        <time>2023-01-04T16:37:09.114Z</time>
      </trkpt>
      <trkpt lat="43.26098" lon="2.21777">
        <ele>183.264058</ele>
        <time>2023-01-04T16:37:11.128Z</time>
      </trkpt>
      <trkpt lat="43.26097" lon="2.21794">
        <ele>183.13203</ele>
        <time>2023-01-04T16:37:13.116Z</time>
      </trkpt>
      <trkpt lat="43.26095" lon="2.21809">
        <ele>183.012692</ele>
        <time>2023-01-04T16:37:15.122Z</time>
      </trkpt>
      <trkpt lat="43.26094" lon="2.21824">
        <ele>182.895653</ele>
        <time>2023-01-04T16:37:17.113Z</time>
      </trkpt>
      <trkpt lat="43.26092" lon="2.2184">
        <ele>182.775849</ele>
        <time>2023-01-04T16:37:19.119Z</time>
      </trkpt>
      <trkpt lat="43.2609" lon="2.21854">
        <ele>182.663683</ele>
        <time>2023-01-04T16:37:21.135Z</time>
      </trkpt>
      <trkpt lat="43.26089" lon="2.21869">
        <ele>182.548448</ele>
        <time>2023-01-04T16:37:23.138Z</time>
      </trkpt>
      <trkpt lat="43.26087" lon="2.21884">
        <ele>182.427881</ele>
        <time>2023-01-04T16:37:25.114Z</time>
      </trkpt>
      <trkpt lat="43.26086" lon="2.21901">
        <ele>182.298147</ele>
        <time>2023-01-04T16:37:27.120Z</time>
      </trkpt>
      <trkpt lat="43.26083" lon="2.21918">
        <ele>182.162425</ele>
        <time>2023-01-04T16:37:29.119Z</time>
      </trkpt>
      <trkpt lat="43.2608" lon="2.21935">
        <ele>182.027168</ele>
        <time>2023-01-04T16:37:31.117Z</time>
      </trkpt>
      <trkpt lat="43.26078" lon="2.21952">
        <ele>181.892748</ele>
        <time>2023-01-04T16:37:33.139Z</time>
      </trkpt>
      <trkpt lat="43.26076" lon="2.2197">
        <ele>181.749541</ele>
        <time>2023-01-04T16:37:35.116Z</time>
      </trkpt>
      <trkpt lat="43.26073" lon="2.21988">
        <ele>181.762483</ele>
        <time>2023-01-04T16:37:37.122Z</time>
      </trkpt>
      <trkpt lat="43.2607" lon="2.22007">
        <ele>181.799535</ele>
        <time>2023-01-04T16:37:39.139Z</time>
      </trkpt>
      <trkpt lat="43.26068" lon="2.22026">
        <ele>181.837837</ele>
        <time>2023-01-04T16:37:41.116Z</time>
      </trkpt>
      <trkpt lat="43.26065" lon="2.22045">
        <ele>181.875466</ele>
        <time>2023-01-04T16:37:43.126Z</time>
      </trkpt>
      <trkpt lat="43.26062" lon="2.22064">
        <ele>181.913781</ele>
        <time>2023-01-04T16:37:45.135Z</time>
      </trkpt>
      <trkpt lat="43.2606" lon="2.22084">
        <ele>181.953392</ele>
        <time>2023-01-04T16:37:47.138Z</time>
      </trkpt>
      <trkpt lat="43.26058" lon="2.22102">
        <ele>181.990702</ele>
        <time>2023-01-04T16:37:49.114Z</time>
      </trkpt>
      <trkpt lat="43.26055" lon="2.22122">
        <ele>182.030313</ele>
        <time>2023-01-04T16:37:51.124Z</time>
      </trkpt>
      <trkpt lat="43.26053" lon="2.22142">
        <ele>182.069099</ele>
        <time>2023-01-04T16:37:53.138Z</time>
      </trkpt>
      <trkpt lat="43.2605" lon="2.22161">
        <ele>182.106922</ele>
        <time>2023-01-04T16:37:55.120Z</time>
      </trkpt>
      <trkpt lat="43.26048" lon="2.2218">
        <ele>182.146102</ele>
        <time>2023-01-04T16:37:57.139Z</time>
      </trkpt>
      <trkpt lat="43.26046" lon="2.22199">
        <ele>182.183995</ele>
        <time>2023-01-04T16:37:59.139Z</time>
      </trkpt>
      <trkpt lat="43.26043" lon="2.22218">
        <ele>182.221039</ele>
        <time>2023-01-04T16:38:01.141Z</time>
      </trkpt>
      <trkpt lat="43.26041" lon="2.22238">
        <ele>182.252689</ele>
        <time>2023-01-04T16:38:03.120Z</time>
      </trkpt>
      <trkpt lat="43.26037" lon="2.22257">
        <ele>182.283527</ele>
        <time>2023-01-04T16:38:05.119Z</time>
      </trkpt>
      <trkpt lat="43.26034" lon="2.22275">
        <ele>182.31344</ele>
        <time>2023-01-04T16:38:07.118Z</time>
      </trkpt>
      <trkpt lat="43.26031" lon="2.22292">
        <ele>182.3413</ele>
        <time>2023-01-04T16:38:09.114Z</time>
      </trkpt>
      <trkpt lat="43.26028" lon="2.22309">
        <ele>182.368506</ele>
        <time>2023-01-04T16:38:11.110Z</time>
      </trkpt>
      <trkpt lat="43.26026" lon="2.22325">
        <ele>182.39399</ele>
        <time>2023-01-04T16:38:13.137Z</time>
      </trkpt>
      <trkpt lat="43.26024" lon="2.22341">
        <ele>182.419678</ele>
        <time>2023-01-04T16:38:15.120Z</time>
      </trkpt>
      <trkpt lat="43.26023" lon="2.22356">
        <ele>182.443889</ele>
        <time>2023-01-04T16:38:17.113Z</time>
      </trkpt>
      <trkpt lat="43.26021" lon="2.22371">
        <ele>182.468166</ele>
        <time>2023-01-04T16:38:19.137Z</time>
      </trkpt>
      <trkpt lat="43.2602" lon="2.22386">
        <ele>182.49175</ele>
        <time>2023-01-04T16:38:21.114Z</time>
      </trkpt>
      <trkpt lat="43.26019" lon="2.224">
        <ele>182.514589</ele>
        <time>2023-01-04T16:38:23.112Z</time>
      </trkpt>
      <trkpt lat="43.26018" lon="2.22415">
        <ele>182.538628</ele>
        <time>2023-01-04T16:38:25.111Z</time>
      </trkpt>
      <trkpt lat="43.26017" lon="2.22432">
        <ele>182.564582</ele>
        <time>2023-01-04T16:38:27.120Z</time>
      </trkpt>
      <trkpt lat="43.26016" lon="2.22448">
        <ele>182.590504</ele>
        <time>2023-01-04T16:38:29.138Z</time>
      </trkpt>
      <trkpt lat="43.26016" lon="2.22464">
        <ele>182.438192</ele>
        <time>2023-01-04T16:38:31.125Z</time>
      </trkpt>
      <trkpt lat="43.26015" lon="2.22482">
        <ele>181.80744</ele>
        <time>2023-01-04T16:38:33.136Z</time>
      </trkpt>
      <trkpt lat="43.26016" lon="2.22499">
        <ele>181.183718</ele>
        <time>2023-01-04T16:38:35.138Z</time>
      </trkpt>
      <trkpt lat="43.26016" lon="2.22518">
        <ele>180.531644</ele>
        <time>2023-01-04T16:38:37.138Z</time>
      </trkpt>
      <trkpt lat="43.26016" lon="2.22536">
        <ele>179.865319</ele>
        <time>2023-01-04T16:38:39.140Z</time>
      </trkpt>
      <trkpt lat="43.26015" lon="2.22557">
        <ele>179.120044</ele>
        <time>2023-01-04T16:38:41.128Z</time>
      </trkpt>
      <trkpt lat="43.26014" lon="2.22579">
        <ele>178.333957</ele>
        <time>2023-01-04T16:38:43.120Z</time>
      </trkpt>
      <trkpt lat="43.26013" lon="2.22601">
        <ele>177.556806</ele>
        <time>2023-01-04T16:38:45.151Z</time>
      </trkpt>
      <trkpt lat="43.26013" lon="2.22624">
        <ele>176.74744</ele>
        <time>2023-01-04T16:38:47.138Z</time>
      </trkpt>
      <trkpt lat="43.26013" lon="2.22646">
        <ele>175.952724</ele>
        <time>2023-01-04T16:38:49.135Z</time>
      </trkpt>
      <trkpt lat="43.26011" lon="2.22669">
        <ele>175.12788</ele>
        <time>2023-01-04T16:38:51.136Z</time>
      </trkpt>
      <trkpt lat="43.26011" lon="2.22692">
        <ele>174.293587</ele>
        <time>2023-01-04T16:38:53.137Z</time>
      </trkpt>
      <trkpt lat="43.2601" lon="2.22716">
        <ele>173.55225</ele>
        <time>2023-01-04T16:38:55.148Z</time>
      </trkpt>
      <trkpt lat="43.26009" lon="2.22739">
        <ele>172.949033</ele>
        <time>2023-01-04T16:38:57.136Z</time>
      </trkpt>
      <trkpt lat="43.26008" lon="2.22761">
        <ele>172.347891</ele>
        <time>2023-01-04T16:38:59.122Z</time>
      </trkpt>
      <trkpt lat="43.26007" lon="2.22782">
        <ele>171.808271</ele>
        <time>2023-01-04T16:39:01.117Z</time>
      </trkpt>
      <trkpt lat="43.26005" lon="2.228">
        <ele>171.323189</ele>
        <time>2023-01-04T16:39:03.118Z</time>
      </trkpt>
      <trkpt lat="43.26005" lon="2.22816">
        <ele>170.912483</ele>
        <time>2023-01-04T16:39:05.137Z</time>
      </trkpt>
      <trkpt lat="43.26004" lon="2.22829">
        <ele>170.575532</ele>
        <time>2023-01-04T16:39:07.137Z</time>
      </trkpt>
      <trkpt lat="43.26005" lon="2.22841">
        <ele>170.240803</ele>
        <time>2023-01-04T16:39:10.111Z</time>
      </trkpt>
      <trkpt lat="43.26008" lon="2.22855">
        <ele>169.870748</ele>
        <time>2023-01-04T16:44:31.150Z</time>
      </trkpt>
      <trkpt lat="43.26007" lon="2.22871">
        <ele>169.444379</ele>
        <time>2023-01-04T16:44:35.138Z</time>
      </trkpt>
      <trkpt lat="43.26008" lon="2.22885">
        <ele>169.070643</ele>
        <time>2023-01-04T16:44:38.117Z</time>
      </trkpt>
      <trkpt lat="43.26007" lon="2.22902">
        <ele>168.625338</ele>
        <time>2023-01-04T16:44:41.131Z</time>
      </trkpt>
      <trkpt lat="43.26006" lon="2.22915">
        <ele>168.284604</ele>
        <time>2023-01-04T16:44:43.120Z</time>
      </trkpt>
      <trkpt lat="43.26005" lon="2.22928">
        <ele>167.949115</ele>
        <time>2023-01-04T16:44:45.112Z</time>
      </trkpt>
      <trkpt lat="43.26005" lon="2.22941">
        <ele>167.598412</ele>
        <time>2023-01-04T16:44:47.124Z</time>
      </trkpt>
      <trkpt lat="43.26004" lon="2.22955">
        <ele>167.350723</ele>
        <time>2023-01-04T16:44:49.121Z</time>
      </trkpt>
      <trkpt lat="43.26003" lon="2.22969">
        <ele>167.566273</ele>
        <time>2023-01-04T16:44:51.116Z</time>
      </trkpt>
      <trkpt lat="43.26003" lon="2.22983">
        <ele>167.785981</ele>
        <time>2023-01-04T16:44:53.119Z</time>
      </trkpt>
      <trkpt lat="43.26002" lon="2.22997">
        <ele>168.004228</ele>
        <time>2023-01-04T16:44:55.129Z</time>
      </trkpt>
      <trkpt lat="43.26003" lon="2.23011">
        <ele>168.22238</ele>
        <time>2023-01-04T16:44:57.120Z</time>
      </trkpt>
      <trkpt lat="43.26003" lon="2.23025">
        <ele>168.446603</ele>
        <time>2023-01-04T16:44:59.123Z</time>
      </trkpt>
      <trkpt lat="43.26002" lon="2.2304">
        <ele>168.674573</ele>
        <time>2023-01-04T16:45:01.116Z</time>
      </trkpt>
      <trkpt lat="43.26001" lon="2.23054">
        <ele>168.905371</ele>
        <time>2023-01-04T16:45:03.123Z</time>
      </trkpt>
      <trkpt lat="43.26001" lon="2.23069">
        <ele>169.128037</ele>
        <time>2023-01-04T16:45:05.138Z</time>
      </trkpt>
      <trkpt lat="43.26001" lon="2.23083">
        <ele>169.355404</ele>
        <time>2023-01-04T16:45:07.116Z</time>
      </trkpt>
      <trkpt lat="43.26" lon="2.23099">
        <ele>169.60175</ele>
        <time>2023-01-04T16:45:09.133Z</time>
      </trkpt>
      <trkpt lat="43.26" lon="2.23115">
        <ele>169.843128</ele>
        <time>2023-01-04T16:45:11.117Z</time>
      </trkpt>
      <trkpt lat="43.26" lon="2.23129">
        <ele>170.068989</ele>
        <time>2023-01-04T16:45:13.123Z</time>
      </trkpt>
      <trkpt lat="43.26" lon="2.23145">
        <ele>170.315038</ele>
        <time>2023-01-04T16:45:15.124Z</time>
      </trkpt>
      <trkpt lat="43.25999" lon="2.2316">
        <ele>170.544082</ele>
        <time>2023-01-04T16:45:17.124Z</time>
      </trkpt>
      <trkpt lat="43.25999" lon="2.23174">
        <ele>170.773215</ele>
        <time>2023-01-04T16:45:19.120Z</time>
      </trkpt>
      <trkpt lat="43.25998" lon="2.23189">
        <ele>170.996035</ele>
        <time>2023-01-04T16:45:21.120Z</time>
      </trkpt>
      <trkpt lat="43.25998" lon="2.23204">
        <ele>171.181891</ele>
        <time>2023-01-04T16:45:23.115Z</time>
      </trkpt>
      <trkpt lat="43.25998" lon="2.2322">
        <ele>171.276144</ele>
        <time>2023-01-04T16:45:25.119Z</time>
      </trkpt>
      <trkpt lat="43.25997" lon="2.23236">
        <ele>171.371608</ele>
        <time>2023-01-04T16:45:27.117Z</time>
      </trkpt>
      <trkpt lat="43.25997" lon="2.23252">
        <ele>171.46292</ele>
        <time>2023-01-04T16:45:29.111Z</time>
      </trkpt>
      <trkpt lat="43.25997" lon="2.23267">
        <ele>171.553661</ele>
        <time>2023-01-04T16:45:31.117Z</time>
      </trkpt>
      <trkpt lat="43.25997" lon="2.23284">
        <ele>171.650362</ele>
        <time>2023-01-04T16:45:33.116Z</time>
      </trkpt>
      <trkpt lat="43.25997" lon="2.23299">
        <ele>171.741089</ele>
        <time>2023-01-04T16:45:35.125Z</time>
      </trkpt>
      <trkpt lat="43.25996" lon="2.23316">
        <ele>171.841195</ele>
        <time>2023-01-04T16:45:37.118Z</time>
      </trkpt>
      <trkpt lat="43.25996" lon="2.23333">
        <ele>171.939561</ele>
        <time>2023-01-04T16:45:39.127Z</time>
      </trkpt>
      <trkpt lat="43.25996" lon="2.23348">
        <ele>172.025609</ele>
        <time>2023-01-04T16:45:41.122Z</time>
      </trkpt>
      <trkpt lat="43.25996" lon="2.23363">
        <ele>172.112917</ele>
        <time>2023-01-04T16:45:43.121Z</time>
      </trkpt>
      <trkpt lat="43.25995" lon="2.23378">
        <ele>172.200732</ele>
        <time>2023-01-04T16:45:45.122Z</time>
      </trkpt>
      <trkpt lat="43.25995" lon="2.23391">
        <ele>172.282098</ele>
        <time>2023-01-04T16:45:47.117Z</time>
      </trkpt>
      <trkpt lat="43.25996" lon="2.23406">
        <ele>172.369317</ele>
        <time>2023-01-04T16:45:49.115Z</time>
      </trkpt>
      <trkpt lat="43.25995" lon="2.23421">
        <ele>172.453035</ele>
        <time>2023-01-04T16:45:51.131Z</time>
      </trkpt>
      <trkpt lat="43.25996" lon="2.23433">
        <ele>172.527975</ele>
        <time>2023-01-04T16:45:53.123Z</time>
      </trkpt>
      <trkpt lat="43.25995" lon="2.23447">
        <ele>172.629686</ele>
        <time>2023-01-04T16:45:55.117Z</time>
      </trkpt>
      <trkpt lat="43.25995" lon="2.2346">
        <ele>172.890148</ele>
        <time>2023-01-04T16:45:57.121Z</time>
      </trkpt>
      <trkpt lat="43.25996" lon="2.23477">
        <ele>173.238742</ele>
        <time>2023-01-04T16:46:00.124Z</time>
      </trkpt>
      <trkpt lat="43.25995" lon="2.23489">
        <ele>173.490791</ele>
        <time>2023-01-04T16:46:02.115Z</time>
      </trkpt>
      <trkpt lat="43.25995" lon="2.23507">
        <ele>173.856351</ele>
        <time>2023-01-04T16:46:05.121Z</time>
      </trkpt>
      <trkpt lat="43.25995" lon="2.23525">
        <ele>174.216167</ele>
        <time>2023-01-04T16:46:08.121Z</time>
      </trkpt>
      <trkpt lat="43.25994" lon="2.23542">
        <ele>174.565984</ele>
        <time>2023-01-04T16:46:11.116Z</time>
      </trkpt>
      <trkpt lat="43.25993" lon="2.23559">
        <ele>174.897404</ele>
        <time>2023-01-04T16:46:14.133Z</time>
      </trkpt>
      <trkpt lat="43.25993" lon="2.23574">
        <ele>175.204844</ele>
        <time>2023-01-04T16:46:17.123Z</time>
      </trkpt>
      <trkpt lat="43.25992" lon="2.23589">
        <ele>175.516334</ele>
        <time>2023-01-04T16:46:20.132Z</time>
      </trkpt>
      <trkpt lat="43.25991" lon="2.23605">
        <ele>175.836134</ele>
        <time>2023-01-04T16:46:23.128Z</time>
      </trkpt>
      <trkpt lat="43.2599" lon="2.23618">
        <ele>176.115463</ele>
        <time>2023-01-04T16:46:26.124Z</time>
      </trkpt>
      <trkpt lat="43.25989" lon="2.23631">
        <ele>176.370045</ele>
        <time>2023-01-04T16:46:35.113Z</time>
      </trkpt>
      <trkpt lat="43.25989" lon="2.23645">
        <ele>176.658452</ele>
        <time>2023-01-04T16:46:39.123Z</time>
      </trkpt>
      <trkpt lat="43.25989" lon="2.23659">
        <ele>176.936667</ele>
        <time>2023-01-04T16:46:42.123Z</time>
      </trkpt>
      <trkpt lat="43.25989" lon="2.23675">
        <ele>177.265928</ele>
        <time>2023-01-04T16:46:45.118Z</time>
      </trkpt>
      <trkpt lat="43.25988" lon="2.23693">
        <ele>177.616339</ele>
        <time>2023-01-04T16:46:48.112Z</time>
      </trkpt>
      <trkpt lat="43.25986" lon="2.23705">
        <ele>177.673445</ele>
        <time>2023-01-04T16:46:50.128Z</time>
      </trkpt>
      <trkpt lat="43.25986" lon="2.23718">
        <ele>177.731334</ele>
        <time>2023-01-04T16:46:52.126Z</time>
      </trkpt>
      <trkpt lat="43.25985" lon="2.23731">
        <ele>177.790179</ele>
        <time>2023-01-04T16:46:54.123Z</time>
      </trkpt>
      <trkpt lat="43.25985" lon="2.23743">
        <ele>177.847165</ele>
        <time>2023-01-04T16:46:56.116Z</time>
      </trkpt>
      <trkpt lat="43.25985" lon="2.23757">
        <ele>177.907748</ele>
        <time>2023-01-04T16:46:58.114Z</time>
      </trkpt>
      <trkpt lat="43.25984" lon="2.2377">
        <ele>177.967677</ele>
        <time>2023-01-04T16:47:00.127Z</time>
      </trkpt>
      <trkpt lat="43.25984" lon="2.23784">
        <ele>178.030511</ele>
        <time>2023-01-04T16:47:02.110Z</time>
      </trkpt>
      <trkpt lat="43.25983" lon="2.23799">
        <ele>178.097643</ele>
        <time>2023-01-04T16:47:04.128Z</time>
      </trkpt>
      <trkpt lat="43.25982" lon="2.23814">
        <ele>178.167028</ele>
        <time>2023-01-04T16:47:06.128Z</time>
      </trkpt>
      <trkpt lat="43.25981" lon="2.23829">
        <ele>178.237424</ele>
        <time>2023-01-04T16:47:08.122Z</time>
      </trkpt>
      <trkpt lat="43.2598" lon="2.23845">
        <ele>178.307663</ele>
        <time>2023-01-04T16:47:10.122Z</time>
      </trkpt>
      <trkpt lat="43.25979" lon="2.23861">
        <ele>178.379858</ele>
        <time>2023-01-04T16:47:12.124Z</time>
      </trkpt>
      <trkpt lat="43.25978" lon="2.23877">
        <ele>178.453464</ele>
        <time>2023-01-04T16:47:14.128Z</time>
      </trkpt>
      <trkpt lat="43.25976" lon="2.23894">
        <ele>178.529686</ele>
        <time>2023-01-04T16:47:16.114Z</time>
      </trkpt>
      <trkpt lat="43.25974" lon="2.2391">
        <ele>178.602622</ele>
        <time>2023-01-04T16:47:18.124Z</time>
      </trkpt>
      <trkpt lat="43.25972" lon="2.23926">
        <ele>178.680016</ele>
        <time>2023-01-04T16:47:20.118Z</time>
      </trkpt>
      <trkpt lat="43.2597" lon="2.23944">
        <ele>178.759222</ele>
        <time>2023-01-04T16:47:22.113Z</time>
      </trkpt>
      <trkpt lat="43.25968" lon="2.23962">
        <ele>178.836291</ele>
        <time>2023-01-04T16:47:24.121Z</time>
      </trkpt>
      <trkpt lat="43.25967" lon="2.23978">
        <ele>178.906169</ele>
        <time>2023-01-04T16:47:26.136Z</time>
      </trkpt>
      <trkpt lat="43.25964" lon="2.23995">
        <ele>178.984155</ele>
        <time>2023-01-04T16:47:28.133Z</time>
      </trkpt>
      <trkpt lat="43.25961" lon="2.24013">
        <ele>179.063432</ele>
        <time>2023-01-04T16:47:30.125Z</time>
      </trkpt>
      <trkpt lat="43.25959" lon="2.24031">
        <ele>179.142822</ele>
        <time>2023-01-04T16:47:32.134Z</time>
      </trkpt>
      <trkpt lat="43.25957" lon="2.24049">
        <ele>179.219957</ele>
        <time>2023-01-04T16:47:34.124Z</time>
      </trkpt>
      <trkpt lat="43.25955" lon="2.24067">
        <ele>179.2984</ele>
        <time>2023-01-04T16:47:36.135Z</time>
      </trkpt>
      <trkpt lat="43.25952" lon="2.24083">
        <ele>179.368859</ele>
        <time>2023-01-04T16:47:38.137Z</time>
      </trkpt>
      <trkpt lat="43.2595" lon="2.241">
        <ele>179.445072</ele>
        <time>2023-01-04T16:47:40.136Z</time>
      </trkpt>
      <trkpt lat="43.25948" lon="2.24119">
        <ele>179.526695</ele>
        <time>2023-01-04T16:47:42.133Z</time>
      </trkpt>
      <trkpt lat="43.25946" lon="2.24137">
        <ele>179.608416</ele>
        <time>2023-01-04T16:47:44.125Z</time>
      </trkpt>
      <trkpt lat="43.25943" lon="2.24155">
        <ele>179.687149</ele>
        <time>2023-01-04T16:47:46.137Z</time>
      </trkpt>
      <trkpt lat="43.25941" lon="2.24174">
        <ele>179.770152</ele>
        <time>2023-01-04T16:47:48.126Z</time>
      </trkpt>
      <trkpt lat="43.25939" lon="2.24193">
        <ele>179.736216</ele>
        <time>2023-01-04T16:47:50.126Z</time>
      </trkpt>
      <trkpt lat="43.25937" lon="2.24211">
        <ele>179.632249</ele>
        <time>2023-01-04T16:47:52.138Z</time>
      </trkpt>
      <trkpt lat="43.25935" lon="2.24229">
        <ele>179.529866</ele>
        <time>2023-01-04T16:47:54.118Z</time>
      </trkpt>
      <trkpt lat="43.25933" lon="2.24248">
        <ele>179.428031</ele>
        <time>2023-01-04T16:47:56.138Z</time>
      </trkpt>
      <trkpt lat="43.25931" lon="2.24265">
        <ele>179.329476</ele>
        <time>2023-01-04T16:47:58.140Z</time>
      </trkpt>
      <trkpt lat="43.25929" lon="2.24282">
        <ele>179.237598</ele>
        <time>2023-01-04T16:48:00.117Z</time>
      </trkpt>
      <trkpt lat="43.25926" lon="2.24298">
        <ele>179.145334</ele>
        <time>2023-01-04T16:48:02.115Z</time>
      </trkpt>
      <trkpt lat="43.25925" lon="2.24313">
        <ele>179.059815</ele>
        <time>2023-01-04T16:48:04.114Z</time>
      </trkpt>
      <trkpt lat="43.25923" lon="2.24329">
        <ele>178.974184</ele>
        <time>2023-01-04T16:48:06.141Z</time>
      </trkpt>
      <trkpt lat="43.25922" lon="2.24343">
        <ele>178.890855</ele>
        <time>2023-01-04T16:48:08.114Z</time>
      </trkpt>
      <trkpt lat="43.2592" lon="2.24358">
        <ele>178.807525</ele>
        <time>2023-01-04T16:48:10.127Z</time>
      </trkpt>
      <trkpt lat="43.25919" lon="2.24373">
        <ele>178.725596</ele>
        <time>2023-01-04T16:48:12.128Z</time>
      </trkpt>
      <trkpt lat="43.25917" lon="2.24388">
        <ele>178.64028</ele>
        <time>2023-01-04T16:48:14.135Z</time>
      </trkpt>
      <trkpt lat="43.25916" lon="2.24404">
        <ele>178.552671</ele>
        <time>2023-01-04T16:48:16.117Z</time>
      </trkpt>
      <trkpt lat="43.25914" lon="2.2442">
        <ele>178.466159</ele>
        <time>2023-01-04T16:48:18.127Z</time>
      </trkpt>
      <trkpt lat="43.25913" lon="2.24435">
        <ele>178.40599</ele>
        <time>2023-01-04T16:48:20.123Z</time>
      </trkpt>
      <trkpt lat="43.25912" lon="2.24452">
        <ele>178.359814</ele>
        <time>2023-01-04T16:48:22.127Z</time>
      </trkpt>
      <trkpt lat="43.25911" lon="2.24469">
        <ele>178.312565</ele>
        <time>2023-01-04T16:48:24.124Z</time>
      </trkpt>
      <trkpt lat="43.2591" lon="2.24487">
        <ele>178.262749</ele>
        <time>2023-01-04T16:48:26.121Z</time>
      </trkpt>
      <trkpt lat="43.25909" lon="2.24503">
        <ele>178.216395</ele>
        <time>2023-01-04T16:48:28.114Z</time>
      </trkpt>
      <trkpt lat="43.25908" lon="2.24521">
        <ele>178.168037</ele>
        <time>2023-01-04T16:48:30.113Z</time>
      </trkpt>
      <trkpt lat="43.25907" lon="2.24537">
        <ele>178.122516</ele>
        <time>2023-01-04T16:48:32.117Z</time>
      </trkpt>
      <trkpt lat="43.25906" lon="2.24553">
        <ele>178.078134</ele>
        <time>2023-01-04T16:48:34.132Z</time>
      </trkpt>
      <trkpt lat="43.25905" lon="2.24569">
        <ele>178.032027</ele>
        <time>2023-01-04T16:48:36.128Z</time>
      </trkpt>
      <trkpt lat="43.25904" lon="2.24587">
        <ele>177.982211</ele>
        <time>2023-01-04T16:48:38.137Z</time>
      </trkpt>
      <trkpt lat="43.25902" lon="2.24604">
        <ele>177.935165</ele>
        <time>2023-01-04T16:48:40.130Z</time>
      </trkpt>
      <trkpt lat="43.25902" lon="2.24621">
        <ele>177.887786</ele>
        <time>2023-01-04T16:48:42.138Z</time>
      </trkpt>
      <trkpt lat="43.25901" lon="2.24638">
        <ele>177.839598</ele>
        <time>2023-01-04T16:48:44.135Z</time>
      </trkpt>
      <trkpt lat="43.259" lon="2.24657">
        <ele>177.788187</ele>
        <time>2023-01-04T16:48:46.127Z</time>
      </trkpt>
      <trkpt lat="43.259" lon="2.24675">
        <ele>177.72371</ele>
        <time>2023-01-04T16:48:48.122Z</time>
      </trkpt>
      <trkpt lat="43.25899" lon="2.24694">
        <ele>177.585877</ele>
        <time>2023-01-04T16:48:50.113Z</time>
      </trkpt>
      <trkpt lat="43.25899" lon="2.24712">
        <ele>177.4583</ele>
        <time>2023-01-04T16:48:52.122Z</time>
      </trkpt>
      <trkpt lat="43.25899" lon="2.2473">
        <ele>177.32853</ele>
        <time>2023-01-04T16:48:54.140Z</time>
      </trkpt>
      <trkpt lat="43.25898" lon="2.24748">
        <ele>177.203746</ele>
        <time>2023-01-04T16:48:56.136Z</time>
      </trkpt>
      <trkpt lat="43.25897" lon="2.24763">
        <ele>177.090309</ele>
        <time>2023-01-04T16:48:58.131Z</time>
      </trkpt>
      <trkpt lat="43.25896" lon="2.24779">
        <ele>176.977278</ele>
        <time>2023-01-04T16:49:00.114Z</time>
      </trkpt>
      <trkpt lat="43.25896" lon="2.24793">
        <ele>176.87532</ele>
        <time>2023-01-04T16:49:02.118Z</time>
      </trkpt>
      <trkpt lat="43.25895" lon="2.24808">
        <ele>176.772022</ele>
        <time>2023-01-04T16:49:04.138Z</time>
      </trkpt>
      <trkpt lat="43.25893" lon="2.24822">
        <ele>176.670139</ele>
        <time>2023-01-04T16:49:06.138Z</time>
      </trkpt>
      <trkpt lat="43.25892" lon="2.24836">
        <ele>176.57201</ele>
        <time>2023-01-04T16:49:08.131Z</time>
      </trkpt>
      <trkpt lat="43.25891" lon="2.24849">
        <ele>176.474825</ele>
        <time>2023-01-04T16:49:10.147Z</time>
      </trkpt>
      <trkpt lat="43.25889" lon="2.24862">
        <ele>176.380624</ele>
        <time>2023-01-04T16:49:12.118Z</time>
      </trkpt>
      <trkpt lat="43.25884" lon="2.24875">
        <ele>176.277185</ele>
        <time>2023-01-04T16:49:14.134Z</time>
      </trkpt>
      <trkpt lat="43.25878" lon="2.24888">
        <ele>176.170347</ele>
        <time>2023-01-04T16:49:16.140Z</time>
      </trkpt>
      <trkpt lat="43.25877" lon="2.24903">
        <ele>176.063144</ele>
        <time>2023-01-04T16:49:18.116Z</time>
      </trkpt>
      <trkpt lat="43.25877" lon="2.24918">
        <ele>175.999731</ele>
        <time>2023-01-04T16:49:20.131Z</time>
      </trkpt>
      <trkpt lat="43.25877" lon="2.24933">
        <ele>176.043794</ele>
        <time>2023-01-04T16:49:22.117Z</time>
      </trkpt>
      <trkpt lat="43.25874" lon="2.24948">
        <ele>176.090145</ele>
        <time>2023-01-04T16:49:24.115Z</time>
      </trkpt>
      <trkpt lat="43.2587" lon="2.24964">
        <ele>176.139933</ele>
        <time>2023-01-04T16:49:26.142Z</time>
      </trkpt>
      <trkpt lat="43.25866" lon="2.24981">
        <ele>176.1925</ele>
        <time>2023-01-04T16:49:28.117Z</time>
      </trkpt>
      <trkpt lat="43.25861" lon="2.24998">
        <ele>176.244946</ele>
        <time>2023-01-04T16:49:30.124Z</time>
      </trkpt>
      <trkpt lat="43.25856" lon="2.25015">
        <ele>176.300295</ele>
        <time>2023-01-04T16:49:32.121Z</time>
      </trkpt>
      <trkpt lat="43.25851" lon="2.25033">
        <ele>176.355136</ele>
        <time>2023-01-04T16:49:34.121Z</time>
      </trkpt>
      <trkpt lat="43.25846" lon="2.2505">
        <ele>176.410758</ele>
        <time>2023-01-04T16:49:36.113Z</time>
      </trkpt>
      <trkpt lat="43.2584" lon="2.25067">
        <ele>176.4656</ele>
        <time>2023-01-04T16:49:38.120Z</time>
      </trkpt>
      <trkpt lat="43.25836" lon="2.25085">
        <ele>176.521474</ele>
        <time>2023-01-04T16:49:40.116Z</time>
      </trkpt>
      <trkpt lat="43.25831" lon="2.25103">
        <ele>176.577489</ele>
        <time>2023-01-04T16:49:42.134Z</time>
      </trkpt>
      <trkpt lat="43.25827" lon="2.25122">
        <ele>176.63365</ele>
        <time>2023-01-04T16:49:44.120Z</time>
      </trkpt>
      <trkpt lat="43.25824" lon="2.2514">
        <ele>176.688732</ele>
        <time>2023-01-04T16:49:46.128Z</time>
      </trkpt>
      <trkpt lat="43.25821" lon="2.25159">
        <ele>176.548275</ele>
        <time>2023-01-04T16:49:48.115Z</time>
      </trkpt>
      <trkpt lat="43.25817" lon="2.25177">
        <ele>176.280487</ele>
        <time>2023-01-04T16:49:50.123Z</time>
      </trkpt>
      <trkpt lat="43.25814" lon="2.25196">
        <ele>176.001257</ele>
        <time>2023-01-04T16:49:52.113Z</time>
      </trkpt>
      <trkpt lat="43.25811" lon="2.25215">
        <ele>175.732455</ele>
        <time>2023-01-04T16:49:54.125Z</time>
      </trkpt>
      <trkpt lat="43.25808" lon="2.25234">
        <ele>175.464438</ele>
        <time>2023-01-04T16:49:56.129Z</time>
      </trkpt>
      <trkpt lat="43.25806" lon="2.25252">
        <ele>175.200937</ele>
        <time>2023-01-04T16:49:58.139Z</time>
      </trkpt>
      <trkpt lat="43.25804" lon="2.25269">
        <ele>174.955877</ele>
        <time>2023-01-04T16:50:00.122Z</time>
      </trkpt>
      <trkpt lat="43.25802" lon="2.25286">
        <ele>174.705617</ele>
        <time>2023-01-04T16:50:02.140Z</time>
      </trkpt>
      <trkpt lat="43.258" lon="2.25303">
        <ele>174.46725</ele>
        <time>2023-01-04T16:50:04.140Z</time>
      </trkpt>
      <trkpt lat="43.25799" lon="2.2532">
        <ele>174.230108</ele>
        <time>2023-01-04T16:50:06.138Z</time>
      </trkpt>
      <trkpt lat="43.25798" lon="2.25336">
        <ele>173.997414</ele>
        <time>2023-01-04T16:50:08.140Z</time>
      </trkpt>
      <trkpt lat="43.25796" lon="2.25352">
        <ele>173.775294</ele>
        <time>2023-01-04T16:50:10.142Z</time>
      </trkpt>
      <trkpt lat="43.25795" lon="2.25368">
        <ele>173.548185</ele>
        <time>2023-01-04T16:50:12.128Z</time>
      </trkpt>
      <trkpt lat="43.25794" lon="2.25384">
        <ele>173.313854</ele>
        <time>2023-01-04T16:50:14.129Z</time>
      </trkpt>
      <trkpt lat="43.25792" lon="2.25402">
        <ele>172.856443</ele>
        <time>2023-01-04T16:50:16.128Z</time>
      </trkpt>
      <trkpt lat="43.25791" lon="2.25421">
        <ele>172.242526</ele>
        <time>2023-01-04T16:50:18.121Z</time>
      </trkpt>
      <trkpt lat="43.25788" lon="2.25442">
        <ele>171.589888</ele>
        <time>2023-01-04T16:50:20.140Z</time>
      </trkpt>
      <trkpt lat="43.25785" lon="2.25463">
        <ele>170.897581</ele>
        <time>2023-01-04T16:50:22.140Z</time>
      </trkpt>
      <trkpt lat="43.25782" lon="2.25485">
        <ele>170.176005</ele>
        <time>2023-01-04T16:50:24.139Z</time>
      </trkpt>
      <trkpt lat="43.25778" lon="2.25508">
        <ele>169.438178</ele>
        <time>2023-01-04T16:50:26.116Z</time>
      </trkpt>
      <trkpt lat="43.25774" lon="2.25532">
        <ele>168.661245</ele>
        <time>2023-01-04T16:50:28.122Z</time>
      </trkpt>
      <trkpt lat="43.25769" lon="2.25556">
        <ele>167.866714</ele>
        <time>2023-01-04T16:50:30.138Z</time>
      </trkpt>
      <trkpt lat="43.25767" lon="2.25568">
        <ele>167.464098</ele>
        <time>2023-01-04T16:50:31.139Z</time>
      </trkpt>
      <trkpt lat="43.25765" lon="2.2558">
        <ele>167.063758</ele>
        <time>2023-01-04T16:50:32.121Z</time>
      </trkpt>
      <trkpt lat="43.25762" lon="2.25593">
        <ele>166.648303</ele>
        <time>2023-01-04T16:50:33.137Z</time>
      </trkpt>
      <trkpt lat="43.25759" lon="2.25605">
        <ele>166.248003</ele>
        <time>2023-01-04T16:50:34.138Z</time>
      </trkpt>
      <trkpt lat="43.25756" lon="2.25617">
        <ele>165.844676</ele>
        <time>2023-01-04T16:50:35.140Z</time>
      </trkpt>
      <trkpt lat="43.25753" lon="2.25629">
        <ele>165.452057</ele>
        <time>2023-01-04T16:50:36.139Z</time>
      </trkpt>
      <trkpt lat="43.25748" lon="2.2565">
        <ele>165.087349</ele>
        <time>2023-01-04T16:50:38.128Z</time>
      </trkpt>
      <trkpt lat="43.25743" lon="2.25672">
        <ele>164.752407</ele>
        <time>2023-01-04T16:50:40.114Z</time>
      </trkpt>
      <trkpt lat="43.25738" lon="2.25693">
        <ele>164.431108</ele>
        <time>2023-01-04T16:50:42.137Z</time>
      </trkpt>
      <trkpt lat="43.25733" lon="2.25714">
        <ele>164.129387</ele>
        <time>2023-01-04T16:50:44.151Z</time>
      </trkpt>
      <trkpt lat="43.25728" lon="2.25733">
        <ele>163.836382</ele>
        <time>2023-01-04T16:50:46.120Z</time>
      </trkpt>
      <trkpt lat="43.25723" lon="2.25752">
        <ele>163.540664</ele>
        <time>2023-01-04T16:50:48.127Z</time>
      </trkpt>
      <trkpt lat="43.25718" lon="2.2577">
        <ele>163.264467</ele>
        <time>2023-01-04T16:50:50.114Z</time>
      </trkpt>
      <trkpt lat="43.25713" lon="2.25788">
        <ele>162.997055</ele>
        <time>2023-01-04T16:50:52.112Z</time>
      </trkpt>
      <trkpt lat="43.25708" lon="2.25805">
        <ele>162.734315</ele>
        <time>2023-01-04T16:50:54.118Z</time>
      </trkpt>
      <trkpt lat="43.25704" lon="2.25822">
        <ele>162.480292</ele>
        <time>2023-01-04T16:50:56.125Z</time>
      </trkpt>
      <trkpt lat="43.25699" lon="2.25838">
        <ele>162.229357</ele>
        <time>2023-01-04T16:50:58.114Z</time>
      </trkpt>
      <trkpt lat="43.25694" lon="2.25855">
        <ele>161.957879</ele>
        <time>2023-01-04T16:51:00.120Z</time>
      </trkpt>
      <trkpt lat="43.25689" lon="2.25872">
        <ele>161.813825</ele>
        <time>2023-01-04T16:51:02.118Z</time>
      </trkpt>
      <trkpt lat="43.25684" lon="2.2589">
        <ele>161.772868</ele>
        <time>2023-01-04T16:51:04.124Z</time>
      </trkpt>
      <trkpt lat="43.25677" lon="2.25907">
        <ele>161.729908</ele>
        <time>2023-01-04T16:51:06.124Z</time>
      </trkpt>
      <trkpt lat="43.2567" lon="2.25923">
        <ele>161.687472</ele>
        <time>2023-01-04T16:51:08.128Z</time>
      </trkpt>
      <trkpt lat="43.25661" lon="2.25939">
        <ele>161.645678</ele>
        <time>2023-01-04T16:51:10.126Z</time>
      </trkpt>
      <trkpt lat="43.25653" lon="2.25954">
        <ele>161.603377</ele>
        <time>2023-01-04T16:51:12.137Z</time>
      </trkpt>
      <trkpt lat="43.25645" lon="2.25969">
        <ele>161.562311</ele>
        <time>2023-01-04T16:51:14.124Z</time>
      </trkpt>
      <trkpt lat="43.25636" lon="2.25984">
        <ele>161.522284</ele>
        <time>2023-01-04T16:51:16.134Z</time>
      </trkpt>
      <trkpt lat="43.25628" lon="2.25998">
        <ele>161.484012</ele>
        <time>2023-01-04T16:51:18.121Z</time>
      </trkpt>
      <trkpt lat="43.25622" lon="2.26012">
        <ele>161.447996</ele>
        <time>2023-01-04T16:51:20.123Z</time>
      </trkpt>
      <trkpt lat="43.25617" lon="2.26026">
        <ele>161.413213</ele>
        <time>2023-01-04T16:51:22.118Z</time>
      </trkpt>
      <trkpt lat="43.25612" lon="2.26042">
        <ele>161.374169</ele>
        <time>2023-01-04T16:51:24.116Z</time>
      </trkpt>
      <trkpt lat="43.25606" lon="2.26059">
        <ele>161.333931</ele>
        <time>2023-01-04T16:51:26.121Z</time>
      </trkpt>
      <trkpt lat="43.25601" lon="2.26077">
        <ele>161.29968</ele>
        <time>2023-01-04T16:51:28.121Z</time>
      </trkpt>
      <trkpt lat="43.25596" lon="2.26095">
        <ele>161.332207</ele>
        <time>2023-01-04T16:51:30.121Z</time>
      </trkpt>
      <trkpt lat="43.25591" lon="2.26111">
        <ele>161.363411</ele>
        <time>2023-01-04T16:51:32.118Z</time>
      </trkpt>
      <trkpt lat="43.25586" lon="2.26128">
        <ele>161.394681</ele>
        <time>2023-01-04T16:51:34.118Z</time>
      </trkpt>
      <trkpt lat="43.25581" lon="2.26145">
        <ele>161.426092</ele>
        <time>2023-01-04T16:51:36.115Z</time>
      </trkpt>
      <trkpt lat="43.25576" lon="2.26162">
        <ele>161.456956</ele>
        <time>2023-01-04T16:51:38.125Z</time>
      </trkpt>
      <trkpt lat="43.25571" lon="2.26177">
        <ele>161.485972</ele>
        <time>2023-01-04T16:51:40.138Z</time>
      </trkpt>
      <trkpt lat="43.25568" lon="2.26194">
        <ele>161.515716</ele>
        <time>2023-01-04T16:51:42.134Z</time>
      </trkpt>
      <trkpt lat="43.25563" lon="2.26209">
        <ele>161.542985</ele>
        <time>2023-01-04T16:51:44.137Z</time>
      </trkpt>
      <trkpt lat="43.25559" lon="2.26224">
        <ele>161.570852</ele>
        <time>2023-01-04T16:51:46.124Z</time>
      </trkpt>
      <trkpt lat="43.25555" lon="2.26239">
        <ele>161.597838</ele>
        <time>2023-01-04T16:51:48.127Z</time>
      </trkpt>
      <trkpt lat="43.25551" lon="2.26253">
        <ele>161.622975</ele>
        <time>2023-01-04T16:51:50.123Z</time>
      </trkpt>
      <trkpt lat="43.25549" lon="2.26265">
        <ele>161.64518</ele>
        <time>2023-01-04T16:51:52.128Z</time>
      </trkpt>
      <trkpt lat="43.25545" lon="2.26278">
        <ele>161.669038</ele>
        <time>2023-01-04T16:51:54.135Z</time>
      </trkpt>
      <trkpt lat="43.25542" lon="2.26291">
        <ele>161.691848</ele>
        <time>2023-01-04T16:51:56.130Z</time>
      </trkpt>
      <trkpt lat="43.25538" lon="2.26302">
        <ele>161.713276</ele>
        <time>2023-01-04T16:51:58.119Z</time>
      </trkpt>
      <trkpt lat="43.25534" lon="2.26314">
        <ele>161.633121</ele>
        <time>2023-01-04T16:52:00.119Z</time>
      </trkpt>
      <trkpt lat="43.25529" lon="2.26329">
        <ele>161.478009</ele>
        <time>2023-01-04T16:52:03.136Z</time>
      </trkpt>
      <trkpt lat="43.25525" lon="2.26344">
        <ele>161.325234</ele>
        <time>2023-01-04T16:52:06.136Z</time>
      </trkpt>
      <trkpt lat="43.2552" lon="2.26361">
        <ele>161.161243</ele>
        <time>2023-01-04T16:52:09.118Z</time>
      </trkpt>
      <trkpt lat="43.25517" lon="2.26373">
        <ele>161.04589</ele>
        <time>2023-01-04T16:52:11.115Z</time>
      </trkpt>
      <trkpt lat="43.25513" lon="2.26384">
        <ele>160.931205</ele>
        <time>2023-01-04T16:52:13.136Z</time>
      </trkpt>
      <trkpt lat="43.25509" lon="2.26395">
        <ele>160.816524</ele>
        <time>2023-01-04T16:52:15.120Z</time>
      </trkpt>
      <trkpt lat="43.25499" lon="2.26406">
        <ele>160.66009</ele>
        <time>2023-01-04T16:52:18.127Z</time>
      </trkpt>
      <trkpt lat="43.2549" lon="2.26418">
        <ele>160.499588</ele>
        <time>2023-01-04T16:52:21.127Z</time>
      </trkpt>
      <trkpt lat="43.2548" lon="2.2643">
        <ele>160.33318</ele>
        <time>2023-01-04T16:52:24.117Z</time>
      </trkpt>
      <trkpt lat="43.2547" lon="2.26441">
        <ele>160.169435</ele>
        <time>2023-01-04T16:52:27.120Z</time>
      </trkpt>
      <trkpt lat="43.25462" lon="2.26453">
        <ele>160.014458</ele>
        <time>2023-01-04T16:52:30.123Z</time>
      </trkpt>
      <trkpt lat="43.25454" lon="2.26464">
        <ele>159.875184</ele>
        <time>2023-01-04T16:52:33.117Z</time>
      </trkpt>
      <trkpt lat="43.25447" lon="2.26475">
        <ele>159.740098</ele>
        <time>2023-01-04T16:52:36.127Z</time>
      </trkpt>
      <trkpt lat="43.2544" lon="2.26483">
        <ele>159.622887</ele>
        <time>2023-01-04T16:52:39.117Z</time>
      </trkpt>
      <trkpt lat="43.25441" lon="2.26504">
        <ele>159.466926</ele>
        <time>2023-01-04T16:53:41.131Z</time>
      </trkpt>
      <trkpt lat="43.25448" lon="2.26513">
        <ele>159.796066</ele>
        <time>2023-01-04T16:53:46.130Z</time>
      </trkpt>
      <trkpt lat="43.25455" lon="2.26523">
        <ele>160.14698</ele>
        <time>2023-01-04T16:53:52.116Z</time>
      </trkpt>
      <trkpt lat="43.25462" lon="2.26533">
        <ele>160.464087</ele>
        <time>2023-01-04T16:53:57.116Z</time>
      </trkpt>
      <trkpt lat="43.25468" lon="2.26543">
        <ele>160.793129</ele>
        <time>2023-01-04T16:54:02.116Z</time>
      </trkpt>
      <trkpt lat="43.25476" lon="2.2655">
        <ele>161.112446</ele>
        <time>2023-01-04T16:54:06.120Z</time>
      </trkpt>
      <trkpt lat="43.25484" lon="2.26557">
        <ele>161.438752</ele>
        <time>2023-01-04T16:54:11.129Z</time>
      </trkpt>
      <trkpt lat="43.25491" lon="2.26565">
        <ele>161.756654</ele>
        <time>2023-01-04T16:54:31.122Z</time>
      </trkpt>
      <trkpt lat="43.25496" lon="2.26576">
        <ele>162.073158</ele>
        <time>2023-01-04T16:54:42.113Z</time>
      </trkpt>
      <trkpt lat="43.25502" lon="2.26587">
        <ele>162.413426</ele>
        <time>2023-01-04T16:54:54.118Z</time>
      </trkpt>
      <trkpt lat="43.25508" lon="2.26597">
        <ele>162.749821</ele>
        <time>2023-01-04T16:55:05.150Z</time>
      </trkpt>
      <trkpt lat="43.25511" lon="2.26609">
        <ele>163.060124</ele>
        <time>2023-01-04T16:55:14.122Z</time>
      </trkpt>
      <trkpt lat="43.25513" lon="2.26626">
        <ele>163.481982</ele>
        <time>2023-01-04T16:55:35.129Z</time>
      </trkpt>
      <trkpt lat="43.25513" lon="2.26639">
        <ele>163.80365</ele>
        <time>2023-01-04T16:55:39.115Z</time>
      </trkpt>
      <trkpt lat="43.25512" lon="2.26654">
        <ele>164.165483</ele>
        <time>2023-01-04T16:55:43.124Z</time>
      </trkpt>
      <trkpt lat="43.2551" lon="2.2667">
        <ele>164.57039</ele>
        <time>2023-01-04T16:55:47.137Z</time>
      </trkpt>
      <trkpt lat="43.25507" lon="2.26686">
        <ele>164.972879</ele>
        <time>2023-01-04T16:55:51.145Z</time>
      </trkpt>
      <trkpt lat="43.25506" lon="2.26701">
        <ele>165.356921</ele>
        <time>2023-01-04T16:55:55.130Z</time>
      </trkpt>
      <trkpt lat="43.25506" lon="2.26714">
        <ele>165.593755</ele>
        <time>2023-01-04T16:55:59.128Z</time>
      </trkpt>
      <trkpt lat="43.25513" lon="2.26725">
        <ele>165.718951</ele>
        <time>2023-01-04T16:56:04.130Z</time>
      </trkpt>
      <trkpt lat="43.25522" lon="2.26732">
        <ele>165.84047</ele>
        <time>2023-01-04T16:56:07.127Z</time>
      </trkpt>
      <trkpt lat="43.25533" lon="2.26735">
        <ele>165.967732</ele>
        <time>2023-01-04T16:56:10.124Z</time>
      </trkpt>
      <trkpt lat="43.25545" lon="2.26738">
        <ele>166.104355</ele>
        <time>2023-01-04T16:56:13.118Z</time>
      </trkpt>
      <trkpt lat="43.25555" lon="2.26742">
        <ele>166.234312</ele>
        <time>2023-01-04T16:56:16.129Z</time>
      </trkpt>
      <trkpt lat="43.25566" lon="2.26745">
        <ele>166.35834</ele>
        <time>2023-01-04T16:56:19.141Z</time>
      </trkpt>
      <trkpt lat="43.25576" lon="2.26749">
        <ele>166.478457</ele>
        <time>2023-01-04T16:56:23.113Z</time>
      </trkpt>
      <trkpt lat="43.2558" lon="2.26762">
        <ele>166.594227</ele>
        <time>2023-01-04T16:56:28.130Z</time>
      </trkpt>
      <trkpt lat="43.25577" lon="2.26777">
        <ele>166.728087</ele>
        <time>2023-01-04T16:56:32.122Z</time>
      </trkpt>
      <trkpt lat="43.25574" lon="2.2679">
        <ele>166.841944</ele>
        <time>2023-01-04T16:56:35.124Z</time>
      </trkpt>
      <trkpt lat="43.25573" lon="2.26805">
        <ele>166.963143</ele>
        <time>2023-01-04T16:56:38.123Z</time>
      </trkpt>
      <trkpt lat="43.25572" lon="2.26818">
        <ele>167.074928</ele>
        <time>2023-01-04T16:56:41.123Z</time>
      </trkpt>
      <trkpt lat="43.25573" lon="2.26832">
        <ele>167.192101</ele>
        <time>2023-01-04T16:56:45.119Z</time>
      </trkpt>
      <trkpt lat="43.25573" lon="2.26846">
        <ele>167.310389</ele>
        <time>2023-01-04T16:56:49.129Z</time>
      </trkpt>
      <trkpt lat="43.25574" lon="2.26862">
        <ele>167.443852</ele>
        <time>2023-01-04T16:56:53.135Z</time>
      </trkpt>
      <trkpt lat="43.25574" lon="2.26877">
        <ele>167.568867</ele>
        <time>2023-01-04T16:56:57.120Z</time>
      </trkpt>
      <trkpt lat="43.25573" lon="2.2689">
        <ele>167.509172</ele>
        <time>2023-01-04T16:57:00.131Z</time>
      </trkpt>
      <trkpt lat="43.25573" lon="2.26904">
        <ele>167.26318</ele>
        <time>2023-01-04T16:57:03.128Z</time>
      </trkpt>
      <trkpt lat="43.25572" lon="2.26917">
        <ele>167.038413</ele>
        <time>2023-01-04T16:57:06.126Z</time>
      </trkpt>
      <trkpt lat="43.25572" lon="2.2693">
        <ele>166.816334</ele>
        <time>2023-01-04T16:57:10.116Z</time>
      </trkpt>
      <trkpt lat="43.25572" lon="2.26944">
        <ele>166.57377</ele>
        <time>2023-01-04T16:57:15.130Z</time>
      </trkpt>
      <trkpt lat="43.25575" lon="2.26959">
        <ele>166.310917</ele>
        <time>2023-01-04T16:57:20.116Z</time>
      </trkpt>
      <trkpt lat="43.25574" lon="2.26974">
        <ele>166.067945</ele>
        <time>2023-01-04T16:57:24.135Z</time>
      </trkpt>
      <trkpt lat="43.25573" lon="2.2699">
        <ele>165.792667</ele>
        <time>2023-01-04T16:57:28.125Z</time>
      </trkpt>
      <trkpt lat="43.25572" lon="2.27002">
        <ele>165.572197</ele>
        <time>2023-01-04T16:57:31.126Z</time>
      </trkpt>
      <trkpt lat="43.25572" lon="2.27016">
        <ele>165.341162</ele>
        <time>2023-01-04T16:57:34.125Z</time>
      </trkpt>
      <trkpt lat="43.25571" lon="2.27031">
        <ele>165.089662</ele>
        <time>2023-01-04T16:57:37.139Z</time>
      </trkpt>
      <trkpt lat="43.2557" lon="2.27047">
        <ele>164.814905</ele>
        <time>2023-01-04T16:57:40.147Z</time>
      </trkpt>
      <trkpt lat="43.25568" lon="2.27062">
        <ele>164.554729</ele>
        <time>2023-01-04T16:57:43.131Z</time>
      </trkpt>
      <trkpt lat="43.25566" lon="2.27075">
        <ele>164.3127</ele>
        <time>2023-01-04T16:57:46.113Z</time>
      </trkpt>
      <trkpt lat="43.25564" lon="2.27088">
        <ele>164.093626</ele>
        <time>2023-01-04T16:57:49.117Z</time>
      </trkpt>
      <trkpt lat="43.25563" lon="2.27101">
        <ele>163.872615</ele>
        <time>2023-01-04T16:57:52.119Z</time>
      </trkpt>
      <trkpt lat="43.25562" lon="2.27114">
        <ele>163.647847</ele>
        <time>2023-01-04T16:57:56.126Z</time>
      </trkpt>
      <trkpt lat="43.25558" lon="2.27127">
        <ele>163.405202</ele>
        <time>2023-01-04T16:58:00.119Z</time>
      </trkpt>
      <trkpt lat="43.25555" lon="2.27141">
        <ele>163.207479</ele>
        <time>2023-01-04T16:58:04.127Z</time>
      </trkpt>
      <trkpt lat="43.25552" lon="2.27154">
        <ele>163.020818</ele>
        <time>2023-01-04T16:58:08.124Z</time>
      </trkpt>
      <trkpt lat="43.25549" lon="2.27169">
        <ele>162.80449</ele>
        <time>2023-01-04T16:58:12.118Z</time>
      </trkpt>
      <trkpt lat="43.25546" lon="2.27184">
        <ele>162.579366</ele>
        <time>2023-01-04T16:58:16.123Z</time>
      </trkpt>
      <trkpt lat="43.25544" lon="2.27199">
        <ele>162.370661</ele>
        <time>2023-01-04T16:58:20.124Z</time>
      </trkpt>
      <trkpt lat="43.25542" lon="2.27213">
        <ele>162.17706</ele>
        <time>2023-01-04T16:58:24.124Z</time>
      </trkpt>
      <trkpt lat="43.2554" lon="2.27227">
        <ele>161.966</ele>
        <time>2023-01-04T16:58:28.133Z</time>
      </trkpt>
      <trkpt lat="43.25539" lon="2.27242">
        <ele>161.758074</ele>
        <time>2023-01-04T16:58:32.124Z</time>
      </trkpt>
      <trkpt lat="43.25538" lon="2.27272">
        <ele>161.348846</ele>
        <time>2023-01-04T16:59:18.128Z</time>
      </trkpt>
      <trkpt lat="43.25537" lon="2.27287">
        <ele>161.13576</ele>
        <time>2023-01-04T16:59:21.132Z</time>
      </trkpt>
      <trkpt lat="43.25536" lon="2.27302">
        <ele>160.928867</ele>
        <time>2023-01-04T16:59:24.121Z</time>
      </trkpt>
      <trkpt lat="43.25535" lon="2.27316">
        <ele>160.727073</ele>
        <time>2023-01-04T16:59:28.132Z</time>
      </trkpt>
      <trkpt lat="43.25536" lon="2.27331">
        <ele>160.527872</ele>
        <time>2023-01-04T16:59:33.131Z</time>
      </trkpt>
      <trkpt lat="43.25538" lon="2.27345">
        <ele>160.319167</ele>
        <time>2023-01-04T16:59:37.131Z</time>
      </trkpt>
      <trkpt lat="43.25539" lon="2.27362">
        <ele>160.092089</ele>
        <time>2023-01-04T16:59:41.132Z</time>
      </trkpt>
      <trkpt lat="43.25538" lon="2.27378">
        <ele>159.907935</ele>
        <time>2023-01-04T16:59:45.120Z</time>
      </trkpt>
      <trkpt lat="43.25538" lon="2.27393">
        <ele>159.786137</ele>
        <time>2023-01-04T16:59:48.135Z</time>
      </trkpt>
      <trkpt lat="43.25538" lon="2.27409">
        <ele>159.659572</ele>
        <time>2023-01-04T16:59:51.133Z</time>
      </trkpt>
      <trkpt lat="43.25537" lon="2.27424">
        <ele>159.53968</ele>
        <time>2023-01-04T16:59:54.137Z</time>
      </trkpt>
      <trkpt lat="43.25536" lon="2.27437">
        <ele>159.440338</ele>
        <time>2023-01-04T16:59:57.135Z</time>
      </trkpt>
      <trkpt lat="43.25534" lon="2.27451">
        <ele>159.324016</ele>
        <time>2023-01-04T17:00:01.136Z</time>
      </trkpt>
      <trkpt lat="43.25533" lon="2.27467">
        <ele>159.193216</ele>
        <time>2023-01-04T17:00:05.134Z</time>
      </trkpt>
      <trkpt lat="43.25531" lon="2.27481">
        <ele>159.083198</ele>
        <time>2023-01-04T17:00:08.126Z</time>
      </trkpt>
      <trkpt lat="43.25529" lon="2.27497">
        <ele>158.957414</ele>
        <time>2023-01-04T17:00:11.131Z</time>
      </trkpt>
      <trkpt lat="43.25528" lon="2.27513">
        <ele>158.829382</ele>
        <time>2023-01-04T17:00:14.136Z</time>
      </trkpt>
      <trkpt lat="43.25526" lon="2.27526">
        <ele>158.721597</ele>
        <time>2023-01-04T17:00:17.135Z</time>
      </trkpt>
      <trkpt lat="43.25525" lon="2.27539">
        <ele>158.618661</ele>
        <time>2023-01-04T17:00:20.127Z</time>
      </trkpt>
      <trkpt lat="43.25524" lon="2.27553">
        <ele>158.50293</ele>
        <time>2023-01-04T17:00:23.133Z</time>
      </trkpt>
      <trkpt lat="43.25523" lon="2.27568">
        <ele>158.385167</ele>
        <time>2023-01-04T17:00:26.122Z</time>
      </trkpt>
      <trkpt lat="43.25521" lon="2.27582">
        <ele>158.272695</ele>
        <time>2023-01-04T17:00:29.132Z</time>
      </trkpt>
      <trkpt lat="43.25519" lon="2.27594">
        <ele>158.172732</ele>
        <time>2023-01-04T17:00:32.112Z</time>
      </trkpt>
      <trkpt lat="43.25517" lon="2.27609">
        <ele>158.055755</ele>
        <time>2023-01-04T17:00:36.125Z</time>
      </trkpt>
      <trkpt lat="43.25513" lon="2.27623">
        <ele>158.004835</ele>
        <time>2023-01-04T17:00:40.133Z</time>
      </trkpt>
      <trkpt lat="43.25508" lon="2.27633">
        <ele>158.004835</ele>
        <time>2023-01-04T17:00:44.120Z</time>
      </trkpt>
      <trkpt lat="43.25505" lon="2.27645">
        <ele>158.004835</ele>
        <time>2023-01-04T17:00:49.134Z</time>
      </trkpt>
      <trkpt lat="43.255" lon="2.27658">
        <ele>158.004835</ele>
        <time>2023-01-04T17:00:55.135Z</time>
      </trkpt>
      <trkpt lat="43.25493" lon="2.27688">
        <ele>158.004835</ele>
        <time>2023-01-04T17:01:22.136Z</time>
      </trkpt>
      <trkpt lat="43.2549" lon="2.27702">
        <ele>158.004835</ele>
        <time>2023-01-04T17:01:26.115Z</time>
      </trkpt>
      <trkpt lat="43.25486" lon="2.27714">
        <ele>158.004835</ele>
        <time>2023-01-04T17:01:30.132Z</time>
      </trkpt>
      <trkpt lat="43.25483" lon="2.27726">
        <ele>158.004835</ele>
        <time>2023-01-04T17:01:34.122Z</time>
      </trkpt>
      <trkpt lat="43.25478" lon="2.27738">
        <ele>158.004835</ele>
        <time>2023-01-04T17:01:38.132Z</time>
      </trkpt>
      <trkpt lat="43.25474" lon="2.27751">
        <ele>158.004835</ele>
        <time>2023-01-04T17:01:42.135Z</time>
      </trkpt>
      <trkpt lat="43.25469" lon="2.27762">
        <ele>158.004835</ele>
        <time>2023-01-04T17:01:46.135Z</time>
      </trkpt>
      <trkpt lat="43.25465" lon="2.27773">
        <ele>158.004835</ele>
        <time>2023-01-04T17:01:50.134Z</time>
      </trkpt>
      <trkpt lat="43.2546" lon="2.27784">
        <ele>158.004835</ele>
        <time>2023-01-04T17:01:54.139Z</time>
      </trkpt>
      <trkpt lat="43.25455" lon="2.27792">
        <ele>158.004835</ele>
        <time>2023-01-04T17:02:48.294Z</time>
        <extensions>
          <visugpx:TrkExtension xmlns:visugpx="https://www.visugpx.com/editgpx/">
            <visugpx:node>1</visugpx:node>
            </visugpx:TrkExtension>
        </extensions>
      </trkpt>
    </trkseg>
  </trk>
</gpx>